<?xml version="1.0" encoding="UTF-8" standalone="no" ?>
<gpx xmlns="http://www.topografix.com/GPX/1/1" xmlns:xsi="http://www.w3.org/2001/XMLSchema-instance" xsi:schemaLocation="http://www.topografix.com/GPX/1/1 http://www.topografix.com/GPX/1/1/gpx.xsd" version="1.1" creator="VisuGPX - https://www.visugpx.com">
  <metadata>
    <name>VAE St Martin Signal St André </name>
    <desc><![CDATA[Très belle sortie avec de beaux points de vue. ]]></desc>
  </metadata>
  <trk>
    <name><![CDATA[VAE St Martin Signal St André _1]]></name>
    <trkseg>
      <trkpt lat="45.71058" lon="4.7544">
        <ele>313.4</ele>
        <time>2025-04-30T12:42:29Z</time>
      </trkpt>
      <trkpt lat="45.71057" lon="4.75437">
        <ele>313.4</ele>
        <time>2025-04-30T12:42:30Z</time>
      </trkpt>
      <trkpt lat="45.71057" lon="4.75435">
        <ele>313.4</ele>
        <time>2025-04-30T12:42:31Z</time>
      </trkpt>
      <trkpt lat="45.71057" lon="4.75432">
        <ele>313.4</ele>
        <time>2025-04-30T12:42:32Z</time>
      </trkpt>
      <trkpt lat="45.71058" lon="4.7543">
        <ele>313.4</ele>
        <time>2025-04-30T12:42:33Z</time>
      </trkpt>
      <trkpt lat="45.71059" lon="4.75427">
        <ele>313.4</ele>
        <time>2025-04-30T12:42:34Z</time>
      </trkpt>
      <trkpt lat="45.71059" lon="4.75424">
        <ele>313.6</ele>
        <time>2025-04-30T12:42:35Z</time>
      </trkpt>
      <trkpt lat="45.7106" lon="4.7542">
        <ele>313.8</ele>
        <time>2025-04-30T12:42:36Z</time>
      </trkpt>
      <trkpt lat="45.7106" lon="4.75417">
        <ele>313.8</ele>
        <time>2025-04-30T12:42:37Z</time>
      </trkpt>
      <trkpt lat="45.7106" lon="4.75413">
        <ele>313.8</ele>
        <time>2025-04-30T12:42:38Z</time>
      </trkpt>
      <trkpt lat="45.7106" lon="4.7541">
        <ele>313.8</ele>
        <time>2025-04-30T12:42:39Z</time>
      </trkpt>
      <trkpt lat="45.71061" lon="4.75407">
        <ele>313.8</ele>
        <time>2025-04-30T12:42:40Z</time>
      </trkpt>
      <trkpt lat="45.71062" lon="4.75403">
        <ele>314</ele>
        <time>2025-04-30T12:42:41Z</time>
      </trkpt>
      <trkpt lat="45.71063" lon="4.75399">
        <ele>314</ele>
        <time>2025-04-30T12:42:42Z</time>
      </trkpt>
      <trkpt lat="45.71065" lon="4.75394">
        <ele>314</ele>
        <time>2025-04-30T12:42:43Z</time>
      </trkpt>
      <trkpt lat="45.71066" lon="4.75388">
        <ele>314</ele>
        <time>2025-04-30T12:42:44Z</time>
      </trkpt>
      <trkpt lat="45.71068" lon="4.75381">
        <ele>313.8</ele>
        <time>2025-04-30T12:42:45Z</time>
      </trkpt>
      <trkpt lat="45.7107" lon="4.75374">
        <ele>313.2</ele>
        <time>2025-04-30T12:42:46Z</time>
      </trkpt>
      <trkpt lat="45.71072" lon="4.75366">
        <ele>312.8</ele>
        <time>2025-04-30T12:42:47Z</time>
      </trkpt>
      <trkpt lat="45.71075" lon="4.75357">
        <ele>312.2</ele>
        <time>2025-04-30T12:42:48Z</time>
      </trkpt>
      <trkpt lat="45.71078" lon="4.75349">
        <ele>311.6</ele>
        <time>2025-04-30T12:42:49Z</time>
      </trkpt>
      <trkpt lat="45.71081" lon="4.75339">
        <ele>310.4</ele>
        <time>2025-04-30T12:42:50Z</time>
      </trkpt>
      <trkpt lat="45.71083" lon="4.75327">
        <ele>309.4</ele>
        <time>2025-04-30T12:42:51Z</time>
      </trkpt>
      <trkpt lat="45.71088" lon="4.75317">
        <ele>308.2</ele>
        <time>2025-04-30T12:42:52Z</time>
      </trkpt>
      <trkpt lat="45.71093" lon="4.75306">
        <ele>306.8</ele>
        <time>2025-04-30T12:42:53Z</time>
      </trkpt>
      <trkpt lat="45.71098" lon="4.75293">
        <ele>305.6</ele>
        <time>2025-04-30T12:42:54Z</time>
      </trkpt>
      <trkpt lat="45.71104" lon="4.75279">
        <ele>304</ele>
        <time>2025-04-30T12:42:55Z</time>
      </trkpt>
      <trkpt lat="45.7111" lon="4.75264">
        <ele>302.8</ele>
        <time>2025-04-30T12:42:56Z</time>
      </trkpt>
      <trkpt lat="45.71114" lon="4.75249">
        <ele>301</ele>
        <time>2025-04-30T12:42:57Z</time>
      </trkpt>
      <trkpt lat="45.71117" lon="4.75232">
        <ele>299.8</ele>
        <time>2025-04-30T12:42:58Z</time>
      </trkpt>
      <trkpt lat="45.71118" lon="4.75217">
        <ele>297.8</ele>
        <time>2025-04-30T12:42:59Z</time>
      </trkpt>
      <trkpt lat="45.71119" lon="4.75201">
        <ele>296.8</ele>
        <time>2025-04-30T12:43:00Z</time>
      </trkpt>
      <trkpt lat="45.71119" lon="4.75186">
        <ele>296.8</ele>
        <time>2025-04-30T12:43:01Z</time>
      </trkpt>
      <trkpt lat="45.71117" lon="4.75172">
        <ele>296.8</ele>
        <time>2025-04-30T12:43:02Z</time>
      </trkpt>
      <trkpt lat="45.71113" lon="4.75159">
        <ele>296.8</ele>
        <time>2025-04-30T12:43:03Z</time>
      </trkpt>
      <trkpt lat="45.7111" lon="4.75147">
        <ele>296.8</ele>
        <time>2025-04-30T12:43:04Z</time>
      </trkpt>
      <trkpt lat="45.71108" lon="4.75136">
        <ele>297</ele>
        <time>2025-04-30T12:43:05Z</time>
      </trkpt>
      <trkpt lat="45.71106" lon="4.75126">
        <ele>297.8</ele>
        <time>2025-04-30T12:43:06Z</time>
      </trkpt>
      <trkpt lat="45.71106" lon="4.75117">
        <ele>299</ele>
        <time>2025-04-30T12:43:07Z</time>
      </trkpt>
      <trkpt lat="45.71106" lon="4.75109">
        <ele>300.2</ele>
        <time>2025-04-30T12:43:08Z</time>
      </trkpt>
      <trkpt lat="45.71107" lon="4.75103">
        <ele>301.4</ele>
        <time>2025-04-30T12:43:09Z</time>
      </trkpt>
      <trkpt lat="45.71108" lon="4.75097">
        <ele>302.6</ele>
        <time>2025-04-30T12:43:10Z</time>
      </trkpt>
      <trkpt lat="45.7111" lon="4.75091">
        <ele>303.6</ele>
        <time>2025-04-30T12:43:11Z</time>
      </trkpt>
      <trkpt lat="45.71111" lon="4.75086">
        <ele>304.8</ele>
        <time>2025-04-30T12:43:12Z</time>
      </trkpt>
      <trkpt lat="45.71112" lon="4.75082">
        <ele>305.6</ele>
        <time>2025-04-30T12:43:13Z</time>
      </trkpt>
      <trkpt lat="45.71114" lon="4.75078">
        <ele>306.4</ele>
        <time>2025-04-30T12:43:14Z</time>
      </trkpt>
      <trkpt lat="45.71116" lon="4.75074">
        <ele>307.2</ele>
        <time>2025-04-30T12:43:15Z</time>
      </trkpt>
      <trkpt lat="45.71119" lon="4.7507">
        <ele>307.8</ele>
        <time>2025-04-30T12:43:16Z</time>
      </trkpt>
      <trkpt lat="45.71121" lon="4.75065">
        <ele>308.2</ele>
        <time>2025-04-30T12:43:17Z</time>
      </trkpt>
      <trkpt lat="45.71123" lon="4.7506">
        <ele>308.6</ele>
        <time>2025-04-30T12:43:18Z</time>
      </trkpt>
      <trkpt lat="45.71124" lon="4.75054">
        <ele>309</ele>
        <time>2025-04-30T12:43:19Z</time>
      </trkpt>
      <trkpt lat="45.71126" lon="4.75049">
        <ele>309.4</ele>
        <time>2025-04-30T12:43:20Z</time>
      </trkpt>
      <trkpt lat="45.71129" lon="4.75044">
        <ele>309.8</ele>
        <time>2025-04-30T12:43:21Z</time>
      </trkpt>
      <trkpt lat="45.71131" lon="4.75039">
        <ele>310.2</ele>
        <time>2025-04-30T12:43:22Z</time>
      </trkpt>
      <trkpt lat="45.71132" lon="4.75034">
        <ele>310.6</ele>
        <time>2025-04-30T12:43:23Z</time>
      </trkpt>
      <trkpt lat="45.71134" lon="4.75028">
        <ele>310.8</ele>
        <time>2025-04-30T12:43:24Z</time>
      </trkpt>
      <trkpt lat="45.71135" lon="4.75022">
        <ele>311</ele>
        <time>2025-04-30T12:43:25Z</time>
      </trkpt>
      <trkpt lat="45.71135" lon="4.75017">
        <ele>311.4</ele>
        <time>2025-04-30T12:43:26Z</time>
      </trkpt>
      <trkpt lat="45.71136" lon="4.75012">
        <ele>311.6</ele>
        <time>2025-04-30T12:43:27Z</time>
      </trkpt>
      <trkpt lat="45.71136" lon="4.75007">
        <ele>312.4</ele>
        <time>2025-04-30T12:43:28Z</time>
      </trkpt>
      <trkpt lat="45.71136" lon="4.75001">
        <ele>313.2</ele>
        <time>2025-04-30T12:43:29Z</time>
      </trkpt>
      <trkpt lat="45.71137" lon="4.74996">
        <ele>313.4</ele>
        <time>2025-04-30T12:43:30Z</time>
      </trkpt>
      <trkpt lat="45.71138" lon="4.7499">
        <ele>313.6</ele>
        <time>2025-04-30T12:43:31Z</time>
      </trkpt>
      <trkpt lat="45.71139" lon="4.74985">
        <ele>313.6</ele>
        <time>2025-04-30T12:43:32Z</time>
      </trkpt>
      <trkpt lat="45.71141" lon="4.7498">
        <ele>313.8</ele>
        <time>2025-04-30T12:43:33Z</time>
      </trkpt>
      <trkpt lat="45.71143" lon="4.74975">
        <ele>313.8</ele>
        <time>2025-04-30T12:43:34Z</time>
      </trkpt>
      <trkpt lat="45.71146" lon="4.74972">
        <ele>314</ele>
        <time>2025-04-30T12:43:35Z</time>
      </trkpt>
      <trkpt lat="45.71149" lon="4.74969">
        <ele>314.6</ele>
        <time>2025-04-30T12:43:36Z</time>
      </trkpt>
      <trkpt lat="45.71153" lon="4.74966">
        <ele>314.8</ele>
        <time>2025-04-30T12:43:37Z</time>
      </trkpt>
      <trkpt lat="45.71157" lon="4.74964">
        <ele>315</ele>
        <time>2025-04-30T12:43:38Z</time>
      </trkpt>
      <trkpt lat="45.71161" lon="4.74962">
        <ele>315.2</ele>
        <time>2025-04-30T12:43:39Z</time>
      </trkpt>
      <trkpt lat="45.71165" lon="4.74959">
        <ele>315.4</ele>
        <time>2025-04-30T12:43:40Z</time>
      </trkpt>
      <trkpt lat="45.71169" lon="4.74957">
        <ele>315.6</ele>
        <time>2025-04-30T12:43:41Z</time>
      </trkpt>
      <trkpt lat="45.71173" lon="4.74956">
        <ele>315.6</ele>
        <time>2025-04-30T12:43:42Z</time>
      </trkpt>
      <trkpt lat="45.71178" lon="4.74954">
        <ele>315.8</ele>
        <time>2025-04-30T12:43:43Z</time>
      </trkpt>
      <trkpt lat="45.71182" lon="4.74952">
        <ele>315.8</ele>
        <time>2025-04-30T12:43:44Z</time>
      </trkpt>
      <trkpt lat="45.71186" lon="4.74949">
        <ele>316</ele>
        <time>2025-04-30T12:43:45Z</time>
      </trkpt>
      <trkpt lat="45.7119" lon="4.74947">
        <ele>316.2</ele>
        <time>2025-04-30T12:43:46Z</time>
      </trkpt>
      <trkpt lat="45.71194" lon="4.74945">
        <ele>316.2</ele>
        <time>2025-04-30T12:43:47Z</time>
      </trkpt>
      <trkpt lat="45.71198" lon="4.74942">
        <ele>316.2</ele>
        <time>2025-04-30T12:43:48Z</time>
      </trkpt>
      <trkpt lat="45.71202" lon="4.7494">
        <ele>316.4</ele>
        <time>2025-04-30T12:43:49Z</time>
      </trkpt>
      <trkpt lat="45.71205" lon="4.74937">
        <ele>316.6</ele>
        <time>2025-04-30T12:43:50Z</time>
      </trkpt>
      <trkpt lat="45.71209" lon="4.74934">
        <ele>316.8</ele>
        <time>2025-04-30T12:43:51Z</time>
      </trkpt>
      <trkpt lat="45.71212" lon="4.74931">
        <ele>317</ele>
        <time>2025-04-30T12:43:52Z</time>
      </trkpt>
      <trkpt lat="45.71215" lon="4.74928">
        <ele>317.2</ele>
        <time>2025-04-30T12:43:53Z</time>
      </trkpt>
      <trkpt lat="45.71219" lon="4.74926">
        <ele>317.4</ele>
        <time>2025-04-30T12:43:54Z</time>
      </trkpt>
      <trkpt lat="45.71223" lon="4.74925">
        <ele>317.8</ele>
        <time>2025-04-30T12:43:55Z</time>
      </trkpt>
      <trkpt lat="45.71227" lon="4.74922">
        <ele>317.8</ele>
        <time>2025-04-30T12:43:56Z</time>
      </trkpt>
      <trkpt lat="45.71229" lon="4.74917">
        <ele>318</ele>
        <time>2025-04-30T12:43:57Z</time>
      </trkpt>
      <trkpt lat="45.71231" lon="4.74912">
        <ele>318</ele>
        <time>2025-04-30T12:43:58Z</time>
      </trkpt>
      <trkpt lat="45.71231" lon="4.74905">
        <ele>318</ele>
        <time>2025-04-30T12:43:59Z</time>
      </trkpt>
      <trkpt lat="45.71231" lon="4.74898">
        <ele>317.8</ele>
        <time>2025-04-30T12:44:00Z</time>
      </trkpt>
      <trkpt lat="45.71232" lon="4.7489">
        <ele>317.6</ele>
        <time>2025-04-30T12:44:01Z</time>
      </trkpt>
      <trkpt lat="45.71233" lon="4.74882">
        <ele>317.2</ele>
        <time>2025-04-30T12:44:02Z</time>
      </trkpt>
      <trkpt lat="45.71234" lon="4.74873">
        <ele>316.8</ele>
        <time>2025-04-30T12:44:03Z</time>
      </trkpt>
      <trkpt lat="45.71235" lon="4.74865">
        <ele>316.6</ele>
        <time>2025-04-30T12:44:04Z</time>
      </trkpt>
      <trkpt lat="45.71236" lon="4.74855">
        <ele>316</ele>
        <time>2025-04-30T12:44:05Z</time>
      </trkpt>
      <trkpt lat="45.71236" lon="4.74846">
        <ele>315.6</ele>
        <time>2025-04-30T12:44:06Z</time>
      </trkpt>
      <trkpt lat="45.71234" lon="4.74837">
        <ele>315.2</ele>
        <time>2025-04-30T12:44:07Z</time>
      </trkpt>
      <trkpt lat="45.71232" lon="4.74828">
        <ele>315.2</ele>
        <time>2025-04-30T12:44:08Z</time>
      </trkpt>
      <trkpt lat="45.71229" lon="4.7482">
        <ele>315</ele>
        <time>2025-04-30T12:44:09Z</time>
      </trkpt>
      <trkpt lat="45.71226" lon="4.74812">
        <ele>315</ele>
        <time>2025-04-30T12:44:10Z</time>
      </trkpt>
      <trkpt lat="45.71224" lon="4.74803">
        <ele>315</ele>
        <time>2025-04-30T12:44:11Z</time>
      </trkpt>
      <trkpt lat="45.71223" lon="4.74795">
        <ele>314.8</ele>
        <time>2025-04-30T12:44:12Z</time>
      </trkpt>
      <trkpt lat="45.71221" lon="4.74787">
        <ele>314.8</ele>
        <time>2025-04-30T12:44:13Z</time>
      </trkpt>
      <trkpt lat="45.71219" lon="4.7478">
        <ele>314.8</ele>
        <time>2025-04-30T12:44:14Z</time>
      </trkpt>
      <trkpt lat="45.71217" lon="4.74772">
        <ele>315</ele>
        <time>2025-04-30T12:44:15Z</time>
      </trkpt>
      <trkpt lat="45.71215" lon="4.74765">
        <ele>315.4</ele>
        <time>2025-04-30T12:44:16Z</time>
      </trkpt>
      <trkpt lat="45.71213" lon="4.74758">
        <ele>315.4</ele>
        <time>2025-04-30T12:44:17Z</time>
      </trkpt>
      <trkpt lat="45.71211" lon="4.74751">
        <ele>315.6</ele>
        <time>2025-04-30T12:44:18Z</time>
      </trkpt>
      <trkpt lat="45.71208" lon="4.74745">
        <ele>315.8</ele>
        <time>2025-04-30T12:44:19Z</time>
      </trkpt>
      <trkpt lat="45.71206" lon="4.74738">
        <ele>315.8</ele>
        <time>2025-04-30T12:44:20Z</time>
      </trkpt>
      <trkpt lat="45.71205" lon="4.74732">
        <ele>315.8</ele>
        <time>2025-04-30T12:44:21Z</time>
      </trkpt>
      <trkpt lat="45.71204" lon="4.74726">
        <ele>316.2</ele>
        <time>2025-04-30T12:44:22Z</time>
      </trkpt>
      <trkpt lat="45.71204" lon="4.7472">
        <ele>316.4</ele>
        <time>2025-04-30T12:44:23Z</time>
      </trkpt>
      <trkpt lat="45.71204" lon="4.74713">
        <ele>316.8</ele>
        <time>2025-04-30T12:44:24Z</time>
      </trkpt>
      <trkpt lat="45.71204" lon="4.74707">
        <ele>317</ele>
        <time>2025-04-30T12:44:25Z</time>
      </trkpt>
      <trkpt lat="45.71204" lon="4.74701">
        <ele>317.2</ele>
        <time>2025-04-30T12:44:26Z</time>
      </trkpt>
      <trkpt lat="45.71205" lon="4.74694">
        <ele>317.4</ele>
        <time>2025-04-30T12:44:27Z</time>
      </trkpt>
      <trkpt lat="45.71205" lon="4.74688">
        <ele>317.6</ele>
        <time>2025-04-30T12:44:28Z</time>
      </trkpt>
      <trkpt lat="45.71205" lon="4.74681">
        <ele>317.6</ele>
        <time>2025-04-30T12:44:29Z</time>
      </trkpt>
      <trkpt lat="45.71206" lon="4.74675">
        <ele>317.8</ele>
        <time>2025-04-30T12:44:30Z</time>
      </trkpt>
      <trkpt lat="45.71206" lon="4.74669">
        <ele>318</ele>
        <time>2025-04-30T12:44:31Z</time>
      </trkpt>
      <trkpt lat="45.71206" lon="4.74663">
        <ele>318.2</ele>
        <time>2025-04-30T12:44:32Z</time>
      </trkpt>
      <trkpt lat="45.71206" lon="4.74657">
        <ele>318.4</ele>
        <time>2025-04-30T12:44:33Z</time>
      </trkpt>
      <trkpt lat="45.71206" lon="4.7465">
        <ele>318.6</ele>
        <time>2025-04-30T12:44:34Z</time>
      </trkpt>
      <trkpt lat="45.71206" lon="4.74644">
        <ele>318.6</ele>
        <time>2025-04-30T12:44:35Z</time>
      </trkpt>
      <trkpt lat="45.71207" lon="4.74637">
        <ele>318.8</ele>
        <time>2025-04-30T12:44:36Z</time>
      </trkpt>
      <trkpt lat="45.71207" lon="4.74631">
        <ele>319</ele>
        <time>2025-04-30T12:44:37Z</time>
      </trkpt>
      <trkpt lat="45.71207" lon="4.74624">
        <ele>319</ele>
        <time>2025-04-30T12:44:38Z</time>
      </trkpt>
      <trkpt lat="45.71208" lon="4.74619">
        <ele>319.2</ele>
        <time>2025-04-30T12:44:39Z</time>
      </trkpt>
      <trkpt lat="45.71208" lon="4.7461">
        <ele>319.2</ele>
        <time>2025-04-30T12:44:40Z</time>
      </trkpt>
      <trkpt lat="45.71209" lon="4.74603">
        <ele>319.2</ele>
        <time>2025-04-30T12:44:41Z</time>
      </trkpt>
      <trkpt lat="45.71209" lon="4.74597">
        <ele>319.2</ele>
        <time>2025-04-30T12:44:42Z</time>
      </trkpt>
      <trkpt lat="45.7121" lon="4.7459">
        <ele>319.2</ele>
        <time>2025-04-30T12:44:43Z</time>
      </trkpt>
      <trkpt lat="45.71211" lon="4.74583">
        <ele>319.2</ele>
        <time>2025-04-30T12:44:44Z</time>
      </trkpt>
      <trkpt lat="45.71212" lon="4.74576">
        <ele>319.2</ele>
        <time>2025-04-30T12:44:45Z</time>
      </trkpt>
      <trkpt lat="45.71214" lon="4.7457">
        <ele>319.4</ele>
        <time>2025-04-30T12:44:46Z</time>
      </trkpt>
      <trkpt lat="45.71215" lon="4.74564">
        <ele>319.4</ele>
        <time>2025-04-30T12:44:47Z</time>
      </trkpt>
      <trkpt lat="45.71217" lon="4.74558">
        <ele>319.4</ele>
        <time>2025-04-30T12:44:48Z</time>
      </trkpt>
      <trkpt lat="45.71218" lon="4.74553">
        <ele>319.6</ele>
        <time>2025-04-30T12:44:49Z</time>
      </trkpt>
      <trkpt lat="45.71219" lon="4.74547">
        <ele>319.8</ele>
        <time>2025-04-30T12:44:50Z</time>
      </trkpt>
      <trkpt lat="45.7122" lon="4.74541">
        <ele>320</ele>
        <time>2025-04-30T12:44:51Z</time>
      </trkpt>
      <trkpt lat="45.71221" lon="4.74534">
        <ele>320</ele>
        <time>2025-04-30T12:44:52Z</time>
      </trkpt>
      <trkpt lat="45.71222" lon="4.74528">
        <ele>320</ele>
        <time>2025-04-30T12:44:53Z</time>
      </trkpt>
      <trkpt lat="45.71223" lon="4.74521">
        <ele>320.2</ele>
        <time>2025-04-30T12:44:54Z</time>
      </trkpt>
      <trkpt lat="45.71223" lon="4.74515">
        <ele>320.2</ele>
        <time>2025-04-30T12:44:55Z</time>
      </trkpt>
      <trkpt lat="45.71223" lon="4.74508">
        <ele>320.2</ele>
        <time>2025-04-30T12:44:56Z</time>
      </trkpt>
      <trkpt lat="45.71224" lon="4.74501">
        <ele>320.4</ele>
        <time>2025-04-30T12:44:57Z</time>
      </trkpt>
      <trkpt lat="45.71225" lon="4.74494">
        <ele>320.4</ele>
        <time>2025-04-30T12:44:58Z</time>
      </trkpt>
      <trkpt lat="45.71225" lon="4.74488">
        <ele>320.4</ele>
        <time>2025-04-30T12:44:59Z</time>
      </trkpt>
      <trkpt lat="45.71226" lon="4.74482">
        <ele>320.6</ele>
        <time>2025-04-30T12:45:00Z</time>
      </trkpt>
      <trkpt lat="45.71226" lon="4.74475">
        <ele>320.8</ele>
        <time>2025-04-30T12:45:01Z</time>
      </trkpt>
      <trkpt lat="45.71227" lon="4.74468">
        <ele>320.8</ele>
        <time>2025-04-30T12:45:02Z</time>
      </trkpt>
      <trkpt lat="45.71227" lon="4.74462">
        <ele>320.8</ele>
        <time>2025-04-30T12:45:03Z</time>
      </trkpt>
      <trkpt lat="45.71227" lon="4.74455">
        <ele>320.8</ele>
        <time>2025-04-30T12:45:04Z</time>
      </trkpt>
      <trkpt lat="45.71227" lon="4.74448">
        <ele>320.6</ele>
        <time>2025-04-30T12:45:05Z</time>
      </trkpt>
      <trkpt lat="45.71227" lon="4.74442">
        <ele>320.6</ele>
        <time>2025-04-30T12:45:06Z</time>
      </trkpt>
      <trkpt lat="45.71228" lon="4.74435">
        <ele>320.6</ele>
        <time>2025-04-30T12:45:07Z</time>
      </trkpt>
      <trkpt lat="45.71229" lon="4.74427">
        <ele>320.4</ele>
        <time>2025-04-30T12:45:08Z</time>
      </trkpt>
      <trkpt lat="45.71229" lon="4.74419">
        <ele>320.4</ele>
        <time>2025-04-30T12:45:09Z</time>
      </trkpt>
      <trkpt lat="45.71229" lon="4.74411">
        <ele>320</ele>
        <time>2025-04-30T12:45:10Z</time>
      </trkpt>
      <trkpt lat="45.71229" lon="4.74403">
        <ele>319.4</ele>
        <time>2025-04-30T12:45:11Z</time>
      </trkpt>
      <trkpt lat="45.71229" lon="4.74395">
        <ele>319.2</ele>
        <time>2025-04-30T12:45:12Z</time>
      </trkpt>
      <trkpt lat="45.71228" lon="4.74386">
        <ele>319</ele>
        <time>2025-04-30T12:45:13Z</time>
      </trkpt>
      <trkpt lat="45.71227" lon="4.74378">
        <ele>318.8</ele>
        <time>2025-04-30T12:45:14Z</time>
      </trkpt>
      <trkpt lat="45.71225" lon="4.74369">
        <ele>318.6</ele>
        <time>2025-04-30T12:45:15Z</time>
      </trkpt>
      <trkpt lat="45.71223" lon="4.7436">
        <ele>318.2</ele>
        <time>2025-04-30T12:45:16Z</time>
      </trkpt>
      <trkpt lat="45.71221" lon="4.74351">
        <ele>318</ele>
        <time>2025-04-30T12:45:17Z</time>
      </trkpt>
      <trkpt lat="45.71219" lon="4.74342">
        <ele>317.6</ele>
        <time>2025-04-30T12:45:18Z</time>
      </trkpt>
      <trkpt lat="45.71217" lon="4.74333">
        <ele>317.2</ele>
        <time>2025-04-30T12:45:19Z</time>
      </trkpt>
      <trkpt lat="45.71215" lon="4.74325">
        <ele>317</ele>
        <time>2025-04-30T12:45:20Z</time>
      </trkpt>
      <trkpt lat="45.71213" lon="4.74316">
        <ele>316.8</ele>
        <time>2025-04-30T12:45:21Z</time>
      </trkpt>
      <trkpt lat="45.71211" lon="4.74308">
        <ele>316.6</ele>
        <time>2025-04-30T12:45:22Z</time>
      </trkpt>
      <trkpt lat="45.71208" lon="4.74299">
        <ele>316.4</ele>
        <time>2025-04-30T12:45:23Z</time>
      </trkpt>
      <trkpt lat="45.71206" lon="4.74291">
        <ele>316.2</ele>
        <time>2025-04-30T12:45:24Z</time>
      </trkpt>
      <trkpt lat="45.71204" lon="4.74282">
        <ele>316.2</ele>
        <time>2025-04-30T12:45:25Z</time>
      </trkpt>
      <trkpt lat="45.71201" lon="4.74274">
        <ele>316.2</ele>
        <time>2025-04-30T12:45:26Z</time>
      </trkpt>
      <trkpt lat="45.71199" lon="4.74266">
        <ele>316.2</ele>
        <time>2025-04-30T12:45:27Z</time>
      </trkpt>
      <trkpt lat="45.71197" lon="4.74258">
        <ele>316.2</ele>
        <time>2025-04-30T12:45:28Z</time>
      </trkpt>
      <trkpt lat="45.71195" lon="4.7425">
        <ele>316.2</ele>
        <time>2025-04-30T12:45:29Z</time>
      </trkpt>
      <trkpt lat="45.71193" lon="4.74243">
        <ele>316.2</ele>
        <time>2025-04-30T12:45:30Z</time>
      </trkpt>
      <trkpt lat="45.71191" lon="4.74235">
        <ele>316.2</ele>
        <time>2025-04-30T12:45:31Z</time>
      </trkpt>
      <trkpt lat="45.7119" lon="4.74227">
        <ele>316.2</ele>
        <time>2025-04-30T12:45:32Z</time>
      </trkpt>
      <trkpt lat="45.71189" lon="4.74219">
        <ele>316.2</ele>
        <time>2025-04-30T12:45:33Z</time>
      </trkpt>
      <trkpt lat="45.71187" lon="4.74212">
        <ele>316.6</ele>
        <time>2025-04-30T12:45:34Z</time>
      </trkpt>
      <trkpt lat="45.71186" lon="4.74204">
        <ele>316.8</ele>
        <time>2025-04-30T12:45:35Z</time>
      </trkpt>
      <trkpt lat="45.71185" lon="4.74196">
        <ele>316.8</ele>
        <time>2025-04-30T12:45:36Z</time>
      </trkpt>
      <trkpt lat="45.71184" lon="4.74188">
        <ele>317</ele>
        <time>2025-04-30T12:45:37Z</time>
      </trkpt>
      <trkpt lat="45.71182" lon="4.7418">
        <ele>317</ele>
        <time>2025-04-30T12:45:38Z</time>
      </trkpt>
      <trkpt lat="45.71181" lon="4.74173">
        <ele>317</ele>
        <time>2025-04-30T12:45:39Z</time>
      </trkpt>
      <trkpt lat="45.71179" lon="4.74165">
        <ele>317.2</ele>
        <time>2025-04-30T12:45:40Z</time>
      </trkpt>
      <trkpt lat="45.71178" lon="4.74158">
        <ele>317.4</ele>
        <time>2025-04-30T12:45:41Z</time>
      </trkpt>
      <trkpt lat="45.71177" lon="4.7415">
        <ele>317.6</ele>
        <time>2025-04-30T12:45:42Z</time>
      </trkpt>
      <trkpt lat="45.71175" lon="4.74143">
        <ele>318</ele>
        <time>2025-04-30T12:45:43Z</time>
      </trkpt>
      <trkpt lat="45.71174" lon="4.74135">
        <ele>318</ele>
        <time>2025-04-30T12:45:44Z</time>
      </trkpt>
      <trkpt lat="45.71173" lon="4.74128">
        <ele>318.2</ele>
        <time>2025-04-30T12:45:45Z</time>
      </trkpt>
      <trkpt lat="45.71172" lon="4.74121">
        <ele>318.2</ele>
        <time>2025-04-30T12:45:46Z</time>
      </trkpt>
      <trkpt lat="45.71171" lon="4.74114">
        <ele>318.4</ele>
        <time>2025-04-30T12:45:47Z</time>
      </trkpt>
      <trkpt lat="45.71169" lon="4.74108">
        <ele>318.4</ele>
        <time>2025-04-30T12:45:48Z</time>
      </trkpt>
      <trkpt lat="45.71168" lon="4.74102">
        <ele>318.4</ele>
        <time>2025-04-30T12:45:49Z</time>
      </trkpt>
      <trkpt lat="45.71167" lon="4.74095">
        <ele>318.8</ele>
        <time>2025-04-30T12:45:50Z</time>
      </trkpt>
      <trkpt lat="45.71166" lon="4.74089">
        <ele>319.2</ele>
        <time>2025-04-30T12:45:51Z</time>
      </trkpt>
      <trkpt lat="45.71165" lon="4.74083">
        <ele>319.6</ele>
        <time>2025-04-30T12:45:52Z</time>
      </trkpt>
      <trkpt lat="45.71165" lon="4.74076">
        <ele>319.8</ele>
        <time>2025-04-30T12:45:53Z</time>
      </trkpt>
      <trkpt lat="45.71165" lon="4.7407">
        <ele>320</ele>
        <time>2025-04-30T12:45:54Z</time>
      </trkpt>
      <trkpt lat="45.71165" lon="4.74063">
        <ele>320.2</ele>
        <time>2025-04-30T12:45:55Z</time>
      </trkpt>
      <trkpt lat="45.71166" lon="4.74056">
        <ele>320.4</ele>
        <time>2025-04-30T12:45:56Z</time>
      </trkpt>
      <trkpt lat="45.71166" lon="4.7405">
        <ele>320.6</ele>
        <time>2025-04-30T12:45:57Z</time>
      </trkpt>
      <trkpt lat="45.71167" lon="4.74043">
        <ele>320.8</ele>
        <time>2025-04-30T12:45:58Z</time>
      </trkpt>
      <trkpt lat="45.71167" lon="4.74036">
        <ele>320.8</ele>
        <time>2025-04-30T12:45:59Z</time>
      </trkpt>
      <trkpt lat="45.71168" lon="4.7403">
        <ele>321</ele>
        <time>2025-04-30T12:46:00Z</time>
      </trkpt>
      <trkpt lat="45.71169" lon="4.74023">
        <ele>321</ele>
        <time>2025-04-30T12:46:01Z</time>
      </trkpt>
      <trkpt lat="45.7117" lon="4.74017">
        <ele>321.2</ele>
        <time>2025-04-30T12:46:02Z</time>
      </trkpt>
      <trkpt lat="45.71171" lon="4.7401">
        <ele>321.2</ele>
        <time>2025-04-30T12:46:03Z</time>
      </trkpt>
      <trkpt lat="45.71171" lon="4.74004">
        <ele>321.4</ele>
        <time>2025-04-30T12:46:04Z</time>
      </trkpt>
      <trkpt lat="45.71172" lon="4.73997">
        <ele>321.4</ele>
        <time>2025-04-30T12:46:05Z</time>
      </trkpt>
      <trkpt lat="45.71173" lon="4.73992">
        <ele>321.6</ele>
        <time>2025-04-30T12:46:06Z</time>
      </trkpt>
      <trkpt lat="45.71174" lon="4.73984">
        <ele>321.6</ele>
        <time>2025-04-30T12:46:07Z</time>
      </trkpt>
      <trkpt lat="45.71175" lon="4.73977">
        <ele>321.6</ele>
        <time>2025-04-30T12:46:08Z</time>
      </trkpt>
      <trkpt lat="45.71175" lon="4.73971">
        <ele>321.6</ele>
        <time>2025-04-30T12:46:09Z</time>
      </trkpt>
      <trkpt lat="45.71175" lon="4.73965">
        <ele>321.6</ele>
        <time>2025-04-30T12:46:10Z</time>
      </trkpt>
      <trkpt lat="45.71174" lon="4.73959">
        <ele>321.4</ele>
        <time>2025-04-30T12:46:11Z</time>
      </trkpt>
      <trkpt lat="45.71171" lon="4.73954">
        <ele>321.4</ele>
        <time>2025-04-30T12:46:12Z</time>
      </trkpt>
      <trkpt lat="45.71168" lon="4.73949">
        <ele>321.2</ele>
        <time>2025-04-30T12:46:13Z</time>
      </trkpt>
      <trkpt lat="45.71164" lon="4.73945">
        <ele>321.2</ele>
        <time>2025-04-30T12:46:14Z</time>
      </trkpt>
      <trkpt lat="45.7116" lon="4.73942">
        <ele>321</ele>
        <time>2025-04-30T12:46:15Z</time>
      </trkpt>
      <trkpt lat="45.71156" lon="4.73938">
        <ele>321</ele>
        <time>2025-04-30T12:46:16Z</time>
      </trkpt>
      <trkpt lat="45.71152" lon="4.73935">
        <ele>320.8</ele>
        <time>2025-04-30T12:46:17Z</time>
      </trkpt>
      <trkpt lat="45.71148" lon="4.73932">
        <ele>320.8</ele>
        <time>2025-04-30T12:46:18Z</time>
      </trkpt>
      <trkpt lat="45.71144" lon="4.73928">
        <ele>320.8</ele>
        <time>2025-04-30T12:46:19Z</time>
      </trkpt>
      <trkpt lat="45.71139" lon="4.73924">
        <ele>320.6</ele>
        <time>2025-04-30T12:46:20Z</time>
      </trkpt>
      <trkpt lat="45.71135" lon="4.73919">
        <ele>320.6</ele>
        <time>2025-04-30T12:46:21Z</time>
      </trkpt>
      <trkpt lat="45.71131" lon="4.73915">
        <ele>320.4</ele>
        <time>2025-04-30T12:46:22Z</time>
      </trkpt>
      <trkpt lat="45.71126" lon="4.73911">
        <ele>320.4</ele>
        <time>2025-04-30T12:46:23Z</time>
      </trkpt>
      <trkpt lat="45.71122" lon="4.73907">
        <ele>320.4</ele>
        <time>2025-04-30T12:46:24Z</time>
      </trkpt>
      <trkpt lat="45.71117" lon="4.73904">
        <ele>320.2</ele>
        <time>2025-04-30T12:46:25Z</time>
      </trkpt>
      <trkpt lat="45.71113" lon="4.73901">
        <ele>319.8</ele>
        <time>2025-04-30T12:46:26Z</time>
      </trkpt>
      <trkpt lat="45.7111" lon="4.739">
        <ele>319.6</ele>
        <time>2025-04-30T12:46:27Z</time>
      </trkpt>
      <trkpt lat="45.71108" lon="4.739">
        <ele>319.6</ele>
        <time>2025-04-30T12:46:28Z</time>
      </trkpt>
      <trkpt lat="45.71106" lon="4.73899">
        <ele>319.6</ele>
        <time>2025-04-30T12:46:29Z</time>
      </trkpt>
      <trkpt lat="45.71105" lon="4.73899">
        <ele>319.6</ele>
        <time>2025-04-30T12:46:30Z</time>
      </trkpt>
      <trkpt lat="45.71105" lon="4.73899">
        <ele>319.8</ele>
        <time>2025-04-30T12:46:31Z</time>
      </trkpt>
      <trkpt lat="45.71105" lon="4.73899">
        <ele>320</ele>
        <time>2025-04-30T12:46:32Z</time>
      </trkpt>
      <trkpt lat="45.71105" lon="4.73899">
        <ele>320.2</ele>
        <time>2025-04-30T12:46:33Z</time>
      </trkpt>
      <trkpt lat="45.71104" lon="4.73899">
        <ele>320.4</ele>
        <time>2025-04-30T12:46:34Z</time>
      </trkpt>
      <trkpt lat="45.71102" lon="4.73897">
        <ele>320.4</ele>
        <time>2025-04-30T12:46:35Z</time>
      </trkpt>
      <trkpt lat="45.711" lon="4.73896">
        <ele>320.4</ele>
        <time>2025-04-30T12:46:36Z</time>
      </trkpt>
      <trkpt lat="45.71097" lon="4.73896">
        <ele>320.4</ele>
        <time>2025-04-30T12:46:37Z</time>
      </trkpt>
      <trkpt lat="45.71094" lon="4.73893">
        <ele>320.4</ele>
        <time>2025-04-30T12:46:38Z</time>
      </trkpt>
      <trkpt lat="45.71092" lon="4.73889">
        <ele>320.2</ele>
        <time>2025-04-30T12:46:39Z</time>
      </trkpt>
      <trkpt lat="45.71091" lon="4.73884">
        <ele>320</ele>
        <time>2025-04-30T12:46:40Z</time>
      </trkpt>
      <trkpt lat="45.71088" lon="4.73879">
        <ele>319.8</ele>
        <time>2025-04-30T12:46:41Z</time>
      </trkpt>
      <trkpt lat="45.71085" lon="4.73874">
        <ele>319.8</ele>
        <time>2025-04-30T12:46:42Z</time>
      </trkpt>
      <trkpt lat="45.71081" lon="4.73871">
        <ele>319.6</ele>
        <time>2025-04-30T12:46:43Z</time>
      </trkpt>
      <trkpt lat="45.71077" lon="4.73867">
        <ele>319.4</ele>
        <time>2025-04-30T12:46:44Z</time>
      </trkpt>
      <trkpt lat="45.71072" lon="4.73863">
        <ele>319.2</ele>
        <time>2025-04-30T12:46:45Z</time>
      </trkpt>
      <trkpt lat="45.71068" lon="4.73859">
        <ele>318.8</ele>
        <time>2025-04-30T12:46:46Z</time>
      </trkpt>
      <trkpt lat="45.71063" lon="4.73855">
        <ele>318.6</ele>
        <time>2025-04-30T12:46:47Z</time>
      </trkpt>
      <trkpt lat="45.71058" lon="4.73851">
        <ele>318.2</ele>
        <time>2025-04-30T12:46:48Z</time>
      </trkpt>
      <trkpt lat="45.71054" lon="4.73847">
        <ele>318.2</ele>
        <time>2025-04-30T12:46:49Z</time>
      </trkpt>
      <trkpt lat="45.7105" lon="4.73842">
        <ele>317.8</ele>
        <time>2025-04-30T12:46:50Z</time>
      </trkpt>
      <trkpt lat="45.71045" lon="4.73837">
        <ele>317.6</ele>
        <time>2025-04-30T12:46:51Z</time>
      </trkpt>
      <trkpt lat="45.71041" lon="4.73833">
        <ele>317</ele>
        <time>2025-04-30T12:46:52Z</time>
      </trkpt>
      <trkpt lat="45.71037" lon="4.73829">
        <ele>317</ele>
        <time>2025-04-30T12:46:53Z</time>
      </trkpt>
      <trkpt lat="45.71033" lon="4.73824">
        <ele>316.8</ele>
        <time>2025-04-30T12:46:54Z</time>
      </trkpt>
      <trkpt lat="45.71029" lon="4.73819">
        <ele>316.8</ele>
        <time>2025-04-30T12:46:55Z</time>
      </trkpt>
      <trkpt lat="45.71025" lon="4.73814">
        <ele>316.8</ele>
        <time>2025-04-30T12:46:56Z</time>
      </trkpt>
      <trkpt lat="45.71021" lon="4.7381">
        <ele>316.8</ele>
        <time>2025-04-30T12:46:57Z</time>
      </trkpt>
      <trkpt lat="45.71017" lon="4.73806">
        <ele>316.8</ele>
        <time>2025-04-30T12:46:58Z</time>
      </trkpt>
      <trkpt lat="45.71013" lon="4.73802">
        <ele>316.8</ele>
        <time>2025-04-30T12:46:59Z</time>
      </trkpt>
      <trkpt lat="45.71008" lon="4.73798">
        <ele>316.8</ele>
        <time>2025-04-30T12:47:00Z</time>
      </trkpt>
      <trkpt lat="45.71004" lon="4.73793">
        <ele>316.8</ele>
        <time>2025-04-30T12:47:01Z</time>
      </trkpt>
      <trkpt lat="45.71" lon="4.73788">
        <ele>316.6</ele>
        <time>2025-04-30T12:47:02Z</time>
      </trkpt>
      <trkpt lat="45.70996" lon="4.73783">
        <ele>316.6</ele>
        <time>2025-04-30T12:47:03Z</time>
      </trkpt>
      <trkpt lat="45.70992" lon="4.73778">
        <ele>316.6</ele>
        <time>2025-04-30T12:47:04Z</time>
      </trkpt>
      <trkpt lat="45.70988" lon="4.73773">
        <ele>316.2</ele>
        <time>2025-04-30T12:47:05Z</time>
      </trkpt>
      <trkpt lat="45.70983" lon="4.73768">
        <ele>316</ele>
        <time>2025-04-30T12:47:06Z</time>
      </trkpt>
      <trkpt lat="45.70979" lon="4.73763">
        <ele>315.8</ele>
        <time>2025-04-30T12:47:07Z</time>
      </trkpt>
      <trkpt lat="45.70975" lon="4.73758">
        <ele>315.6</ele>
        <time>2025-04-30T12:47:08Z</time>
      </trkpt>
      <trkpt lat="45.7097" lon="4.73753">
        <ele>315.6</ele>
        <time>2025-04-30T12:47:09Z</time>
      </trkpt>
      <trkpt lat="45.70966" lon="4.73748">
        <ele>315.4</ele>
        <time>2025-04-30T12:47:10Z</time>
      </trkpt>
      <trkpt lat="45.70962" lon="4.73743">
        <ele>315.4</ele>
        <time>2025-04-30T12:47:11Z</time>
      </trkpt>
      <trkpt lat="45.70957" lon="4.73738">
        <ele>315.4</ele>
        <time>2025-04-30T12:47:12Z</time>
      </trkpt>
      <trkpt lat="45.70953" lon="4.73732">
        <ele>315.2</ele>
        <time>2025-04-30T12:47:13Z</time>
      </trkpt>
      <trkpt lat="45.70948" lon="4.73727">
        <ele>315.2</ele>
        <time>2025-04-30T12:47:14Z</time>
      </trkpt>
      <trkpt lat="45.70943" lon="4.73721">
        <ele>315</ele>
        <time>2025-04-30T12:47:15Z</time>
      </trkpt>
      <trkpt lat="45.70938" lon="4.73715">
        <ele>315</ele>
        <time>2025-04-30T12:47:16Z</time>
      </trkpt>
      <trkpt lat="45.70934" lon="4.7371">
        <ele>315</ele>
        <time>2025-04-30T12:47:17Z</time>
      </trkpt>
      <trkpt lat="45.7093" lon="4.73704">
        <ele>314.8</ele>
        <time>2025-04-30T12:47:18Z</time>
      </trkpt>
      <trkpt lat="45.70925" lon="4.73699">
        <ele>314.8</ele>
        <time>2025-04-30T12:47:19Z</time>
      </trkpt>
      <trkpt lat="45.7092" lon="4.73694">
        <ele>314.6</ele>
        <time>2025-04-30T12:47:20Z</time>
      </trkpt>
      <trkpt lat="45.70916" lon="4.73689">
        <ele>314.4</ele>
        <time>2025-04-30T12:47:21Z</time>
      </trkpt>
      <trkpt lat="45.70911" lon="4.73684">
        <ele>314.4</ele>
        <time>2025-04-30T12:47:22Z</time>
      </trkpt>
      <trkpt lat="45.70905" lon="4.7368">
        <ele>314.4</ele>
        <time>2025-04-30T12:47:23Z</time>
      </trkpt>
      <trkpt lat="45.709" lon="4.73676">
        <ele>314.2</ele>
        <time>2025-04-30T12:47:24Z</time>
      </trkpt>
      <trkpt lat="45.70895" lon="4.73673">
        <ele>314.2</ele>
        <time>2025-04-30T12:47:25Z</time>
      </trkpt>
      <trkpt lat="45.7089" lon="4.73668">
        <ele>314.2</ele>
        <time>2025-04-30T12:47:26Z</time>
      </trkpt>
      <trkpt lat="45.70886" lon="4.73662">
        <ele>314.2</ele>
        <time>2025-04-30T12:47:27Z</time>
      </trkpt>
      <trkpt lat="45.70882" lon="4.73655">
        <ele>314.2</ele>
        <time>2025-04-30T12:47:28Z</time>
      </trkpt>
      <trkpt lat="45.70878" lon="4.73648">
        <ele>314.2</ele>
        <time>2025-04-30T12:47:29Z</time>
      </trkpt>
      <trkpt lat="45.70873" lon="4.73642">
        <ele>314</ele>
        <time>2025-04-30T12:47:30Z</time>
      </trkpt>
      <trkpt lat="45.7087" lon="4.73638">
        <ele>313.8</ele>
        <time>2025-04-30T12:47:31Z</time>
      </trkpt>
      <trkpt lat="45.70864" lon="4.73633">
        <ele>313.8</ele>
        <time>2025-04-30T12:47:32Z</time>
      </trkpt>
      <trkpt lat="45.70858" lon="4.73627">
        <ele>313.8</ele>
        <time>2025-04-30T12:47:33Z</time>
      </trkpt>
      <trkpt lat="45.70853" lon="4.73621">
        <ele>313.8</ele>
        <time>2025-04-30T12:47:34Z</time>
      </trkpt>
      <trkpt lat="45.70848" lon="4.73616">
        <ele>313.8</ele>
        <time>2025-04-30T12:47:35Z</time>
      </trkpt>
      <trkpt lat="45.70843" lon="4.73611">
        <ele>313.8</ele>
        <time>2025-04-30T12:47:36Z</time>
      </trkpt>
      <trkpt lat="45.70838" lon="4.73605">
        <ele>313.8</ele>
        <time>2025-04-30T12:47:37Z</time>
      </trkpt>
      <trkpt lat="45.70833" lon="4.736">
        <ele>313.8</ele>
        <time>2025-04-30T12:47:38Z</time>
      </trkpt>
      <trkpt lat="45.70828" lon="4.73595">
        <ele>313.8</ele>
        <time>2025-04-30T12:47:39Z</time>
      </trkpt>
      <trkpt lat="45.70823" lon="4.73591">
        <ele>313.6</ele>
        <time>2025-04-30T12:47:40Z</time>
      </trkpt>
      <trkpt lat="45.70818" lon="4.73586">
        <ele>313.4</ele>
        <time>2025-04-30T12:47:41Z</time>
      </trkpt>
      <trkpt lat="45.70813" lon="4.73581">
        <ele>313.4</ele>
        <time>2025-04-30T12:47:42Z</time>
      </trkpt>
      <trkpt lat="45.70808" lon="4.73576">
        <ele>313.4</ele>
        <time>2025-04-30T12:47:43Z</time>
      </trkpt>
      <trkpt lat="45.70803" lon="4.73572">
        <ele>313.4</ele>
        <time>2025-04-30T12:47:44Z</time>
      </trkpt>
      <trkpt lat="45.70798" lon="4.73567">
        <ele>313.4</ele>
        <time>2025-04-30T12:47:45Z</time>
      </trkpt>
      <trkpt lat="45.70793" lon="4.73563">
        <ele>313.4</ele>
        <time>2025-04-30T12:47:46Z</time>
      </trkpt>
      <trkpt lat="45.70788" lon="4.73558">
        <ele>313.4</ele>
        <time>2025-04-30T12:47:47Z</time>
      </trkpt>
      <trkpt lat="45.70783" lon="4.73554">
        <ele>313.6</ele>
        <time>2025-04-30T12:47:48Z</time>
      </trkpt>
      <trkpt lat="45.70778" lon="4.73549">
        <ele>313.6</ele>
        <time>2025-04-30T12:47:49Z</time>
      </trkpt>
      <trkpt lat="45.70773" lon="4.73544">
        <ele>313.6</ele>
        <time>2025-04-30T12:47:50Z</time>
      </trkpt>
      <trkpt lat="45.70767" lon="4.7354">
        <ele>313.6</ele>
        <time>2025-04-30T12:47:51Z</time>
      </trkpt>
      <trkpt lat="45.70762" lon="4.73534">
        <ele>313.6</ele>
        <time>2025-04-30T12:47:52Z</time>
      </trkpt>
      <trkpt lat="45.70758" lon="4.73529">
        <ele>313.6</ele>
        <time>2025-04-30T12:47:53Z</time>
      </trkpt>
      <trkpt lat="45.70753" lon="4.73523">
        <ele>313.4</ele>
        <time>2025-04-30T12:47:54Z</time>
      </trkpt>
      <trkpt lat="45.70748" lon="4.73517">
        <ele>313.2</ele>
        <time>2025-04-30T12:47:55Z</time>
      </trkpt>
      <trkpt lat="45.70744" lon="4.73513">
        <ele>313</ele>
        <time>2025-04-30T12:47:56Z</time>
      </trkpt>
      <trkpt lat="45.70738" lon="4.73506">
        <ele>313</ele>
        <time>2025-04-30T12:47:57Z</time>
      </trkpt>
      <trkpt lat="45.70733" lon="4.735">
        <ele>312.8</ele>
        <time>2025-04-30T12:47:58Z</time>
      </trkpt>
      <trkpt lat="45.70727" lon="4.73495">
        <ele>312.8</ele>
        <time>2025-04-30T12:47:59Z</time>
      </trkpt>
      <trkpt lat="45.70722" lon="4.7349">
        <ele>312.8</ele>
        <time>2025-04-30T12:48:00Z</time>
      </trkpt>
      <trkpt lat="45.70718" lon="4.73486">
        <ele>312.8</ele>
        <time>2025-04-30T12:48:01Z</time>
      </trkpt>
      <trkpt lat="45.70712" lon="4.7348">
        <ele>312.8</ele>
        <time>2025-04-30T12:48:02Z</time>
      </trkpt>
      <trkpt lat="45.70706" lon="4.73474">
        <ele>312.6</ele>
        <time>2025-04-30T12:48:03Z</time>
      </trkpt>
      <trkpt lat="45.70702" lon="4.7347">
        <ele>312.6</ele>
        <time>2025-04-30T12:48:04Z</time>
      </trkpt>
      <trkpt lat="45.70696" lon="4.73464">
        <ele>312.6</ele>
        <time>2025-04-30T12:48:05Z</time>
      </trkpt>
      <trkpt lat="45.7069" lon="4.73458">
        <ele>312.6</ele>
        <time>2025-04-30T12:48:06Z</time>
      </trkpt>
      <trkpt lat="45.70685" lon="4.73452">
        <ele>312.6</ele>
        <time>2025-04-30T12:48:07Z</time>
      </trkpt>
      <trkpt lat="45.7068" lon="4.73445">
        <ele>312.6</ele>
        <time>2025-04-30T12:48:08Z</time>
      </trkpt>
      <trkpt lat="45.70675" lon="4.73439">
        <ele>312.6</ele>
        <time>2025-04-30T12:48:09Z</time>
      </trkpt>
      <trkpt lat="45.7067" lon="4.73432">
        <ele>312.6</ele>
        <time>2025-04-30T12:48:10Z</time>
      </trkpt>
      <trkpt lat="45.70665" lon="4.73425">
        <ele>312.4</ele>
        <time>2025-04-30T12:48:11Z</time>
      </trkpt>
      <trkpt lat="45.7066" lon="4.73418">
        <ele>312.4</ele>
        <time>2025-04-30T12:48:12Z</time>
      </trkpt>
      <trkpt lat="45.70655" lon="4.73411">
        <ele>312</ele>
        <time>2025-04-30T12:48:13Z</time>
      </trkpt>
      <trkpt lat="45.70651" lon="4.73406">
        <ele>311.6</ele>
        <time>2025-04-30T12:48:14Z</time>
      </trkpt>
      <trkpt lat="45.70646" lon="4.73399">
        <ele>311.2</ele>
        <time>2025-04-30T12:48:15Z</time>
      </trkpt>
      <trkpt lat="45.7064" lon="4.73391">
        <ele>310.8</ele>
        <time>2025-04-30T12:48:16Z</time>
      </trkpt>
      <trkpt lat="45.70635" lon="4.73384">
        <ele>310.6</ele>
        <time>2025-04-30T12:48:17Z</time>
      </trkpt>
      <trkpt lat="45.7063" lon="4.73377">
        <ele>310.4</ele>
        <time>2025-04-30T12:48:18Z</time>
      </trkpt>
      <trkpt lat="45.70625" lon="4.73369">
        <ele>310.2</ele>
        <time>2025-04-30T12:48:19Z</time>
      </trkpt>
      <trkpt lat="45.70621" lon="4.73362">
        <ele>310.2</ele>
        <time>2025-04-30T12:48:20Z</time>
      </trkpt>
      <trkpt lat="45.70617" lon="4.73356">
        <ele>310</ele>
        <time>2025-04-30T12:48:21Z</time>
      </trkpt>
      <trkpt lat="45.70612" lon="4.73348">
        <ele>310</ele>
        <time>2025-04-30T12:48:22Z</time>
      </trkpt>
      <trkpt lat="45.70607" lon="4.73341">
        <ele>309.8</ele>
        <time>2025-04-30T12:48:23Z</time>
      </trkpt>
      <trkpt lat="45.70603" lon="4.73335">
        <ele>309.8</ele>
        <time>2025-04-30T12:48:24Z</time>
      </trkpt>
      <trkpt lat="45.70598" lon="4.73326">
        <ele>309.8</ele>
        <time>2025-04-30T12:48:25Z</time>
      </trkpt>
      <trkpt lat="45.70593" lon="4.7332">
        <ele>309.8</ele>
        <time>2025-04-30T12:48:26Z</time>
      </trkpt>
      <trkpt lat="45.70589" lon="4.73313">
        <ele>309.8</ele>
        <time>2025-04-30T12:48:27Z</time>
      </trkpt>
      <trkpt lat="45.70584" lon="4.73307">
        <ele>309.8</ele>
        <time>2025-04-30T12:48:28Z</time>
      </trkpt>
      <trkpt lat="45.70579" lon="4.733">
        <ele>309.8</ele>
        <time>2025-04-30T12:48:29Z</time>
      </trkpt>
      <trkpt lat="45.70574" lon="4.73294">
        <ele>309.8</ele>
        <time>2025-04-30T12:48:30Z</time>
      </trkpt>
      <trkpt lat="45.70569" lon="4.73289">
        <ele>309.6</ele>
        <time>2025-04-30T12:48:31Z</time>
      </trkpt>
      <trkpt lat="45.70564" lon="4.73284">
        <ele>309.2</ele>
        <time>2025-04-30T12:48:32Z</time>
      </trkpt>
      <trkpt lat="45.70559" lon="4.7328">
        <ele>309.2</ele>
        <time>2025-04-30T12:48:33Z</time>
      </trkpt>
      <trkpt lat="45.70554" lon="4.73275">
        <ele>309.2</ele>
        <time>2025-04-30T12:48:34Z</time>
      </trkpt>
      <trkpt lat="45.70548" lon="4.7327">
        <ele>309.2</ele>
        <time>2025-04-30T12:48:35Z</time>
      </trkpt>
      <trkpt lat="45.70543" lon="4.73266">
        <ele>309.4</ele>
        <time>2025-04-30T12:48:36Z</time>
      </trkpt>
      <trkpt lat="45.70538" lon="4.73262">
        <ele>309.8</ele>
        <time>2025-04-30T12:48:37Z</time>
      </trkpt>
      <trkpt lat="45.70531" lon="4.73257">
        <ele>310</ele>
        <time>2025-04-30T12:48:38Z</time>
      </trkpt>
      <trkpt lat="45.70525" lon="4.73253">
        <ele>310</ele>
        <time>2025-04-30T12:48:39Z</time>
      </trkpt>
      <trkpt lat="45.7052" lon="4.73249">
        <ele>310</ele>
        <time>2025-04-30T12:48:40Z</time>
      </trkpt>
      <trkpt lat="45.70514" lon="4.73245">
        <ele>310</ele>
        <time>2025-04-30T12:48:41Z</time>
      </trkpt>
      <trkpt lat="45.70509" lon="4.73242">
        <ele>310</ele>
        <time>2025-04-30T12:48:42Z</time>
      </trkpt>
      <trkpt lat="45.70503" lon="4.73238">
        <ele>310</ele>
        <time>2025-04-30T12:48:43Z</time>
      </trkpt>
      <trkpt lat="45.70498" lon="4.73234">
        <ele>310</ele>
        <time>2025-04-30T12:48:44Z</time>
      </trkpt>
      <trkpt lat="45.70494" lon="4.73231">
        <ele>310</ele>
        <time>2025-04-30T12:48:45Z</time>
      </trkpt>
      <trkpt lat="45.70488" lon="4.73226">
        <ele>310</ele>
        <time>2025-04-30T12:48:46Z</time>
      </trkpt>
      <trkpt lat="45.70482" lon="4.73222">
        <ele>310</ele>
        <time>2025-04-30T12:48:47Z</time>
      </trkpt>
      <trkpt lat="45.70478" lon="4.7322">
        <ele>310.2</ele>
        <time>2025-04-30T12:48:48Z</time>
      </trkpt>
      <trkpt lat="45.70471" lon="4.73215">
        <ele>310.2</ele>
        <time>2025-04-30T12:48:49Z</time>
      </trkpt>
      <trkpt lat="45.70466" lon="4.73212">
        <ele>310.4</ele>
        <time>2025-04-30T12:48:50Z</time>
      </trkpt>
      <trkpt lat="45.7046" lon="4.73208">
        <ele>310.6</ele>
        <time>2025-04-30T12:48:51Z</time>
      </trkpt>
      <trkpt lat="45.70454" lon="4.73204">
        <ele>310.8</ele>
        <time>2025-04-30T12:48:52Z</time>
      </trkpt>
      <trkpt lat="45.70448" lon="4.732">
        <ele>310.8</ele>
        <time>2025-04-30T12:48:53Z</time>
      </trkpt>
      <trkpt lat="45.70444" lon="4.73197">
        <ele>310.8</ele>
        <time>2025-04-30T12:48:54Z</time>
      </trkpt>
      <trkpt lat="45.70437" lon="4.73192">
        <ele>310.8</ele>
        <time>2025-04-30T12:48:55Z</time>
      </trkpt>
      <trkpt lat="45.70432" lon="4.73188">
        <ele>310.8</ele>
        <time>2025-04-30T12:48:56Z</time>
      </trkpt>
      <trkpt lat="45.70427" lon="4.73185">
        <ele>310.6</ele>
        <time>2025-04-30T12:48:57Z</time>
      </trkpt>
      <trkpt lat="45.70422" lon="4.73181">
        <ele>310.6</ele>
        <time>2025-04-30T12:48:58Z</time>
      </trkpt>
      <trkpt lat="45.70415" lon="4.73176">
        <ele>310.4</ele>
        <time>2025-04-30T12:48:59Z</time>
      </trkpt>
      <trkpt lat="45.70409" lon="4.73172">
        <ele>310</ele>
        <time>2025-04-30T12:49:00Z</time>
      </trkpt>
      <trkpt lat="45.70404" lon="4.73169">
        <ele>309.8</ele>
        <time>2025-04-30T12:49:01Z</time>
      </trkpt>
      <trkpt lat="45.70398" lon="4.73164">
        <ele>309.6</ele>
        <time>2025-04-30T12:49:02Z</time>
      </trkpt>
      <trkpt lat="45.70392" lon="4.7316">
        <ele>309.6</ele>
        <time>2025-04-30T12:49:03Z</time>
      </trkpt>
      <trkpt lat="45.70387" lon="4.73156">
        <ele>309.6</ele>
        <time>2025-04-30T12:49:04Z</time>
      </trkpt>
      <trkpt lat="45.70381" lon="4.73151">
        <ele>309.6</ele>
        <time>2025-04-30T12:49:05Z</time>
      </trkpt>
      <trkpt lat="45.70376" lon="4.73146">
        <ele>309.6</ele>
        <time>2025-04-30T12:49:06Z</time>
      </trkpt>
      <trkpt lat="45.70372" lon="4.73141">
        <ele>309.8</ele>
        <time>2025-04-30T12:49:07Z</time>
      </trkpt>
      <trkpt lat="45.70367" lon="4.73136">
        <ele>309.8</ele>
        <time>2025-04-30T12:49:08Z</time>
      </trkpt>
      <trkpt lat="45.70363" lon="4.73131">
        <ele>309.8</ele>
        <time>2025-04-30T12:49:09Z</time>
      </trkpt>
      <trkpt lat="45.70359" lon="4.73126">
        <ele>310</ele>
        <time>2025-04-30T12:49:10Z</time>
      </trkpt>
      <trkpt lat="45.70353" lon="4.7312">
        <ele>310</ele>
        <time>2025-04-30T12:49:11Z</time>
      </trkpt>
      <trkpt lat="45.7035" lon="4.73115">
        <ele>310.2</ele>
        <time>2025-04-30T12:49:12Z</time>
      </trkpt>
      <trkpt lat="45.70345" lon="4.73108">
        <ele>310.2</ele>
        <time>2025-04-30T12:49:13Z</time>
      </trkpt>
      <trkpt lat="45.70341" lon="4.73102">
        <ele>310.6</ele>
        <time>2025-04-30T12:49:14Z</time>
      </trkpt>
      <trkpt lat="45.70337" lon="4.73097">
        <ele>310.6</ele>
        <time>2025-04-30T12:49:15Z</time>
      </trkpt>
      <trkpt lat="45.70333" lon="4.73091">
        <ele>310.6</ele>
        <time>2025-04-30T12:49:16Z</time>
      </trkpt>
      <trkpt lat="45.70331" lon="4.73085">
        <ele>310.6</ele>
        <time>2025-04-30T12:49:17Z</time>
      </trkpt>
      <trkpt lat="45.7033" lon="4.73077">
        <ele>310.8</ele>
        <time>2025-04-30T12:49:18Z</time>
      </trkpt>
      <trkpt lat="45.7033" lon="4.73069">
        <ele>310.8</ele>
        <time>2025-04-30T12:49:19Z</time>
      </trkpt>
      <trkpt lat="45.70332" lon="4.73062">
        <ele>310.6</ele>
        <time>2025-04-30T12:49:20Z</time>
      </trkpt>
      <trkpt lat="45.70333" lon="4.73056">
        <ele>310.6</ele>
        <time>2025-04-30T12:49:21Z</time>
      </trkpt>
      <trkpt lat="45.70335" lon="4.73047">
        <ele>310.6</ele>
        <time>2025-04-30T12:49:22Z</time>
      </trkpt>
      <trkpt lat="45.70338" lon="4.7304">
        <ele>310.6</ele>
        <time>2025-04-30T12:49:23Z</time>
      </trkpt>
      <trkpt lat="45.7034" lon="4.73032">
        <ele>310.6</ele>
        <time>2025-04-30T12:49:24Z</time>
      </trkpt>
      <trkpt lat="45.70342" lon="4.73026">
        <ele>310.6</ele>
        <time>2025-04-30T12:49:25Z</time>
      </trkpt>
      <trkpt lat="45.70346" lon="4.73017">
        <ele>310.4</ele>
        <time>2025-04-30T12:49:26Z</time>
      </trkpt>
      <trkpt lat="45.70349" lon="4.7301">
        <ele>310.4</ele>
        <time>2025-04-30T12:49:27Z</time>
      </trkpt>
      <trkpt lat="45.70352" lon="4.73002">
        <ele>310.4</ele>
        <time>2025-04-30T12:49:28Z</time>
      </trkpt>
      <trkpt lat="45.70355" lon="4.72996">
        <ele>310.2</ele>
        <time>2025-04-30T12:49:29Z</time>
      </trkpt>
      <trkpt lat="45.70358" lon="4.72989">
        <ele>310.2</ele>
        <time>2025-04-30T12:49:30Z</time>
      </trkpt>
      <trkpt lat="45.70362" lon="4.7298">
        <ele>310.2</ele>
        <time>2025-04-30T12:49:31Z</time>
      </trkpt>
      <trkpt lat="45.70365" lon="4.72973">
        <ele>310.2</ele>
        <time>2025-04-30T12:49:32Z</time>
      </trkpt>
      <trkpt lat="45.70368" lon="4.72966">
        <ele>310.2</ele>
        <time>2025-04-30T12:49:33Z</time>
      </trkpt>
      <trkpt lat="45.70371" lon="4.72958">
        <ele>310.2</ele>
        <time>2025-04-30T12:49:34Z</time>
      </trkpt>
      <trkpt lat="45.70375" lon="4.7295">
        <ele>310.2</ele>
        <time>2025-04-30T12:49:35Z</time>
      </trkpt>
      <trkpt lat="45.70378" lon="4.72943">
        <ele>310.2</ele>
        <time>2025-04-30T12:49:36Z</time>
      </trkpt>
      <trkpt lat="45.70382" lon="4.72936">
        <ele>310.2</ele>
        <time>2025-04-30T12:49:37Z</time>
      </trkpt>
      <trkpt lat="45.70386" lon="4.72928">
        <ele>310.2</ele>
        <time>2025-04-30T12:49:38Z</time>
      </trkpt>
      <trkpt lat="45.70389" lon="4.7292">
        <ele>310.2</ele>
        <time>2025-04-30T12:49:39Z</time>
      </trkpt>
      <trkpt lat="45.70392" lon="4.72914">
        <ele>310.2</ele>
        <time>2025-04-30T12:49:40Z</time>
      </trkpt>
      <trkpt lat="45.70396" lon="4.72907">
        <ele>310.2</ele>
        <time>2025-04-30T12:49:41Z</time>
      </trkpt>
      <trkpt lat="45.704" lon="4.72899">
        <ele>310.2</ele>
        <time>2025-04-30T12:49:42Z</time>
      </trkpt>
      <trkpt lat="45.70404" lon="4.7289">
        <ele>310.2</ele>
        <time>2025-04-30T12:49:43Z</time>
      </trkpt>
      <trkpt lat="45.70408" lon="4.72883">
        <ele>310.2</ele>
        <time>2025-04-30T12:49:44Z</time>
      </trkpt>
      <trkpt lat="45.70411" lon="4.72877">
        <ele>310.2</ele>
        <time>2025-04-30T12:49:45Z</time>
      </trkpt>
      <trkpt lat="45.70415" lon="4.72869">
        <ele>310.2</ele>
        <time>2025-04-30T12:49:46Z</time>
      </trkpt>
      <trkpt lat="45.7042" lon="4.72861">
        <ele>310.2</ele>
        <time>2025-04-30T12:49:47Z</time>
      </trkpt>
      <trkpt lat="45.70423" lon="4.72855">
        <ele>310.2</ele>
        <time>2025-04-30T12:49:48Z</time>
      </trkpt>
      <trkpt lat="45.70427" lon="4.72845">
        <ele>310.2</ele>
        <time>2025-04-30T12:49:49Z</time>
      </trkpt>
      <trkpt lat="45.7043" lon="4.72837">
        <ele>310.2</ele>
        <time>2025-04-30T12:49:50Z</time>
      </trkpt>
      <trkpt lat="45.70432" lon="4.72831">
        <ele>310.2</ele>
        <time>2025-04-30T12:49:51Z</time>
      </trkpt>
      <trkpt lat="45.70436" lon="4.72821">
        <ele>310.2</ele>
        <time>2025-04-30T12:49:52Z</time>
      </trkpt>
      <trkpt lat="45.70438" lon="4.72814">
        <ele>310.4</ele>
        <time>2025-04-30T12:49:53Z</time>
      </trkpt>
      <trkpt lat="45.7044" lon="4.72806">
        <ele>310.4</ele>
        <time>2025-04-30T12:49:54Z</time>
      </trkpt>
      <trkpt lat="45.70441" lon="4.72795">
        <ele>310.6</ele>
        <time>2025-04-30T12:49:55Z</time>
      </trkpt>
      <trkpt lat="45.70442" lon="4.72788">
        <ele>310.6</ele>
        <time>2025-04-30T12:49:56Z</time>
      </trkpt>
      <trkpt lat="45.70441" lon="4.7278">
        <ele>310.6</ele>
        <time>2025-04-30T12:49:57Z</time>
      </trkpt>
      <trkpt lat="45.70441" lon="4.72769">
        <ele>310.6</ele>
        <time>2025-04-30T12:49:58Z</time>
      </trkpt>
      <trkpt lat="45.7044" lon="4.7276">
        <ele>310.6</ele>
        <time>2025-04-30T12:49:59Z</time>
      </trkpt>
      <trkpt lat="45.70438" lon="4.72754">
        <ele>310.6</ele>
        <time>2025-04-30T12:50:00Z</time>
      </trkpt>
      <trkpt lat="45.70437" lon="4.72745">
        <ele>310.8</ele>
        <time>2025-04-30T12:50:01Z</time>
      </trkpt>
      <trkpt lat="45.70435" lon="4.72736">
        <ele>311</ele>
        <time>2025-04-30T12:50:02Z</time>
      </trkpt>
      <trkpt lat="45.70434" lon="4.72727">
        <ele>311.2</ele>
        <time>2025-04-30T12:50:03Z</time>
      </trkpt>
      <trkpt lat="45.70432" lon="4.72717">
        <ele>311.2</ele>
        <time>2025-04-30T12:50:04Z</time>
      </trkpt>
      <trkpt lat="45.70431" lon="4.72708">
        <ele>311.4</ele>
        <time>2025-04-30T12:50:05Z</time>
      </trkpt>
      <trkpt lat="45.7043" lon="4.72701">
        <ele>311.4</ele>
        <time>2025-04-30T12:50:06Z</time>
      </trkpt>
      <trkpt lat="45.70428" lon="4.72691">
        <ele>311.4</ele>
        <time>2025-04-30T12:50:07Z</time>
      </trkpt>
      <trkpt lat="45.70427" lon="4.72682">
        <ele>311.6</ele>
        <time>2025-04-30T12:50:08Z</time>
      </trkpt>
      <trkpt lat="45.70426" lon="4.72675">
        <ele>311.6</ele>
        <time>2025-04-30T12:50:09Z</time>
      </trkpt>
      <trkpt lat="45.70425" lon="4.72667">
        <ele>311.6</ele>
        <time>2025-04-30T12:50:10Z</time>
      </trkpt>
      <trkpt lat="45.70424" lon="4.72658">
        <ele>311.6</ele>
        <time>2025-04-30T12:50:11Z</time>
      </trkpt>
      <trkpt lat="45.70422" lon="4.7265">
        <ele>311.6</ele>
        <time>2025-04-30T12:50:12Z</time>
      </trkpt>
      <trkpt lat="45.70421" lon="4.72642">
        <ele>311.8</ele>
        <time>2025-04-30T12:50:13Z</time>
      </trkpt>
      <trkpt lat="45.7042" lon="4.72633">
        <ele>312.2</ele>
        <time>2025-04-30T12:50:14Z</time>
      </trkpt>
      <trkpt lat="45.70418" lon="4.72624">
        <ele>312.2</ele>
        <time>2025-04-30T12:50:15Z</time>
      </trkpt>
      <trkpt lat="45.70417" lon="4.72616">
        <ele>312.4</ele>
        <time>2025-04-30T12:50:16Z</time>
      </trkpt>
      <trkpt lat="45.70416" lon="4.72607">
        <ele>312.4</ele>
        <time>2025-04-30T12:50:17Z</time>
      </trkpt>
      <trkpt lat="45.70414" lon="4.72599">
        <ele>312.4</ele>
        <time>2025-04-30T12:50:18Z</time>
      </trkpt>
      <trkpt lat="45.70413" lon="4.72591">
        <ele>312.4</ele>
        <time>2025-04-30T12:50:19Z</time>
      </trkpt>
      <trkpt lat="45.70412" lon="4.72582">
        <ele>312.4</ele>
        <time>2025-04-30T12:50:20Z</time>
      </trkpt>
      <trkpt lat="45.7041" lon="4.72574">
        <ele>312.4</ele>
        <time>2025-04-30T12:50:21Z</time>
      </trkpt>
      <trkpt lat="45.70409" lon="4.72566">
        <ele>312.4</ele>
        <time>2025-04-30T12:50:22Z</time>
      </trkpt>
      <trkpt lat="45.70408" lon="4.72558">
        <ele>312.6</ele>
        <time>2025-04-30T12:50:23Z</time>
      </trkpt>
      <trkpt lat="45.70406" lon="4.7255">
        <ele>312.6</ele>
        <time>2025-04-30T12:50:24Z</time>
      </trkpt>
      <trkpt lat="45.70405" lon="4.72541">
        <ele>312.8</ele>
        <time>2025-04-30T12:50:25Z</time>
      </trkpt>
      <trkpt lat="45.70403" lon="4.72533">
        <ele>312.8</ele>
        <time>2025-04-30T12:50:26Z</time>
      </trkpt>
      <trkpt lat="45.70402" lon="4.72525">
        <ele>313</ele>
        <time>2025-04-30T12:50:27Z</time>
      </trkpt>
      <trkpt lat="45.704" lon="4.72517">
        <ele>313</ele>
        <time>2025-04-30T12:50:28Z</time>
      </trkpt>
      <trkpt lat="45.70399" lon="4.72509">
        <ele>313.2</ele>
        <time>2025-04-30T12:50:29Z</time>
      </trkpt>
      <trkpt lat="45.70398" lon="4.72501">
        <ele>313.2</ele>
        <time>2025-04-30T12:50:30Z</time>
      </trkpt>
      <trkpt lat="45.70396" lon="4.72493">
        <ele>313.4</ele>
        <time>2025-04-30T12:50:31Z</time>
      </trkpt>
      <trkpt lat="45.70395" lon="4.72484">
        <ele>313.4</ele>
        <time>2025-04-30T12:50:32Z</time>
      </trkpt>
      <trkpt lat="45.70394" lon="4.72476">
        <ele>313.6</ele>
        <time>2025-04-30T12:50:33Z</time>
      </trkpt>
      <trkpt lat="45.70392" lon="4.72468">
        <ele>313.8</ele>
        <time>2025-04-30T12:50:34Z</time>
      </trkpt>
      <trkpt lat="45.70391" lon="4.72459">
        <ele>314</ele>
        <time>2025-04-30T12:50:35Z</time>
      </trkpt>
      <trkpt lat="45.7039" lon="4.72451">
        <ele>314.2</ele>
        <time>2025-04-30T12:50:36Z</time>
      </trkpt>
      <trkpt lat="45.70389" lon="4.72443">
        <ele>314.2</ele>
        <time>2025-04-30T12:50:37Z</time>
      </trkpt>
      <trkpt lat="45.70387" lon="4.72434">
        <ele>314.2</ele>
        <time>2025-04-30T12:50:38Z</time>
      </trkpt>
      <trkpt lat="45.70386" lon="4.72426">
        <ele>314.4</ele>
        <time>2025-04-30T12:50:39Z</time>
      </trkpt>
      <trkpt lat="45.70385" lon="4.72417">
        <ele>314.4</ele>
        <time>2025-04-30T12:50:40Z</time>
      </trkpt>
      <trkpt lat="45.70384" lon="4.72409">
        <ele>314.6</ele>
        <time>2025-04-30T12:50:41Z</time>
      </trkpt>
      <trkpt lat="45.70383" lon="4.724">
        <ele>314.8</ele>
        <time>2025-04-30T12:50:42Z</time>
      </trkpt>
      <trkpt lat="45.70382" lon="4.72392">
        <ele>314.8</ele>
        <time>2025-04-30T12:50:43Z</time>
      </trkpt>
      <trkpt lat="45.70381" lon="4.72383">
        <ele>315</ele>
        <time>2025-04-30T12:50:44Z</time>
      </trkpt>
      <trkpt lat="45.7038" lon="4.72374">
        <ele>315</ele>
        <time>2025-04-30T12:50:45Z</time>
      </trkpt>
      <trkpt lat="45.70379" lon="4.72365">
        <ele>315</ele>
        <time>2025-04-30T12:50:46Z</time>
      </trkpt>
      <trkpt lat="45.70378" lon="4.72357">
        <ele>315</ele>
        <time>2025-04-30T12:50:47Z</time>
      </trkpt>
      <trkpt lat="45.70377" lon="4.72348">
        <ele>315</ele>
        <time>2025-04-30T12:50:48Z</time>
      </trkpt>
      <trkpt lat="45.70376" lon="4.72339">
        <ele>315</ele>
        <time>2025-04-30T12:50:49Z</time>
      </trkpt>
      <trkpt lat="45.70375" lon="4.7233">
        <ele>315</ele>
        <time>2025-04-30T12:50:50Z</time>
      </trkpt>
      <trkpt lat="45.70375" lon="4.72321">
        <ele>314.8</ele>
        <time>2025-04-30T12:50:51Z</time>
      </trkpt>
      <trkpt lat="45.70375" lon="4.72313">
        <ele>314.8</ele>
        <time>2025-04-30T12:50:52Z</time>
      </trkpt>
      <trkpt lat="45.70374" lon="4.72304">
        <ele>314.8</ele>
        <time>2025-04-30T12:50:53Z</time>
      </trkpt>
      <trkpt lat="45.70374" lon="4.72295">
        <ele>314.8</ele>
        <time>2025-04-30T12:50:54Z</time>
      </trkpt>
      <trkpt lat="45.70374" lon="4.72286">
        <ele>314.8</ele>
        <time>2025-04-30T12:50:55Z</time>
      </trkpt>
      <trkpt lat="45.70374" lon="4.72277">
        <ele>314.8</ele>
        <time>2025-04-30T12:50:56Z</time>
      </trkpt>
      <trkpt lat="45.70374" lon="4.72269">
        <ele>315</ele>
        <time>2025-04-30T12:50:57Z</time>
      </trkpt>
      <trkpt lat="45.70374" lon="4.7226">
        <ele>315</ele>
        <time>2025-04-30T12:50:58Z</time>
      </trkpt>
      <trkpt lat="45.70374" lon="4.72251">
        <ele>315.2</ele>
        <time>2025-04-30T12:50:59Z</time>
      </trkpt>
      <trkpt lat="45.70374" lon="4.72243">
        <ele>315.2</ele>
        <time>2025-04-30T12:51:00Z</time>
      </trkpt>
      <trkpt lat="45.70373" lon="4.72234">
        <ele>315.2</ele>
        <time>2025-04-30T12:51:01Z</time>
      </trkpt>
      <trkpt lat="45.70373" lon="4.72226">
        <ele>315.2</ele>
        <time>2025-04-30T12:51:02Z</time>
      </trkpt>
      <trkpt lat="45.70373" lon="4.72217">
        <ele>315.2</ele>
        <time>2025-04-30T12:51:03Z</time>
      </trkpt>
      <trkpt lat="45.70374" lon="4.72209">
        <ele>315.2</ele>
        <time>2025-04-30T12:51:04Z</time>
      </trkpt>
      <trkpt lat="45.70374" lon="4.72201">
        <ele>315.4</ele>
        <time>2025-04-30T12:51:05Z</time>
      </trkpt>
      <trkpt lat="45.70374" lon="4.72192">
        <ele>315.4</ele>
        <time>2025-04-30T12:51:06Z</time>
      </trkpt>
      <trkpt lat="45.70374" lon="4.72184">
        <ele>315.4</ele>
        <time>2025-04-30T12:51:07Z</time>
      </trkpt>
      <trkpt lat="45.70374" lon="4.72176">
        <ele>315.4</ele>
        <time>2025-04-30T12:51:08Z</time>
      </trkpt>
      <trkpt lat="45.70374" lon="4.72167">
        <ele>315.2</ele>
        <time>2025-04-30T12:51:09Z</time>
      </trkpt>
      <trkpt lat="45.70374" lon="4.72158">
        <ele>315.2</ele>
        <time>2025-04-30T12:51:10Z</time>
      </trkpt>
      <trkpt lat="45.70374" lon="4.7215">
        <ele>315.2</ele>
        <time>2025-04-30T12:51:11Z</time>
      </trkpt>
      <trkpt lat="45.70374" lon="4.72141">
        <ele>315.2</ele>
        <time>2025-04-30T12:51:12Z</time>
      </trkpt>
      <trkpt lat="45.70374" lon="4.72133">
        <ele>315.2</ele>
        <time>2025-04-30T12:51:13Z</time>
      </trkpt>
      <trkpt lat="45.70374" lon="4.72124">
        <ele>315.2</ele>
        <time>2025-04-30T12:51:14Z</time>
      </trkpt>
      <trkpt lat="45.70374" lon="4.72116">
        <ele>315</ele>
        <time>2025-04-30T12:51:15Z</time>
      </trkpt>
      <trkpt lat="45.70375" lon="4.72108">
        <ele>315</ele>
        <time>2025-04-30T12:51:16Z</time>
      </trkpt>
      <trkpt lat="45.70375" lon="4.72099">
        <ele>315</ele>
        <time>2025-04-30T12:51:17Z</time>
      </trkpt>
      <trkpt lat="45.70375" lon="4.72091">
        <ele>315</ele>
        <time>2025-04-30T12:51:18Z</time>
      </trkpt>
      <trkpt lat="45.70375" lon="4.72083">
        <ele>315</ele>
        <time>2025-04-30T12:51:19Z</time>
      </trkpt>
      <trkpt lat="45.70376" lon="4.72075">
        <ele>315</ele>
        <time>2025-04-30T12:51:20Z</time>
      </trkpt>
      <trkpt lat="45.70376" lon="4.72067">
        <ele>314.8</ele>
        <time>2025-04-30T12:51:21Z</time>
      </trkpt>
      <trkpt lat="45.70377" lon="4.72059">
        <ele>314.8</ele>
        <time>2025-04-30T12:51:22Z</time>
      </trkpt>
      <trkpt lat="45.70377" lon="4.72051">
        <ele>315</ele>
        <time>2025-04-30T12:51:23Z</time>
      </trkpt>
      <trkpt lat="45.70378" lon="4.72043">
        <ele>315</ele>
        <time>2025-04-30T12:51:24Z</time>
      </trkpt>
      <trkpt lat="45.7038" lon="4.72035">
        <ele>315</ele>
        <time>2025-04-30T12:51:25Z</time>
      </trkpt>
      <trkpt lat="45.70381" lon="4.72027">
        <ele>315.2</ele>
        <time>2025-04-30T12:51:26Z</time>
      </trkpt>
      <trkpt lat="45.70383" lon="4.72019">
        <ele>315.4</ele>
        <time>2025-04-30T12:51:27Z</time>
      </trkpt>
      <trkpt lat="45.70385" lon="4.72011">
        <ele>315.6</ele>
        <time>2025-04-30T12:51:28Z</time>
      </trkpt>
      <trkpt lat="45.70387" lon="4.72004">
        <ele>315.6</ele>
        <time>2025-04-30T12:51:29Z</time>
      </trkpt>
      <trkpt lat="45.70388" lon="4.71997">
        <ele>315.8</ele>
        <time>2025-04-30T12:51:30Z</time>
      </trkpt>
      <trkpt lat="45.7039" lon="4.71989">
        <ele>316</ele>
        <time>2025-04-30T12:51:31Z</time>
      </trkpt>
      <trkpt lat="45.70391" lon="4.71982">
        <ele>316.2</ele>
        <time>2025-04-30T12:51:32Z</time>
      </trkpt>
      <trkpt lat="45.70393" lon="4.71974">
        <ele>316.4</ele>
        <time>2025-04-30T12:51:33Z</time>
      </trkpt>
      <trkpt lat="45.70394" lon="4.71966">
        <ele>316.6</ele>
        <time>2025-04-30T12:51:34Z</time>
      </trkpt>
      <trkpt lat="45.70395" lon="4.71959">
        <ele>316.8</ele>
        <time>2025-04-30T12:51:35Z</time>
      </trkpt>
      <trkpt lat="45.70396" lon="4.71951">
        <ele>316.8</ele>
        <time>2025-04-30T12:51:36Z</time>
      </trkpt>
      <trkpt lat="45.70397" lon="4.71943">
        <ele>317</ele>
        <time>2025-04-30T12:51:37Z</time>
      </trkpt>
      <trkpt lat="45.70398" lon="4.71936">
        <ele>317.2</ele>
        <time>2025-04-30T12:51:38Z</time>
      </trkpt>
      <trkpt lat="45.70399" lon="4.71928">
        <ele>317.2</ele>
        <time>2025-04-30T12:51:39Z</time>
      </trkpt>
      <trkpt lat="45.70399" lon="4.71921">
        <ele>317.4</ele>
        <time>2025-04-30T12:51:40Z</time>
      </trkpt>
      <trkpt lat="45.704" lon="4.71914">
        <ele>317.6</ele>
        <time>2025-04-30T12:51:41Z</time>
      </trkpt>
      <trkpt lat="45.70401" lon="4.71906">
        <ele>317.8</ele>
        <time>2025-04-30T12:51:42Z</time>
      </trkpt>
      <trkpt lat="45.70401" lon="4.71899">
        <ele>318</ele>
        <time>2025-04-30T12:51:43Z</time>
      </trkpt>
      <trkpt lat="45.70402" lon="4.71892">
        <ele>318.4</ele>
        <time>2025-04-30T12:51:44Z</time>
      </trkpt>
      <trkpt lat="45.70402" lon="4.71884">
        <ele>318.6</ele>
        <time>2025-04-30T12:51:45Z</time>
      </trkpt>
      <trkpt lat="45.70402" lon="4.71876">
        <ele>318.8</ele>
        <time>2025-04-30T12:51:46Z</time>
      </trkpt>
      <trkpt lat="45.70403" lon="4.71869">
        <ele>319</ele>
        <time>2025-04-30T12:51:47Z</time>
      </trkpt>
      <trkpt lat="45.70403" lon="4.71861">
        <ele>319.2</ele>
        <time>2025-04-30T12:51:48Z</time>
      </trkpt>
      <trkpt lat="45.70404" lon="4.71854">
        <ele>319.2</ele>
        <time>2025-04-30T12:51:49Z</time>
      </trkpt>
      <trkpt lat="45.70405" lon="4.71847">
        <ele>319.4</ele>
        <time>2025-04-30T12:51:50Z</time>
      </trkpt>
      <trkpt lat="45.70405" lon="4.7184">
        <ele>319.4</ele>
        <time>2025-04-30T12:51:51Z</time>
      </trkpt>
      <trkpt lat="45.70406" lon="4.71833">
        <ele>319.6</ele>
        <time>2025-04-30T12:51:52Z</time>
      </trkpt>
      <trkpt lat="45.70407" lon="4.71826">
        <ele>319.8</ele>
        <time>2025-04-30T12:51:53Z</time>
      </trkpt>
      <trkpt lat="45.70407" lon="4.71818">
        <ele>320</ele>
        <time>2025-04-30T12:51:54Z</time>
      </trkpt>
      <trkpt lat="45.70407" lon="4.71811">
        <ele>320.2</ele>
        <time>2025-04-30T12:51:55Z</time>
      </trkpt>
      <trkpt lat="45.70407" lon="4.71804">
        <ele>320.4</ele>
        <time>2025-04-30T12:51:56Z</time>
      </trkpt>
      <trkpt lat="45.70408" lon="4.71795">
        <ele>320.6</ele>
        <time>2025-04-30T12:51:57Z</time>
      </trkpt>
      <trkpt lat="45.70408" lon="4.7179">
        <ele>320.8</ele>
        <time>2025-04-30T12:51:58Z</time>
      </trkpt>
      <trkpt lat="45.70409" lon="4.71782">
        <ele>321</ele>
        <time>2025-04-30T12:51:59Z</time>
      </trkpt>
      <trkpt lat="45.7041" lon="4.71773">
        <ele>321.2</ele>
        <time>2025-04-30T12:52:00Z</time>
      </trkpt>
      <trkpt lat="45.70411" lon="4.71768">
        <ele>321.4</ele>
        <time>2025-04-30T12:52:01Z</time>
      </trkpt>
      <trkpt lat="45.70412" lon="4.7176">
        <ele>321.6</ele>
        <time>2025-04-30T12:52:02Z</time>
      </trkpt>
      <trkpt lat="45.70412" lon="4.71753">
        <ele>321.8</ele>
        <time>2025-04-30T12:52:03Z</time>
      </trkpt>
      <trkpt lat="45.70413" lon="4.71745">
        <ele>321.8</ele>
        <time>2025-04-30T12:52:04Z</time>
      </trkpt>
      <trkpt lat="45.70413" lon="4.71738">
        <ele>322</ele>
        <time>2025-04-30T12:52:05Z</time>
      </trkpt>
      <trkpt lat="45.70414" lon="4.7173">
        <ele>322.2</ele>
        <time>2025-04-30T12:52:06Z</time>
      </trkpt>
      <trkpt lat="45.70415" lon="4.71723">
        <ele>322.4</ele>
        <time>2025-04-30T12:52:07Z</time>
      </trkpt>
      <trkpt lat="45.70415" lon="4.71716">
        <ele>322.6</ele>
        <time>2025-04-30T12:52:08Z</time>
      </trkpt>
      <trkpt lat="45.70416" lon="4.71708">
        <ele>322.8</ele>
        <time>2025-04-30T12:52:09Z</time>
      </trkpt>
      <trkpt lat="45.70417" lon="4.717">
        <ele>322.8</ele>
        <time>2025-04-30T12:52:10Z</time>
      </trkpt>
      <trkpt lat="45.70417" lon="4.71692">
        <ele>323</ele>
        <time>2025-04-30T12:52:11Z</time>
      </trkpt>
      <trkpt lat="45.70418" lon="4.71684">
        <ele>323</ele>
        <time>2025-04-30T12:52:12Z</time>
      </trkpt>
      <trkpt lat="45.70418" lon="4.71677">
        <ele>323.2</ele>
        <time>2025-04-30T12:52:13Z</time>
      </trkpt>
      <trkpt lat="45.70418" lon="4.71669">
        <ele>323.2</ele>
        <time>2025-04-30T12:52:14Z</time>
      </trkpt>
      <trkpt lat="45.70419" lon="4.71659">
        <ele>323.2</ele>
        <time>2025-04-30T12:52:15Z</time>
      </trkpt>
      <trkpt lat="45.7042" lon="4.71652">
        <ele>323.2</ele>
        <time>2025-04-30T12:52:16Z</time>
      </trkpt>
      <trkpt lat="45.7042" lon="4.71644">
        <ele>323</ele>
        <time>2025-04-30T12:52:17Z</time>
      </trkpt>
      <trkpt lat="45.70421" lon="4.71636">
        <ele>323</ele>
        <time>2025-04-30T12:52:18Z</time>
      </trkpt>
      <trkpt lat="45.70422" lon="4.71628">
        <ele>323</ele>
        <time>2025-04-30T12:52:19Z</time>
      </trkpt>
      <trkpt lat="45.70423" lon="4.7162">
        <ele>323</ele>
        <time>2025-04-30T12:52:20Z</time>
      </trkpt>
      <trkpt lat="45.70424" lon="4.7161">
        <ele>322.8</ele>
        <time>2025-04-30T12:52:21Z</time>
      </trkpt>
      <trkpt lat="45.70425" lon="4.71603">
        <ele>322.8</ele>
        <time>2025-04-30T12:52:22Z</time>
      </trkpt>
      <trkpt lat="45.70427" lon="4.71594">
        <ele>322.6</ele>
        <time>2025-04-30T12:52:23Z</time>
      </trkpt>
      <trkpt lat="45.70428" lon="4.71586">
        <ele>322.6</ele>
        <time>2025-04-30T12:52:24Z</time>
      </trkpt>
      <trkpt lat="45.70429" lon="4.71577">
        <ele>322.4</ele>
        <time>2025-04-30T12:52:25Z</time>
      </trkpt>
      <trkpt lat="45.70431" lon="4.71568">
        <ele>322</ele>
        <time>2025-04-30T12:52:26Z</time>
      </trkpt>
      <trkpt lat="45.70433" lon="4.71558">
        <ele>321.8</ele>
        <time>2025-04-30T12:52:27Z</time>
      </trkpt>
      <trkpt lat="45.70435" lon="4.71551">
        <ele>321.6</ele>
        <time>2025-04-30T12:52:28Z</time>
      </trkpt>
      <trkpt lat="45.70437" lon="4.71542">
        <ele>321.6</ele>
        <time>2025-04-30T12:52:29Z</time>
      </trkpt>
      <trkpt lat="45.70439" lon="4.71534">
        <ele>321.4</ele>
        <time>2025-04-30T12:52:30Z</time>
      </trkpt>
      <trkpt lat="45.70441" lon="4.71525">
        <ele>321.4</ele>
        <time>2025-04-30T12:52:31Z</time>
      </trkpt>
      <trkpt lat="45.70444" lon="4.71516">
        <ele>321.2</ele>
        <time>2025-04-30T12:52:32Z</time>
      </trkpt>
      <trkpt lat="45.70446" lon="4.71507">
        <ele>321.2</ele>
        <time>2025-04-30T12:52:33Z</time>
      </trkpt>
      <trkpt lat="45.70448" lon="4.71497">
        <ele>321</ele>
        <time>2025-04-30T12:52:34Z</time>
      </trkpt>
      <trkpt lat="45.7045" lon="4.71488">
        <ele>320.6</ele>
        <time>2025-04-30T12:52:35Z</time>
      </trkpt>
      <trkpt lat="45.70452" lon="4.71479">
        <ele>320.4</ele>
        <time>2025-04-30T12:52:36Z</time>
      </trkpt>
      <trkpt lat="45.70455" lon="4.71469">
        <ele>320.2</ele>
        <time>2025-04-30T12:52:37Z</time>
      </trkpt>
      <trkpt lat="45.70458" lon="4.7146">
        <ele>320</ele>
        <time>2025-04-30T12:52:38Z</time>
      </trkpt>
      <trkpt lat="45.7046" lon="4.71451">
        <ele>319.8</ele>
        <time>2025-04-30T12:52:39Z</time>
      </trkpt>
      <trkpt lat="45.70464" lon="4.7144">
        <ele>319.2</ele>
        <time>2025-04-30T12:52:40Z</time>
      </trkpt>
      <trkpt lat="45.70466" lon="4.71433">
        <ele>319</ele>
        <time>2025-04-30T12:52:41Z</time>
      </trkpt>
      <trkpt lat="45.70468" lon="4.71423">
        <ele>318.8</ele>
        <time>2025-04-30T12:52:42Z</time>
      </trkpt>
      <trkpt lat="45.70471" lon="4.71414">
        <ele>318.6</ele>
        <time>2025-04-30T12:52:43Z</time>
      </trkpt>
      <trkpt lat="45.70474" lon="4.71405">
        <ele>318.4</ele>
        <time>2025-04-30T12:52:44Z</time>
      </trkpt>
      <trkpt lat="45.70477" lon="4.71396">
        <ele>318.2</ele>
        <time>2025-04-30T12:52:45Z</time>
      </trkpt>
      <trkpt lat="45.70481" lon="4.71386">
        <ele>318</ele>
        <time>2025-04-30T12:52:46Z</time>
      </trkpt>
      <trkpt lat="45.70484" lon="4.71377">
        <ele>317.8</ele>
        <time>2025-04-30T12:52:47Z</time>
      </trkpt>
      <trkpt lat="45.70488" lon="4.71367">
        <ele>317</ele>
        <time>2025-04-30T12:52:48Z</time>
      </trkpt>
      <trkpt lat="45.70493" lon="4.71354">
        <ele>316.8</ele>
        <time>2025-04-30T12:52:49Z</time>
      </trkpt>
      <trkpt lat="45.70496" lon="4.71346">
        <ele>316.2</ele>
        <time>2025-04-30T12:52:50Z</time>
      </trkpt>
      <trkpt lat="45.705" lon="4.71336">
        <ele>315.6</ele>
        <time>2025-04-30T12:52:51Z</time>
      </trkpt>
      <trkpt lat="45.70505" lon="4.71325">
        <ele>315</ele>
        <time>2025-04-30T12:52:52Z</time>
      </trkpt>
      <trkpt lat="45.70508" lon="4.71314">
        <ele>314.8</ele>
        <time>2025-04-30T12:52:53Z</time>
      </trkpt>
      <trkpt lat="45.70512" lon="4.71303">
        <ele>314</ele>
        <time>2025-04-30T12:52:54Z</time>
      </trkpt>
      <trkpt lat="45.70516" lon="4.71291">
        <ele>313.6</ele>
        <time>2025-04-30T12:52:55Z</time>
      </trkpt>
      <trkpt lat="45.70519" lon="4.71279">
        <ele>313.4</ele>
        <time>2025-04-30T12:52:56Z</time>
      </trkpt>
      <trkpt lat="45.70522" lon="4.71267">
        <ele>313.2</ele>
        <time>2025-04-30T12:52:57Z</time>
      </trkpt>
      <trkpt lat="45.70526" lon="4.71253">
        <ele>312.8</ele>
        <time>2025-04-30T12:52:58Z</time>
      </trkpt>
      <trkpt lat="45.70529" lon="4.71243">
        <ele>312.2</ele>
        <time>2025-04-30T12:52:59Z</time>
      </trkpt>
      <trkpt lat="45.70532" lon="4.71231">
        <ele>311.6</ele>
        <time>2025-04-30T12:53:00Z</time>
      </trkpt>
      <trkpt lat="45.70535" lon="4.71219">
        <ele>311.2</ele>
        <time>2025-04-30T12:53:01Z</time>
      </trkpt>
      <trkpt lat="45.70537" lon="4.71207">
        <ele>310.8</ele>
        <time>2025-04-30T12:53:02Z</time>
      </trkpt>
      <trkpt lat="45.7054" lon="4.71195">
        <ele>310.6</ele>
        <time>2025-04-30T12:53:03Z</time>
      </trkpt>
      <trkpt lat="45.70543" lon="4.7118">
        <ele>310.4</ele>
        <time>2025-04-30T12:53:04Z</time>
      </trkpt>
      <trkpt lat="45.70545" lon="4.71168">
        <ele>310</ele>
        <time>2025-04-30T12:53:05Z</time>
      </trkpt>
      <trkpt lat="45.70547" lon="4.71159">
        <ele>309.4</ele>
        <time>2025-04-30T12:53:06Z</time>
      </trkpt>
      <trkpt lat="45.70549" lon="4.71145">
        <ele>309</ele>
        <time>2025-04-30T12:53:07Z</time>
      </trkpt>
      <trkpt lat="45.7055" lon="4.71134">
        <ele>308.8</ele>
        <time>2025-04-30T12:53:08Z</time>
      </trkpt>
      <trkpt lat="45.70551" lon="4.71122">
        <ele>308.8</ele>
        <time>2025-04-30T12:53:09Z</time>
      </trkpt>
      <trkpt lat="45.70551" lon="4.7111">
        <ele>308.6</ele>
        <time>2025-04-30T12:53:10Z</time>
      </trkpt>
      <trkpt lat="45.7055" lon="4.71101">
        <ele>308.4</ele>
        <time>2025-04-30T12:53:11Z</time>
      </trkpt>
      <trkpt lat="45.70548" lon="4.71087">
        <ele>308</ele>
        <time>2025-04-30T12:53:12Z</time>
      </trkpt>
      <trkpt lat="45.70546" lon="4.71076">
        <ele>307.8</ele>
        <time>2025-04-30T12:53:13Z</time>
      </trkpt>
      <trkpt lat="45.70545" lon="4.71067">
        <ele>307.6</ele>
        <time>2025-04-30T12:53:14Z</time>
      </trkpt>
      <trkpt lat="45.70543" lon="4.71056">
        <ele>307.4</ele>
        <time>2025-04-30T12:53:15Z</time>
      </trkpt>
      <trkpt lat="45.70541" lon="4.71043">
        <ele>307.4</ele>
        <time>2025-04-30T12:53:16Z</time>
      </trkpt>
      <trkpt lat="45.70541" lon="4.71032">
        <ele>307.4</ele>
        <time>2025-04-30T12:53:17Z</time>
      </trkpt>
      <trkpt lat="45.70541" lon="4.71023">
        <ele>307.4</ele>
        <time>2025-04-30T12:53:18Z</time>
      </trkpt>
      <trkpt lat="45.70542" lon="4.71011">
        <ele>307.4</ele>
        <time>2025-04-30T12:53:19Z</time>
      </trkpt>
      <trkpt lat="45.70543" lon="4.71003">
        <ele>307.4</ele>
        <time>2025-04-30T12:53:20Z</time>
      </trkpt>
      <trkpt lat="45.70545" lon="4.7099">
        <ele>307.6</ele>
        <time>2025-04-30T12:53:21Z</time>
      </trkpt>
      <trkpt lat="45.70546" lon="4.7098">
        <ele>307.6</ele>
        <time>2025-04-30T12:53:22Z</time>
      </trkpt>
      <trkpt lat="45.70547" lon="4.70972">
        <ele>307.8</ele>
        <time>2025-04-30T12:53:23Z</time>
      </trkpt>
      <trkpt lat="45.70547" lon="4.70963">
        <ele>308</ele>
        <time>2025-04-30T12:53:24Z</time>
      </trkpt>
      <trkpt lat="45.70549" lon="4.70954">
        <ele>308</ele>
        <time>2025-04-30T12:53:25Z</time>
      </trkpt>
      <trkpt lat="45.7055" lon="4.70944">
        <ele>308</ele>
        <time>2025-04-30T12:53:26Z</time>
      </trkpt>
      <trkpt lat="45.70551" lon="4.70935">
        <ele>308.2</ele>
        <time>2025-04-30T12:53:27Z</time>
      </trkpt>
      <trkpt lat="45.70552" lon="4.70925">
        <ele>308.4</ele>
        <time>2025-04-30T12:53:28Z</time>
      </trkpt>
      <trkpt lat="45.70553" lon="4.70918">
        <ele>308.4</ele>
        <time>2025-04-30T12:53:29Z</time>
      </trkpt>
      <trkpt lat="45.70554" lon="4.7091">
        <ele>308.4</ele>
        <time>2025-04-30T12:53:30Z</time>
      </trkpt>
      <trkpt lat="45.70553" lon="4.709">
        <ele>308.6</ele>
        <time>2025-04-30T12:53:31Z</time>
      </trkpt>
      <trkpt lat="45.70552" lon="4.70893">
        <ele>308.6</ele>
        <time>2025-04-30T12:53:32Z</time>
      </trkpt>
      <trkpt lat="45.70551" lon="4.70885">
        <ele>308.6</ele>
        <time>2025-04-30T12:53:33Z</time>
      </trkpt>
      <trkpt lat="45.7055" lon="4.70876">
        <ele>308.6</ele>
        <time>2025-04-30T12:53:34Z</time>
      </trkpt>
      <trkpt lat="45.70548" lon="4.70868">
        <ele>308.6</ele>
        <time>2025-04-30T12:53:35Z</time>
      </trkpt>
      <trkpt lat="45.70547" lon="4.70859">
        <ele>308.6</ele>
        <time>2025-04-30T12:53:36Z</time>
      </trkpt>
      <trkpt lat="45.70547" lon="4.70851">
        <ele>308.6</ele>
        <time>2025-04-30T12:53:37Z</time>
      </trkpt>
      <trkpt lat="45.70546" lon="4.70842">
        <ele>308.6</ele>
        <time>2025-04-30T12:53:38Z</time>
      </trkpt>
      <trkpt lat="45.70545" lon="4.70834">
        <ele>308.6</ele>
        <time>2025-04-30T12:53:39Z</time>
      </trkpt>
      <trkpt lat="45.70544" lon="4.70826">
        <ele>308.6</ele>
        <time>2025-04-30T12:53:40Z</time>
      </trkpt>
      <trkpt lat="45.70543" lon="4.70819">
        <ele>308.6</ele>
        <time>2025-04-30T12:53:41Z</time>
      </trkpt>
      <trkpt lat="45.70543" lon="4.70812">
        <ele>308.8</ele>
        <time>2025-04-30T12:53:42Z</time>
      </trkpt>
      <trkpt lat="45.70543" lon="4.70805">
        <ele>309</ele>
        <time>2025-04-30T12:53:43Z</time>
      </trkpt>
      <trkpt lat="45.70543" lon="4.70798">
        <ele>309.2</ele>
        <time>2025-04-30T12:53:44Z</time>
      </trkpt>
      <trkpt lat="45.70543" lon="4.70792">
        <ele>309.4</ele>
        <time>2025-04-30T12:53:45Z</time>
      </trkpt>
      <trkpt lat="45.70543" lon="4.70787">
        <ele>309.4</ele>
        <time>2025-04-30T12:53:46Z</time>
      </trkpt>
      <trkpt lat="45.70543" lon="4.70781">
        <ele>309.6</ele>
        <time>2025-04-30T12:53:47Z</time>
      </trkpt>
      <trkpt lat="45.70543" lon="4.70777">
        <ele>309.6</ele>
        <time>2025-04-30T12:53:48Z</time>
      </trkpt>
      <trkpt lat="45.70543" lon="4.70772">
        <ele>309.6</ele>
        <time>2025-04-30T12:53:49Z</time>
      </trkpt>
      <trkpt lat="45.70543" lon="4.70769">
        <ele>309.8</ele>
        <time>2025-04-30T12:53:50Z</time>
      </trkpt>
      <trkpt lat="45.70543" lon="4.70766">
        <ele>309.8</ele>
        <time>2025-04-30T12:53:51Z</time>
      </trkpt>
      <trkpt lat="45.70543" lon="4.70762">
        <ele>309.8</ele>
        <time>2025-04-30T12:53:52Z</time>
      </trkpt>
      <trkpt lat="45.70543" lon="4.70758">
        <ele>310</ele>
        <time>2025-04-30T12:53:53Z</time>
      </trkpt>
      <trkpt lat="45.70543" lon="4.70754">
        <ele>310</ele>
        <time>2025-04-30T12:53:54Z</time>
      </trkpt>
      <trkpt lat="45.70542" lon="4.70748">
        <ele>310</ele>
        <time>2025-04-30T12:53:55Z</time>
      </trkpt>
      <trkpt lat="45.70541" lon="4.70743">
        <ele>310.2</ele>
        <time>2025-04-30T12:53:56Z</time>
      </trkpt>
      <trkpt lat="45.70541" lon="4.70737">
        <ele>310.2</ele>
        <time>2025-04-30T12:53:57Z</time>
      </trkpt>
      <trkpt lat="45.7054" lon="4.70731">
        <ele>310.2</ele>
        <time>2025-04-30T12:53:58Z</time>
      </trkpt>
      <trkpt lat="45.70539" lon="4.70725">
        <ele>310.2</ele>
        <time>2025-04-30T12:53:59Z</time>
      </trkpt>
      <trkpt lat="45.70538" lon="4.70719">
        <ele>310.4</ele>
        <time>2025-04-30T12:54:00Z</time>
      </trkpt>
      <trkpt lat="45.70537" lon="4.70714">
        <ele>310.6</ele>
        <time>2025-04-30T12:54:01Z</time>
      </trkpt>
      <trkpt lat="45.70536" lon="4.70709">
        <ele>310.6</ele>
        <time>2025-04-30T12:54:02Z</time>
      </trkpt>
      <trkpt lat="45.70535" lon="4.70704">
        <ele>311</ele>
        <time>2025-04-30T12:54:03Z</time>
      </trkpt>
      <trkpt lat="45.70534" lon="4.70699">
        <ele>311.2</ele>
        <time>2025-04-30T12:54:04Z</time>
      </trkpt>
      <trkpt lat="45.70533" lon="4.70694">
        <ele>311.2</ele>
        <time>2025-04-30T12:54:05Z</time>
      </trkpt>
      <trkpt lat="45.70532" lon="4.70687">
        <ele>311.2</ele>
        <time>2025-04-30T12:54:06Z</time>
      </trkpt>
      <trkpt lat="45.70531" lon="4.7068">
        <ele>311.2</ele>
        <time>2025-04-30T12:54:07Z</time>
      </trkpt>
      <trkpt lat="45.7053" lon="4.70673">
        <ele>311.4</ele>
        <time>2025-04-30T12:54:08Z</time>
      </trkpt>
      <trkpt lat="45.70529" lon="4.70666">
        <ele>311.4</ele>
        <time>2025-04-30T12:54:09Z</time>
      </trkpt>
      <trkpt lat="45.70529" lon="4.70659">
        <ele>311.4</ele>
        <time>2025-04-30T12:54:10Z</time>
      </trkpt>
      <trkpt lat="45.70528" lon="4.70652">
        <ele>311.4</ele>
        <time>2025-04-30T12:54:11Z</time>
      </trkpt>
      <trkpt lat="45.70527" lon="4.70645">
        <ele>311.6</ele>
        <time>2025-04-30T12:54:12Z</time>
      </trkpt>
      <trkpt lat="45.70527" lon="4.70638">
        <ele>311.8</ele>
        <time>2025-04-30T12:54:13Z</time>
      </trkpt>
      <trkpt lat="45.70526" lon="4.70632">
        <ele>312.2</ele>
        <time>2025-04-30T12:54:14Z</time>
      </trkpt>
      <trkpt lat="45.70526" lon="4.70626">
        <ele>312.8</ele>
        <time>2025-04-30T12:54:15Z</time>
      </trkpt>
      <trkpt lat="45.70526" lon="4.7062">
        <ele>313.2</ele>
        <time>2025-04-30T12:54:16Z</time>
      </trkpt>
      <trkpt lat="45.70525" lon="4.70613">
        <ele>313.4</ele>
        <time>2025-04-30T12:54:17Z</time>
      </trkpt>
      <trkpt lat="45.70525" lon="4.70607">
        <ele>314</ele>
        <time>2025-04-30T12:54:18Z</time>
      </trkpt>
      <trkpt lat="45.70524" lon="4.706">
        <ele>314.4</ele>
        <time>2025-04-30T12:54:19Z</time>
      </trkpt>
      <trkpt lat="45.70524" lon="4.70594">
        <ele>314.6</ele>
        <time>2025-04-30T12:54:20Z</time>
      </trkpt>
      <trkpt lat="45.70524" lon="4.70588">
        <ele>315.2</ele>
        <time>2025-04-30T12:54:21Z</time>
      </trkpt>
      <trkpt lat="45.70524" lon="4.70582">
        <ele>315.2</ele>
        <time>2025-04-30T12:54:22Z</time>
      </trkpt>
      <trkpt lat="45.70524" lon="4.70577">
        <ele>315.4</ele>
        <time>2025-04-30T12:54:23Z</time>
      </trkpt>
      <trkpt lat="45.70524" lon="4.70571">
        <ele>315.8</ele>
        <time>2025-04-30T12:54:24Z</time>
      </trkpt>
      <trkpt lat="45.70523" lon="4.70566">
        <ele>315.8</ele>
        <time>2025-04-30T12:54:25Z</time>
      </trkpt>
      <trkpt lat="45.70522" lon="4.70561">
        <ele>316.2</ele>
        <time>2025-04-30T12:54:26Z</time>
      </trkpt>
      <trkpt lat="45.70522" lon="4.70556">
        <ele>316.4</ele>
        <time>2025-04-30T12:54:27Z</time>
      </trkpt>
      <trkpt lat="45.70522" lon="4.70551">
        <ele>316.8</ele>
        <time>2025-04-30T12:54:28Z</time>
      </trkpt>
      <trkpt lat="45.70522" lon="4.70546">
        <ele>317</ele>
        <time>2025-04-30T12:54:29Z</time>
      </trkpt>
      <trkpt lat="45.70521" lon="4.70541">
        <ele>317</ele>
        <time>2025-04-30T12:54:30Z</time>
      </trkpt>
      <trkpt lat="45.70521" lon="4.70536">
        <ele>317.2</ele>
        <time>2025-04-30T12:54:31Z</time>
      </trkpt>
      <trkpt lat="45.70521" lon="4.70532">
        <ele>317.2</ele>
        <time>2025-04-30T12:54:32Z</time>
      </trkpt>
      <trkpt lat="45.70521" lon="4.70527">
        <ele>317.4</ele>
        <time>2025-04-30T12:54:33Z</time>
      </trkpt>
      <trkpt lat="45.70521" lon="4.70522">
        <ele>317.4</ele>
        <time>2025-04-30T12:54:34Z</time>
      </trkpt>
      <trkpt lat="45.70522" lon="4.70517">
        <ele>317.4</ele>
        <time>2025-04-30T12:54:35Z</time>
      </trkpt>
      <trkpt lat="45.70522" lon="4.70511">
        <ele>317.4</ele>
        <time>2025-04-30T12:54:36Z</time>
      </trkpt>
      <trkpt lat="45.70522" lon="4.70506">
        <ele>317.6</ele>
        <time>2025-04-30T12:54:37Z</time>
      </trkpt>
      <trkpt lat="45.70521" lon="4.70501">
        <ele>317.6</ele>
        <time>2025-04-30T12:54:38Z</time>
      </trkpt>
      <trkpt lat="45.70521" lon="4.70497">
        <ele>317.6</ele>
        <time>2025-04-30T12:54:39Z</time>
      </trkpt>
      <trkpt lat="45.70522" lon="4.70493">
        <ele>317.6</ele>
        <time>2025-04-30T12:54:40Z</time>
      </trkpt>
      <trkpt lat="45.70522" lon="4.7049">
        <ele>317.6</ele>
        <time>2025-04-30T12:54:41Z</time>
      </trkpt>
      <trkpt lat="45.70522" lon="4.70486">
        <ele>317.6</ele>
        <time>2025-04-30T12:54:42Z</time>
      </trkpt>
      <trkpt lat="45.70522" lon="4.70484">
        <ele>317.6</ele>
        <time>2025-04-30T12:54:43Z</time>
      </trkpt>
      <trkpt lat="45.70522" lon="4.70483">
        <ele>317.8</ele>
        <time>2025-04-30T12:54:44Z</time>
      </trkpt>
      <trkpt lat="45.70522" lon="4.70483">
        <ele>317.8</ele>
        <time>2025-04-30T12:54:45Z</time>
      </trkpt>
      <trkpt lat="45.70522" lon="4.70483">
        <ele>317.8</ele>
        <time>2025-04-30T12:54:46Z</time>
      </trkpt>
      <trkpt lat="45.70522" lon="4.70483">
        <ele>317.8</ele>
        <time>2025-04-30T12:54:47Z</time>
      </trkpt>
      <trkpt lat="45.70522" lon="4.70483">
        <ele>317.8</ele>
        <time>2025-04-30T12:54:48Z</time>
      </trkpt>
      <trkpt lat="45.70522" lon="4.70483">
        <ele>317.8</ele>
        <time>2025-04-30T12:54:49Z</time>
      </trkpt>
      <trkpt lat="45.70522" lon="4.70483">
        <ele>317.8</ele>
        <time>2025-04-30T12:54:50Z</time>
      </trkpt>
      <trkpt lat="45.70522" lon="4.70483">
        <ele>317.8</ele>
        <time>2025-04-30T12:54:51Z</time>
      </trkpt>
      <trkpt lat="45.70522" lon="4.70483">
        <ele>317.8</ele>
        <time>2025-04-30T12:54:52Z</time>
      </trkpt>
      <trkpt lat="45.70522" lon="4.70483">
        <ele>317.8</ele>
        <time>2025-04-30T12:54:53Z</time>
      </trkpt>
      <trkpt lat="45.70522" lon="4.70483">
        <ele>317.8</ele>
        <time>2025-04-30T12:54:54Z</time>
      </trkpt>
      <trkpt lat="45.70522" lon="4.70483">
        <ele>317.8</ele>
        <time>2025-04-30T12:54:55Z</time>
      </trkpt>
      <trkpt lat="45.70522" lon="4.70483">
        <ele>317.8</ele>
        <time>2025-04-30T12:54:56Z</time>
      </trkpt>
      <trkpt lat="45.70522" lon="4.70483">
        <ele>317.8</ele>
        <time>2025-04-30T12:54:57Z</time>
      </trkpt>
      <trkpt lat="45.70522" lon="4.70483">
        <ele>317.8</ele>
        <time>2025-04-30T12:54:58Z</time>
      </trkpt>
      <trkpt lat="45.70522" lon="4.70483">
        <ele>317.8</ele>
        <time>2025-04-30T12:54:59Z</time>
      </trkpt>
      <trkpt lat="45.70522" lon="4.70483">
        <ele>317.8</ele>
        <time>2025-04-30T12:55:00Z</time>
      </trkpt>
      <trkpt lat="45.70522" lon="4.70483">
        <ele>317.8</ele>
        <time>2025-04-30T12:55:01Z</time>
      </trkpt>
      <trkpt lat="45.70522" lon="4.70483">
        <ele>317.8</ele>
        <time>2025-04-30T12:55:02Z</time>
      </trkpt>
      <trkpt lat="45.70522" lon="4.70483">
        <ele>317.8</ele>
        <time>2025-04-30T12:55:03Z</time>
      </trkpt>
      <trkpt lat="45.70522" lon="4.70483">
        <ele>317.8</ele>
        <time>2025-04-30T12:55:04Z</time>
      </trkpt>
      <trkpt lat="45.70522" lon="4.70483">
        <ele>317.8</ele>
        <time>2025-04-30T12:55:05Z</time>
      </trkpt>
      <trkpt lat="45.70522" lon="4.70483">
        <ele>317.8</ele>
        <time>2025-04-30T12:55:06Z</time>
      </trkpt>
      <trkpt lat="45.70522" lon="4.70483">
        <ele>317.8</ele>
        <time>2025-04-30T12:55:07Z</time>
      </trkpt>
      <trkpt lat="45.70522" lon="4.70483">
        <ele>317.8</ele>
        <time>2025-04-30T12:55:08Z</time>
      </trkpt>
      <trkpt lat="45.70522" lon="4.70483">
        <ele>317.8</ele>
        <time>2025-04-30T12:55:09Z</time>
      </trkpt>
      <trkpt lat="45.70522" lon="4.70483">
        <ele>317.8</ele>
        <time>2025-04-30T12:55:10Z</time>
      </trkpt>
      <trkpt lat="45.70522" lon="4.70483">
        <ele>317.8</ele>
        <time>2025-04-30T12:55:11Z</time>
      </trkpt>
      <trkpt lat="45.70522" lon="4.70483">
        <ele>317.8</ele>
        <time>2025-04-30T12:55:12Z</time>
      </trkpt>
      <trkpt lat="45.70522" lon="4.70483">
        <ele>317.8</ele>
        <time>2025-04-30T12:55:13Z</time>
      </trkpt>
      <trkpt lat="45.70522" lon="4.70483">
        <ele>317.8</ele>
        <time>2025-04-30T12:55:14Z</time>
      </trkpt>
      <trkpt lat="45.70522" lon="4.70483">
        <ele>317.8</ele>
        <time>2025-04-30T12:55:15Z</time>
      </trkpt>
      <trkpt lat="45.70522" lon="4.70483">
        <ele>317.8</ele>
        <time>2025-04-30T12:55:16Z</time>
      </trkpt>
      <trkpt lat="45.70522" lon="4.70483">
        <ele>317.8</ele>
        <time>2025-04-30T12:55:17Z</time>
      </trkpt>
      <trkpt lat="45.70522" lon="4.70483">
        <ele>317.8</ele>
        <time>2025-04-30T12:55:18Z</time>
      </trkpt>
      <trkpt lat="45.70522" lon="4.70483">
        <ele>317.8</ele>
        <time>2025-04-30T12:55:19Z</time>
      </trkpt>
      <trkpt lat="45.70522" lon="4.70483">
        <ele>317.8</ele>
        <time>2025-04-30T12:55:20Z</time>
      </trkpt>
      <trkpt lat="45.70522" lon="4.70483">
        <ele>317.8</ele>
        <time>2025-04-30T12:55:21Z</time>
      </trkpt>
      <trkpt lat="45.70522" lon="4.70483">
        <ele>317.8</ele>
        <time>2025-04-30T12:55:22Z</time>
      </trkpt>
      <trkpt lat="45.70522" lon="4.70483">
        <ele>317.8</ele>
        <time>2025-04-30T12:55:23Z</time>
      </trkpt>
      <trkpt lat="45.70522" lon="4.70483">
        <ele>317.8</ele>
        <time>2025-04-30T12:55:24Z</time>
      </trkpt>
      <trkpt lat="45.70522" lon="4.70483">
        <ele>317.8</ele>
        <time>2025-04-30T12:55:25Z</time>
      </trkpt>
      <trkpt lat="45.70522" lon="4.70483">
        <ele>317.8</ele>
        <time>2025-04-30T12:55:26Z</time>
      </trkpt>
      <trkpt lat="45.70522" lon="4.70483">
        <ele>317.8</ele>
        <time>2025-04-30T12:55:27Z</time>
      </trkpt>
      <trkpt lat="45.70522" lon="4.70483">
        <ele>317.8</ele>
        <time>2025-04-30T12:55:28Z</time>
      </trkpt>
      <trkpt lat="45.70522" lon="4.70483">
        <ele>317.8</ele>
        <time>2025-04-30T12:55:29Z</time>
      </trkpt>
      <trkpt lat="45.70522" lon="4.70483">
        <ele>317.8</ele>
        <time>2025-04-30T12:55:30Z</time>
      </trkpt>
      <trkpt lat="45.70522" lon="4.70483">
        <ele>317.8</ele>
        <time>2025-04-30T12:55:31Z</time>
      </trkpt>
      <trkpt lat="45.70522" lon="4.70483">
        <ele>317.8</ele>
        <time>2025-04-30T12:55:32Z</time>
      </trkpt>
      <trkpt lat="45.70522" lon="4.70483">
        <ele>317.8</ele>
        <time>2025-04-30T12:55:33Z</time>
      </trkpt>
      <trkpt lat="45.70522" lon="4.70483">
        <ele>317.8</ele>
        <time>2025-04-30T12:55:34Z</time>
      </trkpt>
      <trkpt lat="45.70522" lon="4.70483">
        <ele>317.8</ele>
        <time>2025-04-30T12:55:35Z</time>
      </trkpt>
      <trkpt lat="45.70522" lon="4.70484">
        <ele>317.8</ele>
        <time>2025-04-30T12:55:36Z</time>
      </trkpt>
      <trkpt lat="45.70522" lon="4.70483">
        <ele>317.8</ele>
        <time>2025-04-30T12:55:37Z</time>
      </trkpt>
      <trkpt lat="45.70522" lon="4.70482">
        <ele>317.8</ele>
        <time>2025-04-30T12:55:38Z</time>
      </trkpt>
      <trkpt lat="45.70521" lon="4.70479">
        <ele>317.8</ele>
        <time>2025-04-30T12:55:39Z</time>
      </trkpt>
      <trkpt lat="45.70521" lon="4.70475">
        <ele>317.6</ele>
        <time>2025-04-30T12:55:40Z</time>
      </trkpt>
      <trkpt lat="45.70521" lon="4.70471">
        <ele>317.6</ele>
        <time>2025-04-30T12:55:41Z</time>
      </trkpt>
      <trkpt lat="45.70521" lon="4.70466">
        <ele>317.6</ele>
        <time>2025-04-30T12:55:42Z</time>
      </trkpt>
      <trkpt lat="45.70521" lon="4.7046">
        <ele>317.6</ele>
        <time>2025-04-30T12:55:43Z</time>
      </trkpt>
      <trkpt lat="45.70521" lon="4.70454">
        <ele>317.4</ele>
        <time>2025-04-30T12:55:44Z</time>
      </trkpt>
      <trkpt lat="45.7052" lon="4.70447">
        <ele>317.2</ele>
        <time>2025-04-30T12:55:45Z</time>
      </trkpt>
      <trkpt lat="45.7052" lon="4.7044">
        <ele>317</ele>
        <time>2025-04-30T12:55:46Z</time>
      </trkpt>
      <trkpt lat="45.70519" lon="4.70432">
        <ele>316.6</ele>
        <time>2025-04-30T12:55:47Z</time>
      </trkpt>
      <trkpt lat="45.70518" lon="4.70425">
        <ele>316.4</ele>
        <time>2025-04-30T12:55:48Z</time>
      </trkpt>
      <trkpt lat="45.70517" lon="4.70417">
        <ele>316.4</ele>
        <time>2025-04-30T12:55:49Z</time>
      </trkpt>
      <trkpt lat="45.70517" lon="4.7041">
        <ele>316.2</ele>
        <time>2025-04-30T12:55:50Z</time>
      </trkpt>
      <trkpt lat="45.70515" lon="4.70402">
        <ele>316</ele>
        <time>2025-04-30T12:55:51Z</time>
      </trkpt>
      <trkpt lat="45.70514" lon="4.70394">
        <ele>315.6</ele>
        <time>2025-04-30T12:55:52Z</time>
      </trkpt>
      <trkpt lat="45.70513" lon="4.70385">
        <ele>315.4</ele>
        <time>2025-04-30T12:55:53Z</time>
      </trkpt>
      <trkpt lat="45.70512" lon="4.70377">
        <ele>315.2</ele>
        <time>2025-04-30T12:55:54Z</time>
      </trkpt>
      <trkpt lat="45.70511" lon="4.70368">
        <ele>315</ele>
        <time>2025-04-30T12:55:55Z</time>
      </trkpt>
      <trkpt lat="45.70509" lon="4.70359">
        <ele>314.8</ele>
        <time>2025-04-30T12:55:56Z</time>
      </trkpt>
      <trkpt lat="45.70508" lon="4.70348">
        <ele>314.4</ele>
        <time>2025-04-30T12:55:57Z</time>
      </trkpt>
      <trkpt lat="45.70508" lon="4.70336">
        <ele>313.6</ele>
        <time>2025-04-30T12:55:58Z</time>
      </trkpt>
      <trkpt lat="45.70509" lon="4.70327">
        <ele>313</ele>
        <time>2025-04-30T12:55:59Z</time>
      </trkpt>
      <trkpt lat="45.7051" lon="4.70316">
        <ele>312.6</ele>
        <time>2025-04-30T12:56:00Z</time>
      </trkpt>
      <trkpt lat="45.70512" lon="4.70304">
        <ele>311.6</ele>
        <time>2025-04-30T12:56:01Z</time>
      </trkpt>
      <trkpt lat="45.70514" lon="4.70293">
        <ele>311.4</ele>
        <time>2025-04-30T12:56:02Z</time>
      </trkpt>
      <trkpt lat="45.70516" lon="4.70281">
        <ele>310.8</ele>
        <time>2025-04-30T12:56:03Z</time>
      </trkpt>
      <trkpt lat="45.70518" lon="4.70268">
        <ele>310</ele>
        <time>2025-04-30T12:56:04Z</time>
      </trkpt>
      <trkpt lat="45.7052" lon="4.70255">
        <ele>309.6</ele>
        <time>2025-04-30T12:56:05Z</time>
      </trkpt>
      <trkpt lat="45.70522" lon="4.70241">
        <ele>308.8</ele>
        <time>2025-04-30T12:56:06Z</time>
      </trkpt>
      <trkpt lat="45.70524" lon="4.70227">
        <ele>307.8</ele>
        <time>2025-04-30T12:56:07Z</time>
      </trkpt>
      <trkpt lat="45.70525" lon="4.70215">
        <ele>306.6</ele>
        <time>2025-04-30T12:56:08Z</time>
      </trkpt>
      <trkpt lat="45.70527" lon="4.70205">
        <ele>305.8</ele>
        <time>2025-04-30T12:56:09Z</time>
      </trkpt>
      <trkpt lat="45.70529" lon="4.70194">
        <ele>305.6</ele>
        <time>2025-04-30T12:56:10Z</time>
      </trkpt>
      <trkpt lat="45.70532" lon="4.70184">
        <ele>305.2</ele>
        <time>2025-04-30T12:56:11Z</time>
      </trkpt>
      <trkpt lat="45.70535" lon="4.70174">
        <ele>304.8</ele>
        <time>2025-04-30T12:56:12Z</time>
      </trkpt>
      <trkpt lat="45.70539" lon="4.70163">
        <ele>304</ele>
        <time>2025-04-30T12:56:13Z</time>
      </trkpt>
      <trkpt lat="45.70543" lon="4.70152">
        <ele>302.8</ele>
        <time>2025-04-30T12:56:14Z</time>
      </trkpt>
      <trkpt lat="45.70548" lon="4.70142">
        <ele>302.2</ele>
        <time>2025-04-30T12:56:15Z</time>
      </trkpt>
      <trkpt lat="45.70552" lon="4.70131">
        <ele>301.4</ele>
        <time>2025-04-30T12:56:16Z</time>
      </trkpt>
      <trkpt lat="45.70557" lon="4.7012">
        <ele>301</ele>
        <time>2025-04-30T12:56:17Z</time>
      </trkpt>
      <trkpt lat="45.70561" lon="4.70109">
        <ele>300.4</ele>
        <time>2025-04-30T12:56:18Z</time>
      </trkpt>
      <trkpt lat="45.70565" lon="4.70099">
        <ele>300</ele>
        <time>2025-04-30T12:56:19Z</time>
      </trkpt>
      <trkpt lat="45.70568" lon="4.70089">
        <ele>299.8</ele>
        <time>2025-04-30T12:56:20Z</time>
      </trkpt>
      <trkpt lat="45.70572" lon="4.70079">
        <ele>299.6</ele>
        <time>2025-04-30T12:56:21Z</time>
      </trkpt>
      <trkpt lat="45.70576" lon="4.70069">
        <ele>299.4</ele>
        <time>2025-04-30T12:56:22Z</time>
      </trkpt>
      <trkpt lat="45.7058" lon="4.70058">
        <ele>299.4</ele>
        <time>2025-04-30T12:56:23Z</time>
      </trkpt>
      <trkpt lat="45.70583" lon="4.7005">
        <ele>299.4</ele>
        <time>2025-04-30T12:56:24Z</time>
      </trkpt>
      <trkpt lat="45.70587" lon="4.70041">
        <ele>299.4</ele>
        <time>2025-04-30T12:56:25Z</time>
      </trkpt>
      <trkpt lat="45.70592" lon="4.70032">
        <ele>299.2</ele>
        <time>2025-04-30T12:56:26Z</time>
      </trkpt>
      <trkpt lat="45.70597" lon="4.70025">
        <ele>299.2</ele>
        <time>2025-04-30T12:56:27Z</time>
      </trkpt>
      <trkpt lat="45.70602" lon="4.70018">
        <ele>299.2</ele>
        <time>2025-04-30T12:56:28Z</time>
      </trkpt>
      <trkpt lat="45.70608" lon="4.70009">
        <ele>298.6</ele>
        <time>2025-04-30T12:56:29Z</time>
      </trkpt>
      <trkpt lat="45.70613" lon="4.70002">
        <ele>298.4</ele>
        <time>2025-04-30T12:56:30Z</time>
      </trkpt>
      <trkpt lat="45.70618" lon="4.69991">
        <ele>297.6</ele>
        <time>2025-04-30T12:56:31Z</time>
      </trkpt>
      <trkpt lat="45.70622" lon="4.6998">
        <ele>297</ele>
        <time>2025-04-30T12:56:32Z</time>
      </trkpt>
      <trkpt lat="45.70624" lon="4.69967">
        <ele>295.8</ele>
        <time>2025-04-30T12:56:33Z</time>
      </trkpt>
      <trkpt lat="45.70626" lon="4.69952">
        <ele>294.4</ele>
        <time>2025-04-30T12:56:34Z</time>
      </trkpt>
      <trkpt lat="45.70626" lon="4.69935">
        <ele>292.6</ele>
        <time>2025-04-30T12:56:35Z</time>
      </trkpt>
      <trkpt lat="45.70625" lon="4.69924">
        <ele>291.4</ele>
        <time>2025-04-30T12:56:36Z</time>
      </trkpt>
      <trkpt lat="45.70623" lon="4.69912">
        <ele>289.8</ele>
        <time>2025-04-30T12:56:37Z</time>
      </trkpt>
      <trkpt lat="45.70619" lon="4.69902">
        <ele>289.4</ele>
        <time>2025-04-30T12:56:38Z</time>
      </trkpt>
      <trkpt lat="45.70614" lon="4.69893">
        <ele>289</ele>
        <time>2025-04-30T12:56:39Z</time>
      </trkpt>
      <trkpt lat="45.70607" lon="4.69886">
        <ele>288.8</ele>
        <time>2025-04-30T12:56:40Z</time>
      </trkpt>
      <trkpt lat="45.706" lon="4.6988">
        <ele>288.6</ele>
        <time>2025-04-30T12:56:41Z</time>
      </trkpt>
      <trkpt lat="45.70594" lon="4.69875">
        <ele>288.4</ele>
        <time>2025-04-30T12:56:42Z</time>
      </trkpt>
      <trkpt lat="45.70588" lon="4.6987">
        <ele>288.4</ele>
        <time>2025-04-30T12:56:43Z</time>
      </trkpt>
      <trkpt lat="45.70582" lon="4.69866">
        <ele>288.6</ele>
        <time>2025-04-30T12:56:44Z</time>
      </trkpt>
      <trkpt lat="45.70574" lon="4.69861">
        <ele>288.6</ele>
        <time>2025-04-30T12:56:45Z</time>
      </trkpt>
      <trkpt lat="45.7057" lon="4.69859">
        <ele>288.8</ele>
        <time>2025-04-30T12:56:46Z</time>
      </trkpt>
      <trkpt lat="45.70564" lon="4.69858">
        <ele>289</ele>
        <time>2025-04-30T12:56:47Z</time>
      </trkpt>
      <trkpt lat="45.70558" lon="4.69857">
        <ele>290</ele>
        <time>2025-04-30T12:56:48Z</time>
      </trkpt>
      <trkpt lat="45.70553" lon="4.69857">
        <ele>290.4</ele>
        <time>2025-04-30T12:56:49Z</time>
      </trkpt>
      <trkpt lat="45.70548" lon="4.69857">
        <ele>291</ele>
        <time>2025-04-30T12:56:50Z</time>
      </trkpt>
      <trkpt lat="45.70543" lon="4.69856">
        <ele>291.8</ele>
        <time>2025-04-30T12:56:51Z</time>
      </trkpt>
      <trkpt lat="45.70539" lon="4.69855">
        <ele>292.4</ele>
        <time>2025-04-30T12:56:52Z</time>
      </trkpt>
      <trkpt lat="45.70535" lon="4.69854">
        <ele>293</ele>
        <time>2025-04-30T12:56:53Z</time>
      </trkpt>
      <trkpt lat="45.70531" lon="4.69852">
        <ele>293.6</ele>
        <time>2025-04-30T12:56:54Z</time>
      </trkpt>
      <trkpt lat="45.70528" lon="4.6985">
        <ele>294.2</ele>
        <time>2025-04-30T12:56:55Z</time>
      </trkpt>
      <trkpt lat="45.70525" lon="4.69848">
        <ele>294.6</ele>
        <time>2025-04-30T12:56:56Z</time>
      </trkpt>
      <trkpt lat="45.70521" lon="4.69846">
        <ele>295</ele>
        <time>2025-04-30T12:56:57Z</time>
      </trkpt>
      <trkpt lat="45.70518" lon="4.69844">
        <ele>295.6</ele>
        <time>2025-04-30T12:56:58Z</time>
      </trkpt>
      <trkpt lat="45.70515" lon="4.69842">
        <ele>296</ele>
        <time>2025-04-30T12:56:59Z</time>
      </trkpt>
      <trkpt lat="45.70513" lon="4.6984">
        <ele>296.6</ele>
        <time>2025-04-30T12:57:00Z</time>
      </trkpt>
      <trkpt lat="45.70511" lon="4.69838">
        <ele>296.8</ele>
        <time>2025-04-30T12:57:01Z</time>
      </trkpt>
      <trkpt lat="45.70508" lon="4.69836">
        <ele>297.2</ele>
        <time>2025-04-30T12:57:02Z</time>
      </trkpt>
      <trkpt lat="45.70506" lon="4.69833">
        <ele>297.6</ele>
        <time>2025-04-30T12:57:03Z</time>
      </trkpt>
      <trkpt lat="45.70503" lon="4.6983">
        <ele>297.8</ele>
        <time>2025-04-30T12:57:04Z</time>
      </trkpt>
      <trkpt lat="45.70499" lon="4.69827">
        <ele>298.2</ele>
        <time>2025-04-30T12:57:05Z</time>
      </trkpt>
      <trkpt lat="45.70497" lon="4.69825">
        <ele>298.4</ele>
        <time>2025-04-30T12:57:06Z</time>
      </trkpt>
      <trkpt lat="45.70494" lon="4.69822">
        <ele>299</ele>
        <time>2025-04-30T12:57:07Z</time>
      </trkpt>
      <trkpt lat="45.70491" lon="4.6982">
        <ele>299.4</ele>
        <time>2025-04-30T12:57:08Z</time>
      </trkpt>
      <trkpt lat="45.70488" lon="4.69817">
        <ele>299.8</ele>
        <time>2025-04-30T12:57:09Z</time>
      </trkpt>
      <trkpt lat="45.70486" lon="4.69815">
        <ele>300</ele>
        <time>2025-04-30T12:57:10Z</time>
      </trkpt>
      <trkpt lat="45.70483" lon="4.69812">
        <ele>300.4</ele>
        <time>2025-04-30T12:57:11Z</time>
      </trkpt>
      <trkpt lat="45.70481" lon="4.6981">
        <ele>300.8</ele>
        <time>2025-04-30T12:57:12Z</time>
      </trkpt>
      <trkpt lat="45.70478" lon="4.69807">
        <ele>301.4</ele>
        <time>2025-04-30T12:57:13Z</time>
      </trkpt>
      <trkpt lat="45.70474" lon="4.69804">
        <ele>301.6</ele>
        <time>2025-04-30T12:57:14Z</time>
      </trkpt>
      <trkpt lat="45.70472" lon="4.69802">
        <ele>301.8</ele>
        <time>2025-04-30T12:57:15Z</time>
      </trkpt>
      <trkpt lat="45.7047" lon="4.698">
        <ele>302.2</ele>
        <time>2025-04-30T12:57:16Z</time>
      </trkpt>
      <trkpt lat="45.70467" lon="4.69797">
        <ele>302.6</ele>
        <time>2025-04-30T12:57:17Z</time>
      </trkpt>
      <trkpt lat="45.70465" lon="4.69795">
        <ele>303</ele>
        <time>2025-04-30T12:57:18Z</time>
      </trkpt>
      <trkpt lat="45.70463" lon="4.69792">
        <ele>303.4</ele>
        <time>2025-04-30T12:57:19Z</time>
      </trkpt>
      <trkpt lat="45.7046" lon="4.6979">
        <ele>303.8</ele>
        <time>2025-04-30T12:57:20Z</time>
      </trkpt>
      <trkpt lat="45.70458" lon="4.69787">
        <ele>304.4</ele>
        <time>2025-04-30T12:57:21Z</time>
      </trkpt>
      <trkpt lat="45.70456" lon="4.69784">
        <ele>304.8</ele>
        <time>2025-04-30T12:57:22Z</time>
      </trkpt>
      <trkpt lat="45.70454" lon="4.69781">
        <ele>305</ele>
        <time>2025-04-30T12:57:23Z</time>
      </trkpt>
      <trkpt lat="45.70451" lon="4.69779">
        <ele>305.6</ele>
        <time>2025-04-30T12:57:24Z</time>
      </trkpt>
      <trkpt lat="45.70449" lon="4.69777">
        <ele>305.8</ele>
        <time>2025-04-30T12:57:25Z</time>
      </trkpt>
      <trkpt lat="45.70446" lon="4.69774">
        <ele>306</ele>
        <time>2025-04-30T12:57:26Z</time>
      </trkpt>
      <trkpt lat="45.70444" lon="4.69771">
        <ele>306</ele>
        <time>2025-04-30T12:57:27Z</time>
      </trkpt>
      <trkpt lat="45.70441" lon="4.69768">
        <ele>306.2</ele>
        <time>2025-04-30T12:57:28Z</time>
      </trkpt>
      <trkpt lat="45.70439" lon="4.69765">
        <ele>306.2</ele>
        <time>2025-04-30T12:57:29Z</time>
      </trkpt>
      <trkpt lat="45.70437" lon="4.69762">
        <ele>306.4</ele>
        <time>2025-04-30T12:57:30Z</time>
      </trkpt>
      <trkpt lat="45.70434" lon="4.69759">
        <ele>306.4</ele>
        <time>2025-04-30T12:57:31Z</time>
      </trkpt>
      <trkpt lat="45.70431" lon="4.69756">
        <ele>306.6</ele>
        <time>2025-04-30T12:57:32Z</time>
      </trkpt>
      <trkpt lat="45.70429" lon="4.69753">
        <ele>306.8</ele>
        <time>2025-04-30T12:57:33Z</time>
      </trkpt>
      <trkpt lat="45.70427" lon="4.6975">
        <ele>307</ele>
        <time>2025-04-30T12:57:34Z</time>
      </trkpt>
      <trkpt lat="45.70425" lon="4.69746">
        <ele>307.4</ele>
        <time>2025-04-30T12:57:35Z</time>
      </trkpt>
      <trkpt lat="45.70423" lon="4.69743">
        <ele>307.4</ele>
        <time>2025-04-30T12:57:36Z</time>
      </trkpt>
      <trkpt lat="45.70421" lon="4.69739">
        <ele>307.6</ele>
        <time>2025-04-30T12:57:37Z</time>
      </trkpt>
      <trkpt lat="45.70418" lon="4.69736">
        <ele>307.8</ele>
        <time>2025-04-30T12:57:38Z</time>
      </trkpt>
      <trkpt lat="45.70415" lon="4.69733">
        <ele>308</ele>
        <time>2025-04-30T12:57:39Z</time>
      </trkpt>
      <trkpt lat="45.70412" lon="4.6973">
        <ele>308.2</ele>
        <time>2025-04-30T12:57:40Z</time>
      </trkpt>
      <trkpt lat="45.7041" lon="4.69726">
        <ele>308.4</ele>
        <time>2025-04-30T12:57:41Z</time>
      </trkpt>
      <trkpt lat="45.70406" lon="4.69723">
        <ele>308.6</ele>
        <time>2025-04-30T12:57:42Z</time>
      </trkpt>
      <trkpt lat="45.70403" lon="4.69719">
        <ele>308.6</ele>
        <time>2025-04-30T12:57:43Z</time>
      </trkpt>
      <trkpt lat="45.704" lon="4.69716">
        <ele>308.6</ele>
        <time>2025-04-30T12:57:44Z</time>
      </trkpt>
      <trkpt lat="45.70397" lon="4.69712">
        <ele>308.6</ele>
        <time>2025-04-30T12:57:45Z</time>
      </trkpt>
      <trkpt lat="45.70394" lon="4.69709">
        <ele>308.8</ele>
        <time>2025-04-30T12:57:46Z</time>
      </trkpt>
      <trkpt lat="45.70391" lon="4.69706">
        <ele>308.8</ele>
        <time>2025-04-30T12:57:47Z</time>
      </trkpt>
      <trkpt lat="45.70387" lon="4.69702">
        <ele>309</ele>
        <time>2025-04-30T12:57:48Z</time>
      </trkpt>
      <trkpt lat="45.70384" lon="4.69699">
        <ele>309</ele>
        <time>2025-04-30T12:57:49Z</time>
      </trkpt>
      <trkpt lat="45.70381" lon="4.69695">
        <ele>309.2</ele>
        <time>2025-04-30T12:57:50Z</time>
      </trkpt>
      <trkpt lat="45.70378" lon="4.69691">
        <ele>309.4</ele>
        <time>2025-04-30T12:57:51Z</time>
      </trkpt>
      <trkpt lat="45.70374" lon="4.69687">
        <ele>309.4</ele>
        <time>2025-04-30T12:57:52Z</time>
      </trkpt>
      <trkpt lat="45.70371" lon="4.69684">
        <ele>309.4</ele>
        <time>2025-04-30T12:57:53Z</time>
      </trkpt>
      <trkpt lat="45.70368" lon="4.6968">
        <ele>309.4</ele>
        <time>2025-04-30T12:57:54Z</time>
      </trkpt>
      <trkpt lat="45.70364" lon="4.69677">
        <ele>309.4</ele>
        <time>2025-04-30T12:57:55Z</time>
      </trkpt>
      <trkpt lat="45.70361" lon="4.69674">
        <ele>309.6</ele>
        <time>2025-04-30T12:57:56Z</time>
      </trkpt>
      <trkpt lat="45.70358" lon="4.6967">
        <ele>310</ele>
        <time>2025-04-30T12:57:57Z</time>
      </trkpt>
      <trkpt lat="45.70354" lon="4.69667">
        <ele>310</ele>
        <time>2025-04-30T12:57:58Z</time>
      </trkpt>
      <trkpt lat="45.70351" lon="4.69663">
        <ele>310</ele>
        <time>2025-04-30T12:57:59Z</time>
      </trkpt>
      <trkpt lat="45.70347" lon="4.69659">
        <ele>310</ele>
        <time>2025-04-30T12:58:00Z</time>
      </trkpt>
      <trkpt lat="45.70343" lon="4.69654">
        <ele>310</ele>
        <time>2025-04-30T12:58:01Z</time>
      </trkpt>
      <trkpt lat="45.7034" lon="4.69651">
        <ele>310.2</ele>
        <time>2025-04-30T12:58:02Z</time>
      </trkpt>
      <trkpt lat="45.70337" lon="4.69648">
        <ele>310.2</ele>
        <time>2025-04-30T12:58:03Z</time>
      </trkpt>
      <trkpt lat="45.70333" lon="4.69644">
        <ele>310.2</ele>
        <time>2025-04-30T12:58:04Z</time>
      </trkpt>
      <trkpt lat="45.7033" lon="4.6964">
        <ele>310.2</ele>
        <time>2025-04-30T12:58:05Z</time>
      </trkpt>
      <trkpt lat="45.70326" lon="4.69637">
        <ele>310.4</ele>
        <time>2025-04-30T12:58:06Z</time>
      </trkpt>
      <trkpt lat="45.70323" lon="4.69633">
        <ele>310.6</ele>
        <time>2025-04-30T12:58:07Z</time>
      </trkpt>
      <trkpt lat="45.70318" lon="4.69629">
        <ele>310.6</ele>
        <time>2025-04-30T12:58:08Z</time>
      </trkpt>
      <trkpt lat="45.70315" lon="4.69625">
        <ele>310.8</ele>
        <time>2025-04-30T12:58:09Z</time>
      </trkpt>
      <trkpt lat="45.70311" lon="4.69621">
        <ele>311</ele>
        <time>2025-04-30T12:58:10Z</time>
      </trkpt>
      <trkpt lat="45.70307" lon="4.69617">
        <ele>311</ele>
        <time>2025-04-30T12:58:11Z</time>
      </trkpt>
      <trkpt lat="45.70303" lon="4.69612">
        <ele>311</ele>
        <time>2025-04-30T12:58:12Z</time>
      </trkpt>
      <trkpt lat="45.70299" lon="4.69608">
        <ele>311.4</ele>
        <time>2025-04-30T12:58:13Z</time>
      </trkpt>
      <trkpt lat="45.70295" lon="4.69603">
        <ele>311.4</ele>
        <time>2025-04-30T12:58:14Z</time>
      </trkpt>
      <trkpt lat="45.70291" lon="4.69599">
        <ele>311.4</ele>
        <time>2025-04-30T12:58:15Z</time>
      </trkpt>
      <trkpt lat="45.70287" lon="4.69595">
        <ele>311.4</ele>
        <time>2025-04-30T12:58:16Z</time>
      </trkpt>
      <trkpt lat="45.70283" lon="4.6959">
        <ele>311.4</ele>
        <time>2025-04-30T12:58:17Z</time>
      </trkpt>
      <trkpt lat="45.70279" lon="4.69585">
        <ele>311.4</ele>
        <time>2025-04-30T12:58:18Z</time>
      </trkpt>
      <trkpt lat="45.70275" lon="4.69581">
        <ele>311.4</ele>
        <time>2025-04-30T12:58:19Z</time>
      </trkpt>
      <trkpt lat="45.70271" lon="4.69576">
        <ele>311.4</ele>
        <time>2025-04-30T12:58:20Z</time>
      </trkpt>
      <trkpt lat="45.70268" lon="4.69572">
        <ele>311.6</ele>
        <time>2025-04-30T12:58:21Z</time>
      </trkpt>
      <trkpt lat="45.70264" lon="4.69567">
        <ele>311.8</ele>
        <time>2025-04-30T12:58:22Z</time>
      </trkpt>
      <trkpt lat="45.7026" lon="4.69561">
        <ele>311.8</ele>
        <time>2025-04-30T12:58:23Z</time>
      </trkpt>
      <trkpt lat="45.70256" lon="4.69556">
        <ele>311.8</ele>
        <time>2025-04-30T12:58:24Z</time>
      </trkpt>
      <trkpt lat="45.70252" lon="4.69551">
        <ele>311.8</ele>
        <time>2025-04-30T12:58:25Z</time>
      </trkpt>
      <trkpt lat="45.70248" lon="4.69546">
        <ele>311.6</ele>
        <time>2025-04-30T12:58:26Z</time>
      </trkpt>
      <trkpt lat="45.70244" lon="4.6954">
        <ele>311.6</ele>
        <time>2025-04-30T12:58:27Z</time>
      </trkpt>
      <trkpt lat="45.7024" lon="4.69535">
        <ele>311.4</ele>
        <time>2025-04-30T12:58:28Z</time>
      </trkpt>
      <trkpt lat="45.70236" lon="4.69529">
        <ele>311</ele>
        <time>2025-04-30T12:58:29Z</time>
      </trkpt>
      <trkpt lat="45.70232" lon="4.69523">
        <ele>310.8</ele>
        <time>2025-04-30T12:58:30Z</time>
      </trkpt>
      <trkpt lat="45.70228" lon="4.69516">
        <ele>310.8</ele>
        <time>2025-04-30T12:58:31Z</time>
      </trkpt>
      <trkpt lat="45.70224" lon="4.6951">
        <ele>310.6</ele>
        <time>2025-04-30T12:58:32Z</time>
      </trkpt>
      <trkpt lat="45.7022" lon="4.69503">
        <ele>310.6</ele>
        <time>2025-04-30T12:58:33Z</time>
      </trkpt>
      <trkpt lat="45.70216" lon="4.69497">
        <ele>310.6</ele>
        <time>2025-04-30T12:58:34Z</time>
      </trkpt>
      <trkpt lat="45.70211" lon="4.69491">
        <ele>310.6</ele>
        <time>2025-04-30T12:58:35Z</time>
      </trkpt>
      <trkpt lat="45.70207" lon="4.69484">
        <ele>310.4</ele>
        <time>2025-04-30T12:58:36Z</time>
      </trkpt>
      <trkpt lat="45.70203" lon="4.69477">
        <ele>310.2</ele>
        <time>2025-04-30T12:58:37Z</time>
      </trkpt>
      <trkpt lat="45.70199" lon="4.69471">
        <ele>310.2</ele>
        <time>2025-04-30T12:58:38Z</time>
      </trkpt>
      <trkpt lat="45.70195" lon="4.69464">
        <ele>310</ele>
        <time>2025-04-30T12:58:39Z</time>
      </trkpt>
      <trkpt lat="45.70191" lon="4.69457">
        <ele>309.6</ele>
        <time>2025-04-30T12:58:40Z</time>
      </trkpt>
      <trkpt lat="45.70186" lon="4.6945">
        <ele>309.4</ele>
        <time>2025-04-30T12:58:41Z</time>
      </trkpt>
      <trkpt lat="45.70182" lon="4.69443">
        <ele>309.2</ele>
        <time>2025-04-30T12:58:42Z</time>
      </trkpt>
      <trkpt lat="45.70177" lon="4.69436">
        <ele>308.8</ele>
        <time>2025-04-30T12:58:43Z</time>
      </trkpt>
      <trkpt lat="45.70172" lon="4.69429">
        <ele>308.4</ele>
        <time>2025-04-30T12:58:44Z</time>
      </trkpt>
      <trkpt lat="45.70167" lon="4.69422">
        <ele>307.8</ele>
        <time>2025-04-30T12:58:45Z</time>
      </trkpt>
      <trkpt lat="45.70162" lon="4.69415">
        <ele>307.4</ele>
        <time>2025-04-30T12:58:46Z</time>
      </trkpt>
      <trkpt lat="45.70157" lon="4.69408">
        <ele>306.8</ele>
        <time>2025-04-30T12:58:47Z</time>
      </trkpt>
      <trkpt lat="45.70153" lon="4.69402">
        <ele>306.6</ele>
        <time>2025-04-30T12:58:48Z</time>
      </trkpt>
      <trkpt lat="45.70148" lon="4.69395">
        <ele>306.6</ele>
        <time>2025-04-30T12:58:49Z</time>
      </trkpt>
      <trkpt lat="45.70142" lon="4.69389">
        <ele>306.4</ele>
        <time>2025-04-30T12:58:50Z</time>
      </trkpt>
      <trkpt lat="45.70138" lon="4.69381">
        <ele>306.4</ele>
        <time>2025-04-30T12:58:51Z</time>
      </trkpt>
      <trkpt lat="45.70133" lon="4.69374">
        <ele>306.2</ele>
        <time>2025-04-30T12:58:52Z</time>
      </trkpt>
      <trkpt lat="45.70129" lon="4.69365">
        <ele>306.2</ele>
        <time>2025-04-30T12:58:53Z</time>
      </trkpt>
      <trkpt lat="45.70126" lon="4.69355">
        <ele>305.8</ele>
        <time>2025-04-30T12:58:54Z</time>
      </trkpt>
      <trkpt lat="45.70125" lon="4.69345">
        <ele>305.4</ele>
        <time>2025-04-30T12:58:55Z</time>
      </trkpt>
      <trkpt lat="45.70127" lon="4.69335">
        <ele>305.2</ele>
        <time>2025-04-30T12:58:56Z</time>
      </trkpt>
      <trkpt lat="45.70129" lon="4.69326">
        <ele>305</ele>
        <time>2025-04-30T12:58:57Z</time>
      </trkpt>
      <trkpt lat="45.70128" lon="4.69317">
        <ele>305</ele>
        <time>2025-04-30T12:58:58Z</time>
      </trkpt>
      <trkpt lat="45.70126" lon="4.69309">
        <ele>305</ele>
        <time>2025-04-30T12:58:59Z</time>
      </trkpt>
      <trkpt lat="45.70122" lon="4.69303">
        <ele>305</ele>
        <time>2025-04-30T12:59:00Z</time>
      </trkpt>
      <trkpt lat="45.70116" lon="4.693">
        <ele>305</ele>
        <time>2025-04-30T12:59:01Z</time>
      </trkpt>
      <trkpt lat="45.7011" lon="4.69298">
        <ele>305</ele>
        <time>2025-04-30T12:59:02Z</time>
      </trkpt>
      <trkpt lat="45.70104" lon="4.69296">
        <ele>305</ele>
        <time>2025-04-30T12:59:03Z</time>
      </trkpt>
      <trkpt lat="45.70098" lon="4.69292">
        <ele>304.8</ele>
        <time>2025-04-30T12:59:04Z</time>
      </trkpt>
      <trkpt lat="45.70093" lon="4.69286">
        <ele>304.4</ele>
        <time>2025-04-30T12:59:05Z</time>
      </trkpt>
      <trkpt lat="45.70087" lon="4.6928">
        <ele>304</ele>
        <time>2025-04-30T12:59:06Z</time>
      </trkpt>
      <trkpt lat="45.70082" lon="4.69273">
        <ele>303.8</ele>
        <time>2025-04-30T12:59:07Z</time>
      </trkpt>
      <trkpt lat="45.70077" lon="4.69267">
        <ele>303.6</ele>
        <time>2025-04-30T12:59:08Z</time>
      </trkpt>
      <trkpt lat="45.70072" lon="4.6926">
        <ele>303.6</ele>
        <time>2025-04-30T12:59:09Z</time>
      </trkpt>
      <trkpt lat="45.70068" lon="4.69253">
        <ele>303.6</ele>
        <time>2025-04-30T12:59:10Z</time>
      </trkpt>
      <trkpt lat="45.70063" lon="4.69246">
        <ele>303.6</ele>
        <time>2025-04-30T12:59:11Z</time>
      </trkpt>
      <trkpt lat="45.70059" lon="4.69239">
        <ele>303.8</ele>
        <time>2025-04-30T12:59:12Z</time>
      </trkpt>
      <trkpt lat="45.70055" lon="4.69231">
        <ele>304</ele>
        <time>2025-04-30T12:59:13Z</time>
      </trkpt>
      <trkpt lat="45.70052" lon="4.69224">
        <ele>304</ele>
        <time>2025-04-30T12:59:14Z</time>
      </trkpt>
      <trkpt lat="45.7005" lon="4.69215">
        <ele>304.2</ele>
        <time>2025-04-30T12:59:15Z</time>
      </trkpt>
      <trkpt lat="45.70048" lon="4.69207">
        <ele>304.2</ele>
        <time>2025-04-30T12:59:16Z</time>
      </trkpt>
      <trkpt lat="45.70046" lon="4.69198">
        <ele>304.4</ele>
        <time>2025-04-30T12:59:17Z</time>
      </trkpt>
      <trkpt lat="45.70043" lon="4.69191">
        <ele>304.6</ele>
        <time>2025-04-30T12:59:18Z</time>
      </trkpt>
      <trkpt lat="45.7004" lon="4.69183">
        <ele>304.8</ele>
        <time>2025-04-30T12:59:19Z</time>
      </trkpt>
      <trkpt lat="45.70037" lon="4.69176">
        <ele>305</ele>
        <time>2025-04-30T12:59:20Z</time>
      </trkpt>
      <trkpt lat="45.70034" lon="4.69169">
        <ele>305.2</ele>
        <time>2025-04-30T12:59:21Z</time>
      </trkpt>
      <trkpt lat="45.70031" lon="4.69162">
        <ele>305.4</ele>
        <time>2025-04-30T12:59:22Z</time>
      </trkpt>
      <trkpt lat="45.70027" lon="4.69154">
        <ele>305.4</ele>
        <time>2025-04-30T12:59:23Z</time>
      </trkpt>
      <trkpt lat="45.70024" lon="4.69147">
        <ele>305.6</ele>
        <time>2025-04-30T12:59:24Z</time>
      </trkpt>
      <trkpt lat="45.70021" lon="4.69139">
        <ele>305.6</ele>
        <time>2025-04-30T12:59:25Z</time>
      </trkpt>
      <trkpt lat="45.70019" lon="4.69131">
        <ele>305.6</ele>
        <time>2025-04-30T12:59:26Z</time>
      </trkpt>
      <trkpt lat="45.70016" lon="4.69123">
        <ele>305.8</ele>
        <time>2025-04-30T12:59:27Z</time>
      </trkpt>
      <trkpt lat="45.70014" lon="4.69115">
        <ele>306</ele>
        <time>2025-04-30T12:59:28Z</time>
      </trkpt>
      <trkpt lat="45.70012" lon="4.69107">
        <ele>306.2</ele>
        <time>2025-04-30T12:59:29Z</time>
      </trkpt>
      <trkpt lat="45.7001" lon="4.69099">
        <ele>306.4</ele>
        <time>2025-04-30T12:59:30Z</time>
      </trkpt>
      <trkpt lat="45.70008" lon="4.69092">
        <ele>306.4</ele>
        <time>2025-04-30T12:59:31Z</time>
      </trkpt>
      <trkpt lat="45.70006" lon="4.69084">
        <ele>306.6</ele>
        <time>2025-04-30T12:59:32Z</time>
      </trkpt>
      <trkpt lat="45.70005" lon="4.69076">
        <ele>306.8</ele>
        <time>2025-04-30T12:59:33Z</time>
      </trkpt>
      <trkpt lat="45.70003" lon="4.69068">
        <ele>306.8</ele>
        <time>2025-04-30T12:59:34Z</time>
      </trkpt>
      <trkpt lat="45.70001" lon="4.6906">
        <ele>307</ele>
        <time>2025-04-30T12:59:35Z</time>
      </trkpt>
      <trkpt lat="45.69999" lon="4.69052">
        <ele>307</ele>
        <time>2025-04-30T12:59:36Z</time>
      </trkpt>
      <trkpt lat="45.69997" lon="4.69045">
        <ele>307.2</ele>
        <time>2025-04-30T12:59:37Z</time>
      </trkpt>
      <trkpt lat="45.69995" lon="4.69037">
        <ele>307.4</ele>
        <time>2025-04-30T12:59:38Z</time>
      </trkpt>
      <trkpt lat="45.69993" lon="4.69029">
        <ele>307.6</ele>
        <time>2025-04-30T12:59:39Z</time>
      </trkpt>
      <trkpt lat="45.69991" lon="4.69022">
        <ele>308</ele>
        <time>2025-04-30T12:59:40Z</time>
      </trkpt>
      <trkpt lat="45.69988" lon="4.69014">
        <ele>308</ele>
        <time>2025-04-30T12:59:41Z</time>
      </trkpt>
      <trkpt lat="45.69986" lon="4.69006">
        <ele>308.4</ele>
        <time>2025-04-30T12:59:42Z</time>
      </trkpt>
      <trkpt lat="45.69984" lon="4.68998">
        <ele>308.4</ele>
        <time>2025-04-30T12:59:43Z</time>
      </trkpt>
      <trkpt lat="45.69982" lon="4.68991">
        <ele>308.6</ele>
        <time>2025-04-30T12:59:44Z</time>
      </trkpt>
      <trkpt lat="45.6998" lon="4.68983">
        <ele>308.6</ele>
        <time>2025-04-30T12:59:45Z</time>
      </trkpt>
      <trkpt lat="45.69978" lon="4.68975">
        <ele>308.6</ele>
        <time>2025-04-30T12:59:46Z</time>
      </trkpt>
      <trkpt lat="45.69976" lon="4.68968">
        <ele>308.8</ele>
        <time>2025-04-30T12:59:47Z</time>
      </trkpt>
      <trkpt lat="45.69974" lon="4.6896">
        <ele>309</ele>
        <time>2025-04-30T12:59:48Z</time>
      </trkpt>
      <trkpt lat="45.69972" lon="4.68953">
        <ele>309.2</ele>
        <time>2025-04-30T12:59:49Z</time>
      </trkpt>
      <trkpt lat="45.6997" lon="4.68945">
        <ele>309.4</ele>
        <time>2025-04-30T12:59:50Z</time>
      </trkpt>
      <trkpt lat="45.69967" lon="4.68938">
        <ele>309.8</ele>
        <time>2025-04-30T12:59:51Z</time>
      </trkpt>
      <trkpt lat="45.69964" lon="4.68931">
        <ele>310</ele>
        <time>2025-04-30T12:59:52Z</time>
      </trkpt>
      <trkpt lat="45.69961" lon="4.68925">
        <ele>310</ele>
        <time>2025-04-30T12:59:53Z</time>
      </trkpt>
      <trkpt lat="45.69958" lon="4.68918">
        <ele>310</ele>
        <time>2025-04-30T12:59:54Z</time>
      </trkpt>
      <trkpt lat="45.69955" lon="4.68911">
        <ele>310.2</ele>
        <time>2025-04-30T12:59:55Z</time>
      </trkpt>
      <trkpt lat="45.69952" lon="4.68904">
        <ele>310.2</ele>
        <time>2025-04-30T12:59:56Z</time>
      </trkpt>
      <trkpt lat="45.69949" lon="4.68898">
        <ele>310.4</ele>
        <time>2025-04-30T12:59:57Z</time>
      </trkpt>
      <trkpt lat="45.69946" lon="4.68891">
        <ele>310.6</ele>
        <time>2025-04-30T12:59:58Z</time>
      </trkpt>
      <trkpt lat="45.69943" lon="4.68885">
        <ele>310.6</ele>
        <time>2025-04-30T12:59:59Z</time>
      </trkpt>
      <trkpt lat="45.69941" lon="4.68879">
        <ele>311</ele>
        <time>2025-04-30T13:00:00Z</time>
      </trkpt>
      <trkpt lat="45.69939" lon="4.68873">
        <ele>311</ele>
        <time>2025-04-30T13:00:01Z</time>
      </trkpt>
      <trkpt lat="45.69936" lon="4.68867">
        <ele>311.2</ele>
        <time>2025-04-30T13:00:02Z</time>
      </trkpt>
      <trkpt lat="45.69934" lon="4.68862">
        <ele>311.4</ele>
        <time>2025-04-30T13:00:03Z</time>
      </trkpt>
      <trkpt lat="45.69931" lon="4.68856">
        <ele>311.8</ele>
        <time>2025-04-30T13:00:04Z</time>
      </trkpt>
      <trkpt lat="45.69928" lon="4.68852">
        <ele>312.2</ele>
        <time>2025-04-30T13:00:05Z</time>
      </trkpt>
      <trkpt lat="45.69925" lon="4.68848">
        <ele>312.4</ele>
        <time>2025-04-30T13:00:06Z</time>
      </trkpt>
      <trkpt lat="45.69922" lon="4.68844">
        <ele>312.8</ele>
        <time>2025-04-30T13:00:07Z</time>
      </trkpt>
      <trkpt lat="45.69919" lon="4.6884">
        <ele>313</ele>
        <time>2025-04-30T13:00:08Z</time>
      </trkpt>
      <trkpt lat="45.69916" lon="4.68836">
        <ele>313.4</ele>
        <time>2025-04-30T13:00:09Z</time>
      </trkpt>
      <trkpt lat="45.69913" lon="4.68833">
        <ele>313.6</ele>
        <time>2025-04-30T13:00:10Z</time>
      </trkpt>
      <trkpt lat="45.6991" lon="4.6883">
        <ele>314</ele>
        <time>2025-04-30T13:00:11Z</time>
      </trkpt>
      <trkpt lat="45.69908" lon="4.68827">
        <ele>314.4</ele>
        <time>2025-04-30T13:00:12Z</time>
      </trkpt>
      <trkpt lat="45.69908" lon="4.68822">
        <ele>314.8</ele>
        <time>2025-04-30T13:00:13Z</time>
      </trkpt>
      <trkpt lat="45.69908" lon="4.68817">
        <ele>314.8</ele>
        <time>2025-04-30T13:00:14Z</time>
      </trkpt>
      <trkpt lat="45.69908" lon="4.68812">
        <ele>315</ele>
        <time>2025-04-30T13:00:15Z</time>
      </trkpt>
      <trkpt lat="45.69909" lon="4.68806">
        <ele>315.6</ele>
        <time>2025-04-30T13:00:16Z</time>
      </trkpt>
      <trkpt lat="45.69909" lon="4.68801">
        <ele>315.8</ele>
        <time>2025-04-30T13:00:17Z</time>
      </trkpt>
      <trkpt lat="45.69909" lon="4.68796">
        <ele>316</ele>
        <time>2025-04-30T13:00:18Z</time>
      </trkpt>
      <trkpt lat="45.6991" lon="4.6879">
        <ele>316.2</ele>
        <time>2025-04-30T13:00:19Z</time>
      </trkpt>
      <trkpt lat="45.6991" lon="4.68784">
        <ele>316.2</ele>
        <time>2025-04-30T13:00:20Z</time>
      </trkpt>
      <trkpt lat="45.69911" lon="4.68779">
        <ele>316.4</ele>
        <time>2025-04-30T13:00:21Z</time>
      </trkpt>
      <trkpt lat="45.69911" lon="4.68773">
        <ele>316.4</ele>
        <time>2025-04-30T13:00:22Z</time>
      </trkpt>
      <trkpt lat="45.69912" lon="4.68767">
        <ele>317</ele>
        <time>2025-04-30T13:00:23Z</time>
      </trkpt>
      <trkpt lat="45.69912" lon="4.68761">
        <ele>317.2</ele>
        <time>2025-04-30T13:00:24Z</time>
      </trkpt>
      <trkpt lat="45.69913" lon="4.68756">
        <ele>317.2</ele>
        <time>2025-04-30T13:00:25Z</time>
      </trkpt>
      <trkpt lat="45.69915" lon="4.68752">
        <ele>317.6</ele>
        <time>2025-04-30T13:00:26Z</time>
      </trkpt>
      <trkpt lat="45.69916" lon="4.68747">
        <ele>318</ele>
        <time>2025-04-30T13:00:27Z</time>
      </trkpt>
      <trkpt lat="45.69919" lon="4.68743">
        <ele>318.2</ele>
        <time>2025-04-30T13:00:28Z</time>
      </trkpt>
      <trkpt lat="45.69921" lon="4.68739">
        <ele>318.4</ele>
        <time>2025-04-30T13:00:29Z</time>
      </trkpt>
      <trkpt lat="45.69923" lon="4.68735">
        <ele>318.6</ele>
        <time>2025-04-30T13:00:30Z</time>
      </trkpt>
      <trkpt lat="45.69925" lon="4.6873">
        <ele>318.6</ele>
        <time>2025-04-30T13:00:31Z</time>
      </trkpt>
      <trkpt lat="45.69927" lon="4.68725">
        <ele>318.6</ele>
        <time>2025-04-30T13:00:32Z</time>
      </trkpt>
      <trkpt lat="45.69929" lon="4.6872">
        <ele>318.6</ele>
        <time>2025-04-30T13:00:33Z</time>
      </trkpt>
      <trkpt lat="45.6993" lon="4.68715">
        <ele>318.8</ele>
        <time>2025-04-30T13:00:34Z</time>
      </trkpt>
      <trkpt lat="45.69932" lon="4.6871">
        <ele>318.8</ele>
        <time>2025-04-30T13:00:35Z</time>
      </trkpt>
      <trkpt lat="45.69935" lon="4.68706">
        <ele>318.8</ele>
        <time>2025-04-30T13:00:36Z</time>
      </trkpt>
      <trkpt lat="45.69938" lon="4.68701">
        <ele>318.8</ele>
        <time>2025-04-30T13:00:37Z</time>
      </trkpt>
      <trkpt lat="45.69941" lon="4.68698">
        <ele>319</ele>
        <time>2025-04-30T13:00:38Z</time>
      </trkpt>
      <trkpt lat="45.69944" lon="4.68695">
        <ele>319</ele>
        <time>2025-04-30T13:00:39Z</time>
      </trkpt>
      <trkpt lat="45.69948" lon="4.68693">
        <ele>319.2</ele>
        <time>2025-04-30T13:00:40Z</time>
      </trkpt>
      <trkpt lat="45.69951" lon="4.68689">
        <ele>319.2</ele>
        <time>2025-04-30T13:00:41Z</time>
      </trkpt>
      <trkpt lat="45.69953" lon="4.68685">
        <ele>319.4</ele>
        <time>2025-04-30T13:00:42Z</time>
      </trkpt>
      <trkpt lat="45.69955" lon="4.68679">
        <ele>319.4</ele>
        <time>2025-04-30T13:00:43Z</time>
      </trkpt>
      <trkpt lat="45.69956" lon="4.68674">
        <ele>319.6</ele>
        <time>2025-04-30T13:00:44Z</time>
      </trkpt>
      <trkpt lat="45.69957" lon="4.68668">
        <ele>319.8</ele>
        <time>2025-04-30T13:00:45Z</time>
      </trkpt>
      <trkpt lat="45.69958" lon="4.68663">
        <ele>320</ele>
        <time>2025-04-30T13:00:46Z</time>
      </trkpt>
      <trkpt lat="45.69959" lon="4.68657">
        <ele>320</ele>
        <time>2025-04-30T13:00:47Z</time>
      </trkpt>
      <trkpt lat="45.6996" lon="4.68651">
        <ele>320.2</ele>
        <time>2025-04-30T13:00:48Z</time>
      </trkpt>
      <trkpt lat="45.69961" lon="4.68645">
        <ele>320.4</ele>
        <time>2025-04-30T13:00:49Z</time>
      </trkpt>
      <trkpt lat="45.69962" lon="4.68639">
        <ele>320.4</ele>
        <time>2025-04-30T13:00:50Z</time>
      </trkpt>
      <trkpt lat="45.69963" lon="4.68632">
        <ele>320.4</ele>
        <time>2025-04-30T13:00:51Z</time>
      </trkpt>
      <trkpt lat="45.69965" lon="4.68626">
        <ele>320.4</ele>
        <time>2025-04-30T13:00:52Z</time>
      </trkpt>
      <trkpt lat="45.69966" lon="4.68621">
        <ele>320.4</ele>
        <time>2025-04-30T13:00:53Z</time>
      </trkpt>
      <trkpt lat="45.69966" lon="4.68615">
        <ele>320.4</ele>
        <time>2025-04-30T13:00:54Z</time>
      </trkpt>
      <trkpt lat="45.69968" lon="4.6861">
        <ele>320.4</ele>
        <time>2025-04-30T13:00:55Z</time>
      </trkpt>
      <trkpt lat="45.69969" lon="4.68606">
        <ele>320.4</ele>
        <time>2025-04-30T13:00:56Z</time>
      </trkpt>
      <trkpt lat="45.69969" lon="4.68602">
        <ele>320.6</ele>
        <time>2025-04-30T13:00:57Z</time>
      </trkpt>
      <trkpt lat="45.6997" lon="4.68598">
        <ele>320.8</ele>
        <time>2025-04-30T13:00:58Z</time>
      </trkpt>
      <trkpt lat="45.69971" lon="4.68593">
        <ele>321.2</ele>
        <time>2025-04-30T13:00:59Z</time>
      </trkpt>
      <trkpt lat="45.69971" lon="4.68588">
        <ele>321.4</ele>
        <time>2025-04-30T13:01:00Z</time>
      </trkpt>
      <trkpt lat="45.69972" lon="4.68584">
        <ele>321.6</ele>
        <time>2025-04-30T13:01:01Z</time>
      </trkpt>
      <trkpt lat="45.69973" lon="4.6858">
        <ele>321.6</ele>
        <time>2025-04-30T13:01:02Z</time>
      </trkpt>
      <trkpt lat="45.69973" lon="4.68577">
        <ele>321.6</ele>
        <time>2025-04-30T13:01:03Z</time>
      </trkpt>
      <trkpt lat="45.69973" lon="4.68576">
        <ele>321.8</ele>
        <time>2025-04-30T13:01:04Z</time>
      </trkpt>
      <trkpt lat="45.69973" lon="4.68576">
        <ele>321.8</ele>
        <time>2025-04-30T13:01:05Z</time>
      </trkpt>
      <trkpt lat="45.69973" lon="4.68576">
        <ele>322.2</ele>
        <time>2025-04-30T13:01:06Z</time>
      </trkpt>
      <trkpt lat="45.69973" lon="4.68576">
        <ele>322.6</ele>
        <time>2025-04-30T13:01:07Z</time>
      </trkpt>
      <trkpt lat="45.69973" lon="4.68576">
        <ele>322.6</ele>
        <time>2025-04-30T13:01:08Z</time>
      </trkpt>
      <trkpt lat="45.69973" lon="4.68576">
        <ele>322.6</ele>
        <time>2025-04-30T13:01:09Z</time>
      </trkpt>
      <trkpt lat="45.69973" lon="4.68576">
        <ele>322.6</ele>
        <time>2025-04-30T13:01:10Z</time>
      </trkpt>
      <trkpt lat="45.69973" lon="4.68576">
        <ele>322.6</ele>
        <time>2025-04-30T13:01:11Z</time>
      </trkpt>
      <trkpt lat="45.69973" lon="4.68576">
        <ele>322.8</ele>
        <time>2025-04-30T13:01:12Z</time>
      </trkpt>
      <trkpt lat="45.69973" lon="4.68576">
        <ele>322.8</ele>
        <time>2025-04-30T13:01:13Z</time>
      </trkpt>
      <trkpt lat="45.69973" lon="4.68576">
        <ele>322.8</ele>
        <time>2025-04-30T13:01:14Z</time>
      </trkpt>
      <trkpt lat="45.69973" lon="4.68576">
        <ele>322.8</ele>
        <time>2025-04-30T13:01:15Z</time>
      </trkpt>
      <trkpt lat="45.69973" lon="4.68576">
        <ele>322.8</ele>
        <time>2025-04-30T13:01:16Z</time>
      </trkpt>
      <trkpt lat="45.69973" lon="4.68576">
        <ele>322.8</ele>
        <time>2025-04-30T13:01:17Z</time>
      </trkpt>
      <trkpt lat="45.69973" lon="4.68576">
        <ele>322.8</ele>
        <time>2025-04-30T13:01:18Z</time>
      </trkpt>
      <trkpt lat="45.69973" lon="4.68576">
        <ele>322.8</ele>
        <time>2025-04-30T13:01:19Z</time>
      </trkpt>
      <trkpt lat="45.69973" lon="4.68576">
        <ele>322.8</ele>
        <time>2025-04-30T13:01:20Z</time>
      </trkpt>
      <trkpt lat="45.69973" lon="4.68576">
        <ele>322.8</ele>
        <time>2025-04-30T13:01:21Z</time>
      </trkpt>
      <trkpt lat="45.69973" lon="4.68576">
        <ele>322.8</ele>
        <time>2025-04-30T13:01:22Z</time>
      </trkpt>
      <trkpt lat="45.69973" lon="4.68576">
        <ele>323</ele>
        <time>2025-04-30T13:01:23Z</time>
      </trkpt>
      <trkpt lat="45.69973" lon="4.68576">
        <ele>323</ele>
        <time>2025-04-30T13:01:24Z</time>
      </trkpt>
      <trkpt lat="45.69973" lon="4.68576">
        <ele>323</ele>
        <time>2025-04-30T13:01:25Z</time>
      </trkpt>
      <trkpt lat="45.69973" lon="4.68576">
        <ele>323</ele>
        <time>2025-04-30T13:01:26Z</time>
      </trkpt>
      <trkpt lat="45.69973" lon="4.68576">
        <ele>323</ele>
        <time>2025-04-30T13:01:27Z</time>
      </trkpt>
      <trkpt lat="45.69973" lon="4.68576">
        <ele>322.8</ele>
        <time>2025-04-30T13:01:28Z</time>
      </trkpt>
      <trkpt lat="45.69973" lon="4.68576">
        <ele>322.8</ele>
        <time>2025-04-30T13:01:29Z</time>
      </trkpt>
      <trkpt lat="45.69973" lon="4.68576">
        <ele>322.8</ele>
        <time>2025-04-30T13:01:30Z</time>
      </trkpt>
      <trkpt lat="45.69973" lon="4.68576">
        <ele>322.8</ele>
        <time>2025-04-30T13:01:31Z</time>
      </trkpt>
      <trkpt lat="45.69973" lon="4.68576">
        <ele>322.8</ele>
        <time>2025-04-30T13:01:32Z</time>
      </trkpt>
      <trkpt lat="45.69973" lon="4.68576">
        <ele>322.8</ele>
        <time>2025-04-30T13:01:33Z</time>
      </trkpt>
      <trkpt lat="45.69973" lon="4.68576">
        <ele>322.8</ele>
        <time>2025-04-30T13:01:34Z</time>
      </trkpt>
      <trkpt lat="45.69973" lon="4.68576">
        <ele>322.8</ele>
        <time>2025-04-30T13:01:35Z</time>
      </trkpt>
      <trkpt lat="45.69973" lon="4.68576">
        <ele>322.8</ele>
        <time>2025-04-30T13:01:36Z</time>
      </trkpt>
      <trkpt lat="45.69973" lon="4.68576">
        <ele>322.8</ele>
        <time>2025-04-30T13:01:37Z</time>
      </trkpt>
      <trkpt lat="45.69973" lon="4.68576">
        <ele>322.8</ele>
        <time>2025-04-30T13:01:38Z</time>
      </trkpt>
      <trkpt lat="45.69973" lon="4.68576">
        <ele>322.8</ele>
        <time>2025-04-30T13:01:39Z</time>
      </trkpt>
      <trkpt lat="45.69973" lon="4.68576">
        <ele>322.8</ele>
        <time>2025-04-30T13:01:40Z</time>
      </trkpt>
      <trkpt lat="45.69973" lon="4.68576">
        <ele>322.8</ele>
        <time>2025-04-30T13:01:41Z</time>
      </trkpt>
      <trkpt lat="45.69973" lon="4.68576">
        <ele>322.8</ele>
        <time>2025-04-30T13:01:42Z</time>
      </trkpt>
      <trkpt lat="45.69973" lon="4.68576">
        <ele>322.8</ele>
        <time>2025-04-30T13:01:43Z</time>
      </trkpt>
      <trkpt lat="45.69973" lon="4.68576">
        <ele>322.6</ele>
        <time>2025-04-30T13:01:44Z</time>
      </trkpt>
      <trkpt lat="45.69973" lon="4.68576">
        <ele>322.6</ele>
        <time>2025-04-30T13:01:45Z</time>
      </trkpt>
      <trkpt lat="45.69973" lon="4.68576">
        <ele>322.6</ele>
        <time>2025-04-30T13:01:46Z</time>
      </trkpt>
      <trkpt lat="45.69973" lon="4.68576">
        <ele>322.6</ele>
        <time>2025-04-30T13:01:47Z</time>
      </trkpt>
      <trkpt lat="45.69973" lon="4.68576">
        <ele>322.8</ele>
        <time>2025-04-30T13:01:48Z</time>
      </trkpt>
      <trkpt lat="45.69973" lon="4.68576">
        <ele>322.8</ele>
        <time>2025-04-30T13:01:49Z</time>
      </trkpt>
      <trkpt lat="45.69973" lon="4.68576">
        <ele>322.8</ele>
        <time>2025-04-30T13:01:50Z</time>
      </trkpt>
      <trkpt lat="45.69973" lon="4.68576">
        <ele>322.8</ele>
        <time>2025-04-30T13:01:51Z</time>
      </trkpt>
      <trkpt lat="45.69973" lon="4.68576">
        <ele>322.8</ele>
        <time>2025-04-30T13:01:52Z</time>
      </trkpt>
      <trkpt lat="45.69973" lon="4.68576">
        <ele>322.6</ele>
        <time>2025-04-30T13:01:53Z</time>
      </trkpt>
      <trkpt lat="45.69973" lon="4.68576">
        <ele>322.6</ele>
        <time>2025-04-30T13:01:54Z</time>
      </trkpt>
      <trkpt lat="45.69973" lon="4.68576">
        <ele>322.6</ele>
        <time>2025-04-30T13:01:55Z</time>
      </trkpt>
      <trkpt lat="45.69973" lon="4.68576">
        <ele>322.6</ele>
        <time>2025-04-30T13:01:56Z</time>
      </trkpt>
      <trkpt lat="45.69973" lon="4.68576">
        <ele>322.6</ele>
        <time>2025-04-30T13:01:57Z</time>
      </trkpt>
      <trkpt lat="45.69973" lon="4.68576">
        <ele>322.6</ele>
        <time>2025-04-30T13:01:58Z</time>
      </trkpt>
      <trkpt lat="45.69973" lon="4.68576">
        <ele>322.4</ele>
        <time>2025-04-30T13:01:59Z</time>
      </trkpt>
      <trkpt lat="45.69973" lon="4.68576">
        <ele>322.4</ele>
        <time>2025-04-30T13:02:00Z</time>
      </trkpt>
      <trkpt lat="45.69973" lon="4.68576">
        <ele>322.4</ele>
        <time>2025-04-30T13:02:01Z</time>
      </trkpt>
      <trkpt lat="45.69973" lon="4.68576">
        <ele>322.4</ele>
        <time>2025-04-30T13:02:02Z</time>
      </trkpt>
      <trkpt lat="45.69973" lon="4.68576">
        <ele>322.4</ele>
        <time>2025-04-30T13:02:03Z</time>
      </trkpt>
      <trkpt lat="45.69973" lon="4.68576">
        <ele>322.4</ele>
        <time>2025-04-30T13:02:04Z</time>
      </trkpt>
      <trkpt lat="45.69973" lon="4.68576">
        <ele>322.4</ele>
        <time>2025-04-30T13:02:05Z</time>
      </trkpt>
      <trkpt lat="45.69973" lon="4.68576">
        <ele>322.4</ele>
        <time>2025-04-30T13:02:06Z</time>
      </trkpt>
      <trkpt lat="45.69973" lon="4.68576">
        <ele>322.4</ele>
        <time>2025-04-30T13:02:07Z</time>
      </trkpt>
      <trkpt lat="45.69973" lon="4.68576">
        <ele>322.4</ele>
        <time>2025-04-30T13:02:08Z</time>
      </trkpt>
      <trkpt lat="45.69973" lon="4.68576">
        <ele>322.4</ele>
        <time>2025-04-30T13:02:09Z</time>
      </trkpt>
      <trkpt lat="45.69973" lon="4.68576">
        <ele>322.4</ele>
        <time>2025-04-30T13:02:10Z</time>
      </trkpt>
      <trkpt lat="45.69973" lon="4.68576">
        <ele>322.4</ele>
        <time>2025-04-30T13:02:11Z</time>
      </trkpt>
      <trkpt lat="45.69973" lon="4.68576">
        <ele>322.4</ele>
        <time>2025-04-30T13:02:12Z</time>
      </trkpt>
      <trkpt lat="45.69973" lon="4.68576">
        <ele>322.4</ele>
        <time>2025-04-30T13:02:13Z</time>
      </trkpt>
      <trkpt lat="45.69973" lon="4.68576">
        <ele>322.4</ele>
        <time>2025-04-30T13:02:14Z</time>
      </trkpt>
      <trkpt lat="45.69973" lon="4.68576">
        <ele>322.4</ele>
        <time>2025-04-30T13:02:15Z</time>
      </trkpt>
      <trkpt lat="45.69973" lon="4.68576">
        <ele>322.4</ele>
        <time>2025-04-30T13:02:16Z</time>
      </trkpt>
      <trkpt lat="45.69973" lon="4.68576">
        <ele>322.4</ele>
        <time>2025-04-30T13:02:17Z</time>
      </trkpt>
      <trkpt lat="45.69973" lon="4.68576">
        <ele>322.4</ele>
        <time>2025-04-30T13:02:18Z</time>
      </trkpt>
      <trkpt lat="45.69973" lon="4.68576">
        <ele>322.4</ele>
        <time>2025-04-30T13:02:19Z</time>
      </trkpt>
      <trkpt lat="45.69973" lon="4.68576">
        <ele>322.4</ele>
        <time>2025-04-30T13:02:20Z</time>
      </trkpt>
      <trkpt lat="45.69973" lon="4.68576">
        <ele>322.4</ele>
        <time>2025-04-30T13:02:21Z</time>
      </trkpt>
      <trkpt lat="45.69973" lon="4.68576">
        <ele>322.4</ele>
        <time>2025-04-30T13:02:22Z</time>
      </trkpt>
      <trkpt lat="45.69973" lon="4.68576">
        <ele>322.4</ele>
        <time>2025-04-30T13:02:23Z</time>
      </trkpt>
      <trkpt lat="45.69973" lon="4.68575">
        <ele>322.4</ele>
        <time>2025-04-30T13:02:24Z</time>
      </trkpt>
      <trkpt lat="45.69973" lon="4.68575">
        <ele>322.4</ele>
        <time>2025-04-30T13:02:25Z</time>
      </trkpt>
      <trkpt lat="45.69973" lon="4.68575">
        <ele>322.4</ele>
        <time>2025-04-30T13:02:26Z</time>
      </trkpt>
      <trkpt lat="45.69973" lon="4.68575">
        <ele>322.4</ele>
        <time>2025-04-30T13:02:27Z</time>
      </trkpt>
      <trkpt lat="45.69973" lon="4.68575">
        <ele>322.4</ele>
        <time>2025-04-30T13:02:28Z</time>
      </trkpt>
      <trkpt lat="45.69973" lon="4.68575">
        <ele>322.4</ele>
        <time>2025-04-30T13:02:29Z</time>
      </trkpt>
      <trkpt lat="45.69973" lon="4.68575">
        <ele>322.4</ele>
        <time>2025-04-30T13:02:30Z</time>
      </trkpt>
      <trkpt lat="45.69973" lon="4.68575">
        <ele>322.4</ele>
        <time>2025-04-30T13:02:31Z</time>
      </trkpt>
      <trkpt lat="45.69973" lon="4.68575">
        <ele>322.4</ele>
        <time>2025-04-30T13:02:32Z</time>
      </trkpt>
      <trkpt lat="45.69974" lon="4.68575">
        <ele>322.4</ele>
        <time>2025-04-30T13:02:33Z</time>
      </trkpt>
      <trkpt lat="45.69975" lon="4.68573">
        <ele>322.4</ele>
        <time>2025-04-30T13:02:34Z</time>
      </trkpt>
      <trkpt lat="45.69975" lon="4.68571">
        <ele>322.4</ele>
        <time>2025-04-30T13:02:35Z</time>
      </trkpt>
      <trkpt lat="45.69975" lon="4.68567">
        <ele>322.4</ele>
        <time>2025-04-30T13:02:36Z</time>
      </trkpt>
      <trkpt lat="45.69976" lon="4.68562">
        <ele>322.8</ele>
        <time>2025-04-30T13:02:37Z</time>
      </trkpt>
      <trkpt lat="45.69976" lon="4.68556">
        <ele>322.8</ele>
        <time>2025-04-30T13:02:38Z</time>
      </trkpt>
      <trkpt lat="45.69977" lon="4.68551">
        <ele>322.6</ele>
        <time>2025-04-30T13:02:39Z</time>
      </trkpt>
      <trkpt lat="45.69978" lon="4.68546">
        <ele>322.6</ele>
        <time>2025-04-30T13:02:40Z</time>
      </trkpt>
      <trkpt lat="45.6998" lon="4.6854">
        <ele>322.4</ele>
        <time>2025-04-30T13:02:41Z</time>
      </trkpt>
      <trkpt lat="45.69981" lon="4.68534">
        <ele>322.4</ele>
        <time>2025-04-30T13:02:42Z</time>
      </trkpt>
      <trkpt lat="45.69981" lon="4.68527">
        <ele>322.4</ele>
        <time>2025-04-30T13:02:43Z</time>
      </trkpt>
      <trkpt lat="45.69982" lon="4.68521">
        <ele>322.4</ele>
        <time>2025-04-30T13:02:44Z</time>
      </trkpt>
      <trkpt lat="45.69983" lon="4.68515">
        <ele>322.4</ele>
        <time>2025-04-30T13:02:45Z</time>
      </trkpt>
      <trkpt lat="45.69984" lon="4.68508">
        <ele>322.4</ele>
        <time>2025-04-30T13:02:46Z</time>
      </trkpt>
      <trkpt lat="45.69985" lon="4.68502">
        <ele>322.4</ele>
        <time>2025-04-30T13:02:47Z</time>
      </trkpt>
      <trkpt lat="45.69986" lon="4.68496">
        <ele>322.6</ele>
        <time>2025-04-30T13:02:48Z</time>
      </trkpt>
      <trkpt lat="45.69988" lon="4.68489">
        <ele>322.6</ele>
        <time>2025-04-30T13:02:49Z</time>
      </trkpt>
      <trkpt lat="45.69989" lon="4.68483">
        <ele>322.8</ele>
        <time>2025-04-30T13:02:50Z</time>
      </trkpt>
      <trkpt lat="45.69991" lon="4.68477">
        <ele>323</ele>
        <time>2025-04-30T13:02:51Z</time>
      </trkpt>
      <trkpt lat="45.69992" lon="4.68471">
        <ele>323.2</ele>
        <time>2025-04-30T13:02:52Z</time>
      </trkpt>
      <trkpt lat="45.69993" lon="4.68465">
        <ele>323.4</ele>
        <time>2025-04-30T13:02:53Z</time>
      </trkpt>
      <trkpt lat="45.69994" lon="4.68458">
        <ele>323.6</ele>
        <time>2025-04-30T13:02:54Z</time>
      </trkpt>
      <trkpt lat="45.69994" lon="4.68452">
        <ele>323.8</ele>
        <time>2025-04-30T13:02:55Z</time>
      </trkpt>
      <trkpt lat="45.69995" lon="4.68446">
        <ele>324</ele>
        <time>2025-04-30T13:02:56Z</time>
      </trkpt>
      <trkpt lat="45.69995" lon="4.6844">
        <ele>324.2</ele>
        <time>2025-04-30T13:02:57Z</time>
      </trkpt>
      <trkpt lat="45.69995" lon="4.68434">
        <ele>324.4</ele>
        <time>2025-04-30T13:02:58Z</time>
      </trkpt>
      <trkpt lat="45.69994" lon="4.68428">
        <ele>324.8</ele>
        <time>2025-04-30T13:02:59Z</time>
      </trkpt>
      <trkpt lat="45.69994" lon="4.68422">
        <ele>325</ele>
        <time>2025-04-30T13:03:00Z</time>
      </trkpt>
      <trkpt lat="45.69993" lon="4.68417">
        <ele>325.2</ele>
        <time>2025-04-30T13:03:01Z</time>
      </trkpt>
      <trkpt lat="45.69993" lon="4.68411">
        <ele>325.6</ele>
        <time>2025-04-30T13:03:02Z</time>
      </trkpt>
      <trkpt lat="45.69992" lon="4.68405">
        <ele>325.8</ele>
        <time>2025-04-30T13:03:03Z</time>
      </trkpt>
      <trkpt lat="45.69992" lon="4.684">
        <ele>325.8</ele>
        <time>2025-04-30T13:03:04Z</time>
      </trkpt>
      <trkpt lat="45.69991" lon="4.68394">
        <ele>326</ele>
        <time>2025-04-30T13:03:05Z</time>
      </trkpt>
      <trkpt lat="45.69989" lon="4.68388">
        <ele>326</ele>
        <time>2025-04-30T13:03:06Z</time>
      </trkpt>
      <trkpt lat="45.69988" lon="4.68383">
        <ele>326</ele>
        <time>2025-04-30T13:03:07Z</time>
      </trkpt>
      <trkpt lat="45.69987" lon="4.68377">
        <ele>326.2</ele>
        <time>2025-04-30T13:03:08Z</time>
      </trkpt>
      <trkpt lat="45.69985" lon="4.68372">
        <ele>326.6</ele>
        <time>2025-04-30T13:03:09Z</time>
      </trkpt>
      <trkpt lat="45.69984" lon="4.68367">
        <ele>326.6</ele>
        <time>2025-04-30T13:03:10Z</time>
      </trkpt>
      <trkpt lat="45.69982" lon="4.68361">
        <ele>326.8</ele>
        <time>2025-04-30T13:03:11Z</time>
      </trkpt>
      <trkpt lat="45.69982" lon="4.68356">
        <ele>327</ele>
        <time>2025-04-30T13:03:12Z</time>
      </trkpt>
      <trkpt lat="45.69981" lon="4.68351">
        <ele>327.4</ele>
        <time>2025-04-30T13:03:13Z</time>
      </trkpt>
      <trkpt lat="45.69981" lon="4.68346">
        <ele>327.6</ele>
        <time>2025-04-30T13:03:14Z</time>
      </trkpt>
      <trkpt lat="45.69981" lon="4.68341">
        <ele>328</ele>
        <time>2025-04-30T13:03:15Z</time>
      </trkpt>
      <trkpt lat="45.69979" lon="4.68337">
        <ele>328.4</ele>
        <time>2025-04-30T13:03:16Z</time>
      </trkpt>
      <trkpt lat="45.69978" lon="4.68333">
        <ele>328.6</ele>
        <time>2025-04-30T13:03:17Z</time>
      </trkpt>
      <trkpt lat="45.69977" lon="4.68329">
        <ele>328.8</ele>
        <time>2025-04-30T13:03:18Z</time>
      </trkpt>
      <trkpt lat="45.69975" lon="4.68324">
        <ele>329</ele>
        <time>2025-04-30T13:03:19Z</time>
      </trkpt>
      <trkpt lat="45.69975" lon="4.68319">
        <ele>329.2</ele>
        <time>2025-04-30T13:03:20Z</time>
      </trkpt>
      <trkpt lat="45.69974" lon="4.68313">
        <ele>329.4</ele>
        <time>2025-04-30T13:03:21Z</time>
      </trkpt>
      <trkpt lat="45.69973" lon="4.68308">
        <ele>329.6</ele>
        <time>2025-04-30T13:03:22Z</time>
      </trkpt>
      <trkpt lat="45.69973" lon="4.68304">
        <ele>329.8</ele>
        <time>2025-04-30T13:03:23Z</time>
      </trkpt>
      <trkpt lat="45.69973" lon="4.68299">
        <ele>330</ele>
        <time>2025-04-30T13:03:24Z</time>
      </trkpt>
      <trkpt lat="45.69973" lon="4.68294">
        <ele>330.2</ele>
        <time>2025-04-30T13:03:25Z</time>
      </trkpt>
      <trkpt lat="45.69973" lon="4.68289">
        <ele>330.4</ele>
        <time>2025-04-30T13:03:26Z</time>
      </trkpt>
      <trkpt lat="45.69974" lon="4.68284">
        <ele>330.6</ele>
        <time>2025-04-30T13:03:27Z</time>
      </trkpt>
      <trkpt lat="45.69975" lon="4.68279">
        <ele>330.8</ele>
        <time>2025-04-30T13:03:28Z</time>
      </trkpt>
      <trkpt lat="45.69975" lon="4.68275">
        <ele>330.8</ele>
        <time>2025-04-30T13:03:29Z</time>
      </trkpt>
      <trkpt lat="45.69975" lon="4.6827">
        <ele>331.4</ele>
        <time>2025-04-30T13:03:30Z</time>
      </trkpt>
      <trkpt lat="45.69976" lon="4.68265">
        <ele>331.6</ele>
        <time>2025-04-30T13:03:31Z</time>
      </trkpt>
      <trkpt lat="45.69976" lon="4.68261">
        <ele>332</ele>
        <time>2025-04-30T13:03:32Z</time>
      </trkpt>
      <trkpt lat="45.69977" lon="4.68256">
        <ele>332.4</ele>
        <time>2025-04-30T13:03:33Z</time>
      </trkpt>
      <trkpt lat="45.69977" lon="4.68251">
        <ele>332.8</ele>
        <time>2025-04-30T13:03:34Z</time>
      </trkpt>
      <trkpt lat="45.69978" lon="4.68247">
        <ele>332.8</ele>
        <time>2025-04-30T13:03:35Z</time>
      </trkpt>
      <trkpt lat="45.69979" lon="4.68243">
        <ele>333.2</ele>
        <time>2025-04-30T13:03:36Z</time>
      </trkpt>
      <trkpt lat="45.69979" lon="4.68239">
        <ele>333.6</ele>
        <time>2025-04-30T13:03:37Z</time>
      </trkpt>
      <trkpt lat="45.6998" lon="4.68235">
        <ele>334</ele>
        <time>2025-04-30T13:03:38Z</time>
      </trkpt>
      <trkpt lat="45.6998" lon="4.68231">
        <ele>334.2</ele>
        <time>2025-04-30T13:03:39Z</time>
      </trkpt>
      <trkpt lat="45.69982" lon="4.68227">
        <ele>334.4</ele>
        <time>2025-04-30T13:03:40Z</time>
      </trkpt>
      <trkpt lat="45.69983" lon="4.68223">
        <ele>334.8</ele>
        <time>2025-04-30T13:03:41Z</time>
      </trkpt>
      <trkpt lat="45.69984" lon="4.68218">
        <ele>335</ele>
        <time>2025-04-30T13:03:42Z</time>
      </trkpt>
      <trkpt lat="45.69984" lon="4.68214">
        <ele>335.2</ele>
        <time>2025-04-30T13:03:43Z</time>
      </trkpt>
      <trkpt lat="45.69985" lon="4.68211">
        <ele>335.2</ele>
        <time>2025-04-30T13:03:44Z</time>
      </trkpt>
      <trkpt lat="45.69986" lon="4.68208">
        <ele>335.6</ele>
        <time>2025-04-30T13:03:45Z</time>
      </trkpt>
      <trkpt lat="45.69988" lon="4.68206">
        <ele>335.8</ele>
        <time>2025-04-30T13:03:46Z</time>
      </trkpt>
      <trkpt lat="45.69988" lon="4.68203">
        <ele>336.2</ele>
        <time>2025-04-30T13:03:47Z</time>
      </trkpt>
      <trkpt lat="45.69989" lon="4.68199">
        <ele>336.6</ele>
        <time>2025-04-30T13:03:48Z</time>
      </trkpt>
      <trkpt lat="45.6999" lon="4.68196">
        <ele>337</ele>
        <time>2025-04-30T13:03:49Z</time>
      </trkpt>
      <trkpt lat="45.69991" lon="4.68192">
        <ele>337</ele>
        <time>2025-04-30T13:03:50Z</time>
      </trkpt>
      <trkpt lat="45.69992" lon="4.68188">
        <ele>337.2</ele>
        <time>2025-04-30T13:03:51Z</time>
      </trkpt>
      <trkpt lat="45.69993" lon="4.68184">
        <ele>337.6</ele>
        <time>2025-04-30T13:03:52Z</time>
      </trkpt>
      <trkpt lat="45.69994" lon="4.6818">
        <ele>337.6</ele>
        <time>2025-04-30T13:03:53Z</time>
      </trkpt>
      <trkpt lat="45.69996" lon="4.68176">
        <ele>337.8</ele>
        <time>2025-04-30T13:03:54Z</time>
      </trkpt>
      <trkpt lat="45.69997" lon="4.68172">
        <ele>337.8</ele>
        <time>2025-04-30T13:03:55Z</time>
      </trkpt>
      <trkpt lat="45.69998" lon="4.6817">
        <ele>338</ele>
        <time>2025-04-30T13:03:56Z</time>
      </trkpt>
      <trkpt lat="45.69999" lon="4.68167">
        <ele>338.4</ele>
        <time>2025-04-30T13:03:57Z</time>
      </trkpt>
      <trkpt lat="45.7" lon="4.68164">
        <ele>338.6</ele>
        <time>2025-04-30T13:03:58Z</time>
      </trkpt>
      <trkpt lat="45.70001" lon="4.68162">
        <ele>338.8</ele>
        <time>2025-04-30T13:03:59Z</time>
      </trkpt>
      <trkpt lat="45.70002" lon="4.68159">
        <ele>339</ele>
        <time>2025-04-30T13:04:00Z</time>
      </trkpt>
      <trkpt lat="45.70003" lon="4.68156">
        <ele>339.2</ele>
        <time>2025-04-30T13:04:01Z</time>
      </trkpt>
      <trkpt lat="45.70004" lon="4.68153">
        <ele>339.4</ele>
        <time>2025-04-30T13:04:02Z</time>
      </trkpt>
      <trkpt lat="45.70005" lon="4.6815">
        <ele>339.6</ele>
        <time>2025-04-30T13:04:03Z</time>
      </trkpt>
      <trkpt lat="45.70006" lon="4.68147">
        <ele>339.8</ele>
        <time>2025-04-30T13:04:04Z</time>
      </trkpt>
      <trkpt lat="45.70007" lon="4.68143">
        <ele>340</ele>
        <time>2025-04-30T13:04:05Z</time>
      </trkpt>
      <trkpt lat="45.70008" lon="4.6814">
        <ele>340.2</ele>
        <time>2025-04-30T13:04:06Z</time>
      </trkpt>
      <trkpt lat="45.7001" lon="4.68137">
        <ele>340.4</ele>
        <time>2025-04-30T13:04:07Z</time>
      </trkpt>
      <trkpt lat="45.70011" lon="4.68134">
        <ele>340.6</ele>
        <time>2025-04-30T13:04:08Z</time>
      </trkpt>
      <trkpt lat="45.70013" lon="4.68131">
        <ele>341</ele>
        <time>2025-04-30T13:04:09Z</time>
      </trkpt>
      <trkpt lat="45.70014" lon="4.68127">
        <ele>341</ele>
        <time>2025-04-30T13:04:10Z</time>
      </trkpt>
      <trkpt lat="45.70016" lon="4.68124">
        <ele>341.2</ele>
        <time>2025-04-30T13:04:11Z</time>
      </trkpt>
      <trkpt lat="45.70017" lon="4.68121">
        <ele>341.4</ele>
        <time>2025-04-30T13:04:12Z</time>
      </trkpt>
      <trkpt lat="45.70019" lon="4.68117">
        <ele>341.6</ele>
        <time>2025-04-30T13:04:13Z</time>
      </trkpt>
      <trkpt lat="45.7002" lon="4.68113">
        <ele>341.8</ele>
        <time>2025-04-30T13:04:14Z</time>
      </trkpt>
      <trkpt lat="45.70021" lon="4.68109">
        <ele>342</ele>
        <time>2025-04-30T13:04:15Z</time>
      </trkpt>
      <trkpt lat="45.70022" lon="4.68105">
        <ele>342</ele>
        <time>2025-04-30T13:04:16Z</time>
      </trkpt>
      <trkpt lat="45.70023" lon="4.68101">
        <ele>342.4</ele>
        <time>2025-04-30T13:04:17Z</time>
      </trkpt>
      <trkpt lat="45.70023" lon="4.68097">
        <ele>342.8</ele>
        <time>2025-04-30T13:04:18Z</time>
      </trkpt>
      <trkpt lat="45.70024" lon="4.68092">
        <ele>343</ele>
        <time>2025-04-30T13:04:19Z</time>
      </trkpt>
      <trkpt lat="45.70025" lon="4.68088">
        <ele>343.2</ele>
        <time>2025-04-30T13:04:20Z</time>
      </trkpt>
      <trkpt lat="45.70025" lon="4.68084">
        <ele>343.2</ele>
        <time>2025-04-30T13:04:21Z</time>
      </trkpt>
      <trkpt lat="45.70026" lon="4.6808">
        <ele>343.4</ele>
        <time>2025-04-30T13:04:22Z</time>
      </trkpt>
      <trkpt lat="45.70026" lon="4.68076">
        <ele>343.4</ele>
        <time>2025-04-30T13:04:23Z</time>
      </trkpt>
      <trkpt lat="45.70027" lon="4.68072">
        <ele>343.4</ele>
        <time>2025-04-30T13:04:24Z</time>
      </trkpt>
      <trkpt lat="45.70028" lon="4.68068">
        <ele>343.4</ele>
        <time>2025-04-30T13:04:25Z</time>
      </trkpt>
      <trkpt lat="45.70029" lon="4.68064">
        <ele>343.4</ele>
        <time>2025-04-30T13:04:26Z</time>
      </trkpt>
      <trkpt lat="45.7003" lon="4.68059">
        <ele>343.4</ele>
        <time>2025-04-30T13:04:27Z</time>
      </trkpt>
      <trkpt lat="45.70032" lon="4.68054">
        <ele>343.4</ele>
        <time>2025-04-30T13:04:28Z</time>
      </trkpt>
      <trkpt lat="45.70033" lon="4.68049">
        <ele>343.4</ele>
        <time>2025-04-30T13:04:29Z</time>
      </trkpt>
      <trkpt lat="45.70035" lon="4.68044">
        <ele>343.4</ele>
        <time>2025-04-30T13:04:30Z</time>
      </trkpt>
      <trkpt lat="45.70037" lon="4.68039">
        <ele>343.4</ele>
        <time>2025-04-30T13:04:31Z</time>
      </trkpt>
      <trkpt lat="45.70038" lon="4.68034">
        <ele>343.2</ele>
        <time>2025-04-30T13:04:32Z</time>
      </trkpt>
      <trkpt lat="45.7004" lon="4.68029">
        <ele>343.2</ele>
        <time>2025-04-30T13:04:33Z</time>
      </trkpt>
      <trkpt lat="45.70042" lon="4.68023">
        <ele>343.2</ele>
        <time>2025-04-30T13:04:34Z</time>
      </trkpt>
      <trkpt lat="45.70044" lon="4.68018">
        <ele>343.2</ele>
        <time>2025-04-30T13:04:35Z</time>
      </trkpt>
      <trkpt lat="45.70046" lon="4.68014">
        <ele>343.2</ele>
        <time>2025-04-30T13:04:36Z</time>
      </trkpt>
      <trkpt lat="45.70048" lon="4.68009">
        <ele>343.2</ele>
        <time>2025-04-30T13:04:37Z</time>
      </trkpt>
      <trkpt lat="45.7005" lon="4.68003">
        <ele>343.2</ele>
        <time>2025-04-30T13:04:38Z</time>
      </trkpt>
      <trkpt lat="45.70052" lon="4.67998">
        <ele>343.4</ele>
        <time>2025-04-30T13:04:39Z</time>
      </trkpt>
      <trkpt lat="45.70054" lon="4.67994">
        <ele>343.4</ele>
        <time>2025-04-30T13:04:40Z</time>
      </trkpt>
      <trkpt lat="45.70057" lon="4.67993">
        <ele>343.6</ele>
        <time>2025-04-30T13:04:41Z</time>
      </trkpt>
      <trkpt lat="45.7006" lon="4.67993">
        <ele>343.8</ele>
        <time>2025-04-30T13:04:42Z</time>
      </trkpt>
      <trkpt lat="45.70063" lon="4.67995">
        <ele>344.2</ele>
        <time>2025-04-30T13:04:43Z</time>
      </trkpt>
      <trkpt lat="45.70065" lon="4.67999">
        <ele>344.6</ele>
        <time>2025-04-30T13:04:44Z</time>
      </trkpt>
      <trkpt lat="45.70067" lon="4.68003">
        <ele>344.6</ele>
        <time>2025-04-30T13:04:45Z</time>
      </trkpt>
      <trkpt lat="45.7007" lon="4.68007">
        <ele>344.6</ele>
        <time>2025-04-30T13:04:46Z</time>
      </trkpt>
      <trkpt lat="45.70072" lon="4.68011">
        <ele>344.6</ele>
        <time>2025-04-30T13:04:47Z</time>
      </trkpt>
      <trkpt lat="45.70075" lon="4.68015">
        <ele>344.8</ele>
        <time>2025-04-30T13:04:48Z</time>
      </trkpt>
      <trkpt lat="45.70077" lon="4.68018">
        <ele>344.8</ele>
        <time>2025-04-30T13:04:49Z</time>
      </trkpt>
      <trkpt lat="45.7008" lon="4.68022">
        <ele>344.8</ele>
        <time>2025-04-30T13:04:50Z</time>
      </trkpt>
      <trkpt lat="45.70082" lon="4.68026">
        <ele>344.8</ele>
        <time>2025-04-30T13:04:51Z</time>
      </trkpt>
      <trkpt lat="45.70085" lon="4.68029">
        <ele>345</ele>
        <time>2025-04-30T13:04:52Z</time>
      </trkpt>
      <trkpt lat="45.70088" lon="4.68033">
        <ele>345.2</ele>
        <time>2025-04-30T13:04:53Z</time>
      </trkpt>
      <trkpt lat="45.70091" lon="4.68035">
        <ele>345.4</ele>
        <time>2025-04-30T13:04:54Z</time>
      </trkpt>
      <trkpt lat="45.70094" lon="4.68036">
        <ele>345.4</ele>
        <time>2025-04-30T13:04:55Z</time>
      </trkpt>
      <trkpt lat="45.70097" lon="4.68034">
        <ele>345.6</ele>
        <time>2025-04-30T13:04:56Z</time>
      </trkpt>
      <trkpt lat="45.70099" lon="4.68032">
        <ele>346</ele>
        <time>2025-04-30T13:04:57Z</time>
      </trkpt>
      <trkpt lat="45.701" lon="4.68028">
        <ele>346</ele>
        <time>2025-04-30T13:04:58Z</time>
      </trkpt>
      <trkpt lat="45.70102" lon="4.68026">
        <ele>346.2</ele>
        <time>2025-04-30T13:04:59Z</time>
      </trkpt>
      <trkpt lat="45.70104" lon="4.68023">
        <ele>346.4</ele>
        <time>2025-04-30T13:05:00Z</time>
      </trkpt>
      <trkpt lat="45.70106" lon="4.6802">
        <ele>346.6</ele>
        <time>2025-04-30T13:05:01Z</time>
      </trkpt>
      <trkpt lat="45.70108" lon="4.68018">
        <ele>346.8</ele>
        <time>2025-04-30T13:05:02Z</time>
      </trkpt>
      <trkpt lat="45.7011" lon="4.68015">
        <ele>347.4</ele>
        <time>2025-04-30T13:05:03Z</time>
      </trkpt>
      <trkpt lat="45.70113" lon="4.68012">
        <ele>347.6</ele>
        <time>2025-04-30T13:05:04Z</time>
      </trkpt>
      <trkpt lat="45.70115" lon="4.68009">
        <ele>347.8</ele>
        <time>2025-04-30T13:05:05Z</time>
      </trkpt>
      <trkpt lat="45.70117" lon="4.68007">
        <ele>347.8</ele>
        <time>2025-04-30T13:05:06Z</time>
      </trkpt>
      <trkpt lat="45.7012" lon="4.68004">
        <ele>347.8</ele>
        <time>2025-04-30T13:05:07Z</time>
      </trkpt>
      <trkpt lat="45.70122" lon="4.68001">
        <ele>348</ele>
        <time>2025-04-30T13:05:08Z</time>
      </trkpt>
      <trkpt lat="45.70124" lon="4.67998">
        <ele>348</ele>
        <time>2025-04-30T13:05:09Z</time>
      </trkpt>
      <trkpt lat="45.70127" lon="4.67994">
        <ele>348.2</ele>
        <time>2025-04-30T13:05:10Z</time>
      </trkpt>
      <trkpt lat="45.70129" lon="4.67991">
        <ele>348.4</ele>
        <time>2025-04-30T13:05:11Z</time>
      </trkpt>
      <trkpt lat="45.70131" lon="4.67987">
        <ele>349</ele>
        <time>2025-04-30T13:05:12Z</time>
      </trkpt>
      <trkpt lat="45.70133" lon="4.67984">
        <ele>349.6</ele>
        <time>2025-04-30T13:05:13Z</time>
      </trkpt>
      <trkpt lat="45.70135" lon="4.67981">
        <ele>349.6</ele>
        <time>2025-04-30T13:05:14Z</time>
      </trkpt>
      <trkpt lat="45.70138" lon="4.67977">
        <ele>349.6</ele>
        <time>2025-04-30T13:05:15Z</time>
      </trkpt>
      <trkpt lat="45.7014" lon="4.67973">
        <ele>349.6</ele>
        <time>2025-04-30T13:05:16Z</time>
      </trkpt>
      <trkpt lat="45.70142" lon="4.67969">
        <ele>349.6</ele>
        <time>2025-04-30T13:05:17Z</time>
      </trkpt>
      <trkpt lat="45.70144" lon="4.67965">
        <ele>349.6</ele>
        <time>2025-04-30T13:05:18Z</time>
      </trkpt>
      <trkpt lat="45.70146" lon="4.6796">
        <ele>349.4</ele>
        <time>2025-04-30T13:05:19Z</time>
      </trkpt>
      <trkpt lat="45.70148" lon="4.67955">
        <ele>349.4</ele>
        <time>2025-04-30T13:05:20Z</time>
      </trkpt>
      <trkpt lat="45.7015" lon="4.67951">
        <ele>349.4</ele>
        <time>2025-04-30T13:05:21Z</time>
      </trkpt>
      <trkpt lat="45.70153" lon="4.67949">
        <ele>349.4</ele>
        <time>2025-04-30T13:05:22Z</time>
      </trkpt>
      <trkpt lat="45.70155" lon="4.67946">
        <ele>349.4</ele>
        <time>2025-04-30T13:05:23Z</time>
      </trkpt>
      <trkpt lat="45.70157" lon="4.67942">
        <ele>349.4</ele>
        <time>2025-04-30T13:05:24Z</time>
      </trkpt>
      <trkpt lat="45.70157" lon="4.67937">
        <ele>349.4</ele>
        <time>2025-04-30T13:05:25Z</time>
      </trkpt>
      <trkpt lat="45.70156" lon="4.67932">
        <ele>349.4</ele>
        <time>2025-04-30T13:05:26Z</time>
      </trkpt>
      <trkpt lat="45.70156" lon="4.67927">
        <ele>349.4</ele>
        <time>2025-04-30T13:05:27Z</time>
      </trkpt>
      <trkpt lat="45.70158" lon="4.67921">
        <ele>349.2</ele>
        <time>2025-04-30T13:05:28Z</time>
      </trkpt>
      <trkpt lat="45.7016" lon="4.67916">
        <ele>349.2</ele>
        <time>2025-04-30T13:05:29Z</time>
      </trkpt>
      <trkpt lat="45.70162" lon="4.6791">
        <ele>349</ele>
        <time>2025-04-30T13:05:30Z</time>
      </trkpt>
      <trkpt lat="45.70164" lon="4.67904">
        <ele>349</ele>
        <time>2025-04-30T13:05:31Z</time>
      </trkpt>
      <trkpt lat="45.70166" lon="4.67898">
        <ele>349</ele>
        <time>2025-04-30T13:05:32Z</time>
      </trkpt>
      <trkpt lat="45.70168" lon="4.67891">
        <ele>349</ele>
        <time>2025-04-30T13:05:33Z</time>
      </trkpt>
      <trkpt lat="45.7017" lon="4.67885">
        <ele>349</ele>
        <time>2025-04-30T13:05:34Z</time>
      </trkpt>
      <trkpt lat="45.70172" lon="4.67877">
        <ele>349</ele>
        <time>2025-04-30T13:05:35Z</time>
      </trkpt>
      <trkpt lat="45.70175" lon="4.6787">
        <ele>349</ele>
        <time>2025-04-30T13:05:36Z</time>
      </trkpt>
      <trkpt lat="45.70177" lon="4.67863">
        <ele>349</ele>
        <time>2025-04-30T13:05:37Z</time>
      </trkpt>
      <trkpt lat="45.7018" lon="4.67855">
        <ele>349</ele>
        <time>2025-04-30T13:05:38Z</time>
      </trkpt>
      <trkpt lat="45.70182" lon="4.67848">
        <ele>349</ele>
        <time>2025-04-30T13:05:39Z</time>
      </trkpt>
      <trkpt lat="45.70185" lon="4.67841">
        <ele>349</ele>
        <time>2025-04-30T13:05:40Z</time>
      </trkpt>
      <trkpt lat="45.70187" lon="4.67834">
        <ele>349</ele>
        <time>2025-04-30T13:05:41Z</time>
      </trkpt>
      <trkpt lat="45.7019" lon="4.67827">
        <ele>348.8</ele>
        <time>2025-04-30T13:05:42Z</time>
      </trkpt>
      <trkpt lat="45.70193" lon="4.67819">
        <ele>348.8</ele>
        <time>2025-04-30T13:05:43Z</time>
      </trkpt>
      <trkpt lat="45.70195" lon="4.67811">
        <ele>348.6</ele>
        <time>2025-04-30T13:05:44Z</time>
      </trkpt>
      <trkpt lat="45.70198" lon="4.67804">
        <ele>348.6</ele>
        <time>2025-04-30T13:05:45Z</time>
      </trkpt>
      <trkpt lat="45.70201" lon="4.67796">
        <ele>348.6</ele>
        <time>2025-04-30T13:05:46Z</time>
      </trkpt>
      <trkpt lat="45.70204" lon="4.67789">
        <ele>348.6</ele>
        <time>2025-04-30T13:05:47Z</time>
      </trkpt>
      <trkpt lat="45.70207" lon="4.67781">
        <ele>348.6</ele>
        <time>2025-04-30T13:05:48Z</time>
      </trkpt>
      <trkpt lat="45.70209" lon="4.67774">
        <ele>348.6</ele>
        <time>2025-04-30T13:05:49Z</time>
      </trkpt>
      <trkpt lat="45.70212" lon="4.67766">
        <ele>349</ele>
        <time>2025-04-30T13:05:50Z</time>
      </trkpt>
      <trkpt lat="45.70215" lon="4.67758">
        <ele>349</ele>
        <time>2025-04-30T13:05:51Z</time>
      </trkpt>
      <trkpt lat="45.70218" lon="4.67751">
        <ele>349</ele>
        <time>2025-04-30T13:05:52Z</time>
      </trkpt>
      <trkpt lat="45.70221" lon="4.67744">
        <ele>349.2</ele>
        <time>2025-04-30T13:05:53Z</time>
      </trkpt>
      <trkpt lat="45.70224" lon="4.67736">
        <ele>349.2</ele>
        <time>2025-04-30T13:05:54Z</time>
      </trkpt>
      <trkpt lat="45.70228" lon="4.67729">
        <ele>349.2</ele>
        <time>2025-04-30T13:05:55Z</time>
      </trkpt>
      <trkpt lat="45.70231" lon="4.67722">
        <ele>349.2</ele>
        <time>2025-04-30T13:05:56Z</time>
      </trkpt>
      <trkpt lat="45.70234" lon="4.67714">
        <ele>349.2</ele>
        <time>2025-04-30T13:05:57Z</time>
      </trkpt>
      <trkpt lat="45.70237" lon="4.67707">
        <ele>349</ele>
        <time>2025-04-30T13:05:58Z</time>
      </trkpt>
      <trkpt lat="45.7024" lon="4.67699">
        <ele>349</ele>
        <time>2025-04-30T13:05:59Z</time>
      </trkpt>
      <trkpt lat="45.70243" lon="4.67692">
        <ele>349</ele>
        <time>2025-04-30T13:06:00Z</time>
      </trkpt>
      <trkpt lat="45.70246" lon="4.67684">
        <ele>349</ele>
        <time>2025-04-30T13:06:01Z</time>
      </trkpt>
      <trkpt lat="45.70249" lon="4.67677">
        <ele>349</ele>
        <time>2025-04-30T13:06:02Z</time>
      </trkpt>
      <trkpt lat="45.70251" lon="4.67669">
        <ele>349</ele>
        <time>2025-04-30T13:06:03Z</time>
      </trkpt>
      <trkpt lat="45.70254" lon="4.67662">
        <ele>349.2</ele>
        <time>2025-04-30T13:06:04Z</time>
      </trkpt>
      <trkpt lat="45.70257" lon="4.67655">
        <ele>349.2</ele>
        <time>2025-04-30T13:06:05Z</time>
      </trkpt>
      <trkpt lat="45.7026" lon="4.67648">
        <ele>349.4</ele>
        <time>2025-04-30T13:06:06Z</time>
      </trkpt>
      <trkpt lat="45.70263" lon="4.67641">
        <ele>349.8</ele>
        <time>2025-04-30T13:06:07Z</time>
      </trkpt>
      <trkpt lat="45.70265" lon="4.67633">
        <ele>350</ele>
        <time>2025-04-30T13:06:08Z</time>
      </trkpt>
      <trkpt lat="45.70268" lon="4.67626">
        <ele>350.2</ele>
        <time>2025-04-30T13:06:09Z</time>
      </trkpt>
      <trkpt lat="45.70271" lon="4.67619">
        <ele>350.6</ele>
        <time>2025-04-30T13:06:10Z</time>
      </trkpt>
      <trkpt lat="45.70273" lon="4.67611">
        <ele>351</ele>
        <time>2025-04-30T13:06:11Z</time>
      </trkpt>
      <trkpt lat="45.70276" lon="4.67604">
        <ele>351.2</ele>
        <time>2025-04-30T13:06:12Z</time>
      </trkpt>
      <trkpt lat="45.70279" lon="4.67597">
        <ele>351.4</ele>
        <time>2025-04-30T13:06:13Z</time>
      </trkpt>
      <trkpt lat="45.70282" lon="4.6759">
        <ele>351.6</ele>
        <time>2025-04-30T13:06:14Z</time>
      </trkpt>
      <trkpt lat="45.70285" lon="4.67584">
        <ele>351.8</ele>
        <time>2025-04-30T13:06:15Z</time>
      </trkpt>
      <trkpt lat="45.70288" lon="4.67578">
        <ele>352.2</ele>
        <time>2025-04-30T13:06:16Z</time>
      </trkpt>
      <trkpt lat="45.70291" lon="4.67572">
        <ele>352.4</ele>
        <time>2025-04-30T13:06:17Z</time>
      </trkpt>
      <trkpt lat="45.70293" lon="4.67566">
        <ele>352.6</ele>
        <time>2025-04-30T13:06:18Z</time>
      </trkpt>
      <trkpt lat="45.70296" lon="4.6756">
        <ele>352.8</ele>
        <time>2025-04-30T13:06:19Z</time>
      </trkpt>
      <trkpt lat="45.70299" lon="4.67554">
        <ele>352.8</ele>
        <time>2025-04-30T13:06:20Z</time>
      </trkpt>
      <trkpt lat="45.70302" lon="4.67548">
        <ele>353</ele>
        <time>2025-04-30T13:06:21Z</time>
      </trkpt>
      <trkpt lat="45.70305" lon="4.67543">
        <ele>353.2</ele>
        <time>2025-04-30T13:06:22Z</time>
      </trkpt>
      <trkpt lat="45.70308" lon="4.67537">
        <ele>353.4</ele>
        <time>2025-04-30T13:06:23Z</time>
      </trkpt>
      <trkpt lat="45.70311" lon="4.67531">
        <ele>353.6</ele>
        <time>2025-04-30T13:06:24Z</time>
      </trkpt>
      <trkpt lat="45.70314" lon="4.67526">
        <ele>353.8</ele>
        <time>2025-04-30T13:06:25Z</time>
      </trkpt>
      <trkpt lat="45.70316" lon="4.6752">
        <ele>354.2</ele>
        <time>2025-04-30T13:06:26Z</time>
      </trkpt>
      <trkpt lat="45.70318" lon="4.67515">
        <ele>354.4</ele>
        <time>2025-04-30T13:06:27Z</time>
      </trkpt>
      <trkpt lat="45.70321" lon="4.6751">
        <ele>354.4</ele>
        <time>2025-04-30T13:06:28Z</time>
      </trkpt>
      <trkpt lat="45.70323" lon="4.67504">
        <ele>354.6</ele>
        <time>2025-04-30T13:06:29Z</time>
      </trkpt>
      <trkpt lat="45.70325" lon="4.67499">
        <ele>355</ele>
        <time>2025-04-30T13:06:30Z</time>
      </trkpt>
      <trkpt lat="45.70327" lon="4.67493">
        <ele>355.2</ele>
        <time>2025-04-30T13:06:31Z</time>
      </trkpt>
      <trkpt lat="45.70329" lon="4.67487">
        <ele>355.6</ele>
        <time>2025-04-30T13:06:32Z</time>
      </trkpt>
      <trkpt lat="45.70331" lon="4.67482">
        <ele>355.8</ele>
        <time>2025-04-30T13:06:33Z</time>
      </trkpt>
      <trkpt lat="45.70333" lon="4.67476">
        <ele>356</ele>
        <time>2025-04-30T13:06:34Z</time>
      </trkpt>
      <trkpt lat="45.70336" lon="4.6747">
        <ele>356.2</ele>
        <time>2025-04-30T13:06:35Z</time>
      </trkpt>
      <trkpt lat="45.70339" lon="4.67464">
        <ele>356.4</ele>
        <time>2025-04-30T13:06:36Z</time>
      </trkpt>
      <trkpt lat="45.70341" lon="4.67458">
        <ele>356.4</ele>
        <time>2025-04-30T13:06:37Z</time>
      </trkpt>
      <trkpt lat="45.70344" lon="4.67452">
        <ele>356.6</ele>
        <time>2025-04-30T13:06:38Z</time>
      </trkpt>
      <trkpt lat="45.70347" lon="4.67446">
        <ele>356.6</ele>
        <time>2025-04-30T13:06:39Z</time>
      </trkpt>
      <trkpt lat="45.70349" lon="4.6744">
        <ele>356.6</ele>
        <time>2025-04-30T13:06:40Z</time>
      </trkpt>
      <trkpt lat="45.70351" lon="4.67434">
        <ele>356.6</ele>
        <time>2025-04-30T13:06:41Z</time>
      </trkpt>
      <trkpt lat="45.70354" lon="4.67428">
        <ele>356.6</ele>
        <time>2025-04-30T13:06:42Z</time>
      </trkpt>
      <trkpt lat="45.70357" lon="4.67422">
        <ele>356.8</ele>
        <time>2025-04-30T13:06:43Z</time>
      </trkpt>
      <trkpt lat="45.70359" lon="4.67417">
        <ele>357</ele>
        <time>2025-04-30T13:06:44Z</time>
      </trkpt>
      <trkpt lat="45.70362" lon="4.67411">
        <ele>357.2</ele>
        <time>2025-04-30T13:06:45Z</time>
      </trkpt>
      <trkpt lat="45.70365" lon="4.67405">
        <ele>357.4</ele>
        <time>2025-04-30T13:06:46Z</time>
      </trkpt>
      <trkpt lat="45.70367" lon="4.67399">
        <ele>357.4</ele>
        <time>2025-04-30T13:06:47Z</time>
      </trkpt>
      <trkpt lat="45.70369" lon="4.67394">
        <ele>357.6</ele>
        <time>2025-04-30T13:06:48Z</time>
      </trkpt>
      <trkpt lat="45.70372" lon="4.67389">
        <ele>357.4</ele>
        <time>2025-04-30T13:06:49Z</time>
      </trkpt>
      <trkpt lat="45.70374" lon="4.67384">
        <ele>357.4</ele>
        <time>2025-04-30T13:06:50Z</time>
      </trkpt>
      <trkpt lat="45.70376" lon="4.67378">
        <ele>357.4</ele>
        <time>2025-04-30T13:06:51Z</time>
      </trkpt>
      <trkpt lat="45.70377" lon="4.67372">
        <ele>357.4</ele>
        <time>2025-04-30T13:06:52Z</time>
      </trkpt>
      <trkpt lat="45.70379" lon="4.67365">
        <ele>357.4</ele>
        <time>2025-04-30T13:06:53Z</time>
      </trkpt>
      <trkpt lat="45.7038" lon="4.67358">
        <ele>357.4</ele>
        <time>2025-04-30T13:06:54Z</time>
      </trkpt>
      <trkpt lat="45.70381" lon="4.6735">
        <ele>357.2</ele>
        <time>2025-04-30T13:06:55Z</time>
      </trkpt>
      <trkpt lat="45.7038" lon="4.67342">
        <ele>357.2</ele>
        <time>2025-04-30T13:06:56Z</time>
      </trkpt>
      <trkpt lat="45.7038" lon="4.67334">
        <ele>357.2</ele>
        <time>2025-04-30T13:06:57Z</time>
      </trkpt>
      <trkpt lat="45.70378" lon="4.67326">
        <ele>356.8</ele>
        <time>2025-04-30T13:06:58Z</time>
      </trkpt>
      <trkpt lat="45.70378" lon="4.67317">
        <ele>356.4</ele>
        <time>2025-04-30T13:06:59Z</time>
      </trkpt>
      <trkpt lat="45.70378" lon="4.67308">
        <ele>355.8</ele>
        <time>2025-04-30T13:07:00Z</time>
      </trkpt>
      <trkpt lat="45.70379" lon="4.67299">
        <ele>355.2</ele>
        <time>2025-04-30T13:07:01Z</time>
      </trkpt>
      <trkpt lat="45.7038" lon="4.6729">
        <ele>355</ele>
        <time>2025-04-30T13:07:02Z</time>
      </trkpt>
      <trkpt lat="45.70381" lon="4.67281">
        <ele>354.4</ele>
        <time>2025-04-30T13:07:03Z</time>
      </trkpt>
      <trkpt lat="45.70382" lon="4.67271">
        <ele>354.2</ele>
        <time>2025-04-30T13:07:04Z</time>
      </trkpt>
      <trkpt lat="45.70383" lon="4.67261">
        <ele>354</ele>
        <time>2025-04-30T13:07:05Z</time>
      </trkpt>
      <trkpt lat="45.70383" lon="4.67251">
        <ele>353.2</ele>
        <time>2025-04-30T13:07:06Z</time>
      </trkpt>
      <trkpt lat="45.70384" lon="4.67241">
        <ele>352.8</ele>
        <time>2025-04-30T13:07:07Z</time>
      </trkpt>
      <trkpt lat="45.70383" lon="4.67231">
        <ele>352.2</ele>
        <time>2025-04-30T13:07:08Z</time>
      </trkpt>
      <trkpt lat="45.70383" lon="4.67222">
        <ele>352.2</ele>
        <time>2025-04-30T13:07:09Z</time>
      </trkpt>
      <trkpt lat="45.70384" lon="4.67215">
        <ele>352.2</ele>
        <time>2025-04-30T13:07:10Z</time>
      </trkpt>
      <trkpt lat="45.70384" lon="4.67207">
        <ele>352.2</ele>
        <time>2025-04-30T13:07:11Z</time>
      </trkpt>
      <trkpt lat="45.70384" lon="4.672">
        <ele>352.8</ele>
        <time>2025-04-30T13:07:12Z</time>
      </trkpt>
      <trkpt lat="45.70385" lon="4.67192">
        <ele>353.4</ele>
        <time>2025-04-30T13:07:13Z</time>
      </trkpt>
      <trkpt lat="45.70385" lon="4.67183">
        <ele>353.6</ele>
        <time>2025-04-30T13:07:14Z</time>
      </trkpt>
      <trkpt lat="45.70385" lon="4.67174">
        <ele>353.6</ele>
        <time>2025-04-30T13:07:15Z</time>
      </trkpt>
      <trkpt lat="45.70384" lon="4.67165">
        <ele>353.6</ele>
        <time>2025-04-30T13:07:16Z</time>
      </trkpt>
      <trkpt lat="45.70383" lon="4.67157">
        <ele>353.6</ele>
        <time>2025-04-30T13:07:17Z</time>
      </trkpt>
      <trkpt lat="45.70383" lon="4.67148">
        <ele>353.4</ele>
        <time>2025-04-30T13:07:18Z</time>
      </trkpt>
      <trkpt lat="45.70382" lon="4.6714">
        <ele>353.4</ele>
        <time>2025-04-30T13:07:19Z</time>
      </trkpt>
      <trkpt lat="45.70382" lon="4.67132">
        <ele>353.4</ele>
        <time>2025-04-30T13:07:20Z</time>
      </trkpt>
      <trkpt lat="45.70382" lon="4.67123">
        <ele>353.4</ele>
        <time>2025-04-30T13:07:21Z</time>
      </trkpt>
      <trkpt lat="45.70382" lon="4.67115">
        <ele>353.6</ele>
        <time>2025-04-30T13:07:22Z</time>
      </trkpt>
      <trkpt lat="45.70382" lon="4.67107">
        <ele>353.8</ele>
        <time>2025-04-30T13:07:23Z</time>
      </trkpt>
      <trkpt lat="45.70383" lon="4.67099">
        <ele>353.8</ele>
        <time>2025-04-30T13:07:24Z</time>
      </trkpt>
      <trkpt lat="45.70384" lon="4.67091">
        <ele>353.8</ele>
        <time>2025-04-30T13:07:25Z</time>
      </trkpt>
      <trkpt lat="45.70384" lon="4.67083">
        <ele>353.8</ele>
        <time>2025-04-30T13:07:26Z</time>
      </trkpt>
      <trkpt lat="45.70384" lon="4.67074">
        <ele>353.6</ele>
        <time>2025-04-30T13:07:27Z</time>
      </trkpt>
      <trkpt lat="45.70383" lon="4.67066">
        <ele>353.6</ele>
        <time>2025-04-30T13:07:28Z</time>
      </trkpt>
      <trkpt lat="45.70384" lon="4.67058">
        <ele>353.6</ele>
        <time>2025-04-30T13:07:29Z</time>
      </trkpt>
      <trkpt lat="45.70384" lon="4.67051">
        <ele>353.6</ele>
        <time>2025-04-30T13:07:30Z</time>
      </trkpt>
      <trkpt lat="45.70385" lon="4.67044">
        <ele>353.8</ele>
        <time>2025-04-30T13:07:31Z</time>
      </trkpt>
      <trkpt lat="45.70386" lon="4.67037">
        <ele>354</ele>
        <time>2025-04-30T13:07:32Z</time>
      </trkpt>
      <trkpt lat="45.70387" lon="4.67032">
        <ele>354.6</ele>
        <time>2025-04-30T13:07:33Z</time>
      </trkpt>
      <trkpt lat="45.70388" lon="4.67025">
        <ele>355</ele>
        <time>2025-04-30T13:07:34Z</time>
      </trkpt>
      <trkpt lat="45.7039" lon="4.67021">
        <ele>355.4</ele>
        <time>2025-04-30T13:07:35Z</time>
      </trkpt>
      <trkpt lat="45.70391" lon="4.67017">
        <ele>356.2</ele>
        <time>2025-04-30T13:07:36Z</time>
      </trkpt>
      <trkpt lat="45.70393" lon="4.67013">
        <ele>356.6</ele>
        <time>2025-04-30T13:07:37Z</time>
      </trkpt>
      <trkpt lat="45.70394" lon="4.67009">
        <ele>357.2</ele>
        <time>2025-04-30T13:07:38Z</time>
      </trkpt>
      <trkpt lat="45.70394" lon="4.67004">
        <ele>357.4</ele>
        <time>2025-04-30T13:07:39Z</time>
      </trkpt>
      <trkpt lat="45.70394" lon="4.67">
        <ele>357.8</ele>
        <time>2025-04-30T13:07:40Z</time>
      </trkpt>
      <trkpt lat="45.70394" lon="4.66995">
        <ele>358.2</ele>
        <time>2025-04-30T13:07:41Z</time>
      </trkpt>
      <trkpt lat="45.70394" lon="4.66991">
        <ele>358.6</ele>
        <time>2025-04-30T13:07:42Z</time>
      </trkpt>
      <trkpt lat="45.70394" lon="4.66988">
        <ele>359</ele>
        <time>2025-04-30T13:07:43Z</time>
      </trkpt>
      <trkpt lat="45.70393" lon="4.66985">
        <ele>359.6</ele>
        <time>2025-04-30T13:07:44Z</time>
      </trkpt>
      <trkpt lat="45.70393" lon="4.66981">
        <ele>360</ele>
        <time>2025-04-30T13:07:45Z</time>
      </trkpt>
      <trkpt lat="45.70391" lon="4.66977">
        <ele>360.4</ele>
        <time>2025-04-30T13:07:46Z</time>
      </trkpt>
      <trkpt lat="45.7039" lon="4.66974">
        <ele>360.8</ele>
        <time>2025-04-30T13:07:47Z</time>
      </trkpt>
      <trkpt lat="45.70389" lon="4.66971">
        <ele>361.2</ele>
        <time>2025-04-30T13:07:48Z</time>
      </trkpt>
      <trkpt lat="45.70387" lon="4.66968">
        <ele>361.4</ele>
        <time>2025-04-30T13:07:49Z</time>
      </trkpt>
      <trkpt lat="45.70386" lon="4.66965">
        <ele>362</ele>
        <time>2025-04-30T13:07:50Z</time>
      </trkpt>
      <trkpt lat="45.70386" lon="4.66962">
        <ele>362.4</ele>
        <time>2025-04-30T13:07:51Z</time>
      </trkpt>
      <trkpt lat="45.70386" lon="4.66958">
        <ele>362.8</ele>
        <time>2025-04-30T13:07:52Z</time>
      </trkpt>
      <trkpt lat="45.70385" lon="4.66954">
        <ele>363.2</ele>
        <time>2025-04-30T13:07:53Z</time>
      </trkpt>
      <trkpt lat="45.70384" lon="4.66951">
        <ele>363.4</ele>
        <time>2025-04-30T13:07:54Z</time>
      </trkpt>
      <trkpt lat="45.70384" lon="4.66948">
        <ele>364</ele>
        <time>2025-04-30T13:07:55Z</time>
      </trkpt>
      <trkpt lat="45.70383" lon="4.66945">
        <ele>364.2</ele>
        <time>2025-04-30T13:07:56Z</time>
      </trkpt>
      <trkpt lat="45.70383" lon="4.66941">
        <ele>364.4</ele>
        <time>2025-04-30T13:07:57Z</time>
      </trkpt>
      <trkpt lat="45.70383" lon="4.66938">
        <ele>364.6</ele>
        <time>2025-04-30T13:07:58Z</time>
      </trkpt>
      <trkpt lat="45.70383" lon="4.66935">
        <ele>365.2</ele>
        <time>2025-04-30T13:07:59Z</time>
      </trkpt>
      <trkpt lat="45.70382" lon="4.66932">
        <ele>365.4</ele>
        <time>2025-04-30T13:08:00Z</time>
      </trkpt>
      <trkpt lat="45.70383" lon="4.6693">
        <ele>365.8</ele>
        <time>2025-04-30T13:08:01Z</time>
      </trkpt>
      <trkpt lat="45.70383" lon="4.66927">
        <ele>366.2</ele>
        <time>2025-04-30T13:08:02Z</time>
      </trkpt>
      <trkpt lat="45.70383" lon="4.66924">
        <ele>366.4</ele>
        <time>2025-04-30T13:08:03Z</time>
      </trkpt>
      <trkpt lat="45.70384" lon="4.66921">
        <ele>366.8</ele>
        <time>2025-04-30T13:08:04Z</time>
      </trkpt>
      <trkpt lat="45.70384" lon="4.66917">
        <ele>367.2</ele>
        <time>2025-04-30T13:08:05Z</time>
      </trkpt>
      <trkpt lat="45.70385" lon="4.66915">
        <ele>367.6</ele>
        <time>2025-04-30T13:08:06Z</time>
      </trkpt>
      <trkpt lat="45.70385" lon="4.66912">
        <ele>367.8</ele>
        <time>2025-04-30T13:08:07Z</time>
      </trkpt>
      <trkpt lat="45.70386" lon="4.6691">
        <ele>368</ele>
        <time>2025-04-30T13:08:08Z</time>
      </trkpt>
      <trkpt lat="45.70386" lon="4.66908">
        <ele>368.2</ele>
        <time>2025-04-30T13:08:09Z</time>
      </trkpt>
      <trkpt lat="45.70386" lon="4.66905">
        <ele>368.4</ele>
        <time>2025-04-30T13:08:10Z</time>
      </trkpt>
      <trkpt lat="45.70386" lon="4.66901">
        <ele>368.6</ele>
        <time>2025-04-30T13:08:11Z</time>
      </trkpt>
      <trkpt lat="45.70386" lon="4.66898">
        <ele>369</ele>
        <time>2025-04-30T13:08:12Z</time>
      </trkpt>
      <trkpt lat="45.70386" lon="4.66895">
        <ele>369.4</ele>
        <time>2025-04-30T13:08:13Z</time>
      </trkpt>
      <trkpt lat="45.70387" lon="4.66893">
        <ele>369.8</ele>
        <time>2025-04-30T13:08:14Z</time>
      </trkpt>
      <trkpt lat="45.70388" lon="4.6689">
        <ele>370</ele>
        <time>2025-04-30T13:08:15Z</time>
      </trkpt>
      <trkpt lat="45.70389" lon="4.66888">
        <ele>370.2</ele>
        <time>2025-04-30T13:08:16Z</time>
      </trkpt>
      <trkpt lat="45.70391" lon="4.66885">
        <ele>370.8</ele>
        <time>2025-04-30T13:08:17Z</time>
      </trkpt>
      <trkpt lat="45.70392" lon="4.66882">
        <ele>371</ele>
        <time>2025-04-30T13:08:18Z</time>
      </trkpt>
      <trkpt lat="45.70393" lon="4.66879">
        <ele>371.4</ele>
        <time>2025-04-30T13:08:19Z</time>
      </trkpt>
      <trkpt lat="45.70394" lon="4.66876">
        <ele>371.6</ele>
        <time>2025-04-30T13:08:20Z</time>
      </trkpt>
      <trkpt lat="45.70395" lon="4.66873">
        <ele>372</ele>
        <time>2025-04-30T13:08:21Z</time>
      </trkpt>
      <trkpt lat="45.70396" lon="4.6687">
        <ele>372</ele>
        <time>2025-04-30T13:08:22Z</time>
      </trkpt>
      <trkpt lat="45.70396" lon="4.66867">
        <ele>372.2</ele>
        <time>2025-04-30T13:08:23Z</time>
      </trkpt>
      <trkpt lat="45.70397" lon="4.66864">
        <ele>372.6</ele>
        <time>2025-04-30T13:08:24Z</time>
      </trkpt>
      <trkpt lat="45.70398" lon="4.6686">
        <ele>373</ele>
        <time>2025-04-30T13:08:25Z</time>
      </trkpt>
      <trkpt lat="45.70398" lon="4.66857">
        <ele>373.2</ele>
        <time>2025-04-30T13:08:26Z</time>
      </trkpt>
      <trkpt lat="45.70399" lon="4.66853">
        <ele>373.4</ele>
        <time>2025-04-30T13:08:27Z</time>
      </trkpt>
      <trkpt lat="45.70399" lon="4.6685">
        <ele>373.4</ele>
        <time>2025-04-30T13:08:28Z</time>
      </trkpt>
      <trkpt lat="45.70399" lon="4.66848">
        <ele>373.6</ele>
        <time>2025-04-30T13:08:29Z</time>
      </trkpt>
      <trkpt lat="45.704" lon="4.66845">
        <ele>374</ele>
        <time>2025-04-30T13:08:30Z</time>
      </trkpt>
      <trkpt lat="45.70401" lon="4.66842">
        <ele>374.2</ele>
        <time>2025-04-30T13:08:31Z</time>
      </trkpt>
      <trkpt lat="45.70402" lon="4.66839">
        <ele>374.4</ele>
        <time>2025-04-30T13:08:32Z</time>
      </trkpt>
      <trkpt lat="45.70403" lon="4.66836">
        <ele>374.6</ele>
        <time>2025-04-30T13:08:33Z</time>
      </trkpt>
      <trkpt lat="45.70404" lon="4.66833">
        <ele>375</ele>
        <time>2025-04-30T13:08:34Z</time>
      </trkpt>
      <trkpt lat="45.70404" lon="4.6683">
        <ele>375</ele>
        <time>2025-04-30T13:08:35Z</time>
      </trkpt>
      <trkpt lat="45.70405" lon="4.66826">
        <ele>375.2</ele>
        <time>2025-04-30T13:08:36Z</time>
      </trkpt>
      <trkpt lat="45.70405" lon="4.66823">
        <ele>375.4</ele>
        <time>2025-04-30T13:08:37Z</time>
      </trkpt>
      <trkpt lat="45.70406" lon="4.6682">
        <ele>375.8</ele>
        <time>2025-04-30T13:08:38Z</time>
      </trkpt>
      <trkpt lat="45.70406" lon="4.66817">
        <ele>376.2</ele>
        <time>2025-04-30T13:08:39Z</time>
      </trkpt>
      <trkpt lat="45.70407" lon="4.66814">
        <ele>376.4</ele>
        <time>2025-04-30T13:08:40Z</time>
      </trkpt>
      <trkpt lat="45.70407" lon="4.6681">
        <ele>376.8</ele>
        <time>2025-04-30T13:08:41Z</time>
      </trkpt>
      <trkpt lat="45.70407" lon="4.66807">
        <ele>377</ele>
        <time>2025-04-30T13:08:42Z</time>
      </trkpt>
      <trkpt lat="45.70407" lon="4.66804">
        <ele>377.2</ele>
        <time>2025-04-30T13:08:43Z</time>
      </trkpt>
      <trkpt lat="45.70407" lon="4.668">
        <ele>377.4</ele>
        <time>2025-04-30T13:08:44Z</time>
      </trkpt>
      <trkpt lat="45.70407" lon="4.66797">
        <ele>377.6</ele>
        <time>2025-04-30T13:08:45Z</time>
      </trkpt>
      <trkpt lat="45.70407" lon="4.66793">
        <ele>378</ele>
        <time>2025-04-30T13:08:46Z</time>
      </trkpt>
      <trkpt lat="45.70408" lon="4.6679">
        <ele>378.2</ele>
        <time>2025-04-30T13:08:47Z</time>
      </trkpt>
      <trkpt lat="45.70408" lon="4.66787">
        <ele>378.4</ele>
        <time>2025-04-30T13:08:48Z</time>
      </trkpt>
      <trkpt lat="45.70409" lon="4.66784">
        <ele>378.8</ele>
        <time>2025-04-30T13:08:49Z</time>
      </trkpt>
      <trkpt lat="45.70409" lon="4.6678">
        <ele>378.8</ele>
        <time>2025-04-30T13:08:50Z</time>
      </trkpt>
      <trkpt lat="45.70409" lon="4.66776">
        <ele>379.2</ele>
        <time>2025-04-30T13:08:51Z</time>
      </trkpt>
      <trkpt lat="45.7041" lon="4.66772">
        <ele>379.4</ele>
        <time>2025-04-30T13:08:52Z</time>
      </trkpt>
      <trkpt lat="45.70411" lon="4.66768">
        <ele>379.6</ele>
        <time>2025-04-30T13:08:53Z</time>
      </trkpt>
      <trkpt lat="45.70411" lon="4.66764">
        <ele>379.8</ele>
        <time>2025-04-30T13:08:54Z</time>
      </trkpt>
      <trkpt lat="45.70412" lon="4.6676">
        <ele>380</ele>
        <time>2025-04-30T13:08:55Z</time>
      </trkpt>
      <trkpt lat="45.70413" lon="4.66755">
        <ele>380.2</ele>
        <time>2025-04-30T13:08:56Z</time>
      </trkpt>
      <trkpt lat="45.70414" lon="4.66752">
        <ele>380.4</ele>
        <time>2025-04-30T13:08:57Z</time>
      </trkpt>
      <trkpt lat="45.70415" lon="4.66749">
        <ele>380.6</ele>
        <time>2025-04-30T13:08:58Z</time>
      </trkpt>
      <trkpt lat="45.70415" lon="4.66745">
        <ele>380.6</ele>
        <time>2025-04-30T13:08:59Z</time>
      </trkpt>
      <trkpt lat="45.70416" lon="4.66741">
        <ele>380.8</ele>
        <time>2025-04-30T13:09:00Z</time>
      </trkpt>
      <trkpt lat="45.70417" lon="4.66737">
        <ele>380.8</ele>
        <time>2025-04-30T13:09:01Z</time>
      </trkpt>
      <trkpt lat="45.70418" lon="4.66733">
        <ele>381</ele>
        <time>2025-04-30T13:09:02Z</time>
      </trkpt>
      <trkpt lat="45.70418" lon="4.6673">
        <ele>381.2</ele>
        <time>2025-04-30T13:09:03Z</time>
      </trkpt>
      <trkpt lat="45.70419" lon="4.66726">
        <ele>381.4</ele>
        <time>2025-04-30T13:09:04Z</time>
      </trkpt>
      <trkpt lat="45.7042" lon="4.66721">
        <ele>381.6</ele>
        <time>2025-04-30T13:09:05Z</time>
      </trkpt>
      <trkpt lat="45.7042" lon="4.66718">
        <ele>381.8</ele>
        <time>2025-04-30T13:09:06Z</time>
      </trkpt>
      <trkpt lat="45.7042" lon="4.66714">
        <ele>382</ele>
        <time>2025-04-30T13:09:07Z</time>
      </trkpt>
      <trkpt lat="45.7042" lon="4.66711">
        <ele>382.2</ele>
        <time>2025-04-30T13:09:08Z</time>
      </trkpt>
      <trkpt lat="45.70421" lon="4.66707">
        <ele>382.4</ele>
        <time>2025-04-30T13:09:09Z</time>
      </trkpt>
      <trkpt lat="45.70422" lon="4.66703">
        <ele>382.6</ele>
        <time>2025-04-30T13:09:10Z</time>
      </trkpt>
      <trkpt lat="45.70422" lon="4.667">
        <ele>382.6</ele>
        <time>2025-04-30T13:09:11Z</time>
      </trkpt>
      <trkpt lat="45.70423" lon="4.66696">
        <ele>382.8</ele>
        <time>2025-04-30T13:09:12Z</time>
      </trkpt>
      <trkpt lat="45.70424" lon="4.66692">
        <ele>383</ele>
        <time>2025-04-30T13:09:13Z</time>
      </trkpt>
      <trkpt lat="45.70425" lon="4.66689">
        <ele>383.4</ele>
        <time>2025-04-30T13:09:14Z</time>
      </trkpt>
      <trkpt lat="45.70426" lon="4.66686">
        <ele>383.6</ele>
        <time>2025-04-30T13:09:15Z</time>
      </trkpt>
      <trkpt lat="45.70427" lon="4.66682">
        <ele>383.8</ele>
        <time>2025-04-30T13:09:16Z</time>
      </trkpt>
      <trkpt lat="45.70428" lon="4.66678">
        <ele>383.8</ele>
        <time>2025-04-30T13:09:17Z</time>
      </trkpt>
      <trkpt lat="45.7043" lon="4.66674">
        <ele>384</ele>
        <time>2025-04-30T13:09:18Z</time>
      </trkpt>
      <trkpt lat="45.7043" lon="4.66671">
        <ele>384.2</ele>
        <time>2025-04-30T13:09:19Z</time>
      </trkpt>
      <trkpt lat="45.70431" lon="4.66667">
        <ele>384.2</ele>
        <time>2025-04-30T13:09:20Z</time>
      </trkpt>
      <trkpt lat="45.70433" lon="4.66663">
        <ele>384.4</ele>
        <time>2025-04-30T13:09:21Z</time>
      </trkpt>
      <trkpt lat="45.70434" lon="4.6666">
        <ele>384.4</ele>
        <time>2025-04-30T13:09:22Z</time>
      </trkpt>
      <trkpt lat="45.70435" lon="4.66656">
        <ele>384.6</ele>
        <time>2025-04-30T13:09:23Z</time>
      </trkpt>
      <trkpt lat="45.70436" lon="4.66652">
        <ele>385.2</ele>
        <time>2025-04-30T13:09:24Z</time>
      </trkpt>
      <trkpt lat="45.70437" lon="4.66649">
        <ele>385.4</ele>
        <time>2025-04-30T13:09:25Z</time>
      </trkpt>
      <trkpt lat="45.70439" lon="4.66646">
        <ele>385.4</ele>
        <time>2025-04-30T13:09:26Z</time>
      </trkpt>
      <trkpt lat="45.7044" lon="4.66642">
        <ele>385.6</ele>
        <time>2025-04-30T13:09:27Z</time>
      </trkpt>
      <trkpt lat="45.70442" lon="4.66639">
        <ele>385.8</ele>
        <time>2025-04-30T13:09:28Z</time>
      </trkpt>
      <trkpt lat="45.70443" lon="4.66635">
        <ele>386</ele>
        <time>2025-04-30T13:09:29Z</time>
      </trkpt>
      <trkpt lat="45.70444" lon="4.66631">
        <ele>386.2</ele>
        <time>2025-04-30T13:09:30Z</time>
      </trkpt>
      <trkpt lat="45.70446" lon="4.66628">
        <ele>386.6</ele>
        <time>2025-04-30T13:09:31Z</time>
      </trkpt>
      <trkpt lat="45.70447" lon="4.66625">
        <ele>387</ele>
        <time>2025-04-30T13:09:32Z</time>
      </trkpt>
      <trkpt lat="45.70448" lon="4.66622">
        <ele>387.2</ele>
        <time>2025-04-30T13:09:33Z</time>
      </trkpt>
      <trkpt lat="45.7045" lon="4.66619">
        <ele>387.4</ele>
        <time>2025-04-30T13:09:34Z</time>
      </trkpt>
      <trkpt lat="45.70451" lon="4.66615">
        <ele>387.6</ele>
        <time>2025-04-30T13:09:35Z</time>
      </trkpt>
      <trkpt lat="45.70452" lon="4.66612">
        <ele>388</ele>
        <time>2025-04-30T13:09:36Z</time>
      </trkpt>
      <trkpt lat="45.70453" lon="4.66609">
        <ele>388.2</ele>
        <time>2025-04-30T13:09:37Z</time>
      </trkpt>
      <trkpt lat="45.70454" lon="4.66606">
        <ele>388.4</ele>
        <time>2025-04-30T13:09:38Z</time>
      </trkpt>
      <trkpt lat="45.70455" lon="4.66603">
        <ele>388.8</ele>
        <time>2025-04-30T13:09:39Z</time>
      </trkpt>
      <trkpt lat="45.70456" lon="4.666">
        <ele>389</ele>
        <time>2025-04-30T13:09:40Z</time>
      </trkpt>
      <trkpt lat="45.70457" lon="4.66597">
        <ele>389.4</ele>
        <time>2025-04-30T13:09:41Z</time>
      </trkpt>
      <trkpt lat="45.70458" lon="4.66594">
        <ele>389.8</ele>
        <time>2025-04-30T13:09:42Z</time>
      </trkpt>
      <trkpt lat="45.70459" lon="4.66592">
        <ele>390</ele>
        <time>2025-04-30T13:09:43Z</time>
      </trkpt>
      <trkpt lat="45.70459" lon="4.66589">
        <ele>390.4</ele>
        <time>2025-04-30T13:09:44Z</time>
      </trkpt>
      <trkpt lat="45.7046" lon="4.66587">
        <ele>390.8</ele>
        <time>2025-04-30T13:09:45Z</time>
      </trkpt>
      <trkpt lat="45.70461" lon="4.66585">
        <ele>391</ele>
        <time>2025-04-30T13:09:46Z</time>
      </trkpt>
      <trkpt lat="45.70461" lon="4.66583">
        <ele>391.2</ele>
        <time>2025-04-30T13:09:47Z</time>
      </trkpt>
      <trkpt lat="45.70462" lon="4.66581">
        <ele>391.4</ele>
        <time>2025-04-30T13:09:48Z</time>
      </trkpt>
      <trkpt lat="45.70463" lon="4.66579">
        <ele>391.6</ele>
        <time>2025-04-30T13:09:49Z</time>
      </trkpt>
      <trkpt lat="45.70464" lon="4.66575">
        <ele>391.8</ele>
        <time>2025-04-30T13:09:50Z</time>
      </trkpt>
      <trkpt lat="45.70464" lon="4.66572">
        <ele>392</ele>
        <time>2025-04-30T13:09:51Z</time>
      </trkpt>
      <trkpt lat="45.70465" lon="4.66568">
        <ele>392</ele>
        <time>2025-04-30T13:09:52Z</time>
      </trkpt>
      <trkpt lat="45.70465" lon="4.66565">
        <ele>392.2</ele>
        <time>2025-04-30T13:09:53Z</time>
      </trkpt>
      <trkpt lat="45.70466" lon="4.66561">
        <ele>392.2</ele>
        <time>2025-04-30T13:09:54Z</time>
      </trkpt>
      <trkpt lat="45.70468" lon="4.66557">
        <ele>392.4</ele>
        <time>2025-04-30T13:09:55Z</time>
      </trkpt>
      <trkpt lat="45.70469" lon="4.66554">
        <ele>392.6</ele>
        <time>2025-04-30T13:09:56Z</time>
      </trkpt>
      <trkpt lat="45.7047" lon="4.66551">
        <ele>393</ele>
        <time>2025-04-30T13:09:57Z</time>
      </trkpt>
      <trkpt lat="45.70471" lon="4.66548">
        <ele>393.2</ele>
        <time>2025-04-30T13:09:58Z</time>
      </trkpt>
      <trkpt lat="45.70472" lon="4.66545">
        <ele>393.4</ele>
        <time>2025-04-30T13:09:59Z</time>
      </trkpt>
      <trkpt lat="45.70473" lon="4.66541">
        <ele>393.6</ele>
        <time>2025-04-30T13:10:00Z</time>
      </trkpt>
      <trkpt lat="45.70474" lon="4.66538">
        <ele>393.8</ele>
        <time>2025-04-30T13:10:01Z</time>
      </trkpt>
      <trkpt lat="45.70475" lon="4.66534">
        <ele>394.2</ele>
        <time>2025-04-30T13:10:02Z</time>
      </trkpt>
      <trkpt lat="45.70476" lon="4.6653">
        <ele>394.4</ele>
        <time>2025-04-30T13:10:03Z</time>
      </trkpt>
      <trkpt lat="45.70476" lon="4.66526">
        <ele>394.6</ele>
        <time>2025-04-30T13:10:04Z</time>
      </trkpt>
      <trkpt lat="45.70477" lon="4.66522">
        <ele>395</ele>
        <time>2025-04-30T13:10:05Z</time>
      </trkpt>
      <trkpt lat="45.70477" lon="4.66518">
        <ele>395.2</ele>
        <time>2025-04-30T13:10:06Z</time>
      </trkpt>
      <trkpt lat="45.70477" lon="4.66514">
        <ele>395.4</ele>
        <time>2025-04-30T13:10:07Z</time>
      </trkpt>
      <trkpt lat="45.70478" lon="4.66511">
        <ele>395.6</ele>
        <time>2025-04-30T13:10:08Z</time>
      </trkpt>
      <trkpt lat="45.70479" lon="4.66508">
        <ele>395.6</ele>
        <time>2025-04-30T13:10:09Z</time>
      </trkpt>
      <trkpt lat="45.70479" lon="4.66505">
        <ele>395.8</ele>
        <time>2025-04-30T13:10:10Z</time>
      </trkpt>
      <trkpt lat="45.7048" lon="4.66502">
        <ele>396.2</ele>
        <time>2025-04-30T13:10:11Z</time>
      </trkpt>
      <trkpt lat="45.7048" lon="4.66499">
        <ele>396.6</ele>
        <time>2025-04-30T13:10:12Z</time>
      </trkpt>
      <trkpt lat="45.70481" lon="4.66496">
        <ele>397</ele>
        <time>2025-04-30T13:10:13Z</time>
      </trkpt>
      <trkpt lat="45.70481" lon="4.66493">
        <ele>397.4</ele>
        <time>2025-04-30T13:10:14Z</time>
      </trkpt>
      <trkpt lat="45.70482" lon="4.6649">
        <ele>397.6</ele>
        <time>2025-04-30T13:10:15Z</time>
      </trkpt>
      <trkpt lat="45.70482" lon="4.66487">
        <ele>398.2</ele>
        <time>2025-04-30T13:10:16Z</time>
      </trkpt>
      <trkpt lat="45.70482" lon="4.66485">
        <ele>398.4</ele>
        <time>2025-04-30T13:10:17Z</time>
      </trkpt>
      <trkpt lat="45.70483" lon="4.66482">
        <ele>398.8</ele>
        <time>2025-04-30T13:10:18Z</time>
      </trkpt>
      <trkpt lat="45.70484" lon="4.6648">
        <ele>399</ele>
        <time>2025-04-30T13:10:19Z</time>
      </trkpt>
      <trkpt lat="45.70484" lon="4.66477">
        <ele>399.4</ele>
        <time>2025-04-30T13:10:20Z</time>
      </trkpt>
      <trkpt lat="45.70485" lon="4.66474">
        <ele>399.8</ele>
        <time>2025-04-30T13:10:21Z</time>
      </trkpt>
      <trkpt lat="45.70485" lon="4.66472">
        <ele>400.2</ele>
        <time>2025-04-30T13:10:22Z</time>
      </trkpt>
      <trkpt lat="45.70486" lon="4.66469">
        <ele>400.4</ele>
        <time>2025-04-30T13:10:23Z</time>
      </trkpt>
      <trkpt lat="45.70486" lon="4.66466">
        <ele>400.6</ele>
        <time>2025-04-30T13:10:24Z</time>
      </trkpt>
      <trkpt lat="45.70487" lon="4.66464">
        <ele>401</ele>
        <time>2025-04-30T13:10:25Z</time>
      </trkpt>
      <trkpt lat="45.70488" lon="4.66461">
        <ele>401.2</ele>
        <time>2025-04-30T13:10:26Z</time>
      </trkpt>
      <trkpt lat="45.70489" lon="4.66459">
        <ele>401.6</ele>
        <time>2025-04-30T13:10:27Z</time>
      </trkpt>
      <trkpt lat="45.70489" lon="4.66457">
        <ele>401.8</ele>
        <time>2025-04-30T13:10:28Z</time>
      </trkpt>
      <trkpt lat="45.7049" lon="4.66454">
        <ele>402</ele>
        <time>2025-04-30T13:10:29Z</time>
      </trkpt>
      <trkpt lat="45.7049" lon="4.66452">
        <ele>402.2</ele>
        <time>2025-04-30T13:10:30Z</time>
      </trkpt>
      <trkpt lat="45.70491" lon="4.66449">
        <ele>402.6</ele>
        <time>2025-04-30T13:10:31Z</time>
      </trkpt>
      <trkpt lat="45.70492" lon="4.66446">
        <ele>402.8</ele>
        <time>2025-04-30T13:10:32Z</time>
      </trkpt>
      <trkpt lat="45.70493" lon="4.66443">
        <ele>403</ele>
        <time>2025-04-30T13:10:33Z</time>
      </trkpt>
      <trkpt lat="45.70494" lon="4.6644">
        <ele>403.2</ele>
        <time>2025-04-30T13:10:34Z</time>
      </trkpt>
      <trkpt lat="45.70495" lon="4.66437">
        <ele>403.4</ele>
        <time>2025-04-30T13:10:35Z</time>
      </trkpt>
      <trkpt lat="45.70496" lon="4.66434">
        <ele>403.6</ele>
        <time>2025-04-30T13:10:36Z</time>
      </trkpt>
      <trkpt lat="45.70497" lon="4.66431">
        <ele>403.8</ele>
        <time>2025-04-30T13:10:37Z</time>
      </trkpt>
      <trkpt lat="45.70498" lon="4.66428">
        <ele>403.8</ele>
        <time>2025-04-30T13:10:38Z</time>
      </trkpt>
      <trkpt lat="45.70499" lon="4.66425">
        <ele>404.2</ele>
        <time>2025-04-30T13:10:39Z</time>
      </trkpt>
      <trkpt lat="45.70499" lon="4.66422">
        <ele>404.4</ele>
        <time>2025-04-30T13:10:40Z</time>
      </trkpt>
      <trkpt lat="45.705" lon="4.66418">
        <ele>404.6</ele>
        <time>2025-04-30T13:10:41Z</time>
      </trkpt>
      <trkpt lat="45.70502" lon="4.66415">
        <ele>405</ele>
        <time>2025-04-30T13:10:42Z</time>
      </trkpt>
      <trkpt lat="45.70503" lon="4.66412">
        <ele>405.2</ele>
        <time>2025-04-30T13:10:43Z</time>
      </trkpt>
      <trkpt lat="45.70504" lon="4.66409">
        <ele>405.6</ele>
        <time>2025-04-30T13:10:44Z</time>
      </trkpt>
      <trkpt lat="45.70505" lon="4.66406">
        <ele>405.8</ele>
        <time>2025-04-30T13:10:45Z</time>
      </trkpt>
      <trkpt lat="45.70506" lon="4.66403">
        <ele>406</ele>
        <time>2025-04-30T13:10:46Z</time>
      </trkpt>
      <trkpt lat="45.70506" lon="4.664">
        <ele>406.4</ele>
        <time>2025-04-30T13:10:47Z</time>
      </trkpt>
      <trkpt lat="45.70507" lon="4.66397">
        <ele>406.4</ele>
        <time>2025-04-30T13:10:48Z</time>
      </trkpt>
      <trkpt lat="45.70508" lon="4.66394">
        <ele>406.6</ele>
        <time>2025-04-30T13:10:49Z</time>
      </trkpt>
      <trkpt lat="45.70509" lon="4.66391">
        <ele>407</ele>
        <time>2025-04-30T13:10:50Z</time>
      </trkpt>
      <trkpt lat="45.7051" lon="4.66387">
        <ele>407.2</ele>
        <time>2025-04-30T13:10:51Z</time>
      </trkpt>
      <trkpt lat="45.70511" lon="4.66384">
        <ele>407.4</ele>
        <time>2025-04-30T13:10:52Z</time>
      </trkpt>
      <trkpt lat="45.70512" lon="4.66381">
        <ele>407.6</ele>
        <time>2025-04-30T13:10:53Z</time>
      </trkpt>
      <trkpt lat="45.70513" lon="4.66377">
        <ele>408</ele>
        <time>2025-04-30T13:10:54Z</time>
      </trkpt>
      <trkpt lat="45.70514" lon="4.66374">
        <ele>408.2</ele>
        <time>2025-04-30T13:10:55Z</time>
      </trkpt>
      <trkpt lat="45.70515" lon="4.6637">
        <ele>408.4</ele>
        <time>2025-04-30T13:10:56Z</time>
      </trkpt>
      <trkpt lat="45.70515" lon="4.66367">
        <ele>408.6</ele>
        <time>2025-04-30T13:10:57Z</time>
      </trkpt>
      <trkpt lat="45.70516" lon="4.66364">
        <ele>408.8</ele>
        <time>2025-04-30T13:10:58Z</time>
      </trkpt>
      <trkpt lat="45.70517" lon="4.66361">
        <ele>409</ele>
        <time>2025-04-30T13:10:59Z</time>
      </trkpt>
      <trkpt lat="45.70518" lon="4.66357">
        <ele>409.2</ele>
        <time>2025-04-30T13:11:00Z</time>
      </trkpt>
      <trkpt lat="45.70519" lon="4.66354">
        <ele>409.4</ele>
        <time>2025-04-30T13:11:01Z</time>
      </trkpt>
      <trkpt lat="45.70519" lon="4.6635">
        <ele>409.6</ele>
        <time>2025-04-30T13:11:02Z</time>
      </trkpt>
      <trkpt lat="45.7052" lon="4.66347">
        <ele>409.6</ele>
        <time>2025-04-30T13:11:03Z</time>
      </trkpt>
      <trkpt lat="45.7052" lon="4.66343">
        <ele>409.8</ele>
        <time>2025-04-30T13:11:04Z</time>
      </trkpt>
      <trkpt lat="45.70521" lon="4.6634">
        <ele>410</ele>
        <time>2025-04-30T13:11:05Z</time>
      </trkpt>
      <trkpt lat="45.70522" lon="4.66337">
        <ele>410.4</ele>
        <time>2025-04-30T13:11:06Z</time>
      </trkpt>
      <trkpt lat="45.70523" lon="4.66334">
        <ele>410.4</ele>
        <time>2025-04-30T13:11:07Z</time>
      </trkpt>
      <trkpt lat="45.70524" lon="4.6633">
        <ele>410.8</ele>
        <time>2025-04-30T13:11:08Z</time>
      </trkpt>
      <trkpt lat="45.70524" lon="4.66327">
        <ele>411</ele>
        <time>2025-04-30T13:11:09Z</time>
      </trkpt>
      <trkpt lat="45.70524" lon="4.66323">
        <ele>411.4</ele>
        <time>2025-04-30T13:11:10Z</time>
      </trkpt>
      <trkpt lat="45.70524" lon="4.6632">
        <ele>411.6</ele>
        <time>2025-04-30T13:11:11Z</time>
      </trkpt>
      <trkpt lat="45.70524" lon="4.66316">
        <ele>411.6</ele>
        <time>2025-04-30T13:11:12Z</time>
      </trkpt>
      <trkpt lat="45.70524" lon="4.66312">
        <ele>411.8</ele>
        <time>2025-04-30T13:11:13Z</time>
      </trkpt>
      <trkpt lat="45.70524" lon="4.66308">
        <ele>411.8</ele>
        <time>2025-04-30T13:11:14Z</time>
      </trkpt>
      <trkpt lat="45.70525" lon="4.66303">
        <ele>412</ele>
        <time>2025-04-30T13:11:15Z</time>
      </trkpt>
      <trkpt lat="45.70525" lon="4.66299">
        <ele>412</ele>
        <time>2025-04-30T13:11:16Z</time>
      </trkpt>
      <trkpt lat="45.70527" lon="4.66296">
        <ele>412.2</ele>
        <time>2025-04-30T13:11:17Z</time>
      </trkpt>
      <trkpt lat="45.70528" lon="4.66292">
        <ele>412.4</ele>
        <time>2025-04-30T13:11:18Z</time>
      </trkpt>
      <trkpt lat="45.70531" lon="4.66289">
        <ele>412.6</ele>
        <time>2025-04-30T13:11:19Z</time>
      </trkpt>
      <trkpt lat="45.70533" lon="4.66286">
        <ele>412.6</ele>
        <time>2025-04-30T13:11:20Z</time>
      </trkpt>
      <trkpt lat="45.70536" lon="4.66283">
        <ele>412.6</ele>
        <time>2025-04-30T13:11:21Z</time>
      </trkpt>
      <trkpt lat="45.70538" lon="4.6628">
        <ele>412.6</ele>
        <time>2025-04-30T13:11:22Z</time>
      </trkpt>
      <trkpt lat="45.7054" lon="4.66277">
        <ele>412.6</ele>
        <time>2025-04-30T13:11:23Z</time>
      </trkpt>
      <trkpt lat="45.70542" lon="4.66274">
        <ele>412.6</ele>
        <time>2025-04-30T13:11:24Z</time>
      </trkpt>
      <trkpt lat="45.70544" lon="4.66271">
        <ele>412.6</ele>
        <time>2025-04-30T13:11:25Z</time>
      </trkpt>
      <trkpt lat="45.70546" lon="4.66268">
        <ele>413</ele>
        <time>2025-04-30T13:11:26Z</time>
      </trkpt>
      <trkpt lat="45.70548" lon="4.66266">
        <ele>413.4</ele>
        <time>2025-04-30T13:11:27Z</time>
      </trkpt>
      <trkpt lat="45.7055" lon="4.66262">
        <ele>413.8</ele>
        <time>2025-04-30T13:11:28Z</time>
      </trkpt>
      <trkpt lat="45.70552" lon="4.66259">
        <ele>414</ele>
        <time>2025-04-30T13:11:29Z</time>
      </trkpt>
      <trkpt lat="45.70555" lon="4.66255">
        <ele>414</ele>
        <time>2025-04-30T13:11:30Z</time>
      </trkpt>
      <trkpt lat="45.70557" lon="4.66251">
        <ele>414.2</ele>
        <time>2025-04-30T13:11:31Z</time>
      </trkpt>
      <trkpt lat="45.70559" lon="4.66248">
        <ele>414.4</ele>
        <time>2025-04-30T13:11:32Z</time>
      </trkpt>
      <trkpt lat="45.70562" lon="4.66244">
        <ele>414.6</ele>
        <time>2025-04-30T13:11:33Z</time>
      </trkpt>
      <trkpt lat="45.70564" lon="4.66241">
        <ele>414.8</ele>
        <time>2025-04-30T13:11:34Z</time>
      </trkpt>
      <trkpt lat="45.70566" lon="4.66238">
        <ele>415.2</ele>
        <time>2025-04-30T13:11:35Z</time>
      </trkpt>
      <trkpt lat="45.70569" lon="4.66235">
        <ele>415.4</ele>
        <time>2025-04-30T13:11:36Z</time>
      </trkpt>
      <trkpt lat="45.70572" lon="4.66232">
        <ele>415.6</ele>
        <time>2025-04-30T13:11:37Z</time>
      </trkpt>
      <trkpt lat="45.70574" lon="4.66229">
        <ele>415.6</ele>
        <time>2025-04-30T13:11:38Z</time>
      </trkpt>
      <trkpt lat="45.70577" lon="4.66226">
        <ele>415.6</ele>
        <time>2025-04-30T13:11:39Z</time>
      </trkpt>
      <trkpt lat="45.70579" lon="4.66223">
        <ele>415.8</ele>
        <time>2025-04-30T13:11:40Z</time>
      </trkpt>
      <trkpt lat="45.70581" lon="4.6622">
        <ele>415.8</ele>
        <time>2025-04-30T13:11:41Z</time>
      </trkpt>
      <trkpt lat="45.70583" lon="4.66216">
        <ele>416.2</ele>
        <time>2025-04-30T13:11:42Z</time>
      </trkpt>
      <trkpt lat="45.70586" lon="4.66213">
        <ele>416.4</ele>
        <time>2025-04-30T13:11:43Z</time>
      </trkpt>
      <trkpt lat="45.70588" lon="4.6621">
        <ele>416.8</ele>
        <time>2025-04-30T13:11:44Z</time>
      </trkpt>
      <trkpt lat="45.7059" lon="4.66207">
        <ele>417</ele>
        <time>2025-04-30T13:11:45Z</time>
      </trkpt>
      <trkpt lat="45.70592" lon="4.66202">
        <ele>417.2</ele>
        <time>2025-04-30T13:11:46Z</time>
      </trkpt>
      <trkpt lat="45.70594" lon="4.66199">
        <ele>417.4</ele>
        <time>2025-04-30T13:11:47Z</time>
      </trkpt>
      <trkpt lat="45.70596" lon="4.66195">
        <ele>417.6</ele>
        <time>2025-04-30T13:11:48Z</time>
      </trkpt>
      <trkpt lat="45.70598" lon="4.66191">
        <ele>417.8</ele>
        <time>2025-04-30T13:11:49Z</time>
      </trkpt>
      <trkpt lat="45.706" lon="4.66187">
        <ele>418</ele>
        <time>2025-04-30T13:11:50Z</time>
      </trkpt>
      <trkpt lat="45.70602" lon="4.66184">
        <ele>418.2</ele>
        <time>2025-04-30T13:11:51Z</time>
      </trkpt>
      <trkpt lat="45.70604" lon="4.66179">
        <ele>418.4</ele>
        <time>2025-04-30T13:11:52Z</time>
      </trkpt>
      <trkpt lat="45.70606" lon="4.66175">
        <ele>418.4</ele>
        <time>2025-04-30T13:11:53Z</time>
      </trkpt>
      <trkpt lat="45.70607" lon="4.66171">
        <ele>418.6</ele>
        <time>2025-04-30T13:11:54Z</time>
      </trkpt>
      <trkpt lat="45.70609" lon="4.66167">
        <ele>418.6</ele>
        <time>2025-04-30T13:11:55Z</time>
      </trkpt>
      <trkpt lat="45.70611" lon="4.66163">
        <ele>418.8</ele>
        <time>2025-04-30T13:11:56Z</time>
      </trkpt>
      <trkpt lat="45.70613" lon="4.6616">
        <ele>419</ele>
        <time>2025-04-30T13:11:57Z</time>
      </trkpt>
      <trkpt lat="45.70614" lon="4.66156">
        <ele>419.2</ele>
        <time>2025-04-30T13:11:58Z</time>
      </trkpt>
      <trkpt lat="45.70616" lon="4.66152">
        <ele>419.6</ele>
        <time>2025-04-30T13:11:59Z</time>
      </trkpt>
      <trkpt lat="45.70618" lon="4.66148">
        <ele>420</ele>
        <time>2025-04-30T13:12:00Z</time>
      </trkpt>
      <trkpt lat="45.7062" lon="4.66144">
        <ele>420.2</ele>
        <time>2025-04-30T13:12:01Z</time>
      </trkpt>
      <trkpt lat="45.70621" lon="4.66139">
        <ele>420.4</ele>
        <time>2025-04-30T13:12:02Z</time>
      </trkpt>
      <trkpt lat="45.70623" lon="4.66135">
        <ele>420.4</ele>
        <time>2025-04-30T13:12:03Z</time>
      </trkpt>
      <trkpt lat="45.70624" lon="4.66131">
        <ele>420.6</ele>
        <time>2025-04-30T13:12:04Z</time>
      </trkpt>
      <trkpt lat="45.70626" lon="4.66127">
        <ele>421</ele>
        <time>2025-04-30T13:12:05Z</time>
      </trkpt>
      <trkpt lat="45.70628" lon="4.66122">
        <ele>421</ele>
        <time>2025-04-30T13:12:06Z</time>
      </trkpt>
      <trkpt lat="45.70629" lon="4.66118">
        <ele>421.2</ele>
        <time>2025-04-30T13:12:07Z</time>
      </trkpt>
      <trkpt lat="45.7063" lon="4.66114">
        <ele>421.4</ele>
        <time>2025-04-30T13:12:08Z</time>
      </trkpt>
      <trkpt lat="45.70632" lon="4.66109">
        <ele>421.6</ele>
        <time>2025-04-30T13:12:09Z</time>
      </trkpt>
      <trkpt lat="45.70633" lon="4.66104">
        <ele>422</ele>
        <time>2025-04-30T13:12:10Z</time>
      </trkpt>
      <trkpt lat="45.70634" lon="4.66099">
        <ele>422.2</ele>
        <time>2025-04-30T13:12:11Z</time>
      </trkpt>
      <trkpt lat="45.70635" lon="4.66094">
        <ele>422.2</ele>
        <time>2025-04-30T13:12:12Z</time>
      </trkpt>
      <trkpt lat="45.70636" lon="4.66088">
        <ele>422.2</ele>
        <time>2025-04-30T13:12:13Z</time>
      </trkpt>
      <trkpt lat="45.70636" lon="4.66083">
        <ele>422.2</ele>
        <time>2025-04-30T13:12:14Z</time>
      </trkpt>
      <trkpt lat="45.70637" lon="4.66078">
        <ele>422.4</ele>
        <time>2025-04-30T13:12:15Z</time>
      </trkpt>
      <trkpt lat="45.70637" lon="4.66072">
        <ele>422.4</ele>
        <time>2025-04-30T13:12:16Z</time>
      </trkpt>
      <trkpt lat="45.70637" lon="4.66067">
        <ele>422.4</ele>
        <time>2025-04-30T13:12:17Z</time>
      </trkpt>
      <trkpt lat="45.70638" lon="4.66061">
        <ele>422.6</ele>
        <time>2025-04-30T13:12:18Z</time>
      </trkpt>
      <trkpt lat="45.70638" lon="4.66056">
        <ele>422.6</ele>
        <time>2025-04-30T13:12:19Z</time>
      </trkpt>
      <trkpt lat="45.70638" lon="4.6605">
        <ele>422.6</ele>
        <time>2025-04-30T13:12:20Z</time>
      </trkpt>
      <trkpt lat="45.70638" lon="4.66045">
        <ele>422.8</ele>
        <time>2025-04-30T13:12:21Z</time>
      </trkpt>
      <trkpt lat="45.70638" lon="4.6604">
        <ele>422.8</ele>
        <time>2025-04-30T13:12:22Z</time>
      </trkpt>
      <trkpt lat="45.70638" lon="4.66035">
        <ele>423</ele>
        <time>2025-04-30T13:12:23Z</time>
      </trkpt>
      <trkpt lat="45.70638" lon="4.6603">
        <ele>423.2</ele>
        <time>2025-04-30T13:12:24Z</time>
      </trkpt>
      <trkpt lat="45.70638" lon="4.66026">
        <ele>423.2</ele>
        <time>2025-04-30T13:12:25Z</time>
      </trkpt>
      <trkpt lat="45.70638" lon="4.66021">
        <ele>423.6</ele>
        <time>2025-04-30T13:12:26Z</time>
      </trkpt>
      <trkpt lat="45.70638" lon="4.66016">
        <ele>423.8</ele>
        <time>2025-04-30T13:12:27Z</time>
      </trkpt>
      <trkpt lat="45.70638" lon="4.66011">
        <ele>424.2</ele>
        <time>2025-04-30T13:12:28Z</time>
      </trkpt>
      <trkpt lat="45.70638" lon="4.66006">
        <ele>424.4</ele>
        <time>2025-04-30T13:12:29Z</time>
      </trkpt>
      <trkpt lat="45.70638" lon="4.66001">
        <ele>424.8</ele>
        <time>2025-04-30T13:12:30Z</time>
      </trkpt>
      <trkpt lat="45.70638" lon="4.65996">
        <ele>425</ele>
        <time>2025-04-30T13:12:31Z</time>
      </trkpt>
      <trkpt lat="45.70638" lon="4.65991">
        <ele>425</ele>
        <time>2025-04-30T13:12:32Z</time>
      </trkpt>
      <trkpt lat="45.70639" lon="4.65987">
        <ele>425.2</ele>
        <time>2025-04-30T13:12:33Z</time>
      </trkpt>
      <trkpt lat="45.70639" lon="4.65983">
        <ele>425.6</ele>
        <time>2025-04-30T13:12:34Z</time>
      </trkpt>
      <trkpt lat="45.7064" lon="4.6598">
        <ele>425.8</ele>
        <time>2025-04-30T13:12:35Z</time>
      </trkpt>
      <trkpt lat="45.7064" lon="4.65976">
        <ele>426.2</ele>
        <time>2025-04-30T13:12:36Z</time>
      </trkpt>
      <trkpt lat="45.7064" lon="4.65972">
        <ele>426.6</ele>
        <time>2025-04-30T13:12:37Z</time>
      </trkpt>
      <trkpt lat="45.70641" lon="4.65968">
        <ele>426.8</ele>
        <time>2025-04-30T13:12:38Z</time>
      </trkpt>
      <trkpt lat="45.7064" lon="4.65964">
        <ele>427</ele>
        <time>2025-04-30T13:12:39Z</time>
      </trkpt>
      <trkpt lat="45.7064" lon="4.6596">
        <ele>427.2</ele>
        <time>2025-04-30T13:12:40Z</time>
      </trkpt>
      <trkpt lat="45.7064" lon="4.65956">
        <ele>427.4</ele>
        <time>2025-04-30T13:12:41Z</time>
      </trkpt>
      <trkpt lat="45.7064" lon="4.65952">
        <ele>427.8</ele>
        <time>2025-04-30T13:12:42Z</time>
      </trkpt>
      <trkpt lat="45.7064" lon="4.65948">
        <ele>428</ele>
        <time>2025-04-30T13:12:43Z</time>
      </trkpt>
      <trkpt lat="45.7064" lon="4.65944">
        <ele>428.4</ele>
        <time>2025-04-30T13:12:44Z</time>
      </trkpt>
      <trkpt lat="45.7064" lon="4.6594">
        <ele>428.6</ele>
        <time>2025-04-30T13:12:45Z</time>
      </trkpt>
      <trkpt lat="45.7064" lon="4.65936">
        <ele>428.8</ele>
        <time>2025-04-30T13:12:46Z</time>
      </trkpt>
      <trkpt lat="45.70639" lon="4.65931">
        <ele>429.2</ele>
        <time>2025-04-30T13:12:47Z</time>
      </trkpt>
      <trkpt lat="45.70639" lon="4.65927">
        <ele>429.4</ele>
        <time>2025-04-30T13:12:48Z</time>
      </trkpt>
      <trkpt lat="45.7064" lon="4.65924">
        <ele>429.6</ele>
        <time>2025-04-30T13:12:49Z</time>
      </trkpt>
      <trkpt lat="45.7064" lon="4.6592">
        <ele>430</ele>
        <time>2025-04-30T13:12:50Z</time>
      </trkpt>
      <trkpt lat="45.7064" lon="4.65916">
        <ele>430.2</ele>
        <time>2025-04-30T13:12:51Z</time>
      </trkpt>
      <trkpt lat="45.7064" lon="4.65912">
        <ele>430.6</ele>
        <time>2025-04-30T13:12:52Z</time>
      </trkpt>
      <trkpt lat="45.7064" lon="4.65909">
        <ele>431</ele>
        <time>2025-04-30T13:12:53Z</time>
      </trkpt>
      <trkpt lat="45.70641" lon="4.65906">
        <ele>431.2</ele>
        <time>2025-04-30T13:12:54Z</time>
      </trkpt>
      <trkpt lat="45.70642" lon="4.65903">
        <ele>431.4</ele>
        <time>2025-04-30T13:12:55Z</time>
      </trkpt>
      <trkpt lat="45.70642" lon="4.65899">
        <ele>432</ele>
        <time>2025-04-30T13:12:56Z</time>
      </trkpt>
      <trkpt lat="45.70643" lon="4.65896">
        <ele>432.2</ele>
        <time>2025-04-30T13:12:57Z</time>
      </trkpt>
      <trkpt lat="45.70643" lon="4.65892">
        <ele>432.4</ele>
        <time>2025-04-30T13:12:58Z</time>
      </trkpt>
      <trkpt lat="45.70643" lon="4.65888">
        <ele>432.6</ele>
        <time>2025-04-30T13:12:59Z</time>
      </trkpt>
      <trkpt lat="45.70643" lon="4.65884">
        <ele>433</ele>
        <time>2025-04-30T13:13:00Z</time>
      </trkpt>
      <trkpt lat="45.70643" lon="4.6588">
        <ele>433.4</ele>
        <time>2025-04-30T13:13:01Z</time>
      </trkpt>
      <trkpt lat="45.70643" lon="4.65876">
        <ele>433.8</ele>
        <time>2025-04-30T13:13:02Z</time>
      </trkpt>
      <trkpt lat="45.70643" lon="4.65872">
        <ele>434</ele>
        <time>2025-04-30T13:13:03Z</time>
      </trkpt>
      <trkpt lat="45.70643" lon="4.65868">
        <ele>434.4</ele>
        <time>2025-04-30T13:13:04Z</time>
      </trkpt>
      <trkpt lat="45.70643" lon="4.65865">
        <ele>434.8</ele>
        <time>2025-04-30T13:13:05Z</time>
      </trkpt>
      <trkpt lat="45.70644" lon="4.65861">
        <ele>435</ele>
        <time>2025-04-30T13:13:06Z</time>
      </trkpt>
      <trkpt lat="45.70645" lon="4.65858">
        <ele>435.4</ele>
        <time>2025-04-30T13:13:07Z</time>
      </trkpt>
      <trkpt lat="45.70646" lon="4.65855">
        <ele>435.8</ele>
        <time>2025-04-30T13:13:08Z</time>
      </trkpt>
      <trkpt lat="45.70647" lon="4.65852">
        <ele>436</ele>
        <time>2025-04-30T13:13:09Z</time>
      </trkpt>
      <trkpt lat="45.70649" lon="4.65849">
        <ele>436.6</ele>
        <time>2025-04-30T13:13:10Z</time>
      </trkpt>
      <trkpt lat="45.7065" lon="4.65847">
        <ele>436.8</ele>
        <time>2025-04-30T13:13:11Z</time>
      </trkpt>
      <trkpt lat="45.70651" lon="4.65844">
        <ele>437</ele>
        <time>2025-04-30T13:13:12Z</time>
      </trkpt>
      <trkpt lat="45.70652" lon="4.65842">
        <ele>437.2</ele>
        <time>2025-04-30T13:13:13Z</time>
      </trkpt>
      <trkpt lat="45.70653" lon="4.65839">
        <ele>437.6</ele>
        <time>2025-04-30T13:13:14Z</time>
      </trkpt>
      <trkpt lat="45.70654" lon="4.65837">
        <ele>437.8</ele>
        <time>2025-04-30T13:13:15Z</time>
      </trkpt>
      <trkpt lat="45.70655" lon="4.65835">
        <ele>438.2</ele>
        <time>2025-04-30T13:13:16Z</time>
      </trkpt>
      <trkpt lat="45.70656" lon="4.65833">
        <ele>438.6</ele>
        <time>2025-04-30T13:13:17Z</time>
      </trkpt>
      <trkpt lat="45.70657" lon="4.65832">
        <ele>439</ele>
        <time>2025-04-30T13:13:18Z</time>
      </trkpt>
      <trkpt lat="45.70659" lon="4.6583">
        <ele>439</ele>
        <time>2025-04-30T13:13:19Z</time>
      </trkpt>
      <trkpt lat="45.7066" lon="4.65828">
        <ele>439.6</ele>
        <time>2025-04-30T13:13:20Z</time>
      </trkpt>
      <trkpt lat="45.70662" lon="4.65825">
        <ele>439.6</ele>
        <time>2025-04-30T13:13:21Z</time>
      </trkpt>
      <trkpt lat="45.70663" lon="4.65823">
        <ele>440</ele>
        <time>2025-04-30T13:13:22Z</time>
      </trkpt>
      <trkpt lat="45.70663" lon="4.65821">
        <ele>440.2</ele>
        <time>2025-04-30T13:13:23Z</time>
      </trkpt>
      <trkpt lat="45.70664" lon="4.65818">
        <ele>440.6</ele>
        <time>2025-04-30T13:13:24Z</time>
      </trkpt>
      <trkpt lat="45.70666" lon="4.65815">
        <ele>440.8</ele>
        <time>2025-04-30T13:13:25Z</time>
      </trkpt>
      <trkpt lat="45.70667" lon="4.65813">
        <ele>441</ele>
        <time>2025-04-30T13:13:26Z</time>
      </trkpt>
      <trkpt lat="45.70668" lon="4.6581">
        <ele>441.4</ele>
        <time>2025-04-30T13:13:27Z</time>
      </trkpt>
      <trkpt lat="45.70668" lon="4.65808">
        <ele>441.8</ele>
        <time>2025-04-30T13:13:28Z</time>
      </trkpt>
      <trkpt lat="45.70669" lon="4.65805">
        <ele>442</ele>
        <time>2025-04-30T13:13:29Z</time>
      </trkpt>
      <trkpt lat="45.7067" lon="4.65803">
        <ele>442.2</ele>
        <time>2025-04-30T13:13:30Z</time>
      </trkpt>
      <trkpt lat="45.70671" lon="4.658">
        <ele>442.8</ele>
        <time>2025-04-30T13:13:31Z</time>
      </trkpt>
      <trkpt lat="45.70672" lon="4.65797">
        <ele>443.2</ele>
        <time>2025-04-30T13:13:32Z</time>
      </trkpt>
      <trkpt lat="45.70672" lon="4.65794">
        <ele>443.6</ele>
        <time>2025-04-30T13:13:33Z</time>
      </trkpt>
      <trkpt lat="45.70672" lon="4.65791">
        <ele>443.8</ele>
        <time>2025-04-30T13:13:34Z</time>
      </trkpt>
      <trkpt lat="45.70673" lon="4.65788">
        <ele>444.2</ele>
        <time>2025-04-30T13:13:35Z</time>
      </trkpt>
      <trkpt lat="45.70673" lon="4.65785">
        <ele>444.4</ele>
        <time>2025-04-30T13:13:36Z</time>
      </trkpt>
      <trkpt lat="45.70673" lon="4.65782">
        <ele>444.6</ele>
        <time>2025-04-30T13:13:37Z</time>
      </trkpt>
      <trkpt lat="45.70673" lon="4.65778">
        <ele>444.8</ele>
        <time>2025-04-30T13:13:38Z</time>
      </trkpt>
      <trkpt lat="45.70673" lon="4.65775">
        <ele>445</ele>
        <time>2025-04-30T13:13:39Z</time>
      </trkpt>
      <trkpt lat="45.70673" lon="4.65772">
        <ele>445.4</ele>
        <time>2025-04-30T13:13:40Z</time>
      </trkpt>
      <trkpt lat="45.70672" lon="4.65769">
        <ele>445.6</ele>
        <time>2025-04-30T13:13:41Z</time>
      </trkpt>
      <trkpt lat="45.70672" lon="4.65765">
        <ele>445.8</ele>
        <time>2025-04-30T13:13:42Z</time>
      </trkpt>
      <trkpt lat="45.70672" lon="4.65762">
        <ele>446</ele>
        <time>2025-04-30T13:13:43Z</time>
      </trkpt>
      <trkpt lat="45.70672" lon="4.65759">
        <ele>446.2</ele>
        <time>2025-04-30T13:13:44Z</time>
      </trkpt>
      <trkpt lat="45.70673" lon="4.65756">
        <ele>446.6</ele>
        <time>2025-04-30T13:13:45Z</time>
      </trkpt>
      <trkpt lat="45.70673" lon="4.65753">
        <ele>446.8</ele>
        <time>2025-04-30T13:13:46Z</time>
      </trkpt>
      <trkpt lat="45.70673" lon="4.6575">
        <ele>447</ele>
        <time>2025-04-30T13:13:47Z</time>
      </trkpt>
      <trkpt lat="45.70673" lon="4.65747">
        <ele>447.2</ele>
        <time>2025-04-30T13:13:48Z</time>
      </trkpt>
      <trkpt lat="45.70673" lon="4.65743">
        <ele>447.4</ele>
        <time>2025-04-30T13:13:49Z</time>
      </trkpt>
      <trkpt lat="45.70674" lon="4.6574">
        <ele>447.6</ele>
        <time>2025-04-30T13:13:50Z</time>
      </trkpt>
      <trkpt lat="45.70674" lon="4.65737">
        <ele>448</ele>
        <time>2025-04-30T13:13:51Z</time>
      </trkpt>
      <trkpt lat="45.70674" lon="4.65733">
        <ele>448.2</ele>
        <time>2025-04-30T13:13:52Z</time>
      </trkpt>
      <trkpt lat="45.70674" lon="4.6573">
        <ele>448.4</ele>
        <time>2025-04-30T13:13:53Z</time>
      </trkpt>
      <trkpt lat="45.70674" lon="4.65727">
        <ele>448.8</ele>
        <time>2025-04-30T13:13:54Z</time>
      </trkpt>
      <trkpt lat="45.70674" lon="4.65724">
        <ele>449</ele>
        <time>2025-04-30T13:13:55Z</time>
      </trkpt>
      <trkpt lat="45.70675" lon="4.65721">
        <ele>449.2</ele>
        <time>2025-04-30T13:13:56Z</time>
      </trkpt>
      <trkpt lat="45.70675" lon="4.65717">
        <ele>449.6</ele>
        <time>2025-04-30T13:13:57Z</time>
      </trkpt>
      <trkpt lat="45.70675" lon="4.65714">
        <ele>449.8</ele>
        <time>2025-04-30T13:13:58Z</time>
      </trkpt>
      <trkpt lat="45.70675" lon="4.65711">
        <ele>450</ele>
        <time>2025-04-30T13:13:59Z</time>
      </trkpt>
      <trkpt lat="45.70675" lon="4.65707">
        <ele>450.2</ele>
        <time>2025-04-30T13:14:00Z</time>
      </trkpt>
      <trkpt lat="45.70675" lon="4.65704">
        <ele>450.4</ele>
        <time>2025-04-30T13:14:01Z</time>
      </trkpt>
      <trkpt lat="45.70674" lon="4.657">
        <ele>450.8</ele>
        <time>2025-04-30T13:14:02Z</time>
      </trkpt>
      <trkpt lat="45.70674" lon="4.65697">
        <ele>450.8</ele>
        <time>2025-04-30T13:14:03Z</time>
      </trkpt>
      <trkpt lat="45.70674" lon="4.65694">
        <ele>451.2</ele>
        <time>2025-04-30T13:14:04Z</time>
      </trkpt>
      <trkpt lat="45.70674" lon="4.6569">
        <ele>451.4</ele>
        <time>2025-04-30T13:14:05Z</time>
      </trkpt>
      <trkpt lat="45.70674" lon="4.65687">
        <ele>451.8</ele>
        <time>2025-04-30T13:14:06Z</time>
      </trkpt>
      <trkpt lat="45.70674" lon="4.65684">
        <ele>452</ele>
        <time>2025-04-30T13:14:07Z</time>
      </trkpt>
      <trkpt lat="45.70674" lon="4.65681">
        <ele>452.2</ele>
        <time>2025-04-30T13:14:08Z</time>
      </trkpt>
      <trkpt lat="45.70675" lon="4.65678">
        <ele>452.4</ele>
        <time>2025-04-30T13:14:09Z</time>
      </trkpt>
      <trkpt lat="45.70675" lon="4.65674">
        <ele>452.6</ele>
        <time>2025-04-30T13:14:10Z</time>
      </trkpt>
      <trkpt lat="45.70675" lon="4.65671">
        <ele>452.8</ele>
        <time>2025-04-30T13:14:11Z</time>
      </trkpt>
      <trkpt lat="45.70675" lon="4.65668">
        <ele>453.2</ele>
        <time>2025-04-30T13:14:12Z</time>
      </trkpt>
      <trkpt lat="45.70675" lon="4.65665">
        <ele>453.4</ele>
        <time>2025-04-30T13:14:13Z</time>
      </trkpt>
      <trkpt lat="45.70675" lon="4.65662">
        <ele>453.6</ele>
        <time>2025-04-30T13:14:14Z</time>
      </trkpt>
      <trkpt lat="45.70674" lon="4.65658">
        <ele>454</ele>
        <time>2025-04-30T13:14:15Z</time>
      </trkpt>
      <trkpt lat="45.70674" lon="4.65655">
        <ele>454.2</ele>
        <time>2025-04-30T13:14:16Z</time>
      </trkpt>
      <trkpt lat="45.70675" lon="4.65652">
        <ele>454.6</ele>
        <time>2025-04-30T13:14:17Z</time>
      </trkpt>
      <trkpt lat="45.70676" lon="4.65648">
        <ele>454.8</ele>
        <time>2025-04-30T13:14:18Z</time>
      </trkpt>
      <trkpt lat="45.70676" lon="4.65645">
        <ele>454.8</ele>
        <time>2025-04-30T13:14:19Z</time>
      </trkpt>
      <trkpt lat="45.70676" lon="4.65642">
        <ele>455.2</ele>
        <time>2025-04-30T13:14:20Z</time>
      </trkpt>
      <trkpt lat="45.70676" lon="4.65638">
        <ele>455.2</ele>
        <time>2025-04-30T13:14:21Z</time>
      </trkpt>
      <trkpt lat="45.70676" lon="4.65634">
        <ele>455.4</ele>
        <time>2025-04-30T13:14:22Z</time>
      </trkpt>
      <trkpt lat="45.70677" lon="4.6563">
        <ele>455.6</ele>
        <time>2025-04-30T13:14:23Z</time>
      </trkpt>
      <trkpt lat="45.70678" lon="4.65626">
        <ele>455.8</ele>
        <time>2025-04-30T13:14:24Z</time>
      </trkpt>
      <trkpt lat="45.70678" lon="4.65623">
        <ele>456</ele>
        <time>2025-04-30T13:14:25Z</time>
      </trkpt>
      <trkpt lat="45.70679" lon="4.65619">
        <ele>456.2</ele>
        <time>2025-04-30T13:14:26Z</time>
      </trkpt>
      <trkpt lat="45.7068" lon="4.65615">
        <ele>456.2</ele>
        <time>2025-04-30T13:14:27Z</time>
      </trkpt>
      <trkpt lat="45.7068" lon="4.65611">
        <ele>456.2</ele>
        <time>2025-04-30T13:14:28Z</time>
      </trkpt>
      <trkpt lat="45.70682" lon="4.65607">
        <ele>456.2</ele>
        <time>2025-04-30T13:14:29Z</time>
      </trkpt>
      <trkpt lat="45.70683" lon="4.65602">
        <ele>456.4</ele>
        <time>2025-04-30T13:14:30Z</time>
      </trkpt>
      <trkpt lat="45.70683" lon="4.65599">
        <ele>456.4</ele>
        <time>2025-04-30T13:14:31Z</time>
      </trkpt>
      <trkpt lat="45.70684" lon="4.65595">
        <ele>456.6</ele>
        <time>2025-04-30T13:14:32Z</time>
      </trkpt>
      <trkpt lat="45.70685" lon="4.65591">
        <ele>456.6</ele>
        <time>2025-04-30T13:14:33Z</time>
      </trkpt>
      <trkpt lat="45.70687" lon="4.65587">
        <ele>456.8</ele>
        <time>2025-04-30T13:14:34Z</time>
      </trkpt>
      <trkpt lat="45.70688" lon="4.65583">
        <ele>457</ele>
        <time>2025-04-30T13:14:35Z</time>
      </trkpt>
      <trkpt lat="45.70689" lon="4.6558">
        <ele>457</ele>
        <time>2025-04-30T13:14:36Z</time>
      </trkpt>
      <trkpt lat="45.7069" lon="4.65576">
        <ele>457.2</ele>
        <time>2025-04-30T13:14:37Z</time>
      </trkpt>
      <trkpt lat="45.70691" lon="4.65573">
        <ele>457.6</ele>
        <time>2025-04-30T13:14:38Z</time>
      </trkpt>
      <trkpt lat="45.70692" lon="4.6557">
        <ele>457.8</ele>
        <time>2025-04-30T13:14:39Z</time>
      </trkpt>
      <trkpt lat="45.70693" lon="4.65567">
        <ele>458</ele>
        <time>2025-04-30T13:14:40Z</time>
      </trkpt>
      <trkpt lat="45.70695" lon="4.65565">
        <ele>458.4</ele>
        <time>2025-04-30T13:14:41Z</time>
      </trkpt>
      <trkpt lat="45.70697" lon="4.65562">
        <ele>458.6</ele>
        <time>2025-04-30T13:14:42Z</time>
      </trkpt>
      <trkpt lat="45.70698" lon="4.65558">
        <ele>458.8</ele>
        <time>2025-04-30T13:14:43Z</time>
      </trkpt>
      <trkpt lat="45.70699" lon="4.65555">
        <ele>458.8</ele>
        <time>2025-04-30T13:14:44Z</time>
      </trkpt>
      <trkpt lat="45.707" lon="4.65551">
        <ele>459.2</ele>
        <time>2025-04-30T13:14:45Z</time>
      </trkpt>
      <trkpt lat="45.70701" lon="4.65547">
        <ele>459.4</ele>
        <time>2025-04-30T13:14:46Z</time>
      </trkpt>
      <trkpt lat="45.70701" lon="4.65543">
        <ele>459.6</ele>
        <time>2025-04-30T13:14:47Z</time>
      </trkpt>
      <trkpt lat="45.70701" lon="4.65539">
        <ele>460</ele>
        <time>2025-04-30T13:14:48Z</time>
      </trkpt>
      <trkpt lat="45.70701" lon="4.65535">
        <ele>460</ele>
        <time>2025-04-30T13:14:49Z</time>
      </trkpt>
      <trkpt lat="45.707" lon="4.65531">
        <ele>460.4</ele>
        <time>2025-04-30T13:14:50Z</time>
      </trkpt>
      <trkpt lat="45.70698" lon="4.65528">
        <ele>460.4</ele>
        <time>2025-04-30T13:14:51Z</time>
      </trkpt>
      <trkpt lat="45.70696" lon="4.65526">
        <ele>460.6</ele>
        <time>2025-04-30T13:14:52Z</time>
      </trkpt>
      <trkpt lat="45.70693" lon="4.65524">
        <ele>460.8</ele>
        <time>2025-04-30T13:14:53Z</time>
      </trkpt>
      <trkpt lat="45.70691" lon="4.65522">
        <ele>460.8</ele>
        <time>2025-04-30T13:14:54Z</time>
      </trkpt>
      <trkpt lat="45.70688" lon="4.65521">
        <ele>461</ele>
        <time>2025-04-30T13:14:55Z</time>
      </trkpt>
      <trkpt lat="45.70686" lon="4.65519">
        <ele>461</ele>
        <time>2025-04-30T13:14:56Z</time>
      </trkpt>
      <trkpt lat="45.70684" lon="4.65518">
        <ele>461.2</ele>
        <time>2025-04-30T13:14:57Z</time>
      </trkpt>
      <trkpt lat="45.70682" lon="4.65518">
        <ele>461.6</ele>
        <time>2025-04-30T13:14:58Z</time>
      </trkpt>
      <trkpt lat="45.7068" lon="4.65517">
        <ele>462</ele>
        <time>2025-04-30T13:14:59Z</time>
      </trkpt>
      <trkpt lat="45.70677" lon="4.65517">
        <ele>462.4</ele>
        <time>2025-04-30T13:15:00Z</time>
      </trkpt>
      <trkpt lat="45.70675" lon="4.65516">
        <ele>462.8</ele>
        <time>2025-04-30T13:15:01Z</time>
      </trkpt>
      <trkpt lat="45.70673" lon="4.65515">
        <ele>463</ele>
        <time>2025-04-30T13:15:02Z</time>
      </trkpt>
      <trkpt lat="45.70671" lon="4.65514">
        <ele>463.4</ele>
        <time>2025-04-30T13:15:03Z</time>
      </trkpt>
      <trkpt lat="45.70669" lon="4.65512">
        <ele>463.8</ele>
        <time>2025-04-30T13:15:04Z</time>
      </trkpt>
      <trkpt lat="45.70667" lon="4.65511">
        <ele>464</ele>
        <time>2025-04-30T13:15:05Z</time>
      </trkpt>
      <trkpt lat="45.70665" lon="4.65509">
        <ele>464.2</ele>
        <time>2025-04-30T13:15:06Z</time>
      </trkpt>
      <trkpt lat="45.70664" lon="4.65508">
        <ele>464.6</ele>
        <time>2025-04-30T13:15:07Z</time>
      </trkpt>
      <trkpt lat="45.70663" lon="4.65507">
        <ele>465</ele>
        <time>2025-04-30T13:15:08Z</time>
      </trkpt>
      <trkpt lat="45.70662" lon="4.65505">
        <ele>465.2</ele>
        <time>2025-04-30T13:15:09Z</time>
      </trkpt>
      <trkpt lat="45.70661" lon="4.65503">
        <ele>465.6</ele>
        <time>2025-04-30T13:15:10Z</time>
      </trkpt>
      <trkpt lat="45.7066" lon="4.655">
        <ele>466</ele>
        <time>2025-04-30T13:15:11Z</time>
      </trkpt>
      <trkpt lat="45.70659" lon="4.65498">
        <ele>466.2</ele>
        <time>2025-04-30T13:15:12Z</time>
      </trkpt>
      <trkpt lat="45.70658" lon="4.65496">
        <ele>466.4</ele>
        <time>2025-04-30T13:15:13Z</time>
      </trkpt>
      <trkpt lat="45.70657" lon="4.65494">
        <ele>466.8</ele>
        <time>2025-04-30T13:15:14Z</time>
      </trkpt>
      <trkpt lat="45.70656" lon="4.65492">
        <ele>466.8</ele>
        <time>2025-04-30T13:15:15Z</time>
      </trkpt>
      <trkpt lat="45.70654" lon="4.6549">
        <ele>467</ele>
        <time>2025-04-30T13:15:16Z</time>
      </trkpt>
      <trkpt lat="45.70652" lon="4.65488">
        <ele>467.2</ele>
        <time>2025-04-30T13:15:17Z</time>
      </trkpt>
      <trkpt lat="45.70651" lon="4.65486">
        <ele>467.6</ele>
        <time>2025-04-30T13:15:18Z</time>
      </trkpt>
      <trkpt lat="45.70649" lon="4.65484">
        <ele>467.8</ele>
        <time>2025-04-30T13:15:19Z</time>
      </trkpt>
      <trkpt lat="45.70647" lon="4.65483">
        <ele>468</ele>
        <time>2025-04-30T13:15:20Z</time>
      </trkpt>
      <trkpt lat="45.70645" lon="4.65481">
        <ele>468.2</ele>
        <time>2025-04-30T13:15:21Z</time>
      </trkpt>
      <trkpt lat="45.70643" lon="4.65479">
        <ele>468.4</ele>
        <time>2025-04-30T13:15:22Z</time>
      </trkpt>
      <trkpt lat="45.70642" lon="4.65477">
        <ele>468.6</ele>
        <time>2025-04-30T13:15:23Z</time>
      </trkpt>
      <trkpt lat="45.70641" lon="4.65476">
        <ele>469</ele>
        <time>2025-04-30T13:15:24Z</time>
      </trkpt>
      <trkpt lat="45.70639" lon="4.65474">
        <ele>469.4</ele>
        <time>2025-04-30T13:15:25Z</time>
      </trkpt>
      <trkpt lat="45.70638" lon="4.65472">
        <ele>469.6</ele>
        <time>2025-04-30T13:15:26Z</time>
      </trkpt>
      <trkpt lat="45.70637" lon="4.6547">
        <ele>470</ele>
        <time>2025-04-30T13:15:27Z</time>
      </trkpt>
      <trkpt lat="45.70636" lon="4.65468">
        <ele>470.2</ele>
        <time>2025-04-30T13:15:28Z</time>
      </trkpt>
      <trkpt lat="45.70636" lon="4.65466">
        <ele>470.6</ele>
        <time>2025-04-30T13:15:29Z</time>
      </trkpt>
      <trkpt lat="45.70636" lon="4.65464">
        <ele>471</ele>
        <time>2025-04-30T13:15:30Z</time>
      </trkpt>
      <trkpt lat="45.70635" lon="4.65462">
        <ele>471.2</ele>
        <time>2025-04-30T13:15:31Z</time>
      </trkpt>
      <trkpt lat="45.70634" lon="4.65461">
        <ele>471.4</ele>
        <time>2025-04-30T13:15:32Z</time>
      </trkpt>
      <trkpt lat="45.70633" lon="4.65459">
        <ele>471.6</ele>
        <time>2025-04-30T13:15:33Z</time>
      </trkpt>
      <trkpt lat="45.70632" lon="4.65456">
        <ele>471.8</ele>
        <time>2025-04-30T13:15:34Z</time>
      </trkpt>
      <trkpt lat="45.70631" lon="4.65454">
        <ele>472.2</ele>
        <time>2025-04-30T13:15:35Z</time>
      </trkpt>
      <trkpt lat="45.7063" lon="4.65453">
        <ele>472.6</ele>
        <time>2025-04-30T13:15:36Z</time>
      </trkpt>
      <trkpt lat="45.70629" lon="4.65451">
        <ele>472.8</ele>
        <time>2025-04-30T13:15:37Z</time>
      </trkpt>
      <trkpt lat="45.70628" lon="4.65449">
        <ele>473</ele>
        <time>2025-04-30T13:15:38Z</time>
      </trkpt>
      <trkpt lat="45.70626" lon="4.65447">
        <ele>473.4</ele>
        <time>2025-04-30T13:15:39Z</time>
      </trkpt>
      <trkpt lat="45.70625" lon="4.65445">
        <ele>473.6</ele>
        <time>2025-04-30T13:15:40Z</time>
      </trkpt>
      <trkpt lat="45.70624" lon="4.65443">
        <ele>474</ele>
        <time>2025-04-30T13:15:41Z</time>
      </trkpt>
      <trkpt lat="45.70623" lon="4.65442">
        <ele>474.4</ele>
        <time>2025-04-30T13:15:42Z</time>
      </trkpt>
      <trkpt lat="45.70623" lon="4.6544">
        <ele>474.4</ele>
        <time>2025-04-30T13:15:43Z</time>
      </trkpt>
      <trkpt lat="45.70622" lon="4.65438">
        <ele>474.8</ele>
        <time>2025-04-30T13:15:44Z</time>
      </trkpt>
      <trkpt lat="45.7062" lon="4.65436">
        <ele>475</ele>
        <time>2025-04-30T13:15:45Z</time>
      </trkpt>
      <trkpt lat="45.70619" lon="4.65435">
        <ele>475.6</ele>
        <time>2025-04-30T13:15:46Z</time>
      </trkpt>
      <trkpt lat="45.70618" lon="4.65433">
        <ele>475.8</ele>
        <time>2025-04-30T13:15:47Z</time>
      </trkpt>
      <trkpt lat="45.70617" lon="4.65431">
        <ele>476</ele>
        <time>2025-04-30T13:15:48Z</time>
      </trkpt>
      <trkpt lat="45.70615" lon="4.65429">
        <ele>476.4</ele>
        <time>2025-04-30T13:15:49Z</time>
      </trkpt>
      <trkpt lat="45.70614" lon="4.65427">
        <ele>476.8</ele>
        <time>2025-04-30T13:15:50Z</time>
      </trkpt>
      <trkpt lat="45.70613" lon="4.65425">
        <ele>477</ele>
        <time>2025-04-30T13:15:51Z</time>
      </trkpt>
      <trkpt lat="45.70612" lon="4.65424">
        <ele>477.4</ele>
        <time>2025-04-30T13:15:52Z</time>
      </trkpt>
      <trkpt lat="45.70611" lon="4.65422">
        <ele>477.6</ele>
        <time>2025-04-30T13:15:53Z</time>
      </trkpt>
      <trkpt lat="45.70609" lon="4.6542">
        <ele>478</ele>
        <time>2025-04-30T13:15:54Z</time>
      </trkpt>
      <trkpt lat="45.70609" lon="4.65419">
        <ele>478.2</ele>
        <time>2025-04-30T13:15:55Z</time>
      </trkpt>
      <trkpt lat="45.70608" lon="4.65418">
        <ele>478.6</ele>
        <time>2025-04-30T13:15:56Z</time>
      </trkpt>
      <trkpt lat="45.70608" lon="4.65418">
        <ele>478.8</ele>
        <time>2025-04-30T13:15:57Z</time>
      </trkpt>
      <trkpt lat="45.70608" lon="4.65418">
        <ele>479</ele>
        <time>2025-04-30T13:15:58Z</time>
      </trkpt>
      <trkpt lat="45.70608" lon="4.65418">
        <ele>479.4</ele>
        <time>2025-04-30T13:15:59Z</time>
      </trkpt>
      <trkpt lat="45.70608" lon="4.65418">
        <ele>479.6</ele>
        <time>2025-04-30T13:16:00Z</time>
      </trkpt>
      <trkpt lat="45.70608" lon="4.65418">
        <ele>479.6</ele>
        <time>2025-04-30T13:16:01Z</time>
      </trkpt>
      <trkpt lat="45.70608" lon="4.65418">
        <ele>479.8</ele>
        <time>2025-04-30T13:16:02Z</time>
      </trkpt>
      <trkpt lat="45.70608" lon="4.65418">
        <ele>479.8</ele>
        <time>2025-04-30T13:16:03Z</time>
      </trkpt>
      <trkpt lat="45.70608" lon="4.65418">
        <ele>480</ele>
        <time>2025-04-30T13:16:04Z</time>
      </trkpt>
      <trkpt lat="45.70608" lon="4.65418">
        <ele>480</ele>
        <time>2025-04-30T13:16:05Z</time>
      </trkpt>
      <trkpt lat="45.70608" lon="4.65418">
        <ele>480</ele>
        <time>2025-04-30T13:16:06Z</time>
      </trkpt>
      <trkpt lat="45.70608" lon="4.65418">
        <ele>480.2</ele>
        <time>2025-04-30T13:16:07Z</time>
      </trkpt>
      <trkpt lat="45.70608" lon="4.65418">
        <ele>480.2</ele>
        <time>2025-04-30T13:16:08Z</time>
      </trkpt>
      <trkpt lat="45.70608" lon="4.65417">
        <ele>480.4</ele>
        <time>2025-04-30T13:16:09Z</time>
      </trkpt>
      <trkpt lat="45.70607" lon="4.65416">
        <ele>480.4</ele>
        <time>2025-04-30T13:16:10Z</time>
      </trkpt>
      <trkpt lat="45.70607" lon="4.65415">
        <ele>480.6</ele>
        <time>2025-04-30T13:16:11Z</time>
      </trkpt>
      <trkpt lat="45.70606" lon="4.65415">
        <ele>480.6</ele>
        <time>2025-04-30T13:16:12Z</time>
      </trkpt>
      <trkpt lat="45.70606" lon="4.65414">
        <ele>480.6</ele>
        <time>2025-04-30T13:16:13Z</time>
      </trkpt>
      <trkpt lat="45.70605" lon="4.65414">
        <ele>480.8</ele>
        <time>2025-04-30T13:16:14Z</time>
      </trkpt>
      <trkpt lat="45.70604" lon="4.65414">
        <ele>481</ele>
        <time>2025-04-30T13:16:15Z</time>
      </trkpt>
      <trkpt lat="45.70604" lon="4.65414">
        <ele>481.2</ele>
        <time>2025-04-30T13:16:16Z</time>
      </trkpt>
      <trkpt lat="45.70604" lon="4.65414">
        <ele>481.2</ele>
        <time>2025-04-30T13:16:17Z</time>
      </trkpt>
      <trkpt lat="45.70604" lon="4.65414">
        <ele>481.4</ele>
        <time>2025-04-30T13:16:18Z</time>
      </trkpt>
      <trkpt lat="45.70604" lon="4.65414">
        <ele>481.4</ele>
        <time>2025-04-30T13:16:19Z</time>
      </trkpt>
      <trkpt lat="45.70604" lon="4.65414">
        <ele>481.6</ele>
        <time>2025-04-30T13:16:20Z</time>
      </trkpt>
      <trkpt lat="45.70604" lon="4.65414">
        <ele>481.6</ele>
        <time>2025-04-30T13:16:21Z</time>
      </trkpt>
      <trkpt lat="45.70605" lon="4.65413">
        <ele>481.6</ele>
        <time>2025-04-30T13:16:22Z</time>
      </trkpt>
      <trkpt lat="45.70605" lon="4.65412">
        <ele>481.6</ele>
        <time>2025-04-30T13:16:23Z</time>
      </trkpt>
      <trkpt lat="45.70604" lon="4.65411">
        <ele>481.6</ele>
        <time>2025-04-30T13:16:24Z</time>
      </trkpt>
      <trkpt lat="45.70604" lon="4.6541">
        <ele>481.6</ele>
        <time>2025-04-30T13:16:25Z</time>
      </trkpt>
      <trkpt lat="45.70603" lon="4.65408">
        <ele>481.6</ele>
        <time>2025-04-30T13:16:26Z</time>
      </trkpt>
      <trkpt lat="45.70603" lon="4.65408">
        <ele>481.6</ele>
        <time>2025-04-30T13:16:27Z</time>
      </trkpt>
      <trkpt lat="45.70602" lon="4.65407">
        <ele>481.8</ele>
        <time>2025-04-30T13:16:28Z</time>
      </trkpt>
      <trkpt lat="45.70602" lon="4.65407">
        <ele>481.8</ele>
        <time>2025-04-30T13:16:29Z</time>
      </trkpt>
      <trkpt lat="45.70601" lon="4.65407">
        <ele>482</ele>
        <time>2025-04-30T13:16:30Z</time>
      </trkpt>
      <trkpt lat="45.706" lon="4.65406">
        <ele>482.2</ele>
        <time>2025-04-30T13:16:31Z</time>
      </trkpt>
      <trkpt lat="45.70599" lon="4.65406">
        <ele>482.2</ele>
        <time>2025-04-30T13:16:32Z</time>
      </trkpt>
      <trkpt lat="45.70598" lon="4.65405">
        <ele>482.6</ele>
        <time>2025-04-30T13:16:33Z</time>
      </trkpt>
      <trkpt lat="45.70597" lon="4.65403">
        <ele>482.8</ele>
        <time>2025-04-30T13:16:34Z</time>
      </trkpt>
      <trkpt lat="45.70597" lon="4.65403">
        <ele>483</ele>
        <time>2025-04-30T13:16:35Z</time>
      </trkpt>
      <trkpt lat="45.70597" lon="4.65403">
        <ele>483</ele>
        <time>2025-04-30T13:16:36Z</time>
      </trkpt>
      <trkpt lat="45.70597" lon="4.65403">
        <ele>483</ele>
        <time>2025-04-30T13:16:37Z</time>
      </trkpt>
      <trkpt lat="45.70597" lon="4.65403">
        <ele>483.2</ele>
        <time>2025-04-30T13:16:38Z</time>
      </trkpt>
      <trkpt lat="45.70597" lon="4.65403">
        <ele>483.4</ele>
        <time>2025-04-30T13:16:39Z</time>
      </trkpt>
      <trkpt lat="45.70597" lon="4.65403">
        <ele>483.4</ele>
        <time>2025-04-30T13:16:40Z</time>
      </trkpt>
      <trkpt lat="45.70597" lon="4.65403">
        <ele>483.4</ele>
        <time>2025-04-30T13:16:41Z</time>
      </trkpt>
      <trkpt lat="45.70597" lon="4.65403">
        <ele>483.4</ele>
        <time>2025-04-30T13:16:42Z</time>
      </trkpt>
      <trkpt lat="45.70597" lon="4.65403">
        <ele>483.4</ele>
        <time>2025-04-30T13:16:43Z</time>
      </trkpt>
      <trkpt lat="45.70597" lon="4.65403">
        <ele>483.6</ele>
        <time>2025-04-30T13:16:44Z</time>
      </trkpt>
      <trkpt lat="45.70597" lon="4.65403">
        <ele>483.6</ele>
        <time>2025-04-30T13:16:45Z</time>
      </trkpt>
      <trkpt lat="45.70596" lon="4.65402">
        <ele>483.6</ele>
        <time>2025-04-30T13:16:46Z</time>
      </trkpt>
      <trkpt lat="45.70596" lon="4.65402">
        <ele>483.6</ele>
        <time>2025-04-30T13:16:47Z</time>
      </trkpt>
      <trkpt lat="45.70595" lon="4.654">
        <ele>483.6</ele>
        <time>2025-04-30T13:16:48Z</time>
      </trkpt>
      <trkpt lat="45.70594" lon="4.65398">
        <ele>483.6</ele>
        <time>2025-04-30T13:16:49Z</time>
      </trkpt>
      <trkpt lat="45.70594" lon="4.65396">
        <ele>483.6</ele>
        <time>2025-04-30T13:16:50Z</time>
      </trkpt>
      <trkpt lat="45.70594" lon="4.65393">
        <ele>483.6</ele>
        <time>2025-04-30T13:16:51Z</time>
      </trkpt>
      <trkpt lat="45.70593" lon="4.65391">
        <ele>483.6</ele>
        <time>2025-04-30T13:16:52Z</time>
      </trkpt>
      <trkpt lat="45.70592" lon="4.65388">
        <ele>483.8</ele>
        <time>2025-04-30T13:16:53Z</time>
      </trkpt>
      <trkpt lat="45.70591" lon="4.65386">
        <ele>484</ele>
        <time>2025-04-30T13:16:54Z</time>
      </trkpt>
      <trkpt lat="45.7059" lon="4.65384">
        <ele>484.2</ele>
        <time>2025-04-30T13:16:55Z</time>
      </trkpt>
      <trkpt lat="45.7059" lon="4.65382">
        <ele>484.4</ele>
        <time>2025-04-30T13:16:56Z</time>
      </trkpt>
      <trkpt lat="45.70588" lon="4.6538">
        <ele>484.8</ele>
        <time>2025-04-30T13:16:57Z</time>
      </trkpt>
      <trkpt lat="45.70587" lon="4.65379">
        <ele>485.2</ele>
        <time>2025-04-30T13:16:58Z</time>
      </trkpt>
      <trkpt lat="45.70585" lon="4.65377">
        <ele>485.6</ele>
        <time>2025-04-30T13:16:59Z</time>
      </trkpt>
      <trkpt lat="45.70583" lon="4.65375">
        <ele>485.8</ele>
        <time>2025-04-30T13:17:00Z</time>
      </trkpt>
      <trkpt lat="45.70582" lon="4.65374">
        <ele>486</ele>
        <time>2025-04-30T13:17:01Z</time>
      </trkpt>
      <trkpt lat="45.70581" lon="4.65373">
        <ele>486.2</ele>
        <time>2025-04-30T13:17:02Z</time>
      </trkpt>
      <trkpt lat="45.70579" lon="4.65371">
        <ele>486.4</ele>
        <time>2025-04-30T13:17:03Z</time>
      </trkpt>
      <trkpt lat="45.70578" lon="4.65369">
        <ele>486.6</ele>
        <time>2025-04-30T13:17:04Z</time>
      </trkpt>
      <trkpt lat="45.70576" lon="4.65368">
        <ele>486.8</ele>
        <time>2025-04-30T13:17:05Z</time>
      </trkpt>
      <trkpt lat="45.70575" lon="4.65367">
        <ele>487.2</ele>
        <time>2025-04-30T13:17:06Z</time>
      </trkpt>
      <trkpt lat="45.70574" lon="4.65365">
        <ele>487.6</ele>
        <time>2025-04-30T13:17:07Z</time>
      </trkpt>
      <trkpt lat="45.70573" lon="4.65364">
        <ele>487.8</ele>
        <time>2025-04-30T13:17:08Z</time>
      </trkpt>
      <trkpt lat="45.70572" lon="4.65362">
        <ele>488.2</ele>
        <time>2025-04-30T13:17:09Z</time>
      </trkpt>
      <trkpt lat="45.7057" lon="4.65361">
        <ele>488.4</ele>
        <time>2025-04-30T13:17:10Z</time>
      </trkpt>
      <trkpt lat="45.70568" lon="4.65361">
        <ele>488.8</ele>
        <time>2025-04-30T13:17:11Z</time>
      </trkpt>
      <trkpt lat="45.70566" lon="4.6536">
        <ele>489</ele>
        <time>2025-04-30T13:17:12Z</time>
      </trkpt>
      <trkpt lat="45.70566" lon="4.65359">
        <ele>489.2</ele>
        <time>2025-04-30T13:17:13Z</time>
      </trkpt>
      <trkpt lat="45.70564" lon="4.65358">
        <ele>489.6</ele>
        <time>2025-04-30T13:17:14Z</time>
      </trkpt>
      <trkpt lat="45.70562" lon="4.65357">
        <ele>489.6</ele>
        <time>2025-04-30T13:17:15Z</time>
      </trkpt>
      <trkpt lat="45.70561" lon="4.65356">
        <ele>490</ele>
        <time>2025-04-30T13:17:16Z</time>
      </trkpt>
      <trkpt lat="45.70559" lon="4.65354">
        <ele>490.4</ele>
        <time>2025-04-30T13:17:17Z</time>
      </trkpt>
      <trkpt lat="45.70557" lon="4.65354">
        <ele>490.6</ele>
        <time>2025-04-30T13:17:18Z</time>
      </trkpt>
      <trkpt lat="45.70556" lon="4.65353">
        <ele>491</ele>
        <time>2025-04-30T13:17:19Z</time>
      </trkpt>
      <trkpt lat="45.70554" lon="4.65353">
        <ele>491.2</ele>
        <time>2025-04-30T13:17:20Z</time>
      </trkpt>
      <trkpt lat="45.70552" lon="4.65352">
        <ele>491.6</ele>
        <time>2025-04-30T13:17:21Z</time>
      </trkpt>
      <trkpt lat="45.70551" lon="4.6535">
        <ele>491.6</ele>
        <time>2025-04-30T13:17:22Z</time>
      </trkpt>
      <trkpt lat="45.70549" lon="4.65349">
        <ele>492</ele>
        <time>2025-04-30T13:17:23Z</time>
      </trkpt>
      <trkpt lat="45.70548" lon="4.65347">
        <ele>492.2</ele>
        <time>2025-04-30T13:17:24Z</time>
      </trkpt>
      <trkpt lat="45.70546" lon="4.65345">
        <ele>492.4</ele>
        <time>2025-04-30T13:17:25Z</time>
      </trkpt>
      <trkpt lat="45.70544" lon="4.65343">
        <ele>492.6</ele>
        <time>2025-04-30T13:17:26Z</time>
      </trkpt>
      <trkpt lat="45.70542" lon="4.65342">
        <ele>492.8</ele>
        <time>2025-04-30T13:17:27Z</time>
      </trkpt>
      <trkpt lat="45.7054" lon="4.6534">
        <ele>493.2</ele>
        <time>2025-04-30T13:17:28Z</time>
      </trkpt>
      <trkpt lat="45.70538" lon="4.65339">
        <ele>493.4</ele>
        <time>2025-04-30T13:17:29Z</time>
      </trkpt>
      <trkpt lat="45.70537" lon="4.65337">
        <ele>493.6</ele>
        <time>2025-04-30T13:17:30Z</time>
      </trkpt>
      <trkpt lat="45.70535" lon="4.65335">
        <ele>493.8</ele>
        <time>2025-04-30T13:17:31Z</time>
      </trkpt>
      <trkpt lat="45.70534" lon="4.65333">
        <ele>494</ele>
        <time>2025-04-30T13:17:32Z</time>
      </trkpt>
      <trkpt lat="45.70533" lon="4.65332">
        <ele>494.4</ele>
        <time>2025-04-30T13:17:33Z</time>
      </trkpt>
      <trkpt lat="45.70531" lon="4.6533">
        <ele>494.8</ele>
        <time>2025-04-30T13:17:34Z</time>
      </trkpt>
      <trkpt lat="45.7053" lon="4.65328">
        <ele>495</ele>
        <time>2025-04-30T13:17:35Z</time>
      </trkpt>
      <trkpt lat="45.70528" lon="4.65326">
        <ele>495.2</ele>
        <time>2025-04-30T13:17:36Z</time>
      </trkpt>
      <trkpt lat="45.70527" lon="4.65325">
        <ele>495.4</ele>
        <time>2025-04-30T13:17:37Z</time>
      </trkpt>
      <trkpt lat="45.70527" lon="4.65324">
        <ele>495.4</ele>
        <time>2025-04-30T13:17:38Z</time>
      </trkpt>
      <trkpt lat="45.70527" lon="4.65324">
        <ele>495.6</ele>
        <time>2025-04-30T13:17:39Z</time>
      </trkpt>
      <trkpt lat="45.70527" lon="4.65324">
        <ele>495.6</ele>
        <time>2025-04-30T13:17:40Z</time>
      </trkpt>
      <trkpt lat="45.70527" lon="4.65324">
        <ele>495.8</ele>
        <time>2025-04-30T13:17:41Z</time>
      </trkpt>
      <trkpt lat="45.70527" lon="4.65324">
        <ele>496</ele>
        <time>2025-04-30T13:17:42Z</time>
      </trkpt>
      <trkpt lat="45.70527" lon="4.65324">
        <ele>496</ele>
        <time>2025-04-30T13:17:43Z</time>
      </trkpt>
      <trkpt lat="45.70527" lon="4.65324">
        <ele>496</ele>
        <time>2025-04-30T13:17:44Z</time>
      </trkpt>
      <trkpt lat="45.70527" lon="4.65324">
        <ele>496</ele>
        <time>2025-04-30T13:17:45Z</time>
      </trkpt>
      <trkpt lat="45.70527" lon="4.65324">
        <ele>496</ele>
        <time>2025-04-30T13:17:46Z</time>
      </trkpt>
      <trkpt lat="45.70527" lon="4.65324">
        <ele>495.8</ele>
        <time>2025-04-30T13:17:47Z</time>
      </trkpt>
      <trkpt lat="45.70527" lon="4.65324">
        <ele>495.8</ele>
        <time>2025-04-30T13:17:48Z</time>
      </trkpt>
      <trkpt lat="45.70526" lon="4.65323">
        <ele>495.8</ele>
        <time>2025-04-30T13:17:49Z</time>
      </trkpt>
      <trkpt lat="45.70525" lon="4.65322">
        <ele>495.8</ele>
        <time>2025-04-30T13:17:50Z</time>
      </trkpt>
      <trkpt lat="45.70524" lon="4.65321">
        <ele>495.8</ele>
        <time>2025-04-30T13:17:51Z</time>
      </trkpt>
      <trkpt lat="45.70521" lon="4.65319">
        <ele>495.8</ele>
        <time>2025-04-30T13:17:52Z</time>
      </trkpt>
      <trkpt lat="45.7052" lon="4.65317">
        <ele>495.8</ele>
        <time>2025-04-30T13:17:53Z</time>
      </trkpt>
      <trkpt lat="45.70518" lon="4.65315">
        <ele>495.8</ele>
        <time>2025-04-30T13:17:54Z</time>
      </trkpt>
      <trkpt lat="45.70517" lon="4.65312">
        <ele>496</ele>
        <time>2025-04-30T13:17:55Z</time>
      </trkpt>
      <trkpt lat="45.70515" lon="4.6531">
        <ele>496</ele>
        <time>2025-04-30T13:17:56Z</time>
      </trkpt>
      <trkpt lat="45.70514" lon="4.65308">
        <ele>496.2</ele>
        <time>2025-04-30T13:17:57Z</time>
      </trkpt>
      <trkpt lat="45.70512" lon="4.65306">
        <ele>496.6</ele>
        <time>2025-04-30T13:17:58Z</time>
      </trkpt>
      <trkpt lat="45.7051" lon="4.65303">
        <ele>496.6</ele>
        <time>2025-04-30T13:17:59Z</time>
      </trkpt>
      <trkpt lat="45.70509" lon="4.65301">
        <ele>497</ele>
        <time>2025-04-30T13:18:00Z</time>
      </trkpt>
      <trkpt lat="45.70508" lon="4.65299">
        <ele>497.2</ele>
        <time>2025-04-30T13:18:01Z</time>
      </trkpt>
      <trkpt lat="45.70507" lon="4.65297">
        <ele>497.4</ele>
        <time>2025-04-30T13:18:02Z</time>
      </trkpt>
      <trkpt lat="45.70505" lon="4.65295">
        <ele>497.6</ele>
        <time>2025-04-30T13:18:03Z</time>
      </trkpt>
      <trkpt lat="45.70504" lon="4.65293">
        <ele>497.8</ele>
        <time>2025-04-30T13:18:04Z</time>
      </trkpt>
      <trkpt lat="45.70503" lon="4.65291">
        <ele>498</ele>
        <time>2025-04-30T13:18:05Z</time>
      </trkpt>
      <trkpt lat="45.70502" lon="4.65289">
        <ele>498.2</ele>
        <time>2025-04-30T13:18:06Z</time>
      </trkpt>
      <trkpt lat="45.70501" lon="4.65286">
        <ele>498.4</ele>
        <time>2025-04-30T13:18:07Z</time>
      </trkpt>
      <trkpt lat="45.70499" lon="4.65284">
        <ele>498.6</ele>
        <time>2025-04-30T13:18:08Z</time>
      </trkpt>
      <trkpt lat="45.70498" lon="4.65282">
        <ele>499</ele>
        <time>2025-04-30T13:18:09Z</time>
      </trkpt>
      <trkpt lat="45.70497" lon="4.6528">
        <ele>499.2</ele>
        <time>2025-04-30T13:18:10Z</time>
      </trkpt>
      <trkpt lat="45.70496" lon="4.65278">
        <ele>499.4</ele>
        <time>2025-04-30T13:18:11Z</time>
      </trkpt>
      <trkpt lat="45.70494" lon="4.65276">
        <ele>499.6</ele>
        <time>2025-04-30T13:18:12Z</time>
      </trkpt>
      <trkpt lat="45.70493" lon="4.65274">
        <ele>499.8</ele>
        <time>2025-04-30T13:18:13Z</time>
      </trkpt>
      <trkpt lat="45.70493" lon="4.65272">
        <ele>500.2</ele>
        <time>2025-04-30T13:18:14Z</time>
      </trkpt>
      <trkpt lat="45.70492" lon="4.6527">
        <ele>500.4</ele>
        <time>2025-04-30T13:18:15Z</time>
      </trkpt>
      <trkpt lat="45.70491" lon="4.65268">
        <ele>500.6</ele>
        <time>2025-04-30T13:18:16Z</time>
      </trkpt>
      <trkpt lat="45.7049" lon="4.65265">
        <ele>500.8</ele>
        <time>2025-04-30T13:18:17Z</time>
      </trkpt>
      <trkpt lat="45.7049" lon="4.65263">
        <ele>501</ele>
        <time>2025-04-30T13:18:18Z</time>
      </trkpt>
      <trkpt lat="45.70488" lon="4.65262">
        <ele>501.2</ele>
        <time>2025-04-30T13:18:19Z</time>
      </trkpt>
      <trkpt lat="45.70487" lon="4.6526">
        <ele>501.4</ele>
        <time>2025-04-30T13:18:20Z</time>
      </trkpt>
      <trkpt lat="45.70486" lon="4.65258">
        <ele>502</ele>
        <time>2025-04-30T13:18:21Z</time>
      </trkpt>
      <trkpt lat="45.70485" lon="4.65256">
        <ele>502</ele>
        <time>2025-04-30T13:18:22Z</time>
      </trkpt>
      <trkpt lat="45.70484" lon="4.65254">
        <ele>502.2</ele>
        <time>2025-04-30T13:18:23Z</time>
      </trkpt>
      <trkpt lat="45.70483" lon="4.65251">
        <ele>502.4</ele>
        <time>2025-04-30T13:18:24Z</time>
      </trkpt>
      <trkpt lat="45.70482" lon="4.65249">
        <ele>502.6</ele>
        <time>2025-04-30T13:18:25Z</time>
      </trkpt>
      <trkpt lat="45.70481" lon="4.65246">
        <ele>503</ele>
        <time>2025-04-30T13:18:26Z</time>
      </trkpt>
      <trkpt lat="45.7048" lon="4.65245">
        <ele>503</ele>
        <time>2025-04-30T13:18:27Z</time>
      </trkpt>
      <trkpt lat="45.70479" lon="4.65243">
        <ele>503.2</ele>
        <time>2025-04-30T13:18:28Z</time>
      </trkpt>
      <trkpt lat="45.70477" lon="4.6524">
        <ele>503.4</ele>
        <time>2025-04-30T13:18:29Z</time>
      </trkpt>
      <trkpt lat="45.70477" lon="4.65238">
        <ele>503.8</ele>
        <time>2025-04-30T13:18:30Z</time>
      </trkpt>
      <trkpt lat="45.70476" lon="4.65236">
        <ele>504</ele>
        <time>2025-04-30T13:18:31Z</time>
      </trkpt>
      <trkpt lat="45.70475" lon="4.65234">
        <ele>504</ele>
        <time>2025-04-30T13:18:32Z</time>
      </trkpt>
      <trkpt lat="45.70474" lon="4.65232">
        <ele>504.4</ele>
        <time>2025-04-30T13:18:33Z</time>
      </trkpt>
      <trkpt lat="45.70474" lon="4.6523">
        <ele>504.6</ele>
        <time>2025-04-30T13:18:34Z</time>
      </trkpt>
      <trkpt lat="45.70473" lon="4.65227">
        <ele>504.8</ele>
        <time>2025-04-30T13:18:35Z</time>
      </trkpt>
      <trkpt lat="45.70472" lon="4.65225">
        <ele>505</ele>
        <time>2025-04-30T13:18:36Z</time>
      </trkpt>
      <trkpt lat="45.70471" lon="4.65222">
        <ele>505.2</ele>
        <time>2025-04-30T13:18:37Z</time>
      </trkpt>
      <trkpt lat="45.7047" lon="4.6522">
        <ele>505.4</ele>
        <time>2025-04-30T13:18:38Z</time>
      </trkpt>
      <trkpt lat="45.70469" lon="4.65218">
        <ele>505.4</ele>
        <time>2025-04-30T13:18:39Z</time>
      </trkpt>
      <trkpt lat="45.70468" lon="4.65216">
        <ele>505.6</ele>
        <time>2025-04-30T13:18:40Z</time>
      </trkpt>
      <trkpt lat="45.70467" lon="4.65214">
        <ele>505.6</ele>
        <time>2025-04-30T13:18:41Z</time>
      </trkpt>
      <trkpt lat="45.70465" lon="4.65213">
        <ele>506</ele>
        <time>2025-04-30T13:18:42Z</time>
      </trkpt>
      <trkpt lat="45.70464" lon="4.65211">
        <ele>506.2</ele>
        <time>2025-04-30T13:18:43Z</time>
      </trkpt>
      <trkpt lat="45.70463" lon="4.65209">
        <ele>506.4</ele>
        <time>2025-04-30T13:18:44Z</time>
      </trkpt>
      <trkpt lat="45.70462" lon="4.65207">
        <ele>506.6</ele>
        <time>2025-04-30T13:18:45Z</time>
      </trkpt>
      <trkpt lat="45.70461" lon="4.65205">
        <ele>507.2</ele>
        <time>2025-04-30T13:18:46Z</time>
      </trkpt>
      <trkpt lat="45.7046" lon="4.65203">
        <ele>507.2</ele>
        <time>2025-04-30T13:18:47Z</time>
      </trkpt>
      <trkpt lat="45.70459" lon="4.65202">
        <ele>507.4</ele>
        <time>2025-04-30T13:18:48Z</time>
      </trkpt>
      <trkpt lat="45.70458" lon="4.652">
        <ele>507.4</ele>
        <time>2025-04-30T13:18:49Z</time>
      </trkpt>
      <trkpt lat="45.70456" lon="4.65197">
        <ele>507.6</ele>
        <time>2025-04-30T13:18:50Z</time>
      </trkpt>
      <trkpt lat="45.70455" lon="4.65195">
        <ele>507.8</ele>
        <time>2025-04-30T13:18:51Z</time>
      </trkpt>
      <trkpt lat="45.70455" lon="4.65193">
        <ele>508</ele>
        <time>2025-04-30T13:18:52Z</time>
      </trkpt>
      <trkpt lat="45.70454" lon="4.6519">
        <ele>508.2</ele>
        <time>2025-04-30T13:18:53Z</time>
      </trkpt>
      <trkpt lat="45.70453" lon="4.65188">
        <ele>508.2</ele>
        <time>2025-04-30T13:18:54Z</time>
      </trkpt>
      <trkpt lat="45.70452" lon="4.65186">
        <ele>508.4</ele>
        <time>2025-04-30T13:18:55Z</time>
      </trkpt>
      <trkpt lat="45.70452" lon="4.65185">
        <ele>508.4</ele>
        <time>2025-04-30T13:18:56Z</time>
      </trkpt>
      <trkpt lat="45.70451" lon="4.65183">
        <ele>508.8</ele>
        <time>2025-04-30T13:18:57Z</time>
      </trkpt>
      <trkpt lat="45.7045" lon="4.65181">
        <ele>509</ele>
        <time>2025-04-30T13:18:58Z</time>
      </trkpt>
      <trkpt lat="45.7045" lon="4.65179">
        <ele>509.2</ele>
        <time>2025-04-30T13:18:59Z</time>
      </trkpt>
      <trkpt lat="45.70449" lon="4.65176">
        <ele>509.4</ele>
        <time>2025-04-30T13:19:00Z</time>
      </trkpt>
      <trkpt lat="45.70449" lon="4.65174">
        <ele>509.6</ele>
        <time>2025-04-30T13:19:01Z</time>
      </trkpt>
      <trkpt lat="45.70448" lon="4.65171">
        <ele>509.8</ele>
        <time>2025-04-30T13:19:02Z</time>
      </trkpt>
      <trkpt lat="45.70447" lon="4.65169">
        <ele>509.8</ele>
        <time>2025-04-30T13:19:03Z</time>
      </trkpt>
      <trkpt lat="45.70447" lon="4.65166">
        <ele>510</ele>
        <time>2025-04-30T13:19:04Z</time>
      </trkpt>
      <trkpt lat="45.70447" lon="4.65163">
        <ele>510.2</ele>
        <time>2025-04-30T13:19:05Z</time>
      </trkpt>
      <trkpt lat="45.70446" lon="4.6516">
        <ele>510.4</ele>
        <time>2025-04-30T13:19:06Z</time>
      </trkpt>
      <trkpt lat="45.70446" lon="4.65157">
        <ele>510.4</ele>
        <time>2025-04-30T13:19:07Z</time>
      </trkpt>
      <trkpt lat="45.70445" lon="4.65154">
        <ele>510.4</ele>
        <time>2025-04-30T13:19:08Z</time>
      </trkpt>
      <trkpt lat="45.70445" lon="4.65151">
        <ele>510.6</ele>
        <time>2025-04-30T13:19:09Z</time>
      </trkpt>
      <trkpt lat="45.70445" lon="4.65149">
        <ele>510.6</ele>
        <time>2025-04-30T13:19:10Z</time>
      </trkpt>
      <trkpt lat="45.70444" lon="4.65146">
        <ele>510.6</ele>
        <time>2025-04-30T13:19:11Z</time>
      </trkpt>
      <trkpt lat="45.70443" lon="4.65144">
        <ele>510.8</ele>
        <time>2025-04-30T13:19:12Z</time>
      </trkpt>
      <trkpt lat="45.70443" lon="4.65141">
        <ele>511</ele>
        <time>2025-04-30T13:19:13Z</time>
      </trkpt>
      <trkpt lat="45.70442" lon="4.65139">
        <ele>511.4</ele>
        <time>2025-04-30T13:19:14Z</time>
      </trkpt>
      <trkpt lat="45.70441" lon="4.65136">
        <ele>511.6</ele>
        <time>2025-04-30T13:19:15Z</time>
      </trkpt>
      <trkpt lat="45.70441" lon="4.65135">
        <ele>511.8</ele>
        <time>2025-04-30T13:19:16Z</time>
      </trkpt>
      <trkpt lat="45.70441" lon="4.65134">
        <ele>511.8</ele>
        <time>2025-04-30T13:19:17Z</time>
      </trkpt>
      <trkpt lat="45.70441" lon="4.65134">
        <ele>512</ele>
        <time>2025-04-30T13:19:18Z</time>
      </trkpt>
      <trkpt lat="45.70441" lon="4.65134">
        <ele>512.2</ele>
        <time>2025-04-30T13:19:19Z</time>
      </trkpt>
      <trkpt lat="45.70441" lon="4.65134">
        <ele>512.2</ele>
        <time>2025-04-30T13:19:20Z</time>
      </trkpt>
      <trkpt lat="45.70441" lon="4.65133">
        <ele>512.2</ele>
        <time>2025-04-30T13:19:21Z</time>
      </trkpt>
      <trkpt lat="45.7044" lon="4.65131">
        <ele>512.2</ele>
        <time>2025-04-30T13:19:22Z</time>
      </trkpt>
      <trkpt lat="45.70439" lon="4.65128">
        <ele>512.2</ele>
        <time>2025-04-30T13:19:23Z</time>
      </trkpt>
      <trkpt lat="45.70439" lon="4.65125">
        <ele>512.2</ele>
        <time>2025-04-30T13:19:24Z</time>
      </trkpt>
      <trkpt lat="45.70438" lon="4.65121">
        <ele>512.2</ele>
        <time>2025-04-30T13:19:25Z</time>
      </trkpt>
      <trkpt lat="45.70438" lon="4.65117">
        <ele>512.2</ele>
        <time>2025-04-30T13:19:26Z</time>
      </trkpt>
      <trkpt lat="45.70438" lon="4.65113">
        <ele>512</ele>
        <time>2025-04-30T13:19:27Z</time>
      </trkpt>
      <trkpt lat="45.70438" lon="4.65108">
        <ele>512</ele>
        <time>2025-04-30T13:19:28Z</time>
      </trkpt>
      <trkpt lat="45.70438" lon="4.65104">
        <ele>512</ele>
        <time>2025-04-30T13:19:29Z</time>
      </trkpt>
      <trkpt lat="45.70438" lon="4.651">
        <ele>512</ele>
        <time>2025-04-30T13:19:30Z</time>
      </trkpt>
      <trkpt lat="45.70439" lon="4.65097">
        <ele>512</ele>
        <time>2025-04-30T13:19:31Z</time>
      </trkpt>
      <trkpt lat="45.70439" lon="4.65092">
        <ele>512.2</ele>
        <time>2025-04-30T13:19:32Z</time>
      </trkpt>
      <trkpt lat="45.7044" lon="4.65088">
        <ele>512.6</ele>
        <time>2025-04-30T13:19:33Z</time>
      </trkpt>
      <trkpt lat="45.7044" lon="4.65084">
        <ele>512.8</ele>
        <time>2025-04-30T13:19:34Z</time>
      </trkpt>
      <trkpt lat="45.70441" lon="4.65079">
        <ele>512.8</ele>
        <time>2025-04-30T13:19:35Z</time>
      </trkpt>
      <trkpt lat="45.70441" lon="4.65075">
        <ele>512.8</ele>
        <time>2025-04-30T13:19:36Z</time>
      </trkpt>
      <trkpt lat="45.70441" lon="4.65071">
        <ele>513</ele>
        <time>2025-04-30T13:19:37Z</time>
      </trkpt>
      <trkpt lat="45.70441" lon="4.65067">
        <ele>513</ele>
        <time>2025-04-30T13:19:38Z</time>
      </trkpt>
      <trkpt lat="45.70441" lon="4.65064">
        <ele>513</ele>
        <time>2025-04-30T13:19:39Z</time>
      </trkpt>
      <trkpt lat="45.70442" lon="4.6506">
        <ele>513</ele>
        <time>2025-04-30T13:19:40Z</time>
      </trkpt>
      <trkpt lat="45.70443" lon="4.65055">
        <ele>513.4</ele>
        <time>2025-04-30T13:19:41Z</time>
      </trkpt>
      <trkpt lat="45.70444" lon="4.65051">
        <ele>513.4</ele>
        <time>2025-04-30T13:19:42Z</time>
      </trkpt>
      <trkpt lat="45.70445" lon="4.65046">
        <ele>513.4</ele>
        <time>2025-04-30T13:19:43Z</time>
      </trkpt>
      <trkpt lat="45.70446" lon="4.6504">
        <ele>513.6</ele>
        <time>2025-04-30T13:19:44Z</time>
      </trkpt>
      <trkpt lat="45.70446" lon="4.65035">
        <ele>513.6</ele>
        <time>2025-04-30T13:19:45Z</time>
      </trkpt>
      <trkpt lat="45.70447" lon="4.6503">
        <ele>513.8</ele>
        <time>2025-04-30T13:19:46Z</time>
      </trkpt>
      <trkpt lat="45.70447" lon="4.65025">
        <ele>513.8</ele>
        <time>2025-04-30T13:19:47Z</time>
      </trkpt>
      <trkpt lat="45.70448" lon="4.6502">
        <ele>513.8</ele>
        <time>2025-04-30T13:19:48Z</time>
      </trkpt>
      <trkpt lat="45.70448" lon="4.65017">
        <ele>513.8</ele>
        <time>2025-04-30T13:19:49Z</time>
      </trkpt>
      <trkpt lat="45.7045" lon="4.65013">
        <ele>513.8</ele>
        <time>2025-04-30T13:19:50Z</time>
      </trkpt>
      <trkpt lat="45.70451" lon="4.6501">
        <ele>514</ele>
        <time>2025-04-30T13:19:51Z</time>
      </trkpt>
      <trkpt lat="45.70452" lon="4.65006">
        <ele>514</ele>
        <time>2025-04-30T13:19:52Z</time>
      </trkpt>
      <trkpt lat="45.70452" lon="4.65001">
        <ele>514</ele>
        <time>2025-04-30T13:19:53Z</time>
      </trkpt>
      <trkpt lat="45.70452" lon="4.64997">
        <ele>514</ele>
        <time>2025-04-30T13:19:54Z</time>
      </trkpt>
      <trkpt lat="45.70451" lon="4.64993">
        <ele>514.2</ele>
        <time>2025-04-30T13:19:55Z</time>
      </trkpt>
      <trkpt lat="45.7045" lon="4.6499">
        <ele>514.2</ele>
        <time>2025-04-30T13:19:56Z</time>
      </trkpt>
      <trkpt lat="45.70449" lon="4.64987">
        <ele>514.2</ele>
        <time>2025-04-30T13:19:57Z</time>
      </trkpt>
      <trkpt lat="45.70448" lon="4.64985">
        <ele>514.4</ele>
        <time>2025-04-30T13:19:58Z</time>
      </trkpt>
      <trkpt lat="45.70446" lon="4.64982">
        <ele>514.4</ele>
        <time>2025-04-30T13:19:59Z</time>
      </trkpt>
      <trkpt lat="45.70444" lon="4.6498">
        <ele>514.6</ele>
        <time>2025-04-30T13:20:00Z</time>
      </trkpt>
      <trkpt lat="45.70443" lon="4.64977">
        <ele>515.2</ele>
        <time>2025-04-30T13:20:01Z</time>
      </trkpt>
      <trkpt lat="45.70441" lon="4.64975">
        <ele>515.4</ele>
        <time>2025-04-30T13:20:02Z</time>
      </trkpt>
      <trkpt lat="45.70438" lon="4.64972">
        <ele>515.6</ele>
        <time>2025-04-30T13:20:03Z</time>
      </trkpt>
      <trkpt lat="45.70436" lon="4.64969">
        <ele>515.8</ele>
        <time>2025-04-30T13:20:04Z</time>
      </trkpt>
      <trkpt lat="45.70434" lon="4.64966">
        <ele>515.8</ele>
        <time>2025-04-30T13:20:05Z</time>
      </trkpt>
      <trkpt lat="45.70433" lon="4.64963">
        <ele>516</ele>
        <time>2025-04-30T13:20:06Z</time>
      </trkpt>
      <trkpt lat="45.70432" lon="4.64961">
        <ele>516.2</ele>
        <time>2025-04-30T13:20:07Z</time>
      </trkpt>
      <trkpt lat="45.70433" lon="4.64958">
        <ele>516.4</ele>
        <time>2025-04-30T13:20:08Z</time>
      </trkpt>
      <trkpt lat="45.70432" lon="4.64954">
        <ele>516.6</ele>
        <time>2025-04-30T13:20:09Z</time>
      </trkpt>
      <trkpt lat="45.70431" lon="4.6495">
        <ele>516.8</ele>
        <time>2025-04-30T13:20:10Z</time>
      </trkpt>
      <trkpt lat="45.7043" lon="4.64946">
        <ele>517</ele>
        <time>2025-04-30T13:20:11Z</time>
      </trkpt>
      <trkpt lat="45.7043" lon="4.64942">
        <ele>517</ele>
        <time>2025-04-30T13:20:12Z</time>
      </trkpt>
      <trkpt lat="45.7043" lon="4.64939">
        <ele>517.2</ele>
        <time>2025-04-30T13:20:13Z</time>
      </trkpt>
      <trkpt lat="45.7043" lon="4.64935">
        <ele>517.2</ele>
        <time>2025-04-30T13:20:14Z</time>
      </trkpt>
      <trkpt lat="45.7043" lon="4.64932">
        <ele>517.4</ele>
        <time>2025-04-30T13:20:15Z</time>
      </trkpt>
      <trkpt lat="45.7043" lon="4.64928">
        <ele>517.6</ele>
        <time>2025-04-30T13:20:16Z</time>
      </trkpt>
      <trkpt lat="45.70428" lon="4.64924">
        <ele>517.8</ele>
        <time>2025-04-30T13:20:17Z</time>
      </trkpt>
      <trkpt lat="45.70425" lon="4.6492">
        <ele>517.8</ele>
        <time>2025-04-30T13:20:18Z</time>
      </trkpt>
      <trkpt lat="45.70424" lon="4.64916">
        <ele>517.8</ele>
        <time>2025-04-30T13:20:19Z</time>
      </trkpt>
      <trkpt lat="45.70422" lon="4.64912">
        <ele>517.8</ele>
        <time>2025-04-30T13:20:20Z</time>
      </trkpt>
      <trkpt lat="45.7042" lon="4.64908">
        <ele>517.8</ele>
        <time>2025-04-30T13:20:21Z</time>
      </trkpt>
      <trkpt lat="45.70418" lon="4.64904">
        <ele>517.8</ele>
        <time>2025-04-30T13:20:22Z</time>
      </trkpt>
      <trkpt lat="45.70416" lon="4.64899">
        <ele>517.8</ele>
        <time>2025-04-30T13:20:23Z</time>
      </trkpt>
      <trkpt lat="45.70414" lon="4.64894">
        <ele>517.4</ele>
        <time>2025-04-30T13:20:24Z</time>
      </trkpt>
      <trkpt lat="45.70412" lon="4.6489">
        <ele>517.4</ele>
        <time>2025-04-30T13:20:25Z</time>
      </trkpt>
      <trkpt lat="45.7041" lon="4.64886">
        <ele>517.4</ele>
        <time>2025-04-30T13:20:26Z</time>
      </trkpt>
      <trkpt lat="45.70409" lon="4.64881">
        <ele>517.4</ele>
        <time>2025-04-30T13:20:27Z</time>
      </trkpt>
      <trkpt lat="45.70406" lon="4.64877">
        <ele>517.2</ele>
        <time>2025-04-30T13:20:28Z</time>
      </trkpt>
      <trkpt lat="45.70405" lon="4.64873">
        <ele>517.2</ele>
        <time>2025-04-30T13:20:29Z</time>
      </trkpt>
      <trkpt lat="45.70403" lon="4.6487">
        <ele>517.4</ele>
        <time>2025-04-30T13:20:30Z</time>
      </trkpt>
      <trkpt lat="45.70402" lon="4.64867">
        <ele>517.4</ele>
        <time>2025-04-30T13:20:31Z</time>
      </trkpt>
      <trkpt lat="45.70402" lon="4.64862">
        <ele>517.4</ele>
        <time>2025-04-30T13:20:32Z</time>
      </trkpt>
      <trkpt lat="45.70401" lon="4.64858">
        <ele>517.4</ele>
        <time>2025-04-30T13:20:33Z</time>
      </trkpt>
      <trkpt lat="45.70401" lon="4.64854">
        <ele>517.4</ele>
        <time>2025-04-30T13:20:34Z</time>
      </trkpt>
      <trkpt lat="45.70401" lon="4.64849">
        <ele>517.4</ele>
        <time>2025-04-30T13:20:35Z</time>
      </trkpt>
      <trkpt lat="45.704" lon="4.64844">
        <ele>517.6</ele>
        <time>2025-04-30T13:20:36Z</time>
      </trkpt>
      <trkpt lat="45.704" lon="4.6484">
        <ele>517.6</ele>
        <time>2025-04-30T13:20:37Z</time>
      </trkpt>
      <trkpt lat="45.704" lon="4.64836">
        <ele>518</ele>
        <time>2025-04-30T13:20:38Z</time>
      </trkpt>
      <trkpt lat="45.704" lon="4.64832">
        <ele>518.2</ele>
        <time>2025-04-30T13:20:39Z</time>
      </trkpt>
      <trkpt lat="45.70399" lon="4.64828">
        <ele>518.2</ele>
        <time>2025-04-30T13:20:40Z</time>
      </trkpt>
      <trkpt lat="45.70398" lon="4.64823">
        <ele>518.2</ele>
        <time>2025-04-30T13:20:41Z</time>
      </trkpt>
      <trkpt lat="45.70396" lon="4.64819">
        <ele>518.4</ele>
        <time>2025-04-30T13:20:42Z</time>
      </trkpt>
      <trkpt lat="45.70397" lon="4.64815">
        <ele>518.4</ele>
        <time>2025-04-30T13:20:43Z</time>
      </trkpt>
      <trkpt lat="45.70397" lon="4.64811">
        <ele>518.6</ele>
        <time>2025-04-30T13:20:44Z</time>
      </trkpt>
      <trkpt lat="45.70397" lon="4.64807">
        <ele>519</ele>
        <time>2025-04-30T13:20:45Z</time>
      </trkpt>
      <trkpt lat="45.70397" lon="4.64803">
        <ele>519.2</ele>
        <time>2025-04-30T13:20:46Z</time>
      </trkpt>
      <trkpt lat="45.70397" lon="4.64799">
        <ele>519.4</ele>
        <time>2025-04-30T13:20:47Z</time>
      </trkpt>
      <trkpt lat="45.70395" lon="4.64796">
        <ele>519.8</ele>
        <time>2025-04-30T13:20:48Z</time>
      </trkpt>
      <trkpt lat="45.70394" lon="4.64792">
        <ele>520.2</ele>
        <time>2025-04-30T13:20:49Z</time>
      </trkpt>
      <trkpt lat="45.70391" lon="4.6479">
        <ele>520.4</ele>
        <time>2025-04-30T13:20:50Z</time>
      </trkpt>
      <trkpt lat="45.70388" lon="4.64787">
        <ele>520.8</ele>
        <time>2025-04-30T13:20:51Z</time>
      </trkpt>
      <trkpt lat="45.70385" lon="4.64786">
        <ele>521.2</ele>
        <time>2025-04-30T13:20:52Z</time>
      </trkpt>
      <trkpt lat="45.70383" lon="4.64784">
        <ele>521.4</ele>
        <time>2025-04-30T13:20:53Z</time>
      </trkpt>
      <trkpt lat="45.7038" lon="4.64783">
        <ele>521.8</ele>
        <time>2025-04-30T13:20:54Z</time>
      </trkpt>
      <trkpt lat="45.70378" lon="4.64782">
        <ele>522.2</ele>
        <time>2025-04-30T13:20:55Z</time>
      </trkpt>
      <trkpt lat="45.70376" lon="4.64781">
        <ele>522.4</ele>
        <time>2025-04-30T13:20:56Z</time>
      </trkpt>
      <trkpt lat="45.70374" lon="4.64779">
        <ele>522.6</ele>
        <time>2025-04-30T13:20:57Z</time>
      </trkpt>
      <trkpt lat="45.70372" lon="4.64777">
        <ele>522.8</ele>
        <time>2025-04-30T13:20:58Z</time>
      </trkpt>
      <trkpt lat="45.7037" lon="4.64776">
        <ele>522.8</ele>
        <time>2025-04-30T13:20:59Z</time>
      </trkpt>
      <trkpt lat="45.70368" lon="4.64775">
        <ele>523</ele>
        <time>2025-04-30T13:21:00Z</time>
      </trkpt>
      <trkpt lat="45.70367" lon="4.64773">
        <ele>523.2</ele>
        <time>2025-04-30T13:21:01Z</time>
      </trkpt>
      <trkpt lat="45.70364" lon="4.64771">
        <ele>523.4</ele>
        <time>2025-04-30T13:21:02Z</time>
      </trkpt>
      <trkpt lat="45.70362" lon="4.64769">
        <ele>523.6</ele>
        <time>2025-04-30T13:21:03Z</time>
      </trkpt>
      <trkpt lat="45.7036" lon="4.64767">
        <ele>523.8</ele>
        <time>2025-04-30T13:21:04Z</time>
      </trkpt>
      <trkpt lat="45.70358" lon="4.64765">
        <ele>524</ele>
        <time>2025-04-30T13:21:05Z</time>
      </trkpt>
      <trkpt lat="45.70355" lon="4.64763">
        <ele>524</ele>
        <time>2025-04-30T13:21:06Z</time>
      </trkpt>
      <trkpt lat="45.70352" lon="4.64761">
        <ele>524</ele>
        <time>2025-04-30T13:21:07Z</time>
      </trkpt>
      <trkpt lat="45.70349" lon="4.6476">
        <ele>524</ele>
        <time>2025-04-30T13:21:08Z</time>
      </trkpt>
      <trkpt lat="45.70347" lon="4.64759">
        <ele>524.2</ele>
        <time>2025-04-30T13:21:09Z</time>
      </trkpt>
      <trkpt lat="45.70345" lon="4.64758">
        <ele>524.2</ele>
        <time>2025-04-30T13:21:10Z</time>
      </trkpt>
      <trkpt lat="45.70342" lon="4.64758">
        <ele>524.2</ele>
        <time>2025-04-30T13:21:11Z</time>
      </trkpt>
      <trkpt lat="45.7034" lon="4.64757">
        <ele>524.2</ele>
        <time>2025-04-30T13:21:12Z</time>
      </trkpt>
      <trkpt lat="45.70339" lon="4.64756">
        <ele>524.2</ele>
        <time>2025-04-30T13:21:13Z</time>
      </trkpt>
      <trkpt lat="45.70338" lon="4.64756">
        <ele>524.4</ele>
        <time>2025-04-30T13:21:14Z</time>
      </trkpt>
      <trkpt lat="45.70336" lon="4.64756">
        <ele>524.6</ele>
        <time>2025-04-30T13:21:15Z</time>
      </trkpt>
      <trkpt lat="45.70335" lon="4.64756">
        <ele>524.8</ele>
        <time>2025-04-30T13:21:16Z</time>
      </trkpt>
      <trkpt lat="45.70333" lon="4.64757">
        <ele>524.8</ele>
        <time>2025-04-30T13:21:17Z</time>
      </trkpt>
      <trkpt lat="45.70331" lon="4.64758">
        <ele>524.8</ele>
        <time>2025-04-30T13:21:18Z</time>
      </trkpt>
      <trkpt lat="45.70329" lon="4.6476">
        <ele>525</ele>
        <time>2025-04-30T13:21:19Z</time>
      </trkpt>
      <trkpt lat="45.70327" lon="4.64763">
        <ele>525</ele>
        <time>2025-04-30T13:21:20Z</time>
      </trkpt>
      <trkpt lat="45.70325" lon="4.64768">
        <ele>524.8</ele>
        <time>2025-04-30T13:21:21Z</time>
      </trkpt>
      <trkpt lat="45.70324" lon="4.64773">
        <ele>524.8</ele>
        <time>2025-04-30T13:21:22Z</time>
      </trkpt>
      <trkpt lat="45.70322" lon="4.64778">
        <ele>524.4</ele>
        <time>2025-04-30T13:21:23Z</time>
      </trkpt>
      <trkpt lat="45.70319" lon="4.64784">
        <ele>524</ele>
        <time>2025-04-30T13:21:24Z</time>
      </trkpt>
      <trkpt lat="45.70318" lon="4.64791">
        <ele>523.4</ele>
        <time>2025-04-30T13:21:25Z</time>
      </trkpt>
      <trkpt lat="45.70316" lon="4.64796">
        <ele>523.2</ele>
        <time>2025-04-30T13:21:26Z</time>
      </trkpt>
      <trkpt lat="45.70314" lon="4.64802">
        <ele>523</ele>
        <time>2025-04-30T13:21:27Z</time>
      </trkpt>
      <trkpt lat="45.70313" lon="4.64807">
        <ele>522.6</ele>
        <time>2025-04-30T13:21:28Z</time>
      </trkpt>
      <trkpt lat="45.70312" lon="4.64812">
        <ele>522.4</ele>
        <time>2025-04-30T13:21:29Z</time>
      </trkpt>
      <trkpt lat="45.70312" lon="4.64817">
        <ele>522.2</ele>
        <time>2025-04-30T13:21:30Z</time>
      </trkpt>
      <trkpt lat="45.70309" lon="4.64823">
        <ele>522.2</ele>
        <time>2025-04-30T13:21:31Z</time>
      </trkpt>
      <trkpt lat="45.70306" lon="4.64827">
        <ele>521.8</ele>
        <time>2025-04-30T13:21:32Z</time>
      </trkpt>
      <trkpt lat="45.70303" lon="4.64832">
        <ele>521.2</ele>
        <time>2025-04-30T13:21:33Z</time>
      </trkpt>
      <trkpt lat="45.70301" lon="4.64835">
        <ele>521</ele>
        <time>2025-04-30T13:21:34Z</time>
      </trkpt>
      <trkpt lat="45.70298" lon="4.64836">
        <ele>520.6</ele>
        <time>2025-04-30T13:21:35Z</time>
      </trkpt>
      <trkpt lat="45.70295" lon="4.64837">
        <ele>520</ele>
        <time>2025-04-30T13:21:36Z</time>
      </trkpt>
      <trkpt lat="45.70292" lon="4.64838">
        <ele>519.6</ele>
        <time>2025-04-30T13:21:37Z</time>
      </trkpt>
      <trkpt lat="45.70289" lon="4.6484">
        <ele>519.4</ele>
        <time>2025-04-30T13:21:38Z</time>
      </trkpt>
      <trkpt lat="45.70286" lon="4.64842">
        <ele>518.8</ele>
        <time>2025-04-30T13:21:39Z</time>
      </trkpt>
      <trkpt lat="45.70283" lon="4.64845">
        <ele>518.6</ele>
        <time>2025-04-30T13:21:40Z</time>
      </trkpt>
      <trkpt lat="45.7028" lon="4.64848">
        <ele>518.2</ele>
        <time>2025-04-30T13:21:41Z</time>
      </trkpt>
      <trkpt lat="45.70277" lon="4.64851">
        <ele>517.6</ele>
        <time>2025-04-30T13:21:42Z</time>
      </trkpt>
      <trkpt lat="45.70273" lon="4.64854">
        <ele>517.4</ele>
        <time>2025-04-30T13:21:43Z</time>
      </trkpt>
      <trkpt lat="45.70269" lon="4.64856">
        <ele>516.8</ele>
        <time>2025-04-30T13:21:44Z</time>
      </trkpt>
      <trkpt lat="45.70265" lon="4.64858">
        <ele>516.2</ele>
        <time>2025-04-30T13:21:45Z</time>
      </trkpt>
      <trkpt lat="45.7026" lon="4.64859">
        <ele>515.8</ele>
        <time>2025-04-30T13:21:46Z</time>
      </trkpt>
      <trkpt lat="45.70255" lon="4.64861">
        <ele>515.4</ele>
        <time>2025-04-30T13:21:47Z</time>
      </trkpt>
      <trkpt lat="45.7025" lon="4.64864">
        <ele>514.4</ele>
        <time>2025-04-30T13:21:48Z</time>
      </trkpt>
      <trkpt lat="45.70245" lon="4.64869">
        <ele>513.8</ele>
        <time>2025-04-30T13:21:49Z</time>
      </trkpt>
      <trkpt lat="45.7024" lon="4.64875">
        <ele>513</ele>
        <time>2025-04-30T13:21:50Z</time>
      </trkpt>
      <trkpt lat="45.70236" lon="4.64883">
        <ele>512.6</ele>
        <time>2025-04-30T13:21:51Z</time>
      </trkpt>
      <trkpt lat="45.70233" lon="4.64893">
        <ele>512.2</ele>
        <time>2025-04-30T13:21:52Z</time>
      </trkpt>
      <trkpt lat="45.70231" lon="4.649">
        <ele>512</ele>
        <time>2025-04-30T13:21:53Z</time>
      </trkpt>
      <trkpt lat="45.70228" lon="4.64907">
        <ele>512</ele>
        <time>2025-04-30T13:21:54Z</time>
      </trkpt>
      <trkpt lat="45.70224" lon="4.64913">
        <ele>512</ele>
        <time>2025-04-30T13:21:55Z</time>
      </trkpt>
      <trkpt lat="45.70219" lon="4.64918">
        <ele>512</ele>
        <time>2025-04-30T13:21:56Z</time>
      </trkpt>
      <trkpt lat="45.70215" lon="4.64924">
        <ele>512.4</ele>
        <time>2025-04-30T13:21:57Z</time>
      </trkpt>
      <trkpt lat="45.70212" lon="4.64927">
        <ele>512.6</ele>
        <time>2025-04-30T13:21:58Z</time>
      </trkpt>
      <trkpt lat="45.70208" lon="4.64929">
        <ele>512.8</ele>
        <time>2025-04-30T13:21:59Z</time>
      </trkpt>
      <trkpt lat="45.70204" lon="4.64931">
        <ele>513.2</ele>
        <time>2025-04-30T13:22:00Z</time>
      </trkpt>
      <trkpt lat="45.702" lon="4.64931">
        <ele>513.4</ele>
        <time>2025-04-30T13:22:01Z</time>
      </trkpt>
      <trkpt lat="45.70195" lon="4.64931">
        <ele>513.4</ele>
        <time>2025-04-30T13:22:02Z</time>
      </trkpt>
      <trkpt lat="45.70189" lon="4.64933">
        <ele>513.4</ele>
        <time>2025-04-30T13:22:03Z</time>
      </trkpt>
      <trkpt lat="45.70183" lon="4.64938">
        <ele>513.4</ele>
        <time>2025-04-30T13:22:04Z</time>
      </trkpt>
      <trkpt lat="45.70178" lon="4.64943">
        <ele>513.4</ele>
        <time>2025-04-30T13:22:05Z</time>
      </trkpt>
      <trkpt lat="45.70174" lon="4.64949">
        <ele>513.2</ele>
        <time>2025-04-30T13:22:06Z</time>
      </trkpt>
      <trkpt lat="45.7017" lon="4.64955">
        <ele>513.2</ele>
        <time>2025-04-30T13:22:07Z</time>
      </trkpt>
      <trkpt lat="45.70167" lon="4.64961">
        <ele>513</ele>
        <time>2025-04-30T13:22:08Z</time>
      </trkpt>
      <trkpt lat="45.70164" lon="4.64968">
        <ele>513</ele>
        <time>2025-04-30T13:22:09Z</time>
      </trkpt>
      <trkpt lat="45.70162" lon="4.64975">
        <ele>513</ele>
        <time>2025-04-30T13:22:10Z</time>
      </trkpt>
      <trkpt lat="45.70159" lon="4.64983">
        <ele>513.2</ele>
        <time>2025-04-30T13:22:11Z</time>
      </trkpt>
      <trkpt lat="45.70157" lon="4.64989">
        <ele>513.2</ele>
        <time>2025-04-30T13:22:12Z</time>
      </trkpt>
      <trkpt lat="45.70155" lon="4.64995">
        <ele>513.4</ele>
        <time>2025-04-30T13:22:13Z</time>
      </trkpt>
      <trkpt lat="45.70153" lon="4.64999">
        <ele>513.8</ele>
        <time>2025-04-30T13:22:14Z</time>
      </trkpt>
      <trkpt lat="45.7015" lon="4.65003">
        <ele>514</ele>
        <time>2025-04-30T13:22:15Z</time>
      </trkpt>
      <trkpt lat="45.70147" lon="4.65007">
        <ele>514.4</ele>
        <time>2025-04-30T13:22:16Z</time>
      </trkpt>
      <trkpt lat="45.70145" lon="4.65011">
        <ele>515.2</ele>
        <time>2025-04-30T13:22:17Z</time>
      </trkpt>
      <trkpt lat="45.70142" lon="4.65014">
        <ele>515.6</ele>
        <time>2025-04-30T13:22:18Z</time>
      </trkpt>
      <trkpt lat="45.70138" lon="4.65016">
        <ele>516.2</ele>
        <time>2025-04-30T13:22:19Z</time>
      </trkpt>
      <trkpt lat="45.70135" lon="4.65019">
        <ele>516.4</ele>
        <time>2025-04-30T13:22:20Z</time>
      </trkpt>
      <trkpt lat="45.70132" lon="4.65023">
        <ele>516.6</ele>
        <time>2025-04-30T13:22:21Z</time>
      </trkpt>
      <trkpt lat="45.70128" lon="4.65026">
        <ele>516.8</ele>
        <time>2025-04-30T13:22:22Z</time>
      </trkpt>
      <trkpt lat="45.70125" lon="4.65029">
        <ele>517</ele>
        <time>2025-04-30T13:22:23Z</time>
      </trkpt>
      <trkpt lat="45.70121" lon="4.65034">
        <ele>517</ele>
        <time>2025-04-30T13:22:24Z</time>
      </trkpt>
      <trkpt lat="45.70117" lon="4.65039">
        <ele>517</ele>
        <time>2025-04-30T13:22:25Z</time>
      </trkpt>
      <trkpt lat="45.70115" lon="4.65042">
        <ele>517</ele>
        <time>2025-04-30T13:22:26Z</time>
      </trkpt>
      <trkpt lat="45.7011" lon="4.65047">
        <ele>516.8</ele>
        <time>2025-04-30T13:22:27Z</time>
      </trkpt>
      <trkpt lat="45.70105" lon="4.65052">
        <ele>516.8</ele>
        <time>2025-04-30T13:22:28Z</time>
      </trkpt>
      <trkpt lat="45.70101" lon="4.65055">
        <ele>516.2</ele>
        <time>2025-04-30T13:22:29Z</time>
      </trkpt>
      <trkpt lat="45.70097" lon="4.65059">
        <ele>515.8</ele>
        <time>2025-04-30T13:22:30Z</time>
      </trkpt>
      <trkpt lat="45.70093" lon="4.65062">
        <ele>515.4</ele>
        <time>2025-04-30T13:22:31Z</time>
      </trkpt>
      <trkpt lat="45.70089" lon="4.65065">
        <ele>515.2</ele>
        <time>2025-04-30T13:22:32Z</time>
      </trkpt>
      <trkpt lat="45.70084" lon="4.65067">
        <ele>515</ele>
        <time>2025-04-30T13:22:33Z</time>
      </trkpt>
      <trkpt lat="45.7008" lon="4.6507">
        <ele>515</ele>
        <time>2025-04-30T13:22:34Z</time>
      </trkpt>
      <trkpt lat="45.70075" lon="4.65071">
        <ele>515</ele>
        <time>2025-04-30T13:22:35Z</time>
      </trkpt>
      <trkpt lat="45.70071" lon="4.65072">
        <ele>515.2</ele>
        <time>2025-04-30T13:22:36Z</time>
      </trkpt>
      <trkpt lat="45.70066" lon="4.65072">
        <ele>515.2</ele>
        <time>2025-04-30T13:22:37Z</time>
      </trkpt>
      <trkpt lat="45.70063" lon="4.65073">
        <ele>515.4</ele>
        <time>2025-04-30T13:22:38Z</time>
      </trkpt>
      <trkpt lat="45.70061" lon="4.65074">
        <ele>515.8</ele>
        <time>2025-04-30T13:22:39Z</time>
      </trkpt>
      <trkpt lat="45.70059" lon="4.65073">
        <ele>516.4</ele>
        <time>2025-04-30T13:22:40Z</time>
      </trkpt>
      <trkpt lat="45.70056" lon="4.65073">
        <ele>516.8</ele>
        <time>2025-04-30T13:22:41Z</time>
      </trkpt>
      <trkpt lat="45.70053" lon="4.65074">
        <ele>517.4</ele>
        <time>2025-04-30T13:22:42Z</time>
      </trkpt>
      <trkpt lat="45.70051" lon="4.65075">
        <ele>517.8</ele>
        <time>2025-04-30T13:22:43Z</time>
      </trkpt>
      <trkpt lat="45.70047" lon="4.65076">
        <ele>518.2</ele>
        <time>2025-04-30T13:22:44Z</time>
      </trkpt>
      <trkpt lat="45.70044" lon="4.65076">
        <ele>518.4</ele>
        <time>2025-04-30T13:22:45Z</time>
      </trkpt>
      <trkpt lat="45.70041" lon="4.65076">
        <ele>518.6</ele>
        <time>2025-04-30T13:22:46Z</time>
      </trkpt>
      <trkpt lat="45.70038" lon="4.65076">
        <ele>518.8</ele>
        <time>2025-04-30T13:22:47Z</time>
      </trkpt>
      <trkpt lat="45.70034" lon="4.65075">
        <ele>519</ele>
        <time>2025-04-30T13:22:48Z</time>
      </trkpt>
      <trkpt lat="45.70031" lon="4.65075">
        <ele>519</ele>
        <time>2025-04-30T13:22:49Z</time>
      </trkpt>
      <trkpt lat="45.70029" lon="4.65075">
        <ele>519.2</ele>
        <time>2025-04-30T13:22:50Z</time>
      </trkpt>
      <trkpt lat="45.70025" lon="4.65074">
        <ele>519.4</ele>
        <time>2025-04-30T13:22:51Z</time>
      </trkpt>
      <trkpt lat="45.70022" lon="4.65075">
        <ele>519.4</ele>
        <time>2025-04-30T13:22:52Z</time>
      </trkpt>
      <trkpt lat="45.70019" lon="4.65075">
        <ele>519.6</ele>
        <time>2025-04-30T13:22:53Z</time>
      </trkpt>
      <trkpt lat="45.70016" lon="4.65075">
        <ele>519.8</ele>
        <time>2025-04-30T13:22:54Z</time>
      </trkpt>
      <trkpt lat="45.70014" lon="4.65074">
        <ele>519.8</ele>
        <time>2025-04-30T13:22:55Z</time>
      </trkpt>
      <trkpt lat="45.70011" lon="4.65073">
        <ele>520.2</ele>
        <time>2025-04-30T13:22:56Z</time>
      </trkpt>
      <trkpt lat="45.70007" lon="4.65073">
        <ele>520.2</ele>
        <time>2025-04-30T13:22:57Z</time>
      </trkpt>
      <trkpt lat="45.70004" lon="4.65073">
        <ele>520.6</ele>
        <time>2025-04-30T13:22:58Z</time>
      </trkpt>
      <trkpt lat="45.7" lon="4.65073">
        <ele>520.6</ele>
        <time>2025-04-30T13:22:59Z</time>
      </trkpt>
      <trkpt lat="45.69996" lon="4.65074">
        <ele>520.8</ele>
        <time>2025-04-30T13:23:00Z</time>
      </trkpt>
      <trkpt lat="45.69993" lon="4.65074">
        <ele>520.8</ele>
        <time>2025-04-30T13:23:01Z</time>
      </trkpt>
      <trkpt lat="45.69989" lon="4.65074">
        <ele>520.8</ele>
        <time>2025-04-30T13:23:02Z</time>
      </trkpt>
      <trkpt lat="45.69982" lon="4.65074">
        <ele>520.8</ele>
        <time>2025-04-30T13:23:03Z</time>
      </trkpt>
      <trkpt lat="45.69976" lon="4.65074">
        <ele>520.8</ele>
        <time>2025-04-30T13:23:04Z</time>
      </trkpt>
      <trkpt lat="45.69971" lon="4.65074">
        <ele>520.6</ele>
        <time>2025-04-30T13:23:05Z</time>
      </trkpt>
      <trkpt lat="45.69966" lon="4.65074">
        <ele>520.6</ele>
        <time>2025-04-30T13:23:06Z</time>
      </trkpt>
      <trkpt lat="45.69962" lon="4.65073">
        <ele>520.4</ele>
        <time>2025-04-30T13:23:07Z</time>
      </trkpt>
      <trkpt lat="45.69957" lon="4.65072">
        <ele>520.4</ele>
        <time>2025-04-30T13:23:08Z</time>
      </trkpt>
      <trkpt lat="45.69952" lon="4.65071">
        <ele>520.4</ele>
        <time>2025-04-30T13:23:09Z</time>
      </trkpt>
      <trkpt lat="45.69947" lon="4.65071">
        <ele>520.4</ele>
        <time>2025-04-30T13:23:10Z</time>
      </trkpt>
      <trkpt lat="45.69942" lon="4.65071">
        <ele>520.4</ele>
        <time>2025-04-30T13:23:11Z</time>
      </trkpt>
      <trkpt lat="45.69936" lon="4.65072">
        <ele>520.4</ele>
        <time>2025-04-30T13:23:12Z</time>
      </trkpt>
      <trkpt lat="45.6993" lon="4.65072">
        <ele>520.4</ele>
        <time>2025-04-30T13:23:13Z</time>
      </trkpt>
      <trkpt lat="45.69925" lon="4.65071">
        <ele>520.4</ele>
        <time>2025-04-30T13:23:14Z</time>
      </trkpt>
      <trkpt lat="45.6992" lon="4.65071">
        <ele>520.6</ele>
        <time>2025-04-30T13:23:15Z</time>
      </trkpt>
      <trkpt lat="45.69914" lon="4.65071">
        <ele>520.6</ele>
        <time>2025-04-30T13:23:16Z</time>
      </trkpt>
      <trkpt lat="45.69907" lon="4.65072">
        <ele>520.6</ele>
        <time>2025-04-30T13:23:17Z</time>
      </trkpt>
      <trkpt lat="45.69902" lon="4.65072">
        <ele>520.6</ele>
        <time>2025-04-30T13:23:18Z</time>
      </trkpt>
      <trkpt lat="45.69899" lon="4.65072">
        <ele>520.8</ele>
        <time>2025-04-30T13:23:19Z</time>
      </trkpt>
      <trkpt lat="45.69894" lon="4.65072">
        <ele>521</ele>
        <time>2025-04-30T13:23:20Z</time>
      </trkpt>
      <trkpt lat="45.69889" lon="4.65072">
        <ele>521.2</ele>
        <time>2025-04-30T13:23:21Z</time>
      </trkpt>
      <trkpt lat="45.69884" lon="4.65072">
        <ele>521.4</ele>
        <time>2025-04-30T13:23:22Z</time>
      </trkpt>
      <trkpt lat="45.6988" lon="4.65072">
        <ele>521.6</ele>
        <time>2025-04-30T13:23:23Z</time>
      </trkpt>
      <trkpt lat="45.69876" lon="4.65072">
        <ele>521.8</ele>
        <time>2025-04-30T13:23:24Z</time>
      </trkpt>
      <trkpt lat="45.69872" lon="4.65072">
        <ele>522</ele>
        <time>2025-04-30T13:23:25Z</time>
      </trkpt>
      <trkpt lat="45.69867" lon="4.65071">
        <ele>522.2</ele>
        <time>2025-04-30T13:23:26Z</time>
      </trkpt>
      <trkpt lat="45.69863" lon="4.65071">
        <ele>522.2</ele>
        <time>2025-04-30T13:23:27Z</time>
      </trkpt>
      <trkpt lat="45.69858" lon="4.65071">
        <ele>522.2</ele>
        <time>2025-04-30T13:23:28Z</time>
      </trkpt>
      <trkpt lat="45.69853" lon="4.6507">
        <ele>522.2</ele>
        <time>2025-04-30T13:23:29Z</time>
      </trkpt>
      <trkpt lat="45.69849" lon="4.65069">
        <ele>521.8</ele>
        <time>2025-04-30T13:23:30Z</time>
      </trkpt>
      <trkpt lat="45.69844" lon="4.6507">
        <ele>521.6</ele>
        <time>2025-04-30T13:23:31Z</time>
      </trkpt>
      <trkpt lat="45.69839" lon="4.6507">
        <ele>521.6</ele>
        <time>2025-04-30T13:23:32Z</time>
      </trkpt>
      <trkpt lat="45.69834" lon="4.6507">
        <ele>521.4</ele>
        <time>2025-04-30T13:23:33Z</time>
      </trkpt>
      <trkpt lat="45.69829" lon="4.6507">
        <ele>521.4</ele>
        <time>2025-04-30T13:23:34Z</time>
      </trkpt>
      <trkpt lat="45.69824" lon="4.6507">
        <ele>521.2</ele>
        <time>2025-04-30T13:23:35Z</time>
      </trkpt>
      <trkpt lat="45.69818" lon="4.65069">
        <ele>521.2</ele>
        <time>2025-04-30T13:23:36Z</time>
      </trkpt>
      <trkpt lat="45.69812" lon="4.65069">
        <ele>521.2</ele>
        <time>2025-04-30T13:23:37Z</time>
      </trkpt>
      <trkpt lat="45.69806" lon="4.65069">
        <ele>521</ele>
        <time>2025-04-30T13:23:38Z</time>
      </trkpt>
      <trkpt lat="45.698" lon="4.65069">
        <ele>520.8</ele>
        <time>2025-04-30T13:23:39Z</time>
      </trkpt>
      <trkpt lat="45.69795" lon="4.65068">
        <ele>520.6</ele>
        <time>2025-04-30T13:23:40Z</time>
      </trkpt>
      <trkpt lat="45.69789" lon="4.65067">
        <ele>520.2</ele>
        <time>2025-04-30T13:23:41Z</time>
      </trkpt>
      <trkpt lat="45.69784" lon="4.65066">
        <ele>520</ele>
        <time>2025-04-30T13:23:42Z</time>
      </trkpt>
      <trkpt lat="45.69777" lon="4.65065">
        <ele>519.6</ele>
        <time>2025-04-30T13:23:43Z</time>
      </trkpt>
      <trkpt lat="45.69772" lon="4.65064">
        <ele>519.6</ele>
        <time>2025-04-30T13:23:44Z</time>
      </trkpt>
      <trkpt lat="45.69766" lon="4.65064">
        <ele>519.4</ele>
        <time>2025-04-30T13:23:45Z</time>
      </trkpt>
      <trkpt lat="45.69761" lon="4.65063">
        <ele>519.2</ele>
        <time>2025-04-30T13:23:46Z</time>
      </trkpt>
      <trkpt lat="45.69755" lon="4.65061">
        <ele>519</ele>
        <time>2025-04-30T13:23:47Z</time>
      </trkpt>
      <trkpt lat="45.6975" lon="4.65059">
        <ele>518.6</ele>
        <time>2025-04-30T13:23:48Z</time>
      </trkpt>
      <trkpt lat="45.69745" lon="4.65057">
        <ele>518.4</ele>
        <time>2025-04-30T13:23:49Z</time>
      </trkpt>
      <trkpt lat="45.69741" lon="4.65053">
        <ele>518.4</ele>
        <time>2025-04-30T13:23:50Z</time>
      </trkpt>
      <trkpt lat="45.69737" lon="4.65048">
        <ele>518.2</ele>
        <time>2025-04-30T13:23:51Z</time>
      </trkpt>
      <trkpt lat="45.69735" lon="4.65041">
        <ele>518</ele>
        <time>2025-04-30T13:23:52Z</time>
      </trkpt>
      <trkpt lat="45.69734" lon="4.65033">
        <ele>517.6</ele>
        <time>2025-04-30T13:23:53Z</time>
      </trkpt>
      <trkpt lat="45.69734" lon="4.65025">
        <ele>517.2</ele>
        <time>2025-04-30T13:23:54Z</time>
      </trkpt>
      <trkpt lat="45.69733" lon="4.65017">
        <ele>517.2</ele>
        <time>2025-04-30T13:23:55Z</time>
      </trkpt>
      <trkpt lat="45.69733" lon="4.65009">
        <ele>516.6</ele>
        <time>2025-04-30T13:23:56Z</time>
      </trkpt>
      <trkpt lat="45.69733" lon="4.65002">
        <ele>516.4</ele>
        <time>2025-04-30T13:23:57Z</time>
      </trkpt>
      <trkpt lat="45.69731" lon="4.64991">
        <ele>516.2</ele>
        <time>2025-04-30T13:23:58Z</time>
      </trkpt>
      <trkpt lat="45.6973" lon="4.64982">
        <ele>516</ele>
        <time>2025-04-30T13:23:59Z</time>
      </trkpt>
      <trkpt lat="45.69727" lon="4.64972">
        <ele>515.8</ele>
        <time>2025-04-30T13:24:00Z</time>
      </trkpt>
      <trkpt lat="45.69725" lon="4.64963">
        <ele>515.4</ele>
        <time>2025-04-30T13:24:01Z</time>
      </trkpt>
      <trkpt lat="45.69723" lon="4.64954">
        <ele>515.4</ele>
        <time>2025-04-30T13:24:02Z</time>
      </trkpt>
      <trkpt lat="45.69721" lon="4.64947">
        <ele>514.6</ele>
        <time>2025-04-30T13:24:03Z</time>
      </trkpt>
      <trkpt lat="45.69719" lon="4.64941">
        <ele>514.2</ele>
        <time>2025-04-30T13:24:04Z</time>
      </trkpt>
      <trkpt lat="45.69718" lon="4.64936">
        <ele>513.8</ele>
        <time>2025-04-30T13:24:05Z</time>
      </trkpt>
      <trkpt lat="45.69716" lon="4.64931">
        <ele>513.8</ele>
        <time>2025-04-30T13:24:06Z</time>
      </trkpt>
      <trkpt lat="45.69715" lon="4.64926">
        <ele>513.8</ele>
        <time>2025-04-30T13:24:07Z</time>
      </trkpt>
      <trkpt lat="45.69714" lon="4.64921">
        <ele>513.8</ele>
        <time>2025-04-30T13:24:08Z</time>
      </trkpt>
      <trkpt lat="45.69713" lon="4.64917">
        <ele>513.8</ele>
        <time>2025-04-30T13:24:09Z</time>
      </trkpt>
      <trkpt lat="45.69711" lon="4.64912">
        <ele>513.8</ele>
        <time>2025-04-30T13:24:10Z</time>
      </trkpt>
      <trkpt lat="45.6971" lon="4.64908">
        <ele>513.8</ele>
        <time>2025-04-30T13:24:11Z</time>
      </trkpt>
      <trkpt lat="45.69709" lon="4.64903">
        <ele>513.8</ele>
        <time>2025-04-30T13:24:12Z</time>
      </trkpt>
      <trkpt lat="45.69707" lon="4.64899">
        <ele>513.8</ele>
        <time>2025-04-30T13:24:13Z</time>
      </trkpt>
      <trkpt lat="45.69706" lon="4.64895">
        <ele>514</ele>
        <time>2025-04-30T13:24:14Z</time>
      </trkpt>
      <trkpt lat="45.69705" lon="4.64891">
        <ele>514</ele>
        <time>2025-04-30T13:24:15Z</time>
      </trkpt>
      <trkpt lat="45.69704" lon="4.64887">
        <ele>514.4</ele>
        <time>2025-04-30T13:24:16Z</time>
      </trkpt>
      <trkpt lat="45.69703" lon="4.64882">
        <ele>514.4</ele>
        <time>2025-04-30T13:24:17Z</time>
      </trkpt>
      <trkpt lat="45.69702" lon="4.64878">
        <ele>514.6</ele>
        <time>2025-04-30T13:24:18Z</time>
      </trkpt>
      <trkpt lat="45.69701" lon="4.64873">
        <ele>514.8</ele>
        <time>2025-04-30T13:24:19Z</time>
      </trkpt>
      <trkpt lat="45.697" lon="4.64867">
        <ele>515</ele>
        <time>2025-04-30T13:24:20Z</time>
      </trkpt>
      <trkpt lat="45.69698" lon="4.64861">
        <ele>515</ele>
        <time>2025-04-30T13:24:21Z</time>
      </trkpt>
      <trkpt lat="45.69698" lon="4.64856">
        <ele>515</ele>
        <time>2025-04-30T13:24:22Z</time>
      </trkpt>
      <trkpt lat="45.69697" lon="4.6485">
        <ele>515</ele>
        <time>2025-04-30T13:24:23Z</time>
      </trkpt>
      <trkpt lat="45.69696" lon="4.64844">
        <ele>514.8</ele>
        <time>2025-04-30T13:24:24Z</time>
      </trkpt>
      <trkpt lat="45.69695" lon="4.64839">
        <ele>514.8</ele>
        <time>2025-04-30T13:24:25Z</time>
      </trkpt>
      <trkpt lat="45.69694" lon="4.64833">
        <ele>514.8</ele>
        <time>2025-04-30T13:24:26Z</time>
      </trkpt>
      <trkpt lat="45.69693" lon="4.64827">
        <ele>514.8</ele>
        <time>2025-04-30T13:24:27Z</time>
      </trkpt>
      <trkpt lat="45.69693" lon="4.64822">
        <ele>514.8</ele>
        <time>2025-04-30T13:24:28Z</time>
      </trkpt>
      <trkpt lat="45.69692" lon="4.64816">
        <ele>514.8</ele>
        <time>2025-04-30T13:24:29Z</time>
      </trkpt>
      <trkpt lat="45.69692" lon="4.64812">
        <ele>514.8</ele>
        <time>2025-04-30T13:24:30Z</time>
      </trkpt>
      <trkpt lat="45.69692" lon="4.64806">
        <ele>514.8</ele>
        <time>2025-04-30T13:24:31Z</time>
      </trkpt>
      <trkpt lat="45.69692" lon="4.64799">
        <ele>514.8</ele>
        <time>2025-04-30T13:24:32Z</time>
      </trkpt>
      <trkpt lat="45.69692" lon="4.64793">
        <ele>514.8</ele>
        <time>2025-04-30T13:24:33Z</time>
      </trkpt>
      <trkpt lat="45.69692" lon="4.64786">
        <ele>514.8</ele>
        <time>2025-04-30T13:24:34Z</time>
      </trkpt>
      <trkpt lat="45.69692" lon="4.64779">
        <ele>515</ele>
        <time>2025-04-30T13:24:35Z</time>
      </trkpt>
      <trkpt lat="45.69692" lon="4.64773">
        <ele>515.2</ele>
        <time>2025-04-30T13:24:36Z</time>
      </trkpt>
      <trkpt lat="45.69692" lon="4.64767">
        <ele>515.4</ele>
        <time>2025-04-30T13:24:37Z</time>
      </trkpt>
      <trkpt lat="45.69692" lon="4.6476">
        <ele>515.4</ele>
        <time>2025-04-30T13:24:38Z</time>
      </trkpt>
      <trkpt lat="45.69692" lon="4.64755">
        <ele>515.6</ele>
        <time>2025-04-30T13:24:39Z</time>
      </trkpt>
      <trkpt lat="45.69692" lon="4.6475">
        <ele>515.6</ele>
        <time>2025-04-30T13:24:40Z</time>
      </trkpt>
      <trkpt lat="45.69692" lon="4.64743">
        <ele>515.8</ele>
        <time>2025-04-30T13:24:41Z</time>
      </trkpt>
      <trkpt lat="45.69692" lon="4.64738">
        <ele>515.8</ele>
        <time>2025-04-30T13:24:42Z</time>
      </trkpt>
      <trkpt lat="45.69692" lon="4.64732">
        <ele>515.8</ele>
        <time>2025-04-30T13:24:43Z</time>
      </trkpt>
      <trkpt lat="45.69693" lon="4.64728">
        <ele>516</ele>
        <time>2025-04-30T13:24:44Z</time>
      </trkpt>
      <trkpt lat="45.69693" lon="4.64722">
        <ele>515.8</ele>
        <time>2025-04-30T13:24:45Z</time>
      </trkpt>
      <trkpt lat="45.69694" lon="4.64716">
        <ele>515.8</ele>
        <time>2025-04-30T13:24:46Z</time>
      </trkpt>
      <trkpt lat="45.69695" lon="4.6471">
        <ele>515.8</ele>
        <time>2025-04-30T13:24:47Z</time>
      </trkpt>
      <trkpt lat="45.69696" lon="4.64704">
        <ele>515.6</ele>
        <time>2025-04-30T13:24:48Z</time>
      </trkpt>
      <trkpt lat="45.69697" lon="4.64698">
        <ele>515.4</ele>
        <time>2025-04-30T13:24:49Z</time>
      </trkpt>
      <trkpt lat="45.69698" lon="4.64691">
        <ele>515.2</ele>
        <time>2025-04-30T13:24:50Z</time>
      </trkpt>
      <trkpt lat="45.69699" lon="4.64684">
        <ele>514.6</ele>
        <time>2025-04-30T13:24:51Z</time>
      </trkpt>
      <trkpt lat="45.697" lon="4.64677">
        <ele>514.4</ele>
        <time>2025-04-30T13:24:52Z</time>
      </trkpt>
      <trkpt lat="45.69702" lon="4.6467">
        <ele>513.8</ele>
        <time>2025-04-30T13:24:53Z</time>
      </trkpt>
      <trkpt lat="45.69705" lon="4.64664">
        <ele>513</ele>
        <time>2025-04-30T13:24:54Z</time>
      </trkpt>
      <trkpt lat="45.69707" lon="4.64656">
        <ele>512.6</ele>
        <time>2025-04-30T13:24:55Z</time>
      </trkpt>
      <trkpt lat="45.69711" lon="4.64648">
        <ele>512.2</ele>
        <time>2025-04-30T13:24:56Z</time>
      </trkpt>
      <trkpt lat="45.69714" lon="4.6464">
        <ele>511.4</ele>
        <time>2025-04-30T13:24:57Z</time>
      </trkpt>
      <trkpt lat="45.69717" lon="4.64633">
        <ele>511</ele>
        <time>2025-04-30T13:24:58Z</time>
      </trkpt>
      <trkpt lat="45.69722" lon="4.64622">
        <ele>510.2</ele>
        <time>2025-04-30T13:24:59Z</time>
      </trkpt>
      <trkpt lat="45.69726" lon="4.64612">
        <ele>509.6</ele>
        <time>2025-04-30T13:25:00Z</time>
      </trkpt>
      <trkpt lat="45.69731" lon="4.64601">
        <ele>509.2</ele>
        <time>2025-04-30T13:25:01Z</time>
      </trkpt>
      <trkpt lat="45.69736" lon="4.64591">
        <ele>508</ele>
        <time>2025-04-30T13:25:02Z</time>
      </trkpt>
      <trkpt lat="45.69741" lon="4.6458">
        <ele>507</ele>
        <time>2025-04-30T13:25:03Z</time>
      </trkpt>
      <trkpt lat="45.69747" lon="4.6457">
        <ele>505.8</ele>
        <time>2025-04-30T13:25:04Z</time>
      </trkpt>
      <trkpt lat="45.69754" lon="4.6456">
        <ele>505</ele>
        <time>2025-04-30T13:25:05Z</time>
      </trkpt>
      <trkpt lat="45.69761" lon="4.64552">
        <ele>504</ele>
        <time>2025-04-30T13:25:06Z</time>
      </trkpt>
      <trkpt lat="45.69768" lon="4.64544">
        <ele>502.8</ele>
        <time>2025-04-30T13:25:07Z</time>
      </trkpt>
      <trkpt lat="45.69775" lon="4.64537">
        <ele>502</ele>
        <time>2025-04-30T13:25:08Z</time>
      </trkpt>
      <trkpt lat="45.69781" lon="4.64529">
        <ele>501.8</ele>
        <time>2025-04-30T13:25:09Z</time>
      </trkpt>
      <trkpt lat="45.69787" lon="4.64521">
        <ele>501.8</ele>
        <time>2025-04-30T13:25:10Z</time>
      </trkpt>
      <trkpt lat="45.69793" lon="4.64512">
        <ele>501.8</ele>
        <time>2025-04-30T13:25:11Z</time>
      </trkpt>
      <trkpt lat="45.69799" lon="4.64504">
        <ele>501.8</ele>
        <time>2025-04-30T13:25:12Z</time>
      </trkpt>
      <trkpt lat="45.69804" lon="4.64496">
        <ele>501.8</ele>
        <time>2025-04-30T13:25:13Z</time>
      </trkpt>
      <trkpt lat="45.69807" lon="4.64485">
        <ele>501.8</ele>
        <time>2025-04-30T13:25:14Z</time>
      </trkpt>
      <trkpt lat="45.69807" lon="4.64475">
        <ele>501.8</ele>
        <time>2025-04-30T13:25:15Z</time>
      </trkpt>
      <trkpt lat="45.69804" lon="4.64465">
        <ele>501.8</ele>
        <time>2025-04-30T13:25:16Z</time>
      </trkpt>
      <trkpt lat="45.69799" lon="4.64457">
        <ele>501.6</ele>
        <time>2025-04-30T13:25:17Z</time>
      </trkpt>
      <trkpt lat="45.69793" lon="4.64452">
        <ele>501.6</ele>
        <time>2025-04-30T13:25:18Z</time>
      </trkpt>
      <trkpt lat="45.69786" lon="4.6445">
        <ele>501</ele>
        <time>2025-04-30T13:25:19Z</time>
      </trkpt>
      <trkpt lat="45.69778" lon="4.6445">
        <ele>500.8</ele>
        <time>2025-04-30T13:25:20Z</time>
      </trkpt>
      <trkpt lat="45.69771" lon="4.6445">
        <ele>500.8</ele>
        <time>2025-04-30T13:25:21Z</time>
      </trkpt>
      <trkpt lat="45.69766" lon="4.6445">
        <ele>500.8</ele>
        <time>2025-04-30T13:25:22Z</time>
      </trkpt>
      <trkpt lat="45.69758" lon="4.64449">
        <ele>500.8</ele>
        <time>2025-04-30T13:25:23Z</time>
      </trkpt>
      <trkpt lat="45.69752" lon="4.64448">
        <ele>500.8</ele>
        <time>2025-04-30T13:25:24Z</time>
      </trkpt>
      <trkpt lat="45.69747" lon="4.64447">
        <ele>501</ele>
        <time>2025-04-30T13:25:25Z</time>
      </trkpt>
      <trkpt lat="45.69741" lon="4.64444">
        <ele>501.2</ele>
        <time>2025-04-30T13:25:26Z</time>
      </trkpt>
      <trkpt lat="45.69736" lon="4.6444">
        <ele>501.6</ele>
        <time>2025-04-30T13:25:27Z</time>
      </trkpt>
      <trkpt lat="45.6973" lon="4.64435">
        <ele>501.8</ele>
        <time>2025-04-30T13:25:28Z</time>
      </trkpt>
      <trkpt lat="45.69726" lon="4.64431">
        <ele>502.2</ele>
        <time>2025-04-30T13:25:29Z</time>
      </trkpt>
      <trkpt lat="45.69722" lon="4.64425">
        <ele>502.4</ele>
        <time>2025-04-30T13:25:30Z</time>
      </trkpt>
      <trkpt lat="45.69718" lon="4.6442">
        <ele>502.8</ele>
        <time>2025-04-30T13:25:31Z</time>
      </trkpt>
      <trkpt lat="45.69715" lon="4.64413">
        <ele>503.6</ele>
        <time>2025-04-30T13:25:32Z</time>
      </trkpt>
      <trkpt lat="45.69714" lon="4.64409">
        <ele>504.2</ele>
        <time>2025-04-30T13:25:33Z</time>
      </trkpt>
      <trkpt lat="45.69712" lon="4.64404">
        <ele>504.6</ele>
        <time>2025-04-30T13:25:34Z</time>
      </trkpt>
      <trkpt lat="45.6971" lon="4.644">
        <ele>505.4</ele>
        <time>2025-04-30T13:25:35Z</time>
      </trkpt>
      <trkpt lat="45.69708" lon="4.64395">
        <ele>506</ele>
        <time>2025-04-30T13:25:36Z</time>
      </trkpt>
      <trkpt lat="45.69707" lon="4.64392">
        <ele>507</ele>
        <time>2025-04-30T13:25:37Z</time>
      </trkpt>
      <trkpt lat="45.69706" lon="4.64387">
        <ele>507.2</ele>
        <time>2025-04-30T13:25:38Z</time>
      </trkpt>
      <trkpt lat="45.69705" lon="4.64382">
        <ele>507.4</ele>
        <time>2025-04-30T13:25:39Z</time>
      </trkpt>
      <trkpt lat="45.69704" lon="4.64377">
        <ele>507.8</ele>
        <time>2025-04-30T13:25:40Z</time>
      </trkpt>
      <trkpt lat="45.69703" lon="4.64372">
        <ele>508.2</ele>
        <time>2025-04-30T13:25:41Z</time>
      </trkpt>
      <trkpt lat="45.69703" lon="4.64366">
        <ele>508.6</ele>
        <time>2025-04-30T13:25:42Z</time>
      </trkpt>
      <trkpt lat="45.69703" lon="4.6436">
        <ele>508.8</ele>
        <time>2025-04-30T13:25:43Z</time>
      </trkpt>
      <trkpt lat="45.69703" lon="4.64354">
        <ele>508.8</ele>
        <time>2025-04-30T13:25:44Z</time>
      </trkpt>
      <trkpt lat="45.69704" lon="4.64348">
        <ele>508.8</ele>
        <time>2025-04-30T13:25:45Z</time>
      </trkpt>
      <trkpt lat="45.69704" lon="4.64343">
        <ele>509</ele>
        <time>2025-04-30T13:25:46Z</time>
      </trkpt>
      <trkpt lat="45.69705" lon="4.64337">
        <ele>509.2</ele>
        <time>2025-04-30T13:25:47Z</time>
      </trkpt>
      <trkpt lat="45.69706" lon="4.64331">
        <ele>509.4</ele>
        <time>2025-04-30T13:25:48Z</time>
      </trkpt>
      <trkpt lat="45.69707" lon="4.64325">
        <ele>509.4</ele>
        <time>2025-04-30T13:25:49Z</time>
      </trkpt>
      <trkpt lat="45.69709" lon="4.64319">
        <ele>509.4</ele>
        <time>2025-04-30T13:25:50Z</time>
      </trkpt>
      <trkpt lat="45.69711" lon="4.64312">
        <ele>509.2</ele>
        <time>2025-04-30T13:25:51Z</time>
      </trkpt>
      <trkpt lat="45.69713" lon="4.64305">
        <ele>509</ele>
        <time>2025-04-30T13:25:52Z</time>
      </trkpt>
      <trkpt lat="45.69715" lon="4.64298">
        <ele>508.6</ele>
        <time>2025-04-30T13:25:53Z</time>
      </trkpt>
      <trkpt lat="45.69716" lon="4.64289">
        <ele>508.2</ele>
        <time>2025-04-30T13:25:54Z</time>
      </trkpt>
      <trkpt lat="45.69718" lon="4.6428">
        <ele>507.4</ele>
        <time>2025-04-30T13:25:55Z</time>
      </trkpt>
      <trkpt lat="45.69721" lon="4.64271">
        <ele>506.8</ele>
        <time>2025-04-30T13:25:56Z</time>
      </trkpt>
      <trkpt lat="45.69724" lon="4.64261">
        <ele>505.8</ele>
        <time>2025-04-30T13:25:57Z</time>
      </trkpt>
      <trkpt lat="45.69728" lon="4.64251">
        <ele>505</ele>
        <time>2025-04-30T13:25:58Z</time>
      </trkpt>
      <trkpt lat="45.69732" lon="4.64242">
        <ele>504.6</ele>
        <time>2025-04-30T13:25:59Z</time>
      </trkpt>
      <trkpt lat="45.69738" lon="4.64235">
        <ele>504.2</ele>
        <time>2025-04-30T13:26:00Z</time>
      </trkpt>
      <trkpt lat="45.69744" lon="4.64229">
        <ele>503.8</ele>
        <time>2025-04-30T13:26:01Z</time>
      </trkpt>
      <trkpt lat="45.6975" lon="4.64225">
        <ele>503.8</ele>
        <time>2025-04-30T13:26:02Z</time>
      </trkpt>
      <trkpt lat="45.69755" lon="4.6422">
        <ele>503.8</ele>
        <time>2025-04-30T13:26:03Z</time>
      </trkpt>
      <trkpt lat="45.69759" lon="4.64215">
        <ele>503.8</ele>
        <time>2025-04-30T13:26:04Z</time>
      </trkpt>
      <trkpt lat="45.69764" lon="4.64211">
        <ele>504.2</ele>
        <time>2025-04-30T13:26:05Z</time>
      </trkpt>
      <trkpt lat="45.69768" lon="4.64207">
        <ele>505</ele>
        <time>2025-04-30T13:26:06Z</time>
      </trkpt>
      <trkpt lat="45.69771" lon="4.64202">
        <ele>505.2</ele>
        <time>2025-04-30T13:26:07Z</time>
      </trkpt>
      <trkpt lat="45.69775" lon="4.64198">
        <ele>505.4</ele>
        <time>2025-04-30T13:26:08Z</time>
      </trkpt>
      <trkpt lat="45.69778" lon="4.64194">
        <ele>505.6</ele>
        <time>2025-04-30T13:26:09Z</time>
      </trkpt>
      <trkpt lat="45.69781" lon="4.64189">
        <ele>505.6</ele>
        <time>2025-04-30T13:26:10Z</time>
      </trkpt>
      <trkpt lat="45.69783" lon="4.64184">
        <ele>505.6</ele>
        <time>2025-04-30T13:26:11Z</time>
      </trkpt>
      <trkpt lat="45.69787" lon="4.64178">
        <ele>505.8</ele>
        <time>2025-04-30T13:26:12Z</time>
      </trkpt>
      <trkpt lat="45.69791" lon="4.64171">
        <ele>505.6</ele>
        <time>2025-04-30T13:26:13Z</time>
      </trkpt>
      <trkpt lat="45.69796" lon="4.64164">
        <ele>505.6</ele>
        <time>2025-04-30T13:26:14Z</time>
      </trkpt>
      <trkpt lat="45.69802" lon="4.64158">
        <ele>505</ele>
        <time>2025-04-30T13:26:15Z</time>
      </trkpt>
      <trkpt lat="45.69808" lon="4.64151">
        <ele>503.8</ele>
        <time>2025-04-30T13:26:16Z</time>
      </trkpt>
      <trkpt lat="45.69812" lon="4.6414">
        <ele>502.4</ele>
        <time>2025-04-30T13:26:17Z</time>
      </trkpt>
      <trkpt lat="45.69812" lon="4.64132">
        <ele>501.8</ele>
        <time>2025-04-30T13:26:18Z</time>
      </trkpt>
      <trkpt lat="45.6981" lon="4.64125">
        <ele>501.8</ele>
        <time>2025-04-30T13:26:19Z</time>
      </trkpt>
      <trkpt lat="45.69807" lon="4.6412">
        <ele>501.8</ele>
        <time>2025-04-30T13:26:20Z</time>
      </trkpt>
      <trkpt lat="45.69804" lon="4.64114">
        <ele>501.8</ele>
        <time>2025-04-30T13:26:21Z</time>
      </trkpt>
      <trkpt lat="45.69801" lon="4.64109">
        <ele>502.4</ele>
        <time>2025-04-30T13:26:22Z</time>
      </trkpt>
      <trkpt lat="45.69797" lon="4.64104">
        <ele>503</ele>
        <time>2025-04-30T13:26:23Z</time>
      </trkpt>
      <trkpt lat="45.69793" lon="4.64098">
        <ele>503.6</ele>
        <time>2025-04-30T13:26:24Z</time>
      </trkpt>
      <trkpt lat="45.69788" lon="4.64092">
        <ele>503.6</ele>
        <time>2025-04-30T13:26:25Z</time>
      </trkpt>
      <trkpt lat="45.69784" lon="4.64086">
        <ele>503.6</ele>
        <time>2025-04-30T13:26:26Z</time>
      </trkpt>
      <trkpt lat="45.69779" lon="4.64079">
        <ele>503.6</ele>
        <time>2025-04-30T13:26:27Z</time>
      </trkpt>
      <trkpt lat="45.69775" lon="4.64071">
        <ele>503.6</ele>
        <time>2025-04-30T13:26:28Z</time>
      </trkpt>
      <trkpt lat="45.69771" lon="4.64062">
        <ele>503.2</ele>
        <time>2025-04-30T13:26:29Z</time>
      </trkpt>
      <trkpt lat="45.69768" lon="4.64053">
        <ele>502.6</ele>
        <time>2025-04-30T13:26:30Z</time>
      </trkpt>
      <trkpt lat="45.69766" lon="4.64043">
        <ele>502</ele>
        <time>2025-04-30T13:26:31Z</time>
      </trkpt>
      <trkpt lat="45.69765" lon="4.64033">
        <ele>501.4</ele>
        <time>2025-04-30T13:26:32Z</time>
      </trkpt>
      <trkpt lat="45.69764" lon="4.64022">
        <ele>501.2</ele>
        <time>2025-04-30T13:26:33Z</time>
      </trkpt>
      <trkpt lat="45.69765" lon="4.64012">
        <ele>500.8</ele>
        <time>2025-04-30T13:26:34Z</time>
      </trkpt>
      <trkpt lat="45.69766" lon="4.64001">
        <ele>500.2</ele>
        <time>2025-04-30T13:26:35Z</time>
      </trkpt>
      <trkpt lat="45.69769" lon="4.6399">
        <ele>499.8</ele>
        <time>2025-04-30T13:26:36Z</time>
      </trkpt>
      <trkpt lat="45.69773" lon="4.6398">
        <ele>499.2</ele>
        <time>2025-04-30T13:26:37Z</time>
      </trkpt>
      <trkpt lat="45.69778" lon="4.6397">
        <ele>499</ele>
        <time>2025-04-30T13:26:38Z</time>
      </trkpt>
      <trkpt lat="45.69783" lon="4.63961">
        <ele>498.6</ele>
        <time>2025-04-30T13:26:39Z</time>
      </trkpt>
      <trkpt lat="45.69787" lon="4.63952">
        <ele>498</ele>
        <time>2025-04-30T13:26:40Z</time>
      </trkpt>
      <trkpt lat="45.69791" lon="4.63943">
        <ele>497.6</ele>
        <time>2025-04-30T13:26:41Z</time>
      </trkpt>
      <trkpt lat="45.69792" lon="4.63934">
        <ele>497.2</ele>
        <time>2025-04-30T13:26:42Z</time>
      </trkpt>
      <trkpt lat="45.6979" lon="4.63927">
        <ele>497</ele>
        <time>2025-04-30T13:26:43Z</time>
      </trkpt>
      <trkpt lat="45.69787" lon="4.63922">
        <ele>497</ele>
        <time>2025-04-30T13:26:44Z</time>
      </trkpt>
      <trkpt lat="45.69783" lon="4.6392">
        <ele>497</ele>
        <time>2025-04-30T13:26:45Z</time>
      </trkpt>
      <trkpt lat="45.69779" lon="4.63919">
        <ele>497.4</ele>
        <time>2025-04-30T13:26:46Z</time>
      </trkpt>
      <trkpt lat="45.69774" lon="4.63917">
        <ele>497.6</ele>
        <time>2025-04-30T13:26:47Z</time>
      </trkpt>
      <trkpt lat="45.6977" lon="4.63915">
        <ele>497.8</ele>
        <time>2025-04-30T13:26:48Z</time>
      </trkpt>
      <trkpt lat="45.69765" lon="4.63913">
        <ele>498</ele>
        <time>2025-04-30T13:26:49Z</time>
      </trkpt>
      <trkpt lat="45.69761" lon="4.63911">
        <ele>498.6</ele>
        <time>2025-04-30T13:26:50Z</time>
      </trkpt>
      <trkpt lat="45.69756" lon="4.6391">
        <ele>499.2</ele>
        <time>2025-04-30T13:26:51Z</time>
      </trkpt>
      <trkpt lat="45.69752" lon="4.63909">
        <ele>499.6</ele>
        <time>2025-04-30T13:26:52Z</time>
      </trkpt>
      <trkpt lat="45.69748" lon="4.63908">
        <ele>500</ele>
        <time>2025-04-30T13:26:53Z</time>
      </trkpt>
      <trkpt lat="45.69745" lon="4.63907">
        <ele>500.4</ele>
        <time>2025-04-30T13:26:54Z</time>
      </trkpt>
      <trkpt lat="45.69741" lon="4.63905">
        <ele>500.6</ele>
        <time>2025-04-30T13:26:55Z</time>
      </trkpt>
      <trkpt lat="45.69739" lon="4.63902">
        <ele>501</ele>
        <time>2025-04-30T13:26:56Z</time>
      </trkpt>
      <trkpt lat="45.69739" lon="4.63899">
        <ele>501.6</ele>
        <time>2025-04-30T13:26:57Z</time>
      </trkpt>
      <trkpt lat="45.69741" lon="4.63897">
        <ele>501.8</ele>
        <time>2025-04-30T13:26:58Z</time>
      </trkpt>
      <trkpt lat="45.69743" lon="4.63896">
        <ele>502.4</ele>
        <time>2025-04-30T13:26:59Z</time>
      </trkpt>
      <trkpt lat="45.69745" lon="4.63896">
        <ele>502.8</ele>
        <time>2025-04-30T13:27:00Z</time>
      </trkpt>
      <trkpt lat="45.69747" lon="4.63896">
        <ele>503.2</ele>
        <time>2025-04-30T13:27:01Z</time>
      </trkpt>
      <trkpt lat="45.69749" lon="4.63895">
        <ele>503.4</ele>
        <time>2025-04-30T13:27:02Z</time>
      </trkpt>
      <trkpt lat="45.69751" lon="4.63895">
        <ele>504</ele>
        <time>2025-04-30T13:27:03Z</time>
      </trkpt>
      <trkpt lat="45.69752" lon="4.63895">
        <ele>504.2</ele>
        <time>2025-04-30T13:27:04Z</time>
      </trkpt>
      <trkpt lat="45.69754" lon="4.63895">
        <ele>504.6</ele>
        <time>2025-04-30T13:27:05Z</time>
      </trkpt>
      <trkpt lat="45.69755" lon="4.63894">
        <ele>505.2</ele>
        <time>2025-04-30T13:27:06Z</time>
      </trkpt>
      <trkpt lat="45.69757" lon="4.63893">
        <ele>505.2</ele>
        <time>2025-04-30T13:27:07Z</time>
      </trkpt>
      <trkpt lat="45.69759" lon="4.63892">
        <ele>505.6</ele>
        <time>2025-04-30T13:27:08Z</time>
      </trkpt>
      <trkpt lat="45.6976" lon="4.63891">
        <ele>506</ele>
        <time>2025-04-30T13:27:09Z</time>
      </trkpt>
      <trkpt lat="45.69762" lon="4.6389">
        <ele>506.4</ele>
        <time>2025-04-30T13:27:10Z</time>
      </trkpt>
      <trkpt lat="45.69763" lon="4.63888">
        <ele>506.8</ele>
        <time>2025-04-30T13:27:11Z</time>
      </trkpt>
      <trkpt lat="45.69764" lon="4.63887">
        <ele>507</ele>
        <time>2025-04-30T13:27:12Z</time>
      </trkpt>
      <trkpt lat="45.69765" lon="4.63886">
        <ele>507.4</ele>
        <time>2025-04-30T13:27:13Z</time>
      </trkpt>
      <trkpt lat="45.69766" lon="4.63884">
        <ele>507.8</ele>
        <time>2025-04-30T13:27:14Z</time>
      </trkpt>
      <trkpt lat="45.69767" lon="4.63882">
        <ele>508.2</ele>
        <time>2025-04-30T13:27:15Z</time>
      </trkpt>
      <trkpt lat="45.69768" lon="4.6388">
        <ele>508.6</ele>
        <time>2025-04-30T13:27:16Z</time>
      </trkpt>
      <trkpt lat="45.69768" lon="4.63879">
        <ele>509</ele>
        <time>2025-04-30T13:27:17Z</time>
      </trkpt>
      <trkpt lat="45.69768" lon="4.63879">
        <ele>509.4</ele>
        <time>2025-04-30T13:27:18Z</time>
      </trkpt>
      <trkpt lat="45.69768" lon="4.63879">
        <ele>509.4</ele>
        <time>2025-04-30T13:27:19Z</time>
      </trkpt>
      <trkpt lat="45.69768" lon="4.63879">
        <ele>510.2</ele>
        <time>2025-04-30T13:27:20Z</time>
      </trkpt>
      <trkpt lat="45.69768" lon="4.63879">
        <ele>510.2</ele>
        <time>2025-04-30T13:27:21Z</time>
      </trkpt>
      <trkpt lat="45.69768" lon="4.63879">
        <ele>510.2</ele>
        <time>2025-04-30T13:27:22Z</time>
      </trkpt>
      <trkpt lat="45.69768" lon="4.63879">
        <ele>510.2</ele>
        <time>2025-04-30T13:27:23Z</time>
      </trkpt>
      <trkpt lat="45.69768" lon="4.63879">
        <ele>510.2</ele>
        <time>2025-04-30T13:27:24Z</time>
      </trkpt>
      <trkpt lat="45.69769" lon="4.63877">
        <ele>510.2</ele>
        <time>2025-04-30T13:27:25Z</time>
      </trkpt>
      <trkpt lat="45.69769" lon="4.63875">
        <ele>510.2</ele>
        <time>2025-04-30T13:27:26Z</time>
      </trkpt>
      <trkpt lat="45.69769" lon="4.63873">
        <ele>510.2</ele>
        <time>2025-04-30T13:27:27Z</time>
      </trkpt>
      <trkpt lat="45.69769" lon="4.63871">
        <ele>510.2</ele>
        <time>2025-04-30T13:27:28Z</time>
      </trkpt>
      <trkpt lat="45.69769" lon="4.63868">
        <ele>510.2</ele>
        <time>2025-04-30T13:27:29Z</time>
      </trkpt>
      <trkpt lat="45.69769" lon="4.63866">
        <ele>510.2</ele>
        <time>2025-04-30T13:27:30Z</time>
      </trkpt>
      <trkpt lat="45.69768" lon="4.63863">
        <ele>510.4</ele>
        <time>2025-04-30T13:27:31Z</time>
      </trkpt>
      <trkpt lat="45.69767" lon="4.63861">
        <ele>510.8</ele>
        <time>2025-04-30T13:27:32Z</time>
      </trkpt>
      <trkpt lat="45.69767" lon="4.63858">
        <ele>511</ele>
        <time>2025-04-30T13:27:33Z</time>
      </trkpt>
      <trkpt lat="45.69767" lon="4.63856">
        <ele>511.2</ele>
        <time>2025-04-30T13:27:34Z</time>
      </trkpt>
      <trkpt lat="45.69765" lon="4.63853">
        <ele>511.6</ele>
        <time>2025-04-30T13:27:35Z</time>
      </trkpt>
      <trkpt lat="45.69764" lon="4.6385">
        <ele>511.8</ele>
        <time>2025-04-30T13:27:36Z</time>
      </trkpt>
      <trkpt lat="45.69763" lon="4.63847">
        <ele>512.2</ele>
        <time>2025-04-30T13:27:37Z</time>
      </trkpt>
      <trkpt lat="45.69763" lon="4.63844">
        <ele>512.2</ele>
        <time>2025-04-30T13:27:38Z</time>
      </trkpt>
      <trkpt lat="45.69762" lon="4.63841">
        <ele>512.4</ele>
        <time>2025-04-30T13:27:39Z</time>
      </trkpt>
      <trkpt lat="45.69762" lon="4.63838">
        <ele>512.6</ele>
        <time>2025-04-30T13:27:40Z</time>
      </trkpt>
      <trkpt lat="45.69761" lon="4.63835">
        <ele>512.8</ele>
        <time>2025-04-30T13:27:41Z</time>
      </trkpt>
      <trkpt lat="45.69761" lon="4.63831">
        <ele>513</ele>
        <time>2025-04-30T13:27:42Z</time>
      </trkpt>
      <trkpt lat="45.69761" lon="4.63828">
        <ele>513</ele>
        <time>2025-04-30T13:27:43Z</time>
      </trkpt>
      <trkpt lat="45.69762" lon="4.63824">
        <ele>513.2</ele>
        <time>2025-04-30T13:27:44Z</time>
      </trkpt>
      <trkpt lat="45.69762" lon="4.63821">
        <ele>513.2</ele>
        <time>2025-04-30T13:27:45Z</time>
      </trkpt>
      <trkpt lat="45.69763" lon="4.63818">
        <ele>513.2</ele>
        <time>2025-04-30T13:27:46Z</time>
      </trkpt>
      <trkpt lat="45.69763" lon="4.63815">
        <ele>513.4</ele>
        <time>2025-04-30T13:27:47Z</time>
      </trkpt>
      <trkpt lat="45.69763" lon="4.63812">
        <ele>513.6</ele>
        <time>2025-04-30T13:27:48Z</time>
      </trkpt>
      <trkpt lat="45.69763" lon="4.63809">
        <ele>513.6</ele>
        <time>2025-04-30T13:27:49Z</time>
      </trkpt>
      <trkpt lat="45.69763" lon="4.63806">
        <ele>513.6</ele>
        <time>2025-04-30T13:27:50Z</time>
      </trkpt>
      <trkpt lat="45.69764" lon="4.63803">
        <ele>513.8</ele>
        <time>2025-04-30T13:27:51Z</time>
      </trkpt>
      <trkpt lat="45.69765" lon="4.63801">
        <ele>513.8</ele>
        <time>2025-04-30T13:27:52Z</time>
      </trkpt>
      <trkpt lat="45.69765" lon="4.63798">
        <ele>514</ele>
        <time>2025-04-30T13:27:53Z</time>
      </trkpt>
      <trkpt lat="45.69766" lon="4.63796">
        <ele>514</ele>
        <time>2025-04-30T13:27:54Z</time>
      </trkpt>
      <trkpt lat="45.69768" lon="4.63794">
        <ele>514.4</ele>
        <time>2025-04-30T13:27:55Z</time>
      </trkpt>
      <trkpt lat="45.69769" lon="4.63793">
        <ele>514.6</ele>
        <time>2025-04-30T13:27:56Z</time>
      </trkpt>
      <trkpt lat="45.6977" lon="4.63791">
        <ele>514.8</ele>
        <time>2025-04-30T13:27:57Z</time>
      </trkpt>
      <trkpt lat="45.69771" lon="4.63789">
        <ele>515</ele>
        <time>2025-04-30T13:27:58Z</time>
      </trkpt>
      <trkpt lat="45.69773" lon="4.63788">
        <ele>515</ele>
        <time>2025-04-30T13:27:59Z</time>
      </trkpt>
      <trkpt lat="45.69774" lon="4.63787">
        <ele>515.4</ele>
        <time>2025-04-30T13:28:00Z</time>
      </trkpt>
      <trkpt lat="45.69775" lon="4.63787">
        <ele>515.4</ele>
        <time>2025-04-30T13:28:01Z</time>
      </trkpt>
      <trkpt lat="45.69776" lon="4.63785">
        <ele>515.6</ele>
        <time>2025-04-30T13:28:02Z</time>
      </trkpt>
      <trkpt lat="45.69777" lon="4.63784">
        <ele>515.8</ele>
        <time>2025-04-30T13:28:03Z</time>
      </trkpt>
      <trkpt lat="45.69779" lon="4.63782">
        <ele>516</ele>
        <time>2025-04-30T13:28:04Z</time>
      </trkpt>
      <trkpt lat="45.6978" lon="4.6378">
        <ele>516.4</ele>
        <time>2025-04-30T13:28:05Z</time>
      </trkpt>
      <trkpt lat="45.69781" lon="4.63779">
        <ele>516.4</ele>
        <time>2025-04-30T13:28:06Z</time>
      </trkpt>
      <trkpt lat="45.69782" lon="4.63777">
        <ele>516.6</ele>
        <time>2025-04-30T13:28:07Z</time>
      </trkpt>
      <trkpt lat="45.69783" lon="4.63775">
        <ele>516.8</ele>
        <time>2025-04-30T13:28:08Z</time>
      </trkpt>
      <trkpt lat="45.69784" lon="4.63772">
        <ele>517</ele>
        <time>2025-04-30T13:28:09Z</time>
      </trkpt>
      <trkpt lat="45.69784" lon="4.63769">
        <ele>517</ele>
        <time>2025-04-30T13:28:10Z</time>
      </trkpt>
      <trkpt lat="45.69785" lon="4.63767">
        <ele>517.2</ele>
        <time>2025-04-30T13:28:11Z</time>
      </trkpt>
      <trkpt lat="45.69786" lon="4.63765">
        <ele>517.6</ele>
        <time>2025-04-30T13:28:12Z</time>
      </trkpt>
      <trkpt lat="45.69788" lon="4.63763">
        <ele>517.8</ele>
        <time>2025-04-30T13:28:13Z</time>
      </trkpt>
      <trkpt lat="45.69789" lon="4.6376">
        <ele>518</ele>
        <time>2025-04-30T13:28:14Z</time>
      </trkpt>
      <trkpt lat="45.6979" lon="4.63758">
        <ele>518.2</ele>
        <time>2025-04-30T13:28:15Z</time>
      </trkpt>
      <trkpt lat="45.69791" lon="4.63755">
        <ele>518.4</ele>
        <time>2025-04-30T13:28:16Z</time>
      </trkpt>
      <trkpt lat="45.69792" lon="4.63753">
        <ele>518.6</ele>
        <time>2025-04-30T13:28:17Z</time>
      </trkpt>
      <trkpt lat="45.69794" lon="4.63751">
        <ele>518.8</ele>
        <time>2025-04-30T13:28:18Z</time>
      </trkpt>
      <trkpt lat="45.69795" lon="4.63748">
        <ele>519</ele>
        <time>2025-04-30T13:28:19Z</time>
      </trkpt>
      <trkpt lat="45.69796" lon="4.63746">
        <ele>519</ele>
        <time>2025-04-30T13:28:20Z</time>
      </trkpt>
      <trkpt lat="45.69797" lon="4.63744">
        <ele>519.2</ele>
        <time>2025-04-30T13:28:21Z</time>
      </trkpt>
      <trkpt lat="45.69798" lon="4.63741">
        <ele>519.6</ele>
        <time>2025-04-30T13:28:22Z</time>
      </trkpt>
      <trkpt lat="45.69799" lon="4.6374">
        <ele>519.8</ele>
        <time>2025-04-30T13:28:23Z</time>
      </trkpt>
      <trkpt lat="45.698" lon="4.63738">
        <ele>520</ele>
        <time>2025-04-30T13:28:24Z</time>
      </trkpt>
      <trkpt lat="45.69802" lon="4.63736">
        <ele>520.2</ele>
        <time>2025-04-30T13:28:25Z</time>
      </trkpt>
      <trkpt lat="45.69803" lon="4.63734">
        <ele>520.4</ele>
        <time>2025-04-30T13:28:26Z</time>
      </trkpt>
      <trkpt lat="45.69804" lon="4.63731">
        <ele>520.6</ele>
        <time>2025-04-30T13:28:27Z</time>
      </trkpt>
      <trkpt lat="45.69806" lon="4.63729">
        <ele>520.6</ele>
        <time>2025-04-30T13:28:28Z</time>
      </trkpt>
      <trkpt lat="45.69807" lon="4.63727">
        <ele>520.8</ele>
        <time>2025-04-30T13:28:29Z</time>
      </trkpt>
      <trkpt lat="45.69809" lon="4.63725">
        <ele>521</ele>
        <time>2025-04-30T13:28:30Z</time>
      </trkpt>
      <trkpt lat="45.69811" lon="4.63723">
        <ele>521</ele>
        <time>2025-04-30T13:28:31Z</time>
      </trkpt>
      <trkpt lat="45.69812" lon="4.6372">
        <ele>521</ele>
        <time>2025-04-30T13:28:32Z</time>
      </trkpt>
      <trkpt lat="45.69814" lon="4.63718">
        <ele>521.2</ele>
        <time>2025-04-30T13:28:33Z</time>
      </trkpt>
      <trkpt lat="45.69816" lon="4.63715">
        <ele>521.4</ele>
        <time>2025-04-30T13:28:34Z</time>
      </trkpt>
      <trkpt lat="45.69817" lon="4.63713">
        <ele>521.4</ele>
        <time>2025-04-30T13:28:35Z</time>
      </trkpt>
      <trkpt lat="45.69819" lon="4.63711">
        <ele>521.6</ele>
        <time>2025-04-30T13:28:36Z</time>
      </trkpt>
      <trkpt lat="45.69822" lon="4.63708">
        <ele>521.6</ele>
        <time>2025-04-30T13:28:37Z</time>
      </trkpt>
      <trkpt lat="45.69823" lon="4.63707">
        <ele>521.8</ele>
        <time>2025-04-30T13:28:38Z</time>
      </trkpt>
      <trkpt lat="45.69825" lon="4.63705">
        <ele>521.8</ele>
        <time>2025-04-30T13:28:39Z</time>
      </trkpt>
      <trkpt lat="45.69827" lon="4.63702">
        <ele>522</ele>
        <time>2025-04-30T13:28:40Z</time>
      </trkpt>
      <trkpt lat="45.69828" lon="4.637">
        <ele>522.2</ele>
        <time>2025-04-30T13:28:41Z</time>
      </trkpt>
      <trkpt lat="45.69829" lon="4.63697">
        <ele>522.4</ele>
        <time>2025-04-30T13:28:42Z</time>
      </trkpt>
      <trkpt lat="45.6983" lon="4.63695">
        <ele>522.6</ele>
        <time>2025-04-30T13:28:43Z</time>
      </trkpt>
      <trkpt lat="45.69831" lon="4.63693">
        <ele>522.6</ele>
        <time>2025-04-30T13:28:44Z</time>
      </trkpt>
      <trkpt lat="45.69832" lon="4.63691">
        <ele>522.8</ele>
        <time>2025-04-30T13:28:45Z</time>
      </trkpt>
      <trkpt lat="45.69833" lon="4.63688">
        <ele>523</ele>
        <time>2025-04-30T13:28:46Z</time>
      </trkpt>
      <trkpt lat="45.69834" lon="4.63685">
        <ele>523</ele>
        <time>2025-04-30T13:28:47Z</time>
      </trkpt>
      <trkpt lat="45.69835" lon="4.63681">
        <ele>523.4</ele>
        <time>2025-04-30T13:28:48Z</time>
      </trkpt>
      <trkpt lat="45.69836" lon="4.63678">
        <ele>523.4</ele>
        <time>2025-04-30T13:28:49Z</time>
      </trkpt>
      <trkpt lat="45.69836" lon="4.63674">
        <ele>523.6</ele>
        <time>2025-04-30T13:28:50Z</time>
      </trkpt>
      <trkpt lat="45.69837" lon="4.63671">
        <ele>524</ele>
        <time>2025-04-30T13:28:51Z</time>
      </trkpt>
      <trkpt lat="45.69837" lon="4.63668">
        <ele>524.2</ele>
        <time>2025-04-30T13:28:52Z</time>
      </trkpt>
      <trkpt lat="45.69838" lon="4.63665">
        <ele>524.4</ele>
        <time>2025-04-30T13:28:53Z</time>
      </trkpt>
      <trkpt lat="45.69838" lon="4.63663">
        <ele>524.8</ele>
        <time>2025-04-30T13:28:54Z</time>
      </trkpt>
      <trkpt lat="45.69839" lon="4.6366">
        <ele>525</ele>
        <time>2025-04-30T13:28:55Z</time>
      </trkpt>
      <trkpt lat="45.69839" lon="4.63658">
        <ele>525.2</ele>
        <time>2025-04-30T13:28:56Z</time>
      </trkpt>
      <trkpt lat="45.6984" lon="4.63655">
        <ele>525.4</ele>
        <time>2025-04-30T13:28:57Z</time>
      </trkpt>
      <trkpt lat="45.6984" lon="4.63652">
        <ele>525.6</ele>
        <time>2025-04-30T13:28:58Z</time>
      </trkpt>
      <trkpt lat="45.6984" lon="4.6365">
        <ele>525.6</ele>
        <time>2025-04-30T13:28:59Z</time>
      </trkpt>
      <trkpt lat="45.69841" lon="4.63647">
        <ele>525.8</ele>
        <time>2025-04-30T13:29:00Z</time>
      </trkpt>
      <trkpt lat="45.69841" lon="4.63645">
        <ele>526</ele>
        <time>2025-04-30T13:29:01Z</time>
      </trkpt>
      <trkpt lat="45.69842" lon="4.63643">
        <ele>526.2</ele>
        <time>2025-04-30T13:29:02Z</time>
      </trkpt>
      <trkpt lat="45.69842" lon="4.6364">
        <ele>526.4</ele>
        <time>2025-04-30T13:29:03Z</time>
      </trkpt>
      <trkpt lat="45.69842" lon="4.63638">
        <ele>526.8</ele>
        <time>2025-04-30T13:29:04Z</time>
      </trkpt>
      <trkpt lat="45.69841" lon="4.63636">
        <ele>527.2</ele>
        <time>2025-04-30T13:29:05Z</time>
      </trkpt>
      <trkpt lat="45.69841" lon="4.63634">
        <ele>527.4</ele>
        <time>2025-04-30T13:29:06Z</time>
      </trkpt>
      <trkpt lat="45.69841" lon="4.63632">
        <ele>527.6</ele>
        <time>2025-04-30T13:29:07Z</time>
      </trkpt>
      <trkpt lat="45.69842" lon="4.6363">
        <ele>528</ele>
        <time>2025-04-30T13:29:08Z</time>
      </trkpt>
      <trkpt lat="45.69842" lon="4.63627">
        <ele>528</ele>
        <time>2025-04-30T13:29:09Z</time>
      </trkpt>
      <trkpt lat="45.69843" lon="4.63625">
        <ele>528</ele>
        <time>2025-04-30T13:29:10Z</time>
      </trkpt>
      <trkpt lat="45.69844" lon="4.63622">
        <ele>528.2</ele>
        <time>2025-04-30T13:29:11Z</time>
      </trkpt>
      <trkpt lat="45.69844" lon="4.63619">
        <ele>528.4</ele>
        <time>2025-04-30T13:29:12Z</time>
      </trkpt>
      <trkpt lat="45.69845" lon="4.63617">
        <ele>528.6</ele>
        <time>2025-04-30T13:29:13Z</time>
      </trkpt>
      <trkpt lat="45.69845" lon="4.63615">
        <ele>528.6</ele>
        <time>2025-04-30T13:29:14Z</time>
      </trkpt>
      <trkpt lat="45.69846" lon="4.63613">
        <ele>529</ele>
        <time>2025-04-30T13:29:15Z</time>
      </trkpt>
      <trkpt lat="45.69846" lon="4.6361">
        <ele>529.2</ele>
        <time>2025-04-30T13:29:16Z</time>
      </trkpt>
      <trkpt lat="45.69847" lon="4.63608">
        <ele>529.6</ele>
        <time>2025-04-30T13:29:17Z</time>
      </trkpt>
      <trkpt lat="45.69848" lon="4.63606">
        <ele>529.8</ele>
        <time>2025-04-30T13:29:18Z</time>
      </trkpt>
      <trkpt lat="45.69848" lon="4.63603">
        <ele>529.8</ele>
        <time>2025-04-30T13:29:19Z</time>
      </trkpt>
      <trkpt lat="45.69849" lon="4.63601">
        <ele>530</ele>
        <time>2025-04-30T13:29:20Z</time>
      </trkpt>
      <trkpt lat="45.6985" lon="4.63599">
        <ele>530.2</ele>
        <time>2025-04-30T13:29:21Z</time>
      </trkpt>
      <trkpt lat="45.69851" lon="4.63597">
        <ele>530.2</ele>
        <time>2025-04-30T13:29:22Z</time>
      </trkpt>
      <trkpt lat="45.69851" lon="4.63595">
        <ele>530.4</ele>
        <time>2025-04-30T13:29:23Z</time>
      </trkpt>
      <trkpt lat="45.69852" lon="4.63592">
        <ele>530.4</ele>
        <time>2025-04-30T13:29:24Z</time>
      </trkpt>
      <trkpt lat="45.69853" lon="4.6359">
        <ele>530.8</ele>
        <time>2025-04-30T13:29:25Z</time>
      </trkpt>
      <trkpt lat="45.69853" lon="4.63587">
        <ele>531</ele>
        <time>2025-04-30T13:29:26Z</time>
      </trkpt>
      <trkpt lat="45.69854" lon="4.63585">
        <ele>531.2</ele>
        <time>2025-04-30T13:29:27Z</time>
      </trkpt>
      <trkpt lat="45.69855" lon="4.63583">
        <ele>531.4</ele>
        <time>2025-04-30T13:29:28Z</time>
      </trkpt>
      <trkpt lat="45.69856" lon="4.63581">
        <ele>531.6</ele>
        <time>2025-04-30T13:29:29Z</time>
      </trkpt>
      <trkpt lat="45.69856" lon="4.63578">
        <ele>531.6</ele>
        <time>2025-04-30T13:29:30Z</time>
      </trkpt>
      <trkpt lat="45.69857" lon="4.63576">
        <ele>531.8</ele>
        <time>2025-04-30T13:29:31Z</time>
      </trkpt>
      <trkpt lat="45.69858" lon="4.63574">
        <ele>532.2</ele>
        <time>2025-04-30T13:29:32Z</time>
      </trkpt>
      <trkpt lat="45.69859" lon="4.63572">
        <ele>532.4</ele>
        <time>2025-04-30T13:29:33Z</time>
      </trkpt>
      <trkpt lat="45.6986" lon="4.6357">
        <ele>532.4</ele>
        <time>2025-04-30T13:29:34Z</time>
      </trkpt>
      <trkpt lat="45.6986" lon="4.63568">
        <ele>532.4</ele>
        <time>2025-04-30T13:29:35Z</time>
      </trkpt>
      <trkpt lat="45.69861" lon="4.63566">
        <ele>532.8</ele>
        <time>2025-04-30T13:29:36Z</time>
      </trkpt>
      <trkpt lat="45.69862" lon="4.63564">
        <ele>533</ele>
        <time>2025-04-30T13:29:37Z</time>
      </trkpt>
      <trkpt lat="45.69862" lon="4.63561">
        <ele>533.2</ele>
        <time>2025-04-30T13:29:38Z</time>
      </trkpt>
      <trkpt lat="45.69863" lon="4.63559">
        <ele>533.4</ele>
        <time>2025-04-30T13:29:39Z</time>
      </trkpt>
      <trkpt lat="45.69864" lon="4.63557">
        <ele>533.6</ele>
        <time>2025-04-30T13:29:40Z</time>
      </trkpt>
      <trkpt lat="45.69865" lon="4.63555">
        <ele>534</ele>
        <time>2025-04-30T13:29:41Z</time>
      </trkpt>
      <trkpt lat="45.69865" lon="4.63553">
        <ele>534.2</ele>
        <time>2025-04-30T13:29:42Z</time>
      </trkpt>
      <trkpt lat="45.69866" lon="4.63551">
        <ele>534.2</ele>
        <time>2025-04-30T13:29:43Z</time>
      </trkpt>
      <trkpt lat="45.69867" lon="4.63549">
        <ele>534.6</ele>
        <time>2025-04-30T13:29:44Z</time>
      </trkpt>
      <trkpt lat="45.69868" lon="4.63548">
        <ele>534.8</ele>
        <time>2025-04-30T13:29:45Z</time>
      </trkpt>
      <trkpt lat="45.69869" lon="4.63546">
        <ele>535</ele>
        <time>2025-04-30T13:29:46Z</time>
      </trkpt>
      <trkpt lat="45.6987" lon="4.63544">
        <ele>535.2</ele>
        <time>2025-04-30T13:29:47Z</time>
      </trkpt>
      <trkpt lat="45.69871" lon="4.63542">
        <ele>535.6</ele>
        <time>2025-04-30T13:29:48Z</time>
      </trkpt>
      <trkpt lat="45.69871" lon="4.63539">
        <ele>535.8</ele>
        <time>2025-04-30T13:29:49Z</time>
      </trkpt>
      <trkpt lat="45.69871" lon="4.63537">
        <ele>536</ele>
        <time>2025-04-30T13:29:50Z</time>
      </trkpt>
      <trkpt lat="45.69871" lon="4.63534">
        <ele>536</ele>
        <time>2025-04-30T13:29:51Z</time>
      </trkpt>
      <trkpt lat="45.69871" lon="4.63532">
        <ele>536.2</ele>
        <time>2025-04-30T13:29:52Z</time>
      </trkpt>
      <trkpt lat="45.69871" lon="4.63529">
        <ele>536.4</ele>
        <time>2025-04-30T13:29:53Z</time>
      </trkpt>
      <trkpt lat="45.69871" lon="4.63527">
        <ele>536.6</ele>
        <time>2025-04-30T13:29:54Z</time>
      </trkpt>
      <trkpt lat="45.6987" lon="4.63525">
        <ele>537.2</ele>
        <time>2025-04-30T13:29:55Z</time>
      </trkpt>
      <trkpt lat="45.69869" lon="4.63522">
        <ele>537.4</ele>
        <time>2025-04-30T13:29:56Z</time>
      </trkpt>
      <trkpt lat="45.69869" lon="4.6352">
        <ele>537.6</ele>
        <time>2025-04-30T13:29:57Z</time>
      </trkpt>
      <trkpt lat="45.69869" lon="4.63517">
        <ele>538</ele>
        <time>2025-04-30T13:29:58Z</time>
      </trkpt>
      <trkpt lat="45.69869" lon="4.63514">
        <ele>538.2</ele>
        <time>2025-04-30T13:29:59Z</time>
      </trkpt>
      <trkpt lat="45.69868" lon="4.63512">
        <ele>538.2</ele>
        <time>2025-04-30T13:30:00Z</time>
      </trkpt>
      <trkpt lat="45.69867" lon="4.63509">
        <ele>538.4</ele>
        <time>2025-04-30T13:30:01Z</time>
      </trkpt>
      <trkpt lat="45.69867" lon="4.63507">
        <ele>538.8</ele>
        <time>2025-04-30T13:30:02Z</time>
      </trkpt>
      <trkpt lat="45.69866" lon="4.63505">
        <ele>539</ele>
        <time>2025-04-30T13:30:03Z</time>
      </trkpt>
      <trkpt lat="45.69866" lon="4.63502">
        <ele>539.4</ele>
        <time>2025-04-30T13:30:04Z</time>
      </trkpt>
      <trkpt lat="45.69866" lon="4.635">
        <ele>539.6</ele>
        <time>2025-04-30T13:30:05Z</time>
      </trkpt>
      <trkpt lat="45.69865" lon="4.63497">
        <ele>539.8</ele>
        <time>2025-04-30T13:30:06Z</time>
      </trkpt>
      <trkpt lat="45.69865" lon="4.63495">
        <ele>540.2</ele>
        <time>2025-04-30T13:30:07Z</time>
      </trkpt>
      <trkpt lat="45.69865" lon="4.63493">
        <ele>540.2</ele>
        <time>2025-04-30T13:30:08Z</time>
      </trkpt>
      <trkpt lat="45.69865" lon="4.6349">
        <ele>540.6</ele>
        <time>2025-04-30T13:30:09Z</time>
      </trkpt>
      <trkpt lat="45.69865" lon="4.63487">
        <ele>540.6</ele>
        <time>2025-04-30T13:30:10Z</time>
      </trkpt>
      <trkpt lat="45.69865" lon="4.63484">
        <ele>540.8</ele>
        <time>2025-04-30T13:30:11Z</time>
      </trkpt>
      <trkpt lat="45.69866" lon="4.63482">
        <ele>541.2</ele>
        <time>2025-04-30T13:30:12Z</time>
      </trkpt>
      <trkpt lat="45.69866" lon="4.6348">
        <ele>541.2</ele>
        <time>2025-04-30T13:30:13Z</time>
      </trkpt>
      <trkpt lat="45.69867" lon="4.63478">
        <ele>541.4</ele>
        <time>2025-04-30T13:30:14Z</time>
      </trkpt>
      <trkpt lat="45.69867" lon="4.63476">
        <ele>541.6</ele>
        <time>2025-04-30T13:30:15Z</time>
      </trkpt>
      <trkpt lat="45.69867" lon="4.63474">
        <ele>541.8</ele>
        <time>2025-04-30T13:30:16Z</time>
      </trkpt>
      <trkpt lat="45.69867" lon="4.63471">
        <ele>542.2</ele>
        <time>2025-04-30T13:30:17Z</time>
      </trkpt>
      <trkpt lat="45.69867" lon="4.63469">
        <ele>542.4</ele>
        <time>2025-04-30T13:30:18Z</time>
      </trkpt>
      <trkpt lat="45.69867" lon="4.63467">
        <ele>542.6</ele>
        <time>2025-04-30T13:30:19Z</time>
      </trkpt>
      <trkpt lat="45.69867" lon="4.63465">
        <ele>542.8</ele>
        <time>2025-04-30T13:30:20Z</time>
      </trkpt>
      <trkpt lat="45.69867" lon="4.63463">
        <ele>543.2</ele>
        <time>2025-04-30T13:30:21Z</time>
      </trkpt>
      <trkpt lat="45.69867" lon="4.63461">
        <ele>543.6</ele>
        <time>2025-04-30T13:30:22Z</time>
      </trkpt>
      <trkpt lat="45.69868" lon="4.63458">
        <ele>543.6</ele>
        <time>2025-04-30T13:30:23Z</time>
      </trkpt>
      <trkpt lat="45.69868" lon="4.63456">
        <ele>544</ele>
        <time>2025-04-30T13:30:24Z</time>
      </trkpt>
      <trkpt lat="45.69868" lon="4.63453">
        <ele>544.2</ele>
        <time>2025-04-30T13:30:25Z</time>
      </trkpt>
      <trkpt lat="45.69868" lon="4.6345">
        <ele>544.6</ele>
        <time>2025-04-30T13:30:26Z</time>
      </trkpt>
      <trkpt lat="45.69868" lon="4.63447">
        <ele>544.8</ele>
        <time>2025-04-30T13:30:27Z</time>
      </trkpt>
      <trkpt lat="45.69867" lon="4.63444">
        <ele>545</ele>
        <time>2025-04-30T13:30:28Z</time>
      </trkpt>
      <trkpt lat="45.69867" lon="4.63441">
        <ele>545.2</ele>
        <time>2025-04-30T13:30:29Z</time>
      </trkpt>
      <trkpt lat="45.69866" lon="4.63439">
        <ele>545.2</ele>
        <time>2025-04-30T13:30:30Z</time>
      </trkpt>
      <trkpt lat="45.69865" lon="4.63437">
        <ele>545.4</ele>
        <time>2025-04-30T13:30:31Z</time>
      </trkpt>
      <trkpt lat="45.69864" lon="4.63434">
        <ele>545.8</ele>
        <time>2025-04-30T13:30:32Z</time>
      </trkpt>
      <trkpt lat="45.69864" lon="4.63432">
        <ele>546</ele>
        <time>2025-04-30T13:30:33Z</time>
      </trkpt>
      <trkpt lat="45.69864" lon="4.6343">
        <ele>546.2</ele>
        <time>2025-04-30T13:30:34Z</time>
      </trkpt>
      <trkpt lat="45.69863" lon="4.63428">
        <ele>546.4</ele>
        <time>2025-04-30T13:30:35Z</time>
      </trkpt>
      <trkpt lat="45.69862" lon="4.63425">
        <ele>546.6</ele>
        <time>2025-04-30T13:30:36Z</time>
      </trkpt>
      <trkpt lat="45.69862" lon="4.63423">
        <ele>546.8</ele>
        <time>2025-04-30T13:30:37Z</time>
      </trkpt>
      <trkpt lat="45.69861" lon="4.63421">
        <ele>547</ele>
        <time>2025-04-30T13:30:38Z</time>
      </trkpt>
      <trkpt lat="45.69859" lon="4.63419">
        <ele>547.2</ele>
        <time>2025-04-30T13:30:39Z</time>
      </trkpt>
      <trkpt lat="45.69858" lon="4.63418">
        <ele>547.4</ele>
        <time>2025-04-30T13:30:40Z</time>
      </trkpt>
      <trkpt lat="45.69857" lon="4.63416">
        <ele>547.6</ele>
        <time>2025-04-30T13:30:41Z</time>
      </trkpt>
      <trkpt lat="45.69856" lon="4.63414">
        <ele>548</ele>
        <time>2025-04-30T13:30:42Z</time>
      </trkpt>
      <trkpt lat="45.69854" lon="4.63412">
        <ele>548.2</ele>
        <time>2025-04-30T13:30:43Z</time>
      </trkpt>
      <trkpt lat="45.69853" lon="4.63411">
        <ele>548.4</ele>
        <time>2025-04-30T13:30:44Z</time>
      </trkpt>
      <trkpt lat="45.69851" lon="4.63409">
        <ele>548.4</ele>
        <time>2025-04-30T13:30:45Z</time>
      </trkpt>
      <trkpt lat="45.6985" lon="4.63407">
        <ele>548.6</ele>
        <time>2025-04-30T13:30:46Z</time>
      </trkpt>
      <trkpt lat="45.69849" lon="4.63405">
        <ele>548.6</ele>
        <time>2025-04-30T13:30:47Z</time>
      </trkpt>
      <trkpt lat="45.69848" lon="4.63403">
        <ele>548.8</ele>
        <time>2025-04-30T13:30:48Z</time>
      </trkpt>
      <trkpt lat="45.69846" lon="4.63401">
        <ele>549</ele>
        <time>2025-04-30T13:30:49Z</time>
      </trkpt>
      <trkpt lat="45.69845" lon="4.63401">
        <ele>549.4</ele>
        <time>2025-04-30T13:30:50Z</time>
      </trkpt>
      <trkpt lat="45.69843" lon="4.634">
        <ele>549.6</ele>
        <time>2025-04-30T13:30:51Z</time>
      </trkpt>
      <trkpt lat="45.69841" lon="4.63399">
        <ele>549.8</ele>
        <time>2025-04-30T13:30:52Z</time>
      </trkpt>
      <trkpt lat="45.69839" lon="4.63397">
        <ele>550</ele>
        <time>2025-04-30T13:30:53Z</time>
      </trkpt>
      <trkpt lat="45.69837" lon="4.63395">
        <ele>550.2</ele>
        <time>2025-04-30T13:30:54Z</time>
      </trkpt>
      <trkpt lat="45.69835" lon="4.63393">
        <ele>550.4</ele>
        <time>2025-04-30T13:30:55Z</time>
      </trkpt>
      <trkpt lat="45.69833" lon="4.63391">
        <ele>550.6</ele>
        <time>2025-04-30T13:30:56Z</time>
      </trkpt>
      <trkpt lat="45.69831" lon="4.63389">
        <ele>550.8</ele>
        <time>2025-04-30T13:30:57Z</time>
      </trkpt>
      <trkpt lat="45.69829" lon="4.63387">
        <ele>551</ele>
        <time>2025-04-30T13:30:58Z</time>
      </trkpt>
      <trkpt lat="45.69827" lon="4.63385">
        <ele>551</ele>
        <time>2025-04-30T13:30:59Z</time>
      </trkpt>
      <trkpt lat="45.69826" lon="4.63382">
        <ele>551.2</ele>
        <time>2025-04-30T13:31:00Z</time>
      </trkpt>
      <trkpt lat="45.69824" lon="4.6338">
        <ele>551.4</ele>
        <time>2025-04-30T13:31:01Z</time>
      </trkpt>
      <trkpt lat="45.69823" lon="4.63377">
        <ele>551.4</ele>
        <time>2025-04-30T13:31:02Z</time>
      </trkpt>
      <trkpt lat="45.69821" lon="4.63375">
        <ele>552</ele>
        <time>2025-04-30T13:31:03Z</time>
      </trkpt>
      <trkpt lat="45.69819" lon="4.63373">
        <ele>552</ele>
        <time>2025-04-30T13:31:04Z</time>
      </trkpt>
      <trkpt lat="45.69818" lon="4.63371">
        <ele>552.2</ele>
        <time>2025-04-30T13:31:05Z</time>
      </trkpt>
      <trkpt lat="45.69816" lon="4.63368">
        <ele>552.2</ele>
        <time>2025-04-30T13:31:06Z</time>
      </trkpt>
      <trkpt lat="45.69814" lon="4.63366">
        <ele>552.6</ele>
        <time>2025-04-30T13:31:07Z</time>
      </trkpt>
      <trkpt lat="45.69812" lon="4.63364">
        <ele>552.6</ele>
        <time>2025-04-30T13:31:08Z</time>
      </trkpt>
      <trkpt lat="45.6981" lon="4.63361">
        <ele>552.8</ele>
        <time>2025-04-30T13:31:09Z</time>
      </trkpt>
      <trkpt lat="45.69808" lon="4.63359">
        <ele>553</ele>
        <time>2025-04-30T13:31:10Z</time>
      </trkpt>
      <trkpt lat="45.69806" lon="4.63356">
        <ele>553</ele>
        <time>2025-04-30T13:31:11Z</time>
      </trkpt>
      <trkpt lat="45.69805" lon="4.63354">
        <ele>553.2</ele>
        <time>2025-04-30T13:31:12Z</time>
      </trkpt>
      <trkpt lat="45.69803" lon="4.63351">
        <ele>553.4</ele>
        <time>2025-04-30T13:31:13Z</time>
      </trkpt>
      <trkpt lat="45.69801" lon="4.63349">
        <ele>553.4</ele>
        <time>2025-04-30T13:31:14Z</time>
      </trkpt>
      <trkpt lat="45.698" lon="4.63346">
        <ele>553.6</ele>
        <time>2025-04-30T13:31:15Z</time>
      </trkpt>
      <trkpt lat="45.69798" lon="4.63344">
        <ele>553.8</ele>
        <time>2025-04-30T13:31:16Z</time>
      </trkpt>
      <trkpt lat="45.69797" lon="4.63341">
        <ele>553.8</ele>
        <time>2025-04-30T13:31:17Z</time>
      </trkpt>
      <trkpt lat="45.69795" lon="4.63338">
        <ele>553.8</ele>
        <time>2025-04-30T13:31:18Z</time>
      </trkpt>
      <trkpt lat="45.69794" lon="4.63335">
        <ele>554.2</ele>
        <time>2025-04-30T13:31:19Z</time>
      </trkpt>
      <trkpt lat="45.69794" lon="4.63332">
        <ele>554.2</ele>
        <time>2025-04-30T13:31:20Z</time>
      </trkpt>
      <trkpt lat="45.69794" lon="4.6333">
        <ele>554.8</ele>
        <time>2025-04-30T13:31:21Z</time>
      </trkpt>
      <trkpt lat="45.69794" lon="4.63327">
        <ele>555</ele>
        <time>2025-04-30T13:31:22Z</time>
      </trkpt>
      <trkpt lat="45.69793" lon="4.63324">
        <ele>555.2</ele>
        <time>2025-04-30T13:31:23Z</time>
      </trkpt>
      <trkpt lat="45.69793" lon="4.63322">
        <ele>555.6</ele>
        <time>2025-04-30T13:31:24Z</time>
      </trkpt>
      <trkpt lat="45.69792" lon="4.63319">
        <ele>555.6</ele>
        <time>2025-04-30T13:31:25Z</time>
      </trkpt>
      <trkpt lat="45.69793" lon="4.63317">
        <ele>556</ele>
        <time>2025-04-30T13:31:26Z</time>
      </trkpt>
      <trkpt lat="45.69793" lon="4.63314">
        <ele>556</ele>
        <time>2025-04-30T13:31:27Z</time>
      </trkpt>
      <trkpt lat="45.69793" lon="4.63312">
        <ele>556.2</ele>
        <time>2025-04-30T13:31:28Z</time>
      </trkpt>
      <trkpt lat="45.69793" lon="4.63309">
        <ele>556.4</ele>
        <time>2025-04-30T13:31:29Z</time>
      </trkpt>
      <trkpt lat="45.69793" lon="4.63306">
        <ele>556.6</ele>
        <time>2025-04-30T13:31:30Z</time>
      </trkpt>
      <trkpt lat="45.69793" lon="4.63303">
        <ele>556.8</ele>
        <time>2025-04-30T13:31:31Z</time>
      </trkpt>
      <trkpt lat="45.69793" lon="4.633">
        <ele>557</ele>
        <time>2025-04-30T13:31:32Z</time>
      </trkpt>
      <trkpt lat="45.69793" lon="4.63297">
        <ele>557.4</ele>
        <time>2025-04-30T13:31:33Z</time>
      </trkpt>
      <trkpt lat="45.69793" lon="4.63295">
        <ele>557.8</ele>
        <time>2025-04-30T13:31:34Z</time>
      </trkpt>
      <trkpt lat="45.69793" lon="4.63292">
        <ele>558.2</ele>
        <time>2025-04-30T13:31:35Z</time>
      </trkpt>
      <trkpt lat="45.69794" lon="4.63289">
        <ele>558.4</ele>
        <time>2025-04-30T13:31:36Z</time>
      </trkpt>
      <trkpt lat="45.69794" lon="4.63287">
        <ele>558.8</ele>
        <time>2025-04-30T13:31:37Z</time>
      </trkpt>
      <trkpt lat="45.69794" lon="4.63284">
        <ele>559</ele>
        <time>2025-04-30T13:31:38Z</time>
      </trkpt>
      <trkpt lat="45.69794" lon="4.63281">
        <ele>559.2</ele>
        <time>2025-04-30T13:31:39Z</time>
      </trkpt>
      <trkpt lat="45.69795" lon="4.63278">
        <ele>559.8</ele>
        <time>2025-04-30T13:31:40Z</time>
      </trkpt>
      <trkpt lat="45.69795" lon="4.63276">
        <ele>560.2</ele>
        <time>2025-04-30T13:31:41Z</time>
      </trkpt>
      <trkpt lat="45.69795" lon="4.63274">
        <ele>560.6</ele>
        <time>2025-04-30T13:31:42Z</time>
      </trkpt>
      <trkpt lat="45.69796" lon="4.63271">
        <ele>560.8</ele>
        <time>2025-04-30T13:31:43Z</time>
      </trkpt>
      <trkpt lat="45.69796" lon="4.63269">
        <ele>561.2</ele>
        <time>2025-04-30T13:31:44Z</time>
      </trkpt>
      <trkpt lat="45.69796" lon="4.63266">
        <ele>561.6</ele>
        <time>2025-04-30T13:31:45Z</time>
      </trkpt>
      <trkpt lat="45.69797" lon="4.63264">
        <ele>561.8</ele>
        <time>2025-04-30T13:31:46Z</time>
      </trkpt>
      <trkpt lat="45.69797" lon="4.63261">
        <ele>562.2</ele>
        <time>2025-04-30T13:31:47Z</time>
      </trkpt>
      <trkpt lat="45.69797" lon="4.63258">
        <ele>562.6</ele>
        <time>2025-04-30T13:31:48Z</time>
      </trkpt>
      <trkpt lat="45.69797" lon="4.63255">
        <ele>563</ele>
        <time>2025-04-30T13:31:49Z</time>
      </trkpt>
      <trkpt lat="45.69798" lon="4.63252">
        <ele>563.2</ele>
        <time>2025-04-30T13:31:50Z</time>
      </trkpt>
      <trkpt lat="45.69798" lon="4.63248">
        <ele>563.4</ele>
        <time>2025-04-30T13:31:51Z</time>
      </trkpt>
      <trkpt lat="45.69798" lon="4.63246">
        <ele>563.4</ele>
        <time>2025-04-30T13:31:52Z</time>
      </trkpt>
      <trkpt lat="45.69799" lon="4.63243">
        <ele>563.8</ele>
        <time>2025-04-30T13:31:53Z</time>
      </trkpt>
      <trkpt lat="45.69799" lon="4.6324">
        <ele>564</ele>
        <time>2025-04-30T13:31:54Z</time>
      </trkpt>
      <trkpt lat="45.698" lon="4.63236">
        <ele>564.4</ele>
        <time>2025-04-30T13:31:55Z</time>
      </trkpt>
      <trkpt lat="45.698" lon="4.63233">
        <ele>564.6</ele>
        <time>2025-04-30T13:31:56Z</time>
      </trkpt>
      <trkpt lat="45.698" lon="4.63229">
        <ele>565</ele>
        <time>2025-04-30T13:31:57Z</time>
      </trkpt>
      <trkpt lat="45.69801" lon="4.63226">
        <ele>565.4</ele>
        <time>2025-04-30T13:31:58Z</time>
      </trkpt>
      <trkpt lat="45.69802" lon="4.63223">
        <ele>565.4</ele>
        <time>2025-04-30T13:31:59Z</time>
      </trkpt>
      <trkpt lat="45.69803" lon="4.6322">
        <ele>565.8</ele>
        <time>2025-04-30T13:32:00Z</time>
      </trkpt>
      <trkpt lat="45.69803" lon="4.63218">
        <ele>566</ele>
        <time>2025-04-30T13:32:01Z</time>
      </trkpt>
      <trkpt lat="45.69804" lon="4.63215">
        <ele>566.6</ele>
        <time>2025-04-30T13:32:02Z</time>
      </trkpt>
      <trkpt lat="45.69804" lon="4.63213">
        <ele>566.6</ele>
        <time>2025-04-30T13:32:03Z</time>
      </trkpt>
      <trkpt lat="45.69805" lon="4.63211">
        <ele>567</ele>
        <time>2025-04-30T13:32:04Z</time>
      </trkpt>
      <trkpt lat="45.69805" lon="4.63208">
        <ele>567.2</ele>
        <time>2025-04-30T13:32:05Z</time>
      </trkpt>
      <trkpt lat="45.69806" lon="4.63206">
        <ele>567.4</ele>
        <time>2025-04-30T13:32:06Z</time>
      </trkpt>
      <trkpt lat="45.69806" lon="4.63204">
        <ele>567.8</ele>
        <time>2025-04-30T13:32:07Z</time>
      </trkpt>
      <trkpt lat="45.69806" lon="4.63202">
        <ele>568.2</ele>
        <time>2025-04-30T13:32:08Z</time>
      </trkpt>
      <trkpt lat="45.69806" lon="4.63201">
        <ele>568.4</ele>
        <time>2025-04-30T13:32:09Z</time>
      </trkpt>
      <trkpt lat="45.69806" lon="4.63201">
        <ele>568.8</ele>
        <time>2025-04-30T13:32:10Z</time>
      </trkpt>
      <trkpt lat="45.69806" lon="4.63201">
        <ele>569.2</ele>
        <time>2025-04-30T13:32:11Z</time>
      </trkpt>
      <trkpt lat="45.69807" lon="4.63201">
        <ele>569.4</ele>
        <time>2025-04-30T13:32:12Z</time>
      </trkpt>
      <trkpt lat="45.69807" lon="4.63201">
        <ele>569.6</ele>
        <time>2025-04-30T13:32:13Z</time>
      </trkpt>
      <trkpt lat="45.69807" lon="4.63201">
        <ele>569.6</ele>
        <time>2025-04-30T13:32:14Z</time>
      </trkpt>
      <trkpt lat="45.69807" lon="4.63201">
        <ele>569.6</ele>
        <time>2025-04-30T13:32:15Z</time>
      </trkpt>
      <trkpt lat="45.69807" lon="4.63201">
        <ele>569.6</ele>
        <time>2025-04-30T13:32:16Z</time>
      </trkpt>
      <trkpt lat="45.69807" lon="4.63201">
        <ele>569.6</ele>
        <time>2025-04-30T13:32:17Z</time>
      </trkpt>
      <trkpt lat="45.69807" lon="4.63201">
        <ele>569.6</ele>
        <time>2025-04-30T13:32:18Z</time>
      </trkpt>
      <trkpt lat="45.69807" lon="4.63201">
        <ele>569.6</ele>
        <time>2025-04-30T13:32:19Z</time>
      </trkpt>
      <trkpt lat="45.69807" lon="4.63201">
        <ele>569.4</ele>
        <time>2025-04-30T13:32:20Z</time>
      </trkpt>
      <trkpt lat="45.69807" lon="4.63201">
        <ele>569.4</ele>
        <time>2025-04-30T13:32:21Z</time>
      </trkpt>
      <trkpt lat="45.69807" lon="4.63201">
        <ele>569.4</ele>
        <time>2025-04-30T13:32:22Z</time>
      </trkpt>
      <trkpt lat="45.69807" lon="4.63201">
        <ele>569.4</ele>
        <time>2025-04-30T13:32:23Z</time>
      </trkpt>
      <trkpt lat="45.69807" lon="4.63201">
        <ele>569.4</ele>
        <time>2025-04-30T13:32:24Z</time>
      </trkpt>
      <trkpt lat="45.69807" lon="4.63201">
        <ele>569.4</ele>
        <time>2025-04-30T13:32:25Z</time>
      </trkpt>
      <trkpt lat="45.69807" lon="4.63201">
        <ele>569.4</ele>
        <time>2025-04-30T13:32:26Z</time>
      </trkpt>
      <trkpt lat="45.69807" lon="4.63201">
        <ele>569.4</ele>
        <time>2025-04-30T13:32:27Z</time>
      </trkpt>
      <trkpt lat="45.69807" lon="4.63201">
        <ele>569.4</ele>
        <time>2025-04-30T13:32:28Z</time>
      </trkpt>
      <trkpt lat="45.69807" lon="4.63201">
        <ele>569.4</ele>
        <time>2025-04-30T13:32:29Z</time>
      </trkpt>
      <trkpt lat="45.69807" lon="4.63201">
        <ele>569.4</ele>
        <time>2025-04-30T13:32:30Z</time>
      </trkpt>
      <trkpt lat="45.69807" lon="4.63201">
        <ele>569.4</ele>
        <time>2025-04-30T13:32:31Z</time>
      </trkpt>
      <trkpt lat="45.69807" lon="4.63201">
        <ele>569.6</ele>
        <time>2025-04-30T13:32:32Z</time>
      </trkpt>
      <trkpt lat="45.69807" lon="4.63201">
        <ele>569.6</ele>
        <time>2025-04-30T13:32:33Z</time>
      </trkpt>
      <trkpt lat="45.69807" lon="4.63201">
        <ele>569.6</ele>
        <time>2025-04-30T13:32:34Z</time>
      </trkpt>
      <trkpt lat="45.69807" lon="4.63201">
        <ele>569.6</ele>
        <time>2025-04-30T13:32:35Z</time>
      </trkpt>
      <trkpt lat="45.69807" lon="4.63201">
        <ele>569.6</ele>
        <time>2025-04-30T13:32:36Z</time>
      </trkpt>
      <trkpt lat="45.69807" lon="4.63201">
        <ele>569.6</ele>
        <time>2025-04-30T13:32:37Z</time>
      </trkpt>
      <trkpt lat="45.69807" lon="4.63201">
        <ele>569.6</ele>
        <time>2025-04-30T13:32:38Z</time>
      </trkpt>
      <trkpt lat="45.69807" lon="4.63201">
        <ele>569.6</ele>
        <time>2025-04-30T13:32:39Z</time>
      </trkpt>
      <trkpt lat="45.69807" lon="4.63201">
        <ele>569.6</ele>
        <time>2025-04-30T13:32:40Z</time>
      </trkpt>
      <trkpt lat="45.69807" lon="4.63201">
        <ele>569.6</ele>
        <time>2025-04-30T13:32:41Z</time>
      </trkpt>
      <trkpt lat="45.69807" lon="4.63201">
        <ele>569.6</ele>
        <time>2025-04-30T13:32:42Z</time>
      </trkpt>
      <trkpt lat="45.69807" lon="4.63201">
        <ele>569.6</ele>
        <time>2025-04-30T13:32:43Z</time>
      </trkpt>
      <trkpt lat="45.69807" lon="4.63201">
        <ele>569.6</ele>
        <time>2025-04-30T13:32:44Z</time>
      </trkpt>
      <trkpt lat="45.69807" lon="4.63201">
        <ele>569.6</ele>
        <time>2025-04-30T13:32:45Z</time>
      </trkpt>
      <trkpt lat="45.69807" lon="4.63201">
        <ele>569.6</ele>
        <time>2025-04-30T13:32:46Z</time>
      </trkpt>
      <trkpt lat="45.69807" lon="4.63201">
        <ele>569.6</ele>
        <time>2025-04-30T13:32:47Z</time>
      </trkpt>
      <trkpt lat="45.69807" lon="4.63201">
        <ele>569.6</ele>
        <time>2025-04-30T13:32:48Z</time>
      </trkpt>
      <trkpt lat="45.69807" lon="4.63201">
        <ele>569.8</ele>
        <time>2025-04-30T13:32:49Z</time>
      </trkpt>
      <trkpt lat="45.69807" lon="4.63201">
        <ele>569.8</ele>
        <time>2025-04-30T13:32:50Z</time>
      </trkpt>
      <trkpt lat="45.69807" lon="4.63201">
        <ele>569.8</ele>
        <time>2025-04-30T13:32:51Z</time>
      </trkpt>
      <trkpt lat="45.69807" lon="4.63201">
        <ele>569.8</ele>
        <time>2025-04-30T13:32:52Z</time>
      </trkpt>
      <trkpt lat="45.69807" lon="4.63201">
        <ele>569.8</ele>
        <time>2025-04-30T13:32:53Z</time>
      </trkpt>
      <trkpt lat="45.69807" lon="4.63201">
        <ele>569.8</ele>
        <time>2025-04-30T13:32:54Z</time>
      </trkpt>
      <trkpt lat="45.69807" lon="4.63201">
        <ele>569.8</ele>
        <time>2025-04-30T13:32:55Z</time>
      </trkpt>
      <trkpt lat="45.69807" lon="4.63201">
        <ele>569.8</ele>
        <time>2025-04-30T13:32:56Z</time>
      </trkpt>
      <trkpt lat="45.69807" lon="4.63201">
        <ele>569.8</ele>
        <time>2025-04-30T13:32:57Z</time>
      </trkpt>
      <trkpt lat="45.69807" lon="4.63201">
        <ele>569.8</ele>
        <time>2025-04-30T13:32:58Z</time>
      </trkpt>
      <trkpt lat="45.69807" lon="4.63201">
        <ele>569.8</ele>
        <time>2025-04-30T13:32:59Z</time>
      </trkpt>
      <trkpt lat="45.69807" lon="4.63201">
        <ele>569.8</ele>
        <time>2025-04-30T13:33:00Z</time>
      </trkpt>
      <trkpt lat="45.69807" lon="4.63201">
        <ele>569.8</ele>
        <time>2025-04-30T13:33:01Z</time>
      </trkpt>
      <trkpt lat="45.69807" lon="4.63201">
        <ele>569.8</ele>
        <time>2025-04-30T13:33:02Z</time>
      </trkpt>
      <trkpt lat="45.69807" lon="4.63201">
        <ele>569.8</ele>
        <time>2025-04-30T13:33:03Z</time>
      </trkpt>
      <trkpt lat="45.69807" lon="4.63201">
        <ele>569.8</ele>
        <time>2025-04-30T13:33:04Z</time>
      </trkpt>
      <trkpt lat="45.69807" lon="4.63201">
        <ele>569.8</ele>
        <time>2025-04-30T13:33:05Z</time>
      </trkpt>
      <trkpt lat="45.69807" lon="4.63201">
        <ele>569.8</ele>
        <time>2025-04-30T13:33:06Z</time>
      </trkpt>
      <trkpt lat="45.69807" lon="4.63201">
        <ele>569.8</ele>
        <time>2025-04-30T13:33:07Z</time>
      </trkpt>
      <trkpt lat="45.69807" lon="4.63201">
        <ele>569.8</ele>
        <time>2025-04-30T13:33:08Z</time>
      </trkpt>
      <trkpt lat="45.69807" lon="4.63201">
        <ele>570</ele>
        <time>2025-04-30T13:33:09Z</time>
      </trkpt>
      <trkpt lat="45.69807" lon="4.63201">
        <ele>570</ele>
        <time>2025-04-30T13:33:10Z</time>
      </trkpt>
      <trkpt lat="45.69807" lon="4.63201">
        <ele>570</ele>
        <time>2025-04-30T13:33:11Z</time>
      </trkpt>
      <trkpt lat="45.69807" lon="4.63201">
        <ele>570</ele>
        <time>2025-04-30T13:33:12Z</time>
      </trkpt>
      <trkpt lat="45.69807" lon="4.63201">
        <ele>570</ele>
        <time>2025-04-30T13:33:13Z</time>
      </trkpt>
      <trkpt lat="45.69807" lon="4.63201">
        <ele>570</ele>
        <time>2025-04-30T13:33:14Z</time>
      </trkpt>
      <trkpt lat="45.69807" lon="4.63201">
        <ele>570</ele>
        <time>2025-04-30T13:33:15Z</time>
      </trkpt>
      <trkpt lat="45.69807" lon="4.63201">
        <ele>570</ele>
        <time>2025-04-30T13:33:16Z</time>
      </trkpt>
      <trkpt lat="45.69807" lon="4.63201">
        <ele>570</ele>
        <time>2025-04-30T13:33:17Z</time>
      </trkpt>
      <trkpt lat="45.69807" lon="4.63201">
        <ele>570</ele>
        <time>2025-04-30T13:33:18Z</time>
      </trkpt>
      <trkpt lat="45.69807" lon="4.63201">
        <ele>570</ele>
        <time>2025-04-30T13:33:19Z</time>
      </trkpt>
      <trkpt lat="45.69807" lon="4.63201">
        <ele>570</ele>
        <time>2025-04-30T13:33:20Z</time>
      </trkpt>
      <trkpt lat="45.69807" lon="4.63201">
        <ele>570</ele>
        <time>2025-04-30T13:33:21Z</time>
      </trkpt>
      <trkpt lat="45.69807" lon="4.63201">
        <ele>570</ele>
        <time>2025-04-30T13:33:22Z</time>
      </trkpt>
      <trkpt lat="45.69807" lon="4.63201">
        <ele>570</ele>
        <time>2025-04-30T13:33:23Z</time>
      </trkpt>
      <trkpt lat="45.69807" lon="4.63201">
        <ele>570</ele>
        <time>2025-04-30T13:33:24Z</time>
      </trkpt>
      <trkpt lat="45.69807" lon="4.63201">
        <ele>570</ele>
        <time>2025-04-30T13:33:25Z</time>
      </trkpt>
      <trkpt lat="45.69807" lon="4.63201">
        <ele>570</ele>
        <time>2025-04-30T13:33:26Z</time>
      </trkpt>
      <trkpt lat="45.69807" lon="4.63201">
        <ele>570</ele>
        <time>2025-04-30T13:33:27Z</time>
      </trkpt>
      <trkpt lat="45.69807" lon="4.63201">
        <ele>570</ele>
        <time>2025-04-30T13:33:28Z</time>
      </trkpt>
      <trkpt lat="45.69807" lon="4.63201">
        <ele>570</ele>
        <time>2025-04-30T13:33:29Z</time>
      </trkpt>
      <trkpt lat="45.69807" lon="4.63201">
        <ele>570</ele>
        <time>2025-04-30T13:33:30Z</time>
      </trkpt>
      <trkpt lat="45.69807" lon="4.63201">
        <ele>570</ele>
        <time>2025-04-30T13:33:31Z</time>
      </trkpt>
      <trkpt lat="45.69807" lon="4.63201">
        <ele>570</ele>
        <time>2025-04-30T13:33:32Z</time>
      </trkpt>
      <trkpt lat="45.69807" lon="4.63201">
        <ele>570</ele>
        <time>2025-04-30T13:33:33Z</time>
      </trkpt>
      <trkpt lat="45.69807" lon="4.63201">
        <ele>570</ele>
        <time>2025-04-30T13:33:34Z</time>
      </trkpt>
      <trkpt lat="45.69807" lon="4.63201">
        <ele>570</ele>
        <time>2025-04-30T13:33:35Z</time>
      </trkpt>
      <trkpt lat="45.69807" lon="4.63201">
        <ele>570</ele>
        <time>2025-04-30T13:33:36Z</time>
      </trkpt>
      <trkpt lat="45.69807" lon="4.63201">
        <ele>570</ele>
        <time>2025-04-30T13:33:37Z</time>
      </trkpt>
      <trkpt lat="45.69807" lon="4.63201">
        <ele>570</ele>
        <time>2025-04-30T13:33:38Z</time>
      </trkpt>
      <trkpt lat="45.69807" lon="4.63201">
        <ele>570</ele>
        <time>2025-04-30T13:33:39Z</time>
      </trkpt>
      <trkpt lat="45.69807" lon="4.63201">
        <ele>570</ele>
        <time>2025-04-30T13:33:40Z</time>
      </trkpt>
      <trkpt lat="45.69807" lon="4.63201">
        <ele>570</ele>
        <time>2025-04-30T13:33:41Z</time>
      </trkpt>
      <trkpt lat="45.69807" lon="4.63201">
        <ele>570</ele>
        <time>2025-04-30T13:33:42Z</time>
      </trkpt>
      <trkpt lat="45.69807" lon="4.63201">
        <ele>570</ele>
        <time>2025-04-30T13:33:43Z</time>
      </trkpt>
      <trkpt lat="45.69807" lon="4.63201">
        <ele>570</ele>
        <time>2025-04-30T13:33:44Z</time>
      </trkpt>
      <trkpt lat="45.69807" lon="4.63201">
        <ele>570</ele>
        <time>2025-04-30T13:33:45Z</time>
      </trkpt>
      <trkpt lat="45.69807" lon="4.63201">
        <ele>570</ele>
        <time>2025-04-30T13:33:46Z</time>
      </trkpt>
      <trkpt lat="45.69807" lon="4.63201">
        <ele>570</ele>
        <time>2025-04-30T13:33:47Z</time>
      </trkpt>
      <trkpt lat="45.69807" lon="4.63201">
        <ele>570</ele>
        <time>2025-04-30T13:33:48Z</time>
      </trkpt>
      <trkpt lat="45.69807" lon="4.63201">
        <ele>570</ele>
        <time>2025-04-30T13:33:49Z</time>
      </trkpt>
      <trkpt lat="45.69807" lon="4.63201">
        <ele>570</ele>
        <time>2025-04-30T13:33:50Z</time>
      </trkpt>
      <trkpt lat="45.69807" lon="4.63201">
        <ele>570</ele>
        <time>2025-04-30T13:33:51Z</time>
      </trkpt>
      <trkpt lat="45.69807" lon="4.63201">
        <ele>570</ele>
        <time>2025-04-30T13:33:52Z</time>
      </trkpt>
      <trkpt lat="45.69807" lon="4.63201">
        <ele>570</ele>
        <time>2025-04-30T13:33:53Z</time>
      </trkpt>
      <trkpt lat="45.69807" lon="4.63201">
        <ele>570</ele>
        <time>2025-04-30T13:33:54Z</time>
      </trkpt>
      <trkpt lat="45.69807" lon="4.63201">
        <ele>570</ele>
        <time>2025-04-30T13:33:55Z</time>
      </trkpt>
      <trkpt lat="45.69807" lon="4.63201">
        <ele>570</ele>
        <time>2025-04-30T13:33:56Z</time>
      </trkpt>
      <trkpt lat="45.69807" lon="4.63201">
        <ele>570</ele>
        <time>2025-04-30T13:33:57Z</time>
      </trkpt>
      <trkpt lat="45.69807" lon="4.63201">
        <ele>570</ele>
        <time>2025-04-30T13:33:58Z</time>
      </trkpt>
      <trkpt lat="45.69807" lon="4.63201">
        <ele>570</ele>
        <time>2025-04-30T13:33:59Z</time>
      </trkpt>
      <trkpt lat="45.69807" lon="4.63201">
        <ele>570</ele>
        <time>2025-04-30T13:34:00Z</time>
      </trkpt>
      <trkpt lat="45.69807" lon="4.63201">
        <ele>570</ele>
        <time>2025-04-30T13:34:01Z</time>
      </trkpt>
      <trkpt lat="45.69807" lon="4.63201">
        <ele>570</ele>
        <time>2025-04-30T13:34:02Z</time>
      </trkpt>
      <trkpt lat="45.69807" lon="4.63201">
        <ele>570</ele>
        <time>2025-04-30T13:34:03Z</time>
      </trkpt>
      <trkpt lat="45.69807" lon="4.63201">
        <ele>570</ele>
        <time>2025-04-30T13:34:04Z</time>
      </trkpt>
      <trkpt lat="45.69807" lon="4.63201">
        <ele>570</ele>
        <time>2025-04-30T13:34:05Z</time>
      </trkpt>
      <trkpt lat="45.69807" lon="4.63201">
        <ele>570</ele>
        <time>2025-04-30T13:34:06Z</time>
      </trkpt>
      <trkpt lat="45.69807" lon="4.63201">
        <ele>570</ele>
        <time>2025-04-30T13:34:07Z</time>
      </trkpt>
      <trkpt lat="45.69807" lon="4.63201">
        <ele>570</ele>
        <time>2025-04-30T13:34:08Z</time>
      </trkpt>
      <trkpt lat="45.69807" lon="4.63201">
        <ele>570</ele>
        <time>2025-04-30T13:34:09Z</time>
      </trkpt>
      <trkpt lat="45.69807" lon="4.63201">
        <ele>570</ele>
        <time>2025-04-30T13:34:10Z</time>
      </trkpt>
      <trkpt lat="45.69807" lon="4.63201">
        <ele>570</ele>
        <time>2025-04-30T13:34:11Z</time>
      </trkpt>
      <trkpt lat="45.69807" lon="4.63201">
        <ele>570</ele>
        <time>2025-04-30T13:34:12Z</time>
      </trkpt>
      <trkpt lat="45.69807" lon="4.63201">
        <ele>570</ele>
        <time>2025-04-30T13:34:13Z</time>
      </trkpt>
      <trkpt lat="45.69807" lon="4.63201">
        <ele>570</ele>
        <time>2025-04-30T13:34:14Z</time>
      </trkpt>
      <trkpt lat="45.69807" lon="4.63201">
        <ele>570</ele>
        <time>2025-04-30T13:34:15Z</time>
      </trkpt>
      <trkpt lat="45.69807" lon="4.63201">
        <ele>570</ele>
        <time>2025-04-30T13:34:16Z</time>
      </trkpt>
      <trkpt lat="45.69807" lon="4.63201">
        <ele>570</ele>
        <time>2025-04-30T13:34:17Z</time>
      </trkpt>
      <trkpt lat="45.69807" lon="4.63201">
        <ele>570</ele>
        <time>2025-04-30T13:34:18Z</time>
      </trkpt>
      <trkpt lat="45.69807" lon="4.63201">
        <ele>570</ele>
        <time>2025-04-30T13:34:19Z</time>
      </trkpt>
      <trkpt lat="45.69807" lon="4.63201">
        <ele>570</ele>
        <time>2025-04-30T13:34:20Z</time>
      </trkpt>
      <trkpt lat="45.69807" lon="4.63201">
        <ele>570</ele>
        <time>2025-04-30T13:34:21Z</time>
      </trkpt>
      <trkpt lat="45.69807" lon="4.63201">
        <ele>570</ele>
        <time>2025-04-30T13:34:22Z</time>
      </trkpt>
      <trkpt lat="45.69807" lon="4.63201">
        <ele>570</ele>
        <time>2025-04-30T13:34:23Z</time>
      </trkpt>
      <trkpt lat="45.69807" lon="4.63201">
        <ele>570</ele>
        <time>2025-04-30T13:34:24Z</time>
      </trkpt>
      <trkpt lat="45.69807" lon="4.63201">
        <ele>570</ele>
        <time>2025-04-30T13:34:25Z</time>
      </trkpt>
      <trkpt lat="45.69807" lon="4.63201">
        <ele>570</ele>
        <time>2025-04-30T13:34:26Z</time>
      </trkpt>
      <trkpt lat="45.69807" lon="4.63201">
        <ele>570</ele>
        <time>2025-04-30T13:34:27Z</time>
      </trkpt>
      <trkpt lat="45.69807" lon="4.63201">
        <ele>570</ele>
        <time>2025-04-30T13:34:28Z</time>
      </trkpt>
      <trkpt lat="45.69807" lon="4.63201">
        <ele>570</ele>
        <time>2025-04-30T13:34:29Z</time>
      </trkpt>
      <trkpt lat="45.69807" lon="4.63201">
        <ele>570</ele>
        <time>2025-04-30T13:34:30Z</time>
      </trkpt>
      <trkpt lat="45.69807" lon="4.63201">
        <ele>570</ele>
        <time>2025-04-30T13:34:31Z</time>
      </trkpt>
      <trkpt lat="45.69807" lon="4.63201">
        <ele>570</ele>
        <time>2025-04-30T13:34:32Z</time>
      </trkpt>
      <trkpt lat="45.69807" lon="4.63201">
        <ele>570</ele>
        <time>2025-04-30T13:34:33Z</time>
      </trkpt>
      <trkpt lat="45.69807" lon="4.63201">
        <ele>570</ele>
        <time>2025-04-30T13:34:34Z</time>
      </trkpt>
      <trkpt lat="45.69807" lon="4.63201">
        <ele>570</ele>
        <time>2025-04-30T13:34:35Z</time>
      </trkpt>
      <trkpt lat="45.69807" lon="4.63201">
        <ele>570</ele>
        <time>2025-04-30T13:34:36Z</time>
      </trkpt>
      <trkpt lat="45.69807" lon="4.63201">
        <ele>570</ele>
        <time>2025-04-30T13:34:37Z</time>
      </trkpt>
      <trkpt lat="45.69807" lon="4.63201">
        <ele>570</ele>
        <time>2025-04-30T13:34:38Z</time>
      </trkpt>
      <trkpt lat="45.69807" lon="4.63201">
        <ele>570</ele>
        <time>2025-04-30T13:34:39Z</time>
      </trkpt>
      <trkpt lat="45.69807" lon="4.63201">
        <ele>570</ele>
        <time>2025-04-30T13:34:40Z</time>
      </trkpt>
      <trkpt lat="45.69807" lon="4.63201">
        <ele>570</ele>
        <time>2025-04-30T13:34:41Z</time>
      </trkpt>
      <trkpt lat="45.69807" lon="4.63201">
        <ele>570</ele>
        <time>2025-04-30T13:34:42Z</time>
      </trkpt>
      <trkpt lat="45.69807" lon="4.63201">
        <ele>570</ele>
        <time>2025-04-30T13:34:43Z</time>
      </trkpt>
      <trkpt lat="45.69807" lon="4.63201">
        <ele>570</ele>
        <time>2025-04-30T13:34:44Z</time>
      </trkpt>
      <trkpt lat="45.69807" lon="4.63201">
        <ele>570</ele>
        <time>2025-04-30T13:34:45Z</time>
      </trkpt>
      <trkpt lat="45.69807" lon="4.63201">
        <ele>570</ele>
        <time>2025-04-30T13:34:46Z</time>
      </trkpt>
      <trkpt lat="45.69807" lon="4.63201">
        <ele>570</ele>
        <time>2025-04-30T13:34:47Z</time>
      </trkpt>
      <trkpt lat="45.69807" lon="4.63201">
        <ele>570</ele>
        <time>2025-04-30T13:34:48Z</time>
      </trkpt>
      <trkpt lat="45.69807" lon="4.63201">
        <ele>570</ele>
        <time>2025-04-30T13:34:49Z</time>
      </trkpt>
      <trkpt lat="45.69807" lon="4.63201">
        <ele>570</ele>
        <time>2025-04-30T13:34:50Z</time>
      </trkpt>
      <trkpt lat="45.69807" lon="4.63201">
        <ele>570</ele>
        <time>2025-04-30T13:34:51Z</time>
      </trkpt>
      <trkpt lat="45.69807" lon="4.63201">
        <ele>570</ele>
        <time>2025-04-30T13:34:52Z</time>
      </trkpt>
      <trkpt lat="45.69807" lon="4.63201">
        <ele>570</ele>
        <time>2025-04-30T13:34:53Z</time>
      </trkpt>
      <trkpt lat="45.69807" lon="4.63201">
        <ele>570</ele>
        <time>2025-04-30T13:34:54Z</time>
      </trkpt>
      <trkpt lat="45.69807" lon="4.63201">
        <ele>570</ele>
        <time>2025-04-30T13:34:55Z</time>
      </trkpt>
      <trkpt lat="45.69807" lon="4.63201">
        <ele>570</ele>
        <time>2025-04-30T13:34:56Z</time>
      </trkpt>
      <trkpt lat="45.69807" lon="4.63201">
        <ele>570</ele>
        <time>2025-04-30T13:34:57Z</time>
      </trkpt>
      <trkpt lat="45.69807" lon="4.63201">
        <ele>570</ele>
        <time>2025-04-30T13:34:58Z</time>
      </trkpt>
      <trkpt lat="45.69807" lon="4.63201">
        <ele>570</ele>
        <time>2025-04-30T13:34:59Z</time>
      </trkpt>
      <trkpt lat="45.69807" lon="4.63201">
        <ele>570</ele>
        <time>2025-04-30T13:35:00Z</time>
      </trkpt>
      <trkpt lat="45.69807" lon="4.63201">
        <ele>570</ele>
        <time>2025-04-30T13:35:01Z</time>
      </trkpt>
      <trkpt lat="45.69807" lon="4.63201">
        <ele>570</ele>
        <time>2025-04-30T13:35:02Z</time>
      </trkpt>
      <trkpt lat="45.69807" lon="4.63201">
        <ele>570</ele>
        <time>2025-04-30T13:35:03Z</time>
      </trkpt>
      <trkpt lat="45.69807" lon="4.63201">
        <ele>570</ele>
        <time>2025-04-30T13:35:04Z</time>
      </trkpt>
      <trkpt lat="45.69807" lon="4.63201">
        <ele>570</ele>
        <time>2025-04-30T13:35:05Z</time>
      </trkpt>
      <trkpt lat="45.69807" lon="4.63201">
        <ele>570</ele>
        <time>2025-04-30T13:35:06Z</time>
      </trkpt>
      <trkpt lat="45.69807" lon="4.63201">
        <ele>570</ele>
        <time>2025-04-30T13:35:07Z</time>
      </trkpt>
      <trkpt lat="45.69807" lon="4.63201">
        <ele>570</ele>
        <time>2025-04-30T13:35:08Z</time>
      </trkpt>
      <trkpt lat="45.69807" lon="4.63201">
        <ele>570</ele>
        <time>2025-04-30T13:35:09Z</time>
      </trkpt>
      <trkpt lat="45.69807" lon="4.63201">
        <ele>570</ele>
        <time>2025-04-30T13:35:10Z</time>
      </trkpt>
      <trkpt lat="45.69807" lon="4.63201">
        <ele>570</ele>
        <time>2025-04-30T13:35:11Z</time>
      </trkpt>
      <trkpt lat="45.69807" lon="4.63201">
        <ele>570</ele>
        <time>2025-04-30T13:35:12Z</time>
      </trkpt>
      <trkpt lat="45.69807" lon="4.63201">
        <ele>570</ele>
        <time>2025-04-30T13:35:13Z</time>
      </trkpt>
      <trkpt lat="45.69807" lon="4.63201">
        <ele>570</ele>
        <time>2025-04-30T13:35:14Z</time>
      </trkpt>
      <trkpt lat="45.69807" lon="4.63201">
        <ele>570</ele>
        <time>2025-04-30T13:35:15Z</time>
      </trkpt>
      <trkpt lat="45.69807" lon="4.63201">
        <ele>570</ele>
        <time>2025-04-30T13:35:16Z</time>
      </trkpt>
      <trkpt lat="45.69807" lon="4.63201">
        <ele>570</ele>
        <time>2025-04-30T13:35:17Z</time>
      </trkpt>
      <trkpt lat="45.69807" lon="4.63201">
        <ele>570</ele>
        <time>2025-04-30T13:35:18Z</time>
      </trkpt>
      <trkpt lat="45.69807" lon="4.63201">
        <ele>570</ele>
        <time>2025-04-30T13:35:19Z</time>
      </trkpt>
      <trkpt lat="45.69807" lon="4.63201">
        <ele>570</ele>
        <time>2025-04-30T13:35:20Z</time>
      </trkpt>
      <trkpt lat="45.69807" lon="4.63201">
        <ele>570</ele>
        <time>2025-04-30T13:35:21Z</time>
      </trkpt>
      <trkpt lat="45.69807" lon="4.63201">
        <ele>570</ele>
        <time>2025-04-30T13:35:22Z</time>
      </trkpt>
      <trkpt lat="45.69807" lon="4.63201">
        <ele>570</ele>
        <time>2025-04-30T13:35:23Z</time>
      </trkpt>
      <trkpt lat="45.69807" lon="4.63201">
        <ele>570</ele>
        <time>2025-04-30T13:35:24Z</time>
      </trkpt>
      <trkpt lat="45.69807" lon="4.63201">
        <ele>570</ele>
        <time>2025-04-30T13:35:25Z</time>
      </trkpt>
      <trkpt lat="45.69807" lon="4.63201">
        <ele>570</ele>
        <time>2025-04-30T13:35:26Z</time>
      </trkpt>
      <trkpt lat="45.69807" lon="4.63201">
        <ele>570</ele>
        <time>2025-04-30T13:35:27Z</time>
      </trkpt>
      <trkpt lat="45.69807" lon="4.63201">
        <ele>570</ele>
        <time>2025-04-30T13:35:28Z</time>
      </trkpt>
      <trkpt lat="45.69807" lon="4.63201">
        <ele>570</ele>
        <time>2025-04-30T13:35:29Z</time>
      </trkpt>
      <trkpt lat="45.69807" lon="4.63201">
        <ele>570</ele>
        <time>2025-04-30T13:35:30Z</time>
      </trkpt>
      <trkpt lat="45.69807" lon="4.63201">
        <ele>570</ele>
        <time>2025-04-30T13:35:31Z</time>
      </trkpt>
      <trkpt lat="45.69807" lon="4.63201">
        <ele>570</ele>
        <time>2025-04-30T13:35:32Z</time>
      </trkpt>
      <trkpt lat="45.69807" lon="4.63201">
        <ele>570</ele>
        <time>2025-04-30T13:35:33Z</time>
      </trkpt>
      <trkpt lat="45.69807" lon="4.63201">
        <ele>570</ele>
        <time>2025-04-30T13:35:34Z</time>
      </trkpt>
      <trkpt lat="45.69807" lon="4.63201">
        <ele>570</ele>
        <time>2025-04-30T13:35:35Z</time>
      </trkpt>
      <trkpt lat="45.69807" lon="4.63201">
        <ele>570</ele>
        <time>2025-04-30T13:35:36Z</time>
      </trkpt>
      <trkpt lat="45.69807" lon="4.63201">
        <ele>570</ele>
        <time>2025-04-30T13:35:37Z</time>
      </trkpt>
      <trkpt lat="45.69807" lon="4.63201">
        <ele>570</ele>
        <time>2025-04-30T13:35:38Z</time>
      </trkpt>
      <trkpt lat="45.69807" lon="4.63201">
        <ele>570</ele>
        <time>2025-04-30T13:35:39Z</time>
      </trkpt>
      <trkpt lat="45.69807" lon="4.63201">
        <ele>570</ele>
        <time>2025-04-30T13:35:40Z</time>
      </trkpt>
      <trkpt lat="45.69807" lon="4.63201">
        <ele>570</ele>
        <time>2025-04-30T13:35:41Z</time>
      </trkpt>
      <trkpt lat="45.69807" lon="4.63201">
        <ele>570</ele>
        <time>2025-04-30T13:35:42Z</time>
      </trkpt>
      <trkpt lat="45.69807" lon="4.63201">
        <ele>570</ele>
        <time>2025-04-30T13:35:43Z</time>
      </trkpt>
      <trkpt lat="45.69807" lon="4.63201">
        <ele>570</ele>
        <time>2025-04-30T13:35:44Z</time>
      </trkpt>
      <trkpt lat="45.69807" lon="4.63201">
        <ele>570</ele>
        <time>2025-04-30T13:35:45Z</time>
      </trkpt>
      <trkpt lat="45.69807" lon="4.63201">
        <ele>570</ele>
        <time>2025-04-30T13:35:46Z</time>
      </trkpt>
      <trkpt lat="45.69807" lon="4.63201">
        <ele>570</ele>
        <time>2025-04-30T13:35:47Z</time>
      </trkpt>
      <trkpt lat="45.69807" lon="4.63201">
        <ele>570</ele>
        <time>2025-04-30T13:35:48Z</time>
      </trkpt>
      <trkpt lat="45.69807" lon="4.63201">
        <ele>570</ele>
        <time>2025-04-30T13:35:49Z</time>
      </trkpt>
      <trkpt lat="45.69807" lon="4.63201">
        <ele>570</ele>
        <time>2025-04-30T13:35:50Z</time>
      </trkpt>
      <trkpt lat="45.69807" lon="4.63201">
        <ele>570</ele>
        <time>2025-04-30T13:35:51Z</time>
      </trkpt>
      <trkpt lat="45.69807" lon="4.63201">
        <ele>570</ele>
        <time>2025-04-30T13:35:52Z</time>
      </trkpt>
      <trkpt lat="45.69807" lon="4.63201">
        <ele>570</ele>
        <time>2025-04-30T13:35:53Z</time>
      </trkpt>
      <trkpt lat="45.69807" lon="4.63201">
        <ele>570</ele>
        <time>2025-04-30T13:35:54Z</time>
      </trkpt>
      <trkpt lat="45.69807" lon="4.63201">
        <ele>570</ele>
        <time>2025-04-30T13:35:55Z</time>
      </trkpt>
      <trkpt lat="45.69807" lon="4.63201">
        <ele>570</ele>
        <time>2025-04-30T13:35:56Z</time>
      </trkpt>
      <trkpt lat="45.69807" lon="4.63201">
        <ele>570</ele>
        <time>2025-04-30T13:35:57Z</time>
      </trkpt>
      <trkpt lat="45.69807" lon="4.63201">
        <ele>570</ele>
        <time>2025-04-30T13:35:58Z</time>
      </trkpt>
      <trkpt lat="45.69807" lon="4.63201">
        <ele>570</ele>
        <time>2025-04-30T13:35:59Z</time>
      </trkpt>
      <trkpt lat="45.69807" lon="4.63201">
        <ele>570</ele>
        <time>2025-04-30T13:36:00Z</time>
      </trkpt>
      <trkpt lat="45.69807" lon="4.63201">
        <ele>570</ele>
        <time>2025-04-30T13:36:01Z</time>
      </trkpt>
      <trkpt lat="45.69807" lon="4.63201">
        <ele>570</ele>
        <time>2025-04-30T13:36:02Z</time>
      </trkpt>
      <trkpt lat="45.69807" lon="4.63201">
        <ele>570</ele>
        <time>2025-04-30T13:36:03Z</time>
      </trkpt>
      <trkpt lat="45.69807" lon="4.63201">
        <ele>570</ele>
        <time>2025-04-30T13:36:04Z</time>
      </trkpt>
      <trkpt lat="45.69807" lon="4.63201">
        <ele>570</ele>
        <time>2025-04-30T13:36:05Z</time>
      </trkpt>
      <trkpt lat="45.69807" lon="4.63201">
        <ele>570</ele>
        <time>2025-04-30T13:36:06Z</time>
      </trkpt>
      <trkpt lat="45.69807" lon="4.63201">
        <ele>570</ele>
        <time>2025-04-30T13:36:07Z</time>
      </trkpt>
      <trkpt lat="45.69807" lon="4.63201">
        <ele>570</ele>
        <time>2025-04-30T13:36:08Z</time>
      </trkpt>
      <trkpt lat="45.69807" lon="4.63201">
        <ele>570</ele>
        <time>2025-04-30T13:36:09Z</time>
      </trkpt>
      <trkpt lat="45.69807" lon="4.63201">
        <ele>570</ele>
        <time>2025-04-30T13:36:10Z</time>
      </trkpt>
      <trkpt lat="45.69807" lon="4.63201">
        <ele>570</ele>
        <time>2025-04-30T13:36:11Z</time>
      </trkpt>
      <trkpt lat="45.69807" lon="4.63201">
        <ele>570</ele>
        <time>2025-04-30T13:36:12Z</time>
      </trkpt>
      <trkpt lat="45.69807" lon="4.63201">
        <ele>570</ele>
        <time>2025-04-30T13:36:13Z</time>
      </trkpt>
      <trkpt lat="45.69807" lon="4.63201">
        <ele>570</ele>
        <time>2025-04-30T13:36:14Z</time>
      </trkpt>
      <trkpt lat="45.69807" lon="4.63201">
        <ele>570</ele>
        <time>2025-04-30T13:36:15Z</time>
      </trkpt>
      <trkpt lat="45.69807" lon="4.63201">
        <ele>570</ele>
        <time>2025-04-30T13:36:16Z</time>
      </trkpt>
      <trkpt lat="45.69807" lon="4.63201">
        <ele>570</ele>
        <time>2025-04-30T13:36:17Z</time>
      </trkpt>
      <trkpt lat="45.69807" lon="4.63201">
        <ele>570.2</ele>
        <time>2025-04-30T13:36:18Z</time>
      </trkpt>
      <trkpt lat="45.69807" lon="4.63201">
        <ele>571.2</ele>
        <time>2025-04-30T13:36:19Z</time>
      </trkpt>
      <trkpt lat="45.69807" lon="4.63201">
        <ele>571.4</ele>
        <time>2025-04-30T13:36:20Z</time>
      </trkpt>
      <trkpt lat="45.69807" lon="4.63201">
        <ele>571.4</ele>
        <time>2025-04-30T13:36:21Z</time>
      </trkpt>
      <trkpt lat="45.69807" lon="4.63201">
        <ele>571.4</ele>
        <time>2025-04-30T13:36:22Z</time>
      </trkpt>
      <trkpt lat="45.69807" lon="4.63201">
        <ele>571.4</ele>
        <time>2025-04-30T13:36:23Z</time>
      </trkpt>
      <trkpt lat="45.69807" lon="4.63201">
        <ele>571.2</ele>
        <time>2025-04-30T13:36:24Z</time>
      </trkpt>
      <trkpt lat="45.69807" lon="4.63201">
        <ele>571.2</ele>
        <time>2025-04-30T13:36:25Z</time>
      </trkpt>
      <trkpt lat="45.69807" lon="4.63201">
        <ele>571</ele>
        <time>2025-04-30T13:36:26Z</time>
      </trkpt>
      <trkpt lat="45.69807" lon="4.63201">
        <ele>571</ele>
        <time>2025-04-30T13:36:27Z</time>
      </trkpt>
      <trkpt lat="45.69807" lon="4.63201">
        <ele>571</ele>
        <time>2025-04-30T13:36:28Z</time>
      </trkpt>
      <trkpt lat="45.69807" lon="4.63201">
        <ele>571</ele>
        <time>2025-04-30T13:36:29Z</time>
      </trkpt>
      <trkpt lat="45.69807" lon="4.63201">
        <ele>571</ele>
        <time>2025-04-30T13:36:30Z</time>
      </trkpt>
      <trkpt lat="45.69807" lon="4.63201">
        <ele>571</ele>
        <time>2025-04-30T13:36:31Z</time>
      </trkpt>
      <trkpt lat="45.69807" lon="4.63201">
        <ele>571</ele>
        <time>2025-04-30T13:36:32Z</time>
      </trkpt>
      <trkpt lat="45.69807" lon="4.63201">
        <ele>571</ele>
        <time>2025-04-30T13:36:33Z</time>
      </trkpt>
      <trkpt lat="45.69807" lon="4.63201">
        <ele>571</ele>
        <time>2025-04-30T13:36:34Z</time>
      </trkpt>
      <trkpt lat="45.69807" lon="4.63201">
        <ele>571</ele>
        <time>2025-04-30T13:36:35Z</time>
      </trkpt>
      <trkpt lat="45.69807" lon="4.63201">
        <ele>571</ele>
        <time>2025-04-30T13:36:36Z</time>
      </trkpt>
      <trkpt lat="45.69807" lon="4.63201">
        <ele>571</ele>
        <time>2025-04-30T13:36:37Z</time>
      </trkpt>
      <trkpt lat="45.69807" lon="4.63201">
        <ele>571</ele>
        <time>2025-04-30T13:36:38Z</time>
      </trkpt>
      <trkpt lat="45.69807" lon="4.63201">
        <ele>571</ele>
        <time>2025-04-30T13:36:39Z</time>
      </trkpt>
      <trkpt lat="45.69807" lon="4.63201">
        <ele>571</ele>
        <time>2025-04-30T13:36:40Z</time>
      </trkpt>
      <trkpt lat="45.69807" lon="4.63201">
        <ele>571</ele>
        <time>2025-04-30T13:36:41Z</time>
      </trkpt>
      <trkpt lat="45.69807" lon="4.63201">
        <ele>571</ele>
        <time>2025-04-30T13:36:42Z</time>
      </trkpt>
      <trkpt lat="45.69807" lon="4.63201">
        <ele>571</ele>
        <time>2025-04-30T13:36:43Z</time>
      </trkpt>
      <trkpt lat="45.69807" lon="4.63201">
        <ele>571</ele>
        <time>2025-04-30T13:36:44Z</time>
      </trkpt>
      <trkpt lat="45.69807" lon="4.63201">
        <ele>571</ele>
        <time>2025-04-30T13:36:45Z</time>
      </trkpt>
      <trkpt lat="45.69807" lon="4.63201">
        <ele>571</ele>
        <time>2025-04-30T13:36:46Z</time>
      </trkpt>
      <trkpt lat="45.69807" lon="4.63201">
        <ele>571</ele>
        <time>2025-04-30T13:36:47Z</time>
      </trkpt>
      <trkpt lat="45.69807" lon="4.63201">
        <ele>571</ele>
        <time>2025-04-30T13:36:48Z</time>
      </trkpt>
      <trkpt lat="45.69807" lon="4.63201">
        <ele>571</ele>
        <time>2025-04-30T13:36:49Z</time>
      </trkpt>
      <trkpt lat="45.69807" lon="4.63201">
        <ele>571</ele>
        <time>2025-04-30T13:36:50Z</time>
      </trkpt>
      <trkpt lat="45.69807" lon="4.63201">
        <ele>571</ele>
        <time>2025-04-30T13:36:51Z</time>
      </trkpt>
      <trkpt lat="45.69807" lon="4.63201">
        <ele>571</ele>
        <time>2025-04-30T13:36:52Z</time>
      </trkpt>
      <trkpt lat="45.69807" lon="4.63201">
        <ele>571</ele>
        <time>2025-04-30T13:36:53Z</time>
      </trkpt>
      <trkpt lat="45.69807" lon="4.63201">
        <ele>571.2</ele>
        <time>2025-04-30T13:36:54Z</time>
      </trkpt>
      <trkpt lat="45.69807" lon="4.63201">
        <ele>571.2</ele>
        <time>2025-04-30T13:36:55Z</time>
      </trkpt>
      <trkpt lat="45.69807" lon="4.63201">
        <ele>571.2</ele>
        <time>2025-04-30T13:36:56Z</time>
      </trkpt>
      <trkpt lat="45.69807" lon="4.63201">
        <ele>571.2</ele>
        <time>2025-04-30T13:36:57Z</time>
      </trkpt>
      <trkpt lat="45.69807" lon="4.63201">
        <ele>571.2</ele>
        <time>2025-04-30T13:36:58Z</time>
      </trkpt>
      <trkpt lat="45.69807" lon="4.63201">
        <ele>571.2</ele>
        <time>2025-04-30T13:36:59Z</time>
      </trkpt>
      <trkpt lat="45.69807" lon="4.63201">
        <ele>571.2</ele>
        <time>2025-04-30T13:37:00Z</time>
      </trkpt>
      <trkpt lat="45.69807" lon="4.63201">
        <ele>571.2</ele>
        <time>2025-04-30T13:37:01Z</time>
      </trkpt>
      <trkpt lat="45.69807" lon="4.63201">
        <ele>571.2</ele>
        <time>2025-04-30T13:37:02Z</time>
      </trkpt>
      <trkpt lat="45.69807" lon="4.63201">
        <ele>571.2</ele>
        <time>2025-04-30T13:37:03Z</time>
      </trkpt>
      <trkpt lat="45.69807" lon="4.63201">
        <ele>571.2</ele>
        <time>2025-04-30T13:37:04Z</time>
      </trkpt>
      <trkpt lat="45.69807" lon="4.63201">
        <ele>571.2</ele>
        <time>2025-04-30T13:37:05Z</time>
      </trkpt>
      <trkpt lat="45.69807" lon="4.63201">
        <ele>571.2</ele>
        <time>2025-04-30T13:37:06Z</time>
      </trkpt>
      <trkpt lat="45.69807" lon="4.63201">
        <ele>571.2</ele>
        <time>2025-04-30T13:37:07Z</time>
      </trkpt>
      <trkpt lat="45.69807" lon="4.63201">
        <ele>571.2</ele>
        <time>2025-04-30T13:37:08Z</time>
      </trkpt>
      <trkpt lat="45.69807" lon="4.63201">
        <ele>571.2</ele>
        <time>2025-04-30T13:37:09Z</time>
      </trkpt>
      <trkpt lat="45.69807" lon="4.63201">
        <ele>571.2</ele>
        <time>2025-04-30T13:37:10Z</time>
      </trkpt>
      <trkpt lat="45.69807" lon="4.63201">
        <ele>571.2</ele>
        <time>2025-04-30T13:37:11Z</time>
      </trkpt>
      <trkpt lat="45.69807" lon="4.63201">
        <ele>571.2</ele>
        <time>2025-04-30T13:37:12Z</time>
      </trkpt>
      <trkpt lat="45.69807" lon="4.63201">
        <ele>571.2</ele>
        <time>2025-04-30T13:37:13Z</time>
      </trkpt>
      <trkpt lat="45.69807" lon="4.63201">
        <ele>571.2</ele>
        <time>2025-04-30T13:37:14Z</time>
      </trkpt>
      <trkpt lat="45.69807" lon="4.63201">
        <ele>571.2</ele>
        <time>2025-04-30T13:37:15Z</time>
      </trkpt>
      <trkpt lat="45.69807" lon="4.63201">
        <ele>571.2</ele>
        <time>2025-04-30T13:37:16Z</time>
      </trkpt>
      <trkpt lat="45.69807" lon="4.63201">
        <ele>571.2</ele>
        <time>2025-04-30T13:37:17Z</time>
      </trkpt>
      <trkpt lat="45.69807" lon="4.632">
        <ele>571.2</ele>
        <time>2025-04-30T13:37:18Z</time>
      </trkpt>
      <trkpt lat="45.69807" lon="4.63199">
        <ele>571.2</ele>
        <time>2025-04-30T13:37:19Z</time>
      </trkpt>
      <trkpt lat="45.69807" lon="4.63197">
        <ele>571.2</ele>
        <time>2025-04-30T13:37:20Z</time>
      </trkpt>
      <trkpt lat="45.69808" lon="4.63196">
        <ele>571.2</ele>
        <time>2025-04-30T13:37:21Z</time>
      </trkpt>
      <trkpt lat="45.69808" lon="4.63193">
        <ele>571.2</ele>
        <time>2025-04-30T13:37:22Z</time>
      </trkpt>
      <trkpt lat="45.69809" lon="4.63191">
        <ele>571.2</ele>
        <time>2025-04-30T13:37:23Z</time>
      </trkpt>
      <trkpt lat="45.6981" lon="4.63189">
        <ele>571.2</ele>
        <time>2025-04-30T13:37:24Z</time>
      </trkpt>
      <trkpt lat="45.69811" lon="4.63186">
        <ele>571.4</ele>
        <time>2025-04-30T13:37:25Z</time>
      </trkpt>
      <trkpt lat="45.69812" lon="4.63184">
        <ele>571.6</ele>
        <time>2025-04-30T13:37:26Z</time>
      </trkpt>
      <trkpt lat="45.69813" lon="4.63181">
        <ele>571.8</ele>
        <time>2025-04-30T13:37:27Z</time>
      </trkpt>
      <trkpt lat="45.69814" lon="4.63179">
        <ele>571.8</ele>
        <time>2025-04-30T13:37:28Z</time>
      </trkpt>
      <trkpt lat="45.69815" lon="4.63176">
        <ele>572</ele>
        <time>2025-04-30T13:37:29Z</time>
      </trkpt>
      <trkpt lat="45.69816" lon="4.63174">
        <ele>572.4</ele>
        <time>2025-04-30T13:37:30Z</time>
      </trkpt>
      <trkpt lat="45.69817" lon="4.63172">
        <ele>572.8</ele>
        <time>2025-04-30T13:37:31Z</time>
      </trkpt>
      <trkpt lat="45.69818" lon="4.6317">
        <ele>573</ele>
        <time>2025-04-30T13:37:32Z</time>
      </trkpt>
      <trkpt lat="45.6982" lon="4.63167">
        <ele>573.2</ele>
        <time>2025-04-30T13:37:33Z</time>
      </trkpt>
      <trkpt lat="45.69821" lon="4.63165">
        <ele>573.2</ele>
        <time>2025-04-30T13:37:34Z</time>
      </trkpt>
      <trkpt lat="45.69822" lon="4.63163">
        <ele>573.4</ele>
        <time>2025-04-30T13:37:35Z</time>
      </trkpt>
      <trkpt lat="45.69823" lon="4.6316">
        <ele>573.6</ele>
        <time>2025-04-30T13:37:36Z</time>
      </trkpt>
      <trkpt lat="45.69824" lon="4.63158">
        <ele>573.8</ele>
        <time>2025-04-30T13:37:37Z</time>
      </trkpt>
      <trkpt lat="45.69826" lon="4.63156">
        <ele>573.8</ele>
        <time>2025-04-30T13:37:38Z</time>
      </trkpt>
      <trkpt lat="45.69827" lon="4.63153">
        <ele>574</ele>
        <time>2025-04-30T13:37:39Z</time>
      </trkpt>
      <trkpt lat="45.69829" lon="4.6315">
        <ele>574.2</ele>
        <time>2025-04-30T13:37:40Z</time>
      </trkpt>
      <trkpt lat="45.69831" lon="4.63148">
        <ele>574.4</ele>
        <time>2025-04-30T13:37:41Z</time>
      </trkpt>
      <trkpt lat="45.69832" lon="4.63146">
        <ele>574.6</ele>
        <time>2025-04-30T13:37:42Z</time>
      </trkpt>
      <trkpt lat="45.69833" lon="4.63143">
        <ele>574.8</ele>
        <time>2025-04-30T13:37:43Z</time>
      </trkpt>
      <trkpt lat="45.69834" lon="4.63141">
        <ele>575.2</ele>
        <time>2025-04-30T13:37:44Z</time>
      </trkpt>
      <trkpt lat="45.69835" lon="4.63139">
        <ele>575.4</ele>
        <time>2025-04-30T13:37:45Z</time>
      </trkpt>
      <trkpt lat="45.69836" lon="4.63138">
        <ele>575.8</ele>
        <time>2025-04-30T13:37:46Z</time>
      </trkpt>
      <trkpt lat="45.69837" lon="4.63136">
        <ele>576.2</ele>
        <time>2025-04-30T13:37:47Z</time>
      </trkpt>
      <trkpt lat="45.69838" lon="4.63135">
        <ele>576.4</ele>
        <time>2025-04-30T13:37:48Z</time>
      </trkpt>
      <trkpt lat="45.69839" lon="4.63133">
        <ele>576.8</ele>
        <time>2025-04-30T13:37:49Z</time>
      </trkpt>
      <trkpt lat="45.6984" lon="4.63131">
        <ele>577.2</ele>
        <time>2025-04-30T13:37:50Z</time>
      </trkpt>
      <trkpt lat="45.69841" lon="4.63129">
        <ele>577.2</ele>
        <time>2025-04-30T13:37:51Z</time>
      </trkpt>
      <trkpt lat="45.69843" lon="4.63128">
        <ele>577.4</ele>
        <time>2025-04-30T13:37:52Z</time>
      </trkpt>
      <trkpt lat="45.69844" lon="4.63126">
        <ele>577.6</ele>
        <time>2025-04-30T13:37:53Z</time>
      </trkpt>
      <trkpt lat="45.69845" lon="4.63124">
        <ele>577.8</ele>
        <time>2025-04-30T13:37:54Z</time>
      </trkpt>
      <trkpt lat="45.69847" lon="4.63121">
        <ele>578</ele>
        <time>2025-04-30T13:37:55Z</time>
      </trkpt>
      <trkpt lat="45.69848" lon="4.6312">
        <ele>578.4</ele>
        <time>2025-04-30T13:37:56Z</time>
      </trkpt>
      <trkpt lat="45.69849" lon="4.63118">
        <ele>578.6</ele>
        <time>2025-04-30T13:37:57Z</time>
      </trkpt>
      <trkpt lat="45.69851" lon="4.63117">
        <ele>578.8</ele>
        <time>2025-04-30T13:37:58Z</time>
      </trkpt>
      <trkpt lat="45.69852" lon="4.63115">
        <ele>579.2</ele>
        <time>2025-04-30T13:37:59Z</time>
      </trkpt>
      <trkpt lat="45.69853" lon="4.63114">
        <ele>579.6</ele>
        <time>2025-04-30T13:38:00Z</time>
      </trkpt>
      <trkpt lat="45.69854" lon="4.63113">
        <ele>579.8</ele>
        <time>2025-04-30T13:38:01Z</time>
      </trkpt>
      <trkpt lat="45.69855" lon="4.63111">
        <ele>580.2</ele>
        <time>2025-04-30T13:38:02Z</time>
      </trkpt>
      <trkpt lat="45.69856" lon="4.63109">
        <ele>580.4</ele>
        <time>2025-04-30T13:38:03Z</time>
      </trkpt>
      <trkpt lat="45.69857" lon="4.63107">
        <ele>580.6</ele>
        <time>2025-04-30T13:38:04Z</time>
      </trkpt>
      <trkpt lat="45.69858" lon="4.63105">
        <ele>580.8</ele>
        <time>2025-04-30T13:38:05Z</time>
      </trkpt>
      <trkpt lat="45.69859" lon="4.63103">
        <ele>581.2</ele>
        <time>2025-04-30T13:38:06Z</time>
      </trkpt>
      <trkpt lat="45.6986" lon="4.63102">
        <ele>581.4</ele>
        <time>2025-04-30T13:38:07Z</time>
      </trkpt>
      <trkpt lat="45.69861" lon="4.631">
        <ele>581.6</ele>
        <time>2025-04-30T13:38:08Z</time>
      </trkpt>
      <trkpt lat="45.69862" lon="4.63098">
        <ele>581.8</ele>
        <time>2025-04-30T13:38:09Z</time>
      </trkpt>
      <trkpt lat="45.69863" lon="4.63097">
        <ele>582.2</ele>
        <time>2025-04-30T13:38:10Z</time>
      </trkpt>
      <trkpt lat="45.69864" lon="4.63095">
        <ele>582.4</ele>
        <time>2025-04-30T13:38:11Z</time>
      </trkpt>
      <trkpt lat="45.69864" lon="4.63094">
        <ele>582.8</ele>
        <time>2025-04-30T13:38:12Z</time>
      </trkpt>
      <trkpt lat="45.69865" lon="4.63093">
        <ele>583</ele>
        <time>2025-04-30T13:38:13Z</time>
      </trkpt>
      <trkpt lat="45.69866" lon="4.63092">
        <ele>583.4</ele>
        <time>2025-04-30T13:38:14Z</time>
      </trkpt>
      <trkpt lat="45.69867" lon="4.6309">
        <ele>583.6</ele>
        <time>2025-04-30T13:38:15Z</time>
      </trkpt>
      <trkpt lat="45.69868" lon="4.63088">
        <ele>583.8</ele>
        <time>2025-04-30T13:38:16Z</time>
      </trkpt>
      <trkpt lat="45.69869" lon="4.63087">
        <ele>584</ele>
        <time>2025-04-30T13:38:17Z</time>
      </trkpt>
      <trkpt lat="45.69871" lon="4.63085">
        <ele>584.2</ele>
        <time>2025-04-30T13:38:18Z</time>
      </trkpt>
      <trkpt lat="45.69872" lon="4.63083">
        <ele>584.6</ele>
        <time>2025-04-30T13:38:19Z</time>
      </trkpt>
      <trkpt lat="45.69873" lon="4.63081">
        <ele>584.8</ele>
        <time>2025-04-30T13:38:20Z</time>
      </trkpt>
      <trkpt lat="45.69874" lon="4.6308">
        <ele>585.2</ele>
        <time>2025-04-30T13:38:21Z</time>
      </trkpt>
      <trkpt lat="45.69875" lon="4.63079">
        <ele>585.4</ele>
        <time>2025-04-30T13:38:22Z</time>
      </trkpt>
      <trkpt lat="45.69877" lon="4.63078">
        <ele>585.6</ele>
        <time>2025-04-30T13:38:23Z</time>
      </trkpt>
      <trkpt lat="45.69878" lon="4.63076">
        <ele>585.8</ele>
        <time>2025-04-30T13:38:24Z</time>
      </trkpt>
      <trkpt lat="45.69879" lon="4.63074">
        <ele>586</ele>
        <time>2025-04-30T13:38:25Z</time>
      </trkpt>
      <trkpt lat="45.6988" lon="4.63073">
        <ele>586.4</ele>
        <time>2025-04-30T13:38:26Z</time>
      </trkpt>
      <trkpt lat="45.69881" lon="4.63071">
        <ele>586.8</ele>
        <time>2025-04-30T13:38:27Z</time>
      </trkpt>
      <trkpt lat="45.69881" lon="4.63069">
        <ele>587.2</ele>
        <time>2025-04-30T13:38:28Z</time>
      </trkpt>
      <trkpt lat="45.69883" lon="4.63067">
        <ele>587.4</ele>
        <time>2025-04-30T13:38:29Z</time>
      </trkpt>
      <trkpt lat="45.69883" lon="4.63065">
        <ele>587.6</ele>
        <time>2025-04-30T13:38:30Z</time>
      </trkpt>
      <trkpt lat="45.69884" lon="4.63062">
        <ele>587.8</ele>
        <time>2025-04-30T13:38:31Z</time>
      </trkpt>
      <trkpt lat="45.69886" lon="4.6306">
        <ele>587.8</ele>
        <time>2025-04-30T13:38:32Z</time>
      </trkpt>
      <trkpt lat="45.69887" lon="4.63058">
        <ele>588.2</ele>
        <time>2025-04-30T13:38:33Z</time>
      </trkpt>
      <trkpt lat="45.69888" lon="4.63057">
        <ele>588.4</ele>
        <time>2025-04-30T13:38:34Z</time>
      </trkpt>
      <trkpt lat="45.69889" lon="4.63054">
        <ele>588.6</ele>
        <time>2025-04-30T13:38:35Z</time>
      </trkpt>
      <trkpt lat="45.6989" lon="4.63052">
        <ele>588.8</ele>
        <time>2025-04-30T13:38:36Z</time>
      </trkpt>
      <trkpt lat="45.69891" lon="4.63051">
        <ele>589</ele>
        <time>2025-04-30T13:38:37Z</time>
      </trkpt>
      <trkpt lat="45.69893" lon="4.63049">
        <ele>589.4</ele>
        <time>2025-04-30T13:38:38Z</time>
      </trkpt>
      <trkpt lat="45.69894" lon="4.63048">
        <ele>589.6</ele>
        <time>2025-04-30T13:38:39Z</time>
      </trkpt>
      <trkpt lat="45.69894" lon="4.63046">
        <ele>589.8</ele>
        <time>2025-04-30T13:38:40Z</time>
      </trkpt>
      <trkpt lat="45.69895" lon="4.63044">
        <ele>590.2</ele>
        <time>2025-04-30T13:38:41Z</time>
      </trkpt>
      <trkpt lat="45.69896" lon="4.63042">
        <ele>590.4</ele>
        <time>2025-04-30T13:38:42Z</time>
      </trkpt>
      <trkpt lat="45.69896" lon="4.6304">
        <ele>590.6</ele>
        <time>2025-04-30T13:38:43Z</time>
      </trkpt>
      <trkpt lat="45.69897" lon="4.63039">
        <ele>591</ele>
        <time>2025-04-30T13:38:44Z</time>
      </trkpt>
      <trkpt lat="45.69898" lon="4.63037">
        <ele>591.2</ele>
        <time>2025-04-30T13:38:45Z</time>
      </trkpt>
      <trkpt lat="45.69899" lon="4.63036">
        <ele>591.4</ele>
        <time>2025-04-30T13:38:46Z</time>
      </trkpt>
      <trkpt lat="45.69901" lon="4.63035">
        <ele>591.6</ele>
        <time>2025-04-30T13:38:47Z</time>
      </trkpt>
      <trkpt lat="45.69902" lon="4.63033">
        <ele>591.8</ele>
        <time>2025-04-30T13:38:48Z</time>
      </trkpt>
      <trkpt lat="45.69903" lon="4.63032">
        <ele>592.2</ele>
        <time>2025-04-30T13:38:49Z</time>
      </trkpt>
      <trkpt lat="45.69904" lon="4.63031">
        <ele>592.6</ele>
        <time>2025-04-30T13:38:50Z</time>
      </trkpt>
      <trkpt lat="45.69906" lon="4.6303">
        <ele>592.8</ele>
        <time>2025-04-30T13:38:51Z</time>
      </trkpt>
      <trkpt lat="45.69907" lon="4.63028">
        <ele>593.2</ele>
        <time>2025-04-30T13:38:52Z</time>
      </trkpt>
      <trkpt lat="45.69909" lon="4.63027">
        <ele>593.4</ele>
        <time>2025-04-30T13:38:53Z</time>
      </trkpt>
      <trkpt lat="45.6991" lon="4.63025">
        <ele>593.6</ele>
        <time>2025-04-30T13:38:54Z</time>
      </trkpt>
      <trkpt lat="45.69911" lon="4.63023">
        <ele>594</ele>
        <time>2025-04-30T13:38:55Z</time>
      </trkpt>
      <trkpt lat="45.69913" lon="4.63022">
        <ele>594.4</ele>
        <time>2025-04-30T13:38:56Z</time>
      </trkpt>
      <trkpt lat="45.69914" lon="4.63021">
        <ele>594.6</ele>
        <time>2025-04-30T13:38:57Z</time>
      </trkpt>
      <trkpt lat="45.69914" lon="4.63019">
        <ele>595</ele>
        <time>2025-04-30T13:38:58Z</time>
      </trkpt>
      <trkpt lat="45.69915" lon="4.63018">
        <ele>595.2</ele>
        <time>2025-04-30T13:38:59Z</time>
      </trkpt>
      <trkpt lat="45.69916" lon="4.63017">
        <ele>595.4</ele>
        <time>2025-04-30T13:39:00Z</time>
      </trkpt>
      <trkpt lat="45.69916" lon="4.63017">
        <ele>595.8</ele>
        <time>2025-04-30T13:39:01Z</time>
      </trkpt>
      <trkpt lat="45.69917" lon="4.63017">
        <ele>596.2</ele>
        <time>2025-04-30T13:39:02Z</time>
      </trkpt>
      <trkpt lat="45.69918" lon="4.63016">
        <ele>596.4</ele>
        <time>2025-04-30T13:39:03Z</time>
      </trkpt>
      <trkpt lat="45.69919" lon="4.63014">
        <ele>596.6</ele>
        <time>2025-04-30T13:39:04Z</time>
      </trkpt>
      <trkpt lat="45.6992" lon="4.63013">
        <ele>596.6</ele>
        <time>2025-04-30T13:39:05Z</time>
      </trkpt>
      <trkpt lat="45.69922" lon="4.63012">
        <ele>597</ele>
        <time>2025-04-30T13:39:06Z</time>
      </trkpt>
      <trkpt lat="45.69924" lon="4.63011">
        <ele>597.2</ele>
        <time>2025-04-30T13:39:07Z</time>
      </trkpt>
      <trkpt lat="45.69925" lon="4.63011">
        <ele>597.2</ele>
        <time>2025-04-30T13:39:08Z</time>
      </trkpt>
      <trkpt lat="45.69927" lon="4.63011">
        <ele>597.4</ele>
        <time>2025-04-30T13:39:09Z</time>
      </trkpt>
      <trkpt lat="45.69928" lon="4.6301">
        <ele>597.8</ele>
        <time>2025-04-30T13:39:10Z</time>
      </trkpt>
      <trkpt lat="45.69929" lon="4.6301">
        <ele>598.2</ele>
        <time>2025-04-30T13:39:11Z</time>
      </trkpt>
      <trkpt lat="45.6993" lon="4.63009">
        <ele>598.6</ele>
        <time>2025-04-30T13:39:12Z</time>
      </trkpt>
      <trkpt lat="45.69931" lon="4.63009">
        <ele>598.8</ele>
        <time>2025-04-30T13:39:13Z</time>
      </trkpt>
      <trkpt lat="45.69932" lon="4.63008">
        <ele>599</ele>
        <time>2025-04-30T13:39:14Z</time>
      </trkpt>
      <trkpt lat="45.69934" lon="4.63008">
        <ele>599.2</ele>
        <time>2025-04-30T13:39:15Z</time>
      </trkpt>
      <trkpt lat="45.69935" lon="4.63008">
        <ele>599.6</ele>
        <time>2025-04-30T13:39:16Z</time>
      </trkpt>
      <trkpt lat="45.69937" lon="4.63007">
        <ele>600</ele>
        <time>2025-04-30T13:39:17Z</time>
      </trkpt>
      <trkpt lat="45.69937" lon="4.63007">
        <ele>600</ele>
        <time>2025-04-30T13:39:18Z</time>
      </trkpt>
      <trkpt lat="45.69939" lon="4.63007">
        <ele>600.4</ele>
        <time>2025-04-30T13:39:19Z</time>
      </trkpt>
      <trkpt lat="45.6994" lon="4.63007">
        <ele>600.8</ele>
        <time>2025-04-30T13:39:20Z</time>
      </trkpt>
      <trkpt lat="45.69941" lon="4.63007">
        <ele>601.2</ele>
        <time>2025-04-30T13:39:21Z</time>
      </trkpt>
      <trkpt lat="45.69942" lon="4.63007">
        <ele>601.4</ele>
        <time>2025-04-30T13:39:22Z</time>
      </trkpt>
      <trkpt lat="45.69944" lon="4.63007">
        <ele>601.8</ele>
        <time>2025-04-30T13:39:23Z</time>
      </trkpt>
      <trkpt lat="45.69945" lon="4.63007">
        <ele>602</ele>
        <time>2025-04-30T13:39:24Z</time>
      </trkpt>
      <trkpt lat="45.69946" lon="4.63007">
        <ele>602.6</ele>
        <time>2025-04-30T13:39:25Z</time>
      </trkpt>
      <trkpt lat="45.69948" lon="4.63007">
        <ele>602.8</ele>
        <time>2025-04-30T13:39:26Z</time>
      </trkpt>
      <trkpt lat="45.6995" lon="4.63007">
        <ele>603</ele>
        <time>2025-04-30T13:39:27Z</time>
      </trkpt>
      <trkpt lat="45.69951" lon="4.63007">
        <ele>603.4</ele>
        <time>2025-04-30T13:39:28Z</time>
      </trkpt>
      <trkpt lat="45.69953" lon="4.63006">
        <ele>603.8</ele>
        <time>2025-04-30T13:39:29Z</time>
      </trkpt>
      <trkpt lat="45.69954" lon="4.63006">
        <ele>604.2</ele>
        <time>2025-04-30T13:39:30Z</time>
      </trkpt>
      <trkpt lat="45.69955" lon="4.63005">
        <ele>604.4</ele>
        <time>2025-04-30T13:39:31Z</time>
      </trkpt>
      <trkpt lat="45.69956" lon="4.63006">
        <ele>604.6</ele>
        <time>2025-04-30T13:39:32Z</time>
      </trkpt>
      <trkpt lat="45.69957" lon="4.63006">
        <ele>604.8</ele>
        <time>2025-04-30T13:39:33Z</time>
      </trkpt>
      <trkpt lat="45.69959" lon="4.63007">
        <ele>605.2</ele>
        <time>2025-04-30T13:39:34Z</time>
      </trkpt>
      <trkpt lat="45.6996" lon="4.63007">
        <ele>605.6</ele>
        <time>2025-04-30T13:39:35Z</time>
      </trkpt>
      <trkpt lat="45.69962" lon="4.63007">
        <ele>605.8</ele>
        <time>2025-04-30T13:39:36Z</time>
      </trkpt>
      <trkpt lat="45.69964" lon="4.63007">
        <ele>606</ele>
        <time>2025-04-30T13:39:37Z</time>
      </trkpt>
      <trkpt lat="45.69966" lon="4.63006">
        <ele>606.4</ele>
        <time>2025-04-30T13:39:38Z</time>
      </trkpt>
      <trkpt lat="45.69967" lon="4.63005">
        <ele>606.8</ele>
        <time>2025-04-30T13:39:39Z</time>
      </trkpt>
      <trkpt lat="45.69968" lon="4.63005">
        <ele>607.2</ele>
        <time>2025-04-30T13:39:40Z</time>
      </trkpt>
      <trkpt lat="45.69969" lon="4.63004">
        <ele>607.4</ele>
        <time>2025-04-30T13:39:41Z</time>
      </trkpt>
      <trkpt lat="45.6997" lon="4.63004">
        <ele>607.8</ele>
        <time>2025-04-30T13:39:42Z</time>
      </trkpt>
      <trkpt lat="45.69971" lon="4.63003">
        <ele>608.2</ele>
        <time>2025-04-30T13:39:43Z</time>
      </trkpt>
      <trkpt lat="45.69972" lon="4.63002">
        <ele>608.6</ele>
        <time>2025-04-30T13:39:44Z</time>
      </trkpt>
      <trkpt lat="45.69974" lon="4.63001">
        <ele>608.8</ele>
        <time>2025-04-30T13:39:45Z</time>
      </trkpt>
      <trkpt lat="45.69976" lon="4.63">
        <ele>609.4</ele>
        <time>2025-04-30T13:39:46Z</time>
      </trkpt>
      <trkpt lat="45.69977" lon="4.63">
        <ele>609.4</ele>
        <time>2025-04-30T13:39:47Z</time>
      </trkpt>
      <trkpt lat="45.69979" lon="4.63001">
        <ele>609.8</ele>
        <time>2025-04-30T13:39:48Z</time>
      </trkpt>
      <trkpt lat="45.6998" lon="4.63001">
        <ele>610.2</ele>
        <time>2025-04-30T13:39:49Z</time>
      </trkpt>
      <trkpt lat="45.6998" lon="4.63001">
        <ele>610.6</ele>
        <time>2025-04-30T13:39:50Z</time>
      </trkpt>
      <trkpt lat="45.6998" lon="4.63001">
        <ele>611.2</ele>
        <time>2025-04-30T13:39:51Z</time>
      </trkpt>
      <trkpt lat="45.6998" lon="4.63001">
        <ele>611.4</ele>
        <time>2025-04-30T13:39:52Z</time>
      </trkpt>
      <trkpt lat="45.6998" lon="4.63001">
        <ele>611.6</ele>
        <time>2025-04-30T13:39:53Z</time>
      </trkpt>
      <trkpt lat="45.69982" lon="4.63001">
        <ele>611.8</ele>
        <time>2025-04-30T13:39:54Z</time>
      </trkpt>
      <trkpt lat="45.69983" lon="4.63001">
        <ele>612</ele>
        <time>2025-04-30T13:39:55Z</time>
      </trkpt>
      <trkpt lat="45.69985" lon="4.63001">
        <ele>612.2</ele>
        <time>2025-04-30T13:39:56Z</time>
      </trkpt>
      <trkpt lat="45.69986" lon="4.63001">
        <ele>612.4</ele>
        <time>2025-04-30T13:39:57Z</time>
      </trkpt>
      <trkpt lat="45.69988" lon="4.63">
        <ele>612.6</ele>
        <time>2025-04-30T13:39:58Z</time>
      </trkpt>
      <trkpt lat="45.6999" lon="4.63">
        <ele>612.8</ele>
        <time>2025-04-30T13:39:59Z</time>
      </trkpt>
      <trkpt lat="45.69992" lon="4.63">
        <ele>613</ele>
        <time>2025-04-30T13:40:00Z</time>
      </trkpt>
      <trkpt lat="45.69992" lon="4.63">
        <ele>613.2</ele>
        <time>2025-04-30T13:40:01Z</time>
      </trkpt>
      <trkpt lat="45.69993" lon="4.62999">
        <ele>613.6</ele>
        <time>2025-04-30T13:40:02Z</time>
      </trkpt>
      <trkpt lat="45.69995" lon="4.62999">
        <ele>613.8</ele>
        <time>2025-04-30T13:40:03Z</time>
      </trkpt>
      <trkpt lat="45.69997" lon="4.62997">
        <ele>614</ele>
        <time>2025-04-30T13:40:04Z</time>
      </trkpt>
      <trkpt lat="45.69999" lon="4.62996">
        <ele>614.2</ele>
        <time>2025-04-30T13:40:05Z</time>
      </trkpt>
      <trkpt lat="45.70002" lon="4.62995">
        <ele>614.4</ele>
        <time>2025-04-30T13:40:06Z</time>
      </trkpt>
      <trkpt lat="45.70003" lon="4.62995">
        <ele>614.6</ele>
        <time>2025-04-30T13:40:07Z</time>
      </trkpt>
      <trkpt lat="45.70004" lon="4.62995">
        <ele>614.8</ele>
        <time>2025-04-30T13:40:08Z</time>
      </trkpt>
      <trkpt lat="45.70004" lon="4.62995">
        <ele>615</ele>
        <time>2025-04-30T13:40:09Z</time>
      </trkpt>
      <trkpt lat="45.70004" lon="4.62995">
        <ele>615</ele>
        <time>2025-04-30T13:40:10Z</time>
      </trkpt>
      <trkpt lat="45.70004" lon="4.62995">
        <ele>615.2</ele>
        <time>2025-04-30T13:40:11Z</time>
      </trkpt>
      <trkpt lat="45.70004" lon="4.62995">
        <ele>615.4</ele>
        <time>2025-04-30T13:40:12Z</time>
      </trkpt>
      <trkpt lat="45.70004" lon="4.62995">
        <ele>615.4</ele>
        <time>2025-04-30T13:40:13Z</time>
      </trkpt>
      <trkpt lat="45.70004" lon="4.62995">
        <ele>615.4</ele>
        <time>2025-04-30T13:40:14Z</time>
      </trkpt>
      <trkpt lat="45.70004" lon="4.62995">
        <ele>615.4</ele>
        <time>2025-04-30T13:40:15Z</time>
      </trkpt>
      <trkpt lat="45.70004" lon="4.62995">
        <ele>615.4</ele>
        <time>2025-04-30T13:40:16Z</time>
      </trkpt>
      <trkpt lat="45.70004" lon="4.62995">
        <ele>615.4</ele>
        <time>2025-04-30T13:40:17Z</time>
      </trkpt>
      <trkpt lat="45.70004" lon="4.62995">
        <ele>615.4</ele>
        <time>2025-04-30T13:40:18Z</time>
      </trkpt>
      <trkpt lat="45.70004" lon="4.62995">
        <ele>615.4</ele>
        <time>2025-04-30T13:40:19Z</time>
      </trkpt>
      <trkpt lat="45.70004" lon="4.62995">
        <ele>615.4</ele>
        <time>2025-04-30T13:40:20Z</time>
      </trkpt>
      <trkpt lat="45.70004" lon="4.62995">
        <ele>615.4</ele>
        <time>2025-04-30T13:40:21Z</time>
      </trkpt>
      <trkpt lat="45.70004" lon="4.62995">
        <ele>615.4</ele>
        <time>2025-04-30T13:40:22Z</time>
      </trkpt>
      <trkpt lat="45.70004" lon="4.62995">
        <ele>615.4</ele>
        <time>2025-04-30T13:40:23Z</time>
      </trkpt>
      <trkpt lat="45.70004" lon="4.62995">
        <ele>615.4</ele>
        <time>2025-04-30T13:40:24Z</time>
      </trkpt>
      <trkpt lat="45.70004" lon="4.62995">
        <ele>615.4</ele>
        <time>2025-04-30T13:40:25Z</time>
      </trkpt>
      <trkpt lat="45.70004" lon="4.62995">
        <ele>615.4</ele>
        <time>2025-04-30T13:40:26Z</time>
      </trkpt>
      <trkpt lat="45.70004" lon="4.62995">
        <ele>615.4</ele>
        <time>2025-04-30T13:40:27Z</time>
      </trkpt>
      <trkpt lat="45.70004" lon="4.62995">
        <ele>615.4</ele>
        <time>2025-04-30T13:40:28Z</time>
      </trkpt>
      <trkpt lat="45.70004" lon="4.62995">
        <ele>615.4</ele>
        <time>2025-04-30T13:40:29Z</time>
      </trkpt>
      <trkpt lat="45.70004" lon="4.62994">
        <ele>615.4</ele>
        <time>2025-04-30T13:40:30Z</time>
      </trkpt>
      <trkpt lat="45.70005" lon="4.62994">
        <ele>615.4</ele>
        <time>2025-04-30T13:40:31Z</time>
      </trkpt>
      <trkpt lat="45.70007" lon="4.62992">
        <ele>615.4</ele>
        <time>2025-04-30T13:40:32Z</time>
      </trkpt>
      <trkpt lat="45.70008" lon="4.62992">
        <ele>615.4</ele>
        <time>2025-04-30T13:40:33Z</time>
      </trkpt>
      <trkpt lat="45.7001" lon="4.62991">
        <ele>615.4</ele>
        <time>2025-04-30T13:40:34Z</time>
      </trkpt>
      <trkpt lat="45.70012" lon="4.6299">
        <ele>615.4</ele>
        <time>2025-04-30T13:40:35Z</time>
      </trkpt>
      <trkpt lat="45.70014" lon="4.6299">
        <ele>615.4</ele>
        <time>2025-04-30T13:40:36Z</time>
      </trkpt>
      <trkpt lat="45.70017" lon="4.62991">
        <ele>615.6</ele>
        <time>2025-04-30T13:40:37Z</time>
      </trkpt>
      <trkpt lat="45.70018" lon="4.62991">
        <ele>615.6</ele>
        <time>2025-04-30T13:40:38Z</time>
      </trkpt>
      <trkpt lat="45.7002" lon="4.6299">
        <ele>615.8</ele>
        <time>2025-04-30T13:40:39Z</time>
      </trkpt>
      <trkpt lat="45.70021" lon="4.62989">
        <ele>616</ele>
        <time>2025-04-30T13:40:40Z</time>
      </trkpt>
      <trkpt lat="45.70021" lon="4.62989">
        <ele>616.2</ele>
        <time>2025-04-30T13:40:41Z</time>
      </trkpt>
      <trkpt lat="45.70022" lon="4.62989">
        <ele>616.4</ele>
        <time>2025-04-30T13:40:42Z</time>
      </trkpt>
      <trkpt lat="45.70022" lon="4.62989">
        <ele>616.6</ele>
        <time>2025-04-30T13:40:43Z</time>
      </trkpt>
      <trkpt lat="45.70023" lon="4.62989">
        <ele>617</ele>
        <time>2025-04-30T13:40:44Z</time>
      </trkpt>
      <trkpt lat="45.70024" lon="4.62988">
        <ele>617</ele>
        <time>2025-04-30T13:40:45Z</time>
      </trkpt>
      <trkpt lat="45.70026" lon="4.62988">
        <ele>617</ele>
        <time>2025-04-30T13:40:46Z</time>
      </trkpt>
      <trkpt lat="45.70027" lon="4.62987">
        <ele>617</ele>
        <time>2025-04-30T13:40:47Z</time>
      </trkpt>
      <trkpt lat="45.70029" lon="4.62986">
        <ele>617.2</ele>
        <time>2025-04-30T13:40:48Z</time>
      </trkpt>
      <trkpt lat="45.7003" lon="4.62985">
        <ele>617.2</ele>
        <time>2025-04-30T13:40:49Z</time>
      </trkpt>
      <trkpt lat="45.70032" lon="4.62985">
        <ele>617.4</ele>
        <time>2025-04-30T13:40:50Z</time>
      </trkpt>
      <trkpt lat="45.70033" lon="4.62984">
        <ele>617.4</ele>
        <time>2025-04-30T13:40:51Z</time>
      </trkpt>
      <trkpt lat="45.70034" lon="4.62984">
        <ele>617.4</ele>
        <time>2025-04-30T13:40:52Z</time>
      </trkpt>
      <trkpt lat="45.70035" lon="4.62983">
        <ele>617.6</ele>
        <time>2025-04-30T13:40:53Z</time>
      </trkpt>
      <trkpt lat="45.70037" lon="4.62983">
        <ele>617.6</ele>
        <time>2025-04-30T13:40:54Z</time>
      </trkpt>
      <trkpt lat="45.70039" lon="4.62982">
        <ele>617.8</ele>
        <time>2025-04-30T13:40:55Z</time>
      </trkpt>
      <trkpt lat="45.70041" lon="4.62981">
        <ele>617.8</ele>
        <time>2025-04-30T13:40:56Z</time>
      </trkpt>
      <trkpt lat="45.70043" lon="4.6298">
        <ele>618</ele>
        <time>2025-04-30T13:40:57Z</time>
      </trkpt>
      <trkpt lat="45.70045" lon="4.62979">
        <ele>618</ele>
        <time>2025-04-30T13:40:58Z</time>
      </trkpt>
      <trkpt lat="45.70046" lon="4.62978">
        <ele>618.2</ele>
        <time>2025-04-30T13:40:59Z</time>
      </trkpt>
      <trkpt lat="45.70048" lon="4.62977">
        <ele>618.6</ele>
        <time>2025-04-30T13:41:00Z</time>
      </trkpt>
      <trkpt lat="45.7005" lon="4.62976">
        <ele>618.6</ele>
        <time>2025-04-30T13:41:01Z</time>
      </trkpt>
      <trkpt lat="45.70052" lon="4.62974">
        <ele>618.8</ele>
        <time>2025-04-30T13:41:02Z</time>
      </trkpt>
      <trkpt lat="45.70053" lon="4.62974">
        <ele>619.2</ele>
        <time>2025-04-30T13:41:03Z</time>
      </trkpt>
      <trkpt lat="45.70055" lon="4.62973">
        <ele>619.4</ele>
        <time>2025-04-30T13:41:04Z</time>
      </trkpt>
      <trkpt lat="45.70057" lon="4.62972">
        <ele>619.8</ele>
        <time>2025-04-30T13:41:05Z</time>
      </trkpt>
      <trkpt lat="45.70059" lon="4.62971">
        <ele>620</ele>
        <time>2025-04-30T13:41:06Z</time>
      </trkpt>
      <trkpt lat="45.70061" lon="4.62971">
        <ele>620.4</ele>
        <time>2025-04-30T13:41:07Z</time>
      </trkpt>
      <trkpt lat="45.70063" lon="4.6297">
        <ele>620.6</ele>
        <time>2025-04-30T13:41:08Z</time>
      </trkpt>
      <trkpt lat="45.70065" lon="4.6297">
        <ele>620.8</ele>
        <time>2025-04-30T13:41:09Z</time>
      </trkpt>
      <trkpt lat="45.70067" lon="4.62968">
        <ele>621</ele>
        <time>2025-04-30T13:41:10Z</time>
      </trkpt>
      <trkpt lat="45.7007" lon="4.62967">
        <ele>621</ele>
        <time>2025-04-30T13:41:11Z</time>
      </trkpt>
      <trkpt lat="45.70072" lon="4.62966">
        <ele>621.2</ele>
        <time>2025-04-30T13:41:12Z</time>
      </trkpt>
      <trkpt lat="45.70074" lon="4.62965">
        <ele>621.2</ele>
        <time>2025-04-30T13:41:13Z</time>
      </trkpt>
      <trkpt lat="45.70077" lon="4.62965">
        <ele>621.6</ele>
        <time>2025-04-30T13:41:14Z</time>
      </trkpt>
      <trkpt lat="45.70079" lon="4.62964">
        <ele>621.6</ele>
        <time>2025-04-30T13:41:15Z</time>
      </trkpt>
      <trkpt lat="45.70081" lon="4.62963">
        <ele>622</ele>
        <time>2025-04-30T13:41:16Z</time>
      </trkpt>
      <trkpt lat="45.70084" lon="4.62963">
        <ele>622.4</ele>
        <time>2025-04-30T13:41:17Z</time>
      </trkpt>
      <trkpt lat="45.70087" lon="4.62961">
        <ele>622.6</ele>
        <time>2025-04-30T13:41:18Z</time>
      </trkpt>
      <trkpt lat="45.70089" lon="4.6296">
        <ele>623</ele>
        <time>2025-04-30T13:41:19Z</time>
      </trkpt>
      <trkpt lat="45.7009" lon="4.62959">
        <ele>623.4</ele>
        <time>2025-04-30T13:41:20Z</time>
      </trkpt>
      <trkpt lat="45.70092" lon="4.62958">
        <ele>623.8</ele>
        <time>2025-04-30T13:41:21Z</time>
      </trkpt>
      <trkpt lat="45.70094" lon="4.62956">
        <ele>624</ele>
        <time>2025-04-30T13:41:22Z</time>
      </trkpt>
      <trkpt lat="45.70096" lon="4.62955">
        <ele>624.2</ele>
        <time>2025-04-30T13:41:23Z</time>
      </trkpt>
      <trkpt lat="45.70099" lon="4.62954">
        <ele>624.4</ele>
        <time>2025-04-30T13:41:24Z</time>
      </trkpt>
      <trkpt lat="45.701" lon="4.62952">
        <ele>624.6</ele>
        <time>2025-04-30T13:41:25Z</time>
      </trkpt>
      <trkpt lat="45.70103" lon="4.62951">
        <ele>625</ele>
        <time>2025-04-30T13:41:26Z</time>
      </trkpt>
      <trkpt lat="45.70105" lon="4.6295">
        <ele>625</ele>
        <time>2025-04-30T13:41:27Z</time>
      </trkpt>
      <trkpt lat="45.70107" lon="4.62949">
        <ele>625.2</ele>
        <time>2025-04-30T13:41:28Z</time>
      </trkpt>
      <trkpt lat="45.70109" lon="4.62949">
        <ele>625.6</ele>
        <time>2025-04-30T13:41:29Z</time>
      </trkpt>
      <trkpt lat="45.70112" lon="4.62946">
        <ele>625.8</ele>
        <time>2025-04-30T13:41:30Z</time>
      </trkpt>
      <trkpt lat="45.70114" lon="4.62944">
        <ele>625.8</ele>
        <time>2025-04-30T13:41:31Z</time>
      </trkpt>
      <trkpt lat="45.70116" lon="4.62942">
        <ele>625.8</ele>
        <time>2025-04-30T13:41:32Z</time>
      </trkpt>
      <trkpt lat="45.70119" lon="4.62939">
        <ele>625.8</ele>
        <time>2025-04-30T13:41:33Z</time>
      </trkpt>
      <trkpt lat="45.70122" lon="4.62936">
        <ele>625.8</ele>
        <time>2025-04-30T13:41:34Z</time>
      </trkpt>
      <trkpt lat="45.70124" lon="4.62934">
        <ele>626</ele>
        <time>2025-04-30T13:41:35Z</time>
      </trkpt>
      <trkpt lat="45.70126" lon="4.62931">
        <ele>626</ele>
        <time>2025-04-30T13:41:36Z</time>
      </trkpt>
      <trkpt lat="45.70129" lon="4.62929">
        <ele>626</ele>
        <time>2025-04-30T13:41:37Z</time>
      </trkpt>
      <trkpt lat="45.70131" lon="4.62927">
        <ele>626</ele>
        <time>2025-04-30T13:41:38Z</time>
      </trkpt>
      <trkpt lat="45.70134" lon="4.62924">
        <ele>626</ele>
        <time>2025-04-30T13:41:39Z</time>
      </trkpt>
      <trkpt lat="45.70138" lon="4.62921">
        <ele>626.2</ele>
        <time>2025-04-30T13:41:40Z</time>
      </trkpt>
      <trkpt lat="45.70141" lon="4.62918">
        <ele>626.2</ele>
        <time>2025-04-30T13:41:41Z</time>
      </trkpt>
      <trkpt lat="45.70144" lon="4.62916">
        <ele>626.2</ele>
        <time>2025-04-30T13:41:42Z</time>
      </trkpt>
      <trkpt lat="45.70147" lon="4.62913">
        <ele>626.2</ele>
        <time>2025-04-30T13:41:43Z</time>
      </trkpt>
      <trkpt lat="45.7015" lon="4.6291">
        <ele>626.2</ele>
        <time>2025-04-30T13:41:44Z</time>
      </trkpt>
      <trkpt lat="45.70153" lon="4.62906">
        <ele>626.2</ele>
        <time>2025-04-30T13:41:45Z</time>
      </trkpt>
      <trkpt lat="45.70155" lon="4.62902">
        <ele>626.2</ele>
        <time>2025-04-30T13:41:46Z</time>
      </trkpt>
      <trkpt lat="45.70159" lon="4.62898">
        <ele>626.2</ele>
        <time>2025-04-30T13:41:47Z</time>
      </trkpt>
      <trkpt lat="45.70161" lon="4.62894">
        <ele>626.2</ele>
        <time>2025-04-30T13:41:48Z</time>
      </trkpt>
      <trkpt lat="45.70165" lon="4.6289">
        <ele>626.4</ele>
        <time>2025-04-30T13:41:49Z</time>
      </trkpt>
      <trkpt lat="45.70168" lon="4.62887">
        <ele>626.4</ele>
        <time>2025-04-30T13:41:50Z</time>
      </trkpt>
      <trkpt lat="45.70172" lon="4.62883">
        <ele>626.4</ele>
        <time>2025-04-30T13:41:51Z</time>
      </trkpt>
      <trkpt lat="45.70174" lon="4.62879">
        <ele>626.6</ele>
        <time>2025-04-30T13:41:52Z</time>
      </trkpt>
      <trkpt lat="45.70176" lon="4.62875">
        <ele>627</ele>
        <time>2025-04-30T13:41:53Z</time>
      </trkpt>
      <trkpt lat="45.70177" lon="4.62871">
        <ele>627.4</ele>
        <time>2025-04-30T13:41:54Z</time>
      </trkpt>
      <trkpt lat="45.70179" lon="4.62868">
        <ele>627.6</ele>
        <time>2025-04-30T13:41:55Z</time>
      </trkpt>
      <trkpt lat="45.7018" lon="4.62865">
        <ele>627.8</ele>
        <time>2025-04-30T13:41:56Z</time>
      </trkpt>
      <trkpt lat="45.70182" lon="4.62862">
        <ele>628.2</ele>
        <time>2025-04-30T13:41:57Z</time>
      </trkpt>
      <trkpt lat="45.70184" lon="4.62859">
        <ele>628.4</ele>
        <time>2025-04-30T13:41:58Z</time>
      </trkpt>
      <trkpt lat="45.70187" lon="4.62857">
        <ele>628.6</ele>
        <time>2025-04-30T13:41:59Z</time>
      </trkpt>
      <trkpt lat="45.70188" lon="4.62853">
        <ele>629</ele>
        <time>2025-04-30T13:42:00Z</time>
      </trkpt>
      <trkpt lat="45.7019" lon="4.62849">
        <ele>629.2</ele>
        <time>2025-04-30T13:42:01Z</time>
      </trkpt>
      <trkpt lat="45.70192" lon="4.62845">
        <ele>629.4</ele>
        <time>2025-04-30T13:42:02Z</time>
      </trkpt>
      <trkpt lat="45.70193" lon="4.62842">
        <ele>629.6</ele>
        <time>2025-04-30T13:42:03Z</time>
      </trkpt>
      <trkpt lat="45.70195" lon="4.62838">
        <ele>629.8</ele>
        <time>2025-04-30T13:42:04Z</time>
      </trkpt>
      <trkpt lat="45.70196" lon="4.62836">
        <ele>630.2</ele>
        <time>2025-04-30T13:42:05Z</time>
      </trkpt>
      <trkpt lat="45.70197" lon="4.62834">
        <ele>630.4</ele>
        <time>2025-04-30T13:42:06Z</time>
      </trkpt>
      <trkpt lat="45.70198" lon="4.62831">
        <ele>630.8</ele>
        <time>2025-04-30T13:42:07Z</time>
      </trkpt>
      <trkpt lat="45.702" lon="4.62828">
        <ele>631</ele>
        <time>2025-04-30T13:42:08Z</time>
      </trkpt>
      <trkpt lat="45.70202" lon="4.62826">
        <ele>631.4</ele>
        <time>2025-04-30T13:42:09Z</time>
      </trkpt>
      <trkpt lat="45.70203" lon="4.62825">
        <ele>631.6</ele>
        <time>2025-04-30T13:42:10Z</time>
      </trkpt>
      <trkpt lat="45.70204" lon="4.62823">
        <ele>632</ele>
        <time>2025-04-30T13:42:11Z</time>
      </trkpt>
      <trkpt lat="45.70205" lon="4.62821">
        <ele>632</ele>
        <time>2025-04-30T13:42:12Z</time>
      </trkpt>
      <trkpt lat="45.70207" lon="4.6282">
        <ele>632.2</ele>
        <time>2025-04-30T13:42:13Z</time>
      </trkpt>
      <trkpt lat="45.70208" lon="4.62819">
        <ele>632.4</ele>
        <time>2025-04-30T13:42:14Z</time>
      </trkpt>
      <trkpt lat="45.70209" lon="4.62818">
        <ele>632.8</ele>
        <time>2025-04-30T13:42:15Z</time>
      </trkpt>
      <trkpt lat="45.7021" lon="4.62816">
        <ele>633</ele>
        <time>2025-04-30T13:42:16Z</time>
      </trkpt>
      <trkpt lat="45.70211" lon="4.62815">
        <ele>633.4</ele>
        <time>2025-04-30T13:42:17Z</time>
      </trkpt>
      <trkpt lat="45.70213" lon="4.62813">
        <ele>633.8</ele>
        <time>2025-04-30T13:42:18Z</time>
      </trkpt>
      <trkpt lat="45.70214" lon="4.62811">
        <ele>634</ele>
        <time>2025-04-30T13:42:19Z</time>
      </trkpt>
      <trkpt lat="45.70215" lon="4.62809">
        <ele>634.2</ele>
        <time>2025-04-30T13:42:20Z</time>
      </trkpt>
      <trkpt lat="45.70217" lon="4.62808">
        <ele>634.4</ele>
        <time>2025-04-30T13:42:21Z</time>
      </trkpt>
      <trkpt lat="45.70218" lon="4.62806">
        <ele>634.8</ele>
        <time>2025-04-30T13:42:22Z</time>
      </trkpt>
      <trkpt lat="45.70219" lon="4.62804">
        <ele>635</ele>
        <time>2025-04-30T13:42:23Z</time>
      </trkpt>
      <trkpt lat="45.7022" lon="4.62802">
        <ele>635.2</ele>
        <time>2025-04-30T13:42:24Z</time>
      </trkpt>
      <trkpt lat="45.70222" lon="4.62801">
        <ele>635.4</ele>
        <time>2025-04-30T13:42:25Z</time>
      </trkpt>
      <trkpt lat="45.70224" lon="4.628">
        <ele>635.6</ele>
        <time>2025-04-30T13:42:26Z</time>
      </trkpt>
      <trkpt lat="45.70226" lon="4.62799">
        <ele>635.8</ele>
        <time>2025-04-30T13:42:27Z</time>
      </trkpt>
      <trkpt lat="45.70228" lon="4.62797">
        <ele>636.2</ele>
        <time>2025-04-30T13:42:28Z</time>
      </trkpt>
      <trkpt lat="45.7023" lon="4.62796">
        <ele>636.4</ele>
        <time>2025-04-30T13:42:29Z</time>
      </trkpt>
      <trkpt lat="45.70232" lon="4.62794">
        <ele>636.8</ele>
        <time>2025-04-30T13:42:30Z</time>
      </trkpt>
      <trkpt lat="45.70233" lon="4.62793">
        <ele>637</ele>
        <time>2025-04-30T13:42:31Z</time>
      </trkpt>
      <trkpt lat="45.70234" lon="4.62791">
        <ele>637.4</ele>
        <time>2025-04-30T13:42:32Z</time>
      </trkpt>
      <trkpt lat="45.70236" lon="4.6279">
        <ele>637.6</ele>
        <time>2025-04-30T13:42:33Z</time>
      </trkpt>
      <trkpt lat="45.70237" lon="4.62787">
        <ele>638</ele>
        <time>2025-04-30T13:42:34Z</time>
      </trkpt>
      <trkpt lat="45.70238" lon="4.62785">
        <ele>638.2</ele>
        <time>2025-04-30T13:42:35Z</time>
      </trkpt>
      <trkpt lat="45.70239" lon="4.62783">
        <ele>638.6</ele>
        <time>2025-04-30T13:42:36Z</time>
      </trkpt>
      <trkpt lat="45.70241" lon="4.62781">
        <ele>639</ele>
        <time>2025-04-30T13:42:37Z</time>
      </trkpt>
      <trkpt lat="45.70242" lon="4.62779">
        <ele>639.4</ele>
        <time>2025-04-30T13:42:38Z</time>
      </trkpt>
      <trkpt lat="45.70243" lon="4.62777">
        <ele>639.6</ele>
        <time>2025-04-30T13:42:39Z</time>
      </trkpt>
      <trkpt lat="45.70245" lon="4.62775">
        <ele>640</ele>
        <time>2025-04-30T13:42:40Z</time>
      </trkpt>
      <trkpt lat="45.70247" lon="4.62773">
        <ele>640.4</ele>
        <time>2025-04-30T13:42:41Z</time>
      </trkpt>
      <trkpt lat="45.70248" lon="4.62771">
        <ele>640.8</ele>
        <time>2025-04-30T13:42:42Z</time>
      </trkpt>
      <trkpt lat="45.70249" lon="4.62768">
        <ele>641</ele>
        <time>2025-04-30T13:42:43Z</time>
      </trkpt>
      <trkpt lat="45.7025" lon="4.62765">
        <ele>641</ele>
        <time>2025-04-30T13:42:44Z</time>
      </trkpt>
      <trkpt lat="45.7025" lon="4.62762">
        <ele>641.4</ele>
        <time>2025-04-30T13:42:45Z</time>
      </trkpt>
      <trkpt lat="45.70252" lon="4.62759">
        <ele>641.6</ele>
        <time>2025-04-30T13:42:46Z</time>
      </trkpt>
      <trkpt lat="45.70253" lon="4.62756">
        <ele>641.8</ele>
        <time>2025-04-30T13:42:47Z</time>
      </trkpt>
      <trkpt lat="45.70255" lon="4.62753">
        <ele>642</ele>
        <time>2025-04-30T13:42:48Z</time>
      </trkpt>
      <trkpt lat="45.70257" lon="4.6275">
        <ele>642.2</ele>
        <time>2025-04-30T13:42:49Z</time>
      </trkpt>
      <trkpt lat="45.70259" lon="4.62747">
        <ele>642.2</ele>
        <time>2025-04-30T13:42:50Z</time>
      </trkpt>
      <trkpt lat="45.7026" lon="4.62744">
        <ele>642.2</ele>
        <time>2025-04-30T13:42:51Z</time>
      </trkpt>
      <trkpt lat="45.70262" lon="4.62741">
        <ele>642.4</ele>
        <time>2025-04-30T13:42:52Z</time>
      </trkpt>
      <trkpt lat="45.70264" lon="4.62738">
        <ele>642.4</ele>
        <time>2025-04-30T13:42:53Z</time>
      </trkpt>
      <trkpt lat="45.70265" lon="4.62736">
        <ele>642.6</ele>
        <time>2025-04-30T13:42:54Z</time>
      </trkpt>
      <trkpt lat="45.70267" lon="4.62734">
        <ele>643</ele>
        <time>2025-04-30T13:42:55Z</time>
      </trkpt>
      <trkpt lat="45.70268" lon="4.6273">
        <ele>643</ele>
        <time>2025-04-30T13:42:56Z</time>
      </trkpt>
      <trkpt lat="45.7027" lon="4.62727">
        <ele>643.2</ele>
        <time>2025-04-30T13:42:57Z</time>
      </trkpt>
      <trkpt lat="45.70271" lon="4.62725">
        <ele>643.4</ele>
        <time>2025-04-30T13:42:58Z</time>
      </trkpt>
      <trkpt lat="45.70273" lon="4.62722">
        <ele>643.6</ele>
        <time>2025-04-30T13:42:59Z</time>
      </trkpt>
      <trkpt lat="45.70274" lon="4.62719">
        <ele>643.8</ele>
        <time>2025-04-30T13:43:00Z</time>
      </trkpt>
      <trkpt lat="45.70276" lon="4.62716">
        <ele>644.2</ele>
        <time>2025-04-30T13:43:01Z</time>
      </trkpt>
      <trkpt lat="45.70277" lon="4.62713">
        <ele>644.6</ele>
        <time>2025-04-30T13:43:02Z</time>
      </trkpt>
      <trkpt lat="45.70278" lon="4.6271">
        <ele>644.6</ele>
        <time>2025-04-30T13:43:03Z</time>
      </trkpt>
      <trkpt lat="45.70279" lon="4.62707">
        <ele>644.8</ele>
        <time>2025-04-30T13:43:04Z</time>
      </trkpt>
      <trkpt lat="45.7028" lon="4.62704">
        <ele>644.8</ele>
        <time>2025-04-30T13:43:05Z</time>
      </trkpt>
      <trkpt lat="45.70282" lon="4.62701">
        <ele>645</ele>
        <time>2025-04-30T13:43:06Z</time>
      </trkpt>
      <trkpt lat="45.70283" lon="4.62698">
        <ele>645.4</ele>
        <time>2025-04-30T13:43:07Z</time>
      </trkpt>
      <trkpt lat="45.70283" lon="4.62693">
        <ele>645.6</ele>
        <time>2025-04-30T13:43:08Z</time>
      </trkpt>
      <trkpt lat="45.70284" lon="4.6269">
        <ele>645.8</ele>
        <time>2025-04-30T13:43:09Z</time>
      </trkpt>
      <trkpt lat="45.70285" lon="4.62687">
        <ele>646</ele>
        <time>2025-04-30T13:43:10Z</time>
      </trkpt>
      <trkpt lat="45.70286" lon="4.62683">
        <ele>646.2</ele>
        <time>2025-04-30T13:43:11Z</time>
      </trkpt>
      <trkpt lat="45.70287" lon="4.6268">
        <ele>646.4</ele>
        <time>2025-04-30T13:43:12Z</time>
      </trkpt>
      <trkpt lat="45.70288" lon="4.62677">
        <ele>646.6</ele>
        <time>2025-04-30T13:43:13Z</time>
      </trkpt>
      <trkpt lat="45.7029" lon="4.62674">
        <ele>647</ele>
        <time>2025-04-30T13:43:14Z</time>
      </trkpt>
      <trkpt lat="45.70291" lon="4.62672">
        <ele>647.4</ele>
        <time>2025-04-30T13:43:15Z</time>
      </trkpt>
      <trkpt lat="45.70292" lon="4.62668">
        <ele>647.8</ele>
        <time>2025-04-30T13:43:16Z</time>
      </trkpt>
      <trkpt lat="45.70292" lon="4.62665">
        <ele>648</ele>
        <time>2025-04-30T13:43:17Z</time>
      </trkpt>
      <trkpt lat="45.70293" lon="4.62661">
        <ele>648.6</ele>
        <time>2025-04-30T13:43:18Z</time>
      </trkpt>
      <trkpt lat="45.70294" lon="4.62658">
        <ele>648.8</ele>
        <time>2025-04-30T13:43:19Z</time>
      </trkpt>
      <trkpt lat="45.70295" lon="4.62654">
        <ele>649</ele>
        <time>2025-04-30T13:43:20Z</time>
      </trkpt>
      <trkpt lat="45.70295" lon="4.6265">
        <ele>649.4</ele>
        <time>2025-04-30T13:43:21Z</time>
      </trkpt>
      <trkpt lat="45.70296" lon="4.62647">
        <ele>649.8</ele>
        <time>2025-04-30T13:43:22Z</time>
      </trkpt>
      <trkpt lat="45.70298" lon="4.62644">
        <ele>649.8</ele>
        <time>2025-04-30T13:43:23Z</time>
      </trkpt>
      <trkpt lat="45.70298" lon="4.62641">
        <ele>650.4</ele>
        <time>2025-04-30T13:43:24Z</time>
      </trkpt>
      <trkpt lat="45.70299" lon="4.62637">
        <ele>650.6</ele>
        <time>2025-04-30T13:43:25Z</time>
      </trkpt>
      <trkpt lat="45.70301" lon="4.62635">
        <ele>650.6</ele>
        <time>2025-04-30T13:43:26Z</time>
      </trkpt>
      <trkpt lat="45.70302" lon="4.62633">
        <ele>651</ele>
        <time>2025-04-30T13:43:27Z</time>
      </trkpt>
      <trkpt lat="45.70303" lon="4.6263">
        <ele>651.4</ele>
        <time>2025-04-30T13:43:28Z</time>
      </trkpt>
      <trkpt lat="45.70304" lon="4.62628">
        <ele>651.8</ele>
        <time>2025-04-30T13:43:29Z</time>
      </trkpt>
      <trkpt lat="45.70306" lon="4.62625">
        <ele>652</ele>
        <time>2025-04-30T13:43:30Z</time>
      </trkpt>
      <trkpt lat="45.70307" lon="4.62623">
        <ele>652.2</ele>
        <time>2025-04-30T13:43:31Z</time>
      </trkpt>
      <trkpt lat="45.70308" lon="4.6262">
        <ele>652.4</ele>
        <time>2025-04-30T13:43:32Z</time>
      </trkpt>
      <trkpt lat="45.70309" lon="4.62618">
        <ele>652.6</ele>
        <time>2025-04-30T13:43:33Z</time>
      </trkpt>
      <trkpt lat="45.7031" lon="4.62616">
        <ele>652.8</ele>
        <time>2025-04-30T13:43:34Z</time>
      </trkpt>
      <trkpt lat="45.70312" lon="4.62614">
        <ele>653</ele>
        <time>2025-04-30T13:43:35Z</time>
      </trkpt>
      <trkpt lat="45.70313" lon="4.62612">
        <ele>653.4</ele>
        <time>2025-04-30T13:43:36Z</time>
      </trkpt>
      <trkpt lat="45.70314" lon="4.6261">
        <ele>653.6</ele>
        <time>2025-04-30T13:43:37Z</time>
      </trkpt>
      <trkpt lat="45.70315" lon="4.62608">
        <ele>654</ele>
        <time>2025-04-30T13:43:38Z</time>
      </trkpt>
      <trkpt lat="45.70316" lon="4.62607">
        <ele>654.2</ele>
        <time>2025-04-30T13:43:39Z</time>
      </trkpt>
      <trkpt lat="45.70317" lon="4.62606">
        <ele>654.6</ele>
        <time>2025-04-30T13:43:40Z</time>
      </trkpt>
      <trkpt lat="45.70318" lon="4.62604">
        <ele>655</ele>
        <time>2025-04-30T13:43:41Z</time>
      </trkpt>
      <trkpt lat="45.7032" lon="4.62603">
        <ele>655.2</ele>
        <time>2025-04-30T13:43:42Z</time>
      </trkpt>
      <trkpt lat="45.70322" lon="4.62602">
        <ele>655.6</ele>
        <time>2025-04-30T13:43:43Z</time>
      </trkpt>
      <trkpt lat="45.70323" lon="4.62601">
        <ele>655.8</ele>
        <time>2025-04-30T13:43:44Z</time>
      </trkpt>
      <trkpt lat="45.70325" lon="4.626">
        <ele>656.2</ele>
        <time>2025-04-30T13:43:45Z</time>
      </trkpt>
      <trkpt lat="45.70326" lon="4.62599">
        <ele>656.4</ele>
        <time>2025-04-30T13:43:46Z</time>
      </trkpt>
      <trkpt lat="45.70328" lon="4.62598">
        <ele>656.6</ele>
        <time>2025-04-30T13:43:47Z</time>
      </trkpt>
      <trkpt lat="45.70329" lon="4.62598">
        <ele>657</ele>
        <time>2025-04-30T13:43:48Z</time>
      </trkpt>
      <trkpt lat="45.70331" lon="4.62597">
        <ele>657.2</ele>
        <time>2025-04-30T13:43:49Z</time>
      </trkpt>
      <trkpt lat="45.70333" lon="4.62596">
        <ele>657.4</ele>
        <time>2025-04-30T13:43:50Z</time>
      </trkpt>
      <trkpt lat="45.70335" lon="4.62595">
        <ele>657.4</ele>
        <time>2025-04-30T13:43:51Z</time>
      </trkpt>
      <trkpt lat="45.70336" lon="4.62595">
        <ele>657.8</ele>
        <time>2025-04-30T13:43:52Z</time>
      </trkpt>
      <trkpt lat="45.70337" lon="4.62594">
        <ele>657.8</ele>
        <time>2025-04-30T13:43:53Z</time>
      </trkpt>
      <trkpt lat="45.70339" lon="4.62592">
        <ele>658.2</ele>
        <time>2025-04-30T13:43:54Z</time>
      </trkpt>
      <trkpt lat="45.70339" lon="4.62591">
        <ele>658.2</ele>
        <time>2025-04-30T13:43:55Z</time>
      </trkpt>
      <trkpt lat="45.70339" lon="4.62589">
        <ele>658.4</ele>
        <time>2025-04-30T13:43:56Z</time>
      </trkpt>
      <trkpt lat="45.70339" lon="4.62587">
        <ele>658.8</ele>
        <time>2025-04-30T13:43:57Z</time>
      </trkpt>
      <trkpt lat="45.70339" lon="4.62587">
        <ele>659</ele>
        <time>2025-04-30T13:43:58Z</time>
      </trkpt>
      <trkpt lat="45.70339" lon="4.62587">
        <ele>659.2</ele>
        <time>2025-04-30T13:43:59Z</time>
      </trkpt>
      <trkpt lat="45.70339" lon="4.62587">
        <ele>659.2</ele>
        <time>2025-04-30T13:44:00Z</time>
      </trkpt>
      <trkpt lat="45.70339" lon="4.62587">
        <ele>659.4</ele>
        <time>2025-04-30T13:44:01Z</time>
      </trkpt>
      <trkpt lat="45.70339" lon="4.62587">
        <ele>659.4</ele>
        <time>2025-04-30T13:44:02Z</time>
      </trkpt>
      <trkpt lat="45.70339" lon="4.62587">
        <ele>659.4</ele>
        <time>2025-04-30T13:44:03Z</time>
      </trkpt>
      <trkpt lat="45.70339" lon="4.62587">
        <ele>659.4</ele>
        <time>2025-04-30T13:44:04Z</time>
      </trkpt>
      <trkpt lat="45.70339" lon="4.62587">
        <ele>659.6</ele>
        <time>2025-04-30T13:44:05Z</time>
      </trkpt>
      <trkpt lat="45.70339" lon="4.62587">
        <ele>659.6</ele>
        <time>2025-04-30T13:44:06Z</time>
      </trkpt>
      <trkpt lat="45.70339" lon="4.62587">
        <ele>659.6</ele>
        <time>2025-04-30T13:44:07Z</time>
      </trkpt>
      <trkpt lat="45.70339" lon="4.62587">
        <ele>659.6</ele>
        <time>2025-04-30T13:44:08Z</time>
      </trkpt>
      <trkpt lat="45.70339" lon="4.62587">
        <ele>659.6</ele>
        <time>2025-04-30T13:44:09Z</time>
      </trkpt>
      <trkpt lat="45.70339" lon="4.62587">
        <ele>659.6</ele>
        <time>2025-04-30T13:44:10Z</time>
      </trkpt>
      <trkpt lat="45.70339" lon="4.62587">
        <ele>659.6</ele>
        <time>2025-04-30T13:44:11Z</time>
      </trkpt>
      <trkpt lat="45.70339" lon="4.62587">
        <ele>659.6</ele>
        <time>2025-04-30T13:44:12Z</time>
      </trkpt>
      <trkpt lat="45.70339" lon="4.62587">
        <ele>659.6</ele>
        <time>2025-04-30T13:44:13Z</time>
      </trkpt>
      <trkpt lat="45.70338" lon="4.62586">
        <ele>659.6</ele>
        <time>2025-04-30T13:44:14Z</time>
      </trkpt>
      <trkpt lat="45.70337" lon="4.62585">
        <ele>659.6</ele>
        <time>2025-04-30T13:44:15Z</time>
      </trkpt>
      <trkpt lat="45.70336" lon="4.62584">
        <ele>659.6</ele>
        <time>2025-04-30T13:44:16Z</time>
      </trkpt>
      <trkpt lat="45.70336" lon="4.62582">
        <ele>659.6</ele>
        <time>2025-04-30T13:44:17Z</time>
      </trkpt>
      <trkpt lat="45.70335" lon="4.6258">
        <ele>659.6</ele>
        <time>2025-04-30T13:44:18Z</time>
      </trkpt>
      <trkpt lat="45.70334" lon="4.62577">
        <ele>659.6</ele>
        <time>2025-04-30T13:44:19Z</time>
      </trkpt>
      <trkpt lat="45.70333" lon="4.62575">
        <ele>659.8</ele>
        <time>2025-04-30T13:44:20Z</time>
      </trkpt>
      <trkpt lat="45.70332" lon="4.62571">
        <ele>660</ele>
        <time>2025-04-30T13:44:21Z</time>
      </trkpt>
      <trkpt lat="45.70331" lon="4.62569">
        <ele>660</ele>
        <time>2025-04-30T13:44:22Z</time>
      </trkpt>
      <trkpt lat="45.7033" lon="4.62566">
        <ele>660.4</ele>
        <time>2025-04-30T13:44:23Z</time>
      </trkpt>
      <trkpt lat="45.70329" lon="4.62563">
        <ele>660.6</ele>
        <time>2025-04-30T13:44:24Z</time>
      </trkpt>
      <trkpt lat="45.70328" lon="4.6256">
        <ele>660.8</ele>
        <time>2025-04-30T13:44:25Z</time>
      </trkpt>
      <trkpt lat="45.70327" lon="4.62557">
        <ele>661.2</ele>
        <time>2025-04-30T13:44:26Z</time>
      </trkpt>
      <trkpt lat="45.70326" lon="4.62555">
        <ele>661.4</ele>
        <time>2025-04-30T13:44:27Z</time>
      </trkpt>
      <trkpt lat="45.70325" lon="4.62552">
        <ele>661.6</ele>
        <time>2025-04-30T13:44:28Z</time>
      </trkpt>
      <trkpt lat="45.70324" lon="4.6255">
        <ele>662</ele>
        <time>2025-04-30T13:44:29Z</time>
      </trkpt>
      <trkpt lat="45.70324" lon="4.62548">
        <ele>662.2</ele>
        <time>2025-04-30T13:44:30Z</time>
      </trkpt>
      <trkpt lat="45.70324" lon="4.62545">
        <ele>663</ele>
        <time>2025-04-30T13:44:31Z</time>
      </trkpt>
      <trkpt lat="45.70324" lon="4.62543">
        <ele>663.2</ele>
        <time>2025-04-30T13:44:32Z</time>
      </trkpt>
      <trkpt lat="45.70324" lon="4.6254">
        <ele>663.4</ele>
        <time>2025-04-30T13:44:33Z</time>
      </trkpt>
      <trkpt lat="45.70323" lon="4.62538">
        <ele>663.6</ele>
        <time>2025-04-30T13:44:34Z</time>
      </trkpt>
      <trkpt lat="45.70323" lon="4.62535">
        <ele>664</ele>
        <time>2025-04-30T13:44:35Z</time>
      </trkpt>
      <trkpt lat="45.70322" lon="4.62533">
        <ele>664.2</ele>
        <time>2025-04-30T13:44:36Z</time>
      </trkpt>
      <trkpt lat="45.70322" lon="4.6253">
        <ele>664.4</ele>
        <time>2025-04-30T13:44:37Z</time>
      </trkpt>
      <trkpt lat="45.70322" lon="4.62528">
        <ele>664.8</ele>
        <time>2025-04-30T13:44:38Z</time>
      </trkpt>
      <trkpt lat="45.70322" lon="4.62525">
        <ele>665</ele>
        <time>2025-04-30T13:44:39Z</time>
      </trkpt>
      <trkpt lat="45.70322" lon="4.62523">
        <ele>665.4</ele>
        <time>2025-04-30T13:44:40Z</time>
      </trkpt>
      <trkpt lat="45.70321" lon="4.6252">
        <ele>665.6</ele>
        <time>2025-04-30T13:44:41Z</time>
      </trkpt>
      <trkpt lat="45.70321" lon="4.62517">
        <ele>666</ele>
        <time>2025-04-30T13:44:42Z</time>
      </trkpt>
      <trkpt lat="45.70321" lon="4.62515">
        <ele>666.2</ele>
        <time>2025-04-30T13:44:43Z</time>
      </trkpt>
      <trkpt lat="45.70321" lon="4.62512">
        <ele>666.2</ele>
        <time>2025-04-30T13:44:44Z</time>
      </trkpt>
      <trkpt lat="45.70321" lon="4.6251">
        <ele>666.6</ele>
        <time>2025-04-30T13:44:45Z</time>
      </trkpt>
      <trkpt lat="45.70322" lon="4.62507">
        <ele>666.8</ele>
        <time>2025-04-30T13:44:46Z</time>
      </trkpt>
      <trkpt lat="45.70322" lon="4.62504">
        <ele>667.2</ele>
        <time>2025-04-30T13:44:47Z</time>
      </trkpt>
      <trkpt lat="45.70323" lon="4.62502">
        <ele>667.4</ele>
        <time>2025-04-30T13:44:48Z</time>
      </trkpt>
      <trkpt lat="45.70323" lon="4.62499">
        <ele>667.8</ele>
        <time>2025-04-30T13:44:49Z</time>
      </trkpt>
      <trkpt lat="45.70324" lon="4.62497">
        <ele>668</ele>
        <time>2025-04-30T13:44:50Z</time>
      </trkpt>
      <trkpt lat="45.70324" lon="4.62494">
        <ele>668.2</ele>
        <time>2025-04-30T13:44:51Z</time>
      </trkpt>
      <trkpt lat="45.70323" lon="4.62492">
        <ele>668.4</ele>
        <time>2025-04-30T13:44:52Z</time>
      </trkpt>
      <trkpt lat="45.70323" lon="4.62489">
        <ele>668.8</ele>
        <time>2025-04-30T13:44:53Z</time>
      </trkpt>
      <trkpt lat="45.70323" lon="4.62487">
        <ele>668.8</ele>
        <time>2025-04-30T13:44:54Z</time>
      </trkpt>
      <trkpt lat="45.70323" lon="4.62485">
        <ele>668.8</ele>
        <time>2025-04-30T13:44:55Z</time>
      </trkpt>
      <trkpt lat="45.70322" lon="4.62483">
        <ele>669</ele>
        <time>2025-04-30T13:44:56Z</time>
      </trkpt>
      <trkpt lat="45.70321" lon="4.62481">
        <ele>669.4</ele>
        <time>2025-04-30T13:44:57Z</time>
      </trkpt>
      <trkpt lat="45.7032" lon="4.62479">
        <ele>669.6</ele>
        <time>2025-04-30T13:44:58Z</time>
      </trkpt>
      <trkpt lat="45.70319" lon="4.62478">
        <ele>669.8</ele>
        <time>2025-04-30T13:44:59Z</time>
      </trkpt>
      <trkpt lat="45.70318" lon="4.62476">
        <ele>670.2</ele>
        <time>2025-04-30T13:45:00Z</time>
      </trkpt>
      <trkpt lat="45.70317" lon="4.62474">
        <ele>670.2</ele>
        <time>2025-04-30T13:45:01Z</time>
      </trkpt>
      <trkpt lat="45.70316" lon="4.62472">
        <ele>670.4</ele>
        <time>2025-04-30T13:45:02Z</time>
      </trkpt>
      <trkpt lat="45.70316" lon="4.6247">
        <ele>670.6</ele>
        <time>2025-04-30T13:45:03Z</time>
      </trkpt>
      <trkpt lat="45.70315" lon="4.62468">
        <ele>670.6</ele>
        <time>2025-04-30T13:45:04Z</time>
      </trkpt>
      <trkpt lat="45.70313" lon="4.62466">
        <ele>670.8</ele>
        <time>2025-04-30T13:45:05Z</time>
      </trkpt>
      <trkpt lat="45.70312" lon="4.62464">
        <ele>671.2</ele>
        <time>2025-04-30T13:45:06Z</time>
      </trkpt>
      <trkpt lat="45.70311" lon="4.62462">
        <ele>671.4</ele>
        <time>2025-04-30T13:45:07Z</time>
      </trkpt>
      <trkpt lat="45.70309" lon="4.6246">
        <ele>671.8</ele>
        <time>2025-04-30T13:45:08Z</time>
      </trkpt>
      <trkpt lat="45.70308" lon="4.62458">
        <ele>672</ele>
        <time>2025-04-30T13:45:09Z</time>
      </trkpt>
      <trkpt lat="45.70306" lon="4.62455">
        <ele>672.2</ele>
        <time>2025-04-30T13:45:10Z</time>
      </trkpt>
      <trkpt lat="45.70305" lon="4.62452">
        <ele>672.2</ele>
        <time>2025-04-30T13:45:11Z</time>
      </trkpt>
      <trkpt lat="45.70304" lon="4.6245">
        <ele>672.6</ele>
        <time>2025-04-30T13:45:12Z</time>
      </trkpt>
      <trkpt lat="45.70302" lon="4.62447">
        <ele>672.6</ele>
        <time>2025-04-30T13:45:13Z</time>
      </trkpt>
      <trkpt lat="45.70301" lon="4.62443">
        <ele>672.8</ele>
        <time>2025-04-30T13:45:14Z</time>
      </trkpt>
      <trkpt lat="45.70299" lon="4.62439">
        <ele>672.8</ele>
        <time>2025-04-30T13:45:15Z</time>
      </trkpt>
      <trkpt lat="45.70298" lon="4.62436">
        <ele>672.8</ele>
        <time>2025-04-30T13:45:16Z</time>
      </trkpt>
      <trkpt lat="45.70296" lon="4.62433">
        <ele>672.8</ele>
        <time>2025-04-30T13:45:17Z</time>
      </trkpt>
      <trkpt lat="45.70295" lon="4.6243">
        <ele>672.8</ele>
        <time>2025-04-30T13:45:18Z</time>
      </trkpt>
      <trkpt lat="45.70294" lon="4.62427">
        <ele>672.8</ele>
        <time>2025-04-30T13:45:19Z</time>
      </trkpt>
      <trkpt lat="45.70293" lon="4.62424">
        <ele>672.8</ele>
        <time>2025-04-30T13:45:20Z</time>
      </trkpt>
      <trkpt lat="45.70291" lon="4.6242">
        <ele>672.8</ele>
        <time>2025-04-30T13:45:21Z</time>
      </trkpt>
      <trkpt lat="45.70289" lon="4.62417">
        <ele>672.8</ele>
        <time>2025-04-30T13:45:22Z</time>
      </trkpt>
      <trkpt lat="45.70287" lon="4.62413">
        <ele>672.6</ele>
        <time>2025-04-30T13:45:23Z</time>
      </trkpt>
      <trkpt lat="45.70286" lon="4.6241">
        <ele>672.6</ele>
        <time>2025-04-30T13:45:24Z</time>
      </trkpt>
      <trkpt lat="45.70284" lon="4.62407">
        <ele>672.6</ele>
        <time>2025-04-30T13:45:25Z</time>
      </trkpt>
      <trkpt lat="45.70283" lon="4.62404">
        <ele>672.6</ele>
        <time>2025-04-30T13:45:26Z</time>
      </trkpt>
      <trkpt lat="45.70281" lon="4.624">
        <ele>672.4</ele>
        <time>2025-04-30T13:45:27Z</time>
      </trkpt>
      <trkpt lat="45.70279" lon="4.62397">
        <ele>672.4</ele>
        <time>2025-04-30T13:45:28Z</time>
      </trkpt>
      <trkpt lat="45.70277" lon="4.62393">
        <ele>672.4</ele>
        <time>2025-04-30T13:45:29Z</time>
      </trkpt>
      <trkpt lat="45.70276" lon="4.62389">
        <ele>672.4</ele>
        <time>2025-04-30T13:45:30Z</time>
      </trkpt>
      <trkpt lat="45.70274" lon="4.62386">
        <ele>672.4</ele>
        <time>2025-04-30T13:45:31Z</time>
      </trkpt>
      <trkpt lat="45.70273" lon="4.62383">
        <ele>672.4</ele>
        <time>2025-04-30T13:45:32Z</time>
      </trkpt>
      <trkpt lat="45.70272" lon="4.6238">
        <ele>672.4</ele>
        <time>2025-04-30T13:45:33Z</time>
      </trkpt>
      <trkpt lat="45.7027" lon="4.62377">
        <ele>672.6</ele>
        <time>2025-04-30T13:45:34Z</time>
      </trkpt>
      <trkpt lat="45.70268" lon="4.62373">
        <ele>672.6</ele>
        <time>2025-04-30T13:45:35Z</time>
      </trkpt>
      <trkpt lat="45.70267" lon="4.6237">
        <ele>672.6</ele>
        <time>2025-04-30T13:45:36Z</time>
      </trkpt>
      <trkpt lat="45.70265" lon="4.62366">
        <ele>672.6</ele>
        <time>2025-04-30T13:45:37Z</time>
      </trkpt>
      <trkpt lat="45.70264" lon="4.62364">
        <ele>672.8</ele>
        <time>2025-04-30T13:45:38Z</time>
      </trkpt>
      <trkpt lat="45.70262" lon="4.62361">
        <ele>672.8</ele>
        <time>2025-04-30T13:45:39Z</time>
      </trkpt>
      <trkpt lat="45.7026" lon="4.62357">
        <ele>672.8</ele>
        <time>2025-04-30T13:45:40Z</time>
      </trkpt>
      <trkpt lat="45.70258" lon="4.62354">
        <ele>673</ele>
        <time>2025-04-30T13:45:41Z</time>
      </trkpt>
      <trkpt lat="45.70256" lon="4.62351">
        <ele>673</ele>
        <time>2025-04-30T13:45:42Z</time>
      </trkpt>
      <trkpt lat="45.70254" lon="4.62348">
        <ele>673</ele>
        <time>2025-04-30T13:45:43Z</time>
      </trkpt>
      <trkpt lat="45.70253" lon="4.62346">
        <ele>673</ele>
        <time>2025-04-30T13:45:44Z</time>
      </trkpt>
      <trkpt lat="45.70251" lon="4.62343">
        <ele>673.4</ele>
        <time>2025-04-30T13:45:45Z</time>
      </trkpt>
      <trkpt lat="45.70248" lon="4.6234">
        <ele>673.6</ele>
        <time>2025-04-30T13:45:46Z</time>
      </trkpt>
      <trkpt lat="45.70246" lon="4.62337">
        <ele>674</ele>
        <time>2025-04-30T13:45:47Z</time>
      </trkpt>
      <trkpt lat="45.70244" lon="4.62334">
        <ele>674.2</ele>
        <time>2025-04-30T13:45:48Z</time>
      </trkpt>
      <trkpt lat="45.70242" lon="4.6233">
        <ele>674.2</ele>
        <time>2025-04-30T13:45:49Z</time>
      </trkpt>
      <trkpt lat="45.7024" lon="4.62327">
        <ele>674.4</ele>
        <time>2025-04-30T13:45:50Z</time>
      </trkpt>
      <trkpt lat="45.70239" lon="4.62324">
        <ele>674.6</ele>
        <time>2025-04-30T13:45:51Z</time>
      </trkpt>
      <trkpt lat="45.70237" lon="4.62322">
        <ele>675</ele>
        <time>2025-04-30T13:45:52Z</time>
      </trkpt>
      <trkpt lat="45.70236" lon="4.6232">
        <ele>675.2</ele>
        <time>2025-04-30T13:45:53Z</time>
      </trkpt>
      <trkpt lat="45.70235" lon="4.62317">
        <ele>675.4</ele>
        <time>2025-04-30T13:45:54Z</time>
      </trkpt>
      <trkpt lat="45.70233" lon="4.62315">
        <ele>675.8</ele>
        <time>2025-04-30T13:45:55Z</time>
      </trkpt>
      <trkpt lat="45.70232" lon="4.62313">
        <ele>676</ele>
        <time>2025-04-30T13:45:56Z</time>
      </trkpt>
      <trkpt lat="45.70231" lon="4.62311">
        <ele>676.2</ele>
        <time>2025-04-30T13:45:57Z</time>
      </trkpt>
      <trkpt lat="45.70229" lon="4.62309">
        <ele>676.6</ele>
        <time>2025-04-30T13:45:58Z</time>
      </trkpt>
      <trkpt lat="45.70228" lon="4.62307">
        <ele>676.8</ele>
        <time>2025-04-30T13:45:59Z</time>
      </trkpt>
      <trkpt lat="45.70226" lon="4.62304">
        <ele>677</ele>
        <time>2025-04-30T13:46:00Z</time>
      </trkpt>
      <trkpt lat="45.70225" lon="4.62302">
        <ele>677.2</ele>
        <time>2025-04-30T13:46:01Z</time>
      </trkpt>
      <trkpt lat="45.70223" lon="4.623">
        <ele>677.4</ele>
        <time>2025-04-30T13:46:02Z</time>
      </trkpt>
      <trkpt lat="45.70222" lon="4.62298">
        <ele>677.6</ele>
        <time>2025-04-30T13:46:03Z</time>
      </trkpt>
      <trkpt lat="45.70221" lon="4.62295">
        <ele>677.8</ele>
        <time>2025-04-30T13:46:04Z</time>
      </trkpt>
      <trkpt lat="45.70219" lon="4.62293">
        <ele>677.8</ele>
        <time>2025-04-30T13:46:05Z</time>
      </trkpt>
      <trkpt lat="45.70218" lon="4.6229">
        <ele>678.2</ele>
        <time>2025-04-30T13:46:06Z</time>
      </trkpt>
      <trkpt lat="45.70216" lon="4.62287">
        <ele>678.6</ele>
        <time>2025-04-30T13:46:07Z</time>
      </trkpt>
      <trkpt lat="45.70214" lon="4.62285">
        <ele>678.8</ele>
        <time>2025-04-30T13:46:08Z</time>
      </trkpt>
      <trkpt lat="45.70213" lon="4.62282">
        <ele>679</ele>
        <time>2025-04-30T13:46:09Z</time>
      </trkpt>
      <trkpt lat="45.70211" lon="4.6228">
        <ele>679</ele>
        <time>2025-04-30T13:46:10Z</time>
      </trkpt>
      <trkpt lat="45.70209" lon="4.62277">
        <ele>679.2</ele>
        <time>2025-04-30T13:46:11Z</time>
      </trkpt>
      <trkpt lat="45.70208" lon="4.62275">
        <ele>679.4</ele>
        <time>2025-04-30T13:46:12Z</time>
      </trkpt>
      <trkpt lat="45.70207" lon="4.62273">
        <ele>679.6</ele>
        <time>2025-04-30T13:46:13Z</time>
      </trkpt>
      <trkpt lat="45.70205" lon="4.6227">
        <ele>679.8</ele>
        <time>2025-04-30T13:46:14Z</time>
      </trkpt>
      <trkpt lat="45.70204" lon="4.62268">
        <ele>679.8</ele>
        <time>2025-04-30T13:46:15Z</time>
      </trkpt>
      <trkpt lat="45.70202" lon="4.62265">
        <ele>680.2</ele>
        <time>2025-04-30T13:46:16Z</time>
      </trkpt>
      <trkpt lat="45.702" lon="4.62263">
        <ele>680.4</ele>
        <time>2025-04-30T13:46:17Z</time>
      </trkpt>
      <trkpt lat="45.70198" lon="4.6226">
        <ele>680.4</ele>
        <time>2025-04-30T13:46:18Z</time>
      </trkpt>
      <trkpt lat="45.70196" lon="4.62258">
        <ele>680.6</ele>
        <time>2025-04-30T13:46:19Z</time>
      </trkpt>
      <trkpt lat="45.70194" lon="4.62255">
        <ele>680.6</ele>
        <time>2025-04-30T13:46:20Z</time>
      </trkpt>
      <trkpt lat="45.70192" lon="4.62253">
        <ele>681</ele>
        <time>2025-04-30T13:46:21Z</time>
      </trkpt>
      <trkpt lat="45.70191" lon="4.6225">
        <ele>681.2</ele>
        <time>2025-04-30T13:46:22Z</time>
      </trkpt>
      <trkpt lat="45.7019" lon="4.62248">
        <ele>681.4</ele>
        <time>2025-04-30T13:46:23Z</time>
      </trkpt>
      <trkpt lat="45.70188" lon="4.62245">
        <ele>681.6</ele>
        <time>2025-04-30T13:46:24Z</time>
      </trkpt>
      <trkpt lat="45.70187" lon="4.62244">
        <ele>682</ele>
        <time>2025-04-30T13:46:25Z</time>
      </trkpt>
      <trkpt lat="45.70185" lon="4.62242">
        <ele>682.2</ele>
        <time>2025-04-30T13:46:26Z</time>
      </trkpt>
      <trkpt lat="45.70184" lon="4.6224">
        <ele>682.4</ele>
        <time>2025-04-30T13:46:27Z</time>
      </trkpt>
      <trkpt lat="45.70182" lon="4.62239">
        <ele>682.8</ele>
        <time>2025-04-30T13:46:28Z</time>
      </trkpt>
      <trkpt lat="45.7018" lon="4.62237">
        <ele>683</ele>
        <time>2025-04-30T13:46:29Z</time>
      </trkpt>
      <trkpt lat="45.70179" lon="4.62235">
        <ele>683.2</ele>
        <time>2025-04-30T13:46:30Z</time>
      </trkpt>
      <trkpt lat="45.70178" lon="4.62234">
        <ele>683.6</ele>
        <time>2025-04-30T13:46:31Z</time>
      </trkpt>
      <trkpt lat="45.70176" lon="4.62231">
        <ele>683.8</ele>
        <time>2025-04-30T13:46:32Z</time>
      </trkpt>
      <trkpt lat="45.70175" lon="4.62229">
        <ele>684</ele>
        <time>2025-04-30T13:46:33Z</time>
      </trkpt>
      <trkpt lat="45.70173" lon="4.62227">
        <ele>684.2</ele>
        <time>2025-04-30T13:46:34Z</time>
      </trkpt>
      <trkpt lat="45.70171" lon="4.62225">
        <ele>684.2</ele>
        <time>2025-04-30T13:46:35Z</time>
      </trkpt>
      <trkpt lat="45.7017" lon="4.62223">
        <ele>684.6</ele>
        <time>2025-04-30T13:46:36Z</time>
      </trkpt>
      <trkpt lat="45.70169" lon="4.62222">
        <ele>684.8</ele>
        <time>2025-04-30T13:46:37Z</time>
      </trkpt>
      <trkpt lat="45.70167" lon="4.6222">
        <ele>685</ele>
        <time>2025-04-30T13:46:38Z</time>
      </trkpt>
      <trkpt lat="45.70165" lon="4.62219">
        <ele>685.2</ele>
        <time>2025-04-30T13:46:39Z</time>
      </trkpt>
      <trkpt lat="45.70164" lon="4.62217">
        <ele>685.4</ele>
        <time>2025-04-30T13:46:40Z</time>
      </trkpt>
      <trkpt lat="45.70163" lon="4.62216">
        <ele>685.8</ele>
        <time>2025-04-30T13:46:41Z</time>
      </trkpt>
      <trkpt lat="45.70162" lon="4.62215">
        <ele>685.8</ele>
        <time>2025-04-30T13:46:42Z</time>
      </trkpt>
      <trkpt lat="45.70162" lon="4.62213">
        <ele>686.2</ele>
        <time>2025-04-30T13:46:43Z</time>
      </trkpt>
      <trkpt lat="45.7016" lon="4.62211">
        <ele>686.4</ele>
        <time>2025-04-30T13:46:44Z</time>
      </trkpt>
      <trkpt lat="45.70159" lon="4.62209">
        <ele>686.4</ele>
        <time>2025-04-30T13:46:45Z</time>
      </trkpt>
      <trkpt lat="45.70157" lon="4.62208">
        <ele>686.6</ele>
        <time>2025-04-30T13:46:46Z</time>
      </trkpt>
      <trkpt lat="45.70156" lon="4.62206">
        <ele>686.8</ele>
        <time>2025-04-30T13:46:47Z</time>
      </trkpt>
      <trkpt lat="45.70155" lon="4.62204">
        <ele>687.2</ele>
        <time>2025-04-30T13:46:48Z</time>
      </trkpt>
      <trkpt lat="45.70153" lon="4.62202">
        <ele>687.2</ele>
        <time>2025-04-30T13:46:49Z</time>
      </trkpt>
      <trkpt lat="45.70152" lon="4.62201">
        <ele>687.6</ele>
        <time>2025-04-30T13:46:50Z</time>
      </trkpt>
      <trkpt lat="45.7015" lon="4.62199">
        <ele>688.2</ele>
        <time>2025-04-30T13:46:51Z</time>
      </trkpt>
      <trkpt lat="45.70148" lon="4.62197">
        <ele>688.4</ele>
        <time>2025-04-30T13:46:52Z</time>
      </trkpt>
      <trkpt lat="45.70146" lon="4.62196">
        <ele>688.6</ele>
        <time>2025-04-30T13:46:53Z</time>
      </trkpt>
      <trkpt lat="45.70145" lon="4.62195">
        <ele>689</ele>
        <time>2025-04-30T13:46:54Z</time>
      </trkpt>
      <trkpt lat="45.70143" lon="4.62194">
        <ele>689.2</ele>
        <time>2025-04-30T13:46:55Z</time>
      </trkpt>
      <trkpt lat="45.70142" lon="4.62193">
        <ele>689.6</ele>
        <time>2025-04-30T13:46:56Z</time>
      </trkpt>
      <trkpt lat="45.70141" lon="4.62191">
        <ele>689.6</ele>
        <time>2025-04-30T13:46:57Z</time>
      </trkpt>
      <trkpt lat="45.70139" lon="4.62189">
        <ele>689.8</ele>
        <time>2025-04-30T13:46:58Z</time>
      </trkpt>
      <trkpt lat="45.70138" lon="4.62188">
        <ele>689.8</ele>
        <time>2025-04-30T13:46:59Z</time>
      </trkpt>
      <trkpt lat="45.70136" lon="4.62186">
        <ele>689.8</ele>
        <time>2025-04-30T13:47:00Z</time>
      </trkpt>
      <trkpt lat="45.70134" lon="4.62185">
        <ele>690</ele>
        <time>2025-04-30T13:47:01Z</time>
      </trkpt>
      <trkpt lat="45.70133" lon="4.62184">
        <ele>690</ele>
        <time>2025-04-30T13:47:02Z</time>
      </trkpt>
      <trkpt lat="45.70132" lon="4.62183">
        <ele>690.2</ele>
        <time>2025-04-30T13:47:03Z</time>
      </trkpt>
      <trkpt lat="45.70131" lon="4.62182">
        <ele>690.2</ele>
        <time>2025-04-30T13:47:04Z</time>
      </trkpt>
      <trkpt lat="45.70129" lon="4.62181">
        <ele>690.4</ele>
        <time>2025-04-30T13:47:05Z</time>
      </trkpt>
      <trkpt lat="45.70128" lon="4.62179">
        <ele>690.4</ele>
        <time>2025-04-30T13:47:06Z</time>
      </trkpt>
      <trkpt lat="45.70127" lon="4.62179">
        <ele>690.6</ele>
        <time>2025-04-30T13:47:07Z</time>
      </trkpt>
      <trkpt lat="45.70125" lon="4.62178">
        <ele>690.8</ele>
        <time>2025-04-30T13:47:08Z</time>
      </trkpt>
      <trkpt lat="45.70124" lon="4.62177">
        <ele>691</ele>
        <time>2025-04-30T13:47:09Z</time>
      </trkpt>
      <trkpt lat="45.70123" lon="4.62177">
        <ele>691.2</ele>
        <time>2025-04-30T13:47:10Z</time>
      </trkpt>
      <trkpt lat="45.70122" lon="4.62175">
        <ele>691.4</ele>
        <time>2025-04-30T13:47:11Z</time>
      </trkpt>
      <trkpt lat="45.70121" lon="4.62174">
        <ele>691.6</ele>
        <time>2025-04-30T13:47:12Z</time>
      </trkpt>
      <trkpt lat="45.7012" lon="4.62173">
        <ele>691.8</ele>
        <time>2025-04-30T13:47:13Z</time>
      </trkpt>
      <trkpt lat="45.70118" lon="4.62172">
        <ele>692</ele>
        <time>2025-04-30T13:47:14Z</time>
      </trkpt>
      <trkpt lat="45.70117" lon="4.62171">
        <ele>692</ele>
        <time>2025-04-30T13:47:15Z</time>
      </trkpt>
      <trkpt lat="45.70116" lon="4.6217">
        <ele>692.2</ele>
        <time>2025-04-30T13:47:16Z</time>
      </trkpt>
      <trkpt lat="45.70115" lon="4.62168">
        <ele>692.4</ele>
        <time>2025-04-30T13:47:17Z</time>
      </trkpt>
      <trkpt lat="45.70114" lon="4.62166">
        <ele>692.6</ele>
        <time>2025-04-30T13:47:18Z</time>
      </trkpt>
      <trkpt lat="45.70113" lon="4.62165">
        <ele>692.6</ele>
        <time>2025-04-30T13:47:19Z</time>
      </trkpt>
      <trkpt lat="45.70112" lon="4.62163">
        <ele>693</ele>
        <time>2025-04-30T13:47:20Z</time>
      </trkpt>
      <trkpt lat="45.7011" lon="4.62161">
        <ele>693.2</ele>
        <time>2025-04-30T13:47:21Z</time>
      </trkpt>
      <trkpt lat="45.70109" lon="4.6216">
        <ele>693.6</ele>
        <time>2025-04-30T13:47:22Z</time>
      </trkpt>
      <trkpt lat="45.70108" lon="4.6216">
        <ele>693.8</ele>
        <time>2025-04-30T13:47:23Z</time>
      </trkpt>
      <trkpt lat="45.70107" lon="4.62159">
        <ele>694</ele>
        <time>2025-04-30T13:47:24Z</time>
      </trkpt>
      <trkpt lat="45.70106" lon="4.62158">
        <ele>694.2</ele>
        <time>2025-04-30T13:47:25Z</time>
      </trkpt>
      <trkpt lat="45.70105" lon="4.62158">
        <ele>694.4</ele>
        <time>2025-04-30T13:47:26Z</time>
      </trkpt>
      <trkpt lat="45.70105" lon="4.62158">
        <ele>694.6</ele>
        <time>2025-04-30T13:47:27Z</time>
      </trkpt>
      <trkpt lat="45.70105" lon="4.62158">
        <ele>694.8</ele>
        <time>2025-04-30T13:47:28Z</time>
      </trkpt>
      <trkpt lat="45.70105" lon="4.62158">
        <ele>695.2</ele>
        <time>2025-04-30T13:47:29Z</time>
      </trkpt>
      <trkpt lat="45.70105" lon="4.62158">
        <ele>695.2</ele>
        <time>2025-04-30T13:47:30Z</time>
      </trkpt>
      <trkpt lat="45.70105" lon="4.62158">
        <ele>695.2</ele>
        <time>2025-04-30T13:47:31Z</time>
      </trkpt>
      <trkpt lat="45.70105" lon="4.62158">
        <ele>695.2</ele>
        <time>2025-04-30T13:47:32Z</time>
      </trkpt>
      <trkpt lat="45.70105" lon="4.62158">
        <ele>695.4</ele>
        <time>2025-04-30T13:47:33Z</time>
      </trkpt>
      <trkpt lat="45.70105" lon="4.62158">
        <ele>695.4</ele>
        <time>2025-04-30T13:47:34Z</time>
      </trkpt>
      <trkpt lat="45.70105" lon="4.62158">
        <ele>695.4</ele>
        <time>2025-04-30T13:47:35Z</time>
      </trkpt>
      <trkpt lat="45.70105" lon="4.62158">
        <ele>695.4</ele>
        <time>2025-04-30T13:47:36Z</time>
      </trkpt>
      <trkpt lat="45.70105" lon="4.62158">
        <ele>695.4</ele>
        <time>2025-04-30T13:47:37Z</time>
      </trkpt>
      <trkpt lat="45.70105" lon="4.62158">
        <ele>695.4</ele>
        <time>2025-04-30T13:47:38Z</time>
      </trkpt>
      <trkpt lat="45.70105" lon="4.62158">
        <ele>695.4</ele>
        <time>2025-04-30T13:47:39Z</time>
      </trkpt>
      <trkpt lat="45.70105" lon="4.62158">
        <ele>695.4</ele>
        <time>2025-04-30T13:47:40Z</time>
      </trkpt>
      <trkpt lat="45.70105" lon="4.62157">
        <ele>695.6</ele>
        <time>2025-04-30T13:47:41Z</time>
      </trkpt>
      <trkpt lat="45.70105" lon="4.62157">
        <ele>695.6</ele>
        <time>2025-04-30T13:47:42Z</time>
      </trkpt>
      <trkpt lat="45.70104" lon="4.62156">
        <ele>695.6</ele>
        <time>2025-04-30T13:47:43Z</time>
      </trkpt>
      <trkpt lat="45.70102" lon="4.62155">
        <ele>695.6</ele>
        <time>2025-04-30T13:47:44Z</time>
      </trkpt>
      <trkpt lat="45.70101" lon="4.62154">
        <ele>695.6</ele>
        <time>2025-04-30T13:47:45Z</time>
      </trkpt>
      <trkpt lat="45.701" lon="4.62152">
        <ele>695.6</ele>
        <time>2025-04-30T13:47:46Z</time>
      </trkpt>
      <trkpt lat="45.70098" lon="4.62151">
        <ele>695.6</ele>
        <time>2025-04-30T13:47:47Z</time>
      </trkpt>
      <trkpt lat="45.70097" lon="4.6215">
        <ele>696</ele>
        <time>2025-04-30T13:47:48Z</time>
      </trkpt>
      <trkpt lat="45.70095" lon="4.6215">
        <ele>696.2</ele>
        <time>2025-04-30T13:47:49Z</time>
      </trkpt>
      <trkpt lat="45.70094" lon="4.62148">
        <ele>696.4</ele>
        <time>2025-04-30T13:47:50Z</time>
      </trkpt>
      <trkpt lat="45.70094" lon="4.62147">
        <ele>696.6</ele>
        <time>2025-04-30T13:47:51Z</time>
      </trkpt>
      <trkpt lat="45.70093" lon="4.62146">
        <ele>696.6</ele>
        <time>2025-04-30T13:47:52Z</time>
      </trkpt>
      <trkpt lat="45.70092" lon="4.62145">
        <ele>696.8</ele>
        <time>2025-04-30T13:47:53Z</time>
      </trkpt>
      <trkpt lat="45.70091" lon="4.62143">
        <ele>697.2</ele>
        <time>2025-04-30T13:47:54Z</time>
      </trkpt>
      <trkpt lat="45.7009" lon="4.62143">
        <ele>697.4</ele>
        <time>2025-04-30T13:47:55Z</time>
      </trkpt>
      <trkpt lat="45.7009" lon="4.62143">
        <ele>697.6</ele>
        <time>2025-04-30T13:47:56Z</time>
      </trkpt>
      <trkpt lat="45.7009" lon="4.62143">
        <ele>698</ele>
        <time>2025-04-30T13:47:57Z</time>
      </trkpt>
      <trkpt lat="45.7009" lon="4.62143">
        <ele>698.2</ele>
        <time>2025-04-30T13:47:58Z</time>
      </trkpt>
      <trkpt lat="45.7009" lon="4.62142">
        <ele>698.2</ele>
        <time>2025-04-30T13:47:59Z</time>
      </trkpt>
      <trkpt lat="45.7009" lon="4.62141">
        <ele>698.4</ele>
        <time>2025-04-30T13:48:00Z</time>
      </trkpt>
      <trkpt lat="45.7009" lon="4.6214">
        <ele>698.4</ele>
        <time>2025-04-30T13:48:01Z</time>
      </trkpt>
      <trkpt lat="45.70089" lon="4.62138">
        <ele>698.4</ele>
        <time>2025-04-30T13:48:02Z</time>
      </trkpt>
      <trkpt lat="45.70088" lon="4.62136">
        <ele>698.4</ele>
        <time>2025-04-30T13:48:03Z</time>
      </trkpt>
      <trkpt lat="45.70087" lon="4.62135">
        <ele>698.6</ele>
        <time>2025-04-30T13:48:04Z</time>
      </trkpt>
      <trkpt lat="45.70087" lon="4.62133">
        <ele>698.8</ele>
        <time>2025-04-30T13:48:05Z</time>
      </trkpt>
      <trkpt lat="45.70086" lon="4.62133">
        <ele>699.2</ele>
        <time>2025-04-30T13:48:06Z</time>
      </trkpt>
      <trkpt lat="45.70086" lon="4.62133">
        <ele>699.6</ele>
        <time>2025-04-30T13:48:07Z</time>
      </trkpt>
      <trkpt lat="45.70086" lon="4.62133">
        <ele>700.2</ele>
        <time>2025-04-30T13:48:08Z</time>
      </trkpt>
      <trkpt lat="45.70086" lon="4.62133">
        <ele>700.4</ele>
        <time>2025-04-30T13:48:09Z</time>
      </trkpt>
      <trkpt lat="45.70086" lon="4.62133">
        <ele>700.6</ele>
        <time>2025-04-30T13:48:10Z</time>
      </trkpt>
      <trkpt lat="45.70086" lon="4.62133">
        <ele>700.6</ele>
        <time>2025-04-30T13:48:11Z</time>
      </trkpt>
      <trkpt lat="45.70086" lon="4.62133">
        <ele>700.8</ele>
        <time>2025-04-30T13:48:12Z</time>
      </trkpt>
      <trkpt lat="45.70086" lon="4.62133">
        <ele>700.8</ele>
        <time>2025-04-30T13:48:13Z</time>
      </trkpt>
      <trkpt lat="45.70086" lon="4.62133">
        <ele>700.8</ele>
        <time>2025-04-30T13:48:14Z</time>
      </trkpt>
      <trkpt lat="45.70086" lon="4.62133">
        <ele>700.8</ele>
        <time>2025-04-30T13:48:15Z</time>
      </trkpt>
      <trkpt lat="45.70086" lon="4.62132">
        <ele>700.8</ele>
        <time>2025-04-30T13:48:16Z</time>
      </trkpt>
      <trkpt lat="45.70086" lon="4.62132">
        <ele>700.8</ele>
        <time>2025-04-30T13:48:17Z</time>
      </trkpt>
      <trkpt lat="45.70085" lon="4.62132">
        <ele>700.8</ele>
        <time>2025-04-30T13:48:18Z</time>
      </trkpt>
      <trkpt lat="45.70084" lon="4.62131">
        <ele>700.8</ele>
        <time>2025-04-30T13:48:19Z</time>
      </trkpt>
      <trkpt lat="45.70084" lon="4.62131">
        <ele>700.8</ele>
        <time>2025-04-30T13:48:20Z</time>
      </trkpt>
      <trkpt lat="45.70083" lon="4.6213">
        <ele>701</ele>
        <time>2025-04-30T13:48:21Z</time>
      </trkpt>
      <trkpt lat="45.70083" lon="4.62129">
        <ele>701</ele>
        <time>2025-04-30T13:48:22Z</time>
      </trkpt>
      <trkpt lat="45.70082" lon="4.62128">
        <ele>701.2</ele>
        <time>2025-04-30T13:48:23Z</time>
      </trkpt>
      <trkpt lat="45.70082" lon="4.62127">
        <ele>701.4</ele>
        <time>2025-04-30T13:48:24Z</time>
      </trkpt>
      <trkpt lat="45.70081" lon="4.62127">
        <ele>701.6</ele>
        <time>2025-04-30T13:48:25Z</time>
      </trkpt>
      <trkpt lat="45.70081" lon="4.62126">
        <ele>701.6</ele>
        <time>2025-04-30T13:48:26Z</time>
      </trkpt>
      <trkpt lat="45.70081" lon="4.62125">
        <ele>701.8</ele>
        <time>2025-04-30T13:48:27Z</time>
      </trkpt>
      <trkpt lat="45.70081" lon="4.62125">
        <ele>702</ele>
        <time>2025-04-30T13:48:28Z</time>
      </trkpt>
      <trkpt lat="45.70081" lon="4.62124">
        <ele>702.2</ele>
        <time>2025-04-30T13:48:29Z</time>
      </trkpt>
      <trkpt lat="45.7008" lon="4.62124">
        <ele>702.4</ele>
        <time>2025-04-30T13:48:30Z</time>
      </trkpt>
      <trkpt lat="45.7008" lon="4.62123">
        <ele>702.6</ele>
        <time>2025-04-30T13:48:31Z</time>
      </trkpt>
      <trkpt lat="45.7008" lon="4.62122">
        <ele>702.8</ele>
        <time>2025-04-30T13:48:32Z</time>
      </trkpt>
      <trkpt lat="45.7008" lon="4.62122">
        <ele>703</ele>
        <time>2025-04-30T13:48:33Z</time>
      </trkpt>
      <trkpt lat="45.7008" lon="4.62122">
        <ele>703</ele>
        <time>2025-04-30T13:48:34Z</time>
      </trkpt>
      <trkpt lat="45.7008" lon="4.62122">
        <ele>703.2</ele>
        <time>2025-04-30T13:48:35Z</time>
      </trkpt>
      <trkpt lat="45.7008" lon="4.62122">
        <ele>703.4</ele>
        <time>2025-04-30T13:48:36Z</time>
      </trkpt>
      <trkpt lat="45.7008" lon="4.62122">
        <ele>703.6</ele>
        <time>2025-04-30T13:48:37Z</time>
      </trkpt>
      <trkpt lat="45.7008" lon="4.62122">
        <ele>703.6</ele>
        <time>2025-04-30T13:48:38Z</time>
      </trkpt>
      <trkpt lat="45.7008" lon="4.62122">
        <ele>703.8</ele>
        <time>2025-04-30T13:48:39Z</time>
      </trkpt>
      <trkpt lat="45.7008" lon="4.62122">
        <ele>704</ele>
        <time>2025-04-30T13:48:40Z</time>
      </trkpt>
      <trkpt lat="45.7008" lon="4.62122">
        <ele>704</ele>
        <time>2025-04-30T13:48:41Z</time>
      </trkpt>
      <trkpt lat="45.7008" lon="4.62122">
        <ele>704</ele>
        <time>2025-04-30T13:48:42Z</time>
      </trkpt>
      <trkpt lat="45.7008" lon="4.62122">
        <ele>704</ele>
        <time>2025-04-30T13:48:43Z</time>
      </trkpt>
      <trkpt lat="45.7008" lon="4.62122">
        <ele>704</ele>
        <time>2025-04-30T13:48:44Z</time>
      </trkpt>
      <trkpt lat="45.7008" lon="4.62122">
        <ele>704</ele>
        <time>2025-04-30T13:48:45Z</time>
      </trkpt>
      <trkpt lat="45.7008" lon="4.62122">
        <ele>704</ele>
        <time>2025-04-30T13:48:46Z</time>
      </trkpt>
      <trkpt lat="45.7008" lon="4.62122">
        <ele>704</ele>
        <time>2025-04-30T13:48:47Z</time>
      </trkpt>
      <trkpt lat="45.70079" lon="4.62121">
        <ele>704</ele>
        <time>2025-04-30T13:48:48Z</time>
      </trkpt>
      <trkpt lat="45.70079" lon="4.6212">
        <ele>704.2</ele>
        <time>2025-04-30T13:48:49Z</time>
      </trkpt>
      <trkpt lat="45.70079" lon="4.6212">
        <ele>704.2</ele>
        <time>2025-04-30T13:48:50Z</time>
      </trkpt>
      <trkpt lat="45.70078" lon="4.62119">
        <ele>704.2</ele>
        <time>2025-04-30T13:48:51Z</time>
      </trkpt>
      <trkpt lat="45.70078" lon="4.62119">
        <ele>704.4</ele>
        <time>2025-04-30T13:48:52Z</time>
      </trkpt>
      <trkpt lat="45.70078" lon="4.62119">
        <ele>704.4</ele>
        <time>2025-04-30T13:48:53Z</time>
      </trkpt>
      <trkpt lat="45.70078" lon="4.62119">
        <ele>704.6</ele>
        <time>2025-04-30T13:48:54Z</time>
      </trkpt>
      <trkpt lat="45.70078" lon="4.62119">
        <ele>704.6</ele>
        <time>2025-04-30T13:48:55Z</time>
      </trkpt>
      <trkpt lat="45.70078" lon="4.62119">
        <ele>704.8</ele>
        <time>2025-04-30T13:48:56Z</time>
      </trkpt>
      <trkpt lat="45.70078" lon="4.62119">
        <ele>704.8</ele>
        <time>2025-04-30T13:48:57Z</time>
      </trkpt>
      <trkpt lat="45.70078" lon="4.62119">
        <ele>705</ele>
        <time>2025-04-30T13:48:58Z</time>
      </trkpt>
      <trkpt lat="45.70078" lon="4.62119">
        <ele>705</ele>
        <time>2025-04-30T13:48:59Z</time>
      </trkpt>
      <trkpt lat="45.70078" lon="4.62119">
        <ele>705</ele>
        <time>2025-04-30T13:49:00Z</time>
      </trkpt>
      <trkpt lat="45.70078" lon="4.62119">
        <ele>705</ele>
        <time>2025-04-30T13:49:01Z</time>
      </trkpt>
      <trkpt lat="45.70078" lon="4.62119">
        <ele>705</ele>
        <time>2025-04-30T13:49:02Z</time>
      </trkpt>
      <trkpt lat="45.70078" lon="4.62119">
        <ele>705</ele>
        <time>2025-04-30T13:49:03Z</time>
      </trkpt>
      <trkpt lat="45.70077" lon="4.62118">
        <ele>705</ele>
        <time>2025-04-30T13:49:04Z</time>
      </trkpt>
      <trkpt lat="45.70077" lon="4.62117">
        <ele>705</ele>
        <time>2025-04-30T13:49:05Z</time>
      </trkpt>
      <trkpt lat="45.70077" lon="4.62115">
        <ele>705</ele>
        <time>2025-04-30T13:49:06Z</time>
      </trkpt>
      <trkpt lat="45.70076" lon="4.62112">
        <ele>705.2</ele>
        <time>2025-04-30T13:49:07Z</time>
      </trkpt>
      <trkpt lat="45.70075" lon="4.6211">
        <ele>705.6</ele>
        <time>2025-04-30T13:49:08Z</time>
      </trkpt>
      <trkpt lat="45.70074" lon="4.62106">
        <ele>705.6</ele>
        <time>2025-04-30T13:49:09Z</time>
      </trkpt>
      <trkpt lat="45.70072" lon="4.62103">
        <ele>705.8</ele>
        <time>2025-04-30T13:49:10Z</time>
      </trkpt>
      <trkpt lat="45.70071" lon="4.62099">
        <ele>706.2</ele>
        <time>2025-04-30T13:49:11Z</time>
      </trkpt>
      <trkpt lat="45.7007" lon="4.62095">
        <ele>706.6</ele>
        <time>2025-04-30T13:49:12Z</time>
      </trkpt>
      <trkpt lat="45.7007" lon="4.62091">
        <ele>707</ele>
        <time>2025-04-30T13:49:13Z</time>
      </trkpt>
      <trkpt lat="45.70071" lon="4.62088">
        <ele>707.8</ele>
        <time>2025-04-30T13:49:14Z</time>
      </trkpt>
      <trkpt lat="45.70072" lon="4.62086">
        <ele>708.2</ele>
        <time>2025-04-30T13:49:15Z</time>
      </trkpt>
      <trkpt lat="45.70073" lon="4.62084">
        <ele>708.6</ele>
        <time>2025-04-30T13:49:16Z</time>
      </trkpt>
      <trkpt lat="45.70075" lon="4.62081">
        <ele>709</ele>
        <time>2025-04-30T13:49:17Z</time>
      </trkpt>
      <trkpt lat="45.70075" lon="4.62078">
        <ele>709.2</ele>
        <time>2025-04-30T13:49:18Z</time>
      </trkpt>
      <trkpt lat="45.70075" lon="4.62074">
        <ele>709.6</ele>
        <time>2025-04-30T13:49:19Z</time>
      </trkpt>
      <trkpt lat="45.70075" lon="4.6207">
        <ele>710</ele>
        <time>2025-04-30T13:49:20Z</time>
      </trkpt>
      <trkpt lat="45.70073" lon="4.62068">
        <ele>710.4</ele>
        <time>2025-04-30T13:49:21Z</time>
      </trkpt>
      <trkpt lat="45.70071" lon="4.62066">
        <ele>710.8</ele>
        <time>2025-04-30T13:49:22Z</time>
      </trkpt>
      <trkpt lat="45.7007" lon="4.62065">
        <ele>711.4</ele>
        <time>2025-04-30T13:49:23Z</time>
      </trkpt>
      <trkpt lat="45.70069" lon="4.62062">
        <ele>711.6</ele>
        <time>2025-04-30T13:49:24Z</time>
      </trkpt>
      <trkpt lat="45.70069" lon="4.6206">
        <ele>712</ele>
        <time>2025-04-30T13:49:25Z</time>
      </trkpt>
      <trkpt lat="45.70067" lon="4.62058">
        <ele>712.2</ele>
        <time>2025-04-30T13:49:26Z</time>
      </trkpt>
      <trkpt lat="45.70066" lon="4.62056">
        <ele>712.8</ele>
        <time>2025-04-30T13:49:27Z</time>
      </trkpt>
      <trkpt lat="45.70065" lon="4.62054">
        <ele>713.2</ele>
        <time>2025-04-30T13:49:28Z</time>
      </trkpt>
      <trkpt lat="45.70064" lon="4.62051">
        <ele>713.8</ele>
        <time>2025-04-30T13:49:29Z</time>
      </trkpt>
      <trkpt lat="45.70063" lon="4.62049">
        <ele>714</ele>
        <time>2025-04-30T13:49:30Z</time>
      </trkpt>
      <trkpt lat="45.70063" lon="4.62046">
        <ele>714.4</ele>
        <time>2025-04-30T13:49:31Z</time>
      </trkpt>
      <trkpt lat="45.70063" lon="4.62044">
        <ele>714.8</ele>
        <time>2025-04-30T13:49:32Z</time>
      </trkpt>
      <trkpt lat="45.70063" lon="4.62041">
        <ele>715.2</ele>
        <time>2025-04-30T13:49:33Z</time>
      </trkpt>
      <trkpt lat="45.70063" lon="4.62038">
        <ele>715.6</ele>
        <time>2025-04-30T13:49:34Z</time>
      </trkpt>
      <trkpt lat="45.70064" lon="4.62036">
        <ele>715.8</ele>
        <time>2025-04-30T13:49:35Z</time>
      </trkpt>
      <trkpt lat="45.70064" lon="4.62034">
        <ele>716.2</ele>
        <time>2025-04-30T13:49:36Z</time>
      </trkpt>
      <trkpt lat="45.70065" lon="4.62031">
        <ele>716.6</ele>
        <time>2025-04-30T13:49:37Z</time>
      </trkpt>
      <trkpt lat="45.70066" lon="4.62029">
        <ele>717</ele>
        <time>2025-04-30T13:49:38Z</time>
      </trkpt>
      <trkpt lat="45.70067" lon="4.62028">
        <ele>717.4</ele>
        <time>2025-04-30T13:49:39Z</time>
      </trkpt>
      <trkpt lat="45.70068" lon="4.62027">
        <ele>717.6</ele>
        <time>2025-04-30T13:49:40Z</time>
      </trkpt>
      <trkpt lat="45.7007" lon="4.62025">
        <ele>718</ele>
        <time>2025-04-30T13:49:41Z</time>
      </trkpt>
      <trkpt lat="45.7007" lon="4.62023">
        <ele>718.4</ele>
        <time>2025-04-30T13:49:42Z</time>
      </trkpt>
      <trkpt lat="45.70071" lon="4.6202">
        <ele>718.6</ele>
        <time>2025-04-30T13:49:43Z</time>
      </trkpt>
      <trkpt lat="45.70072" lon="4.62018">
        <ele>719</ele>
        <time>2025-04-30T13:49:44Z</time>
      </trkpt>
      <trkpt lat="45.70073" lon="4.62016">
        <ele>719.2</ele>
        <time>2025-04-30T13:49:45Z</time>
      </trkpt>
      <trkpt lat="45.70074" lon="4.62014">
        <ele>719.6</ele>
        <time>2025-04-30T13:49:46Z</time>
      </trkpt>
      <trkpt lat="45.70074" lon="4.62012">
        <ele>719.8</ele>
        <time>2025-04-30T13:49:47Z</time>
      </trkpt>
      <trkpt lat="45.70075" lon="4.6201">
        <ele>720.2</ele>
        <time>2025-04-30T13:49:48Z</time>
      </trkpt>
      <trkpt lat="45.70074" lon="4.62008">
        <ele>720.4</ele>
        <time>2025-04-30T13:49:49Z</time>
      </trkpt>
      <trkpt lat="45.70073" lon="4.62007">
        <ele>720.6</ele>
        <time>2025-04-30T13:49:50Z</time>
      </trkpt>
      <trkpt lat="45.70072" lon="4.62006">
        <ele>720.8</ele>
        <time>2025-04-30T13:49:51Z</time>
      </trkpt>
      <trkpt lat="45.70071" lon="4.62004">
        <ele>720.8</ele>
        <time>2025-04-30T13:49:52Z</time>
      </trkpt>
      <trkpt lat="45.70069" lon="4.62003">
        <ele>721</ele>
        <time>2025-04-30T13:49:53Z</time>
      </trkpt>
      <trkpt lat="45.70068" lon="4.62001">
        <ele>721.2</ele>
        <time>2025-04-30T13:49:54Z</time>
      </trkpt>
      <trkpt lat="45.70067" lon="4.61999">
        <ele>721.2</ele>
        <time>2025-04-30T13:49:55Z</time>
      </trkpt>
      <trkpt lat="45.70066" lon="4.61998">
        <ele>721.2</ele>
        <time>2025-04-30T13:49:56Z</time>
      </trkpt>
      <trkpt lat="45.70066" lon="4.61998">
        <ele>721.2</ele>
        <time>2025-04-30T13:49:57Z</time>
      </trkpt>
      <trkpt lat="45.70066" lon="4.61998">
        <ele>721.2</ele>
        <time>2025-04-30T13:49:58Z</time>
      </trkpt>
      <trkpt lat="45.70066" lon="4.61998">
        <ele>721.2</ele>
        <time>2025-04-30T13:49:59Z</time>
      </trkpt>
      <trkpt lat="45.70066" lon="4.61998">
        <ele>721.4</ele>
        <time>2025-04-30T13:50:00Z</time>
      </trkpt>
      <trkpt lat="45.70066" lon="4.61998">
        <ele>721.4</ele>
        <time>2025-04-30T13:50:01Z</time>
      </trkpt>
      <trkpt lat="45.70066" lon="4.61998">
        <ele>721.4</ele>
        <time>2025-04-30T13:50:02Z</time>
      </trkpt>
      <trkpt lat="45.70066" lon="4.61998">
        <ele>721.4</ele>
        <time>2025-04-30T13:50:03Z</time>
      </trkpt>
      <trkpt lat="45.70066" lon="4.61998">
        <ele>721.4</ele>
        <time>2025-04-30T13:50:04Z</time>
      </trkpt>
      <trkpt lat="45.70066" lon="4.61998">
        <ele>721.4</ele>
        <time>2025-04-30T13:50:05Z</time>
      </trkpt>
      <trkpt lat="45.70066" lon="4.61998">
        <ele>721.4</ele>
        <time>2025-04-30T13:50:06Z</time>
      </trkpt>
      <trkpt lat="45.70066" lon="4.61998">
        <ele>721.6</ele>
        <time>2025-04-30T13:50:07Z</time>
      </trkpt>
      <trkpt lat="45.70066" lon="4.61998">
        <ele>721.6</ele>
        <time>2025-04-30T13:50:08Z</time>
      </trkpt>
      <trkpt lat="45.70066" lon="4.61998">
        <ele>721.6</ele>
        <time>2025-04-30T13:50:09Z</time>
      </trkpt>
      <trkpt lat="45.70066" lon="4.61998">
        <ele>721.6</ele>
        <time>2025-04-30T13:50:10Z</time>
      </trkpt>
      <trkpt lat="45.70066" lon="4.61998">
        <ele>721.6</ele>
        <time>2025-04-30T13:50:11Z</time>
      </trkpt>
      <trkpt lat="45.70066" lon="4.61998">
        <ele>721.6</ele>
        <time>2025-04-30T13:50:12Z</time>
      </trkpt>
      <trkpt lat="45.70066" lon="4.61998">
        <ele>721.6</ele>
        <time>2025-04-30T13:50:13Z</time>
      </trkpt>
      <trkpt lat="45.70066" lon="4.61998">
        <ele>721.4</ele>
        <time>2025-04-30T13:50:14Z</time>
      </trkpt>
      <trkpt lat="45.70066" lon="4.61998">
        <ele>721.4</ele>
        <time>2025-04-30T13:50:15Z</time>
      </trkpt>
      <trkpt lat="45.70066" lon="4.61998">
        <ele>721.4</ele>
        <time>2025-04-30T13:50:16Z</time>
      </trkpt>
      <trkpt lat="45.70066" lon="4.61998">
        <ele>721.4</ele>
        <time>2025-04-30T13:50:17Z</time>
      </trkpt>
      <trkpt lat="45.70066" lon="4.61998">
        <ele>721.4</ele>
        <time>2025-04-30T13:50:18Z</time>
      </trkpt>
      <trkpt lat="45.70066" lon="4.61998">
        <ele>721.4</ele>
        <time>2025-04-30T13:50:19Z</time>
      </trkpt>
      <trkpt lat="45.70066" lon="4.61998">
        <ele>721.6</ele>
        <time>2025-04-30T13:50:20Z</time>
      </trkpt>
      <trkpt lat="45.70066" lon="4.61998">
        <ele>721.6</ele>
        <time>2025-04-30T13:50:21Z</time>
      </trkpt>
      <trkpt lat="45.70066" lon="4.61998">
        <ele>721.6</ele>
        <time>2025-04-30T13:50:22Z</time>
      </trkpt>
      <trkpt lat="45.70066" lon="4.61998">
        <ele>721.4</ele>
        <time>2025-04-30T13:50:23Z</time>
      </trkpt>
      <trkpt lat="45.70066" lon="4.61998">
        <ele>721.4</ele>
        <time>2025-04-30T13:50:24Z</time>
      </trkpt>
      <trkpt lat="45.70066" lon="4.61998">
        <ele>721.4</ele>
        <time>2025-04-30T13:50:25Z</time>
      </trkpt>
      <trkpt lat="45.70066" lon="4.61998">
        <ele>721.4</ele>
        <time>2025-04-30T13:50:26Z</time>
      </trkpt>
      <trkpt lat="45.70066" lon="4.61998">
        <ele>721.4</ele>
        <time>2025-04-30T13:50:27Z</time>
      </trkpt>
      <trkpt lat="45.70066" lon="4.61998">
        <ele>721.4</ele>
        <time>2025-04-30T13:50:28Z</time>
      </trkpt>
      <trkpt lat="45.70066" lon="4.61998">
        <ele>721.6</ele>
        <time>2025-04-30T13:50:29Z</time>
      </trkpt>
      <trkpt lat="45.70066" lon="4.61998">
        <ele>721.6</ele>
        <time>2025-04-30T13:50:30Z</time>
      </trkpt>
      <trkpt lat="45.70066" lon="4.61998">
        <ele>721.6</ele>
        <time>2025-04-30T13:50:31Z</time>
      </trkpt>
      <trkpt lat="45.70066" lon="4.61998">
        <ele>721.6</ele>
        <time>2025-04-30T13:50:32Z</time>
      </trkpt>
      <trkpt lat="45.70066" lon="4.61998">
        <ele>721.6</ele>
        <time>2025-04-30T13:50:33Z</time>
      </trkpt>
      <trkpt lat="45.70066" lon="4.61998">
        <ele>721.6</ele>
        <time>2025-04-30T13:50:34Z</time>
      </trkpt>
      <trkpt lat="45.70066" lon="4.61998">
        <ele>721.6</ele>
        <time>2025-04-30T13:50:35Z</time>
      </trkpt>
      <trkpt lat="45.70066" lon="4.61997">
        <ele>721.6</ele>
        <time>2025-04-30T13:50:36Z</time>
      </trkpt>
      <trkpt lat="45.70065" lon="4.61994">
        <ele>721.4</ele>
        <time>2025-04-30T13:50:37Z</time>
      </trkpt>
      <trkpt lat="45.70063" lon="4.61991">
        <ele>721.4</ele>
        <time>2025-04-30T13:50:38Z</time>
      </trkpt>
      <trkpt lat="45.70061" lon="4.61988">
        <ele>721.4</ele>
        <time>2025-04-30T13:50:39Z</time>
      </trkpt>
      <trkpt lat="45.70058" lon="4.61984">
        <ele>721.2</ele>
        <time>2025-04-30T13:50:40Z</time>
      </trkpt>
      <trkpt lat="45.70056" lon="4.61982">
        <ele>721</ele>
        <time>2025-04-30T13:50:41Z</time>
      </trkpt>
      <trkpt lat="45.70054" lon="4.61977">
        <ele>721</ele>
        <time>2025-04-30T13:50:42Z</time>
      </trkpt>
      <trkpt lat="45.70051" lon="4.61973">
        <ele>721</ele>
        <time>2025-04-30T13:50:43Z</time>
      </trkpt>
      <trkpt lat="45.70049" lon="4.61969">
        <ele>721</ele>
        <time>2025-04-30T13:50:44Z</time>
      </trkpt>
      <trkpt lat="45.70046" lon="4.61965">
        <ele>721.2</ele>
        <time>2025-04-30T13:50:45Z</time>
      </trkpt>
      <trkpt lat="45.70044" lon="4.6196">
        <ele>721.4</ele>
        <time>2025-04-30T13:50:46Z</time>
      </trkpt>
      <trkpt lat="45.70041" lon="4.61956">
        <ele>721.6</ele>
        <time>2025-04-30T13:50:47Z</time>
      </trkpt>
      <trkpt lat="45.70039" lon="4.61953">
        <ele>721.8</ele>
        <time>2025-04-30T13:50:48Z</time>
      </trkpt>
      <trkpt lat="45.70037" lon="4.6195">
        <ele>722.2</ele>
        <time>2025-04-30T13:50:49Z</time>
      </trkpt>
      <trkpt lat="45.70034" lon="4.61946">
        <ele>722.4</ele>
        <time>2025-04-30T13:50:50Z</time>
      </trkpt>
      <trkpt lat="45.70032" lon="4.61943">
        <ele>722.6</ele>
        <time>2025-04-30T13:50:51Z</time>
      </trkpt>
      <trkpt lat="45.7003" lon="4.6194">
        <ele>723</ele>
        <time>2025-04-30T13:50:52Z</time>
      </trkpt>
      <trkpt lat="45.70028" lon="4.61936">
        <ele>723.2</ele>
        <time>2025-04-30T13:50:53Z</time>
      </trkpt>
      <trkpt lat="45.70026" lon="4.61933">
        <ele>723.4</ele>
        <time>2025-04-30T13:50:54Z</time>
      </trkpt>
      <trkpt lat="45.70024" lon="4.6193">
        <ele>723.6</ele>
        <time>2025-04-30T13:50:55Z</time>
      </trkpt>
      <trkpt lat="45.70022" lon="4.61927">
        <ele>723.8</ele>
        <time>2025-04-30T13:50:56Z</time>
      </trkpt>
      <trkpt lat="45.7002" lon="4.61924">
        <ele>724.4</ele>
        <time>2025-04-30T13:50:57Z</time>
      </trkpt>
      <trkpt lat="45.70018" lon="4.61921">
        <ele>724.6</ele>
        <time>2025-04-30T13:50:58Z</time>
      </trkpt>
      <trkpt lat="45.70015" lon="4.61919">
        <ele>724.6</ele>
        <time>2025-04-30T13:50:59Z</time>
      </trkpt>
      <trkpt lat="45.70013" lon="4.61918">
        <ele>724.8</ele>
        <time>2025-04-30T13:51:00Z</time>
      </trkpt>
      <trkpt lat="45.7001" lon="4.61918">
        <ele>724.8</ele>
        <time>2025-04-30T13:51:01Z</time>
      </trkpt>
      <trkpt lat="45.70007" lon="4.61918">
        <ele>724.8</ele>
        <time>2025-04-30T13:51:02Z</time>
      </trkpt>
      <trkpt lat="45.70005" lon="4.61919">
        <ele>724.8</ele>
        <time>2025-04-30T13:51:03Z</time>
      </trkpt>
      <trkpt lat="45.70003" lon="4.61921">
        <ele>724.6</ele>
        <time>2025-04-30T13:51:04Z</time>
      </trkpt>
      <trkpt lat="45.7" lon="4.61922">
        <ele>724.6</ele>
        <time>2025-04-30T13:51:05Z</time>
      </trkpt>
      <trkpt lat="45.69997" lon="4.61923">
        <ele>724.4</ele>
        <time>2025-04-30T13:51:06Z</time>
      </trkpt>
      <trkpt lat="45.69993" lon="4.61923">
        <ele>724.2</ele>
        <time>2025-04-30T13:51:07Z</time>
      </trkpt>
      <trkpt lat="45.6999" lon="4.61921">
        <ele>724</ele>
        <time>2025-04-30T13:51:08Z</time>
      </trkpt>
      <trkpt lat="45.69988" lon="4.61918">
        <ele>723.6</ele>
        <time>2025-04-30T13:51:09Z</time>
      </trkpt>
      <trkpt lat="45.69986" lon="4.61915">
        <ele>723.2</ele>
        <time>2025-04-30T13:51:10Z</time>
      </trkpt>
      <trkpt lat="45.69984" lon="4.61912">
        <ele>723</ele>
        <time>2025-04-30T13:51:11Z</time>
      </trkpt>
      <trkpt lat="45.69982" lon="4.61908">
        <ele>723</ele>
        <time>2025-04-30T13:51:12Z</time>
      </trkpt>
      <trkpt lat="45.6998" lon="4.61904">
        <ele>723</ele>
        <time>2025-04-30T13:51:13Z</time>
      </trkpt>
      <trkpt lat="45.69978" lon="4.619">
        <ele>723</ele>
        <time>2025-04-30T13:51:14Z</time>
      </trkpt>
      <trkpt lat="45.69976" lon="4.61897">
        <ele>723</ele>
        <time>2025-04-30T13:51:15Z</time>
      </trkpt>
      <trkpt lat="45.69974" lon="4.61893">
        <ele>723.2</ele>
        <time>2025-04-30T13:51:16Z</time>
      </trkpt>
      <trkpt lat="45.69972" lon="4.6189">
        <ele>723.2</ele>
        <time>2025-04-30T13:51:17Z</time>
      </trkpt>
      <trkpt lat="45.6997" lon="4.61886">
        <ele>723.2</ele>
        <time>2025-04-30T13:51:18Z</time>
      </trkpt>
      <trkpt lat="45.69968" lon="4.61881">
        <ele>723.2</ele>
        <time>2025-04-30T13:51:19Z</time>
      </trkpt>
      <trkpt lat="45.69966" lon="4.61877">
        <ele>723.2</ele>
        <time>2025-04-30T13:51:20Z</time>
      </trkpt>
      <trkpt lat="45.69963" lon="4.61873">
        <ele>723.2</ele>
        <time>2025-04-30T13:51:21Z</time>
      </trkpt>
      <trkpt lat="45.69961" lon="4.61869">
        <ele>723.2</ele>
        <time>2025-04-30T13:51:22Z</time>
      </trkpt>
      <trkpt lat="45.69959" lon="4.61865">
        <ele>723.2</ele>
        <time>2025-04-30T13:51:23Z</time>
      </trkpt>
      <trkpt lat="45.69956" lon="4.6186">
        <ele>723</ele>
        <time>2025-04-30T13:51:24Z</time>
      </trkpt>
      <trkpt lat="45.69953" lon="4.61855">
        <ele>723</ele>
        <time>2025-04-30T13:51:25Z</time>
      </trkpt>
      <trkpt lat="45.69951" lon="4.61851">
        <ele>722.8</ele>
        <time>2025-04-30T13:51:26Z</time>
      </trkpt>
      <trkpt lat="45.69949" lon="4.61847">
        <ele>722.8</ele>
        <time>2025-04-30T13:51:27Z</time>
      </trkpt>
      <trkpt lat="45.69946" lon="4.6184">
        <ele>722.6</ele>
        <time>2025-04-30T13:51:28Z</time>
      </trkpt>
      <trkpt lat="45.69944" lon="4.61835">
        <ele>722.6</ele>
        <time>2025-04-30T13:51:29Z</time>
      </trkpt>
      <trkpt lat="45.69942" lon="4.61829">
        <ele>722.6</ele>
        <time>2025-04-30T13:51:30Z</time>
      </trkpt>
      <trkpt lat="45.6994" lon="4.61823">
        <ele>722.6</ele>
        <time>2025-04-30T13:51:31Z</time>
      </trkpt>
      <trkpt lat="45.69939" lon="4.61817">
        <ele>722.8</ele>
        <time>2025-04-30T13:51:32Z</time>
      </trkpt>
      <trkpt lat="45.69937" lon="4.61812">
        <ele>722.8</ele>
        <time>2025-04-30T13:51:33Z</time>
      </trkpt>
      <trkpt lat="45.69936" lon="4.61807">
        <ele>723.2</ele>
        <time>2025-04-30T13:51:34Z</time>
      </trkpt>
      <trkpt lat="45.69935" lon="4.61803">
        <ele>723.4</ele>
        <time>2025-04-30T13:51:35Z</time>
      </trkpt>
      <trkpt lat="45.69934" lon="4.61799">
        <ele>724</ele>
        <time>2025-04-30T13:51:36Z</time>
      </trkpt>
      <trkpt lat="45.69932" lon="4.61795">
        <ele>724.6</ele>
        <time>2025-04-30T13:51:37Z</time>
      </trkpt>
      <trkpt lat="45.69931" lon="4.6179">
        <ele>725</ele>
        <time>2025-04-30T13:51:38Z</time>
      </trkpt>
      <trkpt lat="45.69929" lon="4.61787">
        <ele>725.6</ele>
        <time>2025-04-30T13:51:39Z</time>
      </trkpt>
      <trkpt lat="45.69926" lon="4.61783">
        <ele>726.2</ele>
        <time>2025-04-30T13:51:40Z</time>
      </trkpt>
      <trkpt lat="45.69924" lon="4.6178">
        <ele>726.4</ele>
        <time>2025-04-30T13:51:41Z</time>
      </trkpt>
      <trkpt lat="45.69922" lon="4.61777">
        <ele>726.4</ele>
        <time>2025-04-30T13:51:42Z</time>
      </trkpt>
      <trkpt lat="45.69919" lon="4.61774">
        <ele>726.6</ele>
        <time>2025-04-30T13:51:43Z</time>
      </trkpt>
      <trkpt lat="45.69917" lon="4.61772">
        <ele>726.6</ele>
        <time>2025-04-30T13:51:44Z</time>
      </trkpt>
      <trkpt lat="45.69915" lon="4.6177">
        <ele>726.6</ele>
        <time>2025-04-30T13:51:45Z</time>
      </trkpt>
      <trkpt lat="45.69913" lon="4.61768">
        <ele>726.8</ele>
        <time>2025-04-30T13:51:46Z</time>
      </trkpt>
      <trkpt lat="45.6991" lon="4.61766">
        <ele>726.8</ele>
        <time>2025-04-30T13:51:47Z</time>
      </trkpt>
      <trkpt lat="45.69908" lon="4.61764">
        <ele>726.6</ele>
        <time>2025-04-30T13:51:48Z</time>
      </trkpt>
      <trkpt lat="45.69905" lon="4.61762">
        <ele>726.6</ele>
        <time>2025-04-30T13:51:49Z</time>
      </trkpt>
      <trkpt lat="45.69902" lon="4.6176">
        <ele>726.4</ele>
        <time>2025-04-30T13:51:50Z</time>
      </trkpt>
      <trkpt lat="45.69899" lon="4.61757">
        <ele>726.2</ele>
        <time>2025-04-30T13:51:51Z</time>
      </trkpt>
      <trkpt lat="45.69896" lon="4.61754">
        <ele>726</ele>
        <time>2025-04-30T13:51:52Z</time>
      </trkpt>
      <trkpt lat="45.69892" lon="4.61751">
        <ele>726</ele>
        <time>2025-04-30T13:51:53Z</time>
      </trkpt>
      <trkpt lat="45.69888" lon="4.61749">
        <ele>725.6</ele>
        <time>2025-04-30T13:51:54Z</time>
      </trkpt>
      <trkpt lat="45.69884" lon="4.61746">
        <ele>725.4</ele>
        <time>2025-04-30T13:51:55Z</time>
      </trkpt>
      <trkpt lat="45.69881" lon="4.61744">
        <ele>725</ele>
        <time>2025-04-30T13:51:56Z</time>
      </trkpt>
      <trkpt lat="45.69876" lon="4.61741">
        <ele>724.8</ele>
        <time>2025-04-30T13:51:57Z</time>
      </trkpt>
      <trkpt lat="45.69872" lon="4.61738">
        <ele>724.6</ele>
        <time>2025-04-30T13:51:58Z</time>
      </trkpt>
      <trkpt lat="45.69868" lon="4.61735">
        <ele>724.4</ele>
        <time>2025-04-30T13:51:59Z</time>
      </trkpt>
      <trkpt lat="45.69864" lon="4.61731">
        <ele>724.4</ele>
        <time>2025-04-30T13:52:00Z</time>
      </trkpt>
      <trkpt lat="45.6986" lon="4.61728">
        <ele>724</ele>
        <time>2025-04-30T13:52:01Z</time>
      </trkpt>
      <trkpt lat="45.69855" lon="4.61725">
        <ele>723.8</ele>
        <time>2025-04-30T13:52:02Z</time>
      </trkpt>
      <trkpt lat="45.69852" lon="4.61722">
        <ele>723.4</ele>
        <time>2025-04-30T13:52:03Z</time>
      </trkpt>
      <trkpt lat="45.69848" lon="4.61719">
        <ele>723</ele>
        <time>2025-04-30T13:52:04Z</time>
      </trkpt>
      <trkpt lat="45.69844" lon="4.61716">
        <ele>722.8</ele>
        <time>2025-04-30T13:52:05Z</time>
      </trkpt>
      <trkpt lat="45.69841" lon="4.61711">
        <ele>722.4</ele>
        <time>2025-04-30T13:52:06Z</time>
      </trkpt>
      <trkpt lat="45.69837" lon="4.61707">
        <ele>722.2</ele>
        <time>2025-04-30T13:52:07Z</time>
      </trkpt>
      <trkpt lat="45.69834" lon="4.61703">
        <ele>721.6</ele>
        <time>2025-04-30T13:52:08Z</time>
      </trkpt>
      <trkpt lat="45.69831" lon="4.61699">
        <ele>721.4</ele>
        <time>2025-04-30T13:52:09Z</time>
      </trkpt>
      <trkpt lat="45.69828" lon="4.61695">
        <ele>720.8</ele>
        <time>2025-04-30T13:52:10Z</time>
      </trkpt>
      <trkpt lat="45.69826" lon="4.61691">
        <ele>720.6</ele>
        <time>2025-04-30T13:52:11Z</time>
      </trkpt>
      <trkpt lat="45.69823" lon="4.61687">
        <ele>720.4</ele>
        <time>2025-04-30T13:52:12Z</time>
      </trkpt>
      <trkpt lat="45.69821" lon="4.61682">
        <ele>720.2</ele>
        <time>2025-04-30T13:52:13Z</time>
      </trkpt>
      <trkpt lat="45.69819" lon="4.61676">
        <ele>719.6</ele>
        <time>2025-04-30T13:52:14Z</time>
      </trkpt>
      <trkpt lat="45.69817" lon="4.6167">
        <ele>719</ele>
        <time>2025-04-30T13:52:15Z</time>
      </trkpt>
      <trkpt lat="45.69814" lon="4.61663">
        <ele>718.8</ele>
        <time>2025-04-30T13:52:16Z</time>
      </trkpt>
      <trkpt lat="45.69812" lon="4.61656">
        <ele>718.4</ele>
        <time>2025-04-30T13:52:17Z</time>
      </trkpt>
      <trkpt lat="45.6981" lon="4.61649">
        <ele>717.2</ele>
        <time>2025-04-30T13:52:18Z</time>
      </trkpt>
      <trkpt lat="45.69808" lon="4.61641">
        <ele>716.6</ele>
        <time>2025-04-30T13:52:19Z</time>
      </trkpt>
      <trkpt lat="45.69806" lon="4.61634">
        <ele>716.4</ele>
        <time>2025-04-30T13:52:20Z</time>
      </trkpt>
      <trkpt lat="45.69805" lon="4.61626">
        <ele>716</ele>
        <time>2025-04-30T13:52:21Z</time>
      </trkpt>
      <trkpt lat="45.69804" lon="4.61619">
        <ele>715.8</ele>
        <time>2025-04-30T13:52:22Z</time>
      </trkpt>
      <trkpt lat="45.69802" lon="4.61611">
        <ele>715.8</ele>
        <time>2025-04-30T13:52:23Z</time>
      </trkpt>
      <trkpt lat="45.69801" lon="4.61604">
        <ele>715.2</ele>
        <time>2025-04-30T13:52:24Z</time>
      </trkpt>
      <trkpt lat="45.69801" lon="4.61597">
        <ele>714.8</ele>
        <time>2025-04-30T13:52:25Z</time>
      </trkpt>
      <trkpt lat="45.698" lon="4.6159">
        <ele>714.8</ele>
        <time>2025-04-30T13:52:26Z</time>
      </trkpt>
      <trkpt lat="45.698" lon="4.61582">
        <ele>714.8</ele>
        <time>2025-04-30T13:52:27Z</time>
      </trkpt>
      <trkpt lat="45.698" lon="4.61575">
        <ele>714.8</ele>
        <time>2025-04-30T13:52:28Z</time>
      </trkpt>
      <trkpt lat="45.698" lon="4.61567">
        <ele>714.8</ele>
        <time>2025-04-30T13:52:29Z</time>
      </trkpt>
      <trkpt lat="45.69801" lon="4.61559">
        <ele>714.8</ele>
        <time>2025-04-30T13:52:30Z</time>
      </trkpt>
      <trkpt lat="45.69801" lon="4.61552">
        <ele>714.8</ele>
        <time>2025-04-30T13:52:31Z</time>
      </trkpt>
      <trkpt lat="45.69802" lon="4.61545">
        <ele>715</ele>
        <time>2025-04-30T13:52:32Z</time>
      </trkpt>
      <trkpt lat="45.69803" lon="4.61538">
        <ele>715</ele>
        <time>2025-04-30T13:52:33Z</time>
      </trkpt>
      <trkpt lat="45.69804" lon="4.61531">
        <ele>715.2</ele>
        <time>2025-04-30T13:52:34Z</time>
      </trkpt>
      <trkpt lat="45.69804" lon="4.61525">
        <ele>715.2</ele>
        <time>2025-04-30T13:52:35Z</time>
      </trkpt>
      <trkpt lat="45.69805" lon="4.61519">
        <ele>715.4</ele>
        <time>2025-04-30T13:52:36Z</time>
      </trkpt>
      <trkpt lat="45.69806" lon="4.61513">
        <ele>715.6</ele>
        <time>2025-04-30T13:52:37Z</time>
      </trkpt>
      <trkpt lat="45.69806" lon="4.61508">
        <ele>715.8</ele>
        <time>2025-04-30T13:52:38Z</time>
      </trkpt>
      <trkpt lat="45.69805" lon="4.61502">
        <ele>716.2</ele>
        <time>2025-04-30T13:52:39Z</time>
      </trkpt>
      <trkpt lat="45.69805" lon="4.61496">
        <ele>716.4</ele>
        <time>2025-04-30T13:52:40Z</time>
      </trkpt>
      <trkpt lat="45.69805" lon="4.6149">
        <ele>716.6</ele>
        <time>2025-04-30T13:52:41Z</time>
      </trkpt>
      <trkpt lat="45.69805" lon="4.61484">
        <ele>716.6</ele>
        <time>2025-04-30T13:52:42Z</time>
      </trkpt>
      <trkpt lat="45.69805" lon="4.61478">
        <ele>716.6</ele>
        <time>2025-04-30T13:52:43Z</time>
      </trkpt>
      <trkpt lat="45.69805" lon="4.61472">
        <ele>716.8</ele>
        <time>2025-04-30T13:52:44Z</time>
      </trkpt>
      <trkpt lat="45.69805" lon="4.61465">
        <ele>716.8</ele>
        <time>2025-04-30T13:52:45Z</time>
      </trkpt>
      <trkpt lat="45.69804" lon="4.61459">
        <ele>717</ele>
        <time>2025-04-30T13:52:46Z</time>
      </trkpt>
      <trkpt lat="45.69804" lon="4.61454">
        <ele>717.2</ele>
        <time>2025-04-30T13:52:47Z</time>
      </trkpt>
      <trkpt lat="45.69803" lon="4.61447">
        <ele>717.2</ele>
        <time>2025-04-30T13:52:48Z</time>
      </trkpt>
      <trkpt lat="45.69802" lon="4.61441">
        <ele>717.2</ele>
        <time>2025-04-30T13:52:49Z</time>
      </trkpt>
      <trkpt lat="45.69802" lon="4.61435">
        <ele>717.4</ele>
        <time>2025-04-30T13:52:50Z</time>
      </trkpt>
      <trkpt lat="45.69801" lon="4.61429">
        <ele>717.4</ele>
        <time>2025-04-30T13:52:51Z</time>
      </trkpt>
      <trkpt lat="45.698" lon="4.61424">
        <ele>717.4</ele>
        <time>2025-04-30T13:52:52Z</time>
      </trkpt>
      <trkpt lat="45.698" lon="4.61419">
        <ele>717.4</ele>
        <time>2025-04-30T13:52:53Z</time>
      </trkpt>
      <trkpt lat="45.69798" lon="4.61412">
        <ele>717.4</ele>
        <time>2025-04-30T13:52:54Z</time>
      </trkpt>
      <trkpt lat="45.69797" lon="4.61405">
        <ele>717.4</ele>
        <time>2025-04-30T13:52:55Z</time>
      </trkpt>
      <trkpt lat="45.69795" lon="4.61398">
        <ele>717.4</ele>
        <time>2025-04-30T13:52:56Z</time>
      </trkpt>
      <trkpt lat="45.69794" lon="4.61391">
        <ele>717.2</ele>
        <time>2025-04-30T13:52:57Z</time>
      </trkpt>
      <trkpt lat="45.69793" lon="4.61385">
        <ele>717</ele>
        <time>2025-04-30T13:52:58Z</time>
      </trkpt>
      <trkpt lat="45.69792" lon="4.61379">
        <ele>716.8</ele>
        <time>2025-04-30T13:52:59Z</time>
      </trkpt>
      <trkpt lat="45.6979" lon="4.61373">
        <ele>716.6</ele>
        <time>2025-04-30T13:53:00Z</time>
      </trkpt>
      <trkpt lat="45.6979" lon="4.61365">
        <ele>716.4</ele>
        <time>2025-04-30T13:53:01Z</time>
      </trkpt>
      <trkpt lat="45.69789" lon="4.61358">
        <ele>716</ele>
        <time>2025-04-30T13:53:02Z</time>
      </trkpt>
      <trkpt lat="45.69789" lon="4.6135">
        <ele>715.6</ele>
        <time>2025-04-30T13:53:03Z</time>
      </trkpt>
      <trkpt lat="45.6979" lon="4.61342">
        <ele>715</ele>
        <time>2025-04-30T13:53:04Z</time>
      </trkpt>
      <trkpt lat="45.6979" lon="4.61335">
        <ele>714.8</ele>
        <time>2025-04-30T13:53:05Z</time>
      </trkpt>
      <trkpt lat="45.69791" lon="4.61329">
        <ele>714.6</ele>
        <time>2025-04-30T13:53:06Z</time>
      </trkpt>
      <trkpt lat="45.69792" lon="4.61323">
        <ele>714.4</ele>
        <time>2025-04-30T13:53:07Z</time>
      </trkpt>
      <trkpt lat="45.69794" lon="4.61316">
        <ele>714.2</ele>
        <time>2025-04-30T13:53:08Z</time>
      </trkpt>
      <trkpt lat="45.69795" lon="4.6131">
        <ele>714</ele>
        <time>2025-04-30T13:53:09Z</time>
      </trkpt>
      <trkpt lat="45.69798" lon="4.61304">
        <ele>713.8</ele>
        <time>2025-04-30T13:53:10Z</time>
      </trkpt>
      <trkpt lat="45.698" lon="4.61299">
        <ele>713.6</ele>
        <time>2025-04-30T13:53:11Z</time>
      </trkpt>
      <trkpt lat="45.69801" lon="4.61294">
        <ele>713.4</ele>
        <time>2025-04-30T13:53:12Z</time>
      </trkpt>
      <trkpt lat="45.69804" lon="4.6129">
        <ele>713.4</ele>
        <time>2025-04-30T13:53:13Z</time>
      </trkpt>
      <trkpt lat="45.69806" lon="4.61287">
        <ele>713.2</ele>
        <time>2025-04-30T13:53:14Z</time>
      </trkpt>
      <trkpt lat="45.6981" lon="4.61282">
        <ele>712.8</ele>
        <time>2025-04-30T13:53:15Z</time>
      </trkpt>
      <trkpt lat="45.69813" lon="4.61278">
        <ele>712.6</ele>
        <time>2025-04-30T13:53:16Z</time>
      </trkpt>
      <trkpt lat="45.69816" lon="4.61275">
        <ele>712.4</ele>
        <time>2025-04-30T13:53:17Z</time>
      </trkpt>
      <trkpt lat="45.69819" lon="4.61271">
        <ele>712</ele>
        <time>2025-04-30T13:53:18Z</time>
      </trkpt>
      <trkpt lat="45.69822" lon="4.61267">
        <ele>711.8</ele>
        <time>2025-04-30T13:53:19Z</time>
      </trkpt>
      <trkpt lat="45.69826" lon="4.61263">
        <ele>711.6</ele>
        <time>2025-04-30T13:53:20Z</time>
      </trkpt>
      <trkpt lat="45.69829" lon="4.61259">
        <ele>711.2</ele>
        <time>2025-04-30T13:53:21Z</time>
      </trkpt>
      <trkpt lat="45.69833" lon="4.61256">
        <ele>711</ele>
        <time>2025-04-30T13:53:22Z</time>
      </trkpt>
      <trkpt lat="45.69837" lon="4.61253">
        <ele>711</ele>
        <time>2025-04-30T13:53:23Z</time>
      </trkpt>
      <trkpt lat="45.6984" lon="4.61249">
        <ele>711</ele>
        <time>2025-04-30T13:53:24Z</time>
      </trkpt>
      <trkpt lat="45.69844" lon="4.61246">
        <ele>711</ele>
        <time>2025-04-30T13:53:25Z</time>
      </trkpt>
      <trkpt lat="45.69847" lon="4.61243">
        <ele>711.2</ele>
        <time>2025-04-30T13:53:26Z</time>
      </trkpt>
      <trkpt lat="45.69851" lon="4.61241">
        <ele>711.6</ele>
        <time>2025-04-30T13:53:27Z</time>
      </trkpt>
      <trkpt lat="45.69854" lon="4.61239">
        <ele>711.6</ele>
        <time>2025-04-30T13:53:28Z</time>
      </trkpt>
      <trkpt lat="45.69857" lon="4.61236">
        <ele>711.8</ele>
        <time>2025-04-30T13:53:29Z</time>
      </trkpt>
      <trkpt lat="45.6986" lon="4.61232">
        <ele>712.2</ele>
        <time>2025-04-30T13:53:30Z</time>
      </trkpt>
      <trkpt lat="45.69863" lon="4.61228">
        <ele>712.6</ele>
        <time>2025-04-30T13:53:31Z</time>
      </trkpt>
      <trkpt lat="45.69867" lon="4.61224">
        <ele>712.8</ele>
        <time>2025-04-30T13:53:32Z</time>
      </trkpt>
      <trkpt lat="45.6987" lon="4.6122">
        <ele>713</ele>
        <time>2025-04-30T13:53:33Z</time>
      </trkpt>
      <trkpt lat="45.69874" lon="4.61215">
        <ele>713</ele>
        <time>2025-04-30T13:53:34Z</time>
      </trkpt>
      <trkpt lat="45.69877" lon="4.61211">
        <ele>713</ele>
        <time>2025-04-30T13:53:35Z</time>
      </trkpt>
      <trkpt lat="45.69881" lon="4.61205">
        <ele>713</ele>
        <time>2025-04-30T13:53:36Z</time>
      </trkpt>
      <trkpt lat="45.69884" lon="4.612">
        <ele>713</ele>
        <time>2025-04-30T13:53:37Z</time>
      </trkpt>
      <trkpt lat="45.69888" lon="4.61195">
        <ele>713</ele>
        <time>2025-04-30T13:53:38Z</time>
      </trkpt>
      <trkpt lat="45.69892" lon="4.61191">
        <ele>713.2</ele>
        <time>2025-04-30T13:53:39Z</time>
      </trkpt>
      <trkpt lat="45.69896" lon="4.61187">
        <ele>713.2</ele>
        <time>2025-04-30T13:53:40Z</time>
      </trkpt>
      <trkpt lat="45.69899" lon="4.61183">
        <ele>713.2</ele>
        <time>2025-04-30T13:53:41Z</time>
      </trkpt>
      <trkpt lat="45.69902" lon="4.61179">
        <ele>713.2</ele>
        <time>2025-04-30T13:53:42Z</time>
      </trkpt>
      <trkpt lat="45.69905" lon="4.61175">
        <ele>713.4</ele>
        <time>2025-04-30T13:53:43Z</time>
      </trkpt>
      <trkpt lat="45.69906" lon="4.6117">
        <ele>713.6</ele>
        <time>2025-04-30T13:53:44Z</time>
      </trkpt>
      <trkpt lat="45.69907" lon="4.61165">
        <ele>713.8</ele>
        <time>2025-04-30T13:53:45Z</time>
      </trkpt>
      <trkpt lat="45.69908" lon="4.61159">
        <ele>714.4</ele>
        <time>2025-04-30T13:53:46Z</time>
      </trkpt>
      <trkpt lat="45.69908" lon="4.61154">
        <ele>714.8</ele>
        <time>2025-04-30T13:53:47Z</time>
      </trkpt>
      <trkpt lat="45.69908" lon="4.61149">
        <ele>715</ele>
        <time>2025-04-30T13:53:48Z</time>
      </trkpt>
      <trkpt lat="45.69909" lon="4.61143">
        <ele>715.4</ele>
        <time>2025-04-30T13:53:49Z</time>
      </trkpt>
      <trkpt lat="45.69909" lon="4.61139">
        <ele>715.6</ele>
        <time>2025-04-30T13:53:50Z</time>
      </trkpt>
      <trkpt lat="45.69909" lon="4.61133">
        <ele>715.8</ele>
        <time>2025-04-30T13:53:51Z</time>
      </trkpt>
      <trkpt lat="45.69909" lon="4.61128">
        <ele>716</ele>
        <time>2025-04-30T13:53:52Z</time>
      </trkpt>
      <trkpt lat="45.69909" lon="4.61122">
        <ele>716</ele>
        <time>2025-04-30T13:53:53Z</time>
      </trkpt>
      <trkpt lat="45.69908" lon="4.61117">
        <ele>716</ele>
        <time>2025-04-30T13:53:54Z</time>
      </trkpt>
      <trkpt lat="45.69907" lon="4.61112">
        <ele>716</ele>
        <time>2025-04-30T13:53:55Z</time>
      </trkpt>
      <trkpt lat="45.69907" lon="4.61108">
        <ele>716</ele>
        <time>2025-04-30T13:53:56Z</time>
      </trkpt>
      <trkpt lat="45.69905" lon="4.61101">
        <ele>716</ele>
        <time>2025-04-30T13:53:57Z</time>
      </trkpt>
      <trkpt lat="45.69904" lon="4.61095">
        <ele>715.8</ele>
        <time>2025-04-30T13:53:58Z</time>
      </trkpt>
      <trkpt lat="45.69902" lon="4.6109">
        <ele>715.6</ele>
        <time>2025-04-30T13:53:59Z</time>
      </trkpt>
      <trkpt lat="45.699" lon="4.61082">
        <ele>715.4</ele>
        <time>2025-04-30T13:54:00Z</time>
      </trkpt>
      <trkpt lat="45.69897" lon="4.61075">
        <ele>715.2</ele>
        <time>2025-04-30T13:54:01Z</time>
      </trkpt>
      <trkpt lat="45.69894" lon="4.61067">
        <ele>715</ele>
        <time>2025-04-30T13:54:02Z</time>
      </trkpt>
      <trkpt lat="45.69891" lon="4.6106">
        <ele>714.8</ele>
        <time>2025-04-30T13:54:03Z</time>
      </trkpt>
      <trkpt lat="45.69888" lon="4.61051">
        <ele>714.6</ele>
        <time>2025-04-30T13:54:04Z</time>
      </trkpt>
      <trkpt lat="45.69886" lon="4.61043">
        <ele>714.4</ele>
        <time>2025-04-30T13:54:05Z</time>
      </trkpt>
      <trkpt lat="45.69885" lon="4.61035">
        <ele>714</ele>
        <time>2025-04-30T13:54:06Z</time>
      </trkpt>
      <trkpt lat="45.69883" lon="4.61026">
        <ele>713.8</ele>
        <time>2025-04-30T13:54:07Z</time>
      </trkpt>
      <trkpt lat="45.69882" lon="4.61018">
        <ele>713.4</ele>
        <time>2025-04-30T13:54:08Z</time>
      </trkpt>
      <trkpt lat="45.69881" lon="4.6101">
        <ele>713</ele>
        <time>2025-04-30T13:54:09Z</time>
      </trkpt>
      <trkpt lat="45.6988" lon="4.61001">
        <ele>712.6</ele>
        <time>2025-04-30T13:54:10Z</time>
      </trkpt>
      <trkpt lat="45.69879" lon="4.60993">
        <ele>712.2</ele>
        <time>2025-04-30T13:54:11Z</time>
      </trkpt>
      <trkpt lat="45.69878" lon="4.60986">
        <ele>711.8</ele>
        <time>2025-04-30T13:54:12Z</time>
      </trkpt>
      <trkpt lat="45.69878" lon="4.60979">
        <ele>711.6</ele>
        <time>2025-04-30T13:54:13Z</time>
      </trkpt>
      <trkpt lat="45.69878" lon="4.60974">
        <ele>711.4</ele>
        <time>2025-04-30T13:54:14Z</time>
      </trkpt>
      <trkpt lat="45.69879" lon="4.60967">
        <ele>711.2</ele>
        <time>2025-04-30T13:54:15Z</time>
      </trkpt>
      <trkpt lat="45.69881" lon="4.60963">
        <ele>710.4</ele>
        <time>2025-04-30T13:54:16Z</time>
      </trkpt>
      <trkpt lat="45.69882" lon="4.60959">
        <ele>709.8</ele>
        <time>2025-04-30T13:54:17Z</time>
      </trkpt>
      <trkpt lat="45.69882" lon="4.60955">
        <ele>709.6</ele>
        <time>2025-04-30T13:54:18Z</time>
      </trkpt>
      <trkpt lat="45.69883" lon="4.60951">
        <ele>709.2</ele>
        <time>2025-04-30T13:54:19Z</time>
      </trkpt>
      <trkpt lat="45.69885" lon="4.60946">
        <ele>708.6</ele>
        <time>2025-04-30T13:54:20Z</time>
      </trkpt>
      <trkpt lat="45.69887" lon="4.60938">
        <ele>707.6</ele>
        <time>2025-04-30T13:54:21Z</time>
      </trkpt>
      <trkpt lat="45.69889" lon="4.60931">
        <ele>707.4</ele>
        <time>2025-04-30T13:54:22Z</time>
      </trkpt>
      <trkpt lat="45.69891" lon="4.60924">
        <ele>707</ele>
        <time>2025-04-30T13:54:23Z</time>
      </trkpt>
      <trkpt lat="45.69892" lon="4.60915">
        <ele>706.4</ele>
        <time>2025-04-30T13:54:24Z</time>
      </trkpt>
      <trkpt lat="45.69893" lon="4.60907">
        <ele>705.6</ele>
        <time>2025-04-30T13:54:25Z</time>
      </trkpt>
      <trkpt lat="45.69895" lon="4.609">
        <ele>705</ele>
        <time>2025-04-30T13:54:26Z</time>
      </trkpt>
      <trkpt lat="45.69898" lon="4.60892">
        <ele>704.2</ele>
        <time>2025-04-30T13:54:27Z</time>
      </trkpt>
      <trkpt lat="45.69901" lon="4.60883">
        <ele>703.8</ele>
        <time>2025-04-30T13:54:28Z</time>
      </trkpt>
      <trkpt lat="45.69904" lon="4.60875">
        <ele>703.2</ele>
        <time>2025-04-30T13:54:29Z</time>
      </trkpt>
      <trkpt lat="45.69908" lon="4.60866">
        <ele>702.4</ele>
        <time>2025-04-30T13:54:30Z</time>
      </trkpt>
      <trkpt lat="45.6991" lon="4.60858">
        <ele>702.2</ele>
        <time>2025-04-30T13:54:31Z</time>
      </trkpt>
      <trkpt lat="45.69913" lon="4.6085">
        <ele>702</ele>
        <time>2025-04-30T13:54:32Z</time>
      </trkpt>
      <trkpt lat="45.69915" lon="4.60843">
        <ele>701.8</ele>
        <time>2025-04-30T13:54:33Z</time>
      </trkpt>
      <trkpt lat="45.69916" lon="4.60836">
        <ele>701.4</ele>
        <time>2025-04-30T13:54:34Z</time>
      </trkpt>
      <trkpt lat="45.69917" lon="4.60828">
        <ele>701.2</ele>
        <time>2025-04-30T13:54:35Z</time>
      </trkpt>
      <trkpt lat="45.69918" lon="4.60819">
        <ele>701</ele>
        <time>2025-04-30T13:54:36Z</time>
      </trkpt>
      <trkpt lat="45.69919" lon="4.6081">
        <ele>700.8</ele>
        <time>2025-04-30T13:54:37Z</time>
      </trkpt>
      <trkpt lat="45.69921" lon="4.60801">
        <ele>700.4</ele>
        <time>2025-04-30T13:54:38Z</time>
      </trkpt>
      <trkpt lat="45.69922" lon="4.60792">
        <ele>700.2</ele>
        <time>2025-04-30T13:54:39Z</time>
      </trkpt>
      <trkpt lat="45.69922" lon="4.6078">
        <ele>699.6</ele>
        <time>2025-04-30T13:54:40Z</time>
      </trkpt>
      <trkpt lat="45.69923" lon="4.60771">
        <ele>698.8</ele>
        <time>2025-04-30T13:54:41Z</time>
      </trkpt>
      <trkpt lat="45.69924" lon="4.60764">
        <ele>698.6</ele>
        <time>2025-04-30T13:54:42Z</time>
      </trkpt>
      <trkpt lat="45.69924" lon="4.60754">
        <ele>698.4</ele>
        <time>2025-04-30T13:54:43Z</time>
      </trkpt>
      <trkpt lat="45.69923" lon="4.60745">
        <ele>698</ele>
        <time>2025-04-30T13:54:44Z</time>
      </trkpt>
      <trkpt lat="45.6992" lon="4.60736">
        <ele>697.4</ele>
        <time>2025-04-30T13:54:45Z</time>
      </trkpt>
      <trkpt lat="45.69919" lon="4.60729">
        <ele>697.2</ele>
        <time>2025-04-30T13:54:46Z</time>
      </trkpt>
      <trkpt lat="45.69917" lon="4.60724">
        <ele>697</ele>
        <time>2025-04-30T13:54:47Z</time>
      </trkpt>
      <trkpt lat="45.69916" lon="4.60721">
        <ele>697</ele>
        <time>2025-04-30T13:54:48Z</time>
      </trkpt>
      <trkpt lat="45.69915" lon="4.60715">
        <ele>697</ele>
        <time>2025-04-30T13:54:49Z</time>
      </trkpt>
      <trkpt lat="45.69914" lon="4.6071">
        <ele>697.2</ele>
        <time>2025-04-30T13:54:50Z</time>
      </trkpt>
      <trkpt lat="45.69913" lon="4.60704">
        <ele>697.2</ele>
        <time>2025-04-30T13:54:51Z</time>
      </trkpt>
      <trkpt lat="45.69913" lon="4.60699">
        <ele>697.2</ele>
        <time>2025-04-30T13:54:52Z</time>
      </trkpt>
      <trkpt lat="45.69911" lon="4.60691">
        <ele>697.2</ele>
        <time>2025-04-30T13:54:53Z</time>
      </trkpt>
      <trkpt lat="45.69911" lon="4.60684">
        <ele>697.2</ele>
        <time>2025-04-30T13:54:54Z</time>
      </trkpt>
      <trkpt lat="45.69909" lon="4.60677">
        <ele>697</ele>
        <time>2025-04-30T13:54:55Z</time>
      </trkpt>
      <trkpt lat="45.69908" lon="4.60671">
        <ele>697</ele>
        <time>2025-04-30T13:54:56Z</time>
      </trkpt>
      <trkpt lat="45.69907" lon="4.60664">
        <ele>697</ele>
        <time>2025-04-30T13:54:57Z</time>
      </trkpt>
      <trkpt lat="45.69905" lon="4.60658">
        <ele>697</ele>
        <time>2025-04-30T13:54:58Z</time>
      </trkpt>
      <trkpt lat="45.69903" lon="4.60651">
        <ele>697</ele>
        <time>2025-04-30T13:54:59Z</time>
      </trkpt>
      <trkpt lat="45.69901" lon="4.60646">
        <ele>697</ele>
        <time>2025-04-30T13:55:00Z</time>
      </trkpt>
      <trkpt lat="45.69898" lon="4.60641">
        <ele>697</ele>
        <time>2025-04-30T13:55:01Z</time>
      </trkpt>
      <trkpt lat="45.69894" lon="4.60636">
        <ele>697</ele>
        <time>2025-04-30T13:55:02Z</time>
      </trkpt>
      <trkpt lat="45.69889" lon="4.6063">
        <ele>697</ele>
        <time>2025-04-30T13:55:03Z</time>
      </trkpt>
      <trkpt lat="45.69884" lon="4.60625">
        <ele>697.2</ele>
        <time>2025-04-30T13:55:04Z</time>
      </trkpt>
      <trkpt lat="45.69879" lon="4.60622">
        <ele>697.4</ele>
        <time>2025-04-30T13:55:05Z</time>
      </trkpt>
      <trkpt lat="45.69874" lon="4.60617">
        <ele>697.6</ele>
        <time>2025-04-30T13:55:06Z</time>
      </trkpt>
      <trkpt lat="45.6987" lon="4.60614">
        <ele>697.8</ele>
        <time>2025-04-30T13:55:07Z</time>
      </trkpt>
      <trkpt lat="45.69867" lon="4.60611">
        <ele>697.8</ele>
        <time>2025-04-30T13:55:08Z</time>
      </trkpt>
      <trkpt lat="45.69863" lon="4.60607">
        <ele>698</ele>
        <time>2025-04-30T13:55:09Z</time>
      </trkpt>
      <trkpt lat="45.6986" lon="4.60604">
        <ele>698.2</ele>
        <time>2025-04-30T13:55:10Z</time>
      </trkpt>
      <trkpt lat="45.69858" lon="4.606">
        <ele>698.2</ele>
        <time>2025-04-30T13:55:11Z</time>
      </trkpt>
      <trkpt lat="45.69857" lon="4.60595">
        <ele>698.4</ele>
        <time>2025-04-30T13:55:12Z</time>
      </trkpt>
      <trkpt lat="45.69855" lon="4.60589">
        <ele>698.8</ele>
        <time>2025-04-30T13:55:13Z</time>
      </trkpt>
      <trkpt lat="45.69853" lon="4.60584">
        <ele>699.2</ele>
        <time>2025-04-30T13:55:14Z</time>
      </trkpt>
      <trkpt lat="45.69853" lon="4.6058">
        <ele>699.4</ele>
        <time>2025-04-30T13:55:15Z</time>
      </trkpt>
      <trkpt lat="45.69852" lon="4.60576">
        <ele>699.6</ele>
        <time>2025-04-30T13:55:16Z</time>
      </trkpt>
      <trkpt lat="45.69851" lon="4.60571">
        <ele>699.8</ele>
        <time>2025-04-30T13:55:17Z</time>
      </trkpt>
      <trkpt lat="45.6985" lon="4.60565">
        <ele>699.8</ele>
        <time>2025-04-30T13:55:18Z</time>
      </trkpt>
      <trkpt lat="45.6985" lon="4.6056">
        <ele>700</ele>
        <time>2025-04-30T13:55:19Z</time>
      </trkpt>
      <trkpt lat="45.6985" lon="4.60555">
        <ele>700</ele>
        <time>2025-04-30T13:55:20Z</time>
      </trkpt>
      <trkpt lat="45.69849" lon="4.6055">
        <ele>700.2</ele>
        <time>2025-04-30T13:55:21Z</time>
      </trkpt>
      <trkpt lat="45.6985" lon="4.60546">
        <ele>700.4</ele>
        <time>2025-04-30T13:55:22Z</time>
      </trkpt>
      <trkpt lat="45.6985" lon="4.60541">
        <ele>700.4</ele>
        <time>2025-04-30T13:55:23Z</time>
      </trkpt>
      <trkpt lat="45.6985" lon="4.60536">
        <ele>700.6</ele>
        <time>2025-04-30T13:55:24Z</time>
      </trkpt>
      <trkpt lat="45.6985" lon="4.60533">
        <ele>701</ele>
        <time>2025-04-30T13:55:25Z</time>
      </trkpt>
      <trkpt lat="45.6985" lon="4.60527">
        <ele>701.4</ele>
        <time>2025-04-30T13:55:26Z</time>
      </trkpt>
      <trkpt lat="45.6985" lon="4.60523">
        <ele>701.6</ele>
        <time>2025-04-30T13:55:27Z</time>
      </trkpt>
      <trkpt lat="45.69849" lon="4.60518">
        <ele>701.8</ele>
        <time>2025-04-30T13:55:28Z</time>
      </trkpt>
      <trkpt lat="45.69849" lon="4.60515">
        <ele>701.8</ele>
        <time>2025-04-30T13:55:29Z</time>
      </trkpt>
      <trkpt lat="45.69849" lon="4.60512">
        <ele>702.2</ele>
        <time>2025-04-30T13:55:30Z</time>
      </trkpt>
      <trkpt lat="45.69848" lon="4.60507">
        <ele>702.8</ele>
        <time>2025-04-30T13:55:31Z</time>
      </trkpt>
      <trkpt lat="45.69848" lon="4.60503">
        <ele>703</ele>
        <time>2025-04-30T13:55:32Z</time>
      </trkpt>
      <trkpt lat="45.69848" lon="4.60499">
        <ele>703.2</ele>
        <time>2025-04-30T13:55:33Z</time>
      </trkpt>
      <trkpt lat="45.69847" lon="4.60492">
        <ele>703.2</ele>
        <time>2025-04-30T13:55:34Z</time>
      </trkpt>
      <trkpt lat="45.69847" lon="4.60487">
        <ele>703.2</ele>
        <time>2025-04-30T13:55:35Z</time>
      </trkpt>
      <trkpt lat="45.69847" lon="4.60481">
        <ele>703.4</ele>
        <time>2025-04-30T13:55:36Z</time>
      </trkpt>
      <trkpt lat="45.69847" lon="4.60476">
        <ele>703.4</ele>
        <time>2025-04-30T13:55:37Z</time>
      </trkpt>
      <trkpt lat="45.69847" lon="4.6047">
        <ele>703.6</ele>
        <time>2025-04-30T13:55:38Z</time>
      </trkpt>
      <trkpt lat="45.69847" lon="4.60464">
        <ele>703.8</ele>
        <time>2025-04-30T13:55:39Z</time>
      </trkpt>
      <trkpt lat="45.69847" lon="4.60459">
        <ele>703.8</ele>
        <time>2025-04-30T13:55:40Z</time>
      </trkpt>
      <trkpt lat="45.69848" lon="4.60452">
        <ele>703.8</ele>
        <time>2025-04-30T13:55:41Z</time>
      </trkpt>
      <trkpt lat="45.69847" lon="4.60446">
        <ele>703.8</ele>
        <time>2025-04-30T13:55:42Z</time>
      </trkpt>
      <trkpt lat="45.69847" lon="4.60441">
        <ele>703.8</ele>
        <time>2025-04-30T13:55:43Z</time>
      </trkpt>
      <trkpt lat="45.69848" lon="4.60433">
        <ele>703.8</ele>
        <time>2025-04-30T13:55:44Z</time>
      </trkpt>
      <trkpt lat="45.69848" lon="4.60428">
        <ele>704</ele>
        <time>2025-04-30T13:55:45Z</time>
      </trkpt>
      <trkpt lat="45.69849" lon="4.60422">
        <ele>704</ele>
        <time>2025-04-30T13:55:46Z</time>
      </trkpt>
      <trkpt lat="45.6985" lon="4.60418">
        <ele>704.2</ele>
        <time>2025-04-30T13:55:47Z</time>
      </trkpt>
      <trkpt lat="45.6985" lon="4.60415">
        <ele>704.4</ele>
        <time>2025-04-30T13:55:48Z</time>
      </trkpt>
      <trkpt lat="45.69851" lon="4.60412">
        <ele>704.6</ele>
        <time>2025-04-30T13:55:49Z</time>
      </trkpt>
      <trkpt lat="45.69852" lon="4.60409">
        <ele>705.2</ele>
        <time>2025-04-30T13:55:50Z</time>
      </trkpt>
      <trkpt lat="45.69851" lon="4.60405">
        <ele>705.4</ele>
        <time>2025-04-30T13:55:51Z</time>
      </trkpt>
      <trkpt lat="45.69852" lon="4.60402">
        <ele>705.6</ele>
        <time>2025-04-30T13:55:52Z</time>
      </trkpt>
      <trkpt lat="45.69852" lon="4.60398">
        <ele>706</ele>
        <time>2025-04-30T13:55:53Z</time>
      </trkpt>
      <trkpt lat="45.69853" lon="4.60394">
        <ele>706.4</ele>
        <time>2025-04-30T13:55:54Z</time>
      </trkpt>
      <trkpt lat="45.69853" lon="4.60388">
        <ele>706.4</ele>
        <time>2025-04-30T13:55:55Z</time>
      </trkpt>
      <trkpt lat="45.69853" lon="4.60383">
        <ele>706.6</ele>
        <time>2025-04-30T13:55:56Z</time>
      </trkpt>
      <trkpt lat="45.69852" lon="4.60378">
        <ele>706.6</ele>
        <time>2025-04-30T13:55:57Z</time>
      </trkpt>
      <trkpt lat="45.69852" lon="4.60374">
        <ele>706.6</ele>
        <time>2025-04-30T13:55:58Z</time>
      </trkpt>
      <trkpt lat="45.69852" lon="4.6037">
        <ele>706.8</ele>
        <time>2025-04-30T13:55:59Z</time>
      </trkpt>
      <trkpt lat="45.69852" lon="4.60367">
        <ele>707</ele>
        <time>2025-04-30T13:56:00Z</time>
      </trkpt>
      <trkpt lat="45.69852" lon="4.60365">
        <ele>707.4</ele>
        <time>2025-04-30T13:56:01Z</time>
      </trkpt>
      <trkpt lat="45.69853" lon="4.60361">
        <ele>707.6</ele>
        <time>2025-04-30T13:56:02Z</time>
      </trkpt>
      <trkpt lat="45.69853" lon="4.60358">
        <ele>708</ele>
        <time>2025-04-30T13:56:03Z</time>
      </trkpt>
      <trkpt lat="45.69853" lon="4.60356">
        <ele>708.4</ele>
        <time>2025-04-30T13:56:04Z</time>
      </trkpt>
      <trkpt lat="45.69853" lon="4.60352">
        <ele>708.6</ele>
        <time>2025-04-30T13:56:05Z</time>
      </trkpt>
      <trkpt lat="45.69854" lon="4.60349">
        <ele>708.8</ele>
        <time>2025-04-30T13:56:06Z</time>
      </trkpt>
      <trkpt lat="45.69854" lon="4.60346">
        <ele>709</ele>
        <time>2025-04-30T13:56:07Z</time>
      </trkpt>
      <trkpt lat="45.69855" lon="4.60344">
        <ele>709.4</ele>
        <time>2025-04-30T13:56:08Z</time>
      </trkpt>
      <trkpt lat="45.69855" lon="4.6034">
        <ele>709.6</ele>
        <time>2025-04-30T13:56:09Z</time>
      </trkpt>
      <trkpt lat="45.69855" lon="4.60336">
        <ele>709.6</ele>
        <time>2025-04-30T13:56:10Z</time>
      </trkpt>
      <trkpt lat="45.69855" lon="4.60332">
        <ele>709.8</ele>
        <time>2025-04-30T13:56:11Z</time>
      </trkpt>
      <trkpt lat="45.69855" lon="4.60328">
        <ele>710</ele>
        <time>2025-04-30T13:56:12Z</time>
      </trkpt>
      <trkpt lat="45.69856" lon="4.60325">
        <ele>710</ele>
        <time>2025-04-30T13:56:13Z</time>
      </trkpt>
      <trkpt lat="45.69856" lon="4.60321">
        <ele>710.2</ele>
        <time>2025-04-30T13:56:14Z</time>
      </trkpt>
      <trkpt lat="45.69856" lon="4.60317">
        <ele>710.2</ele>
        <time>2025-04-30T13:56:15Z</time>
      </trkpt>
      <trkpt lat="45.69857" lon="4.60313">
        <ele>710.2</ele>
        <time>2025-04-30T13:56:16Z</time>
      </trkpt>
      <trkpt lat="45.69857" lon="4.60309">
        <ele>710.2</ele>
        <time>2025-04-30T13:56:17Z</time>
      </trkpt>
      <trkpt lat="45.69857" lon="4.60304">
        <ele>710.2</ele>
        <time>2025-04-30T13:56:18Z</time>
      </trkpt>
      <trkpt lat="45.69857" lon="4.603">
        <ele>710.2</ele>
        <time>2025-04-30T13:56:19Z</time>
      </trkpt>
      <trkpt lat="45.69857" lon="4.60295">
        <ele>710.2</ele>
        <time>2025-04-30T13:56:20Z</time>
      </trkpt>
      <trkpt lat="45.69857" lon="4.60291">
        <ele>710.2</ele>
        <time>2025-04-30T13:56:21Z</time>
      </trkpt>
      <trkpt lat="45.69857" lon="4.60286">
        <ele>710.2</ele>
        <time>2025-04-30T13:56:22Z</time>
      </trkpt>
      <trkpt lat="45.69857" lon="4.60283">
        <ele>710.2</ele>
        <time>2025-04-30T13:56:23Z</time>
      </trkpt>
      <trkpt lat="45.69856" lon="4.60279">
        <ele>710.2</ele>
        <time>2025-04-30T13:56:24Z</time>
      </trkpt>
      <trkpt lat="45.69857" lon="4.60276">
        <ele>710.2</ele>
        <time>2025-04-30T13:56:25Z</time>
      </trkpt>
      <trkpt lat="45.69857" lon="4.60272">
        <ele>710</ele>
        <time>2025-04-30T13:56:26Z</time>
      </trkpt>
      <trkpt lat="45.69857" lon="4.60268">
        <ele>710</ele>
        <time>2025-04-30T13:56:27Z</time>
      </trkpt>
      <trkpt lat="45.69857" lon="4.60263">
        <ele>709.8</ele>
        <time>2025-04-30T13:56:28Z</time>
      </trkpt>
      <trkpt lat="45.69858" lon="4.60257">
        <ele>709.4</ele>
        <time>2025-04-30T13:56:29Z</time>
      </trkpt>
      <trkpt lat="45.69859" lon="4.6025">
        <ele>709.2</ele>
        <time>2025-04-30T13:56:30Z</time>
      </trkpt>
      <trkpt lat="45.69861" lon="4.60244">
        <ele>708.6</ele>
        <time>2025-04-30T13:56:31Z</time>
      </trkpt>
      <trkpt lat="45.69864" lon="4.60238">
        <ele>708.2</ele>
        <time>2025-04-30T13:56:32Z</time>
      </trkpt>
      <trkpt lat="45.69867" lon="4.60232">
        <ele>708</ele>
        <time>2025-04-30T13:56:33Z</time>
      </trkpt>
      <trkpt lat="45.6987" lon="4.60226">
        <ele>707.2</ele>
        <time>2025-04-30T13:56:34Z</time>
      </trkpt>
      <trkpt lat="45.69873" lon="4.60221">
        <ele>707</ele>
        <time>2025-04-30T13:56:35Z</time>
      </trkpt>
      <trkpt lat="45.69876" lon="4.60216">
        <ele>706.8</ele>
        <time>2025-04-30T13:56:36Z</time>
      </trkpt>
      <trkpt lat="45.69879" lon="4.60212">
        <ele>706.4</ele>
        <time>2025-04-30T13:56:37Z</time>
      </trkpt>
      <trkpt lat="45.69883" lon="4.60208">
        <ele>706.2</ele>
        <time>2025-04-30T13:56:38Z</time>
      </trkpt>
      <trkpt lat="45.69886" lon="4.60204">
        <ele>706.2</ele>
        <time>2025-04-30T13:56:39Z</time>
      </trkpt>
      <trkpt lat="45.6989" lon="4.60199">
        <ele>705.8</ele>
        <time>2025-04-30T13:56:40Z</time>
      </trkpt>
      <trkpt lat="45.69894" lon="4.60194">
        <ele>705.2</ele>
        <time>2025-04-30T13:56:41Z</time>
      </trkpt>
      <trkpt lat="45.69898" lon="4.60189">
        <ele>704.8</ele>
        <time>2025-04-30T13:56:42Z</time>
      </trkpt>
      <trkpt lat="45.69902" lon="4.60183">
        <ele>704</ele>
        <time>2025-04-30T13:56:43Z</time>
      </trkpt>
      <trkpt lat="45.69907" lon="4.60177">
        <ele>703.8</ele>
        <time>2025-04-30T13:56:44Z</time>
      </trkpt>
      <trkpt lat="45.69912" lon="4.60171">
        <ele>703.2</ele>
        <time>2025-04-30T13:56:45Z</time>
      </trkpt>
      <trkpt lat="45.69916" lon="4.60165">
        <ele>702.4</ele>
        <time>2025-04-30T13:56:46Z</time>
      </trkpt>
      <trkpt lat="45.69921" lon="4.60159">
        <ele>701.6</ele>
        <time>2025-04-30T13:56:47Z</time>
      </trkpt>
      <trkpt lat="45.69926" lon="4.60153">
        <ele>701.2</ele>
        <time>2025-04-30T13:56:48Z</time>
      </trkpt>
      <trkpt lat="45.6993" lon="4.60147">
        <ele>701</ele>
        <time>2025-04-30T13:56:49Z</time>
      </trkpt>
      <trkpt lat="45.69935" lon="4.60141">
        <ele>701</ele>
        <time>2025-04-30T13:56:50Z</time>
      </trkpt>
      <trkpt lat="45.69938" lon="4.60135">
        <ele>701</ele>
        <time>2025-04-30T13:56:51Z</time>
      </trkpt>
      <trkpt lat="45.69942" lon="4.6013">
        <ele>701</ele>
        <time>2025-04-30T13:56:52Z</time>
      </trkpt>
      <trkpt lat="45.69946" lon="4.60125">
        <ele>701.2</ele>
        <time>2025-04-30T13:56:53Z</time>
      </trkpt>
      <trkpt lat="45.69951" lon="4.6012">
        <ele>701.4</ele>
        <time>2025-04-30T13:56:54Z</time>
      </trkpt>
      <trkpt lat="45.69955" lon="4.60115">
        <ele>701.6</ele>
        <time>2025-04-30T13:56:55Z</time>
      </trkpt>
      <trkpt lat="45.69959" lon="4.60111">
        <ele>701.8</ele>
        <time>2025-04-30T13:56:56Z</time>
      </trkpt>
      <trkpt lat="45.69963" lon="4.60106">
        <ele>702</ele>
        <time>2025-04-30T13:56:57Z</time>
      </trkpt>
      <trkpt lat="45.69966" lon="4.60101">
        <ele>702.2</ele>
        <time>2025-04-30T13:56:58Z</time>
      </trkpt>
      <trkpt lat="45.6997" lon="4.60094">
        <ele>702.2</ele>
        <time>2025-04-30T13:56:59Z</time>
      </trkpt>
      <trkpt lat="45.69973" lon="4.60088">
        <ele>702.2</ele>
        <time>2025-04-30T13:57:00Z</time>
      </trkpt>
      <trkpt lat="45.69977" lon="4.60082">
        <ele>702.2</ele>
        <time>2025-04-30T13:57:01Z</time>
      </trkpt>
      <trkpt lat="45.6998" lon="4.60076">
        <ele>702.2</ele>
        <time>2025-04-30T13:57:02Z</time>
      </trkpt>
      <trkpt lat="45.69984" lon="4.6007">
        <ele>702.2</ele>
        <time>2025-04-30T13:57:03Z</time>
      </trkpt>
      <trkpt lat="45.69987" lon="4.60064">
        <ele>702.2</ele>
        <time>2025-04-30T13:57:04Z</time>
      </trkpt>
      <trkpt lat="45.6999" lon="4.60058">
        <ele>702.2</ele>
        <time>2025-04-30T13:57:05Z</time>
      </trkpt>
      <trkpt lat="45.69993" lon="4.60052">
        <ele>702.2</ele>
        <time>2025-04-30T13:57:06Z</time>
      </trkpt>
      <trkpt lat="45.69996" lon="4.60047">
        <ele>702.2</ele>
        <time>2025-04-30T13:57:07Z</time>
      </trkpt>
      <trkpt lat="45.7" lon="4.60041">
        <ele>702.2</ele>
        <time>2025-04-30T13:57:08Z</time>
      </trkpt>
      <trkpt lat="45.70004" lon="4.60036">
        <ele>702.2</ele>
        <time>2025-04-30T13:57:09Z</time>
      </trkpt>
      <trkpt lat="45.70009" lon="4.6003">
        <ele>702</ele>
        <time>2025-04-30T13:57:10Z</time>
      </trkpt>
      <trkpt lat="45.70013" lon="4.60024">
        <ele>702</ele>
        <time>2025-04-30T13:57:11Z</time>
      </trkpt>
      <trkpt lat="45.70018" lon="4.60019">
        <ele>702</ele>
        <time>2025-04-30T13:57:12Z</time>
      </trkpt>
      <trkpt lat="45.70021" lon="4.60014">
        <ele>702</ele>
        <time>2025-04-30T13:57:13Z</time>
      </trkpt>
      <trkpt lat="45.70024" lon="4.6001">
        <ele>702</ele>
        <time>2025-04-30T13:57:14Z</time>
      </trkpt>
      <trkpt lat="45.70028" lon="4.60003">
        <ele>702</ele>
        <time>2025-04-30T13:57:15Z</time>
      </trkpt>
      <trkpt lat="45.70031" lon="4.59998">
        <ele>702.2</ele>
        <time>2025-04-30T13:57:16Z</time>
      </trkpt>
      <trkpt lat="45.70035" lon="4.59993">
        <ele>702.6</ele>
        <time>2025-04-30T13:57:17Z</time>
      </trkpt>
      <trkpt lat="45.70038" lon="4.59989">
        <ele>702.6</ele>
        <time>2025-04-30T13:57:18Z</time>
      </trkpt>
      <trkpt lat="45.7004" lon="4.59984">
        <ele>703</ele>
        <time>2025-04-30T13:57:19Z</time>
      </trkpt>
      <trkpt lat="45.70043" lon="4.59978">
        <ele>703.2</ele>
        <time>2025-04-30T13:57:20Z</time>
      </trkpt>
      <trkpt lat="45.70046" lon="4.59972">
        <ele>703.4</ele>
        <time>2025-04-30T13:57:21Z</time>
      </trkpt>
      <trkpt lat="45.70048" lon="4.59967">
        <ele>703.4</ele>
        <time>2025-04-30T13:57:22Z</time>
      </trkpt>
      <trkpt lat="45.7005" lon="4.59959">
        <ele>703.6</ele>
        <time>2025-04-30T13:57:23Z</time>
      </trkpt>
      <trkpt lat="45.70052" lon="4.59953">
        <ele>703.8</ele>
        <time>2025-04-30T13:57:24Z</time>
      </trkpt>
      <trkpt lat="45.70055" lon="4.59946">
        <ele>704</ele>
        <time>2025-04-30T13:57:25Z</time>
      </trkpt>
      <trkpt lat="45.70057" lon="4.59939">
        <ele>704</ele>
        <time>2025-04-30T13:57:26Z</time>
      </trkpt>
      <trkpt lat="45.7006" lon="4.59933">
        <ele>704</ele>
        <time>2025-04-30T13:57:27Z</time>
      </trkpt>
      <trkpt lat="45.70063" lon="4.59927">
        <ele>704</ele>
        <time>2025-04-30T13:57:28Z</time>
      </trkpt>
      <trkpt lat="45.70066" lon="4.59921">
        <ele>704.2</ele>
        <time>2025-04-30T13:57:29Z</time>
      </trkpt>
      <trkpt lat="45.70068" lon="4.59915">
        <ele>704.2</ele>
        <time>2025-04-30T13:57:30Z</time>
      </trkpt>
      <trkpt lat="45.7007" lon="4.5991">
        <ele>704.2</ele>
        <time>2025-04-30T13:57:31Z</time>
      </trkpt>
      <trkpt lat="45.70073" lon="4.59904">
        <ele>704.2</ele>
        <time>2025-04-30T13:57:32Z</time>
      </trkpt>
      <trkpt lat="45.70075" lon="4.599">
        <ele>704.2</ele>
        <time>2025-04-30T13:57:33Z</time>
      </trkpt>
      <trkpt lat="45.70077" lon="4.59893">
        <ele>704.4</ele>
        <time>2025-04-30T13:57:34Z</time>
      </trkpt>
      <trkpt lat="45.7008" lon="4.59887">
        <ele>704.6</ele>
        <time>2025-04-30T13:57:35Z</time>
      </trkpt>
      <trkpt lat="45.70082" lon="4.59881">
        <ele>704.6</ele>
        <time>2025-04-30T13:57:36Z</time>
      </trkpt>
      <trkpt lat="45.70085" lon="4.59874">
        <ele>704.6</ele>
        <time>2025-04-30T13:57:37Z</time>
      </trkpt>
      <trkpt lat="45.70087" lon="4.59868">
        <ele>704.8</ele>
        <time>2025-04-30T13:57:38Z</time>
      </trkpt>
      <trkpt lat="45.7009" lon="4.59863">
        <ele>704.8</ele>
        <time>2025-04-30T13:57:39Z</time>
      </trkpt>
      <trkpt lat="45.70092" lon="4.59858">
        <ele>704.8</ele>
        <time>2025-04-30T13:57:40Z</time>
      </trkpt>
      <trkpt lat="45.70094" lon="4.59851">
        <ele>705</ele>
        <time>2025-04-30T13:57:41Z</time>
      </trkpt>
      <trkpt lat="45.70097" lon="4.59845">
        <ele>705</ele>
        <time>2025-04-30T13:57:42Z</time>
      </trkpt>
      <trkpt lat="45.701" lon="4.59839">
        <ele>705</ele>
        <time>2025-04-30T13:57:43Z</time>
      </trkpt>
      <trkpt lat="45.70103" lon="4.59833">
        <ele>705</ele>
        <time>2025-04-30T13:57:44Z</time>
      </trkpt>
      <trkpt lat="45.70106" lon="4.59826">
        <ele>705</ele>
        <time>2025-04-30T13:57:45Z</time>
      </trkpt>
      <trkpt lat="45.70109" lon="4.59819">
        <ele>704.8</ele>
        <time>2025-04-30T13:57:46Z</time>
      </trkpt>
      <trkpt lat="45.70111" lon="4.59812">
        <ele>704.4</ele>
        <time>2025-04-30T13:57:47Z</time>
      </trkpt>
      <trkpt lat="45.70115" lon="4.59804">
        <ele>703.8</ele>
        <time>2025-04-30T13:57:48Z</time>
      </trkpt>
      <trkpt lat="45.70118" lon="4.59798">
        <ele>703.6</ele>
        <time>2025-04-30T13:57:49Z</time>
      </trkpt>
      <trkpt lat="45.70121" lon="4.59793">
        <ele>703.6</ele>
        <time>2025-04-30T13:57:50Z</time>
      </trkpt>
      <trkpt lat="45.70124" lon="4.59788">
        <ele>703.6</ele>
        <time>2025-04-30T13:57:51Z</time>
      </trkpt>
      <trkpt lat="45.70128" lon="4.59781">
        <ele>703.6</ele>
        <time>2025-04-30T13:57:52Z</time>
      </trkpt>
      <trkpt lat="45.70131" lon="4.59775">
        <ele>703.6</ele>
        <time>2025-04-30T13:57:53Z</time>
      </trkpt>
      <trkpt lat="45.70135" lon="4.5977">
        <ele>704</ele>
        <time>2025-04-30T13:57:54Z</time>
      </trkpt>
      <trkpt lat="45.70139" lon="4.59764">
        <ele>704</ele>
        <time>2025-04-30T13:57:55Z</time>
      </trkpt>
      <trkpt lat="45.70142" lon="4.59759">
        <ele>704.2</ele>
        <time>2025-04-30T13:57:56Z</time>
      </trkpt>
      <trkpt lat="45.70146" lon="4.59753">
        <ele>704.6</ele>
        <time>2025-04-30T13:57:57Z</time>
      </trkpt>
      <trkpt lat="45.7015" lon="4.59747">
        <ele>704.8</ele>
        <time>2025-04-30T13:57:58Z</time>
      </trkpt>
      <trkpt lat="45.70153" lon="4.59743">
        <ele>705</ele>
        <time>2025-04-30T13:57:59Z</time>
      </trkpt>
      <trkpt lat="45.70156" lon="4.59736">
        <ele>705.2</ele>
        <time>2025-04-30T13:58:00Z</time>
      </trkpt>
      <trkpt lat="45.7016" lon="4.5973">
        <ele>705.6</ele>
        <time>2025-04-30T13:58:01Z</time>
      </trkpt>
      <trkpt lat="45.70163" lon="4.59725">
        <ele>706</ele>
        <time>2025-04-30T13:58:02Z</time>
      </trkpt>
      <trkpt lat="45.70166" lon="4.59719">
        <ele>706.2</ele>
        <time>2025-04-30T13:58:03Z</time>
      </trkpt>
      <trkpt lat="45.70169" lon="4.59714">
        <ele>706.4</ele>
        <time>2025-04-30T13:58:04Z</time>
      </trkpt>
      <trkpt lat="45.70172" lon="4.59708">
        <ele>706.6</ele>
        <time>2025-04-30T13:58:05Z</time>
      </trkpt>
      <trkpt lat="45.70176" lon="4.59703">
        <ele>707</ele>
        <time>2025-04-30T13:58:06Z</time>
      </trkpt>
      <trkpt lat="45.70178" lon="4.59699">
        <ele>707.2</ele>
        <time>2025-04-30T13:58:07Z</time>
      </trkpt>
      <trkpt lat="45.70182" lon="4.59694">
        <ele>707.6</ele>
        <time>2025-04-30T13:58:08Z</time>
      </trkpt>
      <trkpt lat="45.70185" lon="4.59687">
        <ele>707.8</ele>
        <time>2025-04-30T13:58:09Z</time>
      </trkpt>
      <trkpt lat="45.70188" lon="4.59681">
        <ele>708</ele>
        <time>2025-04-30T13:58:10Z</time>
      </trkpt>
      <trkpt lat="45.70192" lon="4.59676">
        <ele>708.2</ele>
        <time>2025-04-30T13:58:11Z</time>
      </trkpt>
      <trkpt lat="45.70194" lon="4.59671">
        <ele>708.6</ele>
        <time>2025-04-30T13:58:12Z</time>
      </trkpt>
      <trkpt lat="45.70197" lon="4.59666">
        <ele>709</ele>
        <time>2025-04-30T13:58:13Z</time>
      </trkpt>
      <trkpt lat="45.702" lon="4.59661">
        <ele>709</ele>
        <time>2025-04-30T13:58:14Z</time>
      </trkpt>
      <trkpt lat="45.70203" lon="4.59656">
        <ele>709.6</ele>
        <time>2025-04-30T13:58:15Z</time>
      </trkpt>
      <trkpt lat="45.70206" lon="4.59652">
        <ele>710</ele>
        <time>2025-04-30T13:58:16Z</time>
      </trkpt>
      <trkpt lat="45.70209" lon="4.59647">
        <ele>710.2</ele>
        <time>2025-04-30T13:58:17Z</time>
      </trkpt>
      <trkpt lat="45.70211" lon="4.59643">
        <ele>710.6</ele>
        <time>2025-04-30T13:58:18Z</time>
      </trkpt>
      <trkpt lat="45.70214" lon="4.59637">
        <ele>710.8</ele>
        <time>2025-04-30T13:58:19Z</time>
      </trkpt>
      <trkpt lat="45.70217" lon="4.59633">
        <ele>711.2</ele>
        <time>2025-04-30T13:58:20Z</time>
      </trkpt>
      <trkpt lat="45.7022" lon="4.59628">
        <ele>711.4</ele>
        <time>2025-04-30T13:58:21Z</time>
      </trkpt>
      <trkpt lat="45.70223" lon="4.59623">
        <ele>711.6</ele>
        <time>2025-04-30T13:58:22Z</time>
      </trkpt>
      <trkpt lat="45.70226" lon="4.59618">
        <ele>711.6</ele>
        <time>2025-04-30T13:58:23Z</time>
      </trkpt>
      <trkpt lat="45.70229" lon="4.59613">
        <ele>711.8</ele>
        <time>2025-04-30T13:58:24Z</time>
      </trkpt>
      <trkpt lat="45.70232" lon="4.59608">
        <ele>712.2</ele>
        <time>2025-04-30T13:58:25Z</time>
      </trkpt>
      <trkpt lat="45.70235" lon="4.59604">
        <ele>712.4</ele>
        <time>2025-04-30T13:58:26Z</time>
      </trkpt>
      <trkpt lat="45.70238" lon="4.596">
        <ele>712.6</ele>
        <time>2025-04-30T13:58:27Z</time>
      </trkpt>
      <trkpt lat="45.70241" lon="4.59596">
        <ele>712.6</ele>
        <time>2025-04-30T13:58:28Z</time>
      </trkpt>
      <trkpt lat="45.70244" lon="4.59592">
        <ele>712.8</ele>
        <time>2025-04-30T13:58:29Z</time>
      </trkpt>
      <trkpt lat="45.70247" lon="4.59588">
        <ele>713.2</ele>
        <time>2025-04-30T13:58:30Z</time>
      </trkpt>
      <trkpt lat="45.70249" lon="4.59585">
        <ele>713.4</ele>
        <time>2025-04-30T13:58:31Z</time>
      </trkpt>
      <trkpt lat="45.70252" lon="4.59581">
        <ele>713.8</ele>
        <time>2025-04-30T13:58:32Z</time>
      </trkpt>
      <trkpt lat="45.70254" lon="4.59577">
        <ele>714.2</ele>
        <time>2025-04-30T13:58:33Z</time>
      </trkpt>
      <trkpt lat="45.70258" lon="4.59574">
        <ele>714.6</ele>
        <time>2025-04-30T13:58:34Z</time>
      </trkpt>
      <trkpt lat="45.70261" lon="4.5957">
        <ele>714.8</ele>
        <time>2025-04-30T13:58:35Z</time>
      </trkpt>
      <trkpt lat="45.70264" lon="4.59566">
        <ele>715.2</ele>
        <time>2025-04-30T13:58:36Z</time>
      </trkpt>
      <trkpt lat="45.70266" lon="4.59562">
        <ele>715.4</ele>
        <time>2025-04-30T13:58:37Z</time>
      </trkpt>
      <trkpt lat="45.70269" lon="4.59558">
        <ele>715.6</ele>
        <time>2025-04-30T13:58:38Z</time>
      </trkpt>
      <trkpt lat="45.70271" lon="4.59554">
        <ele>715.8</ele>
        <time>2025-04-30T13:58:39Z</time>
      </trkpt>
      <trkpt lat="45.70274" lon="4.5955">
        <ele>716</ele>
        <time>2025-04-30T13:58:40Z</time>
      </trkpt>
      <trkpt lat="45.70276" lon="4.59545">
        <ele>716</ele>
        <time>2025-04-30T13:58:41Z</time>
      </trkpt>
      <trkpt lat="45.70278" lon="4.59542">
        <ele>716.2</ele>
        <time>2025-04-30T13:58:42Z</time>
      </trkpt>
      <trkpt lat="45.70281" lon="4.59538">
        <ele>716.6</ele>
        <time>2025-04-30T13:58:43Z</time>
      </trkpt>
      <trkpt lat="45.70283" lon="4.59535">
        <ele>716.8</ele>
        <time>2025-04-30T13:58:44Z</time>
      </trkpt>
      <trkpt lat="45.70286" lon="4.59531">
        <ele>717</ele>
        <time>2025-04-30T13:58:45Z</time>
      </trkpt>
      <trkpt lat="45.70288" lon="4.59527">
        <ele>717.2</ele>
        <time>2025-04-30T13:58:46Z</time>
      </trkpt>
      <trkpt lat="45.70291" lon="4.59523">
        <ele>717.4</ele>
        <time>2025-04-30T13:58:47Z</time>
      </trkpt>
      <trkpt lat="45.70293" lon="4.59519">
        <ele>717.6</ele>
        <time>2025-04-30T13:58:48Z</time>
      </trkpt>
      <trkpt lat="45.70295" lon="4.59515">
        <ele>717.8</ele>
        <time>2025-04-30T13:58:49Z</time>
      </trkpt>
      <trkpt lat="45.70297" lon="4.59511">
        <ele>717.8</ele>
        <time>2025-04-30T13:58:50Z</time>
      </trkpt>
      <trkpt lat="45.70299" lon="4.59507">
        <ele>718</ele>
        <time>2025-04-30T13:58:51Z</time>
      </trkpt>
      <trkpt lat="45.70302" lon="4.59503">
        <ele>718.4</ele>
        <time>2025-04-30T13:58:52Z</time>
      </trkpt>
      <trkpt lat="45.70304" lon="4.59499">
        <ele>718.6</ele>
        <time>2025-04-30T13:58:53Z</time>
      </trkpt>
      <trkpt lat="45.70306" lon="4.59494">
        <ele>718.6</ele>
        <time>2025-04-30T13:58:54Z</time>
      </trkpt>
      <trkpt lat="45.70308" lon="4.5949">
        <ele>719</ele>
        <time>2025-04-30T13:58:55Z</time>
      </trkpt>
      <trkpt lat="45.7031" lon="4.59486">
        <ele>719.2</ele>
        <time>2025-04-30T13:58:56Z</time>
      </trkpt>
      <trkpt lat="45.70312" lon="4.59482">
        <ele>719.4</ele>
        <time>2025-04-30T13:58:57Z</time>
      </trkpt>
      <trkpt lat="45.70314" lon="4.59478">
        <ele>719.8</ele>
        <time>2025-04-30T13:58:58Z</time>
      </trkpt>
      <trkpt lat="45.70317" lon="4.59474">
        <ele>719.8</ele>
        <time>2025-04-30T13:58:59Z</time>
      </trkpt>
      <trkpt lat="45.70319" lon="4.59471">
        <ele>720</ele>
        <time>2025-04-30T13:59:00Z</time>
      </trkpt>
      <trkpt lat="45.70322" lon="4.59467">
        <ele>720.2</ele>
        <time>2025-04-30T13:59:01Z</time>
      </trkpt>
      <trkpt lat="45.70324" lon="4.59463">
        <ele>720.4</ele>
        <time>2025-04-30T13:59:02Z</time>
      </trkpt>
      <trkpt lat="45.70326" lon="4.59459">
        <ele>720.8</ele>
        <time>2025-04-30T13:59:03Z</time>
      </trkpt>
      <trkpt lat="45.70328" lon="4.59455">
        <ele>721</ele>
        <time>2025-04-30T13:59:04Z</time>
      </trkpt>
      <trkpt lat="45.70331" lon="4.59452">
        <ele>721.2</ele>
        <time>2025-04-30T13:59:05Z</time>
      </trkpt>
      <trkpt lat="45.70333" lon="4.59448">
        <ele>721.4</ele>
        <time>2025-04-30T13:59:06Z</time>
      </trkpt>
      <trkpt lat="45.70336" lon="4.59444">
        <ele>721.4</ele>
        <time>2025-04-30T13:59:07Z</time>
      </trkpt>
      <trkpt lat="45.70338" lon="4.59441">
        <ele>721.6</ele>
        <time>2025-04-30T13:59:08Z</time>
      </trkpt>
      <trkpt lat="45.7034" lon="4.59437">
        <ele>721.8</ele>
        <time>2025-04-30T13:59:09Z</time>
      </trkpt>
      <trkpt lat="45.70343" lon="4.59434">
        <ele>722</ele>
        <time>2025-04-30T13:59:10Z</time>
      </trkpt>
      <trkpt lat="45.70345" lon="4.59431">
        <ele>722.2</ele>
        <time>2025-04-30T13:59:11Z</time>
      </trkpt>
      <trkpt lat="45.70347" lon="4.59427">
        <ele>722.6</ele>
        <time>2025-04-30T13:59:12Z</time>
      </trkpt>
      <trkpt lat="45.70349" lon="4.59423">
        <ele>722.8</ele>
        <time>2025-04-30T13:59:13Z</time>
      </trkpt>
      <trkpt lat="45.70352" lon="4.5942">
        <ele>723</ele>
        <time>2025-04-30T13:59:14Z</time>
      </trkpt>
      <trkpt lat="45.70354" lon="4.59417">
        <ele>723.2</ele>
        <time>2025-04-30T13:59:15Z</time>
      </trkpt>
      <trkpt lat="45.70356" lon="4.59414">
        <ele>723.4</ele>
        <time>2025-04-30T13:59:16Z</time>
      </trkpt>
      <trkpt lat="45.70358" lon="4.59411">
        <ele>723.6</ele>
        <time>2025-04-30T13:59:17Z</time>
      </trkpt>
      <trkpt lat="45.7036" lon="4.59406">
        <ele>723.8</ele>
        <time>2025-04-30T13:59:18Z</time>
      </trkpt>
      <trkpt lat="45.70362" lon="4.59403">
        <ele>724</ele>
        <time>2025-04-30T13:59:19Z</time>
      </trkpt>
      <trkpt lat="45.70365" lon="4.59399">
        <ele>724.2</ele>
        <time>2025-04-30T13:59:20Z</time>
      </trkpt>
      <trkpt lat="45.70367" lon="4.59396">
        <ele>724.4</ele>
        <time>2025-04-30T13:59:21Z</time>
      </trkpt>
      <trkpt lat="45.7037" lon="4.59393">
        <ele>724.6</ele>
        <time>2025-04-30T13:59:22Z</time>
      </trkpt>
      <trkpt lat="45.70372" lon="4.59389">
        <ele>724.6</ele>
        <time>2025-04-30T13:59:23Z</time>
      </trkpt>
      <trkpt lat="45.70374" lon="4.59385">
        <ele>724.8</ele>
        <time>2025-04-30T13:59:24Z</time>
      </trkpt>
      <trkpt lat="45.70376" lon="4.59382">
        <ele>725</ele>
        <time>2025-04-30T13:59:25Z</time>
      </trkpt>
      <trkpt lat="45.70379" lon="4.59378">
        <ele>725.2</ele>
        <time>2025-04-30T13:59:26Z</time>
      </trkpt>
      <trkpt lat="45.70381" lon="4.59375">
        <ele>725.2</ele>
        <time>2025-04-30T13:59:27Z</time>
      </trkpt>
      <trkpt lat="45.70384" lon="4.59372">
        <ele>725.6</ele>
        <time>2025-04-30T13:59:28Z</time>
      </trkpt>
      <trkpt lat="45.70386" lon="4.59368">
        <ele>725.6</ele>
        <time>2025-04-30T13:59:29Z</time>
      </trkpt>
      <trkpt lat="45.70389" lon="4.59364">
        <ele>725.8</ele>
        <time>2025-04-30T13:59:30Z</time>
      </trkpt>
      <trkpt lat="45.70391" lon="4.5936">
        <ele>726</ele>
        <time>2025-04-30T13:59:31Z</time>
      </trkpt>
      <trkpt lat="45.70393" lon="4.59358">
        <ele>726.2</ele>
        <time>2025-04-30T13:59:32Z</time>
      </trkpt>
      <trkpt lat="45.70395" lon="4.59353">
        <ele>726.4</ele>
        <time>2025-04-30T13:59:33Z</time>
      </trkpt>
      <trkpt lat="45.70398" lon="4.5935">
        <ele>726.8</ele>
        <time>2025-04-30T13:59:34Z</time>
      </trkpt>
      <trkpt lat="45.704" lon="4.59347">
        <ele>727</ele>
        <time>2025-04-30T13:59:35Z</time>
      </trkpt>
      <trkpt lat="45.70403" lon="4.59343">
        <ele>727.2</ele>
        <time>2025-04-30T13:59:36Z</time>
      </trkpt>
      <trkpt lat="45.70405" lon="4.59342">
        <ele>727.4</ele>
        <time>2025-04-30T13:59:37Z</time>
      </trkpt>
      <trkpt lat="45.70408" lon="4.59339">
        <ele>727.6</ele>
        <time>2025-04-30T13:59:38Z</time>
      </trkpt>
      <trkpt lat="45.70412" lon="4.59337">
        <ele>727.8</ele>
        <time>2025-04-30T13:59:39Z</time>
      </trkpt>
      <trkpt lat="45.70416" lon="4.59335">
        <ele>727.8</ele>
        <time>2025-04-30T13:59:40Z</time>
      </trkpt>
      <trkpt lat="45.70418" lon="4.59333">
        <ele>728</ele>
        <time>2025-04-30T13:59:41Z</time>
      </trkpt>
      <trkpt lat="45.70422" lon="4.59331">
        <ele>728.2</ele>
        <time>2025-04-30T13:59:42Z</time>
      </trkpt>
      <trkpt lat="45.70426" lon="4.59329">
        <ele>728.2</ele>
        <time>2025-04-30T13:59:43Z</time>
      </trkpt>
      <trkpt lat="45.70429" lon="4.59327">
        <ele>728.4</ele>
        <time>2025-04-30T13:59:44Z</time>
      </trkpt>
      <trkpt lat="45.70433" lon="4.59326">
        <ele>728.8</ele>
        <time>2025-04-30T13:59:45Z</time>
      </trkpt>
      <trkpt lat="45.70437" lon="4.59325">
        <ele>729</ele>
        <time>2025-04-30T13:59:46Z</time>
      </trkpt>
      <trkpt lat="45.7044" lon="4.59324">
        <ele>729</ele>
        <time>2025-04-30T13:59:47Z</time>
      </trkpt>
      <trkpt lat="45.70444" lon="4.59323">
        <ele>729.2</ele>
        <time>2025-04-30T13:59:48Z</time>
      </trkpt>
      <trkpt lat="45.70448" lon="4.59322">
        <ele>729.4</ele>
        <time>2025-04-30T13:59:49Z</time>
      </trkpt>
      <trkpt lat="45.70451" lon="4.59321">
        <ele>729.6</ele>
        <time>2025-04-30T13:59:50Z</time>
      </trkpt>
      <trkpt lat="45.70455" lon="4.5932">
        <ele>729.8</ele>
        <time>2025-04-30T13:59:51Z</time>
      </trkpt>
      <trkpt lat="45.70458" lon="4.59319">
        <ele>730</ele>
        <time>2025-04-30T13:59:52Z</time>
      </trkpt>
      <trkpt lat="45.70461" lon="4.59318">
        <ele>730.2</ele>
        <time>2025-04-30T13:59:53Z</time>
      </trkpt>
      <trkpt lat="45.70466" lon="4.59316">
        <ele>730.4</ele>
        <time>2025-04-30T13:59:54Z</time>
      </trkpt>
      <trkpt lat="45.70469" lon="4.59315">
        <ele>730.4</ele>
        <time>2025-04-30T13:59:55Z</time>
      </trkpt>
      <trkpt lat="45.70473" lon="4.59312">
        <ele>730.4</ele>
        <time>2025-04-30T13:59:56Z</time>
      </trkpt>
      <trkpt lat="45.70477" lon="4.5931">
        <ele>730.4</ele>
        <time>2025-04-30T13:59:57Z</time>
      </trkpt>
      <trkpt lat="45.7048" lon="4.59308">
        <ele>730.4</ele>
        <time>2025-04-30T13:59:58Z</time>
      </trkpt>
      <trkpt lat="45.70484" lon="4.59305">
        <ele>730.4</ele>
        <time>2025-04-30T13:59:59Z</time>
      </trkpt>
      <trkpt lat="45.70488" lon="4.59302">
        <ele>730.6</ele>
        <time>2025-04-30T14:00:00Z</time>
      </trkpt>
      <trkpt lat="45.70492" lon="4.59299">
        <ele>730.6</ele>
        <time>2025-04-30T14:00:01Z</time>
      </trkpt>
      <trkpt lat="45.70495" lon="4.59296">
        <ele>730.6</ele>
        <time>2025-04-30T14:00:02Z</time>
      </trkpt>
      <trkpt lat="45.70498" lon="4.59294">
        <ele>730.8</ele>
        <time>2025-04-30T14:00:03Z</time>
      </trkpt>
      <trkpt lat="45.70501" lon="4.59291">
        <ele>731</ele>
        <time>2025-04-30T14:00:04Z</time>
      </trkpt>
      <trkpt lat="45.70504" lon="4.59289">
        <ele>731</ele>
        <time>2025-04-30T14:00:05Z</time>
      </trkpt>
      <trkpt lat="45.70508" lon="4.59287">
        <ele>731</ele>
        <time>2025-04-30T14:00:06Z</time>
      </trkpt>
      <trkpt lat="45.70513" lon="4.59284">
        <ele>731</ele>
        <time>2025-04-30T14:00:07Z</time>
      </trkpt>
      <trkpt lat="45.70517" lon="4.59281">
        <ele>731</ele>
        <time>2025-04-30T14:00:08Z</time>
      </trkpt>
      <trkpt lat="45.7052" lon="4.59278">
        <ele>731</ele>
        <time>2025-04-30T14:00:09Z</time>
      </trkpt>
      <trkpt lat="45.70524" lon="4.59276">
        <ele>731.2</ele>
        <time>2025-04-30T14:00:10Z</time>
      </trkpt>
      <trkpt lat="45.70528" lon="4.59274">
        <ele>731.2</ele>
        <time>2025-04-30T14:00:11Z</time>
      </trkpt>
      <trkpt lat="45.70532" lon="4.59271">
        <ele>731.4</ele>
        <time>2025-04-30T14:00:12Z</time>
      </trkpt>
      <trkpt lat="45.70536" lon="4.59268">
        <ele>731.4</ele>
        <time>2025-04-30T14:00:13Z</time>
      </trkpt>
      <trkpt lat="45.7054" lon="4.59264">
        <ele>731.4</ele>
        <time>2025-04-30T14:00:14Z</time>
      </trkpt>
      <trkpt lat="45.70543" lon="4.5926">
        <ele>731.4</ele>
        <time>2025-04-30T14:00:15Z</time>
      </trkpt>
      <trkpt lat="45.70547" lon="4.59257">
        <ele>731.4</ele>
        <time>2025-04-30T14:00:16Z</time>
      </trkpt>
      <trkpt lat="45.70551" lon="4.59253">
        <ele>731.2</ele>
        <time>2025-04-30T14:00:17Z</time>
      </trkpt>
      <trkpt lat="45.70554" lon="4.59248">
        <ele>731</ele>
        <time>2025-04-30T14:00:18Z</time>
      </trkpt>
      <trkpt lat="45.70557" lon="4.59243">
        <ele>731</ele>
        <time>2025-04-30T14:00:19Z</time>
      </trkpt>
      <trkpt lat="45.70559" lon="4.59239">
        <ele>731</ele>
        <time>2025-04-30T14:00:20Z</time>
      </trkpt>
      <trkpt lat="45.70563" lon="4.59234">
        <ele>731</ele>
        <time>2025-04-30T14:00:21Z</time>
      </trkpt>
      <trkpt lat="45.70566" lon="4.59228">
        <ele>731</ele>
        <time>2025-04-30T14:00:22Z</time>
      </trkpt>
      <trkpt lat="45.70569" lon="4.59223">
        <ele>731</ele>
        <time>2025-04-30T14:00:23Z</time>
      </trkpt>
      <trkpt lat="45.70572" lon="4.59218">
        <ele>731</ele>
        <time>2025-04-30T14:00:24Z</time>
      </trkpt>
      <trkpt lat="45.70575" lon="4.59213">
        <ele>731</ele>
        <time>2025-04-30T14:00:25Z</time>
      </trkpt>
      <trkpt lat="45.70579" lon="4.59208">
        <ele>731</ele>
        <time>2025-04-30T14:00:26Z</time>
      </trkpt>
      <trkpt lat="45.70582" lon="4.59203">
        <ele>731</ele>
        <time>2025-04-30T14:00:27Z</time>
      </trkpt>
      <trkpt lat="45.70586" lon="4.59197">
        <ele>731</ele>
        <time>2025-04-30T14:00:28Z</time>
      </trkpt>
      <trkpt lat="45.7059" lon="4.59191">
        <ele>731</ele>
        <time>2025-04-30T14:00:29Z</time>
      </trkpt>
      <trkpt lat="45.70593" lon="4.59185">
        <ele>731</ele>
        <time>2025-04-30T14:00:30Z</time>
      </trkpt>
      <trkpt lat="45.70597" lon="4.59179">
        <ele>731</ele>
        <time>2025-04-30T14:00:31Z</time>
      </trkpt>
      <trkpt lat="45.70601" lon="4.59172">
        <ele>731</ele>
        <time>2025-04-30T14:00:32Z</time>
      </trkpt>
      <trkpt lat="45.70605" lon="4.59166">
        <ele>730.8</ele>
        <time>2025-04-30T14:00:33Z</time>
      </trkpt>
      <trkpt lat="45.70608" lon="4.59161">
        <ele>730.8</ele>
        <time>2025-04-30T14:00:34Z</time>
      </trkpt>
      <trkpt lat="45.70612" lon="4.59154">
        <ele>730.8</ele>
        <time>2025-04-30T14:00:35Z</time>
      </trkpt>
      <trkpt lat="45.70615" lon="4.59148">
        <ele>730.6</ele>
        <time>2025-04-30T14:00:36Z</time>
      </trkpt>
      <trkpt lat="45.70619" lon="4.59142">
        <ele>730.6</ele>
        <time>2025-04-30T14:00:37Z</time>
      </trkpt>
      <trkpt lat="45.70622" lon="4.59135">
        <ele>730.6</ele>
        <time>2025-04-30T14:00:38Z</time>
      </trkpt>
      <trkpt lat="45.70624" lon="4.59128">
        <ele>730.6</ele>
        <time>2025-04-30T14:00:39Z</time>
      </trkpt>
      <trkpt lat="45.70627" lon="4.5912">
        <ele>730.6</ele>
        <time>2025-04-30T14:00:40Z</time>
      </trkpt>
      <trkpt lat="45.70628" lon="4.59113">
        <ele>730.6</ele>
        <time>2025-04-30T14:00:41Z</time>
      </trkpt>
      <trkpt lat="45.7063" lon="4.59104">
        <ele>730.2</ele>
        <time>2025-04-30T14:00:42Z</time>
      </trkpt>
      <trkpt lat="45.70631" lon="4.59095">
        <ele>729.8</ele>
        <time>2025-04-30T14:00:43Z</time>
      </trkpt>
      <trkpt lat="45.70633" lon="4.59085">
        <ele>729.4</ele>
        <time>2025-04-30T14:00:44Z</time>
      </trkpt>
      <trkpt lat="45.70634" lon="4.59072">
        <ele>729</ele>
        <time>2025-04-30T14:00:45Z</time>
      </trkpt>
      <trkpt lat="45.70636" lon="4.59062">
        <ele>728.4</ele>
        <time>2025-04-30T14:00:46Z</time>
      </trkpt>
      <trkpt lat="45.70638" lon="4.59051">
        <ele>727.8</ele>
        <time>2025-04-30T14:00:47Z</time>
      </trkpt>
      <trkpt lat="45.70639" lon="4.5904">
        <ele>727.4</ele>
        <time>2025-04-30T14:00:48Z</time>
      </trkpt>
      <trkpt lat="45.7064" lon="4.5903">
        <ele>726.8</ele>
        <time>2025-04-30T14:00:49Z</time>
      </trkpt>
      <trkpt lat="45.70641" lon="4.59019">
        <ele>726.4</ele>
        <time>2025-04-30T14:00:50Z</time>
      </trkpt>
      <trkpt lat="45.70641" lon="4.59008">
        <ele>726.2</ele>
        <time>2025-04-30T14:00:51Z</time>
      </trkpt>
      <trkpt lat="45.70641" lon="4.58999">
        <ele>726.2</ele>
        <time>2025-04-30T14:00:52Z</time>
      </trkpt>
      <trkpt lat="45.7064" lon="4.58989">
        <ele>726</ele>
        <time>2025-04-30T14:00:53Z</time>
      </trkpt>
      <trkpt lat="45.7064" lon="4.58979">
        <ele>726</ele>
        <time>2025-04-30T14:00:54Z</time>
      </trkpt>
      <trkpt lat="45.70639" lon="4.5897">
        <ele>726.2</ele>
        <time>2025-04-30T14:00:55Z</time>
      </trkpt>
      <trkpt lat="45.70637" lon="4.58961">
        <ele>726.2</ele>
        <time>2025-04-30T14:00:56Z</time>
      </trkpt>
      <trkpt lat="45.70635" lon="4.58952">
        <ele>726.2</ele>
        <time>2025-04-30T14:00:57Z</time>
      </trkpt>
      <trkpt lat="45.70633" lon="4.58943">
        <ele>726.4</ele>
        <time>2025-04-30T14:00:58Z</time>
      </trkpt>
      <trkpt lat="45.70631" lon="4.58933">
        <ele>726.4</ele>
        <time>2025-04-30T14:00:59Z</time>
      </trkpt>
      <trkpt lat="45.70629" lon="4.58924">
        <ele>726.4</ele>
        <time>2025-04-30T14:01:00Z</time>
      </trkpt>
      <trkpt lat="45.70628" lon="4.58915">
        <ele>726.4</ele>
        <time>2025-04-30T14:01:01Z</time>
      </trkpt>
      <trkpt lat="45.70627" lon="4.58907">
        <ele>726.8</ele>
        <time>2025-04-30T14:01:02Z</time>
      </trkpt>
      <trkpt lat="45.70627" lon="4.589">
        <ele>727.2</ele>
        <time>2025-04-30T14:01:03Z</time>
      </trkpt>
      <trkpt lat="45.70627" lon="4.58891">
        <ele>727.2</ele>
        <time>2025-04-30T14:01:04Z</time>
      </trkpt>
      <trkpt lat="45.70627" lon="4.58884">
        <ele>727.2</ele>
        <time>2025-04-30T14:01:05Z</time>
      </trkpt>
      <trkpt lat="45.70628" lon="4.58877">
        <ele>727.4</ele>
        <time>2025-04-30T14:01:06Z</time>
      </trkpt>
      <trkpt lat="45.70629" lon="4.5887">
        <ele>727.4</ele>
        <time>2025-04-30T14:01:07Z</time>
      </trkpt>
      <trkpt lat="45.7063" lon="4.58863">
        <ele>727.6</ele>
        <time>2025-04-30T14:01:08Z</time>
      </trkpt>
      <trkpt lat="45.7063" lon="4.58855">
        <ele>728</ele>
        <time>2025-04-30T14:01:09Z</time>
      </trkpt>
      <trkpt lat="45.70632" lon="4.58848">
        <ele>728.2</ele>
        <time>2025-04-30T14:01:10Z</time>
      </trkpt>
      <trkpt lat="45.70633" lon="4.58842">
        <ele>728.4</ele>
        <time>2025-04-30T14:01:11Z</time>
      </trkpt>
      <trkpt lat="45.70635" lon="4.58835">
        <ele>728.8</ele>
        <time>2025-04-30T14:01:12Z</time>
      </trkpt>
      <trkpt lat="45.70638" lon="4.5883">
        <ele>729.2</ele>
        <time>2025-04-30T14:01:13Z</time>
      </trkpt>
      <trkpt lat="45.70641" lon="4.58825">
        <ele>730</ele>
        <time>2025-04-30T14:01:14Z</time>
      </trkpt>
      <trkpt lat="45.70643" lon="4.5882">
        <ele>730.6</ele>
        <time>2025-04-30T14:01:15Z</time>
      </trkpt>
      <trkpt lat="45.70646" lon="4.58816">
        <ele>731</ele>
        <time>2025-04-30T14:01:16Z</time>
      </trkpt>
      <trkpt lat="45.7065" lon="4.58812">
        <ele>731.4</ele>
        <time>2025-04-30T14:01:17Z</time>
      </trkpt>
      <trkpt lat="45.70653" lon="4.58808">
        <ele>731.8</ele>
        <time>2025-04-30T14:01:18Z</time>
      </trkpt>
      <trkpt lat="45.70655" lon="4.58803">
        <ele>732</ele>
        <time>2025-04-30T14:01:19Z</time>
      </trkpt>
      <trkpt lat="45.70658" lon="4.58797">
        <ele>732</ele>
        <time>2025-04-30T14:01:20Z</time>
      </trkpt>
      <trkpt lat="45.7066" lon="4.58789">
        <ele>732</ele>
        <time>2025-04-30T14:01:21Z</time>
      </trkpt>
      <trkpt lat="45.70662" lon="4.58783">
        <ele>732</ele>
        <time>2025-04-30T14:01:22Z</time>
      </trkpt>
      <trkpt lat="45.70664" lon="4.58773">
        <ele>731.8</ele>
        <time>2025-04-30T14:01:23Z</time>
      </trkpt>
      <trkpt lat="45.70666" lon="4.58765">
        <ele>731.4</ele>
        <time>2025-04-30T14:01:24Z</time>
      </trkpt>
      <trkpt lat="45.70667" lon="4.58756">
        <ele>731</ele>
        <time>2025-04-30T14:01:25Z</time>
      </trkpt>
      <trkpt lat="45.70668" lon="4.58744">
        <ele>730.6</ele>
        <time>2025-04-30T14:01:26Z</time>
      </trkpt>
      <trkpt lat="45.70668" lon="4.58734">
        <ele>730.2</ele>
        <time>2025-04-30T14:01:27Z</time>
      </trkpt>
      <trkpt lat="45.70668" lon="4.58725">
        <ele>729.8</ele>
        <time>2025-04-30T14:01:28Z</time>
      </trkpt>
      <trkpt lat="45.70667" lon="4.58715">
        <ele>729.2</ele>
        <time>2025-04-30T14:01:29Z</time>
      </trkpt>
      <trkpt lat="45.70667" lon="4.58705">
        <ele>728.6</ele>
        <time>2025-04-30T14:01:30Z</time>
      </trkpt>
      <trkpt lat="45.70666" lon="4.58695">
        <ele>728.4</ele>
        <time>2025-04-30T14:01:31Z</time>
      </trkpt>
      <trkpt lat="45.70665" lon="4.58686">
        <ele>728</ele>
        <time>2025-04-30T14:01:32Z</time>
      </trkpt>
      <trkpt lat="45.70665" lon="4.58677">
        <ele>727.6</ele>
        <time>2025-04-30T14:01:33Z</time>
      </trkpt>
      <trkpt lat="45.70664" lon="4.58668">
        <ele>727.2</ele>
        <time>2025-04-30T14:01:34Z</time>
      </trkpt>
      <trkpt lat="45.70666" lon="4.58661">
        <ele>726.6</ele>
        <time>2025-04-30T14:01:35Z</time>
      </trkpt>
      <trkpt lat="45.70669" lon="4.58656">
        <ele>726.4</ele>
        <time>2025-04-30T14:01:36Z</time>
      </trkpt>
      <trkpt lat="45.70674" lon="4.58652">
        <ele>725.8</ele>
        <time>2025-04-30T14:01:37Z</time>
      </trkpt>
      <trkpt lat="45.70679" lon="4.58652">
        <ele>725.4</ele>
        <time>2025-04-30T14:01:38Z</time>
      </trkpt>
      <trkpt lat="45.70683" lon="4.58652">
        <ele>724.6</ele>
        <time>2025-04-30T14:01:39Z</time>
      </trkpt>
      <trkpt lat="45.70687" lon="4.58653">
        <ele>724.2</ele>
        <time>2025-04-30T14:01:40Z</time>
      </trkpt>
      <trkpt lat="45.7069" lon="4.58652">
        <ele>723.4</ele>
        <time>2025-04-30T14:01:41Z</time>
      </trkpt>
      <trkpt lat="45.70692" lon="4.58648">
        <ele>723.2</ele>
        <time>2025-04-30T14:01:42Z</time>
      </trkpt>
      <trkpt lat="45.70692" lon="4.58644">
        <ele>722.8</ele>
        <time>2025-04-30T14:01:43Z</time>
      </trkpt>
      <trkpt lat="45.70692" lon="4.58638">
        <ele>722.6</ele>
        <time>2025-04-30T14:01:44Z</time>
      </trkpt>
      <trkpt lat="45.70691" lon="4.58634">
        <ele>722.4</ele>
        <time>2025-04-30T14:01:45Z</time>
      </trkpt>
      <trkpt lat="45.7069" lon="4.58629">
        <ele>722.2</ele>
        <time>2025-04-30T14:01:46Z</time>
      </trkpt>
      <trkpt lat="45.7069" lon="4.58622">
        <ele>722.2</ele>
        <time>2025-04-30T14:01:47Z</time>
      </trkpt>
      <trkpt lat="45.7069" lon="4.58615">
        <ele>722.2</ele>
        <time>2025-04-30T14:01:48Z</time>
      </trkpt>
      <trkpt lat="45.70689" lon="4.5861">
        <ele>722.2</ele>
        <time>2025-04-30T14:01:49Z</time>
      </trkpt>
      <trkpt lat="45.70688" lon="4.58601">
        <ele>722.2</ele>
        <time>2025-04-30T14:01:50Z</time>
      </trkpt>
      <trkpt lat="45.70688" lon="4.58594">
        <ele>722.2</ele>
        <time>2025-04-30T14:01:51Z</time>
      </trkpt>
      <trkpt lat="45.70687" lon="4.58589">
        <ele>722.2</ele>
        <time>2025-04-30T14:01:52Z</time>
      </trkpt>
      <trkpt lat="45.70687" lon="4.58581">
        <ele>722.2</ele>
        <time>2025-04-30T14:01:53Z</time>
      </trkpt>
      <trkpt lat="45.70687" lon="4.58573">
        <ele>722.4</ele>
        <time>2025-04-30T14:01:54Z</time>
      </trkpt>
      <trkpt lat="45.70686" lon="4.58567">
        <ele>722.6</ele>
        <time>2025-04-30T14:01:55Z</time>
      </trkpt>
      <trkpt lat="45.70686" lon="4.5856">
        <ele>723</ele>
        <time>2025-04-30T14:01:56Z</time>
      </trkpt>
      <trkpt lat="45.70685" lon="4.58552">
        <ele>723.2</ele>
        <time>2025-04-30T14:01:57Z</time>
      </trkpt>
      <trkpt lat="45.70684" lon="4.58545">
        <ele>723.4</ele>
        <time>2025-04-30T14:01:58Z</time>
      </trkpt>
      <trkpt lat="45.70684" lon="4.58538">
        <ele>723.6</ele>
        <time>2025-04-30T14:01:59Z</time>
      </trkpt>
      <trkpt lat="45.70683" lon="4.58531">
        <ele>723.8</ele>
        <time>2025-04-30T14:02:00Z</time>
      </trkpt>
      <trkpt lat="45.70682" lon="4.58525">
        <ele>724</ele>
        <time>2025-04-30T14:02:01Z</time>
      </trkpt>
      <trkpt lat="45.70681" lon="4.58518">
        <ele>724.2</ele>
        <time>2025-04-30T14:02:02Z</time>
      </trkpt>
      <trkpt lat="45.70679" lon="4.5851">
        <ele>724.2</ele>
        <time>2025-04-30T14:02:03Z</time>
      </trkpt>
      <trkpt lat="45.70677" lon="4.58504">
        <ele>724.2</ele>
        <time>2025-04-30T14:02:04Z</time>
      </trkpt>
      <trkpt lat="45.70675" lon="4.58496">
        <ele>724.2</ele>
        <time>2025-04-30T14:02:05Z</time>
      </trkpt>
      <trkpt lat="45.70673" lon="4.58488">
        <ele>724.4</ele>
        <time>2025-04-30T14:02:06Z</time>
      </trkpt>
      <trkpt lat="45.70671" lon="4.58483">
        <ele>724.4</ele>
        <time>2025-04-30T14:02:07Z</time>
      </trkpt>
      <trkpt lat="45.7067" lon="4.58476">
        <ele>724.4</ele>
        <time>2025-04-30T14:02:08Z</time>
      </trkpt>
      <trkpt lat="45.70671" lon="4.58467">
        <ele>724.4</ele>
        <time>2025-04-30T14:02:09Z</time>
      </trkpt>
      <trkpt lat="45.70672" lon="4.58462">
        <ele>724.6</ele>
        <time>2025-04-30T14:02:10Z</time>
      </trkpt>
      <trkpt lat="45.70674" lon="4.58456">
        <ele>725</ele>
        <time>2025-04-30T14:02:11Z</time>
      </trkpt>
      <trkpt lat="45.70676" lon="4.58447">
        <ele>725</ele>
        <time>2025-04-30T14:02:12Z</time>
      </trkpt>
      <trkpt lat="45.70677" lon="4.5844">
        <ele>725.2</ele>
        <time>2025-04-30T14:02:13Z</time>
      </trkpt>
      <trkpt lat="45.70677" lon="4.58435">
        <ele>725.2</ele>
        <time>2025-04-30T14:02:14Z</time>
      </trkpt>
      <trkpt lat="45.70677" lon="4.58427">
        <ele>725.2</ele>
        <time>2025-04-30T14:02:15Z</time>
      </trkpt>
      <trkpt lat="45.70677" lon="4.5842">
        <ele>725.4</ele>
        <time>2025-04-30T14:02:16Z</time>
      </trkpt>
      <trkpt lat="45.70677" lon="4.58415">
        <ele>725.4</ele>
        <time>2025-04-30T14:02:17Z</time>
      </trkpt>
      <trkpt lat="45.70678" lon="4.58407">
        <ele>725.6</ele>
        <time>2025-04-30T14:02:18Z</time>
      </trkpt>
      <trkpt lat="45.7068" lon="4.584">
        <ele>725.8</ele>
        <time>2025-04-30T14:02:19Z</time>
      </trkpt>
      <trkpt lat="45.70681" lon="4.58395">
        <ele>725.8</ele>
        <time>2025-04-30T14:02:20Z</time>
      </trkpt>
      <trkpt lat="45.70682" lon="4.58386">
        <ele>726</ele>
        <time>2025-04-30T14:02:21Z</time>
      </trkpt>
      <trkpt lat="45.70683" lon="4.5838">
        <ele>726</ele>
        <time>2025-04-30T14:02:22Z</time>
      </trkpt>
      <trkpt lat="45.70684" lon="4.58374">
        <ele>726</ele>
        <time>2025-04-30T14:02:23Z</time>
      </trkpt>
      <trkpt lat="45.70686" lon="4.58366">
        <ele>726</ele>
        <time>2025-04-30T14:02:24Z</time>
      </trkpt>
      <trkpt lat="45.70687" lon="4.58359">
        <ele>726.2</ele>
        <time>2025-04-30T14:02:25Z</time>
      </trkpt>
      <trkpt lat="45.70688" lon="4.58354">
        <ele>726.4</ele>
        <time>2025-04-30T14:02:26Z</time>
      </trkpt>
      <trkpt lat="45.70689" lon="4.58345">
        <ele>726.4</ele>
        <time>2025-04-30T14:02:27Z</time>
      </trkpt>
      <trkpt lat="45.7069" lon="4.5834">
        <ele>726.6</ele>
        <time>2025-04-30T14:02:28Z</time>
      </trkpt>
      <trkpt lat="45.70691" lon="4.58333">
        <ele>726.6</ele>
        <time>2025-04-30T14:02:29Z</time>
      </trkpt>
      <trkpt lat="45.70693" lon="4.58326">
        <ele>726.8</ele>
        <time>2025-04-30T14:02:30Z</time>
      </trkpt>
      <trkpt lat="45.70694" lon="4.58319">
        <ele>727</ele>
        <time>2025-04-30T14:02:31Z</time>
      </trkpt>
      <trkpt lat="45.70695" lon="4.58315">
        <ele>727</ele>
        <time>2025-04-30T14:02:32Z</time>
      </trkpt>
      <trkpt lat="45.70695" lon="4.58307">
        <ele>727.6</ele>
        <time>2025-04-30T14:02:33Z</time>
      </trkpt>
      <trkpt lat="45.70696" lon="4.58302">
        <ele>727.8</ele>
        <time>2025-04-30T14:02:34Z</time>
      </trkpt>
      <trkpt lat="45.70696" lon="4.58297">
        <ele>728</ele>
        <time>2025-04-30T14:02:35Z</time>
      </trkpt>
      <trkpt lat="45.70696" lon="4.58291">
        <ele>728.4</ele>
        <time>2025-04-30T14:02:36Z</time>
      </trkpt>
      <trkpt lat="45.70696" lon="4.58285">
        <ele>728.4</ele>
        <time>2025-04-30T14:02:37Z</time>
      </trkpt>
      <trkpt lat="45.70696" lon="4.58281">
        <ele>728.6</ele>
        <time>2025-04-30T14:02:38Z</time>
      </trkpt>
      <trkpt lat="45.70696" lon="4.58275">
        <ele>729</ele>
        <time>2025-04-30T14:02:39Z</time>
      </trkpt>
      <trkpt lat="45.70696" lon="4.5827">
        <ele>729.2</ele>
        <time>2025-04-30T14:02:40Z</time>
      </trkpt>
      <trkpt lat="45.70696" lon="4.58266">
        <ele>729.4</ele>
        <time>2025-04-30T14:02:41Z</time>
      </trkpt>
      <trkpt lat="45.70696" lon="4.5826">
        <ele>729.6</ele>
        <time>2025-04-30T14:02:42Z</time>
      </trkpt>
      <trkpt lat="45.70696" lon="4.58255">
        <ele>729.8</ele>
        <time>2025-04-30T14:02:43Z</time>
      </trkpt>
      <trkpt lat="45.70696" lon="4.58251">
        <ele>730.2</ele>
        <time>2025-04-30T14:02:44Z</time>
      </trkpt>
      <trkpt lat="45.70695" lon="4.58245">
        <ele>730.4</ele>
        <time>2025-04-30T14:02:45Z</time>
      </trkpt>
      <trkpt lat="45.70695" lon="4.58241">
        <ele>730.6</ele>
        <time>2025-04-30T14:02:46Z</time>
      </trkpt>
      <trkpt lat="45.70695" lon="4.58237">
        <ele>731</ele>
        <time>2025-04-30T14:02:47Z</time>
      </trkpt>
      <trkpt lat="45.70694" lon="4.58231">
        <ele>731.2</ele>
        <time>2025-04-30T14:02:48Z</time>
      </trkpt>
      <trkpt lat="45.70694" lon="4.58228">
        <ele>731.4</ele>
        <time>2025-04-30T14:02:49Z</time>
      </trkpt>
      <trkpt lat="45.70693" lon="4.58223">
        <ele>731.8</ele>
        <time>2025-04-30T14:02:50Z</time>
      </trkpt>
      <trkpt lat="45.70692" lon="4.58218">
        <ele>732</ele>
        <time>2025-04-30T14:02:51Z</time>
      </trkpt>
      <trkpt lat="45.70691" lon="4.58213">
        <ele>732.2</ele>
        <time>2025-04-30T14:02:52Z</time>
      </trkpt>
      <trkpt lat="45.7069" lon="4.5821">
        <ele>732.4</ele>
        <time>2025-04-30T14:02:53Z</time>
      </trkpt>
      <trkpt lat="45.70689" lon="4.58204">
        <ele>732.6</ele>
        <time>2025-04-30T14:02:54Z</time>
      </trkpt>
      <trkpt lat="45.70688" lon="4.582">
        <ele>732.8</ele>
        <time>2025-04-30T14:02:55Z</time>
      </trkpt>
      <trkpt lat="45.70687" lon="4.58196">
        <ele>733.4</ele>
        <time>2025-04-30T14:02:56Z</time>
      </trkpt>
      <trkpt lat="45.70686" lon="4.58191">
        <ele>733.8</ele>
        <time>2025-04-30T14:02:57Z</time>
      </trkpt>
      <trkpt lat="45.70685" lon="4.58187">
        <ele>734.2</ele>
        <time>2025-04-30T14:02:58Z</time>
      </trkpt>
      <trkpt lat="45.70684" lon="4.58184">
        <ele>734.4</ele>
        <time>2025-04-30T14:02:59Z</time>
      </trkpt>
      <trkpt lat="45.70682" lon="4.58179">
        <ele>734.8</ele>
        <time>2025-04-30T14:03:00Z</time>
      </trkpt>
      <trkpt lat="45.70682" lon="4.58175">
        <ele>735</ele>
        <time>2025-04-30T14:03:01Z</time>
      </trkpt>
      <trkpt lat="45.70681" lon="4.58172">
        <ele>735.4</ele>
        <time>2025-04-30T14:03:02Z</time>
      </trkpt>
      <trkpt lat="45.7068" lon="4.58167">
        <ele>736</ele>
        <time>2025-04-30T14:03:03Z</time>
      </trkpt>
      <trkpt lat="45.70679" lon="4.58164">
        <ele>736.2</ele>
        <time>2025-04-30T14:03:04Z</time>
      </trkpt>
      <trkpt lat="45.70678" lon="4.5816">
        <ele>736.6</ele>
        <time>2025-04-30T14:03:05Z</time>
      </trkpt>
      <trkpt lat="45.70677" lon="4.58156">
        <ele>736.8</ele>
        <time>2025-04-30T14:03:06Z</time>
      </trkpt>
      <trkpt lat="45.70676" lon="4.58151">
        <ele>737.2</ele>
        <time>2025-04-30T14:03:07Z</time>
      </trkpt>
      <trkpt lat="45.70675" lon="4.58147">
        <ele>737.4</ele>
        <time>2025-04-30T14:03:08Z</time>
      </trkpt>
      <trkpt lat="45.70673" lon="4.58143">
        <ele>737.8</ele>
        <time>2025-04-30T14:03:09Z</time>
      </trkpt>
      <trkpt lat="45.70672" lon="4.58139">
        <ele>738</ele>
        <time>2025-04-30T14:03:10Z</time>
      </trkpt>
      <trkpt lat="45.70671" lon="4.58134">
        <ele>738.2</ele>
        <time>2025-04-30T14:03:11Z</time>
      </trkpt>
      <trkpt lat="45.70671" lon="4.5813">
        <ele>738.4</ele>
        <time>2025-04-30T14:03:12Z</time>
      </trkpt>
      <trkpt lat="45.70669" lon="4.58126">
        <ele>738.6</ele>
        <time>2025-04-30T14:03:13Z</time>
      </trkpt>
      <trkpt lat="45.70668" lon="4.58122">
        <ele>739</ele>
        <time>2025-04-30T14:03:14Z</time>
      </trkpt>
      <trkpt lat="45.70667" lon="4.58117">
        <ele>739.2</ele>
        <time>2025-04-30T14:03:15Z</time>
      </trkpt>
      <trkpt lat="45.70666" lon="4.58113">
        <ele>739.4</ele>
        <time>2025-04-30T14:03:16Z</time>
      </trkpt>
      <trkpt lat="45.70665" lon="4.58109">
        <ele>739.6</ele>
        <time>2025-04-30T14:03:17Z</time>
      </trkpt>
      <trkpt lat="45.70665" lon="4.58104">
        <ele>739.8</ele>
        <time>2025-04-30T14:03:18Z</time>
      </trkpt>
      <trkpt lat="45.70664" lon="4.581">
        <ele>740.2</ele>
        <time>2025-04-30T14:03:19Z</time>
      </trkpt>
      <trkpt lat="45.70663" lon="4.58095">
        <ele>740.4</ele>
        <time>2025-04-30T14:03:20Z</time>
      </trkpt>
      <trkpt lat="45.70661" lon="4.58091">
        <ele>740.6</ele>
        <time>2025-04-30T14:03:21Z</time>
      </trkpt>
      <trkpt lat="45.7066" lon="4.58087">
        <ele>740.8</ele>
        <time>2025-04-30T14:03:22Z</time>
      </trkpt>
      <trkpt lat="45.70658" lon="4.58084">
        <ele>741.2</ele>
        <time>2025-04-30T14:03:23Z</time>
      </trkpt>
      <trkpt lat="45.70657" lon="4.5808">
        <ele>741.4</ele>
        <time>2025-04-30T14:03:24Z</time>
      </trkpt>
      <trkpt lat="45.70655" lon="4.58076">
        <ele>741.6</ele>
        <time>2025-04-30T14:03:25Z</time>
      </trkpt>
      <trkpt lat="45.70654" lon="4.58073">
        <ele>741.8</ele>
        <time>2025-04-30T14:03:26Z</time>
      </trkpt>
      <trkpt lat="45.70653" lon="4.58069">
        <ele>742</ele>
        <time>2025-04-30T14:03:27Z</time>
      </trkpt>
      <trkpt lat="45.70652" lon="4.58066">
        <ele>742.4</ele>
        <time>2025-04-30T14:03:28Z</time>
      </trkpt>
      <trkpt lat="45.70651" lon="4.58063">
        <ele>742.6</ele>
        <time>2025-04-30T14:03:29Z</time>
      </trkpt>
      <trkpt lat="45.70651" lon="4.5806">
        <ele>742.8</ele>
        <time>2025-04-30T14:03:30Z</time>
      </trkpt>
      <trkpt lat="45.7065" lon="4.58056">
        <ele>743.2</ele>
        <time>2025-04-30T14:03:31Z</time>
      </trkpt>
      <trkpt lat="45.70649" lon="4.58053">
        <ele>743.4</ele>
        <time>2025-04-30T14:03:32Z</time>
      </trkpt>
      <trkpt lat="45.70648" lon="4.58049">
        <ele>743.6</ele>
        <time>2025-04-30T14:03:33Z</time>
      </trkpt>
      <trkpt lat="45.70647" lon="4.58045">
        <ele>743.8</ele>
        <time>2025-04-30T14:03:34Z</time>
      </trkpt>
      <trkpt lat="45.70645" lon="4.58041">
        <ele>744</ele>
        <time>2025-04-30T14:03:35Z</time>
      </trkpt>
      <trkpt lat="45.70643" lon="4.58039">
        <ele>744.2</ele>
        <time>2025-04-30T14:03:36Z</time>
      </trkpt>
      <trkpt lat="45.70642" lon="4.58035">
        <ele>744.4</ele>
        <time>2025-04-30T14:03:37Z</time>
      </trkpt>
      <trkpt lat="45.70641" lon="4.58032">
        <ele>744.8</ele>
        <time>2025-04-30T14:03:38Z</time>
      </trkpt>
      <trkpt lat="45.7064" lon="4.58029">
        <ele>745</ele>
        <time>2025-04-30T14:03:39Z</time>
      </trkpt>
      <trkpt lat="45.70638" lon="4.58025">
        <ele>745.2</ele>
        <time>2025-04-30T14:03:40Z</time>
      </trkpt>
      <trkpt lat="45.70637" lon="4.58023">
        <ele>745.4</ele>
        <time>2025-04-30T14:03:41Z</time>
      </trkpt>
      <trkpt lat="45.70636" lon="4.58019">
        <ele>745.8</ele>
        <time>2025-04-30T14:03:42Z</time>
      </trkpt>
      <trkpt lat="45.70634" lon="4.58015">
        <ele>746</ele>
        <time>2025-04-30T14:03:43Z</time>
      </trkpt>
      <trkpt lat="45.70633" lon="4.58012">
        <ele>746.4</ele>
        <time>2025-04-30T14:03:44Z</time>
      </trkpt>
      <trkpt lat="45.70631" lon="4.58008">
        <ele>746.6</ele>
        <time>2025-04-30T14:03:45Z</time>
      </trkpt>
      <trkpt lat="45.7063" lon="4.58004">
        <ele>746.8</ele>
        <time>2025-04-30T14:03:46Z</time>
      </trkpt>
      <trkpt lat="45.70628" lon="4.58001">
        <ele>747.2</ele>
        <time>2025-04-30T14:03:47Z</time>
      </trkpt>
      <trkpt lat="45.70626" lon="4.57998">
        <ele>747.6</ele>
        <time>2025-04-30T14:03:48Z</time>
      </trkpt>
      <trkpt lat="45.70624" lon="4.57994">
        <ele>747.8</ele>
        <time>2025-04-30T14:03:49Z</time>
      </trkpt>
      <trkpt lat="45.70623" lon="4.57991">
        <ele>748.2</ele>
        <time>2025-04-30T14:03:50Z</time>
      </trkpt>
      <trkpt lat="45.70622" lon="4.57987">
        <ele>748.4</ele>
        <time>2025-04-30T14:03:51Z</time>
      </trkpt>
      <trkpt lat="45.7062" lon="4.57983">
        <ele>748.8</ele>
        <time>2025-04-30T14:03:52Z</time>
      </trkpt>
      <trkpt lat="45.70619" lon="4.57981">
        <ele>749</ele>
        <time>2025-04-30T14:03:53Z</time>
      </trkpt>
      <trkpt lat="45.70617" lon="4.57977">
        <ele>749.4</ele>
        <time>2025-04-30T14:03:54Z</time>
      </trkpt>
      <trkpt lat="45.70615" lon="4.57974">
        <ele>749.8</ele>
        <time>2025-04-30T14:03:55Z</time>
      </trkpt>
      <trkpt lat="45.70613" lon="4.5797">
        <ele>750.2</ele>
        <time>2025-04-30T14:03:56Z</time>
      </trkpt>
      <trkpt lat="45.70612" lon="4.57967">
        <ele>750.6</ele>
        <time>2025-04-30T14:03:57Z</time>
      </trkpt>
      <trkpt lat="45.7061" lon="4.57963">
        <ele>750.8</ele>
        <time>2025-04-30T14:03:58Z</time>
      </trkpt>
      <trkpt lat="45.70608" lon="4.5796">
        <ele>751</ele>
        <time>2025-04-30T14:03:59Z</time>
      </trkpt>
      <trkpt lat="45.70607" lon="4.57957">
        <ele>751.2</ele>
        <time>2025-04-30T14:04:00Z</time>
      </trkpt>
      <trkpt lat="45.70605" lon="4.57953">
        <ele>751.4</ele>
        <time>2025-04-30T14:04:01Z</time>
      </trkpt>
      <trkpt lat="45.70603" lon="4.5795">
        <ele>751.6</ele>
        <time>2025-04-30T14:04:02Z</time>
      </trkpt>
      <trkpt lat="45.70602" lon="4.57947">
        <ele>752</ele>
        <time>2025-04-30T14:04:03Z</time>
      </trkpt>
      <trkpt lat="45.70601" lon="4.57943">
        <ele>752.4</ele>
        <time>2025-04-30T14:04:04Z</time>
      </trkpt>
      <trkpt lat="45.70599" lon="4.5794">
        <ele>752.6</ele>
        <time>2025-04-30T14:04:05Z</time>
      </trkpt>
      <trkpt lat="45.70597" lon="4.57937">
        <ele>752.8</ele>
        <time>2025-04-30T14:04:06Z</time>
      </trkpt>
      <trkpt lat="45.70594" lon="4.57933">
        <ele>753.2</ele>
        <time>2025-04-30T14:04:07Z</time>
      </trkpt>
      <trkpt lat="45.70592" lon="4.57929">
        <ele>753.4</ele>
        <time>2025-04-30T14:04:08Z</time>
      </trkpt>
      <trkpt lat="45.70591" lon="4.57926">
        <ele>753.8</ele>
        <time>2025-04-30T14:04:09Z</time>
      </trkpt>
      <trkpt lat="45.70589" lon="4.57922">
        <ele>754.2</ele>
        <time>2025-04-30T14:04:10Z</time>
      </trkpt>
      <trkpt lat="45.70587" lon="4.57919">
        <ele>754.4</ele>
        <time>2025-04-30T14:04:11Z</time>
      </trkpt>
      <trkpt lat="45.70585" lon="4.57916">
        <ele>754.6</ele>
        <time>2025-04-30T14:04:12Z</time>
      </trkpt>
      <trkpt lat="45.70583" lon="4.57912">
        <ele>755</ele>
        <time>2025-04-30T14:04:13Z</time>
      </trkpt>
      <trkpt lat="45.70581" lon="4.57909">
        <ele>755.4</ele>
        <time>2025-04-30T14:04:14Z</time>
      </trkpt>
      <trkpt lat="45.70579" lon="4.57906">
        <ele>755.6</ele>
        <time>2025-04-30T14:04:15Z</time>
      </trkpt>
      <trkpt lat="45.70578" lon="4.57902">
        <ele>756</ele>
        <time>2025-04-30T14:04:16Z</time>
      </trkpt>
      <trkpt lat="45.70575" lon="4.57899">
        <ele>756.2</ele>
        <time>2025-04-30T14:04:17Z</time>
      </trkpt>
      <trkpt lat="45.70574" lon="4.57896">
        <ele>756.6</ele>
        <time>2025-04-30T14:04:18Z</time>
      </trkpt>
      <trkpt lat="45.70572" lon="4.57892">
        <ele>756.8</ele>
        <time>2025-04-30T14:04:19Z</time>
      </trkpt>
      <trkpt lat="45.7057" lon="4.5789">
        <ele>757</ele>
        <time>2025-04-30T14:04:20Z</time>
      </trkpt>
      <trkpt lat="45.70569" lon="4.57886">
        <ele>757.2</ele>
        <time>2025-04-30T14:04:21Z</time>
      </trkpt>
      <trkpt lat="45.70567" lon="4.57882">
        <ele>757.6</ele>
        <time>2025-04-30T14:04:22Z</time>
      </trkpt>
      <trkpt lat="45.70565" lon="4.57879">
        <ele>758.2</ele>
        <time>2025-04-30T14:04:23Z</time>
      </trkpt>
      <trkpt lat="45.70564" lon="4.57877">
        <ele>758.4</ele>
        <time>2025-04-30T14:04:24Z</time>
      </trkpt>
      <trkpt lat="45.70562" lon="4.57874">
        <ele>758.6</ele>
        <time>2025-04-30T14:04:25Z</time>
      </trkpt>
      <trkpt lat="45.7056" lon="4.57871">
        <ele>759</ele>
        <time>2025-04-30T14:04:26Z</time>
      </trkpt>
      <trkpt lat="45.70558" lon="4.57869">
        <ele>759.4</ele>
        <time>2025-04-30T14:04:27Z</time>
      </trkpt>
      <trkpt lat="45.70556" lon="4.57866">
        <ele>759.8</ele>
        <time>2025-04-30T14:04:28Z</time>
      </trkpt>
      <trkpt lat="45.70555" lon="4.57864">
        <ele>760.2</ele>
        <time>2025-04-30T14:04:29Z</time>
      </trkpt>
      <trkpt lat="45.70553" lon="4.57861">
        <ele>760.4</ele>
        <time>2025-04-30T14:04:30Z</time>
      </trkpt>
      <trkpt lat="45.70551" lon="4.57857">
        <ele>760.8</ele>
        <time>2025-04-30T14:04:31Z</time>
      </trkpt>
      <trkpt lat="45.7055" lon="4.57855">
        <ele>761</ele>
        <time>2025-04-30T14:04:32Z</time>
      </trkpt>
      <trkpt lat="45.70548" lon="4.57852">
        <ele>761.4</ele>
        <time>2025-04-30T14:04:33Z</time>
      </trkpt>
      <trkpt lat="45.70545" lon="4.57849">
        <ele>761.6</ele>
        <time>2025-04-30T14:04:34Z</time>
      </trkpt>
      <trkpt lat="45.70544" lon="4.57845">
        <ele>761.8</ele>
        <time>2025-04-30T14:04:35Z</time>
      </trkpt>
      <trkpt lat="45.70542" lon="4.57842">
        <ele>762</ele>
        <time>2025-04-30T14:04:36Z</time>
      </trkpt>
      <trkpt lat="45.7054" lon="4.57839">
        <ele>762.2</ele>
        <time>2025-04-30T14:04:37Z</time>
      </trkpt>
      <trkpt lat="45.70539" lon="4.57836">
        <ele>762.4</ele>
        <time>2025-04-30T14:04:38Z</time>
      </trkpt>
      <trkpt lat="45.70537" lon="4.57833">
        <ele>762.8</ele>
        <time>2025-04-30T14:04:39Z</time>
      </trkpt>
      <trkpt lat="45.70534" lon="4.57829">
        <ele>762.8</ele>
        <time>2025-04-30T14:04:40Z</time>
      </trkpt>
      <trkpt lat="45.70533" lon="4.57826">
        <ele>763.2</ele>
        <time>2025-04-30T14:04:41Z</time>
      </trkpt>
      <trkpt lat="45.70532" lon="4.57823">
        <ele>763.2</ele>
        <time>2025-04-30T14:04:42Z</time>
      </trkpt>
      <trkpt lat="45.7053" lon="4.5782">
        <ele>763.4</ele>
        <time>2025-04-30T14:04:43Z</time>
      </trkpt>
      <trkpt lat="45.70528" lon="4.57817">
        <ele>763.6</ele>
        <time>2025-04-30T14:04:44Z</time>
      </trkpt>
      <trkpt lat="45.70526" lon="4.57814">
        <ele>763.6</ele>
        <time>2025-04-30T14:04:45Z</time>
      </trkpt>
      <trkpt lat="45.70524" lon="4.5781">
        <ele>763.6</ele>
        <time>2025-04-30T14:04:46Z</time>
      </trkpt>
      <trkpt lat="45.70523" lon="4.57808">
        <ele>763.8</ele>
        <time>2025-04-30T14:04:47Z</time>
      </trkpt>
      <trkpt lat="45.70522" lon="4.57805">
        <ele>764</ele>
        <time>2025-04-30T14:04:48Z</time>
      </trkpt>
      <trkpt lat="45.7052" lon="4.57802">
        <ele>764.4</ele>
        <time>2025-04-30T14:04:49Z</time>
      </trkpt>
      <trkpt lat="45.70519" lon="4.57799">
        <ele>764.6</ele>
        <time>2025-04-30T14:04:50Z</time>
      </trkpt>
      <trkpt lat="45.70517" lon="4.57797">
        <ele>765</ele>
        <time>2025-04-30T14:04:51Z</time>
      </trkpt>
      <trkpt lat="45.70514" lon="4.57793">
        <ele>765.2</ele>
        <time>2025-04-30T14:04:52Z</time>
      </trkpt>
      <trkpt lat="45.70513" lon="4.57789">
        <ele>765.4</ele>
        <time>2025-04-30T14:04:53Z</time>
      </trkpt>
      <trkpt lat="45.70511" lon="4.57787">
        <ele>765.6</ele>
        <time>2025-04-30T14:04:54Z</time>
      </trkpt>
      <trkpt lat="45.7051" lon="4.57783">
        <ele>765.8</ele>
        <time>2025-04-30T14:04:55Z</time>
      </trkpt>
      <trkpt lat="45.70508" lon="4.5778">
        <ele>766</ele>
        <time>2025-04-30T14:04:56Z</time>
      </trkpt>
      <trkpt lat="45.70506" lon="4.57776">
        <ele>766.2</ele>
        <time>2025-04-30T14:04:57Z</time>
      </trkpt>
      <trkpt lat="45.70505" lon="4.57773">
        <ele>766.4</ele>
        <time>2025-04-30T14:04:58Z</time>
      </trkpt>
      <trkpt lat="45.70504" lon="4.5777">
        <ele>766.8</ele>
        <time>2025-04-30T14:04:59Z</time>
      </trkpt>
      <trkpt lat="45.70503" lon="4.57767">
        <ele>767</ele>
        <time>2025-04-30T14:05:00Z</time>
      </trkpt>
      <trkpt lat="45.70502" lon="4.57764">
        <ele>767.2</ele>
        <time>2025-04-30T14:05:01Z</time>
      </trkpt>
      <trkpt lat="45.70501" lon="4.57761">
        <ele>767.6</ele>
        <time>2025-04-30T14:05:02Z</time>
      </trkpt>
      <trkpt lat="45.705" lon="4.57758">
        <ele>767.8</ele>
        <time>2025-04-30T14:05:03Z</time>
      </trkpt>
      <trkpt lat="45.70498" lon="4.57754">
        <ele>768</ele>
        <time>2025-04-30T14:05:04Z</time>
      </trkpt>
      <trkpt lat="45.70496" lon="4.57751">
        <ele>768.2</ele>
        <time>2025-04-30T14:05:05Z</time>
      </trkpt>
      <trkpt lat="45.70495" lon="4.57748">
        <ele>768.2</ele>
        <time>2025-04-30T14:05:06Z</time>
      </trkpt>
      <trkpt lat="45.70493" lon="4.57744">
        <ele>768.6</ele>
        <time>2025-04-30T14:05:07Z</time>
      </trkpt>
      <trkpt lat="45.70491" lon="4.57741">
        <ele>768.6</ele>
        <time>2025-04-30T14:05:08Z</time>
      </trkpt>
      <trkpt lat="45.7049" lon="4.57738">
        <ele>768.8</ele>
        <time>2025-04-30T14:05:09Z</time>
      </trkpt>
      <trkpt lat="45.70488" lon="4.57735">
        <ele>769</ele>
        <time>2025-04-30T14:05:10Z</time>
      </trkpt>
      <trkpt lat="45.70487" lon="4.57731">
        <ele>769.2</ele>
        <time>2025-04-30T14:05:11Z</time>
      </trkpt>
      <trkpt lat="45.70485" lon="4.57729">
        <ele>769.4</ele>
        <time>2025-04-30T14:05:12Z</time>
      </trkpt>
      <trkpt lat="45.70483" lon="4.57725">
        <ele>769.8</ele>
        <time>2025-04-30T14:05:13Z</time>
      </trkpt>
      <trkpt lat="45.70482" lon="4.57723">
        <ele>770</ele>
        <time>2025-04-30T14:05:14Z</time>
      </trkpt>
      <trkpt lat="45.70481" lon="4.57722">
        <ele>770.2</ele>
        <time>2025-04-30T14:05:15Z</time>
      </trkpt>
      <trkpt lat="45.7048" lon="4.57719">
        <ele>770.6</ele>
        <time>2025-04-30T14:05:16Z</time>
      </trkpt>
      <trkpt lat="45.70479" lon="4.57716">
        <ele>770.8</ele>
        <time>2025-04-30T14:05:17Z</time>
      </trkpt>
      <trkpt lat="45.70478" lon="4.57715">
        <ele>771</ele>
        <time>2025-04-30T14:05:18Z</time>
      </trkpt>
      <trkpt lat="45.70477" lon="4.57712">
        <ele>771.2</ele>
        <time>2025-04-30T14:05:19Z</time>
      </trkpt>
      <trkpt lat="45.70476" lon="4.5771">
        <ele>771.4</ele>
        <time>2025-04-30T14:05:20Z</time>
      </trkpt>
      <trkpt lat="45.70475" lon="4.57708">
        <ele>771.6</ele>
        <time>2025-04-30T14:05:21Z</time>
      </trkpt>
      <trkpt lat="45.70473" lon="4.57705">
        <ele>772</ele>
        <time>2025-04-30T14:05:22Z</time>
      </trkpt>
      <trkpt lat="45.70472" lon="4.57703">
        <ele>772.4</ele>
        <time>2025-04-30T14:05:23Z</time>
      </trkpt>
      <trkpt lat="45.70471" lon="4.57701">
        <ele>772.4</ele>
        <time>2025-04-30T14:05:24Z</time>
      </trkpt>
      <trkpt lat="45.70469" lon="4.57699">
        <ele>772.4</ele>
        <time>2025-04-30T14:05:25Z</time>
      </trkpt>
      <trkpt lat="45.70468" lon="4.57697">
        <ele>772.4</ele>
        <time>2025-04-30T14:05:26Z</time>
      </trkpt>
      <trkpt lat="45.70467" lon="4.57696">
        <ele>772.6</ele>
        <time>2025-04-30T14:05:27Z</time>
      </trkpt>
      <trkpt lat="45.70465" lon="4.57694">
        <ele>772.8</ele>
        <time>2025-04-30T14:05:28Z</time>
      </trkpt>
      <trkpt lat="45.70464" lon="4.57691">
        <ele>772.8</ele>
        <time>2025-04-30T14:05:29Z</time>
      </trkpt>
      <trkpt lat="45.70462" lon="4.57688">
        <ele>773</ele>
        <time>2025-04-30T14:05:30Z</time>
      </trkpt>
      <trkpt lat="45.7046" lon="4.57685">
        <ele>773.4</ele>
        <time>2025-04-30T14:05:31Z</time>
      </trkpt>
      <trkpt lat="45.70458" lon="4.57683">
        <ele>773.6</ele>
        <time>2025-04-30T14:05:32Z</time>
      </trkpt>
      <trkpt lat="45.70457" lon="4.5768">
        <ele>773.8</ele>
        <time>2025-04-30T14:05:33Z</time>
      </trkpt>
      <trkpt lat="45.70456" lon="4.57678">
        <ele>774.2</ele>
        <time>2025-04-30T14:05:34Z</time>
      </trkpt>
      <trkpt lat="45.70454" lon="4.57675">
        <ele>774.4</ele>
        <time>2025-04-30T14:05:35Z</time>
      </trkpt>
      <trkpt lat="45.70453" lon="4.57673">
        <ele>774.8</ele>
        <time>2025-04-30T14:05:36Z</time>
      </trkpt>
      <trkpt lat="45.70451" lon="4.5767">
        <ele>775.4</ele>
        <time>2025-04-30T14:05:37Z</time>
      </trkpt>
      <trkpt lat="45.7045" lon="4.57667">
        <ele>775.6</ele>
        <time>2025-04-30T14:05:38Z</time>
      </trkpt>
      <trkpt lat="45.70449" lon="4.57665">
        <ele>775.8</ele>
        <time>2025-04-30T14:05:39Z</time>
      </trkpt>
      <trkpt lat="45.70447" lon="4.57661">
        <ele>776</ele>
        <time>2025-04-30T14:05:40Z</time>
      </trkpt>
      <trkpt lat="45.70446" lon="4.57658">
        <ele>776.6</ele>
        <time>2025-04-30T14:05:41Z</time>
      </trkpt>
      <trkpt lat="45.70444" lon="4.57655">
        <ele>776.8</ele>
        <time>2025-04-30T14:05:42Z</time>
      </trkpt>
      <trkpt lat="45.70443" lon="4.57652">
        <ele>777</ele>
        <time>2025-04-30T14:05:43Z</time>
      </trkpt>
      <trkpt lat="45.70441" lon="4.57649">
        <ele>777.4</ele>
        <time>2025-04-30T14:05:44Z</time>
      </trkpt>
      <trkpt lat="45.7044" lon="4.57647">
        <ele>777.6</ele>
        <time>2025-04-30T14:05:45Z</time>
      </trkpt>
      <trkpt lat="45.70438" lon="4.57644">
        <ele>778</ele>
        <time>2025-04-30T14:05:46Z</time>
      </trkpt>
      <trkpt lat="45.70436" lon="4.57641">
        <ele>778</ele>
        <time>2025-04-30T14:05:47Z</time>
      </trkpt>
      <trkpt lat="45.70434" lon="4.57638">
        <ele>778.4</ele>
        <time>2025-04-30T14:05:48Z</time>
      </trkpt>
      <trkpt lat="45.70432" lon="4.57635">
        <ele>778.6</ele>
        <time>2025-04-30T14:05:49Z</time>
      </trkpt>
      <trkpt lat="45.7043" lon="4.57633">
        <ele>778.8</ele>
        <time>2025-04-30T14:05:50Z</time>
      </trkpt>
      <trkpt lat="45.70429" lon="4.5763">
        <ele>779.2</ele>
        <time>2025-04-30T14:05:51Z</time>
      </trkpt>
      <trkpt lat="45.70427" lon="4.57628">
        <ele>779.4</ele>
        <time>2025-04-30T14:05:52Z</time>
      </trkpt>
      <trkpt lat="45.70426" lon="4.57626">
        <ele>780</ele>
        <time>2025-04-30T14:05:53Z</time>
      </trkpt>
      <trkpt lat="45.70424" lon="4.57624">
        <ele>780.4</ele>
        <time>2025-04-30T14:05:54Z</time>
      </trkpt>
      <trkpt lat="45.70423" lon="4.57623">
        <ele>781</ele>
        <time>2025-04-30T14:05:55Z</time>
      </trkpt>
      <trkpt lat="45.70421" lon="4.57621">
        <ele>781.4</ele>
        <time>2025-04-30T14:05:56Z</time>
      </trkpt>
      <trkpt lat="45.7042" lon="4.57619">
        <ele>781.6</ele>
        <time>2025-04-30T14:05:57Z</time>
      </trkpt>
      <trkpt lat="45.70418" lon="4.57618">
        <ele>782</ele>
        <time>2025-04-30T14:05:58Z</time>
      </trkpt>
      <trkpt lat="45.70417" lon="4.57616">
        <ele>782.4</ele>
        <time>2025-04-30T14:05:59Z</time>
      </trkpt>
      <trkpt lat="45.70415" lon="4.57614">
        <ele>782.8</ele>
        <time>2025-04-30T14:06:00Z</time>
      </trkpt>
      <trkpt lat="45.70414" lon="4.57611">
        <ele>783</ele>
        <time>2025-04-30T14:06:01Z</time>
      </trkpt>
      <trkpt lat="45.70412" lon="4.57609">
        <ele>783.2</ele>
        <time>2025-04-30T14:06:02Z</time>
      </trkpt>
      <trkpt lat="45.70411" lon="4.57608">
        <ele>783.4</ele>
        <time>2025-04-30T14:06:03Z</time>
      </trkpt>
      <trkpt lat="45.70408" lon="4.57606">
        <ele>783.6</ele>
        <time>2025-04-30T14:06:04Z</time>
      </trkpt>
      <trkpt lat="45.70407" lon="4.57604">
        <ele>784</ele>
        <time>2025-04-30T14:06:05Z</time>
      </trkpt>
      <trkpt lat="45.70406" lon="4.57602">
        <ele>784.2</ele>
        <time>2025-04-30T14:06:06Z</time>
      </trkpt>
      <trkpt lat="45.70404" lon="4.57599">
        <ele>784.6</ele>
        <time>2025-04-30T14:06:07Z</time>
      </trkpt>
      <trkpt lat="45.70403" lon="4.57597">
        <ele>785</ele>
        <time>2025-04-30T14:06:08Z</time>
      </trkpt>
      <trkpt lat="45.70402" lon="4.57596">
        <ele>785.4</ele>
        <time>2025-04-30T14:06:09Z</time>
      </trkpt>
      <trkpt lat="45.70401" lon="4.57593">
        <ele>785.8</ele>
        <time>2025-04-30T14:06:10Z</time>
      </trkpt>
      <trkpt lat="45.704" lon="4.57591">
        <ele>786.2</ele>
        <time>2025-04-30T14:06:11Z</time>
      </trkpt>
      <trkpt lat="45.704" lon="4.57589">
        <ele>786.6</ele>
        <time>2025-04-30T14:06:12Z</time>
      </trkpt>
      <trkpt lat="45.70398" lon="4.57587">
        <ele>787</ele>
        <time>2025-04-30T14:06:13Z</time>
      </trkpt>
      <trkpt lat="45.70398" lon="4.57584">
        <ele>787.2</ele>
        <time>2025-04-30T14:06:14Z</time>
      </trkpt>
      <trkpt lat="45.70397" lon="4.57582">
        <ele>787.6</ele>
        <time>2025-04-30T14:06:15Z</time>
      </trkpt>
      <trkpt lat="45.70396" lon="4.57579">
        <ele>788</ele>
        <time>2025-04-30T14:06:16Z</time>
      </trkpt>
      <trkpt lat="45.70396" lon="4.57576">
        <ele>788.2</ele>
        <time>2025-04-30T14:06:17Z</time>
      </trkpt>
      <trkpt lat="45.70396" lon="4.57573">
        <ele>788.4</ele>
        <time>2025-04-30T14:06:18Z</time>
      </trkpt>
      <trkpt lat="45.70396" lon="4.5757">
        <ele>788.6</ele>
        <time>2025-04-30T14:06:19Z</time>
      </trkpt>
      <trkpt lat="45.70395" lon="4.57567">
        <ele>788.8</ele>
        <time>2025-04-30T14:06:20Z</time>
      </trkpt>
      <trkpt lat="45.70395" lon="4.57564">
        <ele>789</ele>
        <time>2025-04-30T14:06:21Z</time>
      </trkpt>
      <trkpt lat="45.70394" lon="4.57561">
        <ele>789.2</ele>
        <time>2025-04-30T14:06:22Z</time>
      </trkpt>
      <trkpt lat="45.70393" lon="4.57558">
        <ele>789.6</ele>
        <time>2025-04-30T14:06:23Z</time>
      </trkpt>
      <trkpt lat="45.70392" lon="4.57556">
        <ele>789.6</ele>
        <time>2025-04-30T14:06:24Z</time>
      </trkpt>
      <trkpt lat="45.70391" lon="4.57552">
        <ele>789.8</ele>
        <time>2025-04-30T14:06:25Z</time>
      </trkpt>
      <trkpt lat="45.70391" lon="4.57549">
        <ele>790.2</ele>
        <time>2025-04-30T14:06:26Z</time>
      </trkpt>
      <trkpt lat="45.7039" lon="4.57546">
        <ele>790.4</ele>
        <time>2025-04-30T14:06:27Z</time>
      </trkpt>
      <trkpt lat="45.70389" lon="4.57543">
        <ele>790.6</ele>
        <time>2025-04-30T14:06:28Z</time>
      </trkpt>
      <trkpt lat="45.70388" lon="4.5754">
        <ele>791</ele>
        <time>2025-04-30T14:06:29Z</time>
      </trkpt>
      <trkpt lat="45.70387" lon="4.57537">
        <ele>791.2</ele>
        <time>2025-04-30T14:06:30Z</time>
      </trkpt>
      <trkpt lat="45.70387" lon="4.57534">
        <ele>791.4</ele>
        <time>2025-04-30T14:06:31Z</time>
      </trkpt>
      <trkpt lat="45.70387" lon="4.5753">
        <ele>791.6</ele>
        <time>2025-04-30T14:06:32Z</time>
      </trkpt>
      <trkpt lat="45.70386" lon="4.57527">
        <ele>791.8</ele>
        <time>2025-04-30T14:06:33Z</time>
      </trkpt>
      <trkpt lat="45.70385" lon="4.57524">
        <ele>792.2</ele>
        <time>2025-04-30T14:06:34Z</time>
      </trkpt>
      <trkpt lat="45.70383" lon="4.57521">
        <ele>792.4</ele>
        <time>2025-04-30T14:06:35Z</time>
      </trkpt>
      <trkpt lat="45.70382" lon="4.57519">
        <ele>792.8</ele>
        <time>2025-04-30T14:06:36Z</time>
      </trkpt>
      <trkpt lat="45.70381" lon="4.57516">
        <ele>793</ele>
        <time>2025-04-30T14:06:37Z</time>
      </trkpt>
      <trkpt lat="45.70379" lon="4.57512">
        <ele>793.4</ele>
        <time>2025-04-30T14:06:38Z</time>
      </trkpt>
      <trkpt lat="45.70378" lon="4.5751">
        <ele>793.6</ele>
        <time>2025-04-30T14:06:39Z</time>
      </trkpt>
      <trkpt lat="45.70378" lon="4.57506">
        <ele>793.6</ele>
        <time>2025-04-30T14:06:40Z</time>
      </trkpt>
      <trkpt lat="45.70377" lon="4.57503">
        <ele>794</ele>
        <time>2025-04-30T14:06:41Z</time>
      </trkpt>
      <trkpt lat="45.70376" lon="4.575">
        <ele>794.2</ele>
        <time>2025-04-30T14:06:42Z</time>
      </trkpt>
      <trkpt lat="45.70375" lon="4.57498">
        <ele>794.4</ele>
        <time>2025-04-30T14:06:43Z</time>
      </trkpt>
      <trkpt lat="45.70374" lon="4.57496">
        <ele>795</ele>
        <time>2025-04-30T14:06:44Z</time>
      </trkpt>
      <trkpt lat="45.70373" lon="4.57493">
        <ele>795.2</ele>
        <time>2025-04-30T14:06:45Z</time>
      </trkpt>
      <trkpt lat="45.70373" lon="4.57491">
        <ele>795.6</ele>
        <time>2025-04-30T14:06:46Z</time>
      </trkpt>
      <trkpt lat="45.70372" lon="4.57487">
        <ele>796</ele>
        <time>2025-04-30T14:06:47Z</time>
      </trkpt>
      <trkpt lat="45.70372" lon="4.57484">
        <ele>796.2</ele>
        <time>2025-04-30T14:06:48Z</time>
      </trkpt>
      <trkpt lat="45.70372" lon="4.57481">
        <ele>796.6</ele>
        <time>2025-04-30T14:06:49Z</time>
      </trkpt>
      <trkpt lat="45.70372" lon="4.57477">
        <ele>796.8</ele>
        <time>2025-04-30T14:06:50Z</time>
      </trkpt>
      <trkpt lat="45.70371" lon="4.57474">
        <ele>797.2</ele>
        <time>2025-04-30T14:06:51Z</time>
      </trkpt>
      <trkpt lat="45.7037" lon="4.57471">
        <ele>797.4</ele>
        <time>2025-04-30T14:06:52Z</time>
      </trkpt>
      <trkpt lat="45.70369" lon="4.57467">
        <ele>797.6</ele>
        <time>2025-04-30T14:06:53Z</time>
      </trkpt>
      <trkpt lat="45.70368" lon="4.57464">
        <ele>797.8</ele>
        <time>2025-04-30T14:06:54Z</time>
      </trkpt>
      <trkpt lat="45.70367" lon="4.57459">
        <ele>798</ele>
        <time>2025-04-30T14:06:55Z</time>
      </trkpt>
      <trkpt lat="45.70366" lon="4.57455">
        <ele>798.2</ele>
        <time>2025-04-30T14:06:56Z</time>
      </trkpt>
      <trkpt lat="45.70365" lon="4.57452">
        <ele>798.4</ele>
        <time>2025-04-30T14:06:57Z</time>
      </trkpt>
      <trkpt lat="45.70365" lon="4.57449">
        <ele>798.6</ele>
        <time>2025-04-30T14:06:58Z</time>
      </trkpt>
      <trkpt lat="45.70365" lon="4.57444">
        <ele>798.8</ele>
        <time>2025-04-30T14:06:59Z</time>
      </trkpt>
      <trkpt lat="45.70364" lon="4.57441">
        <ele>799</ele>
        <time>2025-04-30T14:07:00Z</time>
      </trkpt>
      <trkpt lat="45.70364" lon="4.57436">
        <ele>799.4</ele>
        <time>2025-04-30T14:07:01Z</time>
      </trkpt>
      <trkpt lat="45.70364" lon="4.57432">
        <ele>799.4</ele>
        <time>2025-04-30T14:07:02Z</time>
      </trkpt>
      <trkpt lat="45.70364" lon="4.57428">
        <ele>799.6</ele>
        <time>2025-04-30T14:07:03Z</time>
      </trkpt>
      <trkpt lat="45.70363" lon="4.57424">
        <ele>799.6</ele>
        <time>2025-04-30T14:07:04Z</time>
      </trkpt>
      <trkpt lat="45.70363" lon="4.57421">
        <ele>799.8</ele>
        <time>2025-04-30T14:07:05Z</time>
      </trkpt>
      <trkpt lat="45.70363" lon="4.57419">
        <ele>800.2</ele>
        <time>2025-04-30T14:07:06Z</time>
      </trkpt>
      <trkpt lat="45.70362" lon="4.57416">
        <ele>800.4</ele>
        <time>2025-04-30T14:07:07Z</time>
      </trkpt>
      <trkpt lat="45.70362" lon="4.57413">
        <ele>800.6</ele>
        <time>2025-04-30T14:07:08Z</time>
      </trkpt>
      <trkpt lat="45.70361" lon="4.5741">
        <ele>800.8</ele>
        <time>2025-04-30T14:07:09Z</time>
      </trkpt>
      <trkpt lat="45.70361" lon="4.57406">
        <ele>801.2</ele>
        <time>2025-04-30T14:07:10Z</time>
      </trkpt>
      <trkpt lat="45.70361" lon="4.57402">
        <ele>801.6</ele>
        <time>2025-04-30T14:07:11Z</time>
      </trkpt>
      <trkpt lat="45.70361" lon="4.57398">
        <ele>801.6</ele>
        <time>2025-04-30T14:07:12Z</time>
      </trkpt>
      <trkpt lat="45.70361" lon="4.57394">
        <ele>801.8</ele>
        <time>2025-04-30T14:07:13Z</time>
      </trkpt>
      <trkpt lat="45.70361" lon="4.5739">
        <ele>801.8</ele>
        <time>2025-04-30T14:07:14Z</time>
      </trkpt>
      <trkpt lat="45.70361" lon="4.57386">
        <ele>801.8</ele>
        <time>2025-04-30T14:07:15Z</time>
      </trkpt>
      <trkpt lat="45.70361" lon="4.57382">
        <ele>802</ele>
        <time>2025-04-30T14:07:16Z</time>
      </trkpt>
      <trkpt lat="45.70361" lon="4.57377">
        <ele>802</ele>
        <time>2025-04-30T14:07:17Z</time>
      </trkpt>
      <trkpt lat="45.70361" lon="4.57373">
        <ele>802.2</ele>
        <time>2025-04-30T14:07:18Z</time>
      </trkpt>
      <trkpt lat="45.70362" lon="4.57369">
        <ele>802.2</ele>
        <time>2025-04-30T14:07:19Z</time>
      </trkpt>
      <trkpt lat="45.70362" lon="4.57365">
        <ele>802.4</ele>
        <time>2025-04-30T14:07:20Z</time>
      </trkpt>
      <trkpt lat="45.70362" lon="4.57361">
        <ele>802.4</ele>
        <time>2025-04-30T14:07:21Z</time>
      </trkpt>
      <trkpt lat="45.70362" lon="4.57357">
        <ele>802.6</ele>
        <time>2025-04-30T14:07:22Z</time>
      </trkpt>
      <trkpt lat="45.70363" lon="4.57354">
        <ele>802.8</ele>
        <time>2025-04-30T14:07:23Z</time>
      </trkpt>
      <trkpt lat="45.70364" lon="4.57351">
        <ele>803</ele>
        <time>2025-04-30T14:07:24Z</time>
      </trkpt>
      <trkpt lat="45.70364" lon="4.57348">
        <ele>803.2</ele>
        <time>2025-04-30T14:07:25Z</time>
      </trkpt>
      <trkpt lat="45.70365" lon="4.57345">
        <ele>803.4</ele>
        <time>2025-04-30T14:07:26Z</time>
      </trkpt>
      <trkpt lat="45.70365" lon="4.57342">
        <ele>803.6</ele>
        <time>2025-04-30T14:07:27Z</time>
      </trkpt>
      <trkpt lat="45.70365" lon="4.57338">
        <ele>804</ele>
        <time>2025-04-30T14:07:28Z</time>
      </trkpt>
      <trkpt lat="45.70365" lon="4.57333">
        <ele>804</ele>
        <time>2025-04-30T14:07:29Z</time>
      </trkpt>
      <trkpt lat="45.70366" lon="4.57329">
        <ele>804.2</ele>
        <time>2025-04-30T14:07:30Z</time>
      </trkpt>
      <trkpt lat="45.70366" lon="4.57326">
        <ele>804.2</ele>
        <time>2025-04-30T14:07:31Z</time>
      </trkpt>
      <trkpt lat="45.70367" lon="4.57322">
        <ele>804.4</ele>
        <time>2025-04-30T14:07:32Z</time>
      </trkpt>
      <trkpt lat="45.70367" lon="4.57319">
        <ele>804.6</ele>
        <time>2025-04-30T14:07:33Z</time>
      </trkpt>
      <trkpt lat="45.70368" lon="4.57315">
        <ele>804.6</ele>
        <time>2025-04-30T14:07:34Z</time>
      </trkpt>
      <trkpt lat="45.70368" lon="4.57311">
        <ele>805</ele>
        <time>2025-04-30T14:07:35Z</time>
      </trkpt>
      <trkpt lat="45.70368" lon="4.57308">
        <ele>805.2</ele>
        <time>2025-04-30T14:07:36Z</time>
      </trkpt>
      <trkpt lat="45.70368" lon="4.57304">
        <ele>805.2</ele>
        <time>2025-04-30T14:07:37Z</time>
      </trkpt>
      <trkpt lat="45.70368" lon="4.57301">
        <ele>805.4</ele>
        <time>2025-04-30T14:07:38Z</time>
      </trkpt>
      <trkpt lat="45.70368" lon="4.57298">
        <ele>805.8</ele>
        <time>2025-04-30T14:07:39Z</time>
      </trkpt>
      <trkpt lat="45.70368" lon="4.57294">
        <ele>805.8</ele>
        <time>2025-04-30T14:07:40Z</time>
      </trkpt>
      <trkpt lat="45.70368" lon="4.5729">
        <ele>806</ele>
        <time>2025-04-30T14:07:41Z</time>
      </trkpt>
      <trkpt lat="45.70368" lon="4.57286">
        <ele>806.4</ele>
        <time>2025-04-30T14:07:42Z</time>
      </trkpt>
      <trkpt lat="45.70368" lon="4.57283">
        <ele>806.6</ele>
        <time>2025-04-30T14:07:43Z</time>
      </trkpt>
      <trkpt lat="45.70369" lon="4.57279">
        <ele>806.8</ele>
        <time>2025-04-30T14:07:44Z</time>
      </trkpt>
      <trkpt lat="45.70369" lon="4.57277">
        <ele>807</ele>
        <time>2025-04-30T14:07:45Z</time>
      </trkpt>
      <trkpt lat="45.70369" lon="4.57273">
        <ele>807.2</ele>
        <time>2025-04-30T14:07:46Z</time>
      </trkpt>
      <trkpt lat="45.70369" lon="4.5727">
        <ele>807.4</ele>
        <time>2025-04-30T14:07:47Z</time>
      </trkpt>
      <trkpt lat="45.70369" lon="4.57266">
        <ele>807.6</ele>
        <time>2025-04-30T14:07:48Z</time>
      </trkpt>
      <trkpt lat="45.70369" lon="4.57263">
        <ele>807.8</ele>
        <time>2025-04-30T14:07:49Z</time>
      </trkpt>
      <trkpt lat="45.70369" lon="4.5726">
        <ele>808</ele>
        <time>2025-04-30T14:07:50Z</time>
      </trkpt>
      <trkpt lat="45.70369" lon="4.57257">
        <ele>808.2</ele>
        <time>2025-04-30T14:07:51Z</time>
      </trkpt>
      <trkpt lat="45.70369" lon="4.57252">
        <ele>808.4</ele>
        <time>2025-04-30T14:07:52Z</time>
      </trkpt>
      <trkpt lat="45.70369" lon="4.5725">
        <ele>808.6</ele>
        <time>2025-04-30T14:07:53Z</time>
      </trkpt>
      <trkpt lat="45.70369" lon="4.57246">
        <ele>808.8</ele>
        <time>2025-04-30T14:07:54Z</time>
      </trkpt>
      <trkpt lat="45.70369" lon="4.57243">
        <ele>809.2</ele>
        <time>2025-04-30T14:07:55Z</time>
      </trkpt>
      <trkpt lat="45.70369" lon="4.5724">
        <ele>809.2</ele>
        <time>2025-04-30T14:07:56Z</time>
      </trkpt>
      <trkpt lat="45.70368" lon="4.57236">
        <ele>809.4</ele>
        <time>2025-04-30T14:07:57Z</time>
      </trkpt>
      <trkpt lat="45.70369" lon="4.57233">
        <ele>809.4</ele>
        <time>2025-04-30T14:07:58Z</time>
      </trkpt>
      <trkpt lat="45.70369" lon="4.5723">
        <ele>809.6</ele>
        <time>2025-04-30T14:07:59Z</time>
      </trkpt>
      <trkpt lat="45.70369" lon="4.57227">
        <ele>809.8</ele>
        <time>2025-04-30T14:08:00Z</time>
      </trkpt>
      <trkpt lat="45.70368" lon="4.57223">
        <ele>810</ele>
        <time>2025-04-30T14:08:01Z</time>
      </trkpt>
      <trkpt lat="45.70368" lon="4.5722">
        <ele>810.4</ele>
        <time>2025-04-30T14:08:02Z</time>
      </trkpt>
      <trkpt lat="45.70368" lon="4.57217">
        <ele>810.4</ele>
        <time>2025-04-30T14:08:03Z</time>
      </trkpt>
      <trkpt lat="45.70368" lon="4.57214">
        <ele>810.6</ele>
        <time>2025-04-30T14:08:04Z</time>
      </trkpt>
      <trkpt lat="45.70369" lon="4.57211">
        <ele>810.8</ele>
        <time>2025-04-30T14:08:05Z</time>
      </trkpt>
      <trkpt lat="45.70369" lon="4.57208">
        <ele>811</ele>
        <time>2025-04-30T14:08:06Z</time>
      </trkpt>
      <trkpt lat="45.70369" lon="4.57206">
        <ele>811.4</ele>
        <time>2025-04-30T14:08:07Z</time>
      </trkpt>
      <trkpt lat="45.70369" lon="4.57205">
        <ele>811.4</ele>
        <time>2025-04-30T14:08:08Z</time>
      </trkpt>
      <trkpt lat="45.70369" lon="4.57203">
        <ele>811.6</ele>
        <time>2025-04-30T14:08:09Z</time>
      </trkpt>
      <trkpt lat="45.7037" lon="4.572">
        <ele>812</ele>
        <time>2025-04-30T14:08:10Z</time>
      </trkpt>
      <trkpt lat="45.7037" lon="4.57198">
        <ele>812.4</ele>
        <time>2025-04-30T14:08:11Z</time>
      </trkpt>
      <trkpt lat="45.70371" lon="4.57196">
        <ele>812.6</ele>
        <time>2025-04-30T14:08:12Z</time>
      </trkpt>
      <trkpt lat="45.70371" lon="4.57193">
        <ele>812.6</ele>
        <time>2025-04-30T14:08:13Z</time>
      </trkpt>
      <trkpt lat="45.70371" lon="4.5719">
        <ele>813</ele>
        <time>2025-04-30T14:08:14Z</time>
      </trkpt>
      <trkpt lat="45.7037" lon="4.57188">
        <ele>813.4</ele>
        <time>2025-04-30T14:08:15Z</time>
      </trkpt>
      <trkpt lat="45.7037" lon="4.57185">
        <ele>813.6</ele>
        <time>2025-04-30T14:08:16Z</time>
      </trkpt>
      <trkpt lat="45.7037" lon="4.57182">
        <ele>814</ele>
        <time>2025-04-30T14:08:17Z</time>
      </trkpt>
      <trkpt lat="45.7037" lon="4.57179">
        <ele>814.2</ele>
        <time>2025-04-30T14:08:18Z</time>
      </trkpt>
      <trkpt lat="45.7037" lon="4.57176">
        <ele>814.4</ele>
        <time>2025-04-30T14:08:19Z</time>
      </trkpt>
      <trkpt lat="45.70369" lon="4.57173">
        <ele>815</ele>
        <time>2025-04-30T14:08:20Z</time>
      </trkpt>
      <trkpt lat="45.70369" lon="4.5717">
        <ele>815.4</ele>
        <time>2025-04-30T14:08:21Z</time>
      </trkpt>
      <trkpt lat="45.70368" lon="4.57166">
        <ele>815.6</ele>
        <time>2025-04-30T14:08:22Z</time>
      </trkpt>
      <trkpt lat="45.70367" lon="4.57162">
        <ele>815.8</ele>
        <time>2025-04-30T14:08:23Z</time>
      </trkpt>
      <trkpt lat="45.70367" lon="4.57159">
        <ele>816</ele>
        <time>2025-04-30T14:08:24Z</time>
      </trkpt>
      <trkpt lat="45.70366" lon="4.57156">
        <ele>816.2</ele>
        <time>2025-04-30T14:08:25Z</time>
      </trkpt>
      <trkpt lat="45.70366" lon="4.57152">
        <ele>816.6</ele>
        <time>2025-04-30T14:08:26Z</time>
      </trkpt>
      <trkpt lat="45.70366" lon="4.57149">
        <ele>816.8</ele>
        <time>2025-04-30T14:08:27Z</time>
      </trkpt>
      <trkpt lat="45.70366" lon="4.57145">
        <ele>816.8</ele>
        <time>2025-04-30T14:08:28Z</time>
      </trkpt>
      <trkpt lat="45.70365" lon="4.57141">
        <ele>817</ele>
        <time>2025-04-30T14:08:29Z</time>
      </trkpt>
      <trkpt lat="45.70365" lon="4.57138">
        <ele>817.2</ele>
        <time>2025-04-30T14:08:30Z</time>
      </trkpt>
      <trkpt lat="45.70365" lon="4.57135">
        <ele>817.4</ele>
        <time>2025-04-30T14:08:31Z</time>
      </trkpt>
      <trkpt lat="45.70365" lon="4.57132">
        <ele>817.8</ele>
        <time>2025-04-30T14:08:32Z</time>
      </trkpt>
      <trkpt lat="45.70364" lon="4.57128">
        <ele>817.8</ele>
        <time>2025-04-30T14:08:33Z</time>
      </trkpt>
      <trkpt lat="45.70363" lon="4.57124">
        <ele>818</ele>
        <time>2025-04-30T14:08:34Z</time>
      </trkpt>
      <trkpt lat="45.70362" lon="4.5712">
        <ele>818.2</ele>
        <time>2025-04-30T14:08:35Z</time>
      </trkpt>
      <trkpt lat="45.70362" lon="4.57116">
        <ele>818.4</ele>
        <time>2025-04-30T14:08:36Z</time>
      </trkpt>
      <trkpt lat="45.70361" lon="4.57111">
        <ele>818.6</ele>
        <time>2025-04-30T14:08:37Z</time>
      </trkpt>
      <trkpt lat="45.7036" lon="4.57107">
        <ele>818.8</ele>
        <time>2025-04-30T14:08:38Z</time>
      </trkpt>
      <trkpt lat="45.70359" lon="4.57103">
        <ele>819.2</ele>
        <time>2025-04-30T14:08:39Z</time>
      </trkpt>
      <trkpt lat="45.70358" lon="4.571">
        <ele>819.6</ele>
        <time>2025-04-30T14:08:40Z</time>
      </trkpt>
      <trkpt lat="45.70357" lon="4.57096">
        <ele>820</ele>
        <time>2025-04-30T14:08:41Z</time>
      </trkpt>
      <trkpt lat="45.70356" lon="4.57091">
        <ele>820.2</ele>
        <time>2025-04-30T14:08:42Z</time>
      </trkpt>
      <trkpt lat="45.70355" lon="4.57087">
        <ele>820.4</ele>
        <time>2025-04-30T14:08:43Z</time>
      </trkpt>
      <trkpt lat="45.70355" lon="4.57084">
        <ele>820.8</ele>
        <time>2025-04-30T14:08:44Z</time>
      </trkpt>
      <trkpt lat="45.70355" lon="4.5708">
        <ele>821</ele>
        <time>2025-04-30T14:08:45Z</time>
      </trkpt>
      <trkpt lat="45.70355" lon="4.57076">
        <ele>821.2</ele>
        <time>2025-04-30T14:08:46Z</time>
      </trkpt>
      <trkpt lat="45.70354" lon="4.57072">
        <ele>821.6</ele>
        <time>2025-04-30T14:08:47Z</time>
      </trkpt>
      <trkpt lat="45.70353" lon="4.57067">
        <ele>821.8</ele>
        <time>2025-04-30T14:08:48Z</time>
      </trkpt>
      <trkpt lat="45.70352" lon="4.57063">
        <ele>822</ele>
        <time>2025-04-30T14:08:49Z</time>
      </trkpt>
      <trkpt lat="45.70351" lon="4.5706">
        <ele>822.2</ele>
        <time>2025-04-30T14:08:50Z</time>
      </trkpt>
      <trkpt lat="45.70351" lon="4.57057">
        <ele>822.6</ele>
        <time>2025-04-30T14:08:51Z</time>
      </trkpt>
      <trkpt lat="45.70352" lon="4.57054">
        <ele>823.2</ele>
        <time>2025-04-30T14:08:52Z</time>
      </trkpt>
      <trkpt lat="45.70352" lon="4.57051">
        <ele>823.4</ele>
        <time>2025-04-30T14:08:53Z</time>
      </trkpt>
      <trkpt lat="45.70351" lon="4.57048">
        <ele>824</ele>
        <time>2025-04-30T14:08:54Z</time>
      </trkpt>
      <trkpt lat="45.70351" lon="4.57046">
        <ele>824.2</ele>
        <time>2025-04-30T14:08:55Z</time>
      </trkpt>
      <trkpt lat="45.7035" lon="4.57042">
        <ele>824.4</ele>
        <time>2025-04-30T14:08:56Z</time>
      </trkpt>
      <trkpt lat="45.70349" lon="4.57039">
        <ele>824.6</ele>
        <time>2025-04-30T14:08:57Z</time>
      </trkpt>
      <trkpt lat="45.70348" lon="4.57036">
        <ele>824.8</ele>
        <time>2025-04-30T14:08:58Z</time>
      </trkpt>
      <trkpt lat="45.70347" lon="4.57033">
        <ele>825.2</ele>
        <time>2025-04-30T14:08:59Z</time>
      </trkpt>
      <trkpt lat="45.70347" lon="4.57031">
        <ele>825.4</ele>
        <time>2025-04-30T14:09:00Z</time>
      </trkpt>
      <trkpt lat="45.70347" lon="4.57029">
        <ele>825.6</ele>
        <time>2025-04-30T14:09:01Z</time>
      </trkpt>
      <trkpt lat="45.70347" lon="4.57026">
        <ele>825.8</ele>
        <time>2025-04-30T14:09:02Z</time>
      </trkpt>
      <trkpt lat="45.70347" lon="4.57022">
        <ele>826</ele>
        <time>2025-04-30T14:09:03Z</time>
      </trkpt>
      <trkpt lat="45.70347" lon="4.57018">
        <ele>826.2</ele>
        <time>2025-04-30T14:09:04Z</time>
      </trkpt>
      <trkpt lat="45.70346" lon="4.57015">
        <ele>826.2</ele>
        <time>2025-04-30T14:09:05Z</time>
      </trkpt>
      <trkpt lat="45.70345" lon="4.5701">
        <ele>826.4</ele>
        <time>2025-04-30T14:09:06Z</time>
      </trkpt>
      <trkpt lat="45.70344" lon="4.57007">
        <ele>826.6</ele>
        <time>2025-04-30T14:09:07Z</time>
      </trkpt>
      <trkpt lat="45.70344" lon="4.57004">
        <ele>826.8</ele>
        <time>2025-04-30T14:09:08Z</time>
      </trkpt>
      <trkpt lat="45.70343" lon="4.57">
        <ele>826.8</ele>
        <time>2025-04-30T14:09:09Z</time>
      </trkpt>
      <trkpt lat="45.70343" lon="4.56997">
        <ele>827</ele>
        <time>2025-04-30T14:09:10Z</time>
      </trkpt>
      <trkpt lat="45.70342" lon="4.56994">
        <ele>827.4</ele>
        <time>2025-04-30T14:09:11Z</time>
      </trkpt>
      <trkpt lat="45.70341" lon="4.56992">
        <ele>827.6</ele>
        <time>2025-04-30T14:09:12Z</time>
      </trkpt>
      <trkpt lat="45.7034" lon="4.5699">
        <ele>828</ele>
        <time>2025-04-30T14:09:13Z</time>
      </trkpt>
      <trkpt lat="45.7034" lon="4.56988">
        <ele>828.2</ele>
        <time>2025-04-30T14:09:14Z</time>
      </trkpt>
      <trkpt lat="45.7034" lon="4.56985">
        <ele>828.4</ele>
        <time>2025-04-30T14:09:15Z</time>
      </trkpt>
      <trkpt lat="45.7034" lon="4.56981">
        <ele>828.8</ele>
        <time>2025-04-30T14:09:16Z</time>
      </trkpt>
      <trkpt lat="45.70339" lon="4.56979">
        <ele>828.8</ele>
        <time>2025-04-30T14:09:17Z</time>
      </trkpt>
      <trkpt lat="45.70339" lon="4.56975">
        <ele>829</ele>
        <time>2025-04-30T14:09:18Z</time>
      </trkpt>
      <trkpt lat="45.70339" lon="4.56972">
        <ele>829.2</ele>
        <time>2025-04-30T14:09:19Z</time>
      </trkpt>
      <trkpt lat="45.70338" lon="4.5697">
        <ele>829.4</ele>
        <time>2025-04-30T14:09:20Z</time>
      </trkpt>
      <trkpt lat="45.70338" lon="4.56967">
        <ele>829.8</ele>
        <time>2025-04-30T14:09:21Z</time>
      </trkpt>
      <trkpt lat="45.70338" lon="4.56965">
        <ele>829.8</ele>
        <time>2025-04-30T14:09:22Z</time>
      </trkpt>
      <trkpt lat="45.70337" lon="4.56961">
        <ele>830</ele>
        <time>2025-04-30T14:09:23Z</time>
      </trkpt>
      <trkpt lat="45.70337" lon="4.56958">
        <ele>830.2</ele>
        <time>2025-04-30T14:09:24Z</time>
      </trkpt>
      <trkpt lat="45.70337" lon="4.56956">
        <ele>830.6</ele>
        <time>2025-04-30T14:09:25Z</time>
      </trkpt>
      <trkpt lat="45.70337" lon="4.56953">
        <ele>831</ele>
        <time>2025-04-30T14:09:26Z</time>
      </trkpt>
      <trkpt lat="45.70337" lon="4.5695">
        <ele>831</ele>
        <time>2025-04-30T14:09:27Z</time>
      </trkpt>
      <trkpt lat="45.70337" lon="4.56947">
        <ele>831.4</ele>
        <time>2025-04-30T14:09:28Z</time>
      </trkpt>
      <trkpt lat="45.70336" lon="4.56945">
        <ele>831.8</ele>
        <time>2025-04-30T14:09:29Z</time>
      </trkpt>
      <trkpt lat="45.70335" lon="4.56942">
        <ele>832</ele>
        <time>2025-04-30T14:09:30Z</time>
      </trkpt>
      <trkpt lat="45.70335" lon="4.5694">
        <ele>832.2</ele>
        <time>2025-04-30T14:09:31Z</time>
      </trkpt>
      <trkpt lat="45.70334" lon="4.56938">
        <ele>832.6</ele>
        <time>2025-04-30T14:09:32Z</time>
      </trkpt>
      <trkpt lat="45.70333" lon="4.56935">
        <ele>832.8</ele>
        <time>2025-04-30T14:09:33Z</time>
      </trkpt>
      <trkpt lat="45.70332" lon="4.56932">
        <ele>833.2</ele>
        <time>2025-04-30T14:09:34Z</time>
      </trkpt>
      <trkpt lat="45.70331" lon="4.56927">
        <ele>833.6</ele>
        <time>2025-04-30T14:09:35Z</time>
      </trkpt>
      <trkpt lat="45.7033" lon="4.56924">
        <ele>833.8</ele>
        <time>2025-04-30T14:09:36Z</time>
      </trkpt>
      <trkpt lat="45.70329" lon="4.5692">
        <ele>834</ele>
        <time>2025-04-30T14:09:37Z</time>
      </trkpt>
      <trkpt lat="45.70329" lon="4.56918">
        <ele>834.4</ele>
        <time>2025-04-30T14:09:38Z</time>
      </trkpt>
      <trkpt lat="45.70328" lon="4.56914">
        <ele>834.6</ele>
        <time>2025-04-30T14:09:39Z</time>
      </trkpt>
      <trkpt lat="45.70327" lon="4.56911">
        <ele>834.8</ele>
        <time>2025-04-30T14:09:40Z</time>
      </trkpt>
      <trkpt lat="45.70326" lon="4.56907">
        <ele>835.4</ele>
        <time>2025-04-30T14:09:41Z</time>
      </trkpt>
      <trkpt lat="45.70326" lon="4.56905">
        <ele>835.4</ele>
        <time>2025-04-30T14:09:42Z</time>
      </trkpt>
      <trkpt lat="45.70325" lon="4.56902">
        <ele>835.6</ele>
        <time>2025-04-30T14:09:43Z</time>
      </trkpt>
      <trkpt lat="45.70325" lon="4.56898">
        <ele>835.8</ele>
        <time>2025-04-30T14:09:44Z</time>
      </trkpt>
      <trkpt lat="45.70324" lon="4.56893">
        <ele>836</ele>
        <time>2025-04-30T14:09:45Z</time>
      </trkpt>
      <trkpt lat="45.70324" lon="4.56889">
        <ele>836.2</ele>
        <time>2025-04-30T14:09:46Z</time>
      </trkpt>
      <trkpt lat="45.70324" lon="4.56886">
        <ele>836.4</ele>
        <time>2025-04-30T14:09:47Z</time>
      </trkpt>
      <trkpt lat="45.70324" lon="4.56882">
        <ele>836.6</ele>
        <time>2025-04-30T14:09:48Z</time>
      </trkpt>
      <trkpt lat="45.70323" lon="4.56878">
        <ele>836.8</ele>
        <time>2025-04-30T14:09:49Z</time>
      </trkpt>
      <trkpt lat="45.70321" lon="4.56873">
        <ele>836.8</ele>
        <time>2025-04-30T14:09:50Z</time>
      </trkpt>
      <trkpt lat="45.70321" lon="4.56868">
        <ele>837</ele>
        <time>2025-04-30T14:09:51Z</time>
      </trkpt>
      <trkpt lat="45.70321" lon="4.56864">
        <ele>837.2</ele>
        <time>2025-04-30T14:09:52Z</time>
      </trkpt>
      <trkpt lat="45.7032" lon="4.5686">
        <ele>837.2</ele>
        <time>2025-04-30T14:09:53Z</time>
      </trkpt>
      <trkpt lat="45.7032" lon="4.56854">
        <ele>837.2</ele>
        <time>2025-04-30T14:09:54Z</time>
      </trkpt>
      <trkpt lat="45.70319" lon="4.5685">
        <ele>837.4</ele>
        <time>2025-04-30T14:09:55Z</time>
      </trkpt>
      <trkpt lat="45.70318" lon="4.56845">
        <ele>837.4</ele>
        <time>2025-04-30T14:09:56Z</time>
      </trkpt>
      <trkpt lat="45.70317" lon="4.56841">
        <ele>837.4</ele>
        <time>2025-04-30T14:09:57Z</time>
      </trkpt>
      <trkpt lat="45.70316" lon="4.56837">
        <ele>837.4</ele>
        <time>2025-04-30T14:09:58Z</time>
      </trkpt>
      <trkpt lat="45.70316" lon="4.56834">
        <ele>837.4</ele>
        <time>2025-04-30T14:09:59Z</time>
      </trkpt>
      <trkpt lat="45.70315" lon="4.56829">
        <ele>837.2</ele>
        <time>2025-04-30T14:10:00Z</time>
      </trkpt>
      <trkpt lat="45.70314" lon="4.56824">
        <ele>837.2</ele>
        <time>2025-04-30T14:10:01Z</time>
      </trkpt>
      <trkpt lat="45.70313" lon="4.56819">
        <ele>837.2</ele>
        <time>2025-04-30T14:10:02Z</time>
      </trkpt>
      <trkpt lat="45.70311" lon="4.56814">
        <ele>837.2</ele>
        <time>2025-04-30T14:10:03Z</time>
      </trkpt>
      <trkpt lat="45.7031" lon="4.56808">
        <ele>837.2</ele>
        <time>2025-04-30T14:10:04Z</time>
      </trkpt>
      <trkpt lat="45.70307" lon="4.56803">
        <ele>837.4</ele>
        <time>2025-04-30T14:10:05Z</time>
      </trkpt>
      <trkpt lat="45.70306" lon="4.56799">
        <ele>837.4</ele>
        <time>2025-04-30T14:10:06Z</time>
      </trkpt>
      <trkpt lat="45.70304" lon="4.56795">
        <ele>837.4</ele>
        <time>2025-04-30T14:10:07Z</time>
      </trkpt>
      <trkpt lat="45.70302" lon="4.56791">
        <ele>837.6</ele>
        <time>2025-04-30T14:10:08Z</time>
      </trkpt>
      <trkpt lat="45.70301" lon="4.56788">
        <ele>837.6</ele>
        <time>2025-04-30T14:10:09Z</time>
      </trkpt>
      <trkpt lat="45.703" lon="4.56785">
        <ele>837.8</ele>
        <time>2025-04-30T14:10:10Z</time>
      </trkpt>
      <trkpt lat="45.70297" lon="4.56782">
        <ele>838</ele>
        <time>2025-04-30T14:10:11Z</time>
      </trkpt>
      <trkpt lat="45.70295" lon="4.56779">
        <ele>838.6</ele>
        <time>2025-04-30T14:10:12Z</time>
      </trkpt>
      <trkpt lat="45.70293" lon="4.56775">
        <ele>839</ele>
        <time>2025-04-30T14:10:13Z</time>
      </trkpt>
      <trkpt lat="45.70291" lon="4.56771">
        <ele>839.2</ele>
        <time>2025-04-30T14:10:14Z</time>
      </trkpt>
      <trkpt lat="45.70289" lon="4.56767">
        <ele>839.4</ele>
        <time>2025-04-30T14:10:15Z</time>
      </trkpt>
      <trkpt lat="45.70288" lon="4.56764">
        <ele>839.6</ele>
        <time>2025-04-30T14:10:16Z</time>
      </trkpt>
      <trkpt lat="45.70287" lon="4.5676">
        <ele>839.8</ele>
        <time>2025-04-30T14:10:17Z</time>
      </trkpt>
      <trkpt lat="45.70287" lon="4.56758">
        <ele>840</ele>
        <time>2025-04-30T14:10:18Z</time>
      </trkpt>
      <trkpt lat="45.70287" lon="4.56754">
        <ele>840.2</ele>
        <time>2025-04-30T14:10:19Z</time>
      </trkpt>
      <trkpt lat="45.70286" lon="4.5675">
        <ele>840.2</ele>
        <time>2025-04-30T14:10:20Z</time>
      </trkpt>
      <trkpt lat="45.70286" lon="4.56746">
        <ele>840.6</ele>
        <time>2025-04-30T14:10:21Z</time>
      </trkpt>
      <trkpt lat="45.70285" lon="4.56742">
        <ele>840.6</ele>
        <time>2025-04-30T14:10:22Z</time>
      </trkpt>
      <trkpt lat="45.70284" lon="4.56738">
        <ele>840.8</ele>
        <time>2025-04-30T14:10:23Z</time>
      </trkpt>
      <trkpt lat="45.70283" lon="4.56734">
        <ele>840.8</ele>
        <time>2025-04-30T14:10:24Z</time>
      </trkpt>
      <trkpt lat="45.70281" lon="4.56731">
        <ele>841</ele>
        <time>2025-04-30T14:10:25Z</time>
      </trkpt>
      <trkpt lat="45.70281" lon="4.56728">
        <ele>841.4</ele>
        <time>2025-04-30T14:10:26Z</time>
      </trkpt>
      <trkpt lat="45.7028" lon="4.56725">
        <ele>841.6</ele>
        <time>2025-04-30T14:10:27Z</time>
      </trkpt>
      <trkpt lat="45.70279" lon="4.56721">
        <ele>841.8</ele>
        <time>2025-04-30T14:10:28Z</time>
      </trkpt>
      <trkpt lat="45.70278" lon="4.56717">
        <ele>842</ele>
        <time>2025-04-30T14:10:29Z</time>
      </trkpt>
      <trkpt lat="45.70276" lon="4.56711">
        <ele>842.2</ele>
        <time>2025-04-30T14:10:30Z</time>
      </trkpt>
      <trkpt lat="45.70274" lon="4.56705">
        <ele>842.2</ele>
        <time>2025-04-30T14:10:31Z</time>
      </trkpt>
      <trkpt lat="45.70272" lon="4.567">
        <ele>842.2</ele>
        <time>2025-04-30T14:10:32Z</time>
      </trkpt>
      <trkpt lat="45.7027" lon="4.56696">
        <ele>842.2</ele>
        <time>2025-04-30T14:10:33Z</time>
      </trkpt>
      <trkpt lat="45.70267" lon="4.56692">
        <ele>842.4</ele>
        <time>2025-04-30T14:10:34Z</time>
      </trkpt>
      <trkpt lat="45.70265" lon="4.56689">
        <ele>842.4</ele>
        <time>2025-04-30T14:10:35Z</time>
      </trkpt>
      <trkpt lat="45.70262" lon="4.56686">
        <ele>842.4</ele>
        <time>2025-04-30T14:10:36Z</time>
      </trkpt>
      <trkpt lat="45.7026" lon="4.56683">
        <ele>842.6</ele>
        <time>2025-04-30T14:10:37Z</time>
      </trkpt>
      <trkpt lat="45.70257" lon="4.56681">
        <ele>842.6</ele>
        <time>2025-04-30T14:10:38Z</time>
      </trkpt>
      <trkpt lat="45.70255" lon="4.56679">
        <ele>842.8</ele>
        <time>2025-04-30T14:10:39Z</time>
      </trkpt>
      <trkpt lat="45.70252" lon="4.56676">
        <ele>842.8</ele>
        <time>2025-04-30T14:10:40Z</time>
      </trkpt>
      <trkpt lat="45.70249" lon="4.56674">
        <ele>843</ele>
        <time>2025-04-30T14:10:41Z</time>
      </trkpt>
      <trkpt lat="45.70247" lon="4.56672">
        <ele>843</ele>
        <time>2025-04-30T14:10:42Z</time>
      </trkpt>
      <trkpt lat="45.70245" lon="4.5667">
        <ele>843.2</ele>
        <time>2025-04-30T14:10:43Z</time>
      </trkpt>
      <trkpt lat="45.70242" lon="4.56669">
        <ele>843.4</ele>
        <time>2025-04-30T14:10:44Z</time>
      </trkpt>
      <trkpt lat="45.7024" lon="4.56667">
        <ele>843.6</ele>
        <time>2025-04-30T14:10:45Z</time>
      </trkpt>
      <trkpt lat="45.70238" lon="4.56667">
        <ele>844</ele>
        <time>2025-04-30T14:10:46Z</time>
      </trkpt>
      <trkpt lat="45.70235" lon="4.56666">
        <ele>844.6</ele>
        <time>2025-04-30T14:10:47Z</time>
      </trkpt>
      <trkpt lat="45.70234" lon="4.56665">
        <ele>844.8</ele>
        <time>2025-04-30T14:10:48Z</time>
      </trkpt>
      <trkpt lat="45.70232" lon="4.56664">
        <ele>845.2</ele>
        <time>2025-04-30T14:10:49Z</time>
      </trkpt>
      <trkpt lat="45.70229" lon="4.56663">
        <ele>845.6</ele>
        <time>2025-04-30T14:10:50Z</time>
      </trkpt>
      <trkpt lat="45.70227" lon="4.56662">
        <ele>845.8</ele>
        <time>2025-04-30T14:10:51Z</time>
      </trkpt>
      <trkpt lat="45.70225" lon="4.56661">
        <ele>846.4</ele>
        <time>2025-04-30T14:10:52Z</time>
      </trkpt>
      <trkpt lat="45.70224" lon="4.56661">
        <ele>846.8</ele>
        <time>2025-04-30T14:10:53Z</time>
      </trkpt>
      <trkpt lat="45.70222" lon="4.5666">
        <ele>847</ele>
        <time>2025-04-30T14:10:54Z</time>
      </trkpt>
      <trkpt lat="45.7022" lon="4.56659">
        <ele>847.4</ele>
        <time>2025-04-30T14:10:55Z</time>
      </trkpt>
      <trkpt lat="45.70218" lon="4.56658">
        <ele>847.8</ele>
        <time>2025-04-30T14:10:56Z</time>
      </trkpt>
      <trkpt lat="45.70216" lon="4.56658">
        <ele>848.2</ele>
        <time>2025-04-30T14:10:57Z</time>
      </trkpt>
      <trkpt lat="45.70214" lon="4.56657">
        <ele>848.6</ele>
        <time>2025-04-30T14:10:58Z</time>
      </trkpt>
      <trkpt lat="45.70212" lon="4.56656">
        <ele>849</ele>
        <time>2025-04-30T14:10:59Z</time>
      </trkpt>
      <trkpt lat="45.70209" lon="4.56653">
        <ele>849.4</ele>
        <time>2025-04-30T14:11:00Z</time>
      </trkpt>
      <trkpt lat="45.70207" lon="4.56651">
        <ele>850</ele>
        <time>2025-04-30T14:11:01Z</time>
      </trkpt>
      <trkpt lat="45.70204" lon="4.56649">
        <ele>850.4</ele>
        <time>2025-04-30T14:11:02Z</time>
      </trkpt>
      <trkpt lat="45.70202" lon="4.56646">
        <ele>850.8</ele>
        <time>2025-04-30T14:11:03Z</time>
      </trkpt>
      <trkpt lat="45.70199" lon="4.56644">
        <ele>851.2</ele>
        <time>2025-04-30T14:11:04Z</time>
      </trkpt>
      <trkpt lat="45.70197" lon="4.56641">
        <ele>851.6</ele>
        <time>2025-04-30T14:11:05Z</time>
      </trkpt>
      <trkpt lat="45.70195" lon="4.56639">
        <ele>852.2</ele>
        <time>2025-04-30T14:11:06Z</time>
      </trkpt>
      <trkpt lat="45.70193" lon="4.56637">
        <ele>852.6</ele>
        <time>2025-04-30T14:11:07Z</time>
      </trkpt>
      <trkpt lat="45.7019" lon="4.56635">
        <ele>853</ele>
        <time>2025-04-30T14:11:08Z</time>
      </trkpt>
      <trkpt lat="45.70188" lon="4.56633">
        <ele>853.6</ele>
        <time>2025-04-30T14:11:09Z</time>
      </trkpt>
      <trkpt lat="45.70187" lon="4.56631">
        <ele>854</ele>
        <time>2025-04-30T14:11:10Z</time>
      </trkpt>
      <trkpt lat="45.70185" lon="4.56628">
        <ele>854.4</ele>
        <time>2025-04-30T14:11:11Z</time>
      </trkpt>
      <trkpt lat="45.70184" lon="4.56625">
        <ele>854.6</ele>
        <time>2025-04-30T14:11:12Z</time>
      </trkpt>
      <trkpt lat="45.70183" lon="4.56621">
        <ele>855.2</ele>
        <time>2025-04-30T14:11:13Z</time>
      </trkpt>
      <trkpt lat="45.70182" lon="4.56618">
        <ele>855.4</ele>
        <time>2025-04-30T14:11:14Z</time>
      </trkpt>
      <trkpt lat="45.70181" lon="4.56616">
        <ele>855.8</ele>
        <time>2025-04-30T14:11:15Z</time>
      </trkpt>
      <trkpt lat="45.70179" lon="4.56614">
        <ele>856.2</ele>
        <time>2025-04-30T14:11:16Z</time>
      </trkpt>
      <trkpt lat="45.70177" lon="4.56612">
        <ele>856.4</ele>
        <time>2025-04-30T14:11:17Z</time>
      </trkpt>
      <trkpt lat="45.70176" lon="4.56611">
        <ele>856.8</ele>
        <time>2025-04-30T14:11:18Z</time>
      </trkpt>
      <trkpt lat="45.70175" lon="4.56609">
        <ele>856.8</ele>
        <time>2025-04-30T14:11:19Z</time>
      </trkpt>
      <trkpt lat="45.70174" lon="4.56606">
        <ele>857</ele>
        <time>2025-04-30T14:11:20Z</time>
      </trkpt>
      <trkpt lat="45.70172" lon="4.56604">
        <ele>857</ele>
        <time>2025-04-30T14:11:21Z</time>
      </trkpt>
      <trkpt lat="45.70171" lon="4.56602">
        <ele>857.2</ele>
        <time>2025-04-30T14:11:22Z</time>
      </trkpt>
      <trkpt lat="45.70171" lon="4.566">
        <ele>857.4</ele>
        <time>2025-04-30T14:11:23Z</time>
      </trkpt>
      <trkpt lat="45.70169" lon="4.56597">
        <ele>857.4</ele>
        <time>2025-04-30T14:11:24Z</time>
      </trkpt>
      <trkpt lat="45.70167" lon="4.56594">
        <ele>857.8</ele>
        <time>2025-04-30T14:11:25Z</time>
      </trkpt>
      <trkpt lat="45.70166" lon="4.56592">
        <ele>858</ele>
        <time>2025-04-30T14:11:26Z</time>
      </trkpt>
      <trkpt lat="45.70164" lon="4.56589">
        <ele>858.2</ele>
        <time>2025-04-30T14:11:27Z</time>
      </trkpt>
      <trkpt lat="45.70164" lon="4.56588">
        <ele>858.4</ele>
        <time>2025-04-30T14:11:28Z</time>
      </trkpt>
      <trkpt lat="45.70164" lon="4.56588">
        <ele>858.8</ele>
        <time>2025-04-30T14:11:29Z</time>
      </trkpt>
      <trkpt lat="45.70164" lon="4.56588">
        <ele>858.8</ele>
        <time>2025-04-30T14:11:30Z</time>
      </trkpt>
      <trkpt lat="45.70164" lon="4.56588">
        <ele>859</ele>
        <time>2025-04-30T14:11:31Z</time>
      </trkpt>
      <trkpt lat="45.70164" lon="4.56588">
        <ele>859.2</ele>
        <time>2025-04-30T14:11:32Z</time>
      </trkpt>
      <trkpt lat="45.70164" lon="4.56588">
        <ele>859.2</ele>
        <time>2025-04-30T14:11:33Z</time>
      </trkpt>
      <trkpt lat="45.70164" lon="4.56588">
        <ele>859.4</ele>
        <time>2025-04-30T14:11:34Z</time>
      </trkpt>
      <trkpt lat="45.70164" lon="4.56588">
        <ele>859.4</ele>
        <time>2025-04-30T14:11:35Z</time>
      </trkpt>
      <trkpt lat="45.70164" lon="4.56588">
        <ele>859.6</ele>
        <time>2025-04-30T14:11:36Z</time>
      </trkpt>
      <trkpt lat="45.70164" lon="4.56588">
        <ele>859.6</ele>
        <time>2025-04-30T14:11:37Z</time>
      </trkpt>
      <trkpt lat="45.70164" lon="4.56588">
        <ele>859.6</ele>
        <time>2025-04-30T14:11:38Z</time>
      </trkpt>
      <trkpt lat="45.70164" lon="4.56586">
        <ele>859.6</ele>
        <time>2025-04-30T14:11:39Z</time>
      </trkpt>
      <trkpt lat="45.70164" lon="4.56582">
        <ele>859.6</ele>
        <time>2025-04-30T14:11:40Z</time>
      </trkpt>
      <trkpt lat="45.70163" lon="4.5658">
        <ele>859.8</ele>
        <time>2025-04-30T14:11:41Z</time>
      </trkpt>
      <trkpt lat="45.70161" lon="4.56577">
        <ele>859.8</ele>
        <time>2025-04-30T14:11:42Z</time>
      </trkpt>
      <trkpt lat="45.70159" lon="4.56574">
        <ele>860</ele>
        <time>2025-04-30T14:11:43Z</time>
      </trkpt>
      <trkpt lat="45.70158" lon="4.56571">
        <ele>860.2</ele>
        <time>2025-04-30T14:11:44Z</time>
      </trkpt>
      <trkpt lat="45.70157" lon="4.56569">
        <ele>860.4</ele>
        <time>2025-04-30T14:11:45Z</time>
      </trkpt>
      <trkpt lat="45.70156" lon="4.56566">
        <ele>860.8</ele>
        <time>2025-04-30T14:11:46Z</time>
      </trkpt>
      <trkpt lat="45.70156" lon="4.56563">
        <ele>861</ele>
        <time>2025-04-30T14:11:47Z</time>
      </trkpt>
      <trkpt lat="45.70156" lon="4.56559">
        <ele>861.6</ele>
        <time>2025-04-30T14:11:48Z</time>
      </trkpt>
      <trkpt lat="45.70155" lon="4.56556">
        <ele>861.8</ele>
        <time>2025-04-30T14:11:49Z</time>
      </trkpt>
      <trkpt lat="45.70155" lon="4.56553">
        <ele>862.2</ele>
        <time>2025-04-30T14:11:50Z</time>
      </trkpt>
      <trkpt lat="45.70153" lon="4.56547">
        <ele>863</ele>
        <time>2025-04-30T14:11:51Z</time>
      </trkpt>
      <trkpt lat="45.70151" lon="4.56542">
        <ele>863.4</ele>
        <time>2025-04-30T14:11:52Z</time>
      </trkpt>
      <trkpt lat="45.7015" lon="4.56539">
        <ele>864</ele>
        <time>2025-04-30T14:11:53Z</time>
      </trkpt>
      <trkpt lat="45.70149" lon="4.56536">
        <ele>864.6</ele>
        <time>2025-04-30T14:11:54Z</time>
      </trkpt>
      <trkpt lat="45.70149" lon="4.56532">
        <ele>865.2</ele>
        <time>2025-04-30T14:11:55Z</time>
      </trkpt>
      <trkpt lat="45.70149" lon="4.56528">
        <ele>865.8</ele>
        <time>2025-04-30T14:11:56Z</time>
      </trkpt>
      <trkpt lat="45.70148" lon="4.56525">
        <ele>866.4</ele>
        <time>2025-04-30T14:11:57Z</time>
      </trkpt>
      <trkpt lat="45.70148" lon="4.5652">
        <ele>866.8</ele>
        <time>2025-04-30T14:11:58Z</time>
      </trkpt>
      <trkpt lat="45.70146" lon="4.56513">
        <ele>867.4</ele>
        <time>2025-04-30T14:11:59Z</time>
      </trkpt>
      <trkpt lat="45.70147" lon="4.56509">
        <ele>867.8</ele>
        <time>2025-04-30T14:12:00Z</time>
      </trkpt>
      <trkpt lat="45.70147" lon="4.56505">
        <ele>868.2</ele>
        <time>2025-04-30T14:12:01Z</time>
      </trkpt>
      <trkpt lat="45.70147" lon="4.56501">
        <ele>868.8</ele>
        <time>2025-04-30T14:12:02Z</time>
      </trkpt>
      <trkpt lat="45.70146" lon="4.56497">
        <ele>869.2</ele>
        <time>2025-04-30T14:12:03Z</time>
      </trkpt>
      <trkpt lat="45.70146" lon="4.56493">
        <ele>869.6</ele>
        <time>2025-04-30T14:12:04Z</time>
      </trkpt>
      <trkpt lat="45.70146" lon="4.56489">
        <ele>870</ele>
        <time>2025-04-30T14:12:05Z</time>
      </trkpt>
      <trkpt lat="45.70145" lon="4.56484">
        <ele>870.4</ele>
        <time>2025-04-30T14:12:06Z</time>
      </trkpt>
      <trkpt lat="45.70144" lon="4.5648">
        <ele>870.8</ele>
        <time>2025-04-30T14:12:07Z</time>
      </trkpt>
      <trkpt lat="45.70145" lon="4.56476">
        <ele>871.2</ele>
        <time>2025-04-30T14:12:08Z</time>
      </trkpt>
      <trkpt lat="45.70145" lon="4.56472">
        <ele>871.4</ele>
        <time>2025-04-30T14:12:09Z</time>
      </trkpt>
      <trkpt lat="45.70145" lon="4.56468">
        <ele>871.8</ele>
        <time>2025-04-30T14:12:10Z</time>
      </trkpt>
      <trkpt lat="45.70146" lon="4.56464">
        <ele>872.2</ele>
        <time>2025-04-30T14:12:11Z</time>
      </trkpt>
      <trkpt lat="45.70146" lon="4.56461">
        <ele>872.4</ele>
        <time>2025-04-30T14:12:12Z</time>
      </trkpt>
      <trkpt lat="45.70145" lon="4.56459">
        <ele>872.8</ele>
        <time>2025-04-30T14:12:13Z</time>
      </trkpt>
      <trkpt lat="45.70145" lon="4.56456">
        <ele>873</ele>
        <time>2025-04-30T14:12:14Z</time>
      </trkpt>
      <trkpt lat="45.70145" lon="4.56454">
        <ele>873.6</ele>
        <time>2025-04-30T14:12:15Z</time>
      </trkpt>
      <trkpt lat="45.70144" lon="4.56453">
        <ele>874</ele>
        <time>2025-04-30T14:12:16Z</time>
      </trkpt>
      <trkpt lat="45.70144" lon="4.56453">
        <ele>874.2</ele>
        <time>2025-04-30T14:12:17Z</time>
      </trkpt>
      <trkpt lat="45.70144" lon="4.56453">
        <ele>874.4</ele>
        <time>2025-04-30T14:12:18Z</time>
      </trkpt>
      <trkpt lat="45.70144" lon="4.56453">
        <ele>874.6</ele>
        <time>2025-04-30T14:12:19Z</time>
      </trkpt>
      <trkpt lat="45.70144" lon="4.56453">
        <ele>874.8</ele>
        <time>2025-04-30T14:12:20Z</time>
      </trkpt>
      <trkpt lat="45.70144" lon="4.56453">
        <ele>874.8</ele>
        <time>2025-04-30T14:12:21Z</time>
      </trkpt>
      <trkpt lat="45.70144" lon="4.56453">
        <ele>875</ele>
        <time>2025-04-30T14:12:22Z</time>
      </trkpt>
      <trkpt lat="45.70144" lon="4.56453">
        <ele>875</ele>
        <time>2025-04-30T14:12:23Z</time>
      </trkpt>
      <trkpt lat="45.70144" lon="4.56453">
        <ele>875</ele>
        <time>2025-04-30T14:12:24Z</time>
      </trkpt>
      <trkpt lat="45.70144" lon="4.56453">
        <ele>875</ele>
        <time>2025-04-30T14:12:25Z</time>
      </trkpt>
      <trkpt lat="45.70144" lon="4.56453">
        <ele>875.2</ele>
        <time>2025-04-30T14:12:26Z</time>
      </trkpt>
      <trkpt lat="45.70144" lon="4.56453">
        <ele>875.2</ele>
        <time>2025-04-30T14:12:27Z</time>
      </trkpt>
      <trkpt lat="45.70144" lon="4.56453">
        <ele>875.2</ele>
        <time>2025-04-30T14:12:28Z</time>
      </trkpt>
      <trkpt lat="45.70144" lon="4.56453">
        <ele>875.2</ele>
        <time>2025-04-30T14:12:29Z</time>
      </trkpt>
      <trkpt lat="45.70144" lon="4.56453">
        <ele>875.2</ele>
        <time>2025-04-30T14:12:30Z</time>
      </trkpt>
      <trkpt lat="45.70144" lon="4.56453">
        <ele>875.2</ele>
        <time>2025-04-30T14:12:31Z</time>
      </trkpt>
      <trkpt lat="45.70144" lon="4.56453">
        <ele>875.2</ele>
        <time>2025-04-30T14:12:32Z</time>
      </trkpt>
      <trkpt lat="45.70144" lon="4.56453">
        <ele>875.2</ele>
        <time>2025-04-30T14:12:33Z</time>
      </trkpt>
      <trkpt lat="45.70144" lon="4.56453">
        <ele>875.2</ele>
        <time>2025-04-30T14:12:34Z</time>
      </trkpt>
      <trkpt lat="45.70144" lon="4.56453">
        <ele>875.2</ele>
        <time>2025-04-30T14:12:35Z</time>
      </trkpt>
      <trkpt lat="45.70144" lon="4.56453">
        <ele>875.2</ele>
        <time>2025-04-30T14:12:36Z</time>
      </trkpt>
      <trkpt lat="45.70144" lon="4.56453">
        <ele>875.2</ele>
        <time>2025-04-30T14:12:37Z</time>
      </trkpt>
      <trkpt lat="45.70144" lon="4.56453">
        <ele>875.2</ele>
        <time>2025-04-30T14:12:38Z</time>
      </trkpt>
      <trkpt lat="45.70144" lon="4.56453">
        <ele>875.2</ele>
        <time>2025-04-30T14:12:39Z</time>
      </trkpt>
      <trkpt lat="45.70144" lon="4.56453">
        <ele>875.2</ele>
        <time>2025-04-30T14:12:40Z</time>
      </trkpt>
      <trkpt lat="45.70144" lon="4.56453">
        <ele>875.2</ele>
        <time>2025-04-30T14:12:41Z</time>
      </trkpt>
      <trkpt lat="45.70144" lon="4.56453">
        <ele>875.2</ele>
        <time>2025-04-30T14:12:42Z</time>
      </trkpt>
      <trkpt lat="45.70144" lon="4.56453">
        <ele>875.2</ele>
        <time>2025-04-30T14:12:43Z</time>
      </trkpt>
      <trkpt lat="45.70144" lon="4.56453">
        <ele>875.2</ele>
        <time>2025-04-30T14:12:44Z</time>
      </trkpt>
      <trkpt lat="45.70144" lon="4.56453">
        <ele>875.2</ele>
        <time>2025-04-30T14:12:45Z</time>
      </trkpt>
      <trkpt lat="45.70144" lon="4.56453">
        <ele>875.2</ele>
        <time>2025-04-30T14:12:46Z</time>
      </trkpt>
      <trkpt lat="45.70144" lon="4.56453">
        <ele>875.2</ele>
        <time>2025-04-30T14:12:47Z</time>
      </trkpt>
      <trkpt lat="45.70144" lon="4.56453">
        <ele>875.2</ele>
        <time>2025-04-30T14:12:48Z</time>
      </trkpt>
      <trkpt lat="45.70144" lon="4.56453">
        <ele>875.2</ele>
        <time>2025-04-30T14:12:49Z</time>
      </trkpt>
      <trkpt lat="45.70144" lon="4.56453">
        <ele>875.2</ele>
        <time>2025-04-30T14:12:50Z</time>
      </trkpt>
      <trkpt lat="45.70144" lon="4.56453">
        <ele>875.2</ele>
        <time>2025-04-30T14:12:51Z</time>
      </trkpt>
      <trkpt lat="45.70144" lon="4.56453">
        <ele>875.2</ele>
        <time>2025-04-30T14:12:52Z</time>
      </trkpt>
      <trkpt lat="45.70144" lon="4.56453">
        <ele>875.4</ele>
        <time>2025-04-30T14:12:53Z</time>
      </trkpt>
      <trkpt lat="45.70144" lon="4.56453">
        <ele>875.4</ele>
        <time>2025-04-30T14:12:54Z</time>
      </trkpt>
      <trkpt lat="45.70144" lon="4.56453">
        <ele>875.4</ele>
        <time>2025-04-30T14:12:55Z</time>
      </trkpt>
      <trkpt lat="45.70144" lon="4.56453">
        <ele>875.4</ele>
        <time>2025-04-30T14:12:56Z</time>
      </trkpt>
      <trkpt lat="45.70144" lon="4.56453">
        <ele>875.4</ele>
        <time>2025-04-30T14:12:57Z</time>
      </trkpt>
      <trkpt lat="45.70144" lon="4.56453">
        <ele>875.4</ele>
        <time>2025-04-30T14:12:58Z</time>
      </trkpt>
      <trkpt lat="45.70144" lon="4.56453">
        <ele>875.2</ele>
        <time>2025-04-30T14:12:59Z</time>
      </trkpt>
      <trkpt lat="45.70144" lon="4.56453">
        <ele>875.2</ele>
        <time>2025-04-30T14:13:00Z</time>
      </trkpt>
      <trkpt lat="45.70144" lon="4.56453">
        <ele>875.2</ele>
        <time>2025-04-30T14:13:01Z</time>
      </trkpt>
      <trkpt lat="45.70144" lon="4.56453">
        <ele>875.2</ele>
        <time>2025-04-30T14:13:02Z</time>
      </trkpt>
      <trkpt lat="45.70144" lon="4.56453">
        <ele>875.2</ele>
        <time>2025-04-30T14:13:03Z</time>
      </trkpt>
      <trkpt lat="45.70144" lon="4.56453">
        <ele>875.2</ele>
        <time>2025-04-30T14:13:04Z</time>
      </trkpt>
      <trkpt lat="45.70144" lon="4.56453">
        <ele>875.2</ele>
        <time>2025-04-30T14:13:05Z</time>
      </trkpt>
      <trkpt lat="45.70144" lon="4.56453">
        <ele>875.2</ele>
        <time>2025-04-30T14:13:06Z</time>
      </trkpt>
      <trkpt lat="45.70144" lon="4.56453">
        <ele>875.2</ele>
        <time>2025-04-30T14:13:07Z</time>
      </trkpt>
      <trkpt lat="45.70144" lon="4.56453">
        <ele>875.2</ele>
        <time>2025-04-30T14:13:08Z</time>
      </trkpt>
      <trkpt lat="45.70144" lon="4.56453">
        <ele>875.2</ele>
        <time>2025-04-30T14:13:09Z</time>
      </trkpt>
      <trkpt lat="45.70144" lon="4.56453">
        <ele>875.2</ele>
        <time>2025-04-30T14:13:10Z</time>
      </trkpt>
      <trkpt lat="45.70144" lon="4.56453">
        <ele>875.2</ele>
        <time>2025-04-30T14:13:11Z</time>
      </trkpt>
      <trkpt lat="45.70144" lon="4.56453">
        <ele>875.2</ele>
        <time>2025-04-30T14:13:12Z</time>
      </trkpt>
      <trkpt lat="45.70144" lon="4.56453">
        <ele>875.2</ele>
        <time>2025-04-30T14:13:13Z</time>
      </trkpt>
      <trkpt lat="45.70144" lon="4.56453">
        <ele>875.2</ele>
        <time>2025-04-30T14:13:14Z</time>
      </trkpt>
      <trkpt lat="45.70144" lon="4.56453">
        <ele>875.2</ele>
        <time>2025-04-30T14:13:15Z</time>
      </trkpt>
      <trkpt lat="45.70144" lon="4.56453">
        <ele>875.2</ele>
        <time>2025-04-30T14:13:16Z</time>
      </trkpt>
      <trkpt lat="45.70144" lon="4.56453">
        <ele>875.2</ele>
        <time>2025-04-30T14:13:17Z</time>
      </trkpt>
      <trkpt lat="45.70144" lon="4.56453">
        <ele>875.2</ele>
        <time>2025-04-30T14:13:18Z</time>
      </trkpt>
      <trkpt lat="45.70144" lon="4.56453">
        <ele>875.2</ele>
        <time>2025-04-30T14:13:19Z</time>
      </trkpt>
      <trkpt lat="45.70144" lon="4.56453">
        <ele>875.2</ele>
        <time>2025-04-30T14:13:20Z</time>
      </trkpt>
      <trkpt lat="45.70144" lon="4.56453">
        <ele>875.2</ele>
        <time>2025-04-30T14:13:21Z</time>
      </trkpt>
      <trkpt lat="45.70144" lon="4.56453">
        <ele>875.2</ele>
        <time>2025-04-30T14:13:22Z</time>
      </trkpt>
      <trkpt lat="45.70144" lon="4.56453">
        <ele>875.2</ele>
        <time>2025-04-30T14:13:23Z</time>
      </trkpt>
      <trkpt lat="45.70144" lon="4.56453">
        <ele>875.2</ele>
        <time>2025-04-30T14:13:24Z</time>
      </trkpt>
      <trkpt lat="45.70144" lon="4.56453">
        <ele>875.2</ele>
        <time>2025-04-30T14:13:25Z</time>
      </trkpt>
      <trkpt lat="45.70144" lon="4.56453">
        <ele>875.2</ele>
        <time>2025-04-30T14:13:26Z</time>
      </trkpt>
      <trkpt lat="45.70144" lon="4.56453">
        <ele>875.4</ele>
        <time>2025-04-30T14:13:27Z</time>
      </trkpt>
      <trkpt lat="45.70144" lon="4.56453">
        <ele>875.4</ele>
        <time>2025-04-30T14:13:28Z</time>
      </trkpt>
      <trkpt lat="45.70144" lon="4.56453">
        <ele>875.4</ele>
        <time>2025-04-30T14:13:29Z</time>
      </trkpt>
      <trkpt lat="45.70144" lon="4.56453">
        <ele>875.2</ele>
        <time>2025-04-30T14:13:30Z</time>
      </trkpt>
      <trkpt lat="45.70144" lon="4.56453">
        <ele>875.2</ele>
        <time>2025-04-30T14:13:31Z</time>
      </trkpt>
      <trkpt lat="45.70144" lon="4.56453">
        <ele>875.2</ele>
        <time>2025-04-30T14:13:32Z</time>
      </trkpt>
      <trkpt lat="45.70144" lon="4.56453">
        <ele>875.2</ele>
        <time>2025-04-30T14:13:33Z</time>
      </trkpt>
      <trkpt lat="45.70144" lon="4.56453">
        <ele>875.2</ele>
        <time>2025-04-30T14:13:34Z</time>
      </trkpt>
      <trkpt lat="45.70144" lon="4.56453">
        <ele>875.2</ele>
        <time>2025-04-30T14:13:35Z</time>
      </trkpt>
      <trkpt lat="45.70144" lon="4.56453">
        <ele>875.2</ele>
        <time>2025-04-30T14:13:36Z</time>
      </trkpt>
      <trkpt lat="45.70144" lon="4.56453">
        <ele>875.2</ele>
        <time>2025-04-30T14:13:37Z</time>
      </trkpt>
      <trkpt lat="45.70144" lon="4.56453">
        <ele>875.2</ele>
        <time>2025-04-30T14:13:38Z</time>
      </trkpt>
      <trkpt lat="45.70144" lon="4.56453">
        <ele>875.2</ele>
        <time>2025-04-30T14:13:39Z</time>
      </trkpt>
      <trkpt lat="45.70144" lon="4.56453">
        <ele>875.2</ele>
        <time>2025-04-30T14:13:40Z</time>
      </trkpt>
      <trkpt lat="45.70144" lon="4.56453">
        <ele>875.2</ele>
        <time>2025-04-30T14:13:41Z</time>
      </trkpt>
      <trkpt lat="45.70144" lon="4.56453">
        <ele>875.2</ele>
        <time>2025-04-30T14:13:42Z</time>
      </trkpt>
      <trkpt lat="45.70144" lon="4.56453">
        <ele>875.2</ele>
        <time>2025-04-30T14:13:43Z</time>
      </trkpt>
      <trkpt lat="45.70144" lon="4.56453">
        <ele>875.2</ele>
        <time>2025-04-30T14:13:44Z</time>
      </trkpt>
      <trkpt lat="45.70144" lon="4.56453">
        <ele>875.2</ele>
        <time>2025-04-30T14:13:45Z</time>
      </trkpt>
      <trkpt lat="45.70144" lon="4.56453">
        <ele>875.2</ele>
        <time>2025-04-30T14:13:46Z</time>
      </trkpt>
      <trkpt lat="45.70144" lon="4.56453">
        <ele>875.2</ele>
        <time>2025-04-30T14:13:47Z</time>
      </trkpt>
      <trkpt lat="45.70144" lon="4.56453">
        <ele>875.2</ele>
        <time>2025-04-30T14:13:48Z</time>
      </trkpt>
      <trkpt lat="45.70144" lon="4.56453">
        <ele>875.2</ele>
        <time>2025-04-30T14:13:49Z</time>
      </trkpt>
      <trkpt lat="45.70144" lon="4.56453">
        <ele>875.2</ele>
        <time>2025-04-30T14:13:50Z</time>
      </trkpt>
      <trkpt lat="45.70144" lon="4.56453">
        <ele>875.2</ele>
        <time>2025-04-30T14:13:51Z</time>
      </trkpt>
      <trkpt lat="45.70144" lon="4.56453">
        <ele>875.2</ele>
        <time>2025-04-30T14:13:52Z</time>
      </trkpt>
      <trkpt lat="45.70144" lon="4.56453">
        <ele>875.2</ele>
        <time>2025-04-30T14:13:53Z</time>
      </trkpt>
      <trkpt lat="45.70144" lon="4.56453">
        <ele>875.2</ele>
        <time>2025-04-30T14:13:54Z</time>
      </trkpt>
      <trkpt lat="45.70144" lon="4.56453">
        <ele>875.2</ele>
        <time>2025-04-30T14:13:55Z</time>
      </trkpt>
      <trkpt lat="45.70144" lon="4.56453">
        <ele>875.2</ele>
        <time>2025-04-30T14:13:56Z</time>
      </trkpt>
      <trkpt lat="45.70144" lon="4.56453">
        <ele>875.2</ele>
        <time>2025-04-30T14:13:57Z</time>
      </trkpt>
      <trkpt lat="45.70144" lon="4.56453">
        <ele>875.2</ele>
        <time>2025-04-30T14:13:58Z</time>
      </trkpt>
      <trkpt lat="45.70144" lon="4.56453">
        <ele>875.2</ele>
        <time>2025-04-30T14:13:59Z</time>
      </trkpt>
      <trkpt lat="45.70144" lon="4.56453">
        <ele>875.2</ele>
        <time>2025-04-30T14:14:00Z</time>
      </trkpt>
      <trkpt lat="45.70144" lon="4.56453">
        <ele>875.2</ele>
        <time>2025-04-30T14:14:01Z</time>
      </trkpt>
      <trkpt lat="45.70144" lon="4.56453">
        <ele>875.2</ele>
        <time>2025-04-30T14:14:02Z</time>
      </trkpt>
      <trkpt lat="45.70144" lon="4.56453">
        <ele>875.2</ele>
        <time>2025-04-30T14:14:03Z</time>
      </trkpt>
      <trkpt lat="45.70144" lon="4.56453">
        <ele>875.2</ele>
        <time>2025-04-30T14:14:04Z</time>
      </trkpt>
      <trkpt lat="45.70144" lon="4.56453">
        <ele>875.2</ele>
        <time>2025-04-30T14:14:05Z</time>
      </trkpt>
      <trkpt lat="45.70144" lon="4.56453">
        <ele>875.2</ele>
        <time>2025-04-30T14:14:06Z</time>
      </trkpt>
      <trkpt lat="45.70144" lon="4.56453">
        <ele>875.2</ele>
        <time>2025-04-30T14:14:07Z</time>
      </trkpt>
      <trkpt lat="45.70144" lon="4.56453">
        <ele>875.2</ele>
        <time>2025-04-30T14:14:08Z</time>
      </trkpt>
      <trkpt lat="45.70144" lon="4.56453">
        <ele>875.2</ele>
        <time>2025-04-30T14:14:09Z</time>
      </trkpt>
      <trkpt lat="45.70144" lon="4.56453">
        <ele>875.2</ele>
        <time>2025-04-30T14:14:10Z</time>
      </trkpt>
      <trkpt lat="45.70144" lon="4.56453">
        <ele>875.2</ele>
        <time>2025-04-30T14:14:11Z</time>
      </trkpt>
      <trkpt lat="45.70144" lon="4.56453">
        <ele>875.2</ele>
        <time>2025-04-30T14:14:12Z</time>
      </trkpt>
      <trkpt lat="45.70144" lon="4.56453">
        <ele>875.2</ele>
        <time>2025-04-30T14:14:13Z</time>
      </trkpt>
      <trkpt lat="45.70144" lon="4.56453">
        <ele>875.2</ele>
        <time>2025-04-30T14:14:14Z</time>
      </trkpt>
      <trkpt lat="45.70144" lon="4.56453">
        <ele>875.2</ele>
        <time>2025-04-30T14:14:15Z</time>
      </trkpt>
      <trkpt lat="45.70144" lon="4.56453">
        <ele>875.2</ele>
        <time>2025-04-30T14:14:16Z</time>
      </trkpt>
      <trkpt lat="45.70144" lon="4.56453">
        <ele>875.2</ele>
        <time>2025-04-30T14:14:17Z</time>
      </trkpt>
      <trkpt lat="45.70144" lon="4.56453">
        <ele>875.2</ele>
        <time>2025-04-30T14:14:18Z</time>
      </trkpt>
      <trkpt lat="45.70144" lon="4.56453">
        <ele>875.2</ele>
        <time>2025-04-30T14:14:19Z</time>
      </trkpt>
      <trkpt lat="45.70144" lon="4.56453">
        <ele>875.2</ele>
        <time>2025-04-30T14:14:20Z</time>
      </trkpt>
      <trkpt lat="45.70144" lon="4.56453">
        <ele>875.2</ele>
        <time>2025-04-30T14:14:21Z</time>
      </trkpt>
      <trkpt lat="45.70144" lon="4.56453">
        <ele>875.2</ele>
        <time>2025-04-30T14:14:22Z</time>
      </trkpt>
      <trkpt lat="45.70144" lon="4.56453">
        <ele>875.2</ele>
        <time>2025-04-30T14:14:23Z</time>
      </trkpt>
      <trkpt lat="45.70144" lon="4.56453">
        <ele>875.2</ele>
        <time>2025-04-30T14:14:24Z</time>
      </trkpt>
      <trkpt lat="45.70144" lon="4.56453">
        <ele>875.2</ele>
        <time>2025-04-30T14:14:25Z</time>
      </trkpt>
      <trkpt lat="45.70144" lon="4.56453">
        <ele>875.2</ele>
        <time>2025-04-30T14:14:26Z</time>
      </trkpt>
      <trkpt lat="45.70144" lon="4.56453">
        <ele>875.2</ele>
        <time>2025-04-30T14:14:27Z</time>
      </trkpt>
      <trkpt lat="45.70144" lon="4.56453">
        <ele>875.2</ele>
        <time>2025-04-30T14:14:28Z</time>
      </trkpt>
      <trkpt lat="45.70144" lon="4.56453">
        <ele>875.2</ele>
        <time>2025-04-30T14:14:29Z</time>
      </trkpt>
      <trkpt lat="45.70144" lon="4.56453">
        <ele>875.2</ele>
        <time>2025-04-30T14:14:30Z</time>
      </trkpt>
      <trkpt lat="45.70144" lon="4.56453">
        <ele>875.2</ele>
        <time>2025-04-30T14:14:31Z</time>
      </trkpt>
      <trkpt lat="45.70144" lon="4.56453">
        <ele>875.2</ele>
        <time>2025-04-30T14:14:32Z</time>
      </trkpt>
      <trkpt lat="45.70144" lon="4.56453">
        <ele>875.2</ele>
        <time>2025-04-30T14:14:33Z</time>
      </trkpt>
      <trkpt lat="45.70144" lon="4.56453">
        <ele>875.2</ele>
        <time>2025-04-30T14:14:34Z</time>
      </trkpt>
      <trkpt lat="45.70144" lon="4.56453">
        <ele>875.2</ele>
        <time>2025-04-30T14:14:35Z</time>
      </trkpt>
      <trkpt lat="45.70144" lon="4.56453">
        <ele>875.2</ele>
        <time>2025-04-30T14:14:36Z</time>
      </trkpt>
      <trkpt lat="45.70144" lon="4.56453">
        <ele>875.2</ele>
        <time>2025-04-30T14:14:37Z</time>
      </trkpt>
      <trkpt lat="45.70144" lon="4.56453">
        <ele>875.2</ele>
        <time>2025-04-30T14:14:38Z</time>
      </trkpt>
      <trkpt lat="45.70144" lon="4.56453">
        <ele>875.2</ele>
        <time>2025-04-30T14:14:39Z</time>
      </trkpt>
      <trkpt lat="45.70144" lon="4.56453">
        <ele>875.2</ele>
        <time>2025-04-30T14:14:40Z</time>
      </trkpt>
      <trkpt lat="45.70144" lon="4.56453">
        <ele>875.2</ele>
        <time>2025-04-30T14:14:41Z</time>
      </trkpt>
      <trkpt lat="45.70144" lon="4.56453">
        <ele>875.2</ele>
        <time>2025-04-30T14:14:42Z</time>
      </trkpt>
      <trkpt lat="45.70144" lon="4.56453">
        <ele>875.2</ele>
        <time>2025-04-30T14:14:43Z</time>
      </trkpt>
      <trkpt lat="45.70144" lon="4.56453">
        <ele>875.2</ele>
        <time>2025-04-30T14:14:44Z</time>
      </trkpt>
      <trkpt lat="45.70144" lon="4.56453">
        <ele>875.2</ele>
        <time>2025-04-30T14:14:45Z</time>
      </trkpt>
      <trkpt lat="45.70144" lon="4.56453">
        <ele>875.2</ele>
        <time>2025-04-30T14:14:46Z</time>
      </trkpt>
      <trkpt lat="45.70144" lon="4.56453">
        <ele>875.2</ele>
        <time>2025-04-30T14:14:47Z</time>
      </trkpt>
      <trkpt lat="45.70144" lon="4.56453">
        <ele>875.2</ele>
        <time>2025-04-30T14:14:48Z</time>
      </trkpt>
      <trkpt lat="45.70144" lon="4.56453">
        <ele>875.2</ele>
        <time>2025-04-30T14:14:49Z</time>
      </trkpt>
      <trkpt lat="45.70144" lon="4.56453">
        <ele>875.2</ele>
        <time>2025-04-30T14:14:50Z</time>
      </trkpt>
      <trkpt lat="45.70144" lon="4.56453">
        <ele>875.2</ele>
        <time>2025-04-30T14:14:51Z</time>
      </trkpt>
      <trkpt lat="45.70144" lon="4.56453">
        <ele>875.2</ele>
        <time>2025-04-30T14:14:52Z</time>
      </trkpt>
      <trkpt lat="45.70144" lon="4.56453">
        <ele>875.2</ele>
        <time>2025-04-30T14:14:53Z</time>
      </trkpt>
      <trkpt lat="45.70144" lon="4.56453">
        <ele>875.2</ele>
        <time>2025-04-30T14:14:54Z</time>
      </trkpt>
      <trkpt lat="45.70144" lon="4.56453">
        <ele>875.2</ele>
        <time>2025-04-30T14:14:55Z</time>
      </trkpt>
      <trkpt lat="45.70144" lon="4.56453">
        <ele>875.2</ele>
        <time>2025-04-30T14:14:56Z</time>
      </trkpt>
      <trkpt lat="45.70144" lon="4.56453">
        <ele>875.2</ele>
        <time>2025-04-30T14:14:57Z</time>
      </trkpt>
      <trkpt lat="45.70144" lon="4.56453">
        <ele>875.2</ele>
        <time>2025-04-30T14:14:58Z</time>
      </trkpt>
      <trkpt lat="45.70144" lon="4.56453">
        <ele>875.2</ele>
        <time>2025-04-30T14:14:59Z</time>
      </trkpt>
      <trkpt lat="45.70144" lon="4.56453">
        <ele>875.2</ele>
        <time>2025-04-30T14:15:00Z</time>
      </trkpt>
      <trkpt lat="45.70144" lon="4.56453">
        <ele>875.2</ele>
        <time>2025-04-30T14:15:01Z</time>
      </trkpt>
      <trkpt lat="45.70144" lon="4.56453">
        <ele>875.2</ele>
        <time>2025-04-30T14:15:02Z</time>
      </trkpt>
      <trkpt lat="45.70144" lon="4.56453">
        <ele>875.2</ele>
        <time>2025-04-30T14:15:03Z</time>
      </trkpt>
      <trkpt lat="45.70144" lon="4.56453">
        <ele>875.2</ele>
        <time>2025-04-30T14:15:04Z</time>
      </trkpt>
      <trkpt lat="45.70144" lon="4.56453">
        <ele>875.2</ele>
        <time>2025-04-30T14:15:05Z</time>
      </trkpt>
      <trkpt lat="45.70144" lon="4.56453">
        <ele>875.2</ele>
        <time>2025-04-30T14:15:06Z</time>
      </trkpt>
      <trkpt lat="45.70144" lon="4.56453">
        <ele>875.2</ele>
        <time>2025-04-30T14:15:07Z</time>
      </trkpt>
      <trkpt lat="45.70144" lon="4.56453">
        <ele>875.2</ele>
        <time>2025-04-30T14:15:08Z</time>
      </trkpt>
      <trkpt lat="45.70144" lon="4.56453">
        <ele>875.2</ele>
        <time>2025-04-30T14:15:09Z</time>
      </trkpt>
      <trkpt lat="45.70144" lon="4.56453">
        <ele>875.2</ele>
        <time>2025-04-30T14:15:10Z</time>
      </trkpt>
      <trkpt lat="45.70144" lon="4.56453">
        <ele>875.2</ele>
        <time>2025-04-30T14:15:11Z</time>
      </trkpt>
      <trkpt lat="45.70144" lon="4.56453">
        <ele>875.2</ele>
        <time>2025-04-30T14:15:12Z</time>
      </trkpt>
      <trkpt lat="45.70144" lon="4.56453">
        <ele>875.2</ele>
        <time>2025-04-30T14:15:13Z</time>
      </trkpt>
      <trkpt lat="45.70144" lon="4.56453">
        <ele>875.2</ele>
        <time>2025-04-30T14:15:14Z</time>
      </trkpt>
      <trkpt lat="45.70144" lon="4.56453">
        <ele>875.2</ele>
        <time>2025-04-30T14:15:15Z</time>
      </trkpt>
      <trkpt lat="45.70144" lon="4.56453">
        <ele>875.2</ele>
        <time>2025-04-30T14:15:16Z</time>
      </trkpt>
      <trkpt lat="45.70144" lon="4.56453">
        <ele>875.2</ele>
        <time>2025-04-30T14:15:17Z</time>
      </trkpt>
      <trkpt lat="45.70144" lon="4.56453">
        <ele>875.2</ele>
        <time>2025-04-30T14:15:18Z</time>
      </trkpt>
      <trkpt lat="45.70144" lon="4.56453">
        <ele>875.2</ele>
        <time>2025-04-30T14:15:19Z</time>
      </trkpt>
      <trkpt lat="45.70144" lon="4.56453">
        <ele>875.2</ele>
        <time>2025-04-30T14:15:20Z</time>
      </trkpt>
      <trkpt lat="45.70144" lon="4.56453">
        <ele>875.2</ele>
        <time>2025-04-30T14:15:21Z</time>
      </trkpt>
      <trkpt lat="45.70144" lon="4.56453">
        <ele>875.2</ele>
        <time>2025-04-30T14:15:22Z</time>
      </trkpt>
      <trkpt lat="45.70144" lon="4.56453">
        <ele>875.2</ele>
        <time>2025-04-30T14:15:23Z</time>
      </trkpt>
      <trkpt lat="45.70144" lon="4.56453">
        <ele>875.2</ele>
        <time>2025-04-30T14:15:24Z</time>
      </trkpt>
      <trkpt lat="45.70144" lon="4.56453">
        <ele>875.2</ele>
        <time>2025-04-30T14:15:25Z</time>
      </trkpt>
      <trkpt lat="45.70144" lon="4.56453">
        <ele>875.2</ele>
        <time>2025-04-30T14:15:26Z</time>
      </trkpt>
      <trkpt lat="45.70144" lon="4.56453">
        <ele>875.2</ele>
        <time>2025-04-30T14:15:27Z</time>
      </trkpt>
      <trkpt lat="45.70144" lon="4.56453">
        <ele>875.2</ele>
        <time>2025-04-30T14:15:28Z</time>
      </trkpt>
      <trkpt lat="45.70144" lon="4.56453">
        <ele>875.2</ele>
        <time>2025-04-30T14:15:29Z</time>
      </trkpt>
      <trkpt lat="45.70144" lon="4.56453">
        <ele>875.2</ele>
        <time>2025-04-30T14:15:30Z</time>
      </trkpt>
      <trkpt lat="45.70144" lon="4.56453">
        <ele>875.2</ele>
        <time>2025-04-30T14:15:31Z</time>
      </trkpt>
      <trkpt lat="45.70144" lon="4.56453">
        <ele>875.2</ele>
        <time>2025-04-30T14:15:32Z</time>
      </trkpt>
      <trkpt lat="45.70144" lon="4.56453">
        <ele>875.2</ele>
        <time>2025-04-30T14:15:33Z</time>
      </trkpt>
      <trkpt lat="45.70144" lon="4.56453">
        <ele>875.2</ele>
        <time>2025-04-30T14:15:34Z</time>
      </trkpt>
      <trkpt lat="45.70144" lon="4.56453">
        <ele>875.2</ele>
        <time>2025-04-30T14:15:35Z</time>
      </trkpt>
      <trkpt lat="45.70144" lon="4.56453">
        <ele>875.2</ele>
        <time>2025-04-30T14:15:36Z</time>
      </trkpt>
      <trkpt lat="45.70144" lon="4.56453">
        <ele>875.2</ele>
        <time>2025-04-30T14:15:37Z</time>
      </trkpt>
      <trkpt lat="45.70144" lon="4.56453">
        <ele>875.2</ele>
        <time>2025-04-30T14:15:38Z</time>
      </trkpt>
      <trkpt lat="45.70144" lon="4.56453">
        <ele>875.2</ele>
        <time>2025-04-30T14:15:39Z</time>
      </trkpt>
      <trkpt lat="45.70144" lon="4.56453">
        <ele>875.2</ele>
        <time>2025-04-30T14:15:40Z</time>
      </trkpt>
      <trkpt lat="45.70144" lon="4.56453">
        <ele>875.2</ele>
        <time>2025-04-30T14:15:41Z</time>
      </trkpt>
      <trkpt lat="45.70144" lon="4.56453">
        <ele>875.2</ele>
        <time>2025-04-30T14:15:42Z</time>
      </trkpt>
      <trkpt lat="45.70144" lon="4.56453">
        <ele>875.2</ele>
        <time>2025-04-30T14:15:43Z</time>
      </trkpt>
      <trkpt lat="45.70144" lon="4.56453">
        <ele>875.2</ele>
        <time>2025-04-30T14:15:44Z</time>
      </trkpt>
      <trkpt lat="45.70144" lon="4.56453">
        <ele>875.2</ele>
        <time>2025-04-30T14:15:45Z</time>
      </trkpt>
      <trkpt lat="45.70144" lon="4.56453">
        <ele>875.2</ele>
        <time>2025-04-30T14:15:46Z</time>
      </trkpt>
      <trkpt lat="45.70144" lon="4.56453">
        <ele>875.2</ele>
        <time>2025-04-30T14:15:47Z</time>
      </trkpt>
      <trkpt lat="45.70144" lon="4.56453">
        <ele>875.2</ele>
        <time>2025-04-30T14:15:48Z</time>
      </trkpt>
      <trkpt lat="45.70144" lon="4.56453">
        <ele>875.2</ele>
        <time>2025-04-30T14:15:49Z</time>
      </trkpt>
      <trkpt lat="45.70144" lon="4.56453">
        <ele>875.2</ele>
        <time>2025-04-30T14:15:50Z</time>
      </trkpt>
      <trkpt lat="45.70144" lon="4.56453">
        <ele>875.2</ele>
        <time>2025-04-30T14:15:51Z</time>
      </trkpt>
      <trkpt lat="45.70144" lon="4.56453">
        <ele>875.2</ele>
        <time>2025-04-30T14:15:52Z</time>
      </trkpt>
      <trkpt lat="45.70144" lon="4.56453">
        <ele>875.2</ele>
        <time>2025-04-30T14:15:53Z</time>
      </trkpt>
      <trkpt lat="45.70144" lon="4.56453">
        <ele>875.2</ele>
        <time>2025-04-30T14:15:54Z</time>
      </trkpt>
      <trkpt lat="45.70144" lon="4.56453">
        <ele>875.2</ele>
        <time>2025-04-30T14:15:55Z</time>
      </trkpt>
      <trkpt lat="45.70144" lon="4.56453">
        <ele>875.2</ele>
        <time>2025-04-30T14:15:56Z</time>
      </trkpt>
      <trkpt lat="45.70144" lon="4.56453">
        <ele>875.2</ele>
        <time>2025-04-30T14:15:57Z</time>
      </trkpt>
      <trkpt lat="45.70144" lon="4.56453">
        <ele>875.2</ele>
        <time>2025-04-30T14:15:58Z</time>
      </trkpt>
      <trkpt lat="45.70144" lon="4.56453">
        <ele>875.2</ele>
        <time>2025-04-30T14:15:59Z</time>
      </trkpt>
      <trkpt lat="45.70144" lon="4.56453">
        <ele>875.2</ele>
        <time>2025-04-30T14:16:00Z</time>
      </trkpt>
      <trkpt lat="45.70144" lon="4.56453">
        <ele>875.2</ele>
        <time>2025-04-30T14:16:01Z</time>
      </trkpt>
      <trkpt lat="45.70144" lon="4.56453">
        <ele>875.2</ele>
        <time>2025-04-30T14:16:02Z</time>
      </trkpt>
      <trkpt lat="45.70144" lon="4.56453">
        <ele>875.2</ele>
        <time>2025-04-30T14:16:03Z</time>
      </trkpt>
      <trkpt lat="45.70144" lon="4.56453">
        <ele>875.2</ele>
        <time>2025-04-30T14:16:04Z</time>
      </trkpt>
      <trkpt lat="45.70144" lon="4.56453">
        <ele>875.2</ele>
        <time>2025-04-30T14:16:05Z</time>
      </trkpt>
      <trkpt lat="45.70144" lon="4.56453">
        <ele>875.2</ele>
        <time>2025-04-30T14:16:06Z</time>
      </trkpt>
      <trkpt lat="45.70144" lon="4.56453">
        <ele>875.2</ele>
        <time>2025-04-30T14:16:07Z</time>
      </trkpt>
      <trkpt lat="45.70144" lon="4.56453">
        <ele>875.2</ele>
        <time>2025-04-30T14:16:08Z</time>
      </trkpt>
      <trkpt lat="45.70144" lon="4.56453">
        <ele>875.2</ele>
        <time>2025-04-30T14:16:09Z</time>
      </trkpt>
      <trkpt lat="45.70144" lon="4.56453">
        <ele>875.2</ele>
        <time>2025-04-30T14:16:10Z</time>
      </trkpt>
      <trkpt lat="45.70144" lon="4.56453">
        <ele>875.2</ele>
        <time>2025-04-30T14:16:11Z</time>
      </trkpt>
      <trkpt lat="45.70144" lon="4.56453">
        <ele>875.2</ele>
        <time>2025-04-30T14:16:12Z</time>
      </trkpt>
      <trkpt lat="45.70144" lon="4.56453">
        <ele>875.2</ele>
        <time>2025-04-30T14:16:13Z</time>
      </trkpt>
      <trkpt lat="45.70144" lon="4.56453">
        <ele>875.2</ele>
        <time>2025-04-30T14:16:14Z</time>
      </trkpt>
      <trkpt lat="45.70144" lon="4.56453">
        <ele>875.2</ele>
        <time>2025-04-30T14:16:15Z</time>
      </trkpt>
      <trkpt lat="45.70144" lon="4.56453">
        <ele>875.2</ele>
        <time>2025-04-30T14:16:16Z</time>
      </trkpt>
      <trkpt lat="45.70144" lon="4.56453">
        <ele>875.2</ele>
        <time>2025-04-30T14:16:17Z</time>
      </trkpt>
      <trkpt lat="45.70144" lon="4.56453">
        <ele>875.2</ele>
        <time>2025-04-30T14:16:18Z</time>
      </trkpt>
      <trkpt lat="45.70144" lon="4.56453">
        <ele>875.2</ele>
        <time>2025-04-30T14:16:19Z</time>
      </trkpt>
      <trkpt lat="45.70144" lon="4.56453">
        <ele>875.2</ele>
        <time>2025-04-30T14:16:20Z</time>
      </trkpt>
      <trkpt lat="45.70144" lon="4.56453">
        <ele>875.2</ele>
        <time>2025-04-30T14:16:21Z</time>
      </trkpt>
      <trkpt lat="45.70144" lon="4.56453">
        <ele>875.2</ele>
        <time>2025-04-30T14:16:22Z</time>
      </trkpt>
      <trkpt lat="45.70144" lon="4.56453">
        <ele>875.2</ele>
        <time>2025-04-30T14:16:23Z</time>
      </trkpt>
      <trkpt lat="45.70144" lon="4.56453">
        <ele>875.2</ele>
        <time>2025-04-30T14:16:24Z</time>
      </trkpt>
      <trkpt lat="45.70144" lon="4.56453">
        <ele>875.2</ele>
        <time>2025-04-30T14:16:25Z</time>
      </trkpt>
      <trkpt lat="45.70144" lon="4.56453">
        <ele>875.2</ele>
        <time>2025-04-30T14:16:26Z</time>
      </trkpt>
      <trkpt lat="45.70144" lon="4.56453">
        <ele>875.2</ele>
        <time>2025-04-30T14:16:27Z</time>
      </trkpt>
      <trkpt lat="45.70144" lon="4.56453">
        <ele>875.2</ele>
        <time>2025-04-30T14:16:28Z</time>
      </trkpt>
      <trkpt lat="45.70144" lon="4.56453">
        <ele>875.2</ele>
        <time>2025-04-30T14:16:29Z</time>
      </trkpt>
      <trkpt lat="45.70144" lon="4.56453">
        <ele>875.2</ele>
        <time>2025-04-30T14:16:30Z</time>
      </trkpt>
      <trkpt lat="45.70144" lon="4.56453">
        <ele>875.2</ele>
        <time>2025-04-30T14:16:31Z</time>
      </trkpt>
      <trkpt lat="45.70144" lon="4.56453">
        <ele>875.2</ele>
        <time>2025-04-30T14:16:32Z</time>
      </trkpt>
      <trkpt lat="45.70144" lon="4.56453">
        <ele>875.2</ele>
        <time>2025-04-30T14:16:33Z</time>
      </trkpt>
      <trkpt lat="45.70144" lon="4.56453">
        <ele>875.2</ele>
        <time>2025-04-30T14:16:34Z</time>
      </trkpt>
      <trkpt lat="45.70144" lon="4.56453">
        <ele>875.2</ele>
        <time>2025-04-30T14:16:35Z</time>
      </trkpt>
      <trkpt lat="45.70144" lon="4.56453">
        <ele>875.2</ele>
        <time>2025-04-30T14:16:36Z</time>
      </trkpt>
      <trkpt lat="45.70144" lon="4.56453">
        <ele>875.2</ele>
        <time>2025-04-30T14:16:37Z</time>
      </trkpt>
      <trkpt lat="45.70144" lon="4.56453">
        <ele>875.2</ele>
        <time>2025-04-30T14:16:38Z</time>
      </trkpt>
      <trkpt lat="45.70144" lon="4.56453">
        <ele>875.2</ele>
        <time>2025-04-30T14:16:39Z</time>
      </trkpt>
      <trkpt lat="45.70144" lon="4.56453">
        <ele>875.2</ele>
        <time>2025-04-30T14:16:40Z</time>
      </trkpt>
      <trkpt lat="45.70144" lon="4.56453">
        <ele>875.2</ele>
        <time>2025-04-30T14:16:41Z</time>
      </trkpt>
      <trkpt lat="45.70144" lon="4.56453">
        <ele>875.2</ele>
        <time>2025-04-30T14:16:42Z</time>
      </trkpt>
      <trkpt lat="45.70144" lon="4.56453">
        <ele>875.2</ele>
        <time>2025-04-30T14:16:43Z</time>
      </trkpt>
      <trkpt lat="45.70144" lon="4.56453">
        <ele>875.2</ele>
        <time>2025-04-30T14:16:44Z</time>
      </trkpt>
      <trkpt lat="45.70144" lon="4.56453">
        <ele>875.2</ele>
        <time>2025-04-30T14:16:45Z</time>
      </trkpt>
      <trkpt lat="45.70144" lon="4.56453">
        <ele>875.2</ele>
        <time>2025-04-30T14:16:46Z</time>
      </trkpt>
      <trkpt lat="45.70144" lon="4.56453">
        <ele>875.2</ele>
        <time>2025-04-30T14:16:47Z</time>
      </trkpt>
      <trkpt lat="45.70144" lon="4.56453">
        <ele>875.2</ele>
        <time>2025-04-30T14:16:48Z</time>
      </trkpt>
      <trkpt lat="45.70144" lon="4.56453">
        <ele>875.2</ele>
        <time>2025-04-30T14:16:49Z</time>
      </trkpt>
      <trkpt lat="45.70144" lon="4.56453">
        <ele>875.2</ele>
        <time>2025-04-30T14:16:50Z</time>
      </trkpt>
      <trkpt lat="45.70144" lon="4.56453">
        <ele>875.2</ele>
        <time>2025-04-30T14:16:51Z</time>
      </trkpt>
      <trkpt lat="45.70144" lon="4.56453">
        <ele>875.2</ele>
        <time>2025-04-30T14:16:52Z</time>
      </trkpt>
      <trkpt lat="45.70144" lon="4.56453">
        <ele>875.2</ele>
        <time>2025-04-30T14:16:53Z</time>
      </trkpt>
      <trkpt lat="45.70144" lon="4.56453">
        <ele>875.2</ele>
        <time>2025-04-30T14:16:54Z</time>
      </trkpt>
      <trkpt lat="45.70144" lon="4.56453">
        <ele>875.2</ele>
        <time>2025-04-30T14:16:55Z</time>
      </trkpt>
      <trkpt lat="45.70144" lon="4.56453">
        <ele>875.2</ele>
        <time>2025-04-30T14:16:56Z</time>
      </trkpt>
      <trkpt lat="45.70144" lon="4.56453">
        <ele>875.2</ele>
        <time>2025-04-30T14:16:57Z</time>
      </trkpt>
      <trkpt lat="45.70144" lon="4.56453">
        <ele>875.2</ele>
        <time>2025-04-30T14:16:58Z</time>
      </trkpt>
      <trkpt lat="45.70144" lon="4.56453">
        <ele>875.2</ele>
        <time>2025-04-30T14:16:59Z</time>
      </trkpt>
      <trkpt lat="45.70144" lon="4.56453">
        <ele>875.2</ele>
        <time>2025-04-30T14:17:00Z</time>
      </trkpt>
      <trkpt lat="45.70144" lon="4.56453">
        <ele>875.2</ele>
        <time>2025-04-30T14:17:01Z</time>
      </trkpt>
      <trkpt lat="45.70144" lon="4.56453">
        <ele>875.2</ele>
        <time>2025-04-30T14:17:02Z</time>
      </trkpt>
      <trkpt lat="45.70144" lon="4.56453">
        <ele>875.2</ele>
        <time>2025-04-30T14:17:03Z</time>
      </trkpt>
      <trkpt lat="45.70144" lon="4.56453">
        <ele>875.2</ele>
        <time>2025-04-30T14:17:04Z</time>
      </trkpt>
      <trkpt lat="45.70144" lon="4.56453">
        <ele>875.2</ele>
        <time>2025-04-30T14:17:05Z</time>
      </trkpt>
      <trkpt lat="45.70144" lon="4.56453">
        <ele>875.2</ele>
        <time>2025-04-30T14:17:06Z</time>
      </trkpt>
      <trkpt lat="45.70144" lon="4.56453">
        <ele>875.2</ele>
        <time>2025-04-30T14:17:07Z</time>
      </trkpt>
      <trkpt lat="45.70144" lon="4.56453">
        <ele>875.2</ele>
        <time>2025-04-30T14:17:08Z</time>
      </trkpt>
      <trkpt lat="45.70144" lon="4.56453">
        <ele>875.2</ele>
        <time>2025-04-30T14:17:09Z</time>
      </trkpt>
      <trkpt lat="45.70144" lon="4.56453">
        <ele>875.2</ele>
        <time>2025-04-30T14:17:10Z</time>
      </trkpt>
      <trkpt lat="45.70144" lon="4.56453">
        <ele>875.2</ele>
        <time>2025-04-30T14:17:11Z</time>
      </trkpt>
      <trkpt lat="45.70144" lon="4.56453">
        <ele>875.2</ele>
        <time>2025-04-30T14:17:12Z</time>
      </trkpt>
      <trkpt lat="45.70144" lon="4.56453">
        <ele>875.2</ele>
        <time>2025-04-30T14:17:13Z</time>
      </trkpt>
      <trkpt lat="45.70144" lon="4.56453">
        <ele>875.2</ele>
        <time>2025-04-30T14:17:14Z</time>
      </trkpt>
      <trkpt lat="45.70144" lon="4.56453">
        <ele>875.2</ele>
        <time>2025-04-30T14:17:15Z</time>
      </trkpt>
      <trkpt lat="45.70144" lon="4.56453">
        <ele>875.2</ele>
        <time>2025-04-30T14:17:16Z</time>
      </trkpt>
      <trkpt lat="45.70144" lon="4.56453">
        <ele>875.2</ele>
        <time>2025-04-30T14:17:17Z</time>
      </trkpt>
      <trkpt lat="45.70143" lon="4.56452">
        <ele>875.2</ele>
        <time>2025-04-30T14:17:18Z</time>
      </trkpt>
      <trkpt lat="45.70141" lon="4.56451">
        <ele>875.2</ele>
        <time>2025-04-30T14:17:19Z</time>
      </trkpt>
      <trkpt lat="45.70139" lon="4.56451">
        <ele>875.2</ele>
        <time>2025-04-30T14:17:20Z</time>
      </trkpt>
      <trkpt lat="45.70137" lon="4.5645">
        <ele>875.2</ele>
        <time>2025-04-30T14:17:21Z</time>
      </trkpt>
      <trkpt lat="45.70134" lon="4.56449">
        <ele>875.4</ele>
        <time>2025-04-30T14:17:22Z</time>
      </trkpt>
      <trkpt lat="45.70132" lon="4.56448">
        <ele>875.4</ele>
        <time>2025-04-30T14:17:23Z</time>
      </trkpt>
      <trkpt lat="45.70129" lon="4.56446">
        <ele>875.8</ele>
        <time>2025-04-30T14:17:24Z</time>
      </trkpt>
      <trkpt lat="45.70127" lon="4.56444">
        <ele>876.2</ele>
        <time>2025-04-30T14:17:25Z</time>
      </trkpt>
      <trkpt lat="45.70124" lon="4.56443">
        <ele>876.6</ele>
        <time>2025-04-30T14:17:26Z</time>
      </trkpt>
      <trkpt lat="45.70121" lon="4.56442">
        <ele>877</ele>
        <time>2025-04-30T14:17:27Z</time>
      </trkpt>
      <trkpt lat="45.70119" lon="4.56441">
        <ele>877.4</ele>
        <time>2025-04-30T14:17:28Z</time>
      </trkpt>
      <trkpt lat="45.70116" lon="4.56441">
        <ele>877.8</ele>
        <time>2025-04-30T14:17:29Z</time>
      </trkpt>
      <trkpt lat="45.70113" lon="4.56441">
        <ele>878</ele>
        <time>2025-04-30T14:17:30Z</time>
      </trkpt>
      <trkpt lat="45.7011" lon="4.56441">
        <ele>878.2</ele>
        <time>2025-04-30T14:17:31Z</time>
      </trkpt>
      <trkpt lat="45.70108" lon="4.56442">
        <ele>878.6</ele>
        <time>2025-04-30T14:17:32Z</time>
      </trkpt>
      <trkpt lat="45.70105" lon="4.56443">
        <ele>878.8</ele>
        <time>2025-04-30T14:17:33Z</time>
      </trkpt>
      <trkpt lat="45.70102" lon="4.56444">
        <ele>879</ele>
        <time>2025-04-30T14:17:34Z</time>
      </trkpt>
      <trkpt lat="45.70099" lon="4.56446">
        <ele>879.4</ele>
        <time>2025-04-30T14:17:35Z</time>
      </trkpt>
      <trkpt lat="45.70097" lon="4.56447">
        <ele>879.8</ele>
        <time>2025-04-30T14:17:36Z</time>
      </trkpt>
      <trkpt lat="45.70094" lon="4.56448">
        <ele>880</ele>
        <time>2025-04-30T14:17:37Z</time>
      </trkpt>
      <trkpt lat="45.70091" lon="4.56449">
        <ele>880</ele>
        <time>2025-04-30T14:17:38Z</time>
      </trkpt>
      <trkpt lat="45.70088" lon="4.5645">
        <ele>880.2</ele>
        <time>2025-04-30T14:17:39Z</time>
      </trkpt>
      <trkpt lat="45.70086" lon="4.56451">
        <ele>880.4</ele>
        <time>2025-04-30T14:17:40Z</time>
      </trkpt>
      <trkpt lat="45.70083" lon="4.56452">
        <ele>880.6</ele>
        <time>2025-04-30T14:17:41Z</time>
      </trkpt>
      <trkpt lat="45.7008" lon="4.56452">
        <ele>880.8</ele>
        <time>2025-04-30T14:17:42Z</time>
      </trkpt>
      <trkpt lat="45.70077" lon="4.56454">
        <ele>881</ele>
        <time>2025-04-30T14:17:43Z</time>
      </trkpt>
      <trkpt lat="45.70075" lon="4.56456">
        <ele>881.2</ele>
        <time>2025-04-30T14:17:44Z</time>
      </trkpt>
      <trkpt lat="45.70072" lon="4.56458">
        <ele>881.2</ele>
        <time>2025-04-30T14:17:45Z</time>
      </trkpt>
      <trkpt lat="45.70069" lon="4.5646">
        <ele>881.4</ele>
        <time>2025-04-30T14:17:46Z</time>
      </trkpt>
      <trkpt lat="45.70066" lon="4.56462">
        <ele>881.4</ele>
        <time>2025-04-30T14:17:47Z</time>
      </trkpt>
      <trkpt lat="45.70063" lon="4.56463">
        <ele>881.6</ele>
        <time>2025-04-30T14:17:48Z</time>
      </trkpt>
      <trkpt lat="45.7006" lon="4.56464">
        <ele>881.6</ele>
        <time>2025-04-30T14:17:49Z</time>
      </trkpt>
      <trkpt lat="45.70056" lon="4.56465">
        <ele>881.6</ele>
        <time>2025-04-30T14:17:50Z</time>
      </trkpt>
      <trkpt lat="45.70053" lon="4.56466">
        <ele>881.6</ele>
        <time>2025-04-30T14:17:51Z</time>
      </trkpt>
      <trkpt lat="45.7005" lon="4.56467">
        <ele>881.8</ele>
        <time>2025-04-30T14:17:52Z</time>
      </trkpt>
      <trkpt lat="45.70046" lon="4.56469">
        <ele>881.8</ele>
        <time>2025-04-30T14:17:53Z</time>
      </trkpt>
      <trkpt lat="45.70043" lon="4.56471">
        <ele>882</ele>
        <time>2025-04-30T14:17:54Z</time>
      </trkpt>
      <trkpt lat="45.7004" lon="4.56472">
        <ele>882.2</ele>
        <time>2025-04-30T14:17:55Z</time>
      </trkpt>
      <trkpt lat="45.70038" lon="4.56474">
        <ele>882.2</ele>
        <time>2025-04-30T14:17:56Z</time>
      </trkpt>
      <trkpt lat="45.70036" lon="4.56475">
        <ele>882.6</ele>
        <time>2025-04-30T14:17:57Z</time>
      </trkpt>
      <trkpt lat="45.70034" lon="4.56475">
        <ele>883</ele>
        <time>2025-04-30T14:17:58Z</time>
      </trkpt>
      <trkpt lat="45.70033" lon="4.56475">
        <ele>883</ele>
        <time>2025-04-30T14:17:59Z</time>
      </trkpt>
      <trkpt lat="45.70031" lon="4.56475">
        <ele>883</ele>
        <time>2025-04-30T14:18:00Z</time>
      </trkpt>
      <trkpt lat="45.70029" lon="4.56476">
        <ele>883</ele>
        <time>2025-04-30T14:18:01Z</time>
      </trkpt>
      <trkpt lat="45.70027" lon="4.56476">
        <ele>882.8</ele>
        <time>2025-04-30T14:18:02Z</time>
      </trkpt>
      <trkpt lat="45.70025" lon="4.56477">
        <ele>882.8</ele>
        <time>2025-04-30T14:18:03Z</time>
      </trkpt>
      <trkpt lat="45.70021" lon="4.56477">
        <ele>882.6</ele>
        <time>2025-04-30T14:18:04Z</time>
      </trkpt>
      <trkpt lat="45.70018" lon="4.56478">
        <ele>882.4</ele>
        <time>2025-04-30T14:18:05Z</time>
      </trkpt>
      <trkpt lat="45.70014" lon="4.56479">
        <ele>881.8</ele>
        <time>2025-04-30T14:18:06Z</time>
      </trkpt>
      <trkpt lat="45.70009" lon="4.5648">
        <ele>881.4</ele>
        <time>2025-04-30T14:18:07Z</time>
      </trkpt>
      <trkpt lat="45.70005" lon="4.56483">
        <ele>880.6</ele>
        <time>2025-04-30T14:18:08Z</time>
      </trkpt>
      <trkpt lat="45.70001" lon="4.56485">
        <ele>880</ele>
        <time>2025-04-30T14:18:09Z</time>
      </trkpt>
      <trkpt lat="45.69997" lon="4.56488">
        <ele>879.6</ele>
        <time>2025-04-30T14:18:10Z</time>
      </trkpt>
      <trkpt lat="45.69993" lon="4.56489">
        <ele>879</ele>
        <time>2025-04-30T14:18:11Z</time>
      </trkpt>
      <trkpt lat="45.69989" lon="4.56489">
        <ele>878</ele>
        <time>2025-04-30T14:18:12Z</time>
      </trkpt>
      <trkpt lat="45.69985" lon="4.56487">
        <ele>877.4</ele>
        <time>2025-04-30T14:18:13Z</time>
      </trkpt>
      <trkpt lat="45.69981" lon="4.56485">
        <ele>876.8</ele>
        <time>2025-04-30T14:18:14Z</time>
      </trkpt>
      <trkpt lat="45.69976" lon="4.56483">
        <ele>876.4</ele>
        <time>2025-04-30T14:18:15Z</time>
      </trkpt>
      <trkpt lat="45.69971" lon="4.56481">
        <ele>876</ele>
        <time>2025-04-30T14:18:16Z</time>
      </trkpt>
      <trkpt lat="45.69967" lon="4.56479">
        <ele>875.8</ele>
        <time>2025-04-30T14:18:17Z</time>
      </trkpt>
      <trkpt lat="45.69961" lon="4.56476">
        <ele>875.6</ele>
        <time>2025-04-30T14:18:18Z</time>
      </trkpt>
      <trkpt lat="45.69957" lon="4.56475">
        <ele>875.2</ele>
        <time>2025-04-30T14:18:19Z</time>
      </trkpt>
      <trkpt lat="45.69952" lon="4.56473">
        <ele>875.2</ele>
        <time>2025-04-30T14:18:20Z</time>
      </trkpt>
      <trkpt lat="45.69947" lon="4.56471">
        <ele>874.8</ele>
        <time>2025-04-30T14:18:21Z</time>
      </trkpt>
      <trkpt lat="45.69942" lon="4.56469">
        <ele>874.4</ele>
        <time>2025-04-30T14:18:22Z</time>
      </trkpt>
      <trkpt lat="45.69937" lon="4.56468">
        <ele>873.8</ele>
        <time>2025-04-30T14:18:23Z</time>
      </trkpt>
      <trkpt lat="45.69933" lon="4.56467">
        <ele>873.2</ele>
        <time>2025-04-30T14:18:24Z</time>
      </trkpt>
      <trkpt lat="45.69929" lon="4.56467">
        <ele>872.8</ele>
        <time>2025-04-30T14:18:25Z</time>
      </trkpt>
      <trkpt lat="45.69925" lon="4.56467">
        <ele>872.4</ele>
        <time>2025-04-30T14:18:26Z</time>
      </trkpt>
      <trkpt lat="45.69921" lon="4.56467">
        <ele>872.2</ele>
        <time>2025-04-30T14:18:27Z</time>
      </trkpt>
      <trkpt lat="45.69917" lon="4.56467">
        <ele>871.8</ele>
        <time>2025-04-30T14:18:28Z</time>
      </trkpt>
      <trkpt lat="45.69913" lon="4.56468">
        <ele>871.2</ele>
        <time>2025-04-30T14:18:29Z</time>
      </trkpt>
      <trkpt lat="45.69909" lon="4.56468">
        <ele>870.6</ele>
        <time>2025-04-30T14:18:30Z</time>
      </trkpt>
      <trkpt lat="45.69904" lon="4.56469">
        <ele>870.6</ele>
        <time>2025-04-30T14:18:31Z</time>
      </trkpt>
      <trkpt lat="45.69899" lon="4.5647">
        <ele>870.4</ele>
        <time>2025-04-30T14:18:32Z</time>
      </trkpt>
      <trkpt lat="45.69895" lon="4.56471">
        <ele>869.6</ele>
        <time>2025-04-30T14:18:33Z</time>
      </trkpt>
      <trkpt lat="45.6989" lon="4.56471">
        <ele>869.6</ele>
        <time>2025-04-30T14:18:34Z</time>
      </trkpt>
      <trkpt lat="45.69885" lon="4.56472">
        <ele>869.6</ele>
        <time>2025-04-30T14:18:35Z</time>
      </trkpt>
      <trkpt lat="45.69879" lon="4.56473">
        <ele>869.6</ele>
        <time>2025-04-30T14:18:36Z</time>
      </trkpt>
      <trkpt lat="45.69874" lon="4.56474">
        <ele>869.6</ele>
        <time>2025-04-30T14:18:37Z</time>
      </trkpt>
      <trkpt lat="45.69869" lon="4.56474">
        <ele>869.4</ele>
        <time>2025-04-30T14:18:38Z</time>
      </trkpt>
      <trkpt lat="45.69864" lon="4.56475">
        <ele>869.2</ele>
        <time>2025-04-30T14:18:39Z</time>
      </trkpt>
      <trkpt lat="45.69859" lon="4.56475">
        <ele>868.8</ele>
        <time>2025-04-30T14:18:40Z</time>
      </trkpt>
      <trkpt lat="45.69855" lon="4.56475">
        <ele>868.6</ele>
        <time>2025-04-30T14:18:41Z</time>
      </trkpt>
      <trkpt lat="45.6985" lon="4.56475">
        <ele>868.4</ele>
        <time>2025-04-30T14:18:42Z</time>
      </trkpt>
      <trkpt lat="45.69846" lon="4.56474">
        <ele>868.4</ele>
        <time>2025-04-30T14:18:43Z</time>
      </trkpt>
      <trkpt lat="45.69842" lon="4.56474">
        <ele>868.4</ele>
        <time>2025-04-30T14:18:44Z</time>
      </trkpt>
      <trkpt lat="45.69839" lon="4.56474">
        <ele>868.4</ele>
        <time>2025-04-30T14:18:45Z</time>
      </trkpt>
      <trkpt lat="45.69836" lon="4.56473">
        <ele>868.6</ele>
        <time>2025-04-30T14:18:46Z</time>
      </trkpt>
      <trkpt lat="45.69833" lon="4.56473">
        <ele>868.6</ele>
        <time>2025-04-30T14:18:47Z</time>
      </trkpt>
      <trkpt lat="45.69829" lon="4.56473">
        <ele>868.8</ele>
        <time>2025-04-30T14:18:48Z</time>
      </trkpt>
      <trkpt lat="45.69825" lon="4.56473">
        <ele>868.8</ele>
        <time>2025-04-30T14:18:49Z</time>
      </trkpt>
      <trkpt lat="45.69821" lon="4.56472">
        <ele>868.8</ele>
        <time>2025-04-30T14:18:50Z</time>
      </trkpt>
      <trkpt lat="45.69816" lon="4.56471">
        <ele>868.8</ele>
        <time>2025-04-30T14:18:51Z</time>
      </trkpt>
      <trkpt lat="45.69812" lon="4.5647">
        <ele>868.8</ele>
        <time>2025-04-30T14:18:52Z</time>
      </trkpt>
      <trkpt lat="45.69807" lon="4.56469">
        <ele>868.8</ele>
        <time>2025-04-30T14:18:53Z</time>
      </trkpt>
      <trkpt lat="45.69803" lon="4.56468">
        <ele>868.8</ele>
        <time>2025-04-30T14:18:54Z</time>
      </trkpt>
      <trkpt lat="45.69799" lon="4.56467">
        <ele>868.8</ele>
        <time>2025-04-30T14:18:55Z</time>
      </trkpt>
      <trkpt lat="45.69795" lon="4.56467">
        <ele>868.8</ele>
        <time>2025-04-30T14:18:56Z</time>
      </trkpt>
      <trkpt lat="45.69792" lon="4.56466">
        <ele>868.8</ele>
        <time>2025-04-30T14:18:57Z</time>
      </trkpt>
      <trkpt lat="45.69788" lon="4.56466">
        <ele>869</ele>
        <time>2025-04-30T14:18:58Z</time>
      </trkpt>
      <trkpt lat="45.69785" lon="4.56466">
        <ele>869.2</ele>
        <time>2025-04-30T14:18:59Z</time>
      </trkpt>
      <trkpt lat="45.69781" lon="4.56466">
        <ele>869.2</ele>
        <time>2025-04-30T14:19:00Z</time>
      </trkpt>
      <trkpt lat="45.69777" lon="4.56465">
        <ele>869.2</ele>
        <time>2025-04-30T14:19:01Z</time>
      </trkpt>
      <trkpt lat="45.69774" lon="4.56465">
        <ele>869.4</ele>
        <time>2025-04-30T14:19:02Z</time>
      </trkpt>
      <trkpt lat="45.6977" lon="4.56465">
        <ele>869.4</ele>
        <time>2025-04-30T14:19:03Z</time>
      </trkpt>
      <trkpt lat="45.69767" lon="4.56465">
        <ele>869.6</ele>
        <time>2025-04-30T14:19:04Z</time>
      </trkpt>
      <trkpt lat="45.69764" lon="4.56463">
        <ele>869.8</ele>
        <time>2025-04-30T14:19:05Z</time>
      </trkpt>
      <trkpt lat="45.69761" lon="4.56462">
        <ele>870</ele>
        <time>2025-04-30T14:19:06Z</time>
      </trkpt>
      <trkpt lat="45.69757" lon="4.56461">
        <ele>870.4</ele>
        <time>2025-04-30T14:19:07Z</time>
      </trkpt>
      <trkpt lat="45.69754" lon="4.5646">
        <ele>870.8</ele>
        <time>2025-04-30T14:19:08Z</time>
      </trkpt>
      <trkpt lat="45.6975" lon="4.5646">
        <ele>871</ele>
        <time>2025-04-30T14:19:09Z</time>
      </trkpt>
      <trkpt lat="45.69746" lon="4.56458">
        <ele>871.2</ele>
        <time>2025-04-30T14:19:10Z</time>
      </trkpt>
      <trkpt lat="45.69742" lon="4.56456">
        <ele>871.2</ele>
        <time>2025-04-30T14:19:11Z</time>
      </trkpt>
      <trkpt lat="45.69737" lon="4.56453">
        <ele>871.2</ele>
        <time>2025-04-30T14:19:12Z</time>
      </trkpt>
      <trkpt lat="45.69732" lon="4.5645">
        <ele>871.2</ele>
        <time>2025-04-30T14:19:13Z</time>
      </trkpt>
      <trkpt lat="45.69726" lon="4.56447">
        <ele>871.2</ele>
        <time>2025-04-30T14:19:14Z</time>
      </trkpt>
      <trkpt lat="45.69722" lon="4.56445">
        <ele>870.8</ele>
        <time>2025-04-30T14:19:15Z</time>
      </trkpt>
      <trkpt lat="45.69718" lon="4.56444">
        <ele>870.8</ele>
        <time>2025-04-30T14:19:16Z</time>
      </trkpt>
      <trkpt lat="45.69714" lon="4.56443">
        <ele>870.6</ele>
        <time>2025-04-30T14:19:17Z</time>
      </trkpt>
      <trkpt lat="45.6971" lon="4.56441">
        <ele>870.6</ele>
        <time>2025-04-30T14:19:18Z</time>
      </trkpt>
      <trkpt lat="45.69706" lon="4.5644">
        <ele>870.4</ele>
        <time>2025-04-30T14:19:19Z</time>
      </trkpt>
      <trkpt lat="45.69701" lon="4.56439">
        <ele>870.4</ele>
        <time>2025-04-30T14:19:20Z</time>
      </trkpt>
      <trkpt lat="45.69696" lon="4.56437">
        <ele>870.4</ele>
        <time>2025-04-30T14:19:21Z</time>
      </trkpt>
      <trkpt lat="45.69691" lon="4.56436">
        <ele>870.4</ele>
        <time>2025-04-30T14:19:22Z</time>
      </trkpt>
      <trkpt lat="45.69689" lon="4.56435">
        <ele>870.4</ele>
        <time>2025-04-30T14:19:23Z</time>
      </trkpt>
      <trkpt lat="45.69686" lon="4.56434">
        <ele>870.4</ele>
        <time>2025-04-30T14:19:24Z</time>
      </trkpt>
      <trkpt lat="45.69682" lon="4.56434">
        <ele>870.4</ele>
        <time>2025-04-30T14:19:25Z</time>
      </trkpt>
      <trkpt lat="45.69678" lon="4.56433">
        <ele>870.2</ele>
        <time>2025-04-30T14:19:26Z</time>
      </trkpt>
      <trkpt lat="45.69673" lon="4.56431">
        <ele>870.2</ele>
        <time>2025-04-30T14:19:27Z</time>
      </trkpt>
      <trkpt lat="45.69667" lon="4.56431">
        <ele>870.2</ele>
        <time>2025-04-30T14:19:28Z</time>
      </trkpt>
      <trkpt lat="45.69662" lon="4.56431">
        <ele>870.2</ele>
        <time>2025-04-30T14:19:29Z</time>
      </trkpt>
      <trkpt lat="45.69657" lon="4.56432">
        <ele>870.2</ele>
        <time>2025-04-30T14:19:30Z</time>
      </trkpt>
      <trkpt lat="45.69651" lon="4.56434">
        <ele>870.2</ele>
        <time>2025-04-30T14:19:31Z</time>
      </trkpt>
      <trkpt lat="45.69646" lon="4.56435">
        <ele>870.2</ele>
        <time>2025-04-30T14:19:32Z</time>
      </trkpt>
      <trkpt lat="45.6964" lon="4.56435">
        <ele>870.2</ele>
        <time>2025-04-30T14:19:33Z</time>
      </trkpt>
      <trkpt lat="45.69635" lon="4.56437">
        <ele>870.4</ele>
        <time>2025-04-30T14:19:34Z</time>
      </trkpt>
      <trkpt lat="45.69632" lon="4.56439">
        <ele>870.4</ele>
        <time>2025-04-30T14:19:35Z</time>
      </trkpt>
      <trkpt lat="45.69628" lon="4.56438">
        <ele>870.6</ele>
        <time>2025-04-30T14:19:36Z</time>
      </trkpt>
      <trkpt lat="45.69624" lon="4.56438">
        <ele>870.6</ele>
        <time>2025-04-30T14:19:37Z</time>
      </trkpt>
      <trkpt lat="45.69619" lon="4.56439">
        <ele>870.6</ele>
        <time>2025-04-30T14:19:38Z</time>
      </trkpt>
      <trkpt lat="45.69615" lon="4.5644">
        <ele>870.6</ele>
        <time>2025-04-30T14:19:39Z</time>
      </trkpt>
      <trkpt lat="45.6961" lon="4.56441">
        <ele>870.4</ele>
        <time>2025-04-30T14:19:40Z</time>
      </trkpt>
      <trkpt lat="45.69606" lon="4.56442">
        <ele>870.4</ele>
        <time>2025-04-30T14:19:41Z</time>
      </trkpt>
      <trkpt lat="45.69601" lon="4.56442">
        <ele>870.2</ele>
        <time>2025-04-30T14:19:42Z</time>
      </trkpt>
      <trkpt lat="45.69596" lon="4.56444">
        <ele>870</ele>
        <time>2025-04-30T14:19:43Z</time>
      </trkpt>
      <trkpt lat="45.6959" lon="4.56444">
        <ele>869.6</ele>
        <time>2025-04-30T14:19:44Z</time>
      </trkpt>
      <trkpt lat="45.69585" lon="4.56445">
        <ele>868.8</ele>
        <time>2025-04-30T14:19:45Z</time>
      </trkpt>
      <trkpt lat="45.69581" lon="4.56445">
        <ele>868.4</ele>
        <time>2025-04-30T14:19:46Z</time>
      </trkpt>
      <trkpt lat="45.69578" lon="4.56445">
        <ele>868.2</ele>
        <time>2025-04-30T14:19:47Z</time>
      </trkpt>
      <trkpt lat="45.69575" lon="4.56445">
        <ele>868</ele>
        <time>2025-04-30T14:19:48Z</time>
      </trkpt>
      <trkpt lat="45.69572" lon="4.56445">
        <ele>867.8</ele>
        <time>2025-04-30T14:19:49Z</time>
      </trkpt>
      <trkpt lat="45.6957" lon="4.56445">
        <ele>867.6</ele>
        <time>2025-04-30T14:19:50Z</time>
      </trkpt>
      <trkpt lat="45.69569" lon="4.56446">
        <ele>867.2</ele>
        <time>2025-04-30T14:19:51Z</time>
      </trkpt>
      <trkpt lat="45.69567" lon="4.56446">
        <ele>867</ele>
        <time>2025-04-30T14:19:52Z</time>
      </trkpt>
      <trkpt lat="45.69565" lon="4.56446">
        <ele>866.8</ele>
        <time>2025-04-30T14:19:53Z</time>
      </trkpt>
      <trkpt lat="45.69563" lon="4.56447">
        <ele>866.6</ele>
        <time>2025-04-30T14:19:54Z</time>
      </trkpt>
      <trkpt lat="45.6956" lon="4.56448">
        <ele>866.4</ele>
        <time>2025-04-30T14:19:55Z</time>
      </trkpt>
      <trkpt lat="45.69557" lon="4.5645">
        <ele>866.2</ele>
        <time>2025-04-30T14:19:56Z</time>
      </trkpt>
      <trkpt lat="45.69554" lon="4.56451">
        <ele>865.6</ele>
        <time>2025-04-30T14:19:57Z</time>
      </trkpt>
      <trkpt lat="45.69551" lon="4.56452">
        <ele>865.4</ele>
        <time>2025-04-30T14:19:58Z</time>
      </trkpt>
      <trkpt lat="45.69547" lon="4.56453">
        <ele>865</ele>
        <time>2025-04-30T14:19:59Z</time>
      </trkpt>
      <trkpt lat="45.69544" lon="4.56454">
        <ele>864.4</ele>
        <time>2025-04-30T14:20:00Z</time>
      </trkpt>
      <trkpt lat="45.69541" lon="4.56454">
        <ele>864</ele>
        <time>2025-04-30T14:20:01Z</time>
      </trkpt>
      <trkpt lat="45.69538" lon="4.56456">
        <ele>863.6</ele>
        <time>2025-04-30T14:20:02Z</time>
      </trkpt>
      <trkpt lat="45.69535" lon="4.56458">
        <ele>863.4</ele>
        <time>2025-04-30T14:20:03Z</time>
      </trkpt>
      <trkpt lat="45.69532" lon="4.56459">
        <ele>862.8</ele>
        <time>2025-04-30T14:20:04Z</time>
      </trkpt>
      <trkpt lat="45.69529" lon="4.56461">
        <ele>862.4</ele>
        <time>2025-04-30T14:20:05Z</time>
      </trkpt>
      <trkpt lat="45.69526" lon="4.56462">
        <ele>862.2</ele>
        <time>2025-04-30T14:20:06Z</time>
      </trkpt>
      <trkpt lat="45.69524" lon="4.56463">
        <ele>862</ele>
        <time>2025-04-30T14:20:07Z</time>
      </trkpt>
      <trkpt lat="45.69522" lon="4.56465">
        <ele>861.6</ele>
        <time>2025-04-30T14:20:08Z</time>
      </trkpt>
      <trkpt lat="45.6952" lon="4.56466">
        <ele>861.4</ele>
        <time>2025-04-30T14:20:09Z</time>
      </trkpt>
      <trkpt lat="45.69518" lon="4.56467">
        <ele>861.2</ele>
        <time>2025-04-30T14:20:10Z</time>
      </trkpt>
      <trkpt lat="45.69517" lon="4.56468">
        <ele>861</ele>
        <time>2025-04-30T14:20:11Z</time>
      </trkpt>
      <trkpt lat="45.69514" lon="4.56469">
        <ele>861</ele>
        <time>2025-04-30T14:20:12Z</time>
      </trkpt>
      <trkpt lat="45.69511" lon="4.5647">
        <ele>861</ele>
        <time>2025-04-30T14:20:13Z</time>
      </trkpt>
      <trkpt lat="45.69507" lon="4.56472">
        <ele>860.8</ele>
        <time>2025-04-30T14:20:14Z</time>
      </trkpt>
      <trkpt lat="45.69504" lon="4.56474">
        <ele>860.8</ele>
        <time>2025-04-30T14:20:15Z</time>
      </trkpt>
      <trkpt lat="45.69502" lon="4.56476">
        <ele>860.6</ele>
        <time>2025-04-30T14:20:16Z</time>
      </trkpt>
      <trkpt lat="45.69498" lon="4.56478">
        <ele>860.4</ele>
        <time>2025-04-30T14:20:17Z</time>
      </trkpt>
      <trkpt lat="45.69496" lon="4.5648">
        <ele>860</ele>
        <time>2025-04-30T14:20:18Z</time>
      </trkpt>
      <trkpt lat="45.69493" lon="4.56482">
        <ele>859.8</ele>
        <time>2025-04-30T14:20:19Z</time>
      </trkpt>
      <trkpt lat="45.6949" lon="4.56484">
        <ele>859.2</ele>
        <time>2025-04-30T14:20:20Z</time>
      </trkpt>
      <trkpt lat="45.69486" lon="4.56486">
        <ele>858.6</ele>
        <time>2025-04-30T14:20:21Z</time>
      </trkpt>
      <trkpt lat="45.69481" lon="4.5649">
        <ele>858.2</ele>
        <time>2025-04-30T14:20:22Z</time>
      </trkpt>
      <trkpt lat="45.69476" lon="4.56493">
        <ele>858</ele>
        <time>2025-04-30T14:20:23Z</time>
      </trkpt>
      <trkpt lat="45.69472" lon="4.56495">
        <ele>857.6</ele>
        <time>2025-04-30T14:20:24Z</time>
      </trkpt>
      <trkpt lat="45.69467" lon="4.56498">
        <ele>856.8</ele>
        <time>2025-04-30T14:20:25Z</time>
      </trkpt>
      <trkpt lat="45.69463" lon="4.56501">
        <ele>856.4</ele>
        <time>2025-04-30T14:20:26Z</time>
      </trkpt>
      <trkpt lat="45.6946" lon="4.56503">
        <ele>856.2</ele>
        <time>2025-04-30T14:20:27Z</time>
      </trkpt>
      <trkpt lat="45.69457" lon="4.56503">
        <ele>856</ele>
        <time>2025-04-30T14:20:28Z</time>
      </trkpt>
      <trkpt lat="45.69455" lon="4.56505">
        <ele>855.8</ele>
        <time>2025-04-30T14:20:29Z</time>
      </trkpt>
      <trkpt lat="45.69453" lon="4.56507">
        <ele>855.6</ele>
        <time>2025-04-30T14:20:30Z</time>
      </trkpt>
      <trkpt lat="45.69451" lon="4.5651">
        <ele>855.4</ele>
        <time>2025-04-30T14:20:31Z</time>
      </trkpt>
      <trkpt lat="45.69448" lon="4.56514">
        <ele>855.4</ele>
        <time>2025-04-30T14:20:32Z</time>
      </trkpt>
      <trkpt lat="45.69444" lon="4.56516">
        <ele>855</ele>
        <time>2025-04-30T14:20:33Z</time>
      </trkpt>
      <trkpt lat="45.69441" lon="4.56519">
        <ele>854.8</ele>
        <time>2025-04-30T14:20:34Z</time>
      </trkpt>
      <trkpt lat="45.69437" lon="4.56521">
        <ele>854.2</ele>
        <time>2025-04-30T14:20:35Z</time>
      </trkpt>
      <trkpt lat="45.69433" lon="4.56523">
        <ele>853.8</ele>
        <time>2025-04-30T14:20:36Z</time>
      </trkpt>
      <trkpt lat="45.69429" lon="4.56525">
        <ele>853.4</ele>
        <time>2025-04-30T14:20:37Z</time>
      </trkpt>
      <trkpt lat="45.69425" lon="4.56528">
        <ele>853.2</ele>
        <time>2025-04-30T14:20:38Z</time>
      </trkpt>
      <trkpt lat="45.69421" lon="4.5653">
        <ele>852.6</ele>
        <time>2025-04-30T14:20:39Z</time>
      </trkpt>
      <trkpt lat="45.69416" lon="4.56532">
        <ele>852.4</ele>
        <time>2025-04-30T14:20:40Z</time>
      </trkpt>
      <trkpt lat="45.69412" lon="4.56534">
        <ele>852.4</ele>
        <time>2025-04-30T14:20:41Z</time>
      </trkpt>
      <trkpt lat="45.69408" lon="4.56537">
        <ele>852.2</ele>
        <time>2025-04-30T14:20:42Z</time>
      </trkpt>
      <trkpt lat="45.69403" lon="4.5654">
        <ele>852.2</ele>
        <time>2025-04-30T14:20:43Z</time>
      </trkpt>
      <trkpt lat="45.69398" lon="4.5654">
        <ele>852</ele>
        <time>2025-04-30T14:20:44Z</time>
      </trkpt>
      <trkpt lat="45.69392" lon="4.56541">
        <ele>851.8</ele>
        <time>2025-04-30T14:20:45Z</time>
      </trkpt>
      <trkpt lat="45.69387" lon="4.56542">
        <ele>851.8</ele>
        <time>2025-04-30T14:20:46Z</time>
      </trkpt>
      <trkpt lat="45.69383" lon="4.56542">
        <ele>851.6</ele>
        <time>2025-04-30T14:20:47Z</time>
      </trkpt>
      <trkpt lat="45.69378" lon="4.56543">
        <ele>851.4</ele>
        <time>2025-04-30T14:20:48Z</time>
      </trkpt>
      <trkpt lat="45.69373" lon="4.56543">
        <ele>851.2</ele>
        <time>2025-04-30T14:20:49Z</time>
      </trkpt>
      <trkpt lat="45.69368" lon="4.56543">
        <ele>851</ele>
        <time>2025-04-30T14:20:50Z</time>
      </trkpt>
      <trkpt lat="45.69364" lon="4.56545">
        <ele>851</ele>
        <time>2025-04-30T14:20:51Z</time>
      </trkpt>
      <trkpt lat="45.6936" lon="4.56549">
        <ele>850.8</ele>
        <time>2025-04-30T14:20:52Z</time>
      </trkpt>
      <trkpt lat="45.69355" lon="4.56552">
        <ele>850.6</ele>
        <time>2025-04-30T14:20:53Z</time>
      </trkpt>
      <trkpt lat="45.69352" lon="4.56554">
        <ele>850.4</ele>
        <time>2025-04-30T14:20:54Z</time>
      </trkpt>
      <trkpt lat="45.69348" lon="4.56555">
        <ele>850.2</ele>
        <time>2025-04-30T14:20:55Z</time>
      </trkpt>
      <trkpt lat="45.69344" lon="4.56556">
        <ele>850.2</ele>
        <time>2025-04-30T14:20:56Z</time>
      </trkpt>
      <trkpt lat="45.6934" lon="4.56558">
        <ele>849.8</ele>
        <time>2025-04-30T14:20:57Z</time>
      </trkpt>
      <trkpt lat="45.69335" lon="4.5656">
        <ele>849.6</ele>
        <time>2025-04-30T14:20:58Z</time>
      </trkpt>
      <trkpt lat="45.6933" lon="4.56562">
        <ele>849.4</ele>
        <time>2025-04-30T14:20:59Z</time>
      </trkpt>
      <trkpt lat="45.69326" lon="4.56563">
        <ele>848.6</ele>
        <time>2025-04-30T14:21:00Z</time>
      </trkpt>
      <trkpt lat="45.6932" lon="4.56565">
        <ele>848.4</ele>
        <time>2025-04-30T14:21:01Z</time>
      </trkpt>
      <trkpt lat="45.69315" lon="4.56565">
        <ele>848.2</ele>
        <time>2025-04-30T14:21:02Z</time>
      </trkpt>
      <trkpt lat="45.6931" lon="4.56566">
        <ele>847.8</ele>
        <time>2025-04-30T14:21:03Z</time>
      </trkpt>
      <trkpt lat="45.69305" lon="4.56567">
        <ele>847.4</ele>
        <time>2025-04-30T14:21:04Z</time>
      </trkpt>
      <trkpt lat="45.69301" lon="4.56568">
        <ele>847</ele>
        <time>2025-04-30T14:21:05Z</time>
      </trkpt>
      <trkpt lat="45.69297" lon="4.5657">
        <ele>846.8</ele>
        <time>2025-04-30T14:21:06Z</time>
      </trkpt>
      <trkpt lat="45.69293" lon="4.56571">
        <ele>846.4</ele>
        <time>2025-04-30T14:21:07Z</time>
      </trkpt>
      <trkpt lat="45.6929" lon="4.56571">
        <ele>845.8</ele>
        <time>2025-04-30T14:21:08Z</time>
      </trkpt>
      <trkpt lat="45.69287" lon="4.56572">
        <ele>845.8</ele>
        <time>2025-04-30T14:21:09Z</time>
      </trkpt>
      <trkpt lat="45.69283" lon="4.56574">
        <ele>845.6</ele>
        <time>2025-04-30T14:21:10Z</time>
      </trkpt>
      <trkpt lat="45.69278" lon="4.56576">
        <ele>845</ele>
        <time>2025-04-30T14:21:11Z</time>
      </trkpt>
      <trkpt lat="45.69274" lon="4.56579">
        <ele>844.4</ele>
        <time>2025-04-30T14:21:12Z</time>
      </trkpt>
      <trkpt lat="45.69269" lon="4.56583">
        <ele>844</ele>
        <time>2025-04-30T14:21:13Z</time>
      </trkpt>
      <trkpt lat="45.69264" lon="4.56587">
        <ele>843</ele>
        <time>2025-04-30T14:21:14Z</time>
      </trkpt>
      <trkpt lat="45.6926" lon="4.5659">
        <ele>842</ele>
        <time>2025-04-30T14:21:15Z</time>
      </trkpt>
      <trkpt lat="45.69256" lon="4.56595">
        <ele>841.4</ele>
        <time>2025-04-30T14:21:16Z</time>
      </trkpt>
      <trkpt lat="45.69252" lon="4.566">
        <ele>841</ele>
        <time>2025-04-30T14:21:17Z</time>
      </trkpt>
      <trkpt lat="45.69249" lon="4.56604">
        <ele>840.6</ele>
        <time>2025-04-30T14:21:18Z</time>
      </trkpt>
      <trkpt lat="45.69246" lon="4.56609">
        <ele>840</ele>
        <time>2025-04-30T14:21:19Z</time>
      </trkpt>
      <trkpt lat="45.69243" lon="4.56613">
        <ele>839.8</ele>
        <time>2025-04-30T14:21:20Z</time>
      </trkpt>
      <trkpt lat="45.6924" lon="4.56618">
        <ele>839</ele>
        <time>2025-04-30T14:21:21Z</time>
      </trkpt>
      <trkpt lat="45.69237" lon="4.56623">
        <ele>838.2</ele>
        <time>2025-04-30T14:21:22Z</time>
      </trkpt>
      <trkpt lat="45.69234" lon="4.56626">
        <ele>837.8</ele>
        <time>2025-04-30T14:21:23Z</time>
      </trkpt>
      <trkpt lat="45.69232" lon="4.56628">
        <ele>837.4</ele>
        <time>2025-04-30T14:21:24Z</time>
      </trkpt>
      <trkpt lat="45.6923" lon="4.56631">
        <ele>837</ele>
        <time>2025-04-30T14:21:25Z</time>
      </trkpt>
      <trkpt lat="45.69228" lon="4.56634">
        <ele>837</ele>
        <time>2025-04-30T14:21:26Z</time>
      </trkpt>
      <trkpt lat="45.69226" lon="4.56637">
        <ele>836.6</ele>
        <time>2025-04-30T14:21:27Z</time>
      </trkpt>
      <trkpt lat="45.69224" lon="4.56641">
        <ele>836.4</ele>
        <time>2025-04-30T14:21:28Z</time>
      </trkpt>
      <trkpt lat="45.69219" lon="4.56645">
        <ele>835.8</ele>
        <time>2025-04-30T14:21:29Z</time>
      </trkpt>
      <trkpt lat="45.69214" lon="4.56648">
        <ele>835.2</ele>
        <time>2025-04-30T14:21:30Z</time>
      </trkpt>
      <trkpt lat="45.69209" lon="4.56652">
        <ele>834.8</ele>
        <time>2025-04-30T14:21:31Z</time>
      </trkpt>
      <trkpt lat="45.69204" lon="4.56656">
        <ele>834.2</ele>
        <time>2025-04-30T14:21:32Z</time>
      </trkpt>
      <trkpt lat="45.69201" lon="4.5666">
        <ele>833.6</ele>
        <time>2025-04-30T14:21:33Z</time>
      </trkpt>
      <trkpt lat="45.69198" lon="4.56664">
        <ele>832.6</ele>
        <time>2025-04-30T14:21:34Z</time>
      </trkpt>
      <trkpt lat="45.69197" lon="4.56669">
        <ele>832.4</ele>
        <time>2025-04-30T14:21:35Z</time>
      </trkpt>
      <trkpt lat="45.69196" lon="4.56672">
        <ele>832.2</ele>
        <time>2025-04-30T14:21:36Z</time>
      </trkpt>
      <trkpt lat="45.69195" lon="4.56675">
        <ele>832</ele>
        <time>2025-04-30T14:21:37Z</time>
      </trkpt>
      <trkpt lat="45.69194" lon="4.56679">
        <ele>832</ele>
        <time>2025-04-30T14:21:38Z</time>
      </trkpt>
      <trkpt lat="45.69192" lon="4.56682">
        <ele>832</ele>
        <time>2025-04-30T14:21:39Z</time>
      </trkpt>
      <trkpt lat="45.69191" lon="4.56685">
        <ele>831.8</ele>
        <time>2025-04-30T14:21:40Z</time>
      </trkpt>
      <trkpt lat="45.69189" lon="4.56689">
        <ele>831.4</ele>
        <time>2025-04-30T14:21:41Z</time>
      </trkpt>
      <trkpt lat="45.69188" lon="4.56693">
        <ele>831</ele>
        <time>2025-04-30T14:21:42Z</time>
      </trkpt>
      <trkpt lat="45.69186" lon="4.56697">
        <ele>830.6</ele>
        <time>2025-04-30T14:21:43Z</time>
      </trkpt>
      <trkpt lat="45.69185" lon="4.56701">
        <ele>830.4</ele>
        <time>2025-04-30T14:21:44Z</time>
      </trkpt>
      <trkpt lat="45.69184" lon="4.56705">
        <ele>830.2</ele>
        <time>2025-04-30T14:21:45Z</time>
      </trkpt>
      <trkpt lat="45.69183" lon="4.56709">
        <ele>829.8</ele>
        <time>2025-04-30T14:21:46Z</time>
      </trkpt>
      <trkpt lat="45.69182" lon="4.56713">
        <ele>829.2</ele>
        <time>2025-04-30T14:21:47Z</time>
      </trkpt>
      <trkpt lat="45.69181" lon="4.56716">
        <ele>828.8</ele>
        <time>2025-04-30T14:21:48Z</time>
      </trkpt>
      <trkpt lat="45.69179" lon="4.56719">
        <ele>828.6</ele>
        <time>2025-04-30T14:21:49Z</time>
      </trkpt>
      <trkpt lat="45.69177" lon="4.56722">
        <ele>827.8</ele>
        <time>2025-04-30T14:21:50Z</time>
      </trkpt>
      <trkpt lat="45.69176" lon="4.56725">
        <ele>827.6</ele>
        <time>2025-04-30T14:21:51Z</time>
      </trkpt>
      <trkpt lat="45.69174" lon="4.56727">
        <ele>827.2</ele>
        <time>2025-04-30T14:21:52Z</time>
      </trkpt>
      <trkpt lat="45.69172" lon="4.5673">
        <ele>826.4</ele>
        <time>2025-04-30T14:21:53Z</time>
      </trkpt>
      <trkpt lat="45.6917" lon="4.56732">
        <ele>826</ele>
        <time>2025-04-30T14:21:54Z</time>
      </trkpt>
      <trkpt lat="45.69167" lon="4.56735">
        <ele>825.6</ele>
        <time>2025-04-30T14:21:55Z</time>
      </trkpt>
      <trkpt lat="45.69164" lon="4.56738">
        <ele>825</ele>
        <time>2025-04-30T14:21:56Z</time>
      </trkpt>
      <trkpt lat="45.69161" lon="4.56741">
        <ele>824.4</ele>
        <time>2025-04-30T14:21:57Z</time>
      </trkpt>
      <trkpt lat="45.69157" lon="4.56743">
        <ele>823.8</ele>
        <time>2025-04-30T14:21:58Z</time>
      </trkpt>
      <trkpt lat="45.69154" lon="4.56744">
        <ele>823.2</ele>
        <time>2025-04-30T14:21:59Z</time>
      </trkpt>
      <trkpt lat="45.69149" lon="4.56745">
        <ele>823</ele>
        <time>2025-04-30T14:22:00Z</time>
      </trkpt>
      <trkpt lat="45.69145" lon="4.56746">
        <ele>822.6</ele>
        <time>2025-04-30T14:22:01Z</time>
      </trkpt>
      <trkpt lat="45.6914" lon="4.56747">
        <ele>822</ele>
        <time>2025-04-30T14:22:02Z</time>
      </trkpt>
      <trkpt lat="45.69137" lon="4.56748">
        <ele>821</ele>
        <time>2025-04-30T14:22:03Z</time>
      </trkpt>
      <trkpt lat="45.69136" lon="4.56748">
        <ele>820.8</ele>
        <time>2025-04-30T14:22:04Z</time>
      </trkpt>
      <trkpt lat="45.69134" lon="4.56749">
        <ele>820.6</ele>
        <time>2025-04-30T14:22:05Z</time>
      </trkpt>
      <trkpt lat="45.69134" lon="4.56751">
        <ele>820.6</ele>
        <time>2025-04-30T14:22:06Z</time>
      </trkpt>
      <trkpt lat="45.69133" lon="4.56753">
        <ele>820.4</ele>
        <time>2025-04-30T14:22:07Z</time>
      </trkpt>
      <trkpt lat="45.69131" lon="4.56754">
        <ele>820.4</ele>
        <time>2025-04-30T14:22:08Z</time>
      </trkpt>
      <trkpt lat="45.6913" lon="4.56756">
        <ele>820.2</ele>
        <time>2025-04-30T14:22:09Z</time>
      </trkpt>
      <trkpt lat="45.69128" lon="4.56758">
        <ele>820</ele>
        <time>2025-04-30T14:22:10Z</time>
      </trkpt>
      <trkpt lat="45.69126" lon="4.5676">
        <ele>819.8</ele>
        <time>2025-04-30T14:22:11Z</time>
      </trkpt>
      <trkpt lat="45.69124" lon="4.56762">
        <ele>819.6</ele>
        <time>2025-04-30T14:22:12Z</time>
      </trkpt>
      <trkpt lat="45.69122" lon="4.56764">
        <ele>819.4</ele>
        <time>2025-04-30T14:22:13Z</time>
      </trkpt>
      <trkpt lat="45.6912" lon="4.56766">
        <ele>819.2</ele>
        <time>2025-04-30T14:22:14Z</time>
      </trkpt>
      <trkpt lat="45.69117" lon="4.56769">
        <ele>819</ele>
        <time>2025-04-30T14:22:15Z</time>
      </trkpt>
      <trkpt lat="45.69114" lon="4.56772">
        <ele>819</ele>
        <time>2025-04-30T14:22:16Z</time>
      </trkpt>
      <trkpt lat="45.6911" lon="4.56775">
        <ele>818.6</ele>
        <time>2025-04-30T14:22:17Z</time>
      </trkpt>
      <trkpt lat="45.69106" lon="4.56779">
        <ele>818.2</ele>
        <time>2025-04-30T14:22:18Z</time>
      </trkpt>
      <trkpt lat="45.69102" lon="4.56784">
        <ele>818</ele>
        <time>2025-04-30T14:22:19Z</time>
      </trkpt>
      <trkpt lat="45.69097" lon="4.56788">
        <ele>817.4</ele>
        <time>2025-04-30T14:22:20Z</time>
      </trkpt>
      <trkpt lat="45.69093" lon="4.56792">
        <ele>817</ele>
        <time>2025-04-30T14:22:21Z</time>
      </trkpt>
      <trkpt lat="45.69089" lon="4.56797">
        <ele>816.8</ele>
        <time>2025-04-30T14:22:22Z</time>
      </trkpt>
      <trkpt lat="45.69085" lon="4.56802">
        <ele>816.2</ele>
        <time>2025-04-30T14:22:23Z</time>
      </trkpt>
      <trkpt lat="45.69081" lon="4.56807">
        <ele>815.8</ele>
        <time>2025-04-30T14:22:24Z</time>
      </trkpt>
      <trkpt lat="45.69076" lon="4.56811">
        <ele>815.6</ele>
        <time>2025-04-30T14:22:25Z</time>
      </trkpt>
      <trkpt lat="45.69072" lon="4.56817">
        <ele>815.4</ele>
        <time>2025-04-30T14:22:26Z</time>
      </trkpt>
      <trkpt lat="45.69068" lon="4.56822">
        <ele>815.4</ele>
        <time>2025-04-30T14:22:27Z</time>
      </trkpt>
      <trkpt lat="45.69064" lon="4.56827">
        <ele>815.2</ele>
        <time>2025-04-30T14:22:28Z</time>
      </trkpt>
      <trkpt lat="45.6906" lon="4.56833">
        <ele>815.2</ele>
        <time>2025-04-30T14:22:29Z</time>
      </trkpt>
      <trkpt lat="45.69056" lon="4.56838">
        <ele>815.2</ele>
        <time>2025-04-30T14:22:30Z</time>
      </trkpt>
      <trkpt lat="45.69052" lon="4.56843">
        <ele>815.2</ele>
        <time>2025-04-30T14:22:31Z</time>
      </trkpt>
      <trkpt lat="45.69048" lon="4.56849">
        <ele>815.2</ele>
        <time>2025-04-30T14:22:32Z</time>
      </trkpt>
      <trkpt lat="45.69045" lon="4.56854">
        <ele>815.2</ele>
        <time>2025-04-30T14:22:33Z</time>
      </trkpt>
      <trkpt lat="45.69042" lon="4.5686">
        <ele>815.2</ele>
        <time>2025-04-30T14:22:34Z</time>
      </trkpt>
      <trkpt lat="45.69039" lon="4.56867">
        <ele>815.2</ele>
        <time>2025-04-30T14:22:35Z</time>
      </trkpt>
      <trkpt lat="45.69036" lon="4.56874">
        <ele>815.2</ele>
        <time>2025-04-30T14:22:36Z</time>
      </trkpt>
      <trkpt lat="45.69034" lon="4.56881">
        <ele>815.4</ele>
        <time>2025-04-30T14:22:37Z</time>
      </trkpt>
      <trkpt lat="45.69032" lon="4.56889">
        <ele>815.6</ele>
        <time>2025-04-30T14:22:38Z</time>
      </trkpt>
      <trkpt lat="45.69031" lon="4.56896">
        <ele>815.8</ele>
        <time>2025-04-30T14:22:39Z</time>
      </trkpt>
      <trkpt lat="45.69029" lon="4.56904">
        <ele>815.8</ele>
        <time>2025-04-30T14:22:40Z</time>
      </trkpt>
      <trkpt lat="45.69027" lon="4.56912">
        <ele>816.4</ele>
        <time>2025-04-30T14:22:41Z</time>
      </trkpt>
      <trkpt lat="45.69025" lon="4.56919">
        <ele>816.4</ele>
        <time>2025-04-30T14:22:42Z</time>
      </trkpt>
      <trkpt lat="45.69023" lon="4.56927">
        <ele>816.6</ele>
        <time>2025-04-30T14:22:43Z</time>
      </trkpt>
      <trkpt lat="45.69021" lon="4.56934">
        <ele>816.6</ele>
        <time>2025-04-30T14:22:44Z</time>
      </trkpt>
      <trkpt lat="45.69019" lon="4.56941">
        <ele>816.6</ele>
        <time>2025-04-30T14:22:45Z</time>
      </trkpt>
      <trkpt lat="45.69017" lon="4.56947">
        <ele>816.6</ele>
        <time>2025-04-30T14:22:46Z</time>
      </trkpt>
      <trkpt lat="45.69014" lon="4.56954">
        <ele>816.8</ele>
        <time>2025-04-30T14:22:47Z</time>
      </trkpt>
      <trkpt lat="45.69012" lon="4.56959">
        <ele>817</ele>
        <time>2025-04-30T14:22:48Z</time>
      </trkpt>
      <trkpt lat="45.69008" lon="4.56966">
        <ele>817</ele>
        <time>2025-04-30T14:22:49Z</time>
      </trkpt>
      <trkpt lat="45.69005" lon="4.56972">
        <ele>817</ele>
        <time>2025-04-30T14:22:50Z</time>
      </trkpt>
      <trkpt lat="45.69002" lon="4.56977">
        <ele>817</ele>
        <time>2025-04-30T14:22:51Z</time>
      </trkpt>
      <trkpt lat="45.68997" lon="4.56984">
        <ele>817</ele>
        <time>2025-04-30T14:22:52Z</time>
      </trkpt>
      <trkpt lat="45.68992" lon="4.56989">
        <ele>817</ele>
        <time>2025-04-30T14:22:53Z</time>
      </trkpt>
      <trkpt lat="45.68989" lon="4.56994">
        <ele>816.8</ele>
        <time>2025-04-30T14:22:54Z</time>
      </trkpt>
      <trkpt lat="45.68983" lon="4.56999">
        <ele>816.6</ele>
        <time>2025-04-30T14:22:55Z</time>
      </trkpt>
      <trkpt lat="45.68978" lon="4.57004">
        <ele>816.2</ele>
        <time>2025-04-30T14:22:56Z</time>
      </trkpt>
      <trkpt lat="45.68974" lon="4.57007">
        <ele>816</ele>
        <time>2025-04-30T14:22:57Z</time>
      </trkpt>
      <trkpt lat="45.68967" lon="4.57011">
        <ele>815.8</ele>
        <time>2025-04-30T14:22:58Z</time>
      </trkpt>
      <trkpt lat="45.68962" lon="4.57015">
        <ele>815.4</ele>
        <time>2025-04-30T14:22:59Z</time>
      </trkpt>
      <trkpt lat="45.68956" lon="4.5702">
        <ele>815.2</ele>
        <time>2025-04-30T14:23:00Z</time>
      </trkpt>
      <trkpt lat="45.68951" lon="4.57024">
        <ele>814.8</ele>
        <time>2025-04-30T14:23:01Z</time>
      </trkpt>
      <trkpt lat="45.68945" lon="4.57028">
        <ele>814.6</ele>
        <time>2025-04-30T14:23:02Z</time>
      </trkpt>
      <trkpt lat="45.68939" lon="4.57032">
        <ele>814.4</ele>
        <time>2025-04-30T14:23:03Z</time>
      </trkpt>
      <trkpt lat="45.68933" lon="4.57037">
        <ele>814.2</ele>
        <time>2025-04-30T14:23:04Z</time>
      </trkpt>
      <trkpt lat="45.68926" lon="4.57041">
        <ele>813.8</ele>
        <time>2025-04-30T14:23:05Z</time>
      </trkpt>
      <trkpt lat="45.68919" lon="4.57047">
        <ele>813.2</ele>
        <time>2025-04-30T14:23:06Z</time>
      </trkpt>
      <trkpt lat="45.68911" lon="4.57052">
        <ele>811.2</ele>
        <time>2025-04-30T14:23:07Z</time>
      </trkpt>
      <trkpt lat="45.68904" lon="4.5706">
        <ele>809.6</ele>
        <time>2025-04-30T14:23:08Z</time>
      </trkpt>
      <trkpt lat="45.68898" lon="4.57069">
        <ele>808.2</ele>
        <time>2025-04-30T14:23:09Z</time>
      </trkpt>
      <trkpt lat="45.68892" lon="4.5708">
        <ele>806</ele>
        <time>2025-04-30T14:23:10Z</time>
      </trkpt>
      <trkpt lat="45.68888" lon="4.57093">
        <ele>805</ele>
        <time>2025-04-30T14:23:11Z</time>
      </trkpt>
      <trkpt lat="45.68884" lon="4.57108">
        <ele>803.4</ele>
        <time>2025-04-30T14:23:12Z</time>
      </trkpt>
      <trkpt lat="45.68881" lon="4.57122">
        <ele>802.2</ele>
        <time>2025-04-30T14:23:13Z</time>
      </trkpt>
      <trkpt lat="45.68878" lon="4.57137">
        <ele>801.8</ele>
        <time>2025-04-30T14:23:14Z</time>
      </trkpt>
      <trkpt lat="45.68875" lon="4.57152">
        <ele>801.2</ele>
        <time>2025-04-30T14:23:15Z</time>
      </trkpt>
      <trkpt lat="45.68871" lon="4.57168">
        <ele>800.6</ele>
        <time>2025-04-30T14:23:16Z</time>
      </trkpt>
      <trkpt lat="45.68866" lon="4.57183">
        <ele>799.2</ele>
        <time>2025-04-30T14:23:17Z</time>
      </trkpt>
      <trkpt lat="45.68861" lon="4.57198">
        <ele>798</ele>
        <time>2025-04-30T14:23:18Z</time>
      </trkpt>
      <trkpt lat="45.68855" lon="4.57213">
        <ele>796.4</ele>
        <time>2025-04-30T14:23:19Z</time>
      </trkpt>
      <trkpt lat="45.6885" lon="4.57228">
        <ele>795.6</ele>
        <time>2025-04-30T14:23:20Z</time>
      </trkpt>
      <trkpt lat="45.68844" lon="4.57242">
        <ele>794</ele>
        <time>2025-04-30T14:23:21Z</time>
      </trkpt>
      <trkpt lat="45.68838" lon="4.57255">
        <ele>793.4</ele>
        <time>2025-04-30T14:23:22Z</time>
      </trkpt>
      <trkpt lat="45.68831" lon="4.57268">
        <ele>792.8</ele>
        <time>2025-04-30T14:23:23Z</time>
      </trkpt>
      <trkpt lat="45.68825" lon="4.57281">
        <ele>792.6</ele>
        <time>2025-04-30T14:23:24Z</time>
      </trkpt>
      <trkpt lat="45.68818" lon="4.57292">
        <ele>792.2</ele>
        <time>2025-04-30T14:23:25Z</time>
      </trkpt>
      <trkpt lat="45.68811" lon="4.57304">
        <ele>791.6</ele>
        <time>2025-04-30T14:23:26Z</time>
      </trkpt>
      <trkpt lat="45.68804" lon="4.57315">
        <ele>790.4</ele>
        <time>2025-04-30T14:23:27Z</time>
      </trkpt>
      <trkpt lat="45.68796" lon="4.57326">
        <ele>789.8</ele>
        <time>2025-04-30T14:23:28Z</time>
      </trkpt>
      <trkpt lat="45.68789" lon="4.57336">
        <ele>789.4</ele>
        <time>2025-04-30T14:23:29Z</time>
      </trkpt>
      <trkpt lat="45.68782" lon="4.57347">
        <ele>789</ele>
        <time>2025-04-30T14:23:30Z</time>
      </trkpt>
      <trkpt lat="45.68776" lon="4.57357">
        <ele>789</ele>
        <time>2025-04-30T14:23:31Z</time>
      </trkpt>
      <trkpt lat="45.6877" lon="4.57368">
        <ele>789</ele>
        <time>2025-04-30T14:23:32Z</time>
      </trkpt>
      <trkpt lat="45.68764" lon="4.57378">
        <ele>789</ele>
        <time>2025-04-30T14:23:33Z</time>
      </trkpt>
      <trkpt lat="45.68757" lon="4.5739">
        <ele>789</ele>
        <time>2025-04-30T14:23:34Z</time>
      </trkpt>
      <trkpt lat="45.68752" lon="4.57399">
        <ele>788.8</ele>
        <time>2025-04-30T14:23:35Z</time>
      </trkpt>
      <trkpt lat="45.68745" lon="4.57412">
        <ele>788.8</ele>
        <time>2025-04-30T14:23:36Z</time>
      </trkpt>
      <trkpt lat="45.68739" lon="4.57423">
        <ele>788.4</ele>
        <time>2025-04-30T14:23:37Z</time>
      </trkpt>
      <trkpt lat="45.68733" lon="4.57432">
        <ele>787.8</ele>
        <time>2025-04-30T14:23:38Z</time>
      </trkpt>
      <trkpt lat="45.68725" lon="4.57445">
        <ele>786.2</ele>
        <time>2025-04-30T14:23:39Z</time>
      </trkpt>
      <trkpt lat="45.6872" lon="4.57455">
        <ele>785.2</ele>
        <time>2025-04-30T14:23:40Z</time>
      </trkpt>
      <trkpt lat="45.68711" lon="4.5747">
        <ele>784</ele>
        <time>2025-04-30T14:23:41Z</time>
      </trkpt>
      <trkpt lat="45.68704" lon="4.57482">
        <ele>783</ele>
        <time>2025-04-30T14:23:42Z</time>
      </trkpt>
      <trkpt lat="45.68697" lon="4.57493">
        <ele>781.6</ele>
        <time>2025-04-30T14:23:43Z</time>
      </trkpt>
      <trkpt lat="45.68688" lon="4.57509">
        <ele>779.8</ele>
        <time>2025-04-30T14:23:44Z</time>
      </trkpt>
      <trkpt lat="45.68681" lon="4.5752">
        <ele>778</ele>
        <time>2025-04-30T14:23:45Z</time>
      </trkpt>
      <trkpt lat="45.68672" lon="4.57533">
        <ele>776.8</ele>
        <time>2025-04-30T14:23:46Z</time>
      </trkpt>
      <trkpt lat="45.68661" lon="4.57547">
        <ele>775.4</ele>
        <time>2025-04-30T14:23:47Z</time>
      </trkpt>
      <trkpt lat="45.68653" lon="4.57559">
        <ele>773.6</ele>
        <time>2025-04-30T14:23:48Z</time>
      </trkpt>
      <trkpt lat="45.68647" lon="4.57567">
        <ele>772.8</ele>
        <time>2025-04-30T14:23:49Z</time>
      </trkpt>
      <trkpt lat="45.68637" lon="4.57578">
        <ele>772.4</ele>
        <time>2025-04-30T14:23:50Z</time>
      </trkpt>
      <trkpt lat="45.6863" lon="4.57588">
        <ele>772</ele>
        <time>2025-04-30T14:23:51Z</time>
      </trkpt>
      <trkpt lat="45.68625" lon="4.57596">
        <ele>771.8</ele>
        <time>2025-04-30T14:23:52Z</time>
      </trkpt>
      <trkpt lat="45.68618" lon="4.57607">
        <ele>771.8</ele>
        <time>2025-04-30T14:23:53Z</time>
      </trkpt>
      <trkpt lat="45.68613" lon="4.57616">
        <ele>771.8</ele>
        <time>2025-04-30T14:23:54Z</time>
      </trkpt>
      <trkpt lat="45.6861" lon="4.57623">
        <ele>772</ele>
        <time>2025-04-30T14:23:55Z</time>
      </trkpt>
      <trkpt lat="45.68606" lon="4.57631">
        <ele>772</ele>
        <time>2025-04-30T14:23:56Z</time>
      </trkpt>
      <trkpt lat="45.68604" lon="4.57635">
        <ele>772.6</ele>
        <time>2025-04-30T14:23:57Z</time>
      </trkpt>
      <trkpt lat="45.68601" lon="4.57639">
        <ele>773</ele>
        <time>2025-04-30T14:23:58Z</time>
      </trkpt>
      <trkpt lat="45.68598" lon="4.57642">
        <ele>773.6</ele>
        <time>2025-04-30T14:23:59Z</time>
      </trkpt>
      <trkpt lat="45.68595" lon="4.57644">
        <ele>774</ele>
        <time>2025-04-30T14:24:00Z</time>
      </trkpt>
      <trkpt lat="45.68594" lon="4.57647">
        <ele>774.2</ele>
        <time>2025-04-30T14:24:01Z</time>
      </trkpt>
      <trkpt lat="45.68593" lon="4.57651">
        <ele>774.8</ele>
        <time>2025-04-30T14:24:02Z</time>
      </trkpt>
      <trkpt lat="45.68591" lon="4.57654">
        <ele>774.8</ele>
        <time>2025-04-30T14:24:03Z</time>
      </trkpt>
      <trkpt lat="45.6859" lon="4.57657">
        <ele>774.8</ele>
        <time>2025-04-30T14:24:04Z</time>
      </trkpt>
      <trkpt lat="45.68588" lon="4.5766">
        <ele>774.8</ele>
        <time>2025-04-30T14:24:05Z</time>
      </trkpt>
      <trkpt lat="45.68587" lon="4.57664">
        <ele>775</ele>
        <time>2025-04-30T14:24:06Z</time>
      </trkpt>
      <trkpt lat="45.68585" lon="4.57667">
        <ele>775</ele>
        <time>2025-04-30T14:24:07Z</time>
      </trkpt>
      <trkpt lat="45.68584" lon="4.57671">
        <ele>775.2</ele>
        <time>2025-04-30T14:24:08Z</time>
      </trkpt>
      <trkpt lat="45.68582" lon="4.57676">
        <ele>775.2</ele>
        <time>2025-04-30T14:24:09Z</time>
      </trkpt>
      <trkpt lat="45.68581" lon="4.5768">
        <ele>775.2</ele>
        <time>2025-04-30T14:24:10Z</time>
      </trkpt>
      <trkpt lat="45.68578" lon="4.57686">
        <ele>775.4</ele>
        <time>2025-04-30T14:24:11Z</time>
      </trkpt>
      <trkpt lat="45.68577" lon="4.57691">
        <ele>775.4</ele>
        <time>2025-04-30T14:24:12Z</time>
      </trkpt>
      <trkpt lat="45.68575" lon="4.57695">
        <ele>775.6</ele>
        <time>2025-04-30T14:24:13Z</time>
      </trkpt>
      <trkpt lat="45.68573" lon="4.57701">
        <ele>775.8</ele>
        <time>2025-04-30T14:24:14Z</time>
      </trkpt>
      <trkpt lat="45.68572" lon="4.57706">
        <ele>776</ele>
        <time>2025-04-30T14:24:15Z</time>
      </trkpt>
      <trkpt lat="45.68571" lon="4.57711">
        <ele>776</ele>
        <time>2025-04-30T14:24:16Z</time>
      </trkpt>
      <trkpt lat="45.68569" lon="4.57717">
        <ele>776</ele>
        <time>2025-04-30T14:24:17Z</time>
      </trkpt>
      <trkpt lat="45.68568" lon="4.57723">
        <ele>776</ele>
        <time>2025-04-30T14:24:18Z</time>
      </trkpt>
      <trkpt lat="45.68567" lon="4.57727">
        <ele>776.2</ele>
        <time>2025-04-30T14:24:19Z</time>
      </trkpt>
      <trkpt lat="45.68566" lon="4.57733">
        <ele>776.6</ele>
        <time>2025-04-30T14:24:20Z</time>
      </trkpt>
      <trkpt lat="45.68564" lon="4.57739">
        <ele>776.8</ele>
        <time>2025-04-30T14:24:21Z</time>
      </trkpt>
      <trkpt lat="45.68563" lon="4.57745">
        <ele>777.2</ele>
        <time>2025-04-30T14:24:22Z</time>
      </trkpt>
      <trkpt lat="45.68562" lon="4.57753">
        <ele>777.6</ele>
        <time>2025-04-30T14:24:23Z</time>
      </trkpt>
      <trkpt lat="45.68562" lon="4.57759">
        <ele>777.8</ele>
        <time>2025-04-30T14:24:24Z</time>
      </trkpt>
      <trkpt lat="45.68561" lon="4.57764">
        <ele>777.8</ele>
        <time>2025-04-30T14:24:25Z</time>
      </trkpt>
      <trkpt lat="45.68561" lon="4.57772">
        <ele>777.8</ele>
        <time>2025-04-30T14:24:26Z</time>
      </trkpt>
      <trkpt lat="45.6856" lon="4.57779">
        <ele>777.8</ele>
        <time>2025-04-30T14:24:27Z</time>
      </trkpt>
      <trkpt lat="45.6856" lon="4.57784">
        <ele>777.6</ele>
        <time>2025-04-30T14:24:28Z</time>
      </trkpt>
      <trkpt lat="45.68559" lon="4.57791">
        <ele>777.6</ele>
        <time>2025-04-30T14:24:29Z</time>
      </trkpt>
      <trkpt lat="45.68558" lon="4.57798">
        <ele>777.4</ele>
        <time>2025-04-30T14:24:30Z</time>
      </trkpt>
      <trkpt lat="45.68556" lon="4.57804">
        <ele>777.4</ele>
        <time>2025-04-30T14:24:31Z</time>
      </trkpt>
      <trkpt lat="45.68555" lon="4.57809">
        <ele>777.4</ele>
        <time>2025-04-30T14:24:32Z</time>
      </trkpt>
      <trkpt lat="45.68552" lon="4.57816">
        <ele>777.4</ele>
        <time>2025-04-30T14:24:33Z</time>
      </trkpt>
      <trkpt lat="45.6855" lon="4.57822">
        <ele>777.2</ele>
        <time>2025-04-30T14:24:34Z</time>
      </trkpt>
      <trkpt lat="45.68548" lon="4.57828">
        <ele>777.2</ele>
        <time>2025-04-30T14:24:35Z</time>
      </trkpt>
      <trkpt lat="45.68546" lon="4.57835">
        <ele>777.2</ele>
        <time>2025-04-30T14:24:36Z</time>
      </trkpt>
      <trkpt lat="45.68544" lon="4.57841">
        <ele>777</ele>
        <time>2025-04-30T14:24:37Z</time>
      </trkpt>
      <trkpt lat="45.68543" lon="4.57848">
        <ele>776.8</ele>
        <time>2025-04-30T14:24:38Z</time>
      </trkpt>
      <trkpt lat="45.68543" lon="4.57858">
        <ele>776.4</ele>
        <time>2025-04-30T14:24:39Z</time>
      </trkpt>
      <trkpt lat="45.68544" lon="4.57867">
        <ele>776</ele>
        <time>2025-04-30T14:24:40Z</time>
      </trkpt>
      <trkpt lat="45.68545" lon="4.57874">
        <ele>775.8</ele>
        <time>2025-04-30T14:24:41Z</time>
      </trkpt>
      <trkpt lat="45.68546" lon="4.57882">
        <ele>775</ele>
        <time>2025-04-30T14:24:42Z</time>
      </trkpt>
      <trkpt lat="45.68548" lon="4.57893">
        <ele>774.2</ele>
        <time>2025-04-30T14:24:43Z</time>
      </trkpt>
      <trkpt lat="45.68549" lon="4.579">
        <ele>773.8</ele>
        <time>2025-04-30T14:24:44Z</time>
      </trkpt>
      <trkpt lat="45.6855" lon="4.57909">
        <ele>773.4</ele>
        <time>2025-04-30T14:24:45Z</time>
      </trkpt>
      <trkpt lat="45.68551" lon="4.5792">
        <ele>773.2</ele>
        <time>2025-04-30T14:24:46Z</time>
      </trkpt>
      <trkpt lat="45.68551" lon="4.57927">
        <ele>772.8</ele>
        <time>2025-04-30T14:24:47Z</time>
      </trkpt>
      <trkpt lat="45.68551" lon="4.57938">
        <ele>772.4</ele>
        <time>2025-04-30T14:24:48Z</time>
      </trkpt>
      <trkpt lat="45.68551" lon="4.57945">
        <ele>772.2</ele>
        <time>2025-04-30T14:24:49Z</time>
      </trkpt>
      <trkpt lat="45.68551" lon="4.57954">
        <ele>772.2</ele>
        <time>2025-04-30T14:24:50Z</time>
      </trkpt>
      <trkpt lat="45.68551" lon="4.57965">
        <ele>772.2</ele>
        <time>2025-04-30T14:24:51Z</time>
      </trkpt>
      <trkpt lat="45.6855" lon="4.57974">
        <ele>772</ele>
        <time>2025-04-30T14:24:52Z</time>
      </trkpt>
      <trkpt lat="45.68549" lon="4.57981">
        <ele>772</ele>
        <time>2025-04-30T14:24:53Z</time>
      </trkpt>
      <trkpt lat="45.68548" lon="4.5799">
        <ele>772</ele>
        <time>2025-04-30T14:24:54Z</time>
      </trkpt>
      <trkpt lat="45.68547" lon="4.58001">
        <ele>772</ele>
        <time>2025-04-30T14:24:55Z</time>
      </trkpt>
      <trkpt lat="45.68545" lon="4.5801">
        <ele>772</ele>
        <time>2025-04-30T14:24:56Z</time>
      </trkpt>
      <trkpt lat="45.68544" lon="4.58016">
        <ele>771.8</ele>
        <time>2025-04-30T14:24:57Z</time>
      </trkpt>
      <trkpt lat="45.68542" lon="4.58027">
        <ele>771.8</ele>
        <time>2025-04-30T14:24:58Z</time>
      </trkpt>
      <trkpt lat="45.6854" lon="4.58035">
        <ele>771.8</ele>
        <time>2025-04-30T14:24:59Z</time>
      </trkpt>
      <trkpt lat="45.68538" lon="4.58042">
        <ele>771.6</ele>
        <time>2025-04-30T14:25:00Z</time>
      </trkpt>
      <trkpt lat="45.68536" lon="4.58052">
        <ele>771.4</ele>
        <time>2025-04-30T14:25:01Z</time>
      </trkpt>
      <trkpt lat="45.68534" lon="4.58061">
        <ele>771.2</ele>
        <time>2025-04-30T14:25:02Z</time>
      </trkpt>
      <trkpt lat="45.68533" lon="4.58069">
        <ele>771</ele>
        <time>2025-04-30T14:25:03Z</time>
      </trkpt>
      <trkpt lat="45.68531" lon="4.58077">
        <ele>771</ele>
        <time>2025-04-30T14:25:04Z</time>
      </trkpt>
      <trkpt lat="45.68529" lon="4.58086">
        <ele>771</ele>
        <time>2025-04-30T14:25:05Z</time>
      </trkpt>
      <trkpt lat="45.68527" lon="4.58092">
        <ele>771</ele>
        <time>2025-04-30T14:25:06Z</time>
      </trkpt>
      <trkpt lat="45.68525" lon="4.58102">
        <ele>771.2</ele>
        <time>2025-04-30T14:25:07Z</time>
      </trkpt>
      <trkpt lat="45.68524" lon="4.58109">
        <ele>771.4</ele>
        <time>2025-04-30T14:25:08Z</time>
      </trkpt>
      <trkpt lat="45.68522" lon="4.58119">
        <ele>771.4</ele>
        <time>2025-04-30T14:25:09Z</time>
      </trkpt>
      <trkpt lat="45.6852" lon="4.58127">
        <ele>771.4</ele>
        <time>2025-04-30T14:25:10Z</time>
      </trkpt>
      <trkpt lat="45.68518" lon="4.58133">
        <ele>771.4</ele>
        <time>2025-04-30T14:25:11Z</time>
      </trkpt>
      <trkpt lat="45.68517" lon="4.5814">
        <ele>771.4</ele>
        <time>2025-04-30T14:25:12Z</time>
      </trkpt>
      <trkpt lat="45.68515" lon="4.58148">
        <ele>771.6</ele>
        <time>2025-04-30T14:25:13Z</time>
      </trkpt>
      <trkpt lat="45.68513" lon="4.58157">
        <ele>771.6</ele>
        <time>2025-04-30T14:25:14Z</time>
      </trkpt>
      <trkpt lat="45.68512" lon="4.58164">
        <ele>772</ele>
        <time>2025-04-30T14:25:15Z</time>
      </trkpt>
      <trkpt lat="45.6851" lon="4.58171">
        <ele>772</ele>
        <time>2025-04-30T14:25:16Z</time>
      </trkpt>
      <trkpt lat="45.68508" lon="4.58178">
        <ele>772.2</ele>
        <time>2025-04-30T14:25:17Z</time>
      </trkpt>
      <trkpt lat="45.68506" lon="4.58185">
        <ele>772.4</ele>
        <time>2025-04-30T14:25:18Z</time>
      </trkpt>
      <trkpt lat="45.68504" lon="4.58193">
        <ele>772.4</ele>
        <time>2025-04-30T14:25:19Z</time>
      </trkpt>
      <trkpt lat="45.68502" lon="4.58201">
        <ele>772.4</ele>
        <time>2025-04-30T14:25:20Z</time>
      </trkpt>
      <trkpt lat="45.685" lon="4.58207">
        <ele>772.2</ele>
        <time>2025-04-30T14:25:21Z</time>
      </trkpt>
      <trkpt lat="45.68497" lon="4.58214">
        <ele>771.8</ele>
        <time>2025-04-30T14:25:22Z</time>
      </trkpt>
      <trkpt lat="45.68493" lon="4.58223">
        <ele>771.2</ele>
        <time>2025-04-30T14:25:23Z</time>
      </trkpt>
      <trkpt lat="45.6849" lon="4.5823">
        <ele>771</ele>
        <time>2025-04-30T14:25:24Z</time>
      </trkpt>
      <trkpt lat="45.68486" lon="4.58236">
        <ele>770.8</ele>
        <time>2025-04-30T14:25:25Z</time>
      </trkpt>
      <trkpt lat="45.68482" lon="4.58243">
        <ele>770.6</ele>
        <time>2025-04-30T14:25:26Z</time>
      </trkpt>
      <trkpt lat="45.68478" lon="4.58249">
        <ele>770.6</ele>
        <time>2025-04-30T14:25:27Z</time>
      </trkpt>
      <trkpt lat="45.68473" lon="4.58255">
        <ele>770</ele>
        <time>2025-04-30T14:25:28Z</time>
      </trkpt>
      <trkpt lat="45.68468" lon="4.58261">
        <ele>769.8</ele>
        <time>2025-04-30T14:25:29Z</time>
      </trkpt>
      <trkpt lat="45.68464" lon="4.58265">
        <ele>769.2</ele>
        <time>2025-04-30T14:25:30Z</time>
      </trkpt>
      <trkpt lat="45.68457" lon="4.58273">
        <ele>768.8</ele>
        <time>2025-04-30T14:25:31Z</time>
      </trkpt>
      <trkpt lat="45.68452" lon="4.58277">
        <ele>768.2</ele>
        <time>2025-04-30T14:25:32Z</time>
      </trkpt>
      <trkpt lat="45.68446" lon="4.58283">
        <ele>767.6</ele>
        <time>2025-04-30T14:25:33Z</time>
      </trkpt>
      <trkpt lat="45.68439" lon="4.58289">
        <ele>767</ele>
        <time>2025-04-30T14:25:34Z</time>
      </trkpt>
      <trkpt lat="45.68432" lon="4.58294">
        <ele>766.2</ele>
        <time>2025-04-30T14:25:35Z</time>
      </trkpt>
      <trkpt lat="45.68425" lon="4.58298">
        <ele>765</ele>
        <time>2025-04-30T14:25:36Z</time>
      </trkpt>
      <trkpt lat="45.68417" lon="4.58302">
        <ele>764.2</ele>
        <time>2025-04-30T14:25:37Z</time>
      </trkpt>
      <trkpt lat="45.68411" lon="4.58305">
        <ele>763.6</ele>
        <time>2025-04-30T14:25:38Z</time>
      </trkpt>
      <trkpt lat="45.68407" lon="4.58308">
        <ele>763</ele>
        <time>2025-04-30T14:25:39Z</time>
      </trkpt>
      <trkpt lat="45.68401" lon="4.58312">
        <ele>762.8</ele>
        <time>2025-04-30T14:25:40Z</time>
      </trkpt>
      <trkpt lat="45.68395" lon="4.58316">
        <ele>762.8</ele>
        <time>2025-04-30T14:25:41Z</time>
      </trkpt>
      <trkpt lat="45.68392" lon="4.5832">
        <ele>762.6</ele>
        <time>2025-04-30T14:25:42Z</time>
      </trkpt>
      <trkpt lat="45.68387" lon="4.58327">
        <ele>762.6</ele>
        <time>2025-04-30T14:25:43Z</time>
      </trkpt>
      <trkpt lat="45.68383" lon="4.58332">
        <ele>762.4</ele>
        <time>2025-04-30T14:25:44Z</time>
      </trkpt>
      <trkpt lat="45.68379" lon="4.58337">
        <ele>761.8</ele>
        <time>2025-04-30T14:25:45Z</time>
      </trkpt>
      <trkpt lat="45.68375" lon="4.58343">
        <ele>761.6</ele>
        <time>2025-04-30T14:25:46Z</time>
      </trkpt>
      <trkpt lat="45.68371" lon="4.58348">
        <ele>761.2</ele>
        <time>2025-04-30T14:25:47Z</time>
      </trkpt>
      <trkpt lat="45.68366" lon="4.58353">
        <ele>761</ele>
        <time>2025-04-30T14:25:48Z</time>
      </trkpt>
      <trkpt lat="45.68362" lon="4.58357">
        <ele>760.8</ele>
        <time>2025-04-30T14:25:49Z</time>
      </trkpt>
      <trkpt lat="45.68358" lon="4.5836">
        <ele>760.2</ele>
        <time>2025-04-30T14:25:50Z</time>
      </trkpt>
      <trkpt lat="45.68355" lon="4.58361">
        <ele>759.8</ele>
        <time>2025-04-30T14:25:51Z</time>
      </trkpt>
      <trkpt lat="45.68353" lon="4.58362">
        <ele>759.6</ele>
        <time>2025-04-30T14:25:52Z</time>
      </trkpt>
      <trkpt lat="45.68352" lon="4.58363">
        <ele>759.6</ele>
        <time>2025-04-30T14:25:53Z</time>
      </trkpt>
      <trkpt lat="45.68351" lon="4.58364">
        <ele>759.4</ele>
        <time>2025-04-30T14:25:54Z</time>
      </trkpt>
      <trkpt lat="45.68351" lon="4.58364">
        <ele>759.4</ele>
        <time>2025-04-30T14:25:55Z</time>
      </trkpt>
      <trkpt lat="45.68351" lon="4.58364">
        <ele>759.6</ele>
        <time>2025-04-30T14:25:56Z</time>
      </trkpt>
      <trkpt lat="45.68351" lon="4.58364">
        <ele>759.8</ele>
        <time>2025-04-30T14:25:57Z</time>
      </trkpt>
      <trkpt lat="45.68351" lon="4.58364">
        <ele>760</ele>
        <time>2025-04-30T14:25:58Z</time>
      </trkpt>
      <trkpt lat="45.68351" lon="4.58364">
        <ele>760</ele>
        <time>2025-04-30T14:25:59Z</time>
      </trkpt>
      <trkpt lat="45.68351" lon="4.58364">
        <ele>760</ele>
        <time>2025-04-30T14:26:00Z</time>
      </trkpt>
      <trkpt lat="45.6835" lon="4.58364">
        <ele>760</ele>
        <time>2025-04-30T14:26:01Z</time>
      </trkpt>
      <trkpt lat="45.68348" lon="4.58363">
        <ele>760</ele>
        <time>2025-04-30T14:26:02Z</time>
      </trkpt>
      <trkpt lat="45.68347" lon="4.58363">
        <ele>759.8</ele>
        <time>2025-04-30T14:26:03Z</time>
      </trkpt>
      <trkpt lat="45.68345" lon="4.58362">
        <ele>759.8</ele>
        <time>2025-04-30T14:26:04Z</time>
      </trkpt>
      <trkpt lat="45.68343" lon="4.58362">
        <ele>759.6</ele>
        <time>2025-04-30T14:26:05Z</time>
      </trkpt>
      <trkpt lat="45.68339" lon="4.58361">
        <ele>759.4</ele>
        <time>2025-04-30T14:26:06Z</time>
      </trkpt>
      <trkpt lat="45.68335" lon="4.5836">
        <ele>759</ele>
        <time>2025-04-30T14:26:07Z</time>
      </trkpt>
      <trkpt lat="45.6833" lon="4.58358">
        <ele>758.4</ele>
        <time>2025-04-30T14:26:08Z</time>
      </trkpt>
      <trkpt lat="45.68327" lon="4.58357">
        <ele>758</ele>
        <time>2025-04-30T14:26:09Z</time>
      </trkpt>
      <trkpt lat="45.68321" lon="4.58356">
        <ele>757.2</ele>
        <time>2025-04-30T14:26:10Z</time>
      </trkpt>
      <trkpt lat="45.68317" lon="4.58355">
        <ele>756.4</ele>
        <time>2025-04-30T14:26:11Z</time>
      </trkpt>
      <trkpt lat="45.68313" lon="4.58354">
        <ele>755.6</ele>
        <time>2025-04-30T14:26:12Z</time>
      </trkpt>
      <trkpt lat="45.68308" lon="4.58353">
        <ele>754.8</ele>
        <time>2025-04-30T14:26:13Z</time>
      </trkpt>
      <trkpt lat="45.68302" lon="4.58351">
        <ele>754.2</ele>
        <time>2025-04-30T14:26:14Z</time>
      </trkpt>
      <trkpt lat="45.68296" lon="4.58349">
        <ele>753.2</ele>
        <time>2025-04-30T14:26:15Z</time>
      </trkpt>
      <trkpt lat="45.6829" lon="4.58347">
        <ele>752.4</ele>
        <time>2025-04-30T14:26:16Z</time>
      </trkpt>
      <trkpt lat="45.68283" lon="4.58345">
        <ele>751.4</ele>
        <time>2025-04-30T14:26:17Z</time>
      </trkpt>
      <trkpt lat="45.68276" lon="4.58343">
        <ele>750</ele>
        <time>2025-04-30T14:26:18Z</time>
      </trkpt>
      <trkpt lat="45.68268" lon="4.5834">
        <ele>748.4</ele>
        <time>2025-04-30T14:26:19Z</time>
      </trkpt>
      <trkpt lat="45.6826" lon="4.58338">
        <ele>747</ele>
        <time>2025-04-30T14:26:20Z</time>
      </trkpt>
      <trkpt lat="45.68252" lon="4.58336">
        <ele>745.8</ele>
        <time>2025-04-30T14:26:21Z</time>
      </trkpt>
      <trkpt lat="45.68243" lon="4.58334">
        <ele>744.4</ele>
        <time>2025-04-30T14:26:22Z</time>
      </trkpt>
      <trkpt lat="45.68237" lon="4.58332">
        <ele>743.2</ele>
        <time>2025-04-30T14:26:23Z</time>
      </trkpt>
      <trkpt lat="45.68234" lon="4.5833">
        <ele>742.6</ele>
        <time>2025-04-30T14:26:24Z</time>
      </trkpt>
      <trkpt lat="45.6823" lon="4.58326">
        <ele>742</ele>
        <time>2025-04-30T14:26:25Z</time>
      </trkpt>
      <trkpt lat="45.68227" lon="4.58322">
        <ele>741.8</ele>
        <time>2025-04-30T14:26:26Z</time>
      </trkpt>
      <trkpt lat="45.68225" lon="4.58316">
        <ele>741.6</ele>
        <time>2025-04-30T14:26:27Z</time>
      </trkpt>
      <trkpt lat="45.68222" lon="4.5831">
        <ele>741.4</ele>
        <time>2025-04-30T14:26:28Z</time>
      </trkpt>
      <trkpt lat="45.6822" lon="4.58304">
        <ele>740.8</ele>
        <time>2025-04-30T14:26:29Z</time>
      </trkpt>
      <trkpt lat="45.68218" lon="4.58297">
        <ele>740.2</ele>
        <time>2025-04-30T14:26:30Z</time>
      </trkpt>
      <trkpt lat="45.68214" lon="4.58288">
        <ele>739.8</ele>
        <time>2025-04-30T14:26:31Z</time>
      </trkpt>
      <trkpt lat="45.68211" lon="4.58282">
        <ele>739</ele>
        <time>2025-04-30T14:26:32Z</time>
      </trkpt>
      <trkpt lat="45.68207" lon="4.58275">
        <ele>738.4</ele>
        <time>2025-04-30T14:26:33Z</time>
      </trkpt>
      <trkpt lat="45.68203" lon="4.58269">
        <ele>738</ele>
        <time>2025-04-30T14:26:34Z</time>
      </trkpt>
      <trkpt lat="45.68199" lon="4.58263">
        <ele>737.6</ele>
        <time>2025-04-30T14:26:35Z</time>
      </trkpt>
      <trkpt lat="45.68196" lon="4.58256">
        <ele>737.6</ele>
        <time>2025-04-30T14:26:36Z</time>
      </trkpt>
      <trkpt lat="45.68192" lon="4.5825">
        <ele>737.4</ele>
        <time>2025-04-30T14:26:37Z</time>
      </trkpt>
      <trkpt lat="45.68189" lon="4.58244">
        <ele>737.4</ele>
        <time>2025-04-30T14:26:38Z</time>
      </trkpt>
      <trkpt lat="45.68185" lon="4.58238">
        <ele>737.2</ele>
        <time>2025-04-30T14:26:39Z</time>
      </trkpt>
      <trkpt lat="45.68181" lon="4.58232">
        <ele>737.2</ele>
        <time>2025-04-30T14:26:40Z</time>
      </trkpt>
      <trkpt lat="45.68177" lon="4.58225">
        <ele>737</ele>
        <time>2025-04-30T14:26:41Z</time>
      </trkpt>
      <trkpt lat="45.68172" lon="4.58217">
        <ele>736.6</ele>
        <time>2025-04-30T14:26:42Z</time>
      </trkpt>
      <trkpt lat="45.68168" lon="4.58209">
        <ele>736.2</ele>
        <time>2025-04-30T14:26:43Z</time>
      </trkpt>
      <trkpt lat="45.68163" lon="4.58201">
        <ele>735.8</ele>
        <time>2025-04-30T14:26:44Z</time>
      </trkpt>
      <trkpt lat="45.68158" lon="4.58193">
        <ele>735.6</ele>
        <time>2025-04-30T14:26:45Z</time>
      </trkpt>
      <trkpt lat="45.68153" lon="4.58185">
        <ele>735.2</ele>
        <time>2025-04-30T14:26:46Z</time>
      </trkpt>
      <trkpt lat="45.68149" lon="4.58177">
        <ele>734.8</ele>
        <time>2025-04-30T14:26:47Z</time>
      </trkpt>
      <trkpt lat="45.68143" lon="4.5817">
        <ele>734.6</ele>
        <time>2025-04-30T14:26:48Z</time>
      </trkpt>
      <trkpt lat="45.68138" lon="4.58162">
        <ele>734.4</ele>
        <time>2025-04-30T14:26:49Z</time>
      </trkpt>
      <trkpt lat="45.68134" lon="4.58154">
        <ele>734</ele>
        <time>2025-04-30T14:26:50Z</time>
      </trkpt>
      <trkpt lat="45.68129" lon="4.58147">
        <ele>733.6</ele>
        <time>2025-04-30T14:26:51Z</time>
      </trkpt>
      <trkpt lat="45.68124" lon="4.5814">
        <ele>733.2</ele>
        <time>2025-04-30T14:26:52Z</time>
      </trkpt>
      <trkpt lat="45.6812" lon="4.58133">
        <ele>733</ele>
        <time>2025-04-30T14:26:53Z</time>
      </trkpt>
      <trkpt lat="45.68116" lon="4.58126">
        <ele>733</ele>
        <time>2025-04-30T14:26:54Z</time>
      </trkpt>
      <trkpt lat="45.68112" lon="4.5812">
        <ele>733</ele>
        <time>2025-04-30T14:26:55Z</time>
      </trkpt>
      <trkpt lat="45.68108" lon="4.58115">
        <ele>733</ele>
        <time>2025-04-30T14:26:56Z</time>
      </trkpt>
      <trkpt lat="45.68106" lon="4.58111">
        <ele>733</ele>
        <time>2025-04-30T14:26:57Z</time>
      </trkpt>
      <trkpt lat="45.68104" lon="4.58109">
        <ele>733.2</ele>
        <time>2025-04-30T14:26:58Z</time>
      </trkpt>
      <trkpt lat="45.68103" lon="4.58107">
        <ele>733.6</ele>
        <time>2025-04-30T14:26:59Z</time>
      </trkpt>
      <trkpt lat="45.68102" lon="4.58106">
        <ele>734.4</ele>
        <time>2025-04-30T14:27:00Z</time>
      </trkpt>
      <trkpt lat="45.68102" lon="4.58106">
        <ele>735</ele>
        <time>2025-04-30T14:27:01Z</time>
      </trkpt>
      <trkpt lat="45.68102" lon="4.58106">
        <ele>735.4</ele>
        <time>2025-04-30T14:27:02Z</time>
      </trkpt>
      <trkpt lat="45.68102" lon="4.58106">
        <ele>735.8</ele>
        <time>2025-04-30T14:27:03Z</time>
      </trkpt>
      <trkpt lat="45.68102" lon="4.58106">
        <ele>736</ele>
        <time>2025-04-30T14:27:04Z</time>
      </trkpt>
      <trkpt lat="45.68102" lon="4.58106">
        <ele>736.2</ele>
        <time>2025-04-30T14:27:05Z</time>
      </trkpt>
      <trkpt lat="45.68102" lon="4.58106">
        <ele>736.2</ele>
        <time>2025-04-30T14:27:06Z</time>
      </trkpt>
      <trkpt lat="45.68102" lon="4.58106">
        <ele>736.4</ele>
        <time>2025-04-30T14:27:07Z</time>
      </trkpt>
      <trkpt lat="45.68102" lon="4.58106">
        <ele>736.6</ele>
        <time>2025-04-30T14:27:08Z</time>
      </trkpt>
      <trkpt lat="45.68102" lon="4.58106">
        <ele>736.6</ele>
        <time>2025-04-30T14:27:09Z</time>
      </trkpt>
      <trkpt lat="45.68102" lon="4.58106">
        <ele>736.6</ele>
        <time>2025-04-30T14:27:10Z</time>
      </trkpt>
      <trkpt lat="45.68102" lon="4.58106">
        <ele>736.6</ele>
        <time>2025-04-30T14:27:11Z</time>
      </trkpt>
      <trkpt lat="45.68102" lon="4.58106">
        <ele>736.6</ele>
        <time>2025-04-30T14:27:12Z</time>
      </trkpt>
      <trkpt lat="45.68102" lon="4.58106">
        <ele>736.6</ele>
        <time>2025-04-30T14:27:13Z</time>
      </trkpt>
      <trkpt lat="45.68102" lon="4.58106">
        <ele>736.6</ele>
        <time>2025-04-30T14:27:14Z</time>
      </trkpt>
      <trkpt lat="45.68102" lon="4.58106">
        <ele>736.6</ele>
        <time>2025-04-30T14:27:15Z</time>
      </trkpt>
      <trkpt lat="45.68102" lon="4.58106">
        <ele>736.6</ele>
        <time>2025-04-30T14:27:16Z</time>
      </trkpt>
      <trkpt lat="45.68102" lon="4.58106">
        <ele>736.6</ele>
        <time>2025-04-30T14:27:17Z</time>
      </trkpt>
      <trkpt lat="45.68102" lon="4.58106">
        <ele>736.4</ele>
        <time>2025-04-30T14:27:18Z</time>
      </trkpt>
      <trkpt lat="45.68102" lon="4.58106">
        <ele>736.4</ele>
        <time>2025-04-30T14:27:19Z</time>
      </trkpt>
      <trkpt lat="45.68102" lon="4.58106">
        <ele>736.4</ele>
        <time>2025-04-30T14:27:20Z</time>
      </trkpt>
      <trkpt lat="45.68102" lon="4.58106">
        <ele>736.2</ele>
        <time>2025-04-30T14:27:21Z</time>
      </trkpt>
      <trkpt lat="45.68102" lon="4.58106">
        <ele>736.2</ele>
        <time>2025-04-30T14:27:22Z</time>
      </trkpt>
      <trkpt lat="45.68102" lon="4.58106">
        <ele>736.4</ele>
        <time>2025-04-30T14:27:23Z</time>
      </trkpt>
      <trkpt lat="45.68102" lon="4.58106">
        <ele>736.4</ele>
        <time>2025-04-30T14:27:24Z</time>
      </trkpt>
      <trkpt lat="45.68102" lon="4.58106">
        <ele>736.6</ele>
        <time>2025-04-30T14:27:25Z</time>
      </trkpt>
      <trkpt lat="45.68102" lon="4.58106">
        <ele>736.4</ele>
        <time>2025-04-30T14:27:26Z</time>
      </trkpt>
      <trkpt lat="45.68102" lon="4.58106">
        <ele>736.4</ele>
        <time>2025-04-30T14:27:27Z</time>
      </trkpt>
      <trkpt lat="45.68102" lon="4.58106">
        <ele>736.4</ele>
        <time>2025-04-30T14:27:28Z</time>
      </trkpt>
      <trkpt lat="45.68102" lon="4.58106">
        <ele>736.4</ele>
        <time>2025-04-30T14:27:29Z</time>
      </trkpt>
      <trkpt lat="45.68102" lon="4.58106">
        <ele>736.4</ele>
        <time>2025-04-30T14:27:30Z</time>
      </trkpt>
      <trkpt lat="45.68102" lon="4.58106">
        <ele>736.4</ele>
        <time>2025-04-30T14:27:31Z</time>
      </trkpt>
      <trkpt lat="45.68102" lon="4.58106">
        <ele>736.4</ele>
        <time>2025-04-30T14:27:32Z</time>
      </trkpt>
      <trkpt lat="45.68102" lon="4.58106">
        <ele>736.4</ele>
        <time>2025-04-30T14:27:33Z</time>
      </trkpt>
      <trkpt lat="45.68102" lon="4.58106">
        <ele>736.4</ele>
        <time>2025-04-30T14:27:34Z</time>
      </trkpt>
      <trkpt lat="45.68102" lon="4.58106">
        <ele>736.4</ele>
        <time>2025-04-30T14:27:35Z</time>
      </trkpt>
      <trkpt lat="45.68102" lon="4.58106">
        <ele>736.4</ele>
        <time>2025-04-30T14:27:36Z</time>
      </trkpt>
      <trkpt lat="45.68102" lon="4.58106">
        <ele>736.4</ele>
        <time>2025-04-30T14:27:37Z</time>
      </trkpt>
      <trkpt lat="45.68102" lon="4.58106">
        <ele>736.4</ele>
        <time>2025-04-30T14:27:38Z</time>
      </trkpt>
      <trkpt lat="45.68102" lon="4.58106">
        <ele>736.2</ele>
        <time>2025-04-30T14:27:39Z</time>
      </trkpt>
      <trkpt lat="45.68102" lon="4.58106">
        <ele>736.2</ele>
        <time>2025-04-30T14:27:40Z</time>
      </trkpt>
      <trkpt lat="45.68102" lon="4.58106">
        <ele>736.2</ele>
        <time>2025-04-30T14:27:41Z</time>
      </trkpt>
      <trkpt lat="45.68102" lon="4.58106">
        <ele>736.2</ele>
        <time>2025-04-30T14:27:42Z</time>
      </trkpt>
      <trkpt lat="45.68102" lon="4.58106">
        <ele>736.2</ele>
        <time>2025-04-30T14:27:43Z</time>
      </trkpt>
      <trkpt lat="45.68102" lon="4.58106">
        <ele>736.4</ele>
        <time>2025-04-30T14:27:44Z</time>
      </trkpt>
      <trkpt lat="45.68101" lon="4.58106">
        <ele>736.4</ele>
        <time>2025-04-30T14:27:45Z</time>
      </trkpt>
      <trkpt lat="45.68101" lon="4.58105">
        <ele>736.4</ele>
        <time>2025-04-30T14:27:46Z</time>
      </trkpt>
      <trkpt lat="45.681" lon="4.58104">
        <ele>736.4</ele>
        <time>2025-04-30T14:27:47Z</time>
      </trkpt>
      <trkpt lat="45.68099" lon="4.58102">
        <ele>736.4</ele>
        <time>2025-04-30T14:27:48Z</time>
      </trkpt>
      <trkpt lat="45.68098" lon="4.58101">
        <ele>736.2</ele>
        <time>2025-04-30T14:27:49Z</time>
      </trkpt>
      <trkpt lat="45.68095" lon="4.58098">
        <ele>736.2</ele>
        <time>2025-04-30T14:27:50Z</time>
      </trkpt>
      <trkpt lat="45.68093" lon="4.58096">
        <ele>736.2</ele>
        <time>2025-04-30T14:27:51Z</time>
      </trkpt>
      <trkpt lat="45.68091" lon="4.58094">
        <ele>736.2</ele>
        <time>2025-04-30T14:27:52Z</time>
      </trkpt>
      <trkpt lat="45.68089" lon="4.58091">
        <ele>735.8</ele>
        <time>2025-04-30T14:27:53Z</time>
      </trkpt>
      <trkpt lat="45.68086" lon="4.58088">
        <ele>735.8</ele>
        <time>2025-04-30T14:27:54Z</time>
      </trkpt>
      <trkpt lat="45.68084" lon="4.58085">
        <ele>735.8</ele>
        <time>2025-04-30T14:27:55Z</time>
      </trkpt>
      <trkpt lat="45.68081" lon="4.58082">
        <ele>735.8</ele>
        <time>2025-04-30T14:27:56Z</time>
      </trkpt>
      <trkpt lat="45.68077" lon="4.58079">
        <ele>735.6</ele>
        <time>2025-04-30T14:27:57Z</time>
      </trkpt>
      <trkpt lat="45.68074" lon="4.58076">
        <ele>735.6</ele>
        <time>2025-04-30T14:27:58Z</time>
      </trkpt>
      <trkpt lat="45.68071" lon="4.58073">
        <ele>735.6</ele>
        <time>2025-04-30T14:27:59Z</time>
      </trkpt>
      <trkpt lat="45.68067" lon="4.58069">
        <ele>735.6</ele>
        <time>2025-04-30T14:28:00Z</time>
      </trkpt>
      <trkpt lat="45.68064" lon="4.58066">
        <ele>735.4</ele>
        <time>2025-04-30T14:28:01Z</time>
      </trkpt>
      <trkpt lat="45.6806" lon="4.58063">
        <ele>735.4</ele>
        <time>2025-04-30T14:28:02Z</time>
      </trkpt>
      <trkpt lat="45.68057" lon="4.5806">
        <ele>735.4</ele>
        <time>2025-04-30T14:28:03Z</time>
      </trkpt>
      <trkpt lat="45.68054" lon="4.58056">
        <ele>735.4</ele>
        <time>2025-04-30T14:28:04Z</time>
      </trkpt>
      <trkpt lat="45.6805" lon="4.58053">
        <ele>735.4</ele>
        <time>2025-04-30T14:28:05Z</time>
      </trkpt>
      <trkpt lat="45.68047" lon="4.5805">
        <ele>735.4</ele>
        <time>2025-04-30T14:28:06Z</time>
      </trkpt>
      <trkpt lat="45.68044" lon="4.58046">
        <ele>735.4</ele>
        <time>2025-04-30T14:28:07Z</time>
      </trkpt>
      <trkpt lat="45.6804" lon="4.58043">
        <ele>735.4</ele>
        <time>2025-04-30T14:28:08Z</time>
      </trkpt>
      <trkpt lat="45.68036" lon="4.5804">
        <ele>735.4</ele>
        <time>2025-04-30T14:28:09Z</time>
      </trkpt>
      <trkpt lat="45.68033" lon="4.58037">
        <ele>735.4</ele>
        <time>2025-04-30T14:28:10Z</time>
      </trkpt>
      <trkpt lat="45.6803" lon="4.58035">
        <ele>735.2</ele>
        <time>2025-04-30T14:28:11Z</time>
      </trkpt>
      <trkpt lat="45.68027" lon="4.58034">
        <ele>735</ele>
        <time>2025-04-30T14:28:12Z</time>
      </trkpt>
      <trkpt lat="45.68026" lon="4.58032">
        <ele>734.8</ele>
        <time>2025-04-30T14:28:13Z</time>
      </trkpt>
      <trkpt lat="45.68024" lon="4.58031">
        <ele>734.8</ele>
        <time>2025-04-30T14:28:14Z</time>
      </trkpt>
      <trkpt lat="45.68024" lon="4.58031">
        <ele>734.8</ele>
        <time>2025-04-30T14:28:15Z</time>
      </trkpt>
      <trkpt lat="45.68024" lon="4.58031">
        <ele>734.6</ele>
        <time>2025-04-30T14:28:16Z</time>
      </trkpt>
      <trkpt lat="45.68024" lon="4.58031">
        <ele>734.6</ele>
        <time>2025-04-30T14:28:17Z</time>
      </trkpt>
      <trkpt lat="45.68024" lon="4.58031">
        <ele>734.6</ele>
        <time>2025-04-30T14:28:18Z</time>
      </trkpt>
      <trkpt lat="45.68024" lon="4.58031">
        <ele>734.6</ele>
        <time>2025-04-30T14:28:19Z</time>
      </trkpt>
      <trkpt lat="45.68024" lon="4.58031">
        <ele>734.6</ele>
        <time>2025-04-30T14:28:20Z</time>
      </trkpt>
      <trkpt lat="45.68024" lon="4.58031">
        <ele>734.6</ele>
        <time>2025-04-30T14:28:21Z</time>
      </trkpt>
      <trkpt lat="45.68024" lon="4.58031">
        <ele>734.4</ele>
        <time>2025-04-30T14:28:22Z</time>
      </trkpt>
      <trkpt lat="45.68024" lon="4.58031">
        <ele>734.4</ele>
        <time>2025-04-30T14:28:23Z</time>
      </trkpt>
      <trkpt lat="45.68024" lon="4.58031">
        <ele>734.4</ele>
        <time>2025-04-30T14:28:24Z</time>
      </trkpt>
      <trkpt lat="45.68024" lon="4.58031">
        <ele>734.4</ele>
        <time>2025-04-30T14:28:25Z</time>
      </trkpt>
      <trkpt lat="45.68024" lon="4.58031">
        <ele>735.6</ele>
        <time>2025-04-30T14:28:26Z</time>
      </trkpt>
      <trkpt lat="45.68024" lon="4.58031">
        <ele>735.6</ele>
        <time>2025-04-30T14:28:27Z</time>
      </trkpt>
      <trkpt lat="45.68024" lon="4.58031">
        <ele>735.6</ele>
        <time>2025-04-30T14:28:28Z</time>
      </trkpt>
      <trkpt lat="45.68024" lon="4.58031">
        <ele>735.6</ele>
        <time>2025-04-30T14:28:29Z</time>
      </trkpt>
      <trkpt lat="45.68024" lon="4.58031">
        <ele>735.4</ele>
        <time>2025-04-30T14:28:30Z</time>
      </trkpt>
      <trkpt lat="45.68024" lon="4.58031">
        <ele>735.2</ele>
        <time>2025-04-30T14:28:31Z</time>
      </trkpt>
      <trkpt lat="45.68024" lon="4.58031">
        <ele>735.2</ele>
        <time>2025-04-30T14:28:32Z</time>
      </trkpt>
      <trkpt lat="45.68024" lon="4.58031">
        <ele>735</ele>
        <time>2025-04-30T14:28:33Z</time>
      </trkpt>
      <trkpt lat="45.68024" lon="4.58031">
        <ele>735</ele>
        <time>2025-04-30T14:28:34Z</time>
      </trkpt>
      <trkpt lat="45.68024" lon="4.58031">
        <ele>735</ele>
        <time>2025-04-30T14:28:35Z</time>
      </trkpt>
      <trkpt lat="45.68024" lon="4.58031">
        <ele>735</ele>
        <time>2025-04-30T14:28:36Z</time>
      </trkpt>
      <trkpt lat="45.68024" lon="4.58031">
        <ele>735</ele>
        <time>2025-04-30T14:28:37Z</time>
      </trkpt>
      <trkpt lat="45.68024" lon="4.58031">
        <ele>735</ele>
        <time>2025-04-30T14:28:38Z</time>
      </trkpt>
      <trkpt lat="45.68024" lon="4.58031">
        <ele>735</ele>
        <time>2025-04-30T14:28:39Z</time>
      </trkpt>
      <trkpt lat="45.68024" lon="4.58031">
        <ele>735</ele>
        <time>2025-04-30T14:28:40Z</time>
      </trkpt>
      <trkpt lat="45.68024" lon="4.58031">
        <ele>735</ele>
        <time>2025-04-30T14:28:41Z</time>
      </trkpt>
      <trkpt lat="45.68024" lon="4.58031">
        <ele>735</ele>
        <time>2025-04-30T14:28:42Z</time>
      </trkpt>
      <trkpt lat="45.68024" lon="4.58031">
        <ele>735</ele>
        <time>2025-04-30T14:28:43Z</time>
      </trkpt>
      <trkpt lat="45.68024" lon="4.58031">
        <ele>735</ele>
        <time>2025-04-30T14:28:44Z</time>
      </trkpt>
      <trkpt lat="45.68024" lon="4.58031">
        <ele>734.8</ele>
        <time>2025-04-30T14:28:45Z</time>
      </trkpt>
      <trkpt lat="45.68024" lon="4.58031">
        <ele>734.8</ele>
        <time>2025-04-30T14:28:46Z</time>
      </trkpt>
      <trkpt lat="45.68024" lon="4.58031">
        <ele>734.8</ele>
        <time>2025-04-30T14:28:47Z</time>
      </trkpt>
      <trkpt lat="45.68024" lon="4.58031">
        <ele>734.8</ele>
        <time>2025-04-30T14:28:48Z</time>
      </trkpt>
      <trkpt lat="45.68024" lon="4.58031">
        <ele>734.8</ele>
        <time>2025-04-30T14:28:49Z</time>
      </trkpt>
      <trkpt lat="45.68024" lon="4.58031">
        <ele>734.8</ele>
        <time>2025-04-30T14:28:50Z</time>
      </trkpt>
      <trkpt lat="45.68024" lon="4.58031">
        <ele>734.8</ele>
        <time>2025-04-30T14:28:51Z</time>
      </trkpt>
      <trkpt lat="45.68024" lon="4.58031">
        <ele>734.8</ele>
        <time>2025-04-30T14:28:52Z</time>
      </trkpt>
      <trkpt lat="45.68024" lon="4.58031">
        <ele>734.8</ele>
        <time>2025-04-30T14:28:53Z</time>
      </trkpt>
      <trkpt lat="45.68024" lon="4.58031">
        <ele>734.8</ele>
        <time>2025-04-30T14:28:54Z</time>
      </trkpt>
      <trkpt lat="45.68024" lon="4.58031">
        <ele>734.8</ele>
        <time>2025-04-30T14:28:55Z</time>
      </trkpt>
      <trkpt lat="45.68024" lon="4.58031">
        <ele>734.8</ele>
        <time>2025-04-30T14:28:56Z</time>
      </trkpt>
      <trkpt lat="45.68022" lon="4.5803">
        <ele>734.6</ele>
        <time>2025-04-30T14:28:57Z</time>
      </trkpt>
      <trkpt lat="45.68021" lon="4.58029">
        <ele>734.6</ele>
        <time>2025-04-30T14:28:58Z</time>
      </trkpt>
      <trkpt lat="45.68019" lon="4.58027">
        <ele>734.6</ele>
        <time>2025-04-30T14:28:59Z</time>
      </trkpt>
      <trkpt lat="45.68016" lon="4.58024">
        <ele>734.6</ele>
        <time>2025-04-30T14:29:00Z</time>
      </trkpt>
      <trkpt lat="45.68015" lon="4.58021">
        <ele>734.4</ele>
        <time>2025-04-30T14:29:01Z</time>
      </trkpt>
      <trkpt lat="45.68014" lon="4.58019">
        <ele>734.4</ele>
        <time>2025-04-30T14:29:02Z</time>
      </trkpt>
      <trkpt lat="45.68014" lon="4.58018">
        <ele>734.4</ele>
        <time>2025-04-30T14:29:03Z</time>
      </trkpt>
      <trkpt lat="45.68013" lon="4.58016">
        <ele>734.4</ele>
        <time>2025-04-30T14:29:04Z</time>
      </trkpt>
      <trkpt lat="45.68012" lon="4.58014">
        <ele>734.8</ele>
        <time>2025-04-30T14:29:05Z</time>
      </trkpt>
      <trkpt lat="45.68011" lon="4.58013">
        <ele>735</ele>
        <time>2025-04-30T14:29:06Z</time>
      </trkpt>
      <trkpt lat="45.68009" lon="4.58011">
        <ele>735.2</ele>
        <time>2025-04-30T14:29:07Z</time>
      </trkpt>
      <trkpt lat="45.68007" lon="4.5801">
        <ele>735.4</ele>
        <time>2025-04-30T14:29:08Z</time>
      </trkpt>
      <trkpt lat="45.68004" lon="4.58009">
        <ele>735.6</ele>
        <time>2025-04-30T14:29:09Z</time>
      </trkpt>
      <trkpt lat="45.68" lon="4.58008">
        <ele>735.6</ele>
        <time>2025-04-30T14:29:10Z</time>
      </trkpt>
      <trkpt lat="45.67995" lon="4.58007">
        <ele>735.6</ele>
        <time>2025-04-30T14:29:11Z</time>
      </trkpt>
      <trkpt lat="45.6799" lon="4.58005">
        <ele>735.6</ele>
        <time>2025-04-30T14:29:12Z</time>
      </trkpt>
      <trkpt lat="45.67984" lon="4.58002">
        <ele>735</ele>
        <time>2025-04-30T14:29:13Z</time>
      </trkpt>
      <trkpt lat="45.67979" lon="4.57999">
        <ele>734.4</ele>
        <time>2025-04-30T14:29:14Z</time>
      </trkpt>
      <trkpt lat="45.67975" lon="4.57997">
        <ele>734</ele>
        <time>2025-04-30T14:29:15Z</time>
      </trkpt>
      <trkpt lat="45.67971" lon="4.57994">
        <ele>734</ele>
        <time>2025-04-30T14:29:16Z</time>
      </trkpt>
      <trkpt lat="45.67966" lon="4.57991">
        <ele>734</ele>
        <time>2025-04-30T14:29:17Z</time>
      </trkpt>
      <trkpt lat="45.67963" lon="4.57989">
        <ele>734</ele>
        <time>2025-04-30T14:29:18Z</time>
      </trkpt>
      <trkpt lat="45.67959" lon="4.57987">
        <ele>734.4</ele>
        <time>2025-04-30T14:29:19Z</time>
      </trkpt>
      <trkpt lat="45.67956" lon="4.57986">
        <ele>734.8</ele>
        <time>2025-04-30T14:29:20Z</time>
      </trkpt>
      <trkpt lat="45.67952" lon="4.57985">
        <ele>735</ele>
        <time>2025-04-30T14:29:21Z</time>
      </trkpt>
      <trkpt lat="45.67949" lon="4.57984">
        <ele>735.2</ele>
        <time>2025-04-30T14:29:22Z</time>
      </trkpt>
      <trkpt lat="45.67945" lon="4.57983">
        <ele>735.4</ele>
        <time>2025-04-30T14:29:23Z</time>
      </trkpt>
      <trkpt lat="45.6794" lon="4.57982">
        <ele>735.8</ele>
        <time>2025-04-30T14:29:24Z</time>
      </trkpt>
      <trkpt lat="45.67936" lon="4.57982">
        <ele>735.8</ele>
        <time>2025-04-30T14:29:25Z</time>
      </trkpt>
      <trkpt lat="45.67931" lon="4.57981">
        <ele>735.8</ele>
        <time>2025-04-30T14:29:26Z</time>
      </trkpt>
      <trkpt lat="45.67925" lon="4.57982">
        <ele>735.6</ele>
        <time>2025-04-30T14:29:27Z</time>
      </trkpt>
      <trkpt lat="45.67919" lon="4.57982">
        <ele>735.4</ele>
        <time>2025-04-30T14:29:28Z</time>
      </trkpt>
      <trkpt lat="45.67913" lon="4.57984">
        <ele>735.2</ele>
        <time>2025-04-30T14:29:29Z</time>
      </trkpt>
      <trkpt lat="45.67906" lon="4.57986">
        <ele>734.6</ele>
        <time>2025-04-30T14:29:30Z</time>
      </trkpt>
      <trkpt lat="45.679" lon="4.57988">
        <ele>733.8</ele>
        <time>2025-04-30T14:29:31Z</time>
      </trkpt>
      <trkpt lat="45.67893" lon="4.57989">
        <ele>733.4</ele>
        <time>2025-04-30T14:29:32Z</time>
      </trkpt>
      <trkpt lat="45.67887" lon="4.57989">
        <ele>732.8</ele>
        <time>2025-04-30T14:29:33Z</time>
      </trkpt>
      <trkpt lat="45.67881" lon="4.5799">
        <ele>732.8</ele>
        <time>2025-04-30T14:29:34Z</time>
      </trkpt>
      <trkpt lat="45.67876" lon="4.5799">
        <ele>732.8</ele>
        <time>2025-04-30T14:29:35Z</time>
      </trkpt>
      <trkpt lat="45.67871" lon="4.5799">
        <ele>732.8</ele>
        <time>2025-04-30T14:29:36Z</time>
      </trkpt>
      <trkpt lat="45.67866" lon="4.57991">
        <ele>732.8</ele>
        <time>2025-04-30T14:29:37Z</time>
      </trkpt>
      <trkpt lat="45.67861" lon="4.5799">
        <ele>733</ele>
        <time>2025-04-30T14:29:38Z</time>
      </trkpt>
      <trkpt lat="45.67856" lon="4.5799">
        <ele>733.4</ele>
        <time>2025-04-30T14:29:39Z</time>
      </trkpt>
      <trkpt lat="45.67852" lon="4.5799">
        <ele>733.8</ele>
        <time>2025-04-30T14:29:40Z</time>
      </trkpt>
      <trkpt lat="45.67848" lon="4.57989">
        <ele>734.2</ele>
        <time>2025-04-30T14:29:41Z</time>
      </trkpt>
      <trkpt lat="45.67845" lon="4.57988">
        <ele>735</ele>
        <time>2025-04-30T14:29:42Z</time>
      </trkpt>
      <trkpt lat="45.6784" lon="4.57987">
        <ele>735.6</ele>
        <time>2025-04-30T14:29:43Z</time>
      </trkpt>
      <trkpt lat="45.67836" lon="4.57986">
        <ele>735.8</ele>
        <time>2025-04-30T14:29:44Z</time>
      </trkpt>
      <trkpt lat="45.67832" lon="4.57986">
        <ele>736</ele>
        <time>2025-04-30T14:29:45Z</time>
      </trkpt>
      <trkpt lat="45.67828" lon="4.57986">
        <ele>736.4</ele>
        <time>2025-04-30T14:29:46Z</time>
      </trkpt>
      <trkpt lat="45.67824" lon="4.57988">
        <ele>736.8</ele>
        <time>2025-04-30T14:29:47Z</time>
      </trkpt>
      <trkpt lat="45.6782" lon="4.57989">
        <ele>736.8</ele>
        <time>2025-04-30T14:29:48Z</time>
      </trkpt>
      <trkpt lat="45.67816" lon="4.5799">
        <ele>737.2</ele>
        <time>2025-04-30T14:29:49Z</time>
      </trkpt>
      <trkpt lat="45.67812" lon="4.57992">
        <ele>737.2</ele>
        <time>2025-04-30T14:29:50Z</time>
      </trkpt>
      <trkpt lat="45.67808" lon="4.57993">
        <ele>737.4</ele>
        <time>2025-04-30T14:29:51Z</time>
      </trkpt>
      <trkpt lat="45.67804" lon="4.57995">
        <ele>737.8</ele>
        <time>2025-04-30T14:29:52Z</time>
      </trkpt>
      <trkpt lat="45.67801" lon="4.57996">
        <ele>737.8</ele>
        <time>2025-04-30T14:29:53Z</time>
      </trkpt>
      <trkpt lat="45.67797" lon="4.57997">
        <ele>738</ele>
        <time>2025-04-30T14:29:54Z</time>
      </trkpt>
      <trkpt lat="45.67794" lon="4.57997">
        <ele>738.6</ele>
        <time>2025-04-30T14:29:55Z</time>
      </trkpt>
      <trkpt lat="45.67791" lon="4.57997">
        <ele>739</ele>
        <time>2025-04-30T14:29:56Z</time>
      </trkpt>
      <trkpt lat="45.67789" lon="4.57997">
        <ele>739.4</ele>
        <time>2025-04-30T14:29:57Z</time>
      </trkpt>
      <trkpt lat="45.67787" lon="4.57996">
        <ele>739.8</ele>
        <time>2025-04-30T14:29:58Z</time>
      </trkpt>
      <trkpt lat="45.67787" lon="4.57994">
        <ele>740.2</ele>
        <time>2025-04-30T14:29:59Z</time>
      </trkpt>
      <trkpt lat="45.67786" lon="4.57993">
        <ele>740.6</ele>
        <time>2025-04-30T14:30:00Z</time>
      </trkpt>
      <trkpt lat="45.67785" lon="4.57992">
        <ele>741.4</ele>
        <time>2025-04-30T14:30:01Z</time>
      </trkpt>
      <trkpt lat="45.67783" lon="4.57991">
        <ele>742</ele>
        <time>2025-04-30T14:30:02Z</time>
      </trkpt>
      <trkpt lat="45.67781" lon="4.57991">
        <ele>742.4</ele>
        <time>2025-04-30T14:30:03Z</time>
      </trkpt>
      <trkpt lat="45.6778" lon="4.5799">
        <ele>742.6</ele>
        <time>2025-04-30T14:30:04Z</time>
      </trkpt>
      <trkpt lat="45.67779" lon="4.57989">
        <ele>742.8</ele>
        <time>2025-04-30T14:30:05Z</time>
      </trkpt>
      <trkpt lat="45.67778" lon="4.57988">
        <ele>743</ele>
        <time>2025-04-30T14:30:06Z</time>
      </trkpt>
      <trkpt lat="45.67777" lon="4.57988">
        <ele>743.6</ele>
        <time>2025-04-30T14:30:07Z</time>
      </trkpt>
      <trkpt lat="45.67777" lon="4.57988">
        <ele>744</ele>
        <time>2025-04-30T14:30:08Z</time>
      </trkpt>
      <trkpt lat="45.67777" lon="4.57988">
        <ele>744.2</ele>
        <time>2025-04-30T14:30:09Z</time>
      </trkpt>
      <trkpt lat="45.67776" lon="4.57987">
        <ele>744.4</ele>
        <time>2025-04-30T14:30:10Z</time>
      </trkpt>
      <trkpt lat="45.67776" lon="4.57988">
        <ele>744.8</ele>
        <time>2025-04-30T14:30:11Z</time>
      </trkpt>
      <trkpt lat="45.67776" lon="4.57988">
        <ele>745</ele>
        <time>2025-04-30T14:30:12Z</time>
      </trkpt>
      <trkpt lat="45.67776" lon="4.57988">
        <ele>745</ele>
        <time>2025-04-30T14:30:13Z</time>
      </trkpt>
      <trkpt lat="45.67776" lon="4.57988">
        <ele>745.2</ele>
        <time>2025-04-30T14:30:14Z</time>
      </trkpt>
      <trkpt lat="45.67776" lon="4.57988">
        <ele>745.2</ele>
        <time>2025-04-30T14:30:15Z</time>
      </trkpt>
      <trkpt lat="45.67776" lon="4.57988">
        <ele>745.2</ele>
        <time>2025-04-30T14:30:16Z</time>
      </trkpt>
      <trkpt lat="45.67775" lon="4.57988">
        <ele>745.4</ele>
        <time>2025-04-30T14:30:17Z</time>
      </trkpt>
      <trkpt lat="45.67773" lon="4.57988">
        <ele>745.4</ele>
        <time>2025-04-30T14:30:18Z</time>
      </trkpt>
      <trkpt lat="45.67771" lon="4.57987">
        <ele>745.4</ele>
        <time>2025-04-30T14:30:19Z</time>
      </trkpt>
      <trkpt lat="45.67769" lon="4.57986">
        <ele>745.4</ele>
        <time>2025-04-30T14:30:20Z</time>
      </trkpt>
      <trkpt lat="45.67768" lon="4.57984">
        <ele>745.4</ele>
        <time>2025-04-30T14:30:21Z</time>
      </trkpt>
      <trkpt lat="45.67767" lon="4.57983">
        <ele>745.4</ele>
        <time>2025-04-30T14:30:22Z</time>
      </trkpt>
      <trkpt lat="45.67765" lon="4.57982">
        <ele>745.8</ele>
        <time>2025-04-30T14:30:23Z</time>
      </trkpt>
      <trkpt lat="45.67763" lon="4.57981">
        <ele>745.8</ele>
        <time>2025-04-30T14:30:24Z</time>
      </trkpt>
      <trkpt lat="45.67761" lon="4.57979">
        <ele>746</ele>
        <time>2025-04-30T14:30:25Z</time>
      </trkpt>
      <trkpt lat="45.67759" lon="4.57978">
        <ele>746</ele>
        <time>2025-04-30T14:30:26Z</time>
      </trkpt>
      <trkpt lat="45.67756" lon="4.57976">
        <ele>746.2</ele>
        <time>2025-04-30T14:30:27Z</time>
      </trkpt>
      <trkpt lat="45.67754" lon="4.57974">
        <ele>746.2</ele>
        <time>2025-04-30T14:30:28Z</time>
      </trkpt>
      <trkpt lat="45.67752" lon="4.57972">
        <ele>746.2</ele>
        <time>2025-04-30T14:30:29Z</time>
      </trkpt>
      <trkpt lat="45.67749" lon="4.5797">
        <ele>746.4</ele>
        <time>2025-04-30T14:30:30Z</time>
      </trkpt>
      <trkpt lat="45.67747" lon="4.57969">
        <ele>746.6</ele>
        <time>2025-04-30T14:30:31Z</time>
      </trkpt>
      <trkpt lat="45.67745" lon="4.57967">
        <ele>746.6</ele>
        <time>2025-04-30T14:30:32Z</time>
      </trkpt>
      <trkpt lat="45.67742" lon="4.57965">
        <ele>746.8</ele>
        <time>2025-04-30T14:30:33Z</time>
      </trkpt>
      <trkpt lat="45.67739" lon="4.57963">
        <ele>747</ele>
        <time>2025-04-30T14:30:34Z</time>
      </trkpt>
      <trkpt lat="45.67736" lon="4.57961">
        <ele>747.2</ele>
        <time>2025-04-30T14:30:35Z</time>
      </trkpt>
      <trkpt lat="45.67733" lon="4.57959">
        <ele>747.2</ele>
        <time>2025-04-30T14:30:36Z</time>
      </trkpt>
      <trkpt lat="45.6773" lon="4.57957">
        <ele>747.2</ele>
        <time>2025-04-30T14:30:37Z</time>
      </trkpt>
      <trkpt lat="45.67727" lon="4.57955">
        <ele>747.4</ele>
        <time>2025-04-30T14:30:38Z</time>
      </trkpt>
      <trkpt lat="45.67724" lon="4.57953">
        <ele>747.6</ele>
        <time>2025-04-30T14:30:39Z</time>
      </trkpt>
      <trkpt lat="45.67722" lon="4.57951">
        <ele>748</ele>
        <time>2025-04-30T14:30:40Z</time>
      </trkpt>
      <trkpt lat="45.6772" lon="4.5795">
        <ele>748</ele>
        <time>2025-04-30T14:30:41Z</time>
      </trkpt>
      <trkpt lat="45.67717" lon="4.57949">
        <ele>748.2</ele>
        <time>2025-04-30T14:30:42Z</time>
      </trkpt>
      <trkpt lat="45.67714" lon="4.57947">
        <ele>748.8</ele>
        <time>2025-04-30T14:30:43Z</time>
      </trkpt>
      <trkpt lat="45.67711" lon="4.57946">
        <ele>749.2</ele>
        <time>2025-04-30T14:30:44Z</time>
      </trkpt>
      <trkpt lat="45.67709" lon="4.57945">
        <ele>749.4</ele>
        <time>2025-04-30T14:30:45Z</time>
      </trkpt>
      <trkpt lat="45.67706" lon="4.57944">
        <ele>749.8</ele>
        <time>2025-04-30T14:30:46Z</time>
      </trkpt>
      <trkpt lat="45.67704" lon="4.57944">
        <ele>750.2</ele>
        <time>2025-04-30T14:30:47Z</time>
      </trkpt>
      <trkpt lat="45.67702" lon="4.57943">
        <ele>750.6</ele>
        <time>2025-04-30T14:30:48Z</time>
      </trkpt>
      <trkpt lat="45.67699" lon="4.57941">
        <ele>750.8</ele>
        <time>2025-04-30T14:30:49Z</time>
      </trkpt>
      <trkpt lat="45.67696" lon="4.57939">
        <ele>751</ele>
        <time>2025-04-30T14:30:50Z</time>
      </trkpt>
      <trkpt lat="45.67695" lon="4.57937">
        <ele>751.6</ele>
        <time>2025-04-30T14:30:51Z</time>
      </trkpt>
      <trkpt lat="45.67693" lon="4.57935">
        <ele>751.8</ele>
        <time>2025-04-30T14:30:52Z</time>
      </trkpt>
      <trkpt lat="45.67691" lon="4.57934">
        <ele>752.2</ele>
        <time>2025-04-30T14:30:53Z</time>
      </trkpt>
      <trkpt lat="45.6769" lon="4.57931">
        <ele>752.6</ele>
        <time>2025-04-30T14:30:54Z</time>
      </trkpt>
      <trkpt lat="45.67689" lon="4.57929">
        <ele>753</ele>
        <time>2025-04-30T14:30:55Z</time>
      </trkpt>
      <trkpt lat="45.67688" lon="4.57926">
        <ele>753.2</ele>
        <time>2025-04-30T14:30:56Z</time>
      </trkpt>
      <trkpt lat="45.67687" lon="4.57923">
        <ele>753.6</ele>
        <time>2025-04-30T14:30:57Z</time>
      </trkpt>
      <trkpt lat="45.67686" lon="4.5792">
        <ele>753.8</ele>
        <time>2025-04-30T14:30:58Z</time>
      </trkpt>
      <trkpt lat="45.67685" lon="4.57917">
        <ele>754</ele>
        <time>2025-04-30T14:30:59Z</time>
      </trkpt>
      <trkpt lat="45.67684" lon="4.57914">
        <ele>754.4</ele>
        <time>2025-04-30T14:31:00Z</time>
      </trkpt>
      <trkpt lat="45.67683" lon="4.57912">
        <ele>754.6</ele>
        <time>2025-04-30T14:31:01Z</time>
      </trkpt>
      <trkpt lat="45.67681" lon="4.57909">
        <ele>755</ele>
        <time>2025-04-30T14:31:02Z</time>
      </trkpt>
      <trkpt lat="45.67679" lon="4.57907">
        <ele>755.4</ele>
        <time>2025-04-30T14:31:03Z</time>
      </trkpt>
      <trkpt lat="45.67677" lon="4.57905">
        <ele>755.8</ele>
        <time>2025-04-30T14:31:04Z</time>
      </trkpt>
      <trkpt lat="45.67675" lon="4.57903">
        <ele>756.2</ele>
        <time>2025-04-30T14:31:05Z</time>
      </trkpt>
      <trkpt lat="45.67673" lon="4.57901">
        <ele>756.6</ele>
        <time>2025-04-30T14:31:06Z</time>
      </trkpt>
      <trkpt lat="45.67671" lon="4.579">
        <ele>756.8</ele>
        <time>2025-04-30T14:31:07Z</time>
      </trkpt>
      <trkpt lat="45.67669" lon="4.57898">
        <ele>757</ele>
        <time>2025-04-30T14:31:08Z</time>
      </trkpt>
      <trkpt lat="45.67666" lon="4.57895">
        <ele>757.4</ele>
        <time>2025-04-30T14:31:09Z</time>
      </trkpt>
      <trkpt lat="45.67664" lon="4.57893">
        <ele>757.6</ele>
        <time>2025-04-30T14:31:10Z</time>
      </trkpt>
      <trkpt lat="45.67661" lon="4.5789">
        <ele>758</ele>
        <time>2025-04-30T14:31:11Z</time>
      </trkpt>
      <trkpt lat="45.6766" lon="4.57889">
        <ele>758.4</ele>
        <time>2025-04-30T14:31:12Z</time>
      </trkpt>
      <trkpt lat="45.67658" lon="4.57886">
        <ele>758.6</ele>
        <time>2025-04-30T14:31:13Z</time>
      </trkpt>
      <trkpt lat="45.67656" lon="4.57884">
        <ele>758.8</ele>
        <time>2025-04-30T14:31:14Z</time>
      </trkpt>
      <trkpt lat="45.67653" lon="4.57882">
        <ele>759</ele>
        <time>2025-04-30T14:31:15Z</time>
      </trkpt>
      <trkpt lat="45.67651" lon="4.57881">
        <ele>759.2</ele>
        <time>2025-04-30T14:31:16Z</time>
      </trkpt>
      <trkpt lat="45.67649" lon="4.57879">
        <ele>759.4</ele>
        <time>2025-04-30T14:31:17Z</time>
      </trkpt>
      <trkpt lat="45.67647" lon="4.57877">
        <ele>760.2</ele>
        <time>2025-04-30T14:31:18Z</time>
      </trkpt>
      <trkpt lat="45.67645" lon="4.57875">
        <ele>760.6</ele>
        <time>2025-04-30T14:31:19Z</time>
      </trkpt>
      <trkpt lat="45.67643" lon="4.57873">
        <ele>760.8</ele>
        <time>2025-04-30T14:31:20Z</time>
      </trkpt>
      <trkpt lat="45.67642" lon="4.5787">
        <ele>761.4</ele>
        <time>2025-04-30T14:31:21Z</time>
      </trkpt>
      <trkpt lat="45.67641" lon="4.57867">
        <ele>761.8</ele>
        <time>2025-04-30T14:31:22Z</time>
      </trkpt>
      <trkpt lat="45.67639" lon="4.57865">
        <ele>762.2</ele>
        <time>2025-04-30T14:31:23Z</time>
      </trkpt>
      <trkpt lat="45.67638" lon="4.57863">
        <ele>762.6</ele>
        <time>2025-04-30T14:31:24Z</time>
      </trkpt>
      <trkpt lat="45.67637" lon="4.5786">
        <ele>763</ele>
        <time>2025-04-30T14:31:25Z</time>
      </trkpt>
      <trkpt lat="45.67635" lon="4.57857">
        <ele>763.4</ele>
        <time>2025-04-30T14:31:26Z</time>
      </trkpt>
      <trkpt lat="45.67634" lon="4.57853">
        <ele>763.8</ele>
        <time>2025-04-30T14:31:27Z</time>
      </trkpt>
      <trkpt lat="45.67633" lon="4.5785">
        <ele>764.2</ele>
        <time>2025-04-30T14:31:28Z</time>
      </trkpt>
      <trkpt lat="45.67631" lon="4.57848">
        <ele>764.8</ele>
        <time>2025-04-30T14:31:29Z</time>
      </trkpt>
      <trkpt lat="45.6763" lon="4.57845">
        <ele>765.2</ele>
        <time>2025-04-30T14:31:30Z</time>
      </trkpt>
      <trkpt lat="45.67628" lon="4.57842">
        <ele>765.6</ele>
        <time>2025-04-30T14:31:31Z</time>
      </trkpt>
      <trkpt lat="45.67627" lon="4.57839">
        <ele>765.8</ele>
        <time>2025-04-30T14:31:32Z</time>
      </trkpt>
      <trkpt lat="45.67625" lon="4.57836">
        <ele>766.2</ele>
        <time>2025-04-30T14:31:33Z</time>
      </trkpt>
      <trkpt lat="45.67625" lon="4.57832">
        <ele>766.6</ele>
        <time>2025-04-30T14:31:34Z</time>
      </trkpt>
      <trkpt lat="45.67624" lon="4.57829">
        <ele>766.8</ele>
        <time>2025-04-30T14:31:35Z</time>
      </trkpt>
      <trkpt lat="45.67623" lon="4.57825">
        <ele>767.2</ele>
        <time>2025-04-30T14:31:36Z</time>
      </trkpt>
      <trkpt lat="45.67623" lon="4.57821">
        <ele>767.4</ele>
        <time>2025-04-30T14:31:37Z</time>
      </trkpt>
      <trkpt lat="45.67622" lon="4.57817">
        <ele>767.6</ele>
        <time>2025-04-30T14:31:38Z</time>
      </trkpt>
      <trkpt lat="45.67621" lon="4.57814">
        <ele>767.8</ele>
        <time>2025-04-30T14:31:39Z</time>
      </trkpt>
      <trkpt lat="45.67621" lon="4.5781">
        <ele>768</ele>
        <time>2025-04-30T14:31:40Z</time>
      </trkpt>
      <trkpt lat="45.67621" lon="4.57806">
        <ele>768.2</ele>
        <time>2025-04-30T14:31:41Z</time>
      </trkpt>
      <trkpt lat="45.6762" lon="4.57802">
        <ele>768.6</ele>
        <time>2025-04-30T14:31:42Z</time>
      </trkpt>
      <trkpt lat="45.67619" lon="4.57798">
        <ele>768.8</ele>
        <time>2025-04-30T14:31:43Z</time>
      </trkpt>
      <trkpt lat="45.67618" lon="4.57794">
        <ele>769</ele>
        <time>2025-04-30T14:31:44Z</time>
      </trkpt>
      <trkpt lat="45.67618" lon="4.5779">
        <ele>769.4</ele>
        <time>2025-04-30T14:31:45Z</time>
      </trkpt>
      <trkpt lat="45.67617" lon="4.57786">
        <ele>769.6</ele>
        <time>2025-04-30T14:31:46Z</time>
      </trkpt>
      <trkpt lat="45.67617" lon="4.57782">
        <ele>769.8</ele>
        <time>2025-04-30T14:31:47Z</time>
      </trkpt>
      <trkpt lat="45.67617" lon="4.57779">
        <ele>770</ele>
        <time>2025-04-30T14:31:48Z</time>
      </trkpt>
      <trkpt lat="45.67616" lon="4.57776">
        <ele>770</ele>
        <time>2025-04-30T14:31:49Z</time>
      </trkpt>
      <trkpt lat="45.67616" lon="4.57773">
        <ele>770.2</ele>
        <time>2025-04-30T14:31:50Z</time>
      </trkpt>
      <trkpt lat="45.67615" lon="4.57769">
        <ele>770.4</ele>
        <time>2025-04-30T14:31:51Z</time>
      </trkpt>
      <trkpt lat="45.67614" lon="4.57765">
        <ele>770.4</ele>
        <time>2025-04-30T14:31:52Z</time>
      </trkpt>
      <trkpt lat="45.67614" lon="4.5776">
        <ele>770.4</ele>
        <time>2025-04-30T14:31:53Z</time>
      </trkpt>
      <trkpt lat="45.67613" lon="4.57756">
        <ele>770.4</ele>
        <time>2025-04-30T14:31:54Z</time>
      </trkpt>
      <trkpt lat="45.67612" lon="4.57751">
        <ele>770.4</ele>
        <time>2025-04-30T14:31:55Z</time>
      </trkpt>
      <trkpt lat="45.6761" lon="4.57746">
        <ele>770.4</ele>
        <time>2025-04-30T14:31:56Z</time>
      </trkpt>
      <trkpt lat="45.67609" lon="4.57741">
        <ele>770.4</ele>
        <time>2025-04-30T14:31:57Z</time>
      </trkpt>
      <trkpt lat="45.67607" lon="4.57736">
        <ele>770.4</ele>
        <time>2025-04-30T14:31:58Z</time>
      </trkpt>
      <trkpt lat="45.67606" lon="4.57731">
        <ele>770.4</ele>
        <time>2025-04-30T14:31:59Z</time>
      </trkpt>
      <trkpt lat="45.67605" lon="4.57726">
        <ele>770.2</ele>
        <time>2025-04-30T14:32:00Z</time>
      </trkpt>
      <trkpt lat="45.67603" lon="4.5772">
        <ele>770.2</ele>
        <time>2025-04-30T14:32:01Z</time>
      </trkpt>
      <trkpt lat="45.67602" lon="4.57715">
        <ele>770</ele>
        <time>2025-04-30T14:32:02Z</time>
      </trkpt>
      <trkpt lat="45.676" lon="4.57708">
        <ele>770</ele>
        <time>2025-04-30T14:32:03Z</time>
      </trkpt>
      <trkpt lat="45.67599" lon="4.57702">
        <ele>769.8</ele>
        <time>2025-04-30T14:32:04Z</time>
      </trkpt>
      <trkpt lat="45.67597" lon="4.57695">
        <ele>769.4</ele>
        <time>2025-04-30T14:32:05Z</time>
      </trkpt>
      <trkpt lat="45.67595" lon="4.57688">
        <ele>769</ele>
        <time>2025-04-30T14:32:06Z</time>
      </trkpt>
      <trkpt lat="45.67592" lon="4.5768">
        <ele>768.8</ele>
        <time>2025-04-30T14:32:07Z</time>
      </trkpt>
      <trkpt lat="45.6759" lon="4.57673">
        <ele>768.6</ele>
        <time>2025-04-30T14:32:08Z</time>
      </trkpt>
      <trkpt lat="45.67587" lon="4.57666">
        <ele>768.4</ele>
        <time>2025-04-30T14:32:09Z</time>
      </trkpt>
      <trkpt lat="45.67585" lon="4.57658">
        <ele>767.6</ele>
        <time>2025-04-30T14:32:10Z</time>
      </trkpt>
      <trkpt lat="45.67582" lon="4.5765">
        <ele>767.2</ele>
        <time>2025-04-30T14:32:11Z</time>
      </trkpt>
      <trkpt lat="45.6758" lon="4.57642">
        <ele>766.6</ele>
        <time>2025-04-30T14:32:12Z</time>
      </trkpt>
      <trkpt lat="45.67577" lon="4.57635">
        <ele>766.6</ele>
        <time>2025-04-30T14:32:13Z</time>
      </trkpt>
      <trkpt lat="45.67574" lon="4.57628">
        <ele>766.6</ele>
        <time>2025-04-30T14:32:14Z</time>
      </trkpt>
      <trkpt lat="45.67572" lon="4.57621">
        <ele>766.6</ele>
        <time>2025-04-30T14:32:15Z</time>
      </trkpt>
      <trkpt lat="45.67569" lon="4.57614">
        <ele>766.6</ele>
        <time>2025-04-30T14:32:16Z</time>
      </trkpt>
      <trkpt lat="45.67567" lon="4.57607">
        <ele>766.8</ele>
        <time>2025-04-30T14:32:17Z</time>
      </trkpt>
      <trkpt lat="45.67564" lon="4.576">
        <ele>767</ele>
        <time>2025-04-30T14:32:18Z</time>
      </trkpt>
      <trkpt lat="45.67562" lon="4.57594">
        <ele>767</ele>
        <time>2025-04-30T14:32:19Z</time>
      </trkpt>
      <trkpt lat="45.67559" lon="4.57589">
        <ele>767</ele>
        <time>2025-04-30T14:32:20Z</time>
      </trkpt>
      <trkpt lat="45.67557" lon="4.57583">
        <ele>767</ele>
        <time>2025-04-30T14:32:21Z</time>
      </trkpt>
      <trkpt lat="45.67554" lon="4.57579">
        <ele>767</ele>
        <time>2025-04-30T14:32:22Z</time>
      </trkpt>
      <trkpt lat="45.67552" lon="4.57574">
        <ele>767</ele>
        <time>2025-04-30T14:32:23Z</time>
      </trkpt>
      <trkpt lat="45.67549" lon="4.57569">
        <ele>767</ele>
        <time>2025-04-30T14:32:24Z</time>
      </trkpt>
      <trkpt lat="45.67546" lon="4.57564">
        <ele>766.8</ele>
        <time>2025-04-30T14:32:25Z</time>
      </trkpt>
      <trkpt lat="45.67542" lon="4.57558">
        <ele>766.6</ele>
        <time>2025-04-30T14:32:26Z</time>
      </trkpt>
      <trkpt lat="45.67539" lon="4.57552">
        <ele>766.2</ele>
        <time>2025-04-30T14:32:27Z</time>
      </trkpt>
      <trkpt lat="45.67534" lon="4.57546">
        <ele>765.6</ele>
        <time>2025-04-30T14:32:28Z</time>
      </trkpt>
      <trkpt lat="45.6753" lon="4.5754">
        <ele>765.2</ele>
        <time>2025-04-30T14:32:29Z</time>
      </trkpt>
      <trkpt lat="45.67525" lon="4.57535">
        <ele>765</ele>
        <time>2025-04-30T14:32:30Z</time>
      </trkpt>
      <trkpt lat="45.6752" lon="4.5753">
        <ele>764.8</ele>
        <time>2025-04-30T14:32:31Z</time>
      </trkpt>
      <trkpt lat="45.67515" lon="4.57525">
        <ele>763.6</ele>
        <time>2025-04-30T14:32:32Z</time>
      </trkpt>
      <trkpt lat="45.6751" lon="4.5752">
        <ele>763</ele>
        <time>2025-04-30T14:32:33Z</time>
      </trkpt>
      <trkpt lat="45.67505" lon="4.57518">
        <ele>762.4</ele>
        <time>2025-04-30T14:32:34Z</time>
      </trkpt>
      <trkpt lat="45.675" lon="4.57515">
        <ele>762</ele>
        <time>2025-04-30T14:32:35Z</time>
      </trkpt>
      <trkpt lat="45.67496" lon="4.57512">
        <ele>761.6</ele>
        <time>2025-04-30T14:32:36Z</time>
      </trkpt>
      <trkpt lat="45.67491" lon="4.57507">
        <ele>760.8</ele>
        <time>2025-04-30T14:32:37Z</time>
      </trkpt>
      <trkpt lat="45.67486" lon="4.57503">
        <ele>760</ele>
        <time>2025-04-30T14:32:38Z</time>
      </trkpt>
      <trkpt lat="45.67483" lon="4.57499">
        <ele>759</ele>
        <time>2025-04-30T14:32:39Z</time>
      </trkpt>
      <trkpt lat="45.6748" lon="4.57495">
        <ele>758</ele>
        <time>2025-04-30T14:32:40Z</time>
      </trkpt>
      <trkpt lat="45.67477" lon="4.57492">
        <ele>756.8</ele>
        <time>2025-04-30T14:32:41Z</time>
      </trkpt>
      <trkpt lat="45.67472" lon="4.57487">
        <ele>756.6</ele>
        <time>2025-04-30T14:32:42Z</time>
      </trkpt>
      <trkpt lat="45.67469" lon="4.57483">
        <ele>756</ele>
        <time>2025-04-30T14:32:43Z</time>
      </trkpt>
      <trkpt lat="45.67466" lon="4.57476">
        <ele>755.2</ele>
        <time>2025-04-30T14:32:44Z</time>
      </trkpt>
      <trkpt lat="45.67463" lon="4.57468">
        <ele>753.4</ele>
        <time>2025-04-30T14:32:45Z</time>
      </trkpt>
      <trkpt lat="45.67458" lon="4.57462">
        <ele>752.4</ele>
        <time>2025-04-30T14:32:46Z</time>
      </trkpt>
      <trkpt lat="45.67453" lon="4.57454">
        <ele>751</ele>
        <time>2025-04-30T14:32:47Z</time>
      </trkpt>
      <trkpt lat="45.67447" lon="4.57447">
        <ele>749.4</ele>
        <time>2025-04-30T14:32:48Z</time>
      </trkpt>
      <trkpt lat="45.67441" lon="4.57439">
        <ele>747.2</ele>
        <time>2025-04-30T14:32:49Z</time>
      </trkpt>
      <trkpt lat="45.67435" lon="4.57433">
        <ele>745.4</ele>
        <time>2025-04-30T14:32:50Z</time>
      </trkpt>
      <trkpt lat="45.67429" lon="4.57428">
        <ele>743.6</ele>
        <time>2025-04-30T14:32:51Z</time>
      </trkpt>
      <trkpt lat="45.67424" lon="4.57423">
        <ele>741.8</ele>
        <time>2025-04-30T14:32:52Z</time>
      </trkpt>
      <trkpt lat="45.67418" lon="4.57419">
        <ele>740</ele>
        <time>2025-04-30T14:32:53Z</time>
      </trkpt>
      <trkpt lat="45.67412" lon="4.57414">
        <ele>738.2</ele>
        <time>2025-04-30T14:32:54Z</time>
      </trkpt>
      <trkpt lat="45.67406" lon="4.5741">
        <ele>736.6</ele>
        <time>2025-04-30T14:32:55Z</time>
      </trkpt>
      <trkpt lat="45.674" lon="4.57405">
        <ele>735</ele>
        <time>2025-04-30T14:32:56Z</time>
      </trkpt>
      <trkpt lat="45.67394" lon="4.57401">
        <ele>733</ele>
        <time>2025-04-30T14:32:57Z</time>
      </trkpt>
      <trkpt lat="45.67388" lon="4.57399">
        <ele>731.6</ele>
        <time>2025-04-30T14:32:58Z</time>
      </trkpt>
      <trkpt lat="45.67382" lon="4.57396">
        <ele>730.4</ele>
        <time>2025-04-30T14:32:59Z</time>
      </trkpt>
      <trkpt lat="45.67377" lon="4.57392">
        <ele>728.4</ele>
        <time>2025-04-30T14:33:00Z</time>
      </trkpt>
      <trkpt lat="45.67371" lon="4.57387">
        <ele>727.8</ele>
        <time>2025-04-30T14:33:01Z</time>
      </trkpt>
      <trkpt lat="45.67366" lon="4.57381">
        <ele>726.4</ele>
        <time>2025-04-30T14:33:02Z</time>
      </trkpt>
      <trkpt lat="45.67361" lon="4.57374">
        <ele>724.8</ele>
        <time>2025-04-30T14:33:03Z</time>
      </trkpt>
      <trkpt lat="45.67356" lon="4.57366">
        <ele>723.4</ele>
        <time>2025-04-30T14:33:04Z</time>
      </trkpt>
      <trkpt lat="45.67352" lon="4.57359">
        <ele>722.2</ele>
        <time>2025-04-30T14:33:05Z</time>
      </trkpt>
      <trkpt lat="45.67347" lon="4.57352">
        <ele>720.4</ele>
        <time>2025-04-30T14:33:06Z</time>
      </trkpt>
      <trkpt lat="45.67343" lon="4.57347">
        <ele>719.4</ele>
        <time>2025-04-30T14:33:07Z</time>
      </trkpt>
      <trkpt lat="45.67337" lon="4.57344">
        <ele>718.2</ele>
        <time>2025-04-30T14:33:08Z</time>
      </trkpt>
      <trkpt lat="45.67332" lon="4.5734">
        <ele>716.4</ele>
        <time>2025-04-30T14:33:09Z</time>
      </trkpt>
      <trkpt lat="45.67328" lon="4.57336">
        <ele>715.4</ele>
        <time>2025-04-30T14:33:10Z</time>
      </trkpt>
      <trkpt lat="45.67323" lon="4.57332">
        <ele>714.8</ele>
        <time>2025-04-30T14:33:11Z</time>
      </trkpt>
      <trkpt lat="45.67319" lon="4.57329">
        <ele>713.4</ele>
        <time>2025-04-30T14:33:12Z</time>
      </trkpt>
      <trkpt lat="45.67315" lon="4.57326">
        <ele>712.2</ele>
        <time>2025-04-30T14:33:13Z</time>
      </trkpt>
      <trkpt lat="45.67312" lon="4.57323">
        <ele>711.4</ele>
        <time>2025-04-30T14:33:14Z</time>
      </trkpt>
      <trkpt lat="45.6731" lon="4.57321">
        <ele>711</ele>
        <time>2025-04-30T14:33:15Z</time>
      </trkpt>
      <trkpt lat="45.6731" lon="4.57318">
        <ele>710</ele>
        <time>2025-04-30T14:33:16Z</time>
      </trkpt>
      <trkpt lat="45.6731" lon="4.57317">
        <ele>710</ele>
        <time>2025-04-30T14:33:17Z</time>
      </trkpt>
      <trkpt lat="45.6731" lon="4.57317">
        <ele>709.8</ele>
        <time>2025-04-30T14:33:18Z</time>
      </trkpt>
      <trkpt lat="45.6731" lon="4.57317">
        <ele>709.6</ele>
        <time>2025-04-30T14:33:19Z</time>
      </trkpt>
      <trkpt lat="45.6731" lon="4.57317">
        <ele>709.4</ele>
        <time>2025-04-30T14:33:20Z</time>
      </trkpt>
      <trkpt lat="45.6731" lon="4.57316">
        <ele>709.4</ele>
        <time>2025-04-30T14:33:21Z</time>
      </trkpt>
      <trkpt lat="45.67309" lon="4.57315">
        <ele>709.4</ele>
        <time>2025-04-30T14:33:22Z</time>
      </trkpt>
      <trkpt lat="45.67309" lon="4.57313">
        <ele>709.4</ele>
        <time>2025-04-30T14:33:23Z</time>
      </trkpt>
      <trkpt lat="45.67308" lon="4.5731">
        <ele>709.4</ele>
        <time>2025-04-30T14:33:24Z</time>
      </trkpt>
      <trkpt lat="45.67307" lon="4.57307">
        <ele>709.4</ele>
        <time>2025-04-30T14:33:25Z</time>
      </trkpt>
      <trkpt lat="45.67304" lon="4.57303">
        <ele>709.2</ele>
        <time>2025-04-30T14:33:26Z</time>
      </trkpt>
      <trkpt lat="45.673" lon="4.573">
        <ele>709</ele>
        <time>2025-04-30T14:33:27Z</time>
      </trkpt>
      <trkpt lat="45.67294" lon="4.57297">
        <ele>708.6</ele>
        <time>2025-04-30T14:33:28Z</time>
      </trkpt>
      <trkpt lat="45.67288" lon="4.57292">
        <ele>707.4</ele>
        <time>2025-04-30T14:33:29Z</time>
      </trkpt>
      <trkpt lat="45.67281" lon="4.57286">
        <ele>705.8</ele>
        <time>2025-04-30T14:33:30Z</time>
      </trkpt>
      <trkpt lat="45.67272" lon="4.5728">
        <ele>704.2</ele>
        <time>2025-04-30T14:33:31Z</time>
      </trkpt>
      <trkpt lat="45.67263" lon="4.57273">
        <ele>702.4</ele>
        <time>2025-04-30T14:33:32Z</time>
      </trkpt>
      <trkpt lat="45.67253" lon="4.57266">
        <ele>700.4</ele>
        <time>2025-04-30T14:33:33Z</time>
      </trkpt>
      <trkpt lat="45.67243" lon="4.5726">
        <ele>698.6</ele>
        <time>2025-04-30T14:33:34Z</time>
      </trkpt>
      <trkpt lat="45.67234" lon="4.57255">
        <ele>696</ele>
        <time>2025-04-30T14:33:35Z</time>
      </trkpt>
      <trkpt lat="45.67223" lon="4.57247">
        <ele>694.2</ele>
        <time>2025-04-30T14:33:36Z</time>
      </trkpt>
      <trkpt lat="45.67216" lon="4.57242">
        <ele>691.8</ele>
        <time>2025-04-30T14:33:37Z</time>
      </trkpt>
      <trkpt lat="45.67207" lon="4.57236">
        <ele>689</ele>
        <time>2025-04-30T14:33:38Z</time>
      </trkpt>
      <trkpt lat="45.672" lon="4.5723">
        <ele>686.8</ele>
        <time>2025-04-30T14:33:39Z</time>
      </trkpt>
      <trkpt lat="45.67196" lon="4.57224">
        <ele>686.4</ele>
        <time>2025-04-30T14:33:40Z</time>
      </trkpt>
      <trkpt lat="45.67192" lon="4.57218">
        <ele>686.2</ele>
        <time>2025-04-30T14:33:41Z</time>
      </trkpt>
      <trkpt lat="45.67188" lon="4.57214">
        <ele>686.2</ele>
        <time>2025-04-30T14:33:42Z</time>
      </trkpt>
      <trkpt lat="45.67183" lon="4.57212">
        <ele>686</ele>
        <time>2025-04-30T14:33:43Z</time>
      </trkpt>
      <trkpt lat="45.67178" lon="4.57212">
        <ele>685.8</ele>
        <time>2025-04-30T14:33:44Z</time>
      </trkpt>
      <trkpt lat="45.67172" lon="4.57215">
        <ele>685.4</ele>
        <time>2025-04-30T14:33:45Z</time>
      </trkpt>
      <trkpt lat="45.67167" lon="4.57218">
        <ele>685</ele>
        <time>2025-04-30T14:33:46Z</time>
      </trkpt>
      <trkpt lat="45.67162" lon="4.57222">
        <ele>683.8</ele>
        <time>2025-04-30T14:33:47Z</time>
      </trkpt>
      <trkpt lat="45.67157" lon="4.57226">
        <ele>683.2</ele>
        <time>2025-04-30T14:33:48Z</time>
      </trkpt>
      <trkpt lat="45.67152" lon="4.5723">
        <ele>682.6</ele>
        <time>2025-04-30T14:33:49Z</time>
      </trkpt>
      <trkpt lat="45.67147" lon="4.57233">
        <ele>682.4</ele>
        <time>2025-04-30T14:33:50Z</time>
      </trkpt>
      <trkpt lat="45.67143" lon="4.57235">
        <ele>682.4</ele>
        <time>2025-04-30T14:33:51Z</time>
      </trkpt>
      <trkpt lat="45.67138" lon="4.57236">
        <ele>682.4</ele>
        <time>2025-04-30T14:33:52Z</time>
      </trkpt>
      <trkpt lat="45.67134" lon="4.57237">
        <ele>682.6</ele>
        <time>2025-04-30T14:33:53Z</time>
      </trkpt>
      <trkpt lat="45.67129" lon="4.57238">
        <ele>683</ele>
        <time>2025-04-30T14:33:54Z</time>
      </trkpt>
      <trkpt lat="45.67125" lon="4.57239">
        <ele>683.6</ele>
        <time>2025-04-30T14:33:55Z</time>
      </trkpt>
      <trkpt lat="45.67121" lon="4.5724">
        <ele>683.8</ele>
        <time>2025-04-30T14:33:56Z</time>
      </trkpt>
      <trkpt lat="45.67117" lon="4.5724">
        <ele>684.2</ele>
        <time>2025-04-30T14:33:57Z</time>
      </trkpt>
      <trkpt lat="45.67113" lon="4.57241">
        <ele>684.6</ele>
        <time>2025-04-30T14:33:58Z</time>
      </trkpt>
      <trkpt lat="45.67109" lon="4.57242">
        <ele>684.6</ele>
        <time>2025-04-30T14:33:59Z</time>
      </trkpt>
      <trkpt lat="45.67106" lon="4.57242">
        <ele>684.8</ele>
        <time>2025-04-30T14:34:00Z</time>
      </trkpt>
      <trkpt lat="45.67102" lon="4.57243">
        <ele>685</ele>
        <time>2025-04-30T14:34:01Z</time>
      </trkpt>
      <trkpt lat="45.67098" lon="4.57244">
        <ele>685</ele>
        <time>2025-04-30T14:34:02Z</time>
      </trkpt>
      <trkpt lat="45.67096" lon="4.57245">
        <ele>685.2</ele>
        <time>2025-04-30T14:34:03Z</time>
      </trkpt>
      <trkpt lat="45.67094" lon="4.57246">
        <ele>685.8</ele>
        <time>2025-04-30T14:34:04Z</time>
      </trkpt>
      <trkpt lat="45.67092" lon="4.57247">
        <ele>686</ele>
        <time>2025-04-30T14:34:05Z</time>
      </trkpt>
      <trkpt lat="45.6709" lon="4.57248">
        <ele>686.4</ele>
        <time>2025-04-30T14:34:06Z</time>
      </trkpt>
      <trkpt lat="45.67089" lon="4.5725">
        <ele>686.8</ele>
        <time>2025-04-30T14:34:07Z</time>
      </trkpt>
      <trkpt lat="45.67087" lon="4.57251">
        <ele>687.4</ele>
        <time>2025-04-30T14:34:08Z</time>
      </trkpt>
      <trkpt lat="45.67086" lon="4.57251">
        <ele>687.6</ele>
        <time>2025-04-30T14:34:09Z</time>
      </trkpt>
      <trkpt lat="45.67084" lon="4.57252">
        <ele>687.8</ele>
        <time>2025-04-30T14:34:10Z</time>
      </trkpt>
      <trkpt lat="45.67083" lon="4.57253">
        <ele>688.6</ele>
        <time>2025-04-30T14:34:11Z</time>
      </trkpt>
      <trkpt lat="45.67081" lon="4.57253">
        <ele>689</ele>
        <time>2025-04-30T14:34:12Z</time>
      </trkpt>
      <trkpt lat="45.6708" lon="4.57253">
        <ele>689.2</ele>
        <time>2025-04-30T14:34:13Z</time>
      </trkpt>
      <trkpt lat="45.67078" lon="4.57253">
        <ele>689.4</ele>
        <time>2025-04-30T14:34:14Z</time>
      </trkpt>
      <trkpt lat="45.67076" lon="4.57254">
        <ele>689.8</ele>
        <time>2025-04-30T14:34:15Z</time>
      </trkpt>
      <trkpt lat="45.67075" lon="4.57255">
        <ele>690</ele>
        <time>2025-04-30T14:34:16Z</time>
      </trkpt>
      <trkpt lat="45.67074" lon="4.57255">
        <ele>690.4</ele>
        <time>2025-04-30T14:34:17Z</time>
      </trkpt>
      <trkpt lat="45.67072" lon="4.57255">
        <ele>690.6</ele>
        <time>2025-04-30T14:34:18Z</time>
      </trkpt>
      <trkpt lat="45.67071" lon="4.57255">
        <ele>690.8</ele>
        <time>2025-04-30T14:34:19Z</time>
      </trkpt>
      <trkpt lat="45.67069" lon="4.57255">
        <ele>691</ele>
        <time>2025-04-30T14:34:20Z</time>
      </trkpt>
      <trkpt lat="45.67068" lon="4.57256">
        <ele>691.2</ele>
        <time>2025-04-30T14:34:21Z</time>
      </trkpt>
      <trkpt lat="45.67068" lon="4.57256">
        <ele>691.6</ele>
        <time>2025-04-30T14:34:22Z</time>
      </trkpt>
      <trkpt lat="45.67068" lon="4.57256">
        <ele>691.8</ele>
        <time>2025-04-30T14:34:23Z</time>
      </trkpt>
      <trkpt lat="45.67068" lon="4.57256">
        <ele>692.2</ele>
        <time>2025-04-30T14:34:24Z</time>
      </trkpt>
      <trkpt lat="45.67068" lon="4.57256">
        <ele>692.4</ele>
        <time>2025-04-30T14:34:25Z</time>
      </trkpt>
      <trkpt lat="45.67068" lon="4.57256">
        <ele>692.6</ele>
        <time>2025-04-30T14:34:26Z</time>
      </trkpt>
      <trkpt lat="45.67068" lon="4.57256">
        <ele>692.6</ele>
        <time>2025-04-30T14:34:27Z</time>
      </trkpt>
      <trkpt lat="45.67068" lon="4.57256">
        <ele>692.6</ele>
        <time>2025-04-30T14:34:28Z</time>
      </trkpt>
      <trkpt lat="45.67068" lon="4.57256">
        <ele>692.6</ele>
        <time>2025-04-30T14:34:29Z</time>
      </trkpt>
      <trkpt lat="45.67068" lon="4.57256">
        <ele>692.6</ele>
        <time>2025-04-30T14:34:30Z</time>
      </trkpt>
      <trkpt lat="45.67068" lon="4.57256">
        <ele>692.6</ele>
        <time>2025-04-30T14:34:31Z</time>
      </trkpt>
      <trkpt lat="45.67068" lon="4.57256">
        <ele>692.6</ele>
        <time>2025-04-30T14:34:32Z</time>
      </trkpt>
      <trkpt lat="45.67068" lon="4.57256">
        <ele>692.6</ele>
        <time>2025-04-30T14:34:33Z</time>
      </trkpt>
      <trkpt lat="45.67068" lon="4.57256">
        <ele>692.6</ele>
        <time>2025-04-30T14:34:34Z</time>
      </trkpt>
      <trkpt lat="45.67068" lon="4.57256">
        <ele>692.6</ele>
        <time>2025-04-30T14:34:35Z</time>
      </trkpt>
      <trkpt lat="45.67068" lon="4.57256">
        <ele>692.6</ele>
        <time>2025-04-30T14:34:36Z</time>
      </trkpt>
      <trkpt lat="45.67068" lon="4.57256">
        <ele>692.6</ele>
        <time>2025-04-30T14:34:37Z</time>
      </trkpt>
      <trkpt lat="45.67068" lon="4.57256">
        <ele>692.6</ele>
        <time>2025-04-30T14:34:38Z</time>
      </trkpt>
      <trkpt lat="45.67068" lon="4.57256">
        <ele>692.6</ele>
        <time>2025-04-30T14:34:39Z</time>
      </trkpt>
      <trkpt lat="45.67068" lon="4.57256">
        <ele>692.6</ele>
        <time>2025-04-30T14:34:40Z</time>
      </trkpt>
      <trkpt lat="45.67068" lon="4.57256">
        <ele>692.6</ele>
        <time>2025-04-30T14:34:41Z</time>
      </trkpt>
      <trkpt lat="45.67068" lon="4.57256">
        <ele>692.6</ele>
        <time>2025-04-30T14:34:42Z</time>
      </trkpt>
      <trkpt lat="45.67067" lon="4.57256">
        <ele>692.8</ele>
        <time>2025-04-30T14:34:43Z</time>
      </trkpt>
      <trkpt lat="45.67067" lon="4.57255">
        <ele>692.8</ele>
        <time>2025-04-30T14:34:44Z</time>
      </trkpt>
      <trkpt lat="45.67066" lon="4.57255">
        <ele>692.8</ele>
        <time>2025-04-30T14:34:45Z</time>
      </trkpt>
      <trkpt lat="45.67065" lon="4.57255">
        <ele>692.8</ele>
        <time>2025-04-30T14:34:46Z</time>
      </trkpt>
      <trkpt lat="45.67064" lon="4.57256">
        <ele>693</ele>
        <time>2025-04-30T14:34:47Z</time>
      </trkpt>
      <trkpt lat="45.67063" lon="4.57256">
        <ele>693.2</ele>
        <time>2025-04-30T14:34:48Z</time>
      </trkpt>
      <trkpt lat="45.67063" lon="4.57256">
        <ele>693.2</ele>
        <time>2025-04-30T14:34:49Z</time>
      </trkpt>
      <trkpt lat="45.67062" lon="4.57256">
        <ele>693.4</ele>
        <time>2025-04-30T14:34:50Z</time>
      </trkpt>
      <trkpt lat="45.67062" lon="4.57256">
        <ele>693.6</ele>
        <time>2025-04-30T14:34:51Z</time>
      </trkpt>
      <trkpt lat="45.67062" lon="4.57256">
        <ele>693.6</ele>
        <time>2025-04-30T14:34:52Z</time>
      </trkpt>
      <trkpt lat="45.67061" lon="4.57257">
        <ele>693.8</ele>
        <time>2025-04-30T14:34:53Z</time>
      </trkpt>
      <trkpt lat="45.67061" lon="4.57257">
        <ele>694</ele>
        <time>2025-04-30T14:34:54Z</time>
      </trkpt>
      <trkpt lat="45.67061" lon="4.57257">
        <ele>694</ele>
        <time>2025-04-30T14:34:55Z</time>
      </trkpt>
      <trkpt lat="45.6706" lon="4.57258">
        <ele>694</ele>
        <time>2025-04-30T14:34:56Z</time>
      </trkpt>
      <trkpt lat="45.6706" lon="4.57258">
        <ele>694.2</ele>
        <time>2025-04-30T14:34:57Z</time>
      </trkpt>
      <trkpt lat="45.6706" lon="4.57258">
        <ele>694.2</ele>
        <time>2025-04-30T14:34:58Z</time>
      </trkpt>
      <trkpt lat="45.6706" lon="4.57258">
        <ele>694.2</ele>
        <time>2025-04-30T14:34:59Z</time>
      </trkpt>
      <trkpt lat="45.6706" lon="4.57258">
        <ele>694.2</ele>
        <time>2025-04-30T14:35:00Z</time>
      </trkpt>
      <trkpt lat="45.6706" lon="4.57258">
        <ele>694.2</ele>
        <time>2025-04-30T14:35:01Z</time>
      </trkpt>
      <trkpt lat="45.67058" lon="4.57258">
        <ele>694.2</ele>
        <time>2025-04-30T14:35:02Z</time>
      </trkpt>
      <trkpt lat="45.67057" lon="4.57259">
        <ele>694.2</ele>
        <time>2025-04-30T14:35:03Z</time>
      </trkpt>
      <trkpt lat="45.67055" lon="4.57259">
        <ele>694.2</ele>
        <time>2025-04-30T14:35:04Z</time>
      </trkpt>
      <trkpt lat="45.67053" lon="4.57259">
        <ele>694.2</ele>
        <time>2025-04-30T14:35:05Z</time>
      </trkpt>
      <trkpt lat="45.67051" lon="4.5726">
        <ele>694.2</ele>
        <time>2025-04-30T14:35:06Z</time>
      </trkpt>
      <trkpt lat="45.67049" lon="4.5726">
        <ele>694.2</ele>
        <time>2025-04-30T14:35:07Z</time>
      </trkpt>
      <trkpt lat="45.67048" lon="4.57261">
        <ele>694.4</ele>
        <time>2025-04-30T14:35:08Z</time>
      </trkpt>
      <trkpt lat="45.67047" lon="4.57261">
        <ele>694.6</ele>
        <time>2025-04-30T14:35:09Z</time>
      </trkpt>
      <trkpt lat="45.67045" lon="4.57261">
        <ele>694.8</ele>
        <time>2025-04-30T14:35:10Z</time>
      </trkpt>
      <trkpt lat="45.67044" lon="4.57261">
        <ele>695</ele>
        <time>2025-04-30T14:35:11Z</time>
      </trkpt>
      <trkpt lat="45.67043" lon="4.57261">
        <ele>695.4</ele>
        <time>2025-04-30T14:35:12Z</time>
      </trkpt>
      <trkpt lat="45.67042" lon="4.57261">
        <ele>695.8</ele>
        <time>2025-04-30T14:35:13Z</time>
      </trkpt>
      <trkpt lat="45.67042" lon="4.57261">
        <ele>696.2</ele>
        <time>2025-04-30T14:35:14Z</time>
      </trkpt>
      <trkpt lat="45.67042" lon="4.57261">
        <ele>696.4</ele>
        <time>2025-04-30T14:35:15Z</time>
      </trkpt>
      <trkpt lat="45.67042" lon="4.57261">
        <ele>696.6</ele>
        <time>2025-04-30T14:35:16Z</time>
      </trkpt>
      <trkpt lat="45.67042" lon="4.57261">
        <ele>697</ele>
        <time>2025-04-30T14:35:17Z</time>
      </trkpt>
      <trkpt lat="45.67042" lon="4.57261">
        <ele>697</ele>
        <time>2025-04-30T14:35:18Z</time>
      </trkpt>
      <trkpt lat="45.67042" lon="4.57261">
        <ele>697.2</ele>
        <time>2025-04-30T14:35:19Z</time>
      </trkpt>
      <trkpt lat="45.67042" lon="4.57261">
        <ele>697.2</ele>
        <time>2025-04-30T14:35:20Z</time>
      </trkpt>
      <trkpt lat="45.67041" lon="4.57262">
        <ele>697.4</ele>
        <time>2025-04-30T14:35:21Z</time>
      </trkpt>
      <trkpt lat="45.67041" lon="4.57262">
        <ele>697.4</ele>
        <time>2025-04-30T14:35:22Z</time>
      </trkpt>
      <trkpt lat="45.67039" lon="4.57262">
        <ele>697.6</ele>
        <time>2025-04-30T14:35:23Z</time>
      </trkpt>
      <trkpt lat="45.67039" lon="4.57262">
        <ele>697.6</ele>
        <time>2025-04-30T14:35:24Z</time>
      </trkpt>
      <trkpt lat="45.67038" lon="4.57263">
        <ele>697.6</ele>
        <time>2025-04-30T14:35:25Z</time>
      </trkpt>
      <trkpt lat="45.67037" lon="4.57263">
        <ele>697.6</ele>
        <time>2025-04-30T14:35:26Z</time>
      </trkpt>
      <trkpt lat="45.67037" lon="4.57263">
        <ele>697.6</ele>
        <time>2025-04-30T14:35:27Z</time>
      </trkpt>
      <trkpt lat="45.67036" lon="4.57263">
        <ele>697.6</ele>
        <time>2025-04-30T14:35:28Z</time>
      </trkpt>
      <trkpt lat="45.67035" lon="4.57263">
        <ele>697.8</ele>
        <time>2025-04-30T14:35:29Z</time>
      </trkpt>
      <trkpt lat="45.67035" lon="4.57263">
        <ele>697.8</ele>
        <time>2025-04-30T14:35:30Z</time>
      </trkpt>
      <trkpt lat="45.67034" lon="4.57263">
        <ele>698.2</ele>
        <time>2025-04-30T14:35:31Z</time>
      </trkpt>
      <trkpt lat="45.67034" lon="4.57263">
        <ele>698.2</ele>
        <time>2025-04-30T14:35:32Z</time>
      </trkpt>
      <trkpt lat="45.67032" lon="4.57264">
        <ele>698.2</ele>
        <time>2025-04-30T14:35:33Z</time>
      </trkpt>
      <trkpt lat="45.67032" lon="4.57264">
        <ele>698.4</ele>
        <time>2025-04-30T14:35:34Z</time>
      </trkpt>
      <trkpt lat="45.67031" lon="4.57264">
        <ele>698.6</ele>
        <time>2025-04-30T14:35:35Z</time>
      </trkpt>
      <trkpt lat="45.6703" lon="4.57264">
        <ele>698.6</ele>
        <time>2025-04-30T14:35:36Z</time>
      </trkpt>
      <trkpt lat="45.6703" lon="4.57264">
        <ele>699</ele>
        <time>2025-04-30T14:35:37Z</time>
      </trkpt>
      <trkpt lat="45.6703" lon="4.57264">
        <ele>699</ele>
        <time>2025-04-30T14:35:38Z</time>
      </trkpt>
      <trkpt lat="45.6703" lon="4.57264">
        <ele>699.2</ele>
        <time>2025-04-30T14:35:39Z</time>
      </trkpt>
      <trkpt lat="45.6703" lon="4.57264">
        <ele>699.2</ele>
        <time>2025-04-30T14:35:40Z</time>
      </trkpt>
      <trkpt lat="45.6703" lon="4.57264">
        <ele>699.4</ele>
        <time>2025-04-30T14:35:41Z</time>
      </trkpt>
      <trkpt lat="45.6703" lon="4.57264">
        <ele>699.6</ele>
        <time>2025-04-30T14:35:42Z</time>
      </trkpt>
      <trkpt lat="45.6703" lon="4.57264">
        <ele>699.6</ele>
        <time>2025-04-30T14:35:43Z</time>
      </trkpt>
      <trkpt lat="45.6703" lon="4.57264">
        <ele>699.8</ele>
        <time>2025-04-30T14:35:44Z</time>
      </trkpt>
      <trkpt lat="45.6703" lon="4.57264">
        <ele>699.8</ele>
        <time>2025-04-30T14:35:45Z</time>
      </trkpt>
      <trkpt lat="45.6703" lon="4.57264">
        <ele>699.8</ele>
        <time>2025-04-30T14:35:46Z</time>
      </trkpt>
      <trkpt lat="45.6703" lon="4.57264">
        <ele>699.8</ele>
        <time>2025-04-30T14:35:47Z</time>
      </trkpt>
      <trkpt lat="45.6703" lon="4.57264">
        <ele>699.8</ele>
        <time>2025-04-30T14:35:48Z</time>
      </trkpt>
      <trkpt lat="45.6703" lon="4.57264">
        <ele>699.8</ele>
        <time>2025-04-30T14:35:49Z</time>
      </trkpt>
      <trkpt lat="45.6703" lon="4.57264">
        <ele>699.8</ele>
        <time>2025-04-30T14:35:50Z</time>
      </trkpt>
      <trkpt lat="45.6703" lon="4.57264">
        <ele>699.8</ele>
        <time>2025-04-30T14:35:51Z</time>
      </trkpt>
      <trkpt lat="45.6703" lon="4.57264">
        <ele>699.8</ele>
        <time>2025-04-30T14:35:52Z</time>
      </trkpt>
      <trkpt lat="45.6703" lon="4.57264">
        <ele>699.8</ele>
        <time>2025-04-30T14:35:53Z</time>
      </trkpt>
      <trkpt lat="45.6703" lon="4.57264">
        <ele>699.6</ele>
        <time>2025-04-30T14:35:54Z</time>
      </trkpt>
      <trkpt lat="45.6703" lon="4.57264">
        <ele>699.6</ele>
        <time>2025-04-30T14:35:55Z</time>
      </trkpt>
      <trkpt lat="45.6703" lon="4.57264">
        <ele>699.6</ele>
        <time>2025-04-30T14:35:56Z</time>
      </trkpt>
      <trkpt lat="45.6703" lon="4.57264">
        <ele>699.6</ele>
        <time>2025-04-30T14:35:57Z</time>
      </trkpt>
      <trkpt lat="45.6703" lon="4.57264">
        <ele>699.6</ele>
        <time>2025-04-30T14:35:58Z</time>
      </trkpt>
      <trkpt lat="45.6703" lon="4.57264">
        <ele>699.6</ele>
        <time>2025-04-30T14:35:59Z</time>
      </trkpt>
      <trkpt lat="45.6703" lon="4.57264">
        <ele>699.4</ele>
        <time>2025-04-30T14:36:00Z</time>
      </trkpt>
      <trkpt lat="45.6703" lon="4.57264">
        <ele>699.4</ele>
        <time>2025-04-30T14:36:01Z</time>
      </trkpt>
      <trkpt lat="45.6703" lon="4.57264">
        <ele>699.4</ele>
        <time>2025-04-30T14:36:02Z</time>
      </trkpt>
      <trkpt lat="45.6703" lon="4.57264">
        <ele>699.4</ele>
        <time>2025-04-30T14:36:03Z</time>
      </trkpt>
      <trkpt lat="45.6703" lon="4.57264">
        <ele>699.4</ele>
        <time>2025-04-30T14:36:04Z</time>
      </trkpt>
      <trkpt lat="45.6703" lon="4.57264">
        <ele>699.2</ele>
        <time>2025-04-30T14:36:05Z</time>
      </trkpt>
      <trkpt lat="45.6703" lon="4.57264">
        <ele>699.2</ele>
        <time>2025-04-30T14:36:06Z</time>
      </trkpt>
      <trkpt lat="45.6703" lon="4.57264">
        <ele>699.2</ele>
        <time>2025-04-30T14:36:07Z</time>
      </trkpt>
      <trkpt lat="45.6703" lon="4.57264">
        <ele>699.2</ele>
        <time>2025-04-30T14:36:08Z</time>
      </trkpt>
      <trkpt lat="45.6703" lon="4.57264">
        <ele>699.2</ele>
        <time>2025-04-30T14:36:09Z</time>
      </trkpt>
      <trkpt lat="45.6703" lon="4.57264">
        <ele>699.2</ele>
        <time>2025-04-30T14:36:10Z</time>
      </trkpt>
      <trkpt lat="45.6703" lon="4.57264">
        <ele>699.2</ele>
        <time>2025-04-30T14:36:11Z</time>
      </trkpt>
      <trkpt lat="45.6703" lon="4.57264">
        <ele>699.2</ele>
        <time>2025-04-30T14:36:12Z</time>
      </trkpt>
      <trkpt lat="45.6703" lon="4.57264">
        <ele>699.2</ele>
        <time>2025-04-30T14:36:13Z</time>
      </trkpt>
      <trkpt lat="45.6703" lon="4.57264">
        <ele>699.2</ele>
        <time>2025-04-30T14:36:14Z</time>
      </trkpt>
      <trkpt lat="45.6703" lon="4.57264">
        <ele>699.2</ele>
        <time>2025-04-30T14:36:15Z</time>
      </trkpt>
      <trkpt lat="45.6703" lon="4.57264">
        <ele>699.2</ele>
        <time>2025-04-30T14:36:16Z</time>
      </trkpt>
      <trkpt lat="45.6703" lon="4.57264">
        <ele>699.2</ele>
        <time>2025-04-30T14:36:17Z</time>
      </trkpt>
      <trkpt lat="45.6703" lon="4.57264">
        <ele>699.2</ele>
        <time>2025-04-30T14:36:18Z</time>
      </trkpt>
      <trkpt lat="45.6703" lon="4.57264">
        <ele>699</ele>
        <time>2025-04-30T14:36:19Z</time>
      </trkpt>
      <trkpt lat="45.6703" lon="4.57264">
        <ele>699</ele>
        <time>2025-04-30T14:36:20Z</time>
      </trkpt>
      <trkpt lat="45.6703" lon="4.57264">
        <ele>699</ele>
        <time>2025-04-30T14:36:21Z</time>
      </trkpt>
      <trkpt lat="45.6703" lon="4.57264">
        <ele>699</ele>
        <time>2025-04-30T14:36:22Z</time>
      </trkpt>
      <trkpt lat="45.6703" lon="4.57264">
        <ele>699</ele>
        <time>2025-04-30T14:36:23Z</time>
      </trkpt>
      <trkpt lat="45.6703" lon="4.57264">
        <ele>699</ele>
        <time>2025-04-30T14:36:24Z</time>
      </trkpt>
      <trkpt lat="45.6703" lon="4.57264">
        <ele>699</ele>
        <time>2025-04-30T14:36:25Z</time>
      </trkpt>
      <trkpt lat="45.6703" lon="4.57264">
        <ele>699</ele>
        <time>2025-04-30T14:36:26Z</time>
      </trkpt>
      <trkpt lat="45.6703" lon="4.57264">
        <ele>699</ele>
        <time>2025-04-30T14:36:27Z</time>
      </trkpt>
      <trkpt lat="45.6703" lon="4.57264">
        <ele>699</ele>
        <time>2025-04-30T14:36:28Z</time>
      </trkpt>
      <trkpt lat="45.6703" lon="4.57264">
        <ele>699</ele>
        <time>2025-04-30T14:36:29Z</time>
      </trkpt>
      <trkpt lat="45.6703" lon="4.57264">
        <ele>698.8</ele>
        <time>2025-04-30T14:36:30Z</time>
      </trkpt>
      <trkpt lat="45.6703" lon="4.57264">
        <ele>698.8</ele>
        <time>2025-04-30T14:36:31Z</time>
      </trkpt>
      <trkpt lat="45.6703" lon="4.57264">
        <ele>698.8</ele>
        <time>2025-04-30T14:36:32Z</time>
      </trkpt>
      <trkpt lat="45.6703" lon="4.57264">
        <ele>698.8</ele>
        <time>2025-04-30T14:36:33Z</time>
      </trkpt>
      <trkpt lat="45.6703" lon="4.57264">
        <ele>698.8</ele>
        <time>2025-04-30T14:36:34Z</time>
      </trkpt>
      <trkpt lat="45.6703" lon="4.57264">
        <ele>698.8</ele>
        <time>2025-04-30T14:36:35Z</time>
      </trkpt>
      <trkpt lat="45.6703" lon="4.57264">
        <ele>698.8</ele>
        <time>2025-04-30T14:36:36Z</time>
      </trkpt>
      <trkpt lat="45.6703" lon="4.57264">
        <ele>698.8</ele>
        <time>2025-04-30T14:36:37Z</time>
      </trkpt>
      <trkpt lat="45.6703" lon="4.57264">
        <ele>698.8</ele>
        <time>2025-04-30T14:36:38Z</time>
      </trkpt>
      <trkpt lat="45.6703" lon="4.57264">
        <ele>698.8</ele>
        <time>2025-04-30T14:36:39Z</time>
      </trkpt>
      <trkpt lat="45.6703" lon="4.57264">
        <ele>698.8</ele>
        <time>2025-04-30T14:36:40Z</time>
      </trkpt>
      <trkpt lat="45.6703" lon="4.57264">
        <ele>698.8</ele>
        <time>2025-04-30T14:36:41Z</time>
      </trkpt>
      <trkpt lat="45.6703" lon="4.57264">
        <ele>698.8</ele>
        <time>2025-04-30T14:36:42Z</time>
      </trkpt>
      <trkpt lat="45.6703" lon="4.57264">
        <ele>698.8</ele>
        <time>2025-04-30T14:36:43Z</time>
      </trkpt>
      <trkpt lat="45.6703" lon="4.57264">
        <ele>698.8</ele>
        <time>2025-04-30T14:36:44Z</time>
      </trkpt>
      <trkpt lat="45.6703" lon="4.57264">
        <ele>698.8</ele>
        <time>2025-04-30T14:36:45Z</time>
      </trkpt>
      <trkpt lat="45.6703" lon="4.57264">
        <ele>698.8</ele>
        <time>2025-04-30T14:36:46Z</time>
      </trkpt>
      <trkpt lat="45.6703" lon="4.57264">
        <ele>698.6</ele>
        <time>2025-04-30T14:36:47Z</time>
      </trkpt>
      <trkpt lat="45.6703" lon="4.57264">
        <ele>698.6</ele>
        <time>2025-04-30T14:36:48Z</time>
      </trkpt>
      <trkpt lat="45.6703" lon="4.57264">
        <ele>698.6</ele>
        <time>2025-04-30T14:36:49Z</time>
      </trkpt>
      <trkpt lat="45.6703" lon="4.57264">
        <ele>698.6</ele>
        <time>2025-04-30T14:36:50Z</time>
      </trkpt>
      <trkpt lat="45.6703" lon="4.57264">
        <ele>698.6</ele>
        <time>2025-04-30T14:36:51Z</time>
      </trkpt>
      <trkpt lat="45.6703" lon="4.57264">
        <ele>698.6</ele>
        <time>2025-04-30T14:36:52Z</time>
      </trkpt>
      <trkpt lat="45.6703" lon="4.57264">
        <ele>698.6</ele>
        <time>2025-04-30T14:36:53Z</time>
      </trkpt>
      <trkpt lat="45.6703" lon="4.57264">
        <ele>698.4</ele>
        <time>2025-04-30T14:36:54Z</time>
      </trkpt>
      <trkpt lat="45.6703" lon="4.57264">
        <ele>698.4</ele>
        <time>2025-04-30T14:36:55Z</time>
      </trkpt>
      <trkpt lat="45.6703" lon="4.57264">
        <ele>698.4</ele>
        <time>2025-04-30T14:36:56Z</time>
      </trkpt>
      <trkpt lat="45.6703" lon="4.57264">
        <ele>698.4</ele>
        <time>2025-04-30T14:36:57Z</time>
      </trkpt>
      <trkpt lat="45.6703" lon="4.57264">
        <ele>698.4</ele>
        <time>2025-04-30T14:36:58Z</time>
      </trkpt>
      <trkpt lat="45.6703" lon="4.57264">
        <ele>698.4</ele>
        <time>2025-04-30T14:36:59Z</time>
      </trkpt>
      <trkpt lat="45.6703" lon="4.57264">
        <ele>698.4</ele>
        <time>2025-04-30T14:37:00Z</time>
      </trkpt>
      <trkpt lat="45.6703" lon="4.57264">
        <ele>698.4</ele>
        <time>2025-04-30T14:37:01Z</time>
      </trkpt>
      <trkpt lat="45.6703" lon="4.57264">
        <ele>698.4</ele>
        <time>2025-04-30T14:37:02Z</time>
      </trkpt>
      <trkpt lat="45.6703" lon="4.57264">
        <ele>698.4</ele>
        <time>2025-04-30T14:37:03Z</time>
      </trkpt>
      <trkpt lat="45.6703" lon="4.57264">
        <ele>698.4</ele>
        <time>2025-04-30T14:37:04Z</time>
      </trkpt>
      <trkpt lat="45.6703" lon="4.57264">
        <ele>698.4</ele>
        <time>2025-04-30T14:37:05Z</time>
      </trkpt>
      <trkpt lat="45.6703" lon="4.57264">
        <ele>698.4</ele>
        <time>2025-04-30T14:37:06Z</time>
      </trkpt>
      <trkpt lat="45.6703" lon="4.57264">
        <ele>698.4</ele>
        <time>2025-04-30T14:37:07Z</time>
      </trkpt>
      <trkpt lat="45.6703" lon="4.57264">
        <ele>698.4</ele>
        <time>2025-04-30T14:37:08Z</time>
      </trkpt>
      <trkpt lat="45.6703" lon="4.57264">
        <ele>698.6</ele>
        <time>2025-04-30T14:37:09Z</time>
      </trkpt>
      <trkpt lat="45.6703" lon="4.57264">
        <ele>698.6</ele>
        <time>2025-04-30T14:37:10Z</time>
      </trkpt>
      <trkpt lat="45.6703" lon="4.57264">
        <ele>698.6</ele>
        <time>2025-04-30T14:37:11Z</time>
      </trkpt>
      <trkpt lat="45.67029" lon="4.57265">
        <ele>698.8</ele>
        <time>2025-04-30T14:37:12Z</time>
      </trkpt>
      <trkpt lat="45.67029" lon="4.57265">
        <ele>698.8</ele>
        <time>2025-04-30T14:37:13Z</time>
      </trkpt>
      <trkpt lat="45.67028" lon="4.57265">
        <ele>698.8</ele>
        <time>2025-04-30T14:37:14Z</time>
      </trkpt>
      <trkpt lat="45.67027" lon="4.57265">
        <ele>698.8</ele>
        <time>2025-04-30T14:37:15Z</time>
      </trkpt>
      <trkpt lat="45.67027" lon="4.57266">
        <ele>699</ele>
        <time>2025-04-30T14:37:16Z</time>
      </trkpt>
      <trkpt lat="45.67026" lon="4.57266">
        <ele>699</ele>
        <time>2025-04-30T14:37:17Z</time>
      </trkpt>
      <trkpt lat="45.67025" lon="4.57267">
        <ele>699</ele>
        <time>2025-04-30T14:37:18Z</time>
      </trkpt>
      <trkpt lat="45.67024" lon="4.57267">
        <ele>699.2</ele>
        <time>2025-04-30T14:37:19Z</time>
      </trkpt>
      <trkpt lat="45.67024" lon="4.57267">
        <ele>699.2</ele>
        <time>2025-04-30T14:37:20Z</time>
      </trkpt>
      <trkpt lat="45.67022" lon="4.57267">
        <ele>699.4</ele>
        <time>2025-04-30T14:37:21Z</time>
      </trkpt>
      <trkpt lat="45.67021" lon="4.57267">
        <ele>699.6</ele>
        <time>2025-04-30T14:37:22Z</time>
      </trkpt>
      <trkpt lat="45.6702" lon="4.57268">
        <ele>699.6</ele>
        <time>2025-04-30T14:37:23Z</time>
      </trkpt>
      <trkpt lat="45.67019" lon="4.57269">
        <ele>699.8</ele>
        <time>2025-04-30T14:37:24Z</time>
      </trkpt>
      <trkpt lat="45.67018" lon="4.57269">
        <ele>700</ele>
        <time>2025-04-30T14:37:25Z</time>
      </trkpt>
      <trkpt lat="45.67017" lon="4.5727">
        <ele>700.2</ele>
        <time>2025-04-30T14:37:26Z</time>
      </trkpt>
      <trkpt lat="45.67015" lon="4.5727">
        <ele>700.2</ele>
        <time>2025-04-30T14:37:27Z</time>
      </trkpt>
      <trkpt lat="45.67014" lon="4.57271">
        <ele>700.2</ele>
        <time>2025-04-30T14:37:28Z</time>
      </trkpt>
      <trkpt lat="45.67012" lon="4.57272">
        <ele>700.6</ele>
        <time>2025-04-30T14:37:29Z</time>
      </trkpt>
      <trkpt lat="45.67011" lon="4.57272">
        <ele>700.6</ele>
        <time>2025-04-30T14:37:30Z</time>
      </trkpt>
      <trkpt lat="45.6701" lon="4.57273">
        <ele>700.6</ele>
        <time>2025-04-30T14:37:31Z</time>
      </trkpt>
      <trkpt lat="45.67009" lon="4.57273">
        <ele>700.6</ele>
        <time>2025-04-30T14:37:32Z</time>
      </trkpt>
      <trkpt lat="45.67008" lon="4.57273">
        <ele>700.8</ele>
        <time>2025-04-30T14:37:33Z</time>
      </trkpt>
      <trkpt lat="45.67008" lon="4.57273">
        <ele>701</ele>
        <time>2025-04-30T14:37:34Z</time>
      </trkpt>
      <trkpt lat="45.67008" lon="4.57273">
        <ele>701.2</ele>
        <time>2025-04-30T14:37:35Z</time>
      </trkpt>
      <trkpt lat="45.67008" lon="4.57273">
        <ele>701.2</ele>
        <time>2025-04-30T14:37:36Z</time>
      </trkpt>
      <trkpt lat="45.67008" lon="4.57273">
        <ele>701.4</ele>
        <time>2025-04-30T14:37:37Z</time>
      </trkpt>
      <trkpt lat="45.67008" lon="4.57273">
        <ele>701.4</ele>
        <time>2025-04-30T14:37:38Z</time>
      </trkpt>
      <trkpt lat="45.67008" lon="4.57273">
        <ele>701.6</ele>
        <time>2025-04-30T14:37:39Z</time>
      </trkpt>
      <trkpt lat="45.67007" lon="4.57273">
        <ele>701.6</ele>
        <time>2025-04-30T14:37:40Z</time>
      </trkpt>
      <trkpt lat="45.67007" lon="4.57273">
        <ele>701.6</ele>
        <time>2025-04-30T14:37:41Z</time>
      </trkpt>
      <trkpt lat="45.67007" lon="4.57273">
        <ele>701.6</ele>
        <time>2025-04-30T14:37:42Z</time>
      </trkpt>
      <trkpt lat="45.67007" lon="4.57273">
        <ele>701.6</ele>
        <time>2025-04-30T14:37:43Z</time>
      </trkpt>
      <trkpt lat="45.67007" lon="4.57273">
        <ele>701.8</ele>
        <time>2025-04-30T14:37:44Z</time>
      </trkpt>
      <trkpt lat="45.67007" lon="4.57273">
        <ele>701.8</ele>
        <time>2025-04-30T14:37:45Z</time>
      </trkpt>
      <trkpt lat="45.67007" lon="4.57273">
        <ele>701.8</ele>
        <time>2025-04-30T14:37:46Z</time>
      </trkpt>
      <trkpt lat="45.67007" lon="4.57273">
        <ele>701.8</ele>
        <time>2025-04-30T14:37:47Z</time>
      </trkpt>
      <trkpt lat="45.67006" lon="4.57274">
        <ele>702</ele>
        <time>2025-04-30T14:37:48Z</time>
      </trkpt>
      <trkpt lat="45.67005" lon="4.57274">
        <ele>702</ele>
        <time>2025-04-30T14:37:49Z</time>
      </trkpt>
      <trkpt lat="45.67004" lon="4.57274">
        <ele>702</ele>
        <time>2025-04-30T14:37:50Z</time>
      </trkpt>
      <trkpt lat="45.67002" lon="4.57274">
        <ele>702</ele>
        <time>2025-04-30T14:37:51Z</time>
      </trkpt>
      <trkpt lat="45.67001" lon="4.57273">
        <ele>702</ele>
        <time>2025-04-30T14:37:52Z</time>
      </trkpt>
      <trkpt lat="45.67" lon="4.57273">
        <ele>702.2</ele>
        <time>2025-04-30T14:37:53Z</time>
      </trkpt>
      <trkpt lat="45.66999" lon="4.57271">
        <ele>702.4</ele>
        <time>2025-04-30T14:37:54Z</time>
      </trkpt>
      <trkpt lat="45.66998" lon="4.57271">
        <ele>702.6</ele>
        <time>2025-04-30T14:37:55Z</time>
      </trkpt>
      <trkpt lat="45.66997" lon="4.5727">
        <ele>702.6</ele>
        <time>2025-04-30T14:37:56Z</time>
      </trkpt>
      <trkpt lat="45.66995" lon="4.57269">
        <ele>702.8</ele>
        <time>2025-04-30T14:37:57Z</time>
      </trkpt>
      <trkpt lat="45.66994" lon="4.57268">
        <ele>703</ele>
        <time>2025-04-30T14:37:58Z</time>
      </trkpt>
      <trkpt lat="45.66993" lon="4.57267">
        <ele>703.4</ele>
        <time>2025-04-30T14:37:59Z</time>
      </trkpt>
      <trkpt lat="45.66992" lon="4.57266">
        <ele>703.6</ele>
        <time>2025-04-30T14:38:00Z</time>
      </trkpt>
      <trkpt lat="45.66991" lon="4.57265">
        <ele>704</ele>
        <time>2025-04-30T14:38:01Z</time>
      </trkpt>
      <trkpt lat="45.6699" lon="4.57264">
        <ele>704.4</ele>
        <time>2025-04-30T14:38:02Z</time>
      </trkpt>
      <trkpt lat="45.66989" lon="4.57263">
        <ele>704.6</ele>
        <time>2025-04-30T14:38:03Z</time>
      </trkpt>
      <trkpt lat="45.66987" lon="4.57263">
        <ele>705</ele>
        <time>2025-04-30T14:38:04Z</time>
      </trkpt>
      <trkpt lat="45.66986" lon="4.57262">
        <ele>705.2</ele>
        <time>2025-04-30T14:38:05Z</time>
      </trkpt>
      <trkpt lat="45.66984" lon="4.57261">
        <ele>705.4</ele>
        <time>2025-04-30T14:38:06Z</time>
      </trkpt>
      <trkpt lat="45.66983" lon="4.57261">
        <ele>705.8</ele>
        <time>2025-04-30T14:38:07Z</time>
      </trkpt>
      <trkpt lat="45.66982" lon="4.5726">
        <ele>706.2</ele>
        <time>2025-04-30T14:38:08Z</time>
      </trkpt>
      <trkpt lat="45.6698" lon="4.57259">
        <ele>706.4</ele>
        <time>2025-04-30T14:38:09Z</time>
      </trkpt>
      <trkpt lat="45.66978" lon="4.57258">
        <ele>706.8</ele>
        <time>2025-04-30T14:38:10Z</time>
      </trkpt>
      <trkpt lat="45.66977" lon="4.57257">
        <ele>707</ele>
        <time>2025-04-30T14:38:11Z</time>
      </trkpt>
      <trkpt lat="45.66976" lon="4.57255">
        <ele>707.4</ele>
        <time>2025-04-30T14:38:12Z</time>
      </trkpt>
      <trkpt lat="45.66975" lon="4.57253">
        <ele>707.6</ele>
        <time>2025-04-30T14:38:13Z</time>
      </trkpt>
      <trkpt lat="45.66975" lon="4.57252">
        <ele>708</ele>
        <time>2025-04-30T14:38:14Z</time>
      </trkpt>
      <trkpt lat="45.66974" lon="4.5725">
        <ele>708.4</ele>
        <time>2025-04-30T14:38:15Z</time>
      </trkpt>
      <trkpt lat="45.66973" lon="4.5725">
        <ele>708.6</ele>
        <time>2025-04-30T14:38:16Z</time>
      </trkpt>
      <trkpt lat="45.66973" lon="4.57249">
        <ele>708.8</ele>
        <time>2025-04-30T14:38:17Z</time>
      </trkpt>
      <trkpt lat="45.66973" lon="4.57249">
        <ele>709</ele>
        <time>2025-04-30T14:38:18Z</time>
      </trkpt>
      <trkpt lat="45.66973" lon="4.57249">
        <ele>709.4</ele>
        <time>2025-04-30T14:38:19Z</time>
      </trkpt>
      <trkpt lat="45.66973" lon="4.57249">
        <ele>709.6</ele>
        <time>2025-04-30T14:38:20Z</time>
      </trkpt>
      <trkpt lat="45.66973" lon="4.57249">
        <ele>709.8</ele>
        <time>2025-04-30T14:38:21Z</time>
      </trkpt>
      <trkpt lat="45.66973" lon="4.57249">
        <ele>709.8</ele>
        <time>2025-04-30T14:38:22Z</time>
      </trkpt>
      <trkpt lat="45.66973" lon="4.57249">
        <ele>709.8</ele>
        <time>2025-04-30T14:38:23Z</time>
      </trkpt>
      <trkpt lat="45.66973" lon="4.57249">
        <ele>709.8</ele>
        <time>2025-04-30T14:38:24Z</time>
      </trkpt>
      <trkpt lat="45.66973" lon="4.57248">
        <ele>709.8</ele>
        <time>2025-04-30T14:38:25Z</time>
      </trkpt>
      <trkpt lat="45.66973" lon="4.57246">
        <ele>709.8</ele>
        <time>2025-04-30T14:38:26Z</time>
      </trkpt>
      <trkpt lat="45.66972" lon="4.57243">
        <ele>709.8</ele>
        <time>2025-04-30T14:38:27Z</time>
      </trkpt>
      <trkpt lat="45.66971" lon="4.57241">
        <ele>709.8</ele>
        <time>2025-04-30T14:38:28Z</time>
      </trkpt>
      <trkpt lat="45.66971" lon="4.57239">
        <ele>710</ele>
        <time>2025-04-30T14:38:29Z</time>
      </trkpt>
      <trkpt lat="45.66971" lon="4.57237">
        <ele>710.2</ele>
        <time>2025-04-30T14:38:30Z</time>
      </trkpt>
      <trkpt lat="45.66971" lon="4.57235">
        <ele>710.2</ele>
        <time>2025-04-30T14:38:31Z</time>
      </trkpt>
      <trkpt lat="45.66972" lon="4.57233">
        <ele>710.6</ele>
        <time>2025-04-30T14:38:32Z</time>
      </trkpt>
      <trkpt lat="45.66972" lon="4.57231">
        <ele>710.6</ele>
        <time>2025-04-30T14:38:33Z</time>
      </trkpt>
      <trkpt lat="45.66972" lon="4.5723">
        <ele>711</ele>
        <time>2025-04-30T14:38:34Z</time>
      </trkpt>
      <trkpt lat="45.66972" lon="4.57229">
        <ele>711.2</ele>
        <time>2025-04-30T14:38:35Z</time>
      </trkpt>
      <trkpt lat="45.66972" lon="4.57229">
        <ele>711.4</ele>
        <time>2025-04-30T14:38:36Z</time>
      </trkpt>
      <trkpt lat="45.66972" lon="4.57229">
        <ele>711.4</ele>
        <time>2025-04-30T14:38:37Z</time>
      </trkpt>
      <trkpt lat="45.66972" lon="4.57229">
        <ele>711.6</ele>
        <time>2025-04-30T14:38:38Z</time>
      </trkpt>
      <trkpt lat="45.66972" lon="4.57229">
        <ele>711.6</ele>
        <time>2025-04-30T14:38:39Z</time>
      </trkpt>
      <trkpt lat="45.66972" lon="4.57229">
        <ele>711.8</ele>
        <time>2025-04-30T14:38:40Z</time>
      </trkpt>
      <trkpt lat="45.66972" lon="4.57229">
        <ele>711.8</ele>
        <time>2025-04-30T14:38:41Z</time>
      </trkpt>
      <trkpt lat="45.66972" lon="4.57229">
        <ele>711.8</ele>
        <time>2025-04-30T14:38:42Z</time>
      </trkpt>
      <trkpt lat="45.66972" lon="4.57229">
        <ele>711.8</ele>
        <time>2025-04-30T14:38:43Z</time>
      </trkpt>
      <trkpt lat="45.66972" lon="4.57229">
        <ele>711.8</ele>
        <time>2025-04-30T14:38:44Z</time>
      </trkpt>
      <trkpt lat="45.66972" lon="4.57229">
        <ele>711.8</ele>
        <time>2025-04-30T14:38:45Z</time>
      </trkpt>
      <trkpt lat="45.66972" lon="4.57229">
        <ele>711.8</ele>
        <time>2025-04-30T14:38:46Z</time>
      </trkpt>
      <trkpt lat="45.66972" lon="4.57229">
        <ele>711.8</ele>
        <time>2025-04-30T14:38:47Z</time>
      </trkpt>
      <trkpt lat="45.66972" lon="4.57229">
        <ele>711.8</ele>
        <time>2025-04-30T14:38:48Z</time>
      </trkpt>
      <trkpt lat="45.66972" lon="4.57229">
        <ele>711.8</ele>
        <time>2025-04-30T14:38:49Z</time>
      </trkpt>
      <trkpt lat="45.66972" lon="4.57228">
        <ele>711.8</ele>
        <time>2025-04-30T14:38:50Z</time>
      </trkpt>
      <trkpt lat="45.66972" lon="4.57226">
        <ele>711.8</ele>
        <time>2025-04-30T14:38:51Z</time>
      </trkpt>
      <trkpt lat="45.66973" lon="4.57223">
        <ele>711.8</ele>
        <time>2025-04-30T14:38:52Z</time>
      </trkpt>
      <trkpt lat="45.66973" lon="4.5722">
        <ele>711.8</ele>
        <time>2025-04-30T14:38:53Z</time>
      </trkpt>
      <trkpt lat="45.66973" lon="4.57217">
        <ele>711.8</ele>
        <time>2025-04-30T14:38:54Z</time>
      </trkpt>
      <trkpt lat="45.66973" lon="4.57214">
        <ele>711.8</ele>
        <time>2025-04-30T14:38:55Z</time>
      </trkpt>
      <trkpt lat="45.66973" lon="4.57212">
        <ele>712</ele>
        <time>2025-04-30T14:38:56Z</time>
      </trkpt>
      <trkpt lat="45.66974" lon="4.57209">
        <ele>712</ele>
        <time>2025-04-30T14:38:57Z</time>
      </trkpt>
      <trkpt lat="45.66974" lon="4.57206">
        <ele>712.2</ele>
        <time>2025-04-30T14:38:58Z</time>
      </trkpt>
      <trkpt lat="45.66974" lon="4.57204">
        <ele>712.2</ele>
        <time>2025-04-30T14:38:59Z</time>
      </trkpt>
      <trkpt lat="45.66974" lon="4.572">
        <ele>712.6</ele>
        <time>2025-04-30T14:39:00Z</time>
      </trkpt>
      <trkpt lat="45.66975" lon="4.57198">
        <ele>712.8</ele>
        <time>2025-04-30T14:39:01Z</time>
      </trkpt>
      <trkpt lat="45.66975" lon="4.57195">
        <ele>713</ele>
        <time>2025-04-30T14:39:02Z</time>
      </trkpt>
      <trkpt lat="45.66975" lon="4.57192">
        <ele>713</ele>
        <time>2025-04-30T14:39:03Z</time>
      </trkpt>
      <trkpt lat="45.66976" lon="4.5719">
        <ele>713.2</ele>
        <time>2025-04-30T14:39:04Z</time>
      </trkpt>
      <trkpt lat="45.66976" lon="4.57187">
        <ele>713.4</ele>
        <time>2025-04-30T14:39:05Z</time>
      </trkpt>
      <trkpt lat="45.66977" lon="4.57184">
        <ele>713.6</ele>
        <time>2025-04-30T14:39:06Z</time>
      </trkpt>
      <trkpt lat="45.66977" lon="4.57181">
        <ele>713.8</ele>
        <time>2025-04-30T14:39:07Z</time>
      </trkpt>
      <trkpt lat="45.66977" lon="4.57179">
        <ele>714</ele>
        <time>2025-04-30T14:39:08Z</time>
      </trkpt>
      <trkpt lat="45.66977" lon="4.57176">
        <ele>714.2</ele>
        <time>2025-04-30T14:39:09Z</time>
      </trkpt>
      <trkpt lat="45.66977" lon="4.57173">
        <ele>714.4</ele>
        <time>2025-04-30T14:39:10Z</time>
      </trkpt>
      <trkpt lat="45.66977" lon="4.57171">
        <ele>714.8</ele>
        <time>2025-04-30T14:39:11Z</time>
      </trkpt>
      <trkpt lat="45.66976" lon="4.57169">
        <ele>715</ele>
        <time>2025-04-30T14:39:12Z</time>
      </trkpt>
      <trkpt lat="45.66974" lon="4.57166">
        <ele>715.2</ele>
        <time>2025-04-30T14:39:13Z</time>
      </trkpt>
      <trkpt lat="45.66973" lon="4.57165">
        <ele>715.6</ele>
        <time>2025-04-30T14:39:14Z</time>
      </trkpt>
      <trkpt lat="45.66971" lon="4.57164">
        <ele>715.8</ele>
        <time>2025-04-30T14:39:15Z</time>
      </trkpt>
      <trkpt lat="45.66968" lon="4.57164">
        <ele>715.8</ele>
        <time>2025-04-30T14:39:16Z</time>
      </trkpt>
      <trkpt lat="45.66966" lon="4.57164">
        <ele>716.2</ele>
        <time>2025-04-30T14:39:17Z</time>
      </trkpt>
      <trkpt lat="45.66964" lon="4.57164">
        <ele>716.2</ele>
        <time>2025-04-30T14:39:18Z</time>
      </trkpt>
      <trkpt lat="45.66962" lon="4.57164">
        <ele>716.6</ele>
        <time>2025-04-30T14:39:19Z</time>
      </trkpt>
      <trkpt lat="45.6696" lon="4.57164">
        <ele>716.6</ele>
        <time>2025-04-30T14:39:20Z</time>
      </trkpt>
      <trkpt lat="45.66958" lon="4.57165">
        <ele>716.8</ele>
        <time>2025-04-30T14:39:21Z</time>
      </trkpt>
      <trkpt lat="45.66956" lon="4.57166">
        <ele>717.2</ele>
        <time>2025-04-30T14:39:22Z</time>
      </trkpt>
      <trkpt lat="45.66954" lon="4.57167">
        <ele>717.4</ele>
        <time>2025-04-30T14:39:23Z</time>
      </trkpt>
      <trkpt lat="45.66953" lon="4.57168">
        <ele>717.6</ele>
        <time>2025-04-30T14:39:24Z</time>
      </trkpt>
      <trkpt lat="45.66951" lon="4.5717">
        <ele>717.8</ele>
        <time>2025-04-30T14:39:25Z</time>
      </trkpt>
      <trkpt lat="45.6695" lon="4.57171">
        <ele>717.8</ele>
        <time>2025-04-30T14:39:26Z</time>
      </trkpt>
      <trkpt lat="45.66948" lon="4.57172">
        <ele>718.2</ele>
        <time>2025-04-30T14:39:27Z</time>
      </trkpt>
      <trkpt lat="45.66947" lon="4.57174">
        <ele>718.4</ele>
        <time>2025-04-30T14:39:28Z</time>
      </trkpt>
      <trkpt lat="45.66945" lon="4.57175">
        <ele>718.4</ele>
        <time>2025-04-30T14:39:29Z</time>
      </trkpt>
      <trkpt lat="45.66944" lon="4.57177">
        <ele>718.8</ele>
        <time>2025-04-30T14:39:30Z</time>
      </trkpt>
      <trkpt lat="45.66943" lon="4.57179">
        <ele>719</ele>
        <time>2025-04-30T14:39:31Z</time>
      </trkpt>
      <trkpt lat="45.66941" lon="4.57181">
        <ele>719.2</ele>
        <time>2025-04-30T14:39:32Z</time>
      </trkpt>
      <trkpt lat="45.6694" lon="4.57184">
        <ele>719.4</ele>
        <time>2025-04-30T14:39:33Z</time>
      </trkpt>
      <trkpt lat="45.66939" lon="4.57186">
        <ele>719.6</ele>
        <time>2025-04-30T14:39:34Z</time>
      </trkpt>
      <trkpt lat="45.66938" lon="4.57188">
        <ele>719.8</ele>
        <time>2025-04-30T14:39:35Z</time>
      </trkpt>
      <trkpt lat="45.66937" lon="4.57191">
        <ele>719.8</ele>
        <time>2025-04-30T14:39:36Z</time>
      </trkpt>
      <trkpt lat="45.66937" lon="4.57194">
        <ele>720</ele>
        <time>2025-04-30T14:39:37Z</time>
      </trkpt>
      <trkpt lat="45.66936" lon="4.57196">
        <ele>720.2</ele>
        <time>2025-04-30T14:39:38Z</time>
      </trkpt>
      <trkpt lat="45.66935" lon="4.572">
        <ele>720.4</ele>
        <time>2025-04-30T14:39:39Z</time>
      </trkpt>
      <trkpt lat="45.66934" lon="4.57203">
        <ele>720.8</ele>
        <time>2025-04-30T14:39:40Z</time>
      </trkpt>
      <trkpt lat="45.66933" lon="4.57206">
        <ele>721</ele>
        <time>2025-04-30T14:39:41Z</time>
      </trkpt>
      <trkpt lat="45.66931" lon="4.57209">
        <ele>721</ele>
        <time>2025-04-30T14:39:42Z</time>
      </trkpt>
      <trkpt lat="45.6693" lon="4.57213">
        <ele>721.4</ele>
        <time>2025-04-30T14:39:43Z</time>
      </trkpt>
      <trkpt lat="45.66929" lon="4.57216">
        <ele>721.4</ele>
        <time>2025-04-30T14:39:44Z</time>
      </trkpt>
      <trkpt lat="45.66928" lon="4.57219">
        <ele>721.4</ele>
        <time>2025-04-30T14:39:45Z</time>
      </trkpt>
      <trkpt lat="45.66927" lon="4.57222">
        <ele>721.6</ele>
        <time>2025-04-30T14:39:46Z</time>
      </trkpt>
      <trkpt lat="45.66926" lon="4.57225">
        <ele>721.8</ele>
        <time>2025-04-30T14:39:47Z</time>
      </trkpt>
      <trkpt lat="45.66925" lon="4.57228">
        <ele>722</ele>
        <time>2025-04-30T14:39:48Z</time>
      </trkpt>
      <trkpt lat="45.66924" lon="4.57231">
        <ele>722.4</ele>
        <time>2025-04-30T14:39:49Z</time>
      </trkpt>
      <trkpt lat="45.66923" lon="4.57233">
        <ele>722.6</ele>
        <time>2025-04-30T14:39:50Z</time>
      </trkpt>
      <trkpt lat="45.66921" lon="4.57237">
        <ele>722.8</ele>
        <time>2025-04-30T14:39:51Z</time>
      </trkpt>
      <trkpt lat="45.6692" lon="4.5724">
        <ele>722.8</ele>
        <time>2025-04-30T14:39:52Z</time>
      </trkpt>
      <trkpt lat="45.66919" lon="4.57242">
        <ele>723</ele>
        <time>2025-04-30T14:39:53Z</time>
      </trkpt>
      <trkpt lat="45.66918" lon="4.57244">
        <ele>723.2</ele>
        <time>2025-04-30T14:39:54Z</time>
      </trkpt>
      <trkpt lat="45.66917" lon="4.57245">
        <ele>723.2</ele>
        <time>2025-04-30T14:39:55Z</time>
      </trkpt>
      <trkpt lat="45.66917" lon="4.57247">
        <ele>723.4</ele>
        <time>2025-04-30T14:39:56Z</time>
      </trkpt>
      <trkpt lat="45.66916" lon="4.5725">
        <ele>723.6</ele>
        <time>2025-04-30T14:39:57Z</time>
      </trkpt>
      <trkpt lat="45.66916" lon="4.57251">
        <ele>723.6</ele>
        <time>2025-04-30T14:39:58Z</time>
      </trkpt>
      <trkpt lat="45.66915" lon="4.57253">
        <ele>723.6</ele>
        <time>2025-04-30T14:39:59Z</time>
      </trkpt>
      <trkpt lat="45.66913" lon="4.57254">
        <ele>723.8</ele>
        <time>2025-04-30T14:40:00Z</time>
      </trkpt>
      <trkpt lat="45.66913" lon="4.57256">
        <ele>723.8</ele>
        <time>2025-04-30T14:40:01Z</time>
      </trkpt>
      <trkpt lat="45.66912" lon="4.57259">
        <ele>723.6</ele>
        <time>2025-04-30T14:40:02Z</time>
      </trkpt>
      <trkpt lat="45.66911" lon="4.57262">
        <ele>723.6</ele>
        <time>2025-04-30T14:40:03Z</time>
      </trkpt>
      <trkpt lat="45.66911" lon="4.57265">
        <ele>723.8</ele>
        <time>2025-04-30T14:40:04Z</time>
      </trkpt>
      <trkpt lat="45.6691" lon="4.57268">
        <ele>723.8</ele>
        <time>2025-04-30T14:40:05Z</time>
      </trkpt>
      <trkpt lat="45.6691" lon="4.57271">
        <ele>723.8</ele>
        <time>2025-04-30T14:40:06Z</time>
      </trkpt>
      <trkpt lat="45.66909" lon="4.57274">
        <ele>723.8</ele>
        <time>2025-04-30T14:40:07Z</time>
      </trkpt>
      <trkpt lat="45.66909" lon="4.57277">
        <ele>724</ele>
        <time>2025-04-30T14:40:08Z</time>
      </trkpt>
      <trkpt lat="45.66908" lon="4.57281">
        <ele>724</ele>
        <time>2025-04-30T14:40:09Z</time>
      </trkpt>
      <trkpt lat="45.66907" lon="4.57284">
        <ele>724.2</ele>
        <time>2025-04-30T14:40:10Z</time>
      </trkpt>
      <trkpt lat="45.66906" lon="4.57288">
        <ele>724.2</ele>
        <time>2025-04-30T14:40:11Z</time>
      </trkpt>
      <trkpt lat="45.66905" lon="4.57292">
        <ele>724.2</ele>
        <time>2025-04-30T14:40:12Z</time>
      </trkpt>
      <trkpt lat="45.66904" lon="4.57296">
        <ele>724.2</ele>
        <time>2025-04-30T14:40:13Z</time>
      </trkpt>
      <trkpt lat="45.66904" lon="4.57298">
        <ele>724.2</ele>
        <time>2025-04-30T14:40:14Z</time>
      </trkpt>
      <trkpt lat="45.66904" lon="4.57303">
        <ele>724.4</ele>
        <time>2025-04-30T14:40:15Z</time>
      </trkpt>
      <trkpt lat="45.66903" lon="4.57306">
        <ele>724.4</ele>
        <time>2025-04-30T14:40:16Z</time>
      </trkpt>
      <trkpt lat="45.66903" lon="4.57308">
        <ele>724.4</ele>
        <time>2025-04-30T14:40:17Z</time>
      </trkpt>
      <trkpt lat="45.66902" lon="4.5731">
        <ele>724.4</ele>
        <time>2025-04-30T14:40:18Z</time>
      </trkpt>
      <trkpt lat="45.66901" lon="4.57309">
        <ele>724.4</ele>
        <time>2025-04-30T14:40:19Z</time>
      </trkpt>
      <trkpt lat="45.669" lon="4.57309">
        <ele>724.4</ele>
        <time>2025-04-30T14:40:20Z</time>
      </trkpt>
      <trkpt lat="45.66898" lon="4.57308">
        <ele>724.4</ele>
        <time>2025-04-30T14:40:21Z</time>
      </trkpt>
      <trkpt lat="45.66897" lon="4.57308">
        <ele>724.4</ele>
        <time>2025-04-30T14:40:22Z</time>
      </trkpt>
      <trkpt lat="45.66895" lon="4.57308">
        <ele>724.4</ele>
        <time>2025-04-30T14:40:23Z</time>
      </trkpt>
      <trkpt lat="45.66892" lon="4.57308">
        <ele>724.4</ele>
        <time>2025-04-30T14:40:24Z</time>
      </trkpt>
      <trkpt lat="45.6689" lon="4.57309">
        <ele>724.4</ele>
        <time>2025-04-30T14:40:25Z</time>
      </trkpt>
      <trkpt lat="45.66889" lon="4.5731">
        <ele>724.6</ele>
        <time>2025-04-30T14:40:26Z</time>
      </trkpt>
      <trkpt lat="45.66887" lon="4.5731">
        <ele>724.6</ele>
        <time>2025-04-30T14:40:27Z</time>
      </trkpt>
      <trkpt lat="45.66885" lon="4.57309">
        <ele>724.8</ele>
        <time>2025-04-30T14:40:28Z</time>
      </trkpt>
      <trkpt lat="45.66885" lon="4.57307">
        <ele>725</ele>
        <time>2025-04-30T14:40:29Z</time>
      </trkpt>
      <trkpt lat="45.66886" lon="4.57307">
        <ele>725</ele>
        <time>2025-04-30T14:40:30Z</time>
      </trkpt>
      <trkpt lat="45.66887" lon="4.57308">
        <ele>725</ele>
        <time>2025-04-30T14:40:31Z</time>
      </trkpt>
      <trkpt lat="45.66889" lon="4.57309">
        <ele>725</ele>
        <time>2025-04-30T14:40:32Z</time>
      </trkpt>
      <trkpt lat="45.6689" lon="4.5731">
        <ele>725</ele>
        <time>2025-04-30T14:40:33Z</time>
      </trkpt>
      <trkpt lat="45.66893" lon="4.57311">
        <ele>725</ele>
        <time>2025-04-30T14:40:34Z</time>
      </trkpt>
      <trkpt lat="45.66894" lon="4.57311">
        <ele>725</ele>
        <time>2025-04-30T14:40:35Z</time>
      </trkpt>
      <trkpt lat="45.66894" lon="4.5731">
        <ele>725</ele>
        <time>2025-04-30T14:40:36Z</time>
      </trkpt>
      <trkpt lat="45.66894" lon="4.5731">
        <ele>724.8</ele>
        <time>2025-04-30T14:40:37Z</time>
      </trkpt>
      <trkpt lat="45.66894" lon="4.5731">
        <ele>724.8</ele>
        <time>2025-04-30T14:40:38Z</time>
      </trkpt>
      <trkpt lat="45.66894" lon="4.5731">
        <ele>724.8</ele>
        <time>2025-04-30T14:40:39Z</time>
      </trkpt>
      <trkpt lat="45.66894" lon="4.5731">
        <ele>724.8</ele>
        <time>2025-04-30T14:40:40Z</time>
      </trkpt>
      <trkpt lat="45.66894" lon="4.5731">
        <ele>724.8</ele>
        <time>2025-04-30T14:40:41Z</time>
      </trkpt>
      <trkpt lat="45.66894" lon="4.5731">
        <ele>724.8</ele>
        <time>2025-04-30T14:40:42Z</time>
      </trkpt>
      <trkpt lat="45.66894" lon="4.5731">
        <ele>724.8</ele>
        <time>2025-04-30T14:40:43Z</time>
      </trkpt>
      <trkpt lat="45.66894" lon="4.5731">
        <ele>724.8</ele>
        <time>2025-04-30T14:40:44Z</time>
      </trkpt>
      <trkpt lat="45.66894" lon="4.5731">
        <ele>724.8</ele>
        <time>2025-04-30T14:40:45Z</time>
      </trkpt>
      <trkpt lat="45.66894" lon="4.5731">
        <ele>724.8</ele>
        <time>2025-04-30T14:40:46Z</time>
      </trkpt>
      <trkpt lat="45.66894" lon="4.5731">
        <ele>724.8</ele>
        <time>2025-04-30T14:40:47Z</time>
      </trkpt>
      <trkpt lat="45.66894" lon="4.5731">
        <ele>724.6</ele>
        <time>2025-04-30T14:40:48Z</time>
      </trkpt>
      <trkpt lat="45.66894" lon="4.5731">
        <ele>724.6</ele>
        <time>2025-04-30T14:40:49Z</time>
      </trkpt>
      <trkpt lat="45.66894" lon="4.5731">
        <ele>724.6</ele>
        <time>2025-04-30T14:40:50Z</time>
      </trkpt>
      <trkpt lat="45.66894" lon="4.5731">
        <ele>724.6</ele>
        <time>2025-04-30T14:40:51Z</time>
      </trkpt>
      <trkpt lat="45.66894" lon="4.5731">
        <ele>724.6</ele>
        <time>2025-04-30T14:40:52Z</time>
      </trkpt>
      <trkpt lat="45.66894" lon="4.5731">
        <ele>724.6</ele>
        <time>2025-04-30T14:40:53Z</time>
      </trkpt>
      <trkpt lat="45.66894" lon="4.5731">
        <ele>724.6</ele>
        <time>2025-04-30T14:40:54Z</time>
      </trkpt>
      <trkpt lat="45.66894" lon="4.5731">
        <ele>724.6</ele>
        <time>2025-04-30T14:40:55Z</time>
      </trkpt>
      <trkpt lat="45.66894" lon="4.5731">
        <ele>724.6</ele>
        <time>2025-04-30T14:40:56Z</time>
      </trkpt>
      <trkpt lat="45.66894" lon="4.5731">
        <ele>724.6</ele>
        <time>2025-04-30T14:40:57Z</time>
      </trkpt>
      <trkpt lat="45.66894" lon="4.5731">
        <ele>724.6</ele>
        <time>2025-04-30T14:40:58Z</time>
      </trkpt>
      <trkpt lat="45.66894" lon="4.5731">
        <ele>724.6</ele>
        <time>2025-04-30T14:40:59Z</time>
      </trkpt>
      <trkpt lat="45.66894" lon="4.5731">
        <ele>724.6</ele>
        <time>2025-04-30T14:41:00Z</time>
      </trkpt>
      <trkpt lat="45.66894" lon="4.5731">
        <ele>724.4</ele>
        <time>2025-04-30T14:41:01Z</time>
      </trkpt>
      <trkpt lat="45.66894" lon="4.5731">
        <ele>724.4</ele>
        <time>2025-04-30T14:41:02Z</time>
      </trkpt>
      <trkpt lat="45.66894" lon="4.5731">
        <ele>724.4</ele>
        <time>2025-04-30T14:41:03Z</time>
      </trkpt>
      <trkpt lat="45.66894" lon="4.5731">
        <ele>724.4</ele>
        <time>2025-04-30T14:41:04Z</time>
      </trkpt>
      <trkpt lat="45.66894" lon="4.5731">
        <ele>724.4</ele>
        <time>2025-04-30T14:41:05Z</time>
      </trkpt>
      <trkpt lat="45.66894" lon="4.5731">
        <ele>724.4</ele>
        <time>2025-04-30T14:41:06Z</time>
      </trkpt>
      <trkpt lat="45.66894" lon="4.5731">
        <ele>724.4</ele>
        <time>2025-04-30T14:41:07Z</time>
      </trkpt>
      <trkpt lat="45.66894" lon="4.5731">
        <ele>724.4</ele>
        <time>2025-04-30T14:41:08Z</time>
      </trkpt>
      <trkpt lat="45.66894" lon="4.5731">
        <ele>724.4</ele>
        <time>2025-04-30T14:41:09Z</time>
      </trkpt>
      <trkpt lat="45.66894" lon="4.5731">
        <ele>724.4</ele>
        <time>2025-04-30T14:41:10Z</time>
      </trkpt>
      <trkpt lat="45.66894" lon="4.5731">
        <ele>724.4</ele>
        <time>2025-04-30T14:41:11Z</time>
      </trkpt>
      <trkpt lat="45.66894" lon="4.5731">
        <ele>724.2</ele>
        <time>2025-04-30T14:41:12Z</time>
      </trkpt>
      <trkpt lat="45.66894" lon="4.5731">
        <ele>724.2</ele>
        <time>2025-04-30T14:41:13Z</time>
      </trkpt>
      <trkpt lat="45.66894" lon="4.5731">
        <ele>724.2</ele>
        <time>2025-04-30T14:41:14Z</time>
      </trkpt>
      <trkpt lat="45.66894" lon="4.5731">
        <ele>724.2</ele>
        <time>2025-04-30T14:41:15Z</time>
      </trkpt>
      <trkpt lat="45.66894" lon="4.5731">
        <ele>724.4</ele>
        <time>2025-04-30T14:41:16Z</time>
      </trkpt>
      <trkpt lat="45.66894" lon="4.5731">
        <ele>724.4</ele>
        <time>2025-04-30T14:41:17Z</time>
      </trkpt>
      <trkpt lat="45.66894" lon="4.5731">
        <ele>724.4</ele>
        <time>2025-04-30T14:41:18Z</time>
      </trkpt>
      <trkpt lat="45.66894" lon="4.5731">
        <ele>724.2</ele>
        <time>2025-04-30T14:41:19Z</time>
      </trkpt>
      <trkpt lat="45.66894" lon="4.5731">
        <ele>724.2</ele>
        <time>2025-04-30T14:41:20Z</time>
      </trkpt>
      <trkpt lat="45.66894" lon="4.5731">
        <ele>724.2</ele>
        <time>2025-04-30T14:41:21Z</time>
      </trkpt>
      <trkpt lat="45.66894" lon="4.5731">
        <ele>724.2</ele>
        <time>2025-04-30T14:41:22Z</time>
      </trkpt>
      <trkpt lat="45.66894" lon="4.5731">
        <ele>724.2</ele>
        <time>2025-04-30T14:41:23Z</time>
      </trkpt>
      <trkpt lat="45.66894" lon="4.5731">
        <ele>724.2</ele>
        <time>2025-04-30T14:41:24Z</time>
      </trkpt>
      <trkpt lat="45.66894" lon="4.5731">
        <ele>724.2</ele>
        <time>2025-04-30T14:41:25Z</time>
      </trkpt>
      <trkpt lat="45.66894" lon="4.5731">
        <ele>724.2</ele>
        <time>2025-04-30T14:41:26Z</time>
      </trkpt>
      <trkpt lat="45.66894" lon="4.5731">
        <ele>724</ele>
        <time>2025-04-30T14:41:27Z</time>
      </trkpt>
      <trkpt lat="45.66894" lon="4.5731">
        <ele>724</ele>
        <time>2025-04-30T14:41:28Z</time>
      </trkpt>
      <trkpt lat="45.66894" lon="4.5731">
        <ele>724</ele>
        <time>2025-04-30T14:41:29Z</time>
      </trkpt>
      <trkpt lat="45.66894" lon="4.5731">
        <ele>724</ele>
        <time>2025-04-30T14:41:30Z</time>
      </trkpt>
      <trkpt lat="45.66894" lon="4.5731">
        <ele>724</ele>
        <time>2025-04-30T14:41:31Z</time>
      </trkpt>
      <trkpt lat="45.66894" lon="4.5731">
        <ele>724</ele>
        <time>2025-04-30T14:41:32Z</time>
      </trkpt>
      <trkpt lat="45.66894" lon="4.5731">
        <ele>724</ele>
        <time>2025-04-30T14:41:33Z</time>
      </trkpt>
      <trkpt lat="45.66894" lon="4.5731">
        <ele>724</ele>
        <time>2025-04-30T14:41:34Z</time>
      </trkpt>
      <trkpt lat="45.66894" lon="4.5731">
        <ele>724</ele>
        <time>2025-04-30T14:41:35Z</time>
      </trkpt>
      <trkpt lat="45.66894" lon="4.5731">
        <ele>724</ele>
        <time>2025-04-30T14:41:36Z</time>
      </trkpt>
      <trkpt lat="45.66894" lon="4.5731">
        <ele>724</ele>
        <time>2025-04-30T14:41:37Z</time>
      </trkpt>
      <trkpt lat="45.66894" lon="4.5731">
        <ele>724</ele>
        <time>2025-04-30T14:41:38Z</time>
      </trkpt>
      <trkpt lat="45.66894" lon="4.5731">
        <ele>724</ele>
        <time>2025-04-30T14:41:39Z</time>
      </trkpt>
      <trkpt lat="45.66894" lon="4.5731">
        <ele>724</ele>
        <time>2025-04-30T14:41:40Z</time>
      </trkpt>
      <trkpt lat="45.66894" lon="4.5731">
        <ele>724</ele>
        <time>2025-04-30T14:41:41Z</time>
      </trkpt>
      <trkpt lat="45.66894" lon="4.5731">
        <ele>724</ele>
        <time>2025-04-30T14:41:42Z</time>
      </trkpt>
      <trkpt lat="45.66894" lon="4.5731">
        <ele>724</ele>
        <time>2025-04-30T14:41:43Z</time>
      </trkpt>
      <trkpt lat="45.66894" lon="4.5731">
        <ele>723.8</ele>
        <time>2025-04-30T14:41:44Z</time>
      </trkpt>
      <trkpt lat="45.66894" lon="4.5731">
        <ele>723.8</ele>
        <time>2025-04-30T14:41:45Z</time>
      </trkpt>
      <trkpt lat="45.66894" lon="4.5731">
        <ele>723.8</ele>
        <time>2025-04-30T14:41:46Z</time>
      </trkpt>
      <trkpt lat="45.66894" lon="4.5731">
        <ele>723.8</ele>
        <time>2025-04-30T14:41:47Z</time>
      </trkpt>
      <trkpt lat="45.66894" lon="4.5731">
        <ele>723.8</ele>
        <time>2025-04-30T14:41:48Z</time>
      </trkpt>
      <trkpt lat="45.66894" lon="4.5731">
        <ele>723.8</ele>
        <time>2025-04-30T14:41:49Z</time>
      </trkpt>
      <trkpt lat="45.66894" lon="4.5731">
        <ele>723.8</ele>
        <time>2025-04-30T14:41:50Z</time>
      </trkpt>
      <trkpt lat="45.66894" lon="4.5731">
        <ele>723.8</ele>
        <time>2025-04-30T14:41:51Z</time>
      </trkpt>
      <trkpt lat="45.66894" lon="4.5731">
        <ele>723.8</ele>
        <time>2025-04-30T14:41:52Z</time>
      </trkpt>
      <trkpt lat="45.66894" lon="4.5731">
        <ele>723.8</ele>
        <time>2025-04-30T14:41:53Z</time>
      </trkpt>
      <trkpt lat="45.66894" lon="4.5731">
        <ele>723.8</ele>
        <time>2025-04-30T14:41:54Z</time>
      </trkpt>
      <trkpt lat="45.66894" lon="4.5731">
        <ele>723.8</ele>
        <time>2025-04-30T14:41:55Z</time>
      </trkpt>
      <trkpt lat="45.66894" lon="4.5731">
        <ele>723.8</ele>
        <time>2025-04-30T14:41:56Z</time>
      </trkpt>
      <trkpt lat="45.66894" lon="4.5731">
        <ele>723.8</ele>
        <time>2025-04-30T14:41:57Z</time>
      </trkpt>
      <trkpt lat="45.66894" lon="4.5731">
        <ele>723.8</ele>
        <time>2025-04-30T14:41:58Z</time>
      </trkpt>
      <trkpt lat="45.66894" lon="4.5731">
        <ele>723.8</ele>
        <time>2025-04-30T14:41:59Z</time>
      </trkpt>
      <trkpt lat="45.66894" lon="4.5731">
        <ele>723.8</ele>
        <time>2025-04-30T14:42:00Z</time>
      </trkpt>
      <trkpt lat="45.66894" lon="4.5731">
        <ele>723.8</ele>
        <time>2025-04-30T14:42:01Z</time>
      </trkpt>
      <trkpt lat="45.66894" lon="4.5731">
        <ele>723.8</ele>
        <time>2025-04-30T14:42:02Z</time>
      </trkpt>
      <trkpt lat="45.66894" lon="4.5731">
        <ele>723.8</ele>
        <time>2025-04-30T14:42:03Z</time>
      </trkpt>
      <trkpt lat="45.66894" lon="4.5731">
        <ele>723.8</ele>
        <time>2025-04-30T14:42:04Z</time>
      </trkpt>
      <trkpt lat="45.66894" lon="4.5731">
        <ele>723.8</ele>
        <time>2025-04-30T14:42:05Z</time>
      </trkpt>
      <trkpt lat="45.66894" lon="4.5731">
        <ele>723.8</ele>
        <time>2025-04-30T14:42:06Z</time>
      </trkpt>
      <trkpt lat="45.66894" lon="4.5731">
        <ele>723.8</ele>
        <time>2025-04-30T14:42:07Z</time>
      </trkpt>
      <trkpt lat="45.66894" lon="4.5731">
        <ele>723.8</ele>
        <time>2025-04-30T14:42:08Z</time>
      </trkpt>
      <trkpt lat="45.66894" lon="4.5731">
        <ele>723.8</ele>
        <time>2025-04-30T14:42:09Z</time>
      </trkpt>
      <trkpt lat="45.66894" lon="4.5731">
        <ele>723.8</ele>
        <time>2025-04-30T14:42:10Z</time>
      </trkpt>
      <trkpt lat="45.66894" lon="4.5731">
        <ele>723.8</ele>
        <time>2025-04-30T14:42:11Z</time>
      </trkpt>
      <trkpt lat="45.66894" lon="4.5731">
        <ele>723.6</ele>
        <time>2025-04-30T14:42:12Z</time>
      </trkpt>
      <trkpt lat="45.66894" lon="4.5731">
        <ele>723.6</ele>
        <time>2025-04-30T14:42:13Z</time>
      </trkpt>
      <trkpt lat="45.66894" lon="4.5731">
        <ele>723.6</ele>
        <time>2025-04-30T14:42:14Z</time>
      </trkpt>
      <trkpt lat="45.66894" lon="4.5731">
        <ele>723.6</ele>
        <time>2025-04-30T14:42:15Z</time>
      </trkpt>
      <trkpt lat="45.66894" lon="4.5731">
        <ele>723.6</ele>
        <time>2025-04-30T14:42:16Z</time>
      </trkpt>
      <trkpt lat="45.66894" lon="4.5731">
        <ele>723.6</ele>
        <time>2025-04-30T14:42:17Z</time>
      </trkpt>
      <trkpt lat="45.66894" lon="4.5731">
        <ele>723.6</ele>
        <time>2025-04-30T14:42:18Z</time>
      </trkpt>
      <trkpt lat="45.66894" lon="4.5731">
        <ele>723.6</ele>
        <time>2025-04-30T14:42:19Z</time>
      </trkpt>
      <trkpt lat="45.66894" lon="4.5731">
        <ele>723.6</ele>
        <time>2025-04-30T14:42:20Z</time>
      </trkpt>
      <trkpt lat="45.66894" lon="4.5731">
        <ele>723.6</ele>
        <time>2025-04-30T14:42:21Z</time>
      </trkpt>
      <trkpt lat="45.66894" lon="4.5731">
        <ele>723.6</ele>
        <time>2025-04-30T14:42:22Z</time>
      </trkpt>
      <trkpt lat="45.66894" lon="4.5731">
        <ele>723.6</ele>
        <time>2025-04-30T14:42:23Z</time>
      </trkpt>
      <trkpt lat="45.66894" lon="4.5731">
        <ele>723.6</ele>
        <time>2025-04-30T14:42:24Z</time>
      </trkpt>
      <trkpt lat="45.66894" lon="4.5731">
        <ele>723.6</ele>
        <time>2025-04-30T14:42:25Z</time>
      </trkpt>
      <trkpt lat="45.66894" lon="4.5731">
        <ele>723.6</ele>
        <time>2025-04-30T14:42:26Z</time>
      </trkpt>
      <trkpt lat="45.66894" lon="4.5731">
        <ele>723.6</ele>
        <time>2025-04-30T14:42:27Z</time>
      </trkpt>
      <trkpt lat="45.66894" lon="4.5731">
        <ele>723.6</ele>
        <time>2025-04-30T14:42:28Z</time>
      </trkpt>
      <trkpt lat="45.66894" lon="4.5731">
        <ele>723.6</ele>
        <time>2025-04-30T14:42:29Z</time>
      </trkpt>
      <trkpt lat="45.66894" lon="4.5731">
        <ele>723.6</ele>
        <time>2025-04-30T14:42:30Z</time>
      </trkpt>
      <trkpt lat="45.66894" lon="4.5731">
        <ele>723.6</ele>
        <time>2025-04-30T14:42:31Z</time>
      </trkpt>
      <trkpt lat="45.66894" lon="4.5731">
        <ele>723.4</ele>
        <time>2025-04-30T14:42:32Z</time>
      </trkpt>
      <trkpt lat="45.66894" lon="4.5731">
        <ele>723.4</ele>
        <time>2025-04-30T14:42:33Z</time>
      </trkpt>
      <trkpt lat="45.66894" lon="4.5731">
        <ele>723.4</ele>
        <time>2025-04-30T14:42:34Z</time>
      </trkpt>
      <trkpt lat="45.66894" lon="4.5731">
        <ele>723.4</ele>
        <time>2025-04-30T14:42:35Z</time>
      </trkpt>
      <trkpt lat="45.66894" lon="4.5731">
        <ele>723.4</ele>
        <time>2025-04-30T14:42:36Z</time>
      </trkpt>
      <trkpt lat="45.66894" lon="4.5731">
        <ele>723.4</ele>
        <time>2025-04-30T14:42:37Z</time>
      </trkpt>
      <trkpt lat="45.66894" lon="4.5731">
        <ele>723.6</ele>
        <time>2025-04-30T14:42:38Z</time>
      </trkpt>
      <trkpt lat="45.66894" lon="4.5731">
        <ele>723.6</ele>
        <time>2025-04-30T14:42:39Z</time>
      </trkpt>
      <trkpt lat="45.66894" lon="4.5731">
        <ele>723.6</ele>
        <time>2025-04-30T14:42:40Z</time>
      </trkpt>
      <trkpt lat="45.66894" lon="4.5731">
        <ele>723.6</ele>
        <time>2025-04-30T14:42:41Z</time>
      </trkpt>
      <trkpt lat="45.66894" lon="4.5731">
        <ele>723.6</ele>
        <time>2025-04-30T14:42:42Z</time>
      </trkpt>
      <trkpt lat="45.66894" lon="4.5731">
        <ele>723.6</ele>
        <time>2025-04-30T14:42:43Z</time>
      </trkpt>
      <trkpt lat="45.66894" lon="4.5731">
        <ele>723.6</ele>
        <time>2025-04-30T14:42:44Z</time>
      </trkpt>
      <trkpt lat="45.66894" lon="4.5731">
        <ele>723.6</ele>
        <time>2025-04-30T14:42:45Z</time>
      </trkpt>
      <trkpt lat="45.66894" lon="4.5731">
        <ele>723.6</ele>
        <time>2025-04-30T14:42:46Z</time>
      </trkpt>
      <trkpt lat="45.66894" lon="4.5731">
        <ele>723.6</ele>
        <time>2025-04-30T14:42:47Z</time>
      </trkpt>
      <trkpt lat="45.66894" lon="4.5731">
        <ele>723.6</ele>
        <time>2025-04-30T14:42:48Z</time>
      </trkpt>
      <trkpt lat="45.66894" lon="4.5731">
        <ele>723.6</ele>
        <time>2025-04-30T14:42:49Z</time>
      </trkpt>
      <trkpt lat="45.66894" lon="4.5731">
        <ele>723.6</ele>
        <time>2025-04-30T14:42:50Z</time>
      </trkpt>
      <trkpt lat="45.66894" lon="4.5731">
        <ele>723.6</ele>
        <time>2025-04-30T14:42:51Z</time>
      </trkpt>
      <trkpt lat="45.66894" lon="4.5731">
        <ele>723.6</ele>
        <time>2025-04-30T14:42:52Z</time>
      </trkpt>
      <trkpt lat="45.66894" lon="4.5731">
        <ele>723.6</ele>
        <time>2025-04-30T14:42:53Z</time>
      </trkpt>
      <trkpt lat="45.66894" lon="4.5731">
        <ele>723.6</ele>
        <time>2025-04-30T14:42:54Z</time>
      </trkpt>
      <trkpt lat="45.66894" lon="4.5731">
        <ele>723.6</ele>
        <time>2025-04-30T14:42:55Z</time>
      </trkpt>
      <trkpt lat="45.66894" lon="4.5731">
        <ele>723.6</ele>
        <time>2025-04-30T14:42:56Z</time>
      </trkpt>
      <trkpt lat="45.66894" lon="4.5731">
        <ele>723.6</ele>
        <time>2025-04-30T14:42:57Z</time>
      </trkpt>
      <trkpt lat="45.66894" lon="4.5731">
        <ele>723.6</ele>
        <time>2025-04-30T14:42:58Z</time>
      </trkpt>
      <trkpt lat="45.66894" lon="4.5731">
        <ele>723.6</ele>
        <time>2025-04-30T14:42:59Z</time>
      </trkpt>
      <trkpt lat="45.66894" lon="4.5731">
        <ele>723.6</ele>
        <time>2025-04-30T14:43:00Z</time>
      </trkpt>
      <trkpt lat="45.66894" lon="4.5731">
        <ele>723.6</ele>
        <time>2025-04-30T14:43:01Z</time>
      </trkpt>
      <trkpt lat="45.66894" lon="4.5731">
        <ele>723.6</ele>
        <time>2025-04-30T14:43:02Z</time>
      </trkpt>
      <trkpt lat="45.66894" lon="4.5731">
        <ele>723.6</ele>
        <time>2025-04-30T14:43:03Z</time>
      </trkpt>
      <trkpt lat="45.66894" lon="4.5731">
        <ele>723.6</ele>
        <time>2025-04-30T14:43:04Z</time>
      </trkpt>
      <trkpt lat="45.66894" lon="4.5731">
        <ele>723.6</ele>
        <time>2025-04-30T14:43:05Z</time>
      </trkpt>
      <trkpt lat="45.66894" lon="4.5731">
        <ele>723.6</ele>
        <time>2025-04-30T14:43:06Z</time>
      </trkpt>
      <trkpt lat="45.66894" lon="4.5731">
        <ele>723.6</ele>
        <time>2025-04-30T14:43:07Z</time>
      </trkpt>
      <trkpt lat="45.66894" lon="4.5731">
        <ele>723.6</ele>
        <time>2025-04-30T14:43:08Z</time>
      </trkpt>
      <trkpt lat="45.66894" lon="4.5731">
        <ele>723.6</ele>
        <time>2025-04-30T14:43:09Z</time>
      </trkpt>
      <trkpt lat="45.66894" lon="4.5731">
        <ele>723.6</ele>
        <time>2025-04-30T14:43:10Z</time>
      </trkpt>
      <trkpt lat="45.66894" lon="4.5731">
        <ele>723.6</ele>
        <time>2025-04-30T14:43:11Z</time>
      </trkpt>
      <trkpt lat="45.66894" lon="4.5731">
        <ele>723.6</ele>
        <time>2025-04-30T14:43:12Z</time>
      </trkpt>
      <trkpt lat="45.66894" lon="4.5731">
        <ele>723.6</ele>
        <time>2025-04-30T14:43:13Z</time>
      </trkpt>
      <trkpt lat="45.66894" lon="4.5731">
        <ele>723.6</ele>
        <time>2025-04-30T14:43:14Z</time>
      </trkpt>
      <trkpt lat="45.66894" lon="4.5731">
        <ele>723.6</ele>
        <time>2025-04-30T14:43:15Z</time>
      </trkpt>
      <trkpt lat="45.66894" lon="4.5731">
        <ele>723.6</ele>
        <time>2025-04-30T14:43:16Z</time>
      </trkpt>
      <trkpt lat="45.66894" lon="4.5731">
        <ele>723.6</ele>
        <time>2025-04-30T14:43:17Z</time>
      </trkpt>
      <trkpt lat="45.66894" lon="4.5731">
        <ele>723.6</ele>
        <time>2025-04-30T14:43:18Z</time>
      </trkpt>
      <trkpt lat="45.66894" lon="4.5731">
        <ele>723.6</ele>
        <time>2025-04-30T14:43:19Z</time>
      </trkpt>
      <trkpt lat="45.66894" lon="4.5731">
        <ele>723.6</ele>
        <time>2025-04-30T14:43:20Z</time>
      </trkpt>
      <trkpt lat="45.66894" lon="4.5731">
        <ele>723.6</ele>
        <time>2025-04-30T14:43:21Z</time>
      </trkpt>
      <trkpt lat="45.66894" lon="4.5731">
        <ele>723.6</ele>
        <time>2025-04-30T14:43:22Z</time>
      </trkpt>
      <trkpt lat="45.66894" lon="4.5731">
        <ele>723.6</ele>
        <time>2025-04-30T14:43:23Z</time>
      </trkpt>
      <trkpt lat="45.66894" lon="4.5731">
        <ele>723.6</ele>
        <time>2025-04-30T14:43:24Z</time>
      </trkpt>
      <trkpt lat="45.66894" lon="4.5731">
        <ele>723.6</ele>
        <time>2025-04-30T14:43:25Z</time>
      </trkpt>
      <trkpt lat="45.66894" lon="4.5731">
        <ele>723.6</ele>
        <time>2025-04-30T14:43:26Z</time>
      </trkpt>
      <trkpt lat="45.66894" lon="4.5731">
        <ele>723.6</ele>
        <time>2025-04-30T14:43:27Z</time>
      </trkpt>
      <trkpt lat="45.66894" lon="4.5731">
        <ele>723.6</ele>
        <time>2025-04-30T14:43:28Z</time>
      </trkpt>
      <trkpt lat="45.66894" lon="4.5731">
        <ele>723.6</ele>
        <time>2025-04-30T14:43:29Z</time>
      </trkpt>
      <trkpt lat="45.66894" lon="4.5731">
        <ele>723.6</ele>
        <time>2025-04-30T14:43:30Z</time>
      </trkpt>
      <trkpt lat="45.66894" lon="4.5731">
        <ele>723.6</ele>
        <time>2025-04-30T14:43:31Z</time>
      </trkpt>
      <trkpt lat="45.66894" lon="4.5731">
        <ele>723.6</ele>
        <time>2025-04-30T14:43:32Z</time>
      </trkpt>
      <trkpt lat="45.66894" lon="4.5731">
        <ele>723.6</ele>
        <time>2025-04-30T14:43:33Z</time>
      </trkpt>
      <trkpt lat="45.66894" lon="4.5731">
        <ele>723.6</ele>
        <time>2025-04-30T14:43:34Z</time>
      </trkpt>
      <trkpt lat="45.66894" lon="4.5731">
        <ele>723.6</ele>
        <time>2025-04-30T14:43:35Z</time>
      </trkpt>
      <trkpt lat="45.66894" lon="4.5731">
        <ele>723.6</ele>
        <time>2025-04-30T14:43:36Z</time>
      </trkpt>
      <trkpt lat="45.66894" lon="4.5731">
        <ele>723.6</ele>
        <time>2025-04-30T14:43:37Z</time>
      </trkpt>
      <trkpt lat="45.66894" lon="4.5731">
        <ele>723.6</ele>
        <time>2025-04-30T14:43:38Z</time>
      </trkpt>
      <trkpt lat="45.66894" lon="4.5731">
        <ele>723.6</ele>
        <time>2025-04-30T14:43:39Z</time>
      </trkpt>
      <trkpt lat="45.66894" lon="4.5731">
        <ele>723.6</ele>
        <time>2025-04-30T14:43:40Z</time>
      </trkpt>
      <trkpt lat="45.66894" lon="4.5731">
        <ele>723.6</ele>
        <time>2025-04-30T14:43:41Z</time>
      </trkpt>
      <trkpt lat="45.66894" lon="4.5731">
        <ele>723.6</ele>
        <time>2025-04-30T14:43:42Z</time>
      </trkpt>
      <trkpt lat="45.66894" lon="4.5731">
        <ele>723.6</ele>
        <time>2025-04-30T14:43:43Z</time>
      </trkpt>
      <trkpt lat="45.66894" lon="4.5731">
        <ele>723.6</ele>
        <time>2025-04-30T14:43:44Z</time>
      </trkpt>
      <trkpt lat="45.66894" lon="4.5731">
        <ele>723.6</ele>
        <time>2025-04-30T14:43:45Z</time>
      </trkpt>
      <trkpt lat="45.66894" lon="4.5731">
        <ele>723.6</ele>
        <time>2025-04-30T14:43:46Z</time>
      </trkpt>
      <trkpt lat="45.66894" lon="4.5731">
        <ele>723.6</ele>
        <time>2025-04-30T14:43:47Z</time>
      </trkpt>
      <trkpt lat="45.66894" lon="4.5731">
        <ele>723.6</ele>
        <time>2025-04-30T14:43:48Z</time>
      </trkpt>
      <trkpt lat="45.66894" lon="4.5731">
        <ele>723.6</ele>
        <time>2025-04-30T14:43:49Z</time>
      </trkpt>
      <trkpt lat="45.66894" lon="4.5731">
        <ele>723.6</ele>
        <time>2025-04-30T14:43:50Z</time>
      </trkpt>
      <trkpt lat="45.66893" lon="4.5731">
        <ele>723.6</ele>
        <time>2025-04-30T14:43:51Z</time>
      </trkpt>
      <trkpt lat="45.66892" lon="4.5731">
        <ele>723.6</ele>
        <time>2025-04-30T14:43:52Z</time>
      </trkpt>
      <trkpt lat="45.66891" lon="4.5731">
        <ele>723.6</ele>
        <time>2025-04-30T14:43:53Z</time>
      </trkpt>
      <trkpt lat="45.6689" lon="4.5731">
        <ele>723.6</ele>
        <time>2025-04-30T14:43:54Z</time>
      </trkpt>
      <trkpt lat="45.66888" lon="4.5731">
        <ele>723.6</ele>
        <time>2025-04-30T14:43:55Z</time>
      </trkpt>
      <trkpt lat="45.66887" lon="4.5731">
        <ele>723.6</ele>
        <time>2025-04-30T14:43:56Z</time>
      </trkpt>
      <trkpt lat="45.66886" lon="4.5731">
        <ele>723.6</ele>
        <time>2025-04-30T14:43:57Z</time>
      </trkpt>
      <trkpt lat="45.66885" lon="4.5731">
        <ele>723.6</ele>
        <time>2025-04-30T14:43:58Z</time>
      </trkpt>
      <trkpt lat="45.66884" lon="4.57311">
        <ele>723.4</ele>
        <time>2025-04-30T14:43:59Z</time>
      </trkpt>
      <trkpt lat="45.66883" lon="4.57311">
        <ele>723.4</ele>
        <time>2025-04-30T14:44:00Z</time>
      </trkpt>
      <trkpt lat="45.66882" lon="4.57311">
        <ele>723.4</ele>
        <time>2025-04-30T14:44:01Z</time>
      </trkpt>
      <trkpt lat="45.66882" lon="4.57311">
        <ele>723.6</ele>
        <time>2025-04-30T14:44:02Z</time>
      </trkpt>
      <trkpt lat="45.66882" lon="4.57311">
        <ele>723.6</ele>
        <time>2025-04-30T14:44:03Z</time>
      </trkpt>
      <trkpt lat="45.66882" lon="4.57311">
        <ele>723.6</ele>
        <time>2025-04-30T14:44:04Z</time>
      </trkpt>
      <trkpt lat="45.66882" lon="4.57311">
        <ele>723.6</ele>
        <time>2025-04-30T14:44:05Z</time>
      </trkpt>
      <trkpt lat="45.66882" lon="4.57311">
        <ele>723.8</ele>
        <time>2025-04-30T14:44:06Z</time>
      </trkpt>
      <trkpt lat="45.66882" lon="4.57311">
        <ele>723.8</ele>
        <time>2025-04-30T14:44:07Z</time>
      </trkpt>
      <trkpt lat="45.66882" lon="4.57311">
        <ele>723.8</ele>
        <time>2025-04-30T14:44:08Z</time>
      </trkpt>
      <trkpt lat="45.66881" lon="4.5731">
        <ele>723.8</ele>
        <time>2025-04-30T14:44:09Z</time>
      </trkpt>
      <trkpt lat="45.66881" lon="4.57309">
        <ele>723.8</ele>
        <time>2025-04-30T14:44:10Z</time>
      </trkpt>
      <trkpt lat="45.6688" lon="4.57308">
        <ele>723.8</ele>
        <time>2025-04-30T14:44:11Z</time>
      </trkpt>
      <trkpt lat="45.66879" lon="4.57307">
        <ele>723.8</ele>
        <time>2025-04-30T14:44:12Z</time>
      </trkpt>
      <trkpt lat="45.66878" lon="4.57306">
        <ele>723.8</ele>
        <time>2025-04-30T14:44:13Z</time>
      </trkpt>
      <trkpt lat="45.66877" lon="4.57305">
        <ele>723.8</ele>
        <time>2025-04-30T14:44:14Z</time>
      </trkpt>
      <trkpt lat="45.66877" lon="4.57304">
        <ele>723.8</ele>
        <time>2025-04-30T14:44:15Z</time>
      </trkpt>
      <trkpt lat="45.66876" lon="4.57303">
        <ele>723.8</ele>
        <time>2025-04-30T14:44:16Z</time>
      </trkpt>
      <trkpt lat="45.66876" lon="4.57303">
        <ele>723.8</ele>
        <time>2025-04-30T14:44:17Z</time>
      </trkpt>
      <trkpt lat="45.66875" lon="4.57302">
        <ele>723.8</ele>
        <time>2025-04-30T14:44:18Z</time>
      </trkpt>
      <trkpt lat="45.66874" lon="4.57301">
        <ele>723.8</ele>
        <time>2025-04-30T14:44:19Z</time>
      </trkpt>
      <trkpt lat="45.66874" lon="4.57301">
        <ele>724</ele>
        <time>2025-04-30T14:44:20Z</time>
      </trkpt>
      <trkpt lat="45.66873" lon="4.57301">
        <ele>724</ele>
        <time>2025-04-30T14:44:21Z</time>
      </trkpt>
      <trkpt lat="45.66873" lon="4.57301">
        <ele>724</ele>
        <time>2025-04-30T14:44:22Z</time>
      </trkpt>
      <trkpt lat="45.66873" lon="4.57301">
        <ele>724</ele>
        <time>2025-04-30T14:44:23Z</time>
      </trkpt>
      <trkpt lat="45.66873" lon="4.57301">
        <ele>724</ele>
        <time>2025-04-30T14:44:24Z</time>
      </trkpt>
      <trkpt lat="45.66873" lon="4.57301">
        <ele>724</ele>
        <time>2025-04-30T14:44:25Z</time>
      </trkpt>
      <trkpt lat="45.66873" lon="4.57301">
        <ele>724</ele>
        <time>2025-04-30T14:44:26Z</time>
      </trkpt>
      <trkpt lat="45.66873" lon="4.57301">
        <ele>724</ele>
        <time>2025-04-30T14:44:27Z</time>
      </trkpt>
      <trkpt lat="45.66872" lon="4.57299">
        <ele>724</ele>
        <time>2025-04-30T14:44:28Z</time>
      </trkpt>
      <trkpt lat="45.6687" lon="4.57298">
        <ele>724</ele>
        <time>2025-04-30T14:44:29Z</time>
      </trkpt>
      <trkpt lat="45.66869" lon="4.57296">
        <ele>724</ele>
        <time>2025-04-30T14:44:30Z</time>
      </trkpt>
      <trkpt lat="45.66866" lon="4.57295">
        <ele>724</ele>
        <time>2025-04-30T14:44:31Z</time>
      </trkpt>
      <trkpt lat="45.66864" lon="4.57293">
        <ele>724</ele>
        <time>2025-04-30T14:44:32Z</time>
      </trkpt>
      <trkpt lat="45.66861" lon="4.57291">
        <ele>723.6</ele>
        <time>2025-04-30T14:44:33Z</time>
      </trkpt>
      <trkpt lat="45.66858" lon="4.5729">
        <ele>723.4</ele>
        <time>2025-04-30T14:44:34Z</time>
      </trkpt>
      <trkpt lat="45.66854" lon="4.57288">
        <ele>723.2</ele>
        <time>2025-04-30T14:44:35Z</time>
      </trkpt>
      <trkpt lat="45.6685" lon="4.57286">
        <ele>722.8</ele>
        <time>2025-04-30T14:44:36Z</time>
      </trkpt>
      <trkpt lat="45.66846" lon="4.57284">
        <ele>722.8</ele>
        <time>2025-04-30T14:44:37Z</time>
      </trkpt>
      <trkpt lat="45.66842" lon="4.57285">
        <ele>722.6</ele>
        <time>2025-04-30T14:44:38Z</time>
      </trkpt>
      <trkpt lat="45.66837" lon="4.57286">
        <ele>722</ele>
        <time>2025-04-30T14:44:39Z</time>
      </trkpt>
      <trkpt lat="45.66833" lon="4.57288">
        <ele>721.8</ele>
        <time>2025-04-30T14:44:40Z</time>
      </trkpt>
      <trkpt lat="45.66829" lon="4.5729">
        <ele>721.6</ele>
        <time>2025-04-30T14:44:41Z</time>
      </trkpt>
      <trkpt lat="45.66825" lon="4.57292">
        <ele>721.4</ele>
        <time>2025-04-30T14:44:42Z</time>
      </trkpt>
      <trkpt lat="45.66822" lon="4.57293">
        <ele>721.4</ele>
        <time>2025-04-30T14:44:43Z</time>
      </trkpt>
      <trkpt lat="45.66818" lon="4.57293">
        <ele>721.4</ele>
        <time>2025-04-30T14:44:44Z</time>
      </trkpt>
      <trkpt lat="45.66815" lon="4.57293">
        <ele>721.4</ele>
        <time>2025-04-30T14:44:45Z</time>
      </trkpt>
      <trkpt lat="45.66811" lon="4.57294">
        <ele>721.4</ele>
        <time>2025-04-30T14:44:46Z</time>
      </trkpt>
      <trkpt lat="45.66808" lon="4.57294">
        <ele>721.6</ele>
        <time>2025-04-30T14:44:47Z</time>
      </trkpt>
      <trkpt lat="45.66804" lon="4.57295">
        <ele>721.8</ele>
        <time>2025-04-30T14:44:48Z</time>
      </trkpt>
      <trkpt lat="45.66802" lon="4.57295">
        <ele>722</ele>
        <time>2025-04-30T14:44:49Z</time>
      </trkpt>
      <trkpt lat="45.66799" lon="4.57296">
        <ele>722.2</ele>
        <time>2025-04-30T14:44:50Z</time>
      </trkpt>
      <trkpt lat="45.66797" lon="4.57296">
        <ele>722.6</ele>
        <time>2025-04-30T14:44:51Z</time>
      </trkpt>
      <trkpt lat="45.66795" lon="4.57298">
        <ele>723.2</ele>
        <time>2025-04-30T14:44:52Z</time>
      </trkpt>
      <trkpt lat="45.66792" lon="4.573">
        <ele>723.4</ele>
        <time>2025-04-30T14:44:53Z</time>
      </trkpt>
      <trkpt lat="45.66789" lon="4.57302">
        <ele>723.4</ele>
        <time>2025-04-30T14:44:54Z</time>
      </trkpt>
      <trkpt lat="45.66786" lon="4.57305">
        <ele>723.4</ele>
        <time>2025-04-30T14:44:55Z</time>
      </trkpt>
      <trkpt lat="45.66782" lon="4.57308">
        <ele>723.4</ele>
        <time>2025-04-30T14:44:56Z</time>
      </trkpt>
      <trkpt lat="45.66777" lon="4.5731">
        <ele>723.4</ele>
        <time>2025-04-30T14:44:57Z</time>
      </trkpt>
      <trkpt lat="45.66773" lon="4.57312">
        <ele>722.8</ele>
        <time>2025-04-30T14:44:58Z</time>
      </trkpt>
      <trkpt lat="45.66768" lon="4.57313">
        <ele>722.2</ele>
        <time>2025-04-30T14:44:59Z</time>
      </trkpt>
      <trkpt lat="45.66764" lon="4.57313">
        <ele>721.6</ele>
        <time>2025-04-30T14:45:00Z</time>
      </trkpt>
      <trkpt lat="45.66759" lon="4.57312">
        <ele>721.4</ele>
        <time>2025-04-30T14:45:01Z</time>
      </trkpt>
      <trkpt lat="45.66755" lon="4.57312">
        <ele>721.4</ele>
        <time>2025-04-30T14:45:02Z</time>
      </trkpt>
      <trkpt lat="45.66751" lon="4.57311">
        <ele>721.4</ele>
        <time>2025-04-30T14:45:03Z</time>
      </trkpt>
      <trkpt lat="45.66747" lon="4.57311">
        <ele>721.4</ele>
        <time>2025-04-30T14:45:04Z</time>
      </trkpt>
      <trkpt lat="45.66743" lon="4.5731">
        <ele>721.4</ele>
        <time>2025-04-30T14:45:05Z</time>
      </trkpt>
      <trkpt lat="45.6674" lon="4.57309">
        <ele>721.8</ele>
        <time>2025-04-30T14:45:06Z</time>
      </trkpt>
      <trkpt lat="45.66736" lon="4.57308">
        <ele>722.2</ele>
        <time>2025-04-30T14:45:07Z</time>
      </trkpt>
      <trkpt lat="45.66732" lon="4.57307">
        <ele>722.2</ele>
        <time>2025-04-30T14:45:08Z</time>
      </trkpt>
      <trkpt lat="45.66728" lon="4.57307">
        <ele>722.2</ele>
        <time>2025-04-30T14:45:09Z</time>
      </trkpt>
      <trkpt lat="45.66724" lon="4.57306">
        <ele>722.2</ele>
        <time>2025-04-30T14:45:10Z</time>
      </trkpt>
      <trkpt lat="45.6672" lon="4.57306">
        <ele>722.2</ele>
        <time>2025-04-30T14:45:11Z</time>
      </trkpt>
      <trkpt lat="45.66717" lon="4.57305">
        <ele>722.4</ele>
        <time>2025-04-30T14:45:12Z</time>
      </trkpt>
      <trkpt lat="45.66714" lon="4.57305">
        <ele>722.4</ele>
        <time>2025-04-30T14:45:13Z</time>
      </trkpt>
      <trkpt lat="45.66711" lon="4.57305">
        <ele>722.6</ele>
        <time>2025-04-30T14:45:14Z</time>
      </trkpt>
      <trkpt lat="45.66708" lon="4.57304">
        <ele>722.6</ele>
        <time>2025-04-30T14:45:15Z</time>
      </trkpt>
      <trkpt lat="45.66706" lon="4.57303">
        <ele>723.2</ele>
        <time>2025-04-30T14:45:16Z</time>
      </trkpt>
      <trkpt lat="45.66703" lon="4.57303">
        <ele>723.6</ele>
        <time>2025-04-30T14:45:17Z</time>
      </trkpt>
      <trkpt lat="45.66701" lon="4.57303">
        <ele>723.8</ele>
        <time>2025-04-30T14:45:18Z</time>
      </trkpt>
      <trkpt lat="45.66698" lon="4.57303">
        <ele>723.8</ele>
        <time>2025-04-30T14:45:19Z</time>
      </trkpt>
      <trkpt lat="45.66695" lon="4.57303">
        <ele>723.8</ele>
        <time>2025-04-30T14:45:20Z</time>
      </trkpt>
      <trkpt lat="45.66691" lon="4.57303">
        <ele>723.8</ele>
        <time>2025-04-30T14:45:21Z</time>
      </trkpt>
      <trkpt lat="45.66687" lon="4.57302">
        <ele>723.8</ele>
        <time>2025-04-30T14:45:22Z</time>
      </trkpt>
      <trkpt lat="45.66683" lon="4.57302">
        <ele>723.4</ele>
        <time>2025-04-30T14:45:23Z</time>
      </trkpt>
      <trkpt lat="45.66678" lon="4.57301">
        <ele>723.4</ele>
        <time>2025-04-30T14:45:24Z</time>
      </trkpt>
      <trkpt lat="45.66673" lon="4.57301">
        <ele>723.2</ele>
        <time>2025-04-30T14:45:25Z</time>
      </trkpt>
      <trkpt lat="45.66668" lon="4.57301">
        <ele>722.8</ele>
        <time>2025-04-30T14:45:26Z</time>
      </trkpt>
      <trkpt lat="45.66662" lon="4.57301">
        <ele>722.4</ele>
        <time>2025-04-30T14:45:27Z</time>
      </trkpt>
      <trkpt lat="45.66656" lon="4.573">
        <ele>721.6</ele>
        <time>2025-04-30T14:45:28Z</time>
      </trkpt>
      <trkpt lat="45.6665" lon="4.57299">
        <ele>721</ele>
        <time>2025-04-30T14:45:29Z</time>
      </trkpt>
      <trkpt lat="45.66644" lon="4.57298">
        <ele>720</ele>
        <time>2025-04-30T14:45:30Z</time>
      </trkpt>
      <trkpt lat="45.66637" lon="4.57297">
        <ele>719.2</ele>
        <time>2025-04-30T14:45:31Z</time>
      </trkpt>
      <trkpt lat="45.6663" lon="4.57298">
        <ele>718.4</ele>
        <time>2025-04-30T14:45:32Z</time>
      </trkpt>
      <trkpt lat="45.66623" lon="4.57299">
        <ele>717</ele>
        <time>2025-04-30T14:45:33Z</time>
      </trkpt>
      <trkpt lat="45.66617" lon="4.57301">
        <ele>716.4</ele>
        <time>2025-04-30T14:45:34Z</time>
      </trkpt>
      <trkpt lat="45.66611" lon="4.57304">
        <ele>715.4</ele>
        <time>2025-04-30T14:45:35Z</time>
      </trkpt>
      <trkpt lat="45.66606" lon="4.57308">
        <ele>714.8</ele>
        <time>2025-04-30T14:45:36Z</time>
      </trkpt>
      <trkpt lat="45.66603" lon="4.57312">
        <ele>714.4</ele>
        <time>2025-04-30T14:45:37Z</time>
      </trkpt>
      <trkpt lat="45.666" lon="4.57314">
        <ele>714.4</ele>
        <time>2025-04-30T14:45:38Z</time>
      </trkpt>
      <trkpt lat="45.66598" lon="4.57315">
        <ele>714.4</ele>
        <time>2025-04-30T14:45:39Z</time>
      </trkpt>
      <trkpt lat="45.66596" lon="4.57317">
        <ele>714.4</ele>
        <time>2025-04-30T14:45:40Z</time>
      </trkpt>
      <trkpt lat="45.66596" lon="4.57317">
        <ele>714.8</ele>
        <time>2025-04-30T14:45:41Z</time>
      </trkpt>
      <trkpt lat="45.66596" lon="4.57317">
        <ele>715</ele>
        <time>2025-04-30T14:45:42Z</time>
      </trkpt>
      <trkpt lat="45.66596" lon="4.57317">
        <ele>715.2</ele>
        <time>2025-04-30T14:45:43Z</time>
      </trkpt>
      <trkpt lat="45.66596" lon="4.57317">
        <ele>715.6</ele>
        <time>2025-04-30T14:45:44Z</time>
      </trkpt>
      <trkpt lat="45.66596" lon="4.57317">
        <ele>715.8</ele>
        <time>2025-04-30T14:45:45Z</time>
      </trkpt>
      <trkpt lat="45.66596" lon="4.57317">
        <ele>716</ele>
        <time>2025-04-30T14:45:46Z</time>
      </trkpt>
      <trkpt lat="45.66596" lon="4.57317">
        <ele>716.2</ele>
        <time>2025-04-30T14:45:47Z</time>
      </trkpt>
      <trkpt lat="45.66596" lon="4.57317">
        <ele>716.2</ele>
        <time>2025-04-30T14:45:48Z</time>
      </trkpt>
      <trkpt lat="45.66596" lon="4.57317">
        <ele>716.2</ele>
        <time>2025-04-30T14:45:49Z</time>
      </trkpt>
      <trkpt lat="45.66596" lon="4.57317">
        <ele>716.2</ele>
        <time>2025-04-30T14:45:50Z</time>
      </trkpt>
      <trkpt lat="45.66596" lon="4.57317">
        <ele>716.2</ele>
        <time>2025-04-30T14:45:51Z</time>
      </trkpt>
      <trkpt lat="45.66596" lon="4.57317">
        <ele>716.2</ele>
        <time>2025-04-30T14:45:52Z</time>
      </trkpt>
      <trkpt lat="45.66596" lon="4.57317">
        <ele>716.2</ele>
        <time>2025-04-30T14:45:53Z</time>
      </trkpt>
      <trkpt lat="45.66596" lon="4.57317">
        <ele>716.2</ele>
        <time>2025-04-30T14:45:54Z</time>
      </trkpt>
      <trkpt lat="45.66596" lon="4.57317">
        <ele>716.2</ele>
        <time>2025-04-30T14:45:55Z</time>
      </trkpt>
      <trkpt lat="45.66596" lon="4.57317">
        <ele>716.2</ele>
        <time>2025-04-30T14:45:56Z</time>
      </trkpt>
      <trkpt lat="45.66596" lon="4.57317">
        <ele>716.2</ele>
        <time>2025-04-30T14:45:57Z</time>
      </trkpt>
      <trkpt lat="45.66596" lon="4.57317">
        <ele>716.2</ele>
        <time>2025-04-30T14:45:58Z</time>
      </trkpt>
      <trkpt lat="45.66596" lon="4.57317">
        <ele>716.2</ele>
        <time>2025-04-30T14:45:59Z</time>
      </trkpt>
      <trkpt lat="45.66596" lon="4.57317">
        <ele>716.4</ele>
        <time>2025-04-30T14:46:00Z</time>
      </trkpt>
      <trkpt lat="45.66596" lon="4.57317">
        <ele>716.2</ele>
        <time>2025-04-30T14:46:01Z</time>
      </trkpt>
      <trkpt lat="45.66596" lon="4.57317">
        <ele>716.2</ele>
        <time>2025-04-30T14:46:02Z</time>
      </trkpt>
      <trkpt lat="45.66596" lon="4.57317">
        <ele>716.4</ele>
        <time>2025-04-30T14:46:03Z</time>
      </trkpt>
      <trkpt lat="45.66596" lon="4.57317">
        <ele>716.4</ele>
        <time>2025-04-30T14:46:04Z</time>
      </trkpt>
      <trkpt lat="45.66596" lon="4.57317">
        <ele>716.4</ele>
        <time>2025-04-30T14:46:05Z</time>
      </trkpt>
      <trkpt lat="45.66596" lon="4.57317">
        <ele>716.4</ele>
        <time>2025-04-30T14:46:06Z</time>
      </trkpt>
      <trkpt lat="45.66596" lon="4.57317">
        <ele>716.4</ele>
        <time>2025-04-30T14:46:07Z</time>
      </trkpt>
      <trkpt lat="45.66596" lon="4.57317">
        <ele>716.6</ele>
        <time>2025-04-30T14:46:08Z</time>
      </trkpt>
      <trkpt lat="45.66596" lon="4.57317">
        <ele>716.6</ele>
        <time>2025-04-30T14:46:09Z</time>
      </trkpt>
      <trkpt lat="45.66596" lon="4.57317">
        <ele>716.6</ele>
        <time>2025-04-30T14:46:10Z</time>
      </trkpt>
      <trkpt lat="45.66596" lon="4.57317">
        <ele>716.6</ele>
        <time>2025-04-30T14:46:11Z</time>
      </trkpt>
      <trkpt lat="45.66596" lon="4.57317">
        <ele>716.6</ele>
        <time>2025-04-30T14:46:12Z</time>
      </trkpt>
      <trkpt lat="45.66595" lon="4.57317">
        <ele>716.4</ele>
        <time>2025-04-30T14:46:13Z</time>
      </trkpt>
      <trkpt lat="45.66594" lon="4.57316">
        <ele>716.4</ele>
        <time>2025-04-30T14:46:14Z</time>
      </trkpt>
      <trkpt lat="45.66592" lon="4.57315">
        <ele>716.2</ele>
        <time>2025-04-30T14:46:15Z</time>
      </trkpt>
      <trkpt lat="45.66591" lon="4.57314">
        <ele>716.2</ele>
        <time>2025-04-30T14:46:16Z</time>
      </trkpt>
      <trkpt lat="45.66588" lon="4.57314">
        <ele>716.2</ele>
        <time>2025-04-30T14:46:17Z</time>
      </trkpt>
      <trkpt lat="45.66586" lon="4.57313">
        <ele>716.4</ele>
        <time>2025-04-30T14:46:18Z</time>
      </trkpt>
      <trkpt lat="45.66584" lon="4.57312">
        <ele>716.6</ele>
        <time>2025-04-30T14:46:19Z</time>
      </trkpt>
      <trkpt lat="45.66583" lon="4.57311">
        <ele>716.6</ele>
        <time>2025-04-30T14:46:20Z</time>
      </trkpt>
      <trkpt lat="45.66581" lon="4.5731">
        <ele>717</ele>
        <time>2025-04-30T14:46:21Z</time>
      </trkpt>
      <trkpt lat="45.66579" lon="4.57309">
        <ele>717.2</ele>
        <time>2025-04-30T14:46:22Z</time>
      </trkpt>
      <trkpt lat="45.66577" lon="4.57307">
        <ele>717.6</ele>
        <time>2025-04-30T14:46:23Z</time>
      </trkpt>
      <trkpt lat="45.66574" lon="4.57305">
        <ele>717.6</ele>
        <time>2025-04-30T14:46:24Z</time>
      </trkpt>
      <trkpt lat="45.66572" lon="4.57304">
        <ele>717.8</ele>
        <time>2025-04-30T14:46:25Z</time>
      </trkpt>
      <trkpt lat="45.66569" lon="4.57302">
        <ele>718</ele>
        <time>2025-04-30T14:46:26Z</time>
      </trkpt>
      <trkpt lat="45.66568" lon="4.573">
        <ele>718.4</ele>
        <time>2025-04-30T14:46:27Z</time>
      </trkpt>
      <trkpt lat="45.66566" lon="4.57297">
        <ele>718.8</ele>
        <time>2025-04-30T14:46:28Z</time>
      </trkpt>
      <trkpt lat="45.66563" lon="4.57294">
        <ele>719.4</ele>
        <time>2025-04-30T14:46:29Z</time>
      </trkpt>
      <trkpt lat="45.66562" lon="4.57292">
        <ele>720</ele>
        <time>2025-04-30T14:46:30Z</time>
      </trkpt>
      <trkpt lat="45.6656" lon="4.57289">
        <ele>720.6</ele>
        <time>2025-04-30T14:46:31Z</time>
      </trkpt>
      <trkpt lat="45.66558" lon="4.57286">
        <ele>721</ele>
        <time>2025-04-30T14:46:32Z</time>
      </trkpt>
      <trkpt lat="45.66556" lon="4.57283">
        <ele>721.8</ele>
        <time>2025-04-30T14:46:33Z</time>
      </trkpt>
      <trkpt lat="45.66555" lon="4.5728">
        <ele>722.2</ele>
        <time>2025-04-30T14:46:34Z</time>
      </trkpt>
      <trkpt lat="45.66554" lon="4.57278">
        <ele>722.8</ele>
        <time>2025-04-30T14:46:35Z</time>
      </trkpt>
      <trkpt lat="45.66552" lon="4.57275">
        <ele>723.2</ele>
        <time>2025-04-30T14:46:36Z</time>
      </trkpt>
      <trkpt lat="45.6655" lon="4.57272">
        <ele>723.8</ele>
        <time>2025-04-30T14:46:37Z</time>
      </trkpt>
      <trkpt lat="45.66549" lon="4.5727">
        <ele>724.2</ele>
        <time>2025-04-30T14:46:38Z</time>
      </trkpt>
      <trkpt lat="45.66547" lon="4.57267">
        <ele>724.6</ele>
        <time>2025-04-30T14:46:39Z</time>
      </trkpt>
      <trkpt lat="45.66545" lon="4.57265">
        <ele>725</ele>
        <time>2025-04-30T14:46:40Z</time>
      </trkpt>
      <trkpt lat="45.66544" lon="4.57262">
        <ele>725.6</ele>
        <time>2025-04-30T14:46:41Z</time>
      </trkpt>
      <trkpt lat="45.66542" lon="4.5726">
        <ele>726</ele>
        <time>2025-04-30T14:46:42Z</time>
      </trkpt>
      <trkpt lat="45.6654" lon="4.57258">
        <ele>726.2</ele>
        <time>2025-04-30T14:46:43Z</time>
      </trkpt>
      <trkpt lat="45.66538" lon="4.57255">
        <ele>726.6</ele>
        <time>2025-04-30T14:46:44Z</time>
      </trkpt>
      <trkpt lat="45.66537" lon="4.57253">
        <ele>727</ele>
        <time>2025-04-30T14:46:45Z</time>
      </trkpt>
      <trkpt lat="45.66535" lon="4.57251">
        <ele>727.4</ele>
        <time>2025-04-30T14:46:46Z</time>
      </trkpt>
      <trkpt lat="45.66533" lon="4.57248">
        <ele>727.8</ele>
        <time>2025-04-30T14:46:47Z</time>
      </trkpt>
      <trkpt lat="45.66531" lon="4.57246">
        <ele>728</ele>
        <time>2025-04-30T14:46:48Z</time>
      </trkpt>
      <trkpt lat="45.66529" lon="4.57243">
        <ele>728.4</ele>
        <time>2025-04-30T14:46:49Z</time>
      </trkpt>
      <trkpt lat="45.66527" lon="4.5724">
        <ele>728.6</ele>
        <time>2025-04-30T14:46:50Z</time>
      </trkpt>
      <trkpt lat="45.66526" lon="4.57238">
        <ele>728.8</ele>
        <time>2025-04-30T14:46:51Z</time>
      </trkpt>
      <trkpt lat="45.66525" lon="4.57235">
        <ele>728.8</ele>
        <time>2025-04-30T14:46:52Z</time>
      </trkpt>
      <trkpt lat="45.66523" lon="4.57232">
        <ele>729.2</ele>
        <time>2025-04-30T14:46:53Z</time>
      </trkpt>
      <trkpt lat="45.66522" lon="4.57229">
        <ele>729.4</ele>
        <time>2025-04-30T14:46:54Z</time>
      </trkpt>
      <trkpt lat="45.6652" lon="4.57225">
        <ele>729.8</ele>
        <time>2025-04-30T14:46:55Z</time>
      </trkpt>
      <trkpt lat="45.66518" lon="4.57222">
        <ele>731.4</ele>
        <time>2025-04-30T14:46:56Z</time>
      </trkpt>
      <trkpt lat="45.66517" lon="4.57219">
        <ele>731.6</ele>
        <time>2025-04-30T14:46:57Z</time>
      </trkpt>
      <trkpt lat="45.66516" lon="4.57215">
        <ele>731.6</ele>
        <time>2025-04-30T14:46:58Z</time>
      </trkpt>
      <trkpt lat="45.66515" lon="4.57212">
        <ele>731.6</ele>
        <time>2025-04-30T14:46:59Z</time>
      </trkpt>
      <trkpt lat="45.66514" lon="4.57208">
        <ele>731.6</ele>
        <time>2025-04-30T14:47:00Z</time>
      </trkpt>
      <trkpt lat="45.66513" lon="4.57204">
        <ele>731.6</ele>
        <time>2025-04-30T14:47:01Z</time>
      </trkpt>
      <trkpt lat="45.66512" lon="4.57201">
        <ele>731.6</ele>
        <time>2025-04-30T14:47:02Z</time>
      </trkpt>
      <trkpt lat="45.66511" lon="4.57197">
        <ele>731.8</ele>
        <time>2025-04-30T14:47:03Z</time>
      </trkpt>
      <trkpt lat="45.6651" lon="4.57194">
        <ele>731.8</ele>
        <time>2025-04-30T14:47:04Z</time>
      </trkpt>
      <trkpt lat="45.6651" lon="4.57191">
        <ele>731.8</ele>
        <time>2025-04-30T14:47:05Z</time>
      </trkpt>
      <trkpt lat="45.66509" lon="4.57188">
        <ele>731.8</ele>
        <time>2025-04-30T14:47:06Z</time>
      </trkpt>
      <trkpt lat="45.66509" lon="4.57185">
        <ele>731.8</ele>
        <time>2025-04-30T14:47:07Z</time>
      </trkpt>
      <trkpt lat="45.66508" lon="4.57181">
        <ele>732</ele>
        <time>2025-04-30T14:47:08Z</time>
      </trkpt>
      <trkpt lat="45.66508" lon="4.57178">
        <ele>732</ele>
        <time>2025-04-30T14:47:09Z</time>
      </trkpt>
      <trkpt lat="45.66507" lon="4.57175">
        <ele>732.2</ele>
        <time>2025-04-30T14:47:10Z</time>
      </trkpt>
      <trkpt lat="45.66506" lon="4.57171">
        <ele>732.4</ele>
        <time>2025-04-30T14:47:11Z</time>
      </trkpt>
      <trkpt lat="45.66506" lon="4.57168">
        <ele>732.4</ele>
        <time>2025-04-30T14:47:12Z</time>
      </trkpt>
      <trkpt lat="45.66506" lon="4.57164">
        <ele>732.4</ele>
        <time>2025-04-30T14:47:13Z</time>
      </trkpt>
      <trkpt lat="45.66505" lon="4.57159">
        <ele>732.4</ele>
        <time>2025-04-30T14:47:14Z</time>
      </trkpt>
      <trkpt lat="45.66504" lon="4.57153">
        <ele>732.4</ele>
        <time>2025-04-30T14:47:15Z</time>
      </trkpt>
      <trkpt lat="45.66503" lon="4.57147">
        <ele>732.4</ele>
        <time>2025-04-30T14:47:16Z</time>
      </trkpt>
      <trkpt lat="45.66502" lon="4.57142">
        <ele>732.4</ele>
        <time>2025-04-30T14:47:17Z</time>
      </trkpt>
      <trkpt lat="45.66502" lon="4.57134">
        <ele>732.2</ele>
        <time>2025-04-30T14:47:18Z</time>
      </trkpt>
      <trkpt lat="45.66502" lon="4.57128">
        <ele>732.2</ele>
        <time>2025-04-30T14:47:19Z</time>
      </trkpt>
      <trkpt lat="45.66502" lon="4.57123">
        <ele>732.2</ele>
        <time>2025-04-30T14:47:20Z</time>
      </trkpt>
      <trkpt lat="45.66502" lon="4.57117">
        <ele>732.2</ele>
        <time>2025-04-30T14:47:21Z</time>
      </trkpt>
      <trkpt lat="45.66501" lon="4.5711">
        <ele>732.2</ele>
        <time>2025-04-30T14:47:22Z</time>
      </trkpt>
      <trkpt lat="45.66501" lon="4.57105">
        <ele>732.2</ele>
        <time>2025-04-30T14:47:23Z</time>
      </trkpt>
      <trkpt lat="45.66501" lon="4.57098">
        <ele>732.2</ele>
        <time>2025-04-30T14:47:24Z</time>
      </trkpt>
      <trkpt lat="45.66501" lon="4.57091">
        <ele>732.4</ele>
        <time>2025-04-30T14:47:25Z</time>
      </trkpt>
      <trkpt lat="45.66501" lon="4.57087">
        <ele>732.4</ele>
        <time>2025-04-30T14:47:26Z</time>
      </trkpt>
      <trkpt lat="45.66501" lon="4.5708">
        <ele>732.4</ele>
        <time>2025-04-30T14:47:27Z</time>
      </trkpt>
      <trkpt lat="45.66501" lon="4.57074">
        <ele>732.4</ele>
        <time>2025-04-30T14:47:28Z</time>
      </trkpt>
      <trkpt lat="45.66501" lon="4.57069">
        <ele>732.4</ele>
        <time>2025-04-30T14:47:29Z</time>
      </trkpt>
      <trkpt lat="45.665" lon="4.57062">
        <ele>732.4</ele>
        <time>2025-04-30T14:47:30Z</time>
      </trkpt>
      <trkpt lat="45.66499" lon="4.57056">
        <ele>732.4</ele>
        <time>2025-04-30T14:47:31Z</time>
      </trkpt>
      <trkpt lat="45.66499" lon="4.57052">
        <ele>732.6</ele>
        <time>2025-04-30T14:47:32Z</time>
      </trkpt>
      <trkpt lat="45.66498" lon="4.57046">
        <ele>732.6</ele>
        <time>2025-04-30T14:47:33Z</time>
      </trkpt>
      <trkpt lat="45.66497" lon="4.57042">
        <ele>732.6</ele>
        <time>2025-04-30T14:47:34Z</time>
      </trkpt>
      <trkpt lat="45.66496" lon="4.57037">
        <ele>732.6</ele>
        <time>2025-04-30T14:47:35Z</time>
      </trkpt>
      <trkpt lat="45.66495" lon="4.57032">
        <ele>732.8</ele>
        <time>2025-04-30T14:47:36Z</time>
      </trkpt>
      <trkpt lat="45.66493" lon="4.57028">
        <ele>732.8</ele>
        <time>2025-04-30T14:47:37Z</time>
      </trkpt>
      <trkpt lat="45.66492" lon="4.57024">
        <ele>732.8</ele>
        <time>2025-04-30T14:47:38Z</time>
      </trkpt>
      <trkpt lat="45.6649" lon="4.57019">
        <ele>732.8</ele>
        <time>2025-04-30T14:47:39Z</time>
      </trkpt>
      <trkpt lat="45.66489" lon="4.57013">
        <ele>732.6</ele>
        <time>2025-04-30T14:47:40Z</time>
      </trkpt>
      <trkpt lat="45.66487" lon="4.57009">
        <ele>732.4</ele>
        <time>2025-04-30T14:47:41Z</time>
      </trkpt>
      <trkpt lat="45.66486" lon="4.57004">
        <ele>732.4</ele>
        <time>2025-04-30T14:47:42Z</time>
      </trkpt>
      <trkpt lat="45.66485" lon="4.56999">
        <ele>732.4</ele>
        <time>2025-04-30T14:47:43Z</time>
      </trkpt>
      <trkpt lat="45.66483" lon="4.56995">
        <ele>732.2</ele>
        <time>2025-04-30T14:47:44Z</time>
      </trkpt>
      <trkpt lat="45.6648" lon="4.56992">
        <ele>732.2</ele>
        <time>2025-04-30T14:47:45Z</time>
      </trkpt>
      <trkpt lat="45.66478" lon="4.5699">
        <ele>732.2</ele>
        <time>2025-04-30T14:47:46Z</time>
      </trkpt>
      <trkpt lat="45.66475" lon="4.56986">
        <ele>732.2</ele>
        <time>2025-04-30T14:47:47Z</time>
      </trkpt>
      <trkpt lat="45.66472" lon="4.56983">
        <ele>732.2</ele>
        <time>2025-04-30T14:47:48Z</time>
      </trkpt>
      <trkpt lat="45.66468" lon="4.5698">
        <ele>732.2</ele>
        <time>2025-04-30T14:47:49Z</time>
      </trkpt>
      <trkpt lat="45.66465" lon="4.56976">
        <ele>732.2</ele>
        <time>2025-04-30T14:47:50Z</time>
      </trkpt>
      <trkpt lat="45.66462" lon="4.56973">
        <ele>732.2</ele>
        <time>2025-04-30T14:47:51Z</time>
      </trkpt>
      <trkpt lat="45.66459" lon="4.56971">
        <ele>732.2</ele>
        <time>2025-04-30T14:47:52Z</time>
      </trkpt>
      <trkpt lat="45.66457" lon="4.56968">
        <ele>732.2</ele>
        <time>2025-04-30T14:47:53Z</time>
      </trkpt>
      <trkpt lat="45.66454" lon="4.56965">
        <ele>732.2</ele>
        <time>2025-04-30T14:47:54Z</time>
      </trkpt>
      <trkpt lat="45.66452" lon="4.56961">
        <ele>732.4</ele>
        <time>2025-04-30T14:47:55Z</time>
      </trkpt>
      <trkpt lat="45.6645" lon="4.56959">
        <ele>732.8</ele>
        <time>2025-04-30T14:47:56Z</time>
      </trkpt>
      <trkpt lat="45.66448" lon="4.56955">
        <ele>733.2</ele>
        <time>2025-04-30T14:47:57Z</time>
      </trkpt>
      <trkpt lat="45.66446" lon="4.56952">
        <ele>734</ele>
        <time>2025-04-30T14:47:58Z</time>
      </trkpt>
      <trkpt lat="45.66445" lon="4.5695">
        <ele>734.6</ele>
        <time>2025-04-30T14:47:59Z</time>
      </trkpt>
      <trkpt lat="45.66443" lon="4.56946">
        <ele>734.8</ele>
        <time>2025-04-30T14:48:00Z</time>
      </trkpt>
      <trkpt lat="45.66442" lon="4.56943">
        <ele>735.2</ele>
        <time>2025-04-30T14:48:01Z</time>
      </trkpt>
      <trkpt lat="45.66441" lon="4.56939">
        <ele>735.6</ele>
        <time>2025-04-30T14:48:02Z</time>
      </trkpt>
      <trkpt lat="45.66439" lon="4.56936">
        <ele>736</ele>
        <time>2025-04-30T14:48:03Z</time>
      </trkpt>
      <trkpt lat="45.66438" lon="4.56932">
        <ele>736</ele>
        <time>2025-04-30T14:48:04Z</time>
      </trkpt>
      <trkpt lat="45.66437" lon="4.5693">
        <ele>736.2</ele>
        <time>2025-04-30T14:48:05Z</time>
      </trkpt>
      <trkpt lat="45.66435" lon="4.56926">
        <ele>736.4</ele>
        <time>2025-04-30T14:48:06Z</time>
      </trkpt>
      <trkpt lat="45.66434" lon="4.56922">
        <ele>736.4</ele>
        <time>2025-04-30T14:48:07Z</time>
      </trkpt>
      <trkpt lat="45.66433" lon="4.56916">
        <ele>736.4</ele>
        <time>2025-04-30T14:48:08Z</time>
      </trkpt>
      <trkpt lat="45.66432" lon="4.56909">
        <ele>736.4</ele>
        <time>2025-04-30T14:48:09Z</time>
      </trkpt>
      <trkpt lat="45.66431" lon="4.56903">
        <ele>736.2</ele>
        <time>2025-04-30T14:48:10Z</time>
      </trkpt>
      <trkpt lat="45.6643" lon="4.56896">
        <ele>736</ele>
        <time>2025-04-30T14:48:11Z</time>
      </trkpt>
      <trkpt lat="45.66428" lon="4.56889">
        <ele>735.8</ele>
        <time>2025-04-30T14:48:12Z</time>
      </trkpt>
      <trkpt lat="45.66427" lon="4.56882">
        <ele>735.4</ele>
        <time>2025-04-30T14:48:13Z</time>
      </trkpt>
      <trkpt lat="45.66426" lon="4.56876">
        <ele>735</ele>
        <time>2025-04-30T14:48:14Z</time>
      </trkpt>
      <trkpt lat="45.66425" lon="4.56866">
        <ele>734.8</ele>
        <time>2025-04-30T14:48:15Z</time>
      </trkpt>
      <trkpt lat="45.66424" lon="4.56857">
        <ele>734.6</ele>
        <time>2025-04-30T14:48:16Z</time>
      </trkpt>
      <trkpt lat="45.66423" lon="4.56849">
        <ele>734.2</ele>
        <time>2025-04-30T14:48:17Z</time>
      </trkpt>
      <trkpt lat="45.66422" lon="4.5684">
        <ele>733.8</ele>
        <time>2025-04-30T14:48:18Z</time>
      </trkpt>
      <trkpt lat="45.6642" lon="4.56829">
        <ele>733.6</ele>
        <time>2025-04-30T14:48:19Z</time>
      </trkpt>
      <trkpt lat="45.66419" lon="4.5682">
        <ele>733.6</ele>
        <time>2025-04-30T14:48:20Z</time>
      </trkpt>
      <trkpt lat="45.66418" lon="4.56811">
        <ele>733.4</ele>
        <time>2025-04-30T14:48:21Z</time>
      </trkpt>
      <trkpt lat="45.66417" lon="4.56803">
        <ele>733.2</ele>
        <time>2025-04-30T14:48:22Z</time>
      </trkpt>
      <trkpt lat="45.66416" lon="4.56792">
        <ele>733.2</ele>
        <time>2025-04-30T14:48:23Z</time>
      </trkpt>
      <trkpt lat="45.66416" lon="4.56782">
        <ele>732.8</ele>
        <time>2025-04-30T14:48:24Z</time>
      </trkpt>
      <trkpt lat="45.66415" lon="4.56774">
        <ele>732.8</ele>
        <time>2025-04-30T14:48:25Z</time>
      </trkpt>
      <trkpt lat="45.66414" lon="4.56762">
        <ele>732.2</ele>
        <time>2025-04-30T14:48:26Z</time>
      </trkpt>
      <trkpt lat="45.66412" lon="4.56751">
        <ele>732</ele>
        <time>2025-04-30T14:48:27Z</time>
      </trkpt>
      <trkpt lat="45.66411" lon="4.56742">
        <ele>731.4</ele>
        <time>2025-04-30T14:48:28Z</time>
      </trkpt>
      <trkpt lat="45.6641" lon="4.56727">
        <ele>730.6</ele>
        <time>2025-04-30T14:48:29Z</time>
      </trkpt>
      <trkpt lat="45.6641" lon="4.56717">
        <ele>729.8</ele>
        <time>2025-04-30T14:48:30Z</time>
      </trkpt>
      <trkpt lat="45.6641" lon="4.56704">
        <ele>729</ele>
        <time>2025-04-30T14:48:31Z</time>
      </trkpt>
      <trkpt lat="45.66411" lon="4.56689">
        <ele>728.2</ele>
        <time>2025-04-30T14:48:32Z</time>
      </trkpt>
      <trkpt lat="45.6641" lon="4.56677">
        <ele>727.6</ele>
        <time>2025-04-30T14:48:33Z</time>
      </trkpt>
      <trkpt lat="45.66409" lon="4.56665">
        <ele>727.2</ele>
        <time>2025-04-30T14:48:34Z</time>
      </trkpt>
      <trkpt lat="45.66407" lon="4.56653">
        <ele>726.6</ele>
        <time>2025-04-30T14:48:35Z</time>
      </trkpt>
      <trkpt lat="45.66405" lon="4.56643">
        <ele>726.6</ele>
        <time>2025-04-30T14:48:36Z</time>
      </trkpt>
      <trkpt lat="45.66402" lon="4.56635">
        <ele>726.6</ele>
        <time>2025-04-30T14:48:37Z</time>
      </trkpt>
      <trkpt lat="45.66399" lon="4.56625">
        <ele>726.6</ele>
        <time>2025-04-30T14:48:38Z</time>
      </trkpt>
      <trkpt lat="45.66396" lon="4.56616">
        <ele>726.8</ele>
        <time>2025-04-30T14:48:39Z</time>
      </trkpt>
      <trkpt lat="45.66393" lon="4.56607">
        <ele>726.8</ele>
        <time>2025-04-30T14:48:40Z</time>
      </trkpt>
      <trkpt lat="45.6639" lon="4.56596">
        <ele>726.8</ele>
        <time>2025-04-30T14:48:41Z</time>
      </trkpt>
      <trkpt lat="45.66387" lon="4.56587">
        <ele>727</ele>
        <time>2025-04-30T14:48:42Z</time>
      </trkpt>
      <trkpt lat="45.66384" lon="4.56579">
        <ele>727.2</ele>
        <time>2025-04-30T14:48:43Z</time>
      </trkpt>
      <trkpt lat="45.66381" lon="4.5657">
        <ele>727.2</ele>
        <time>2025-04-30T14:48:44Z</time>
      </trkpt>
      <trkpt lat="45.66378" lon="4.56563">
        <ele>727.4</ele>
        <time>2025-04-30T14:48:45Z</time>
      </trkpt>
      <trkpt lat="45.66375" lon="4.56557">
        <ele>727.8</ele>
        <time>2025-04-30T14:48:46Z</time>
      </trkpt>
      <trkpt lat="45.6637" lon="4.56549">
        <ele>728</ele>
        <time>2025-04-30T14:48:47Z</time>
      </trkpt>
      <trkpt lat="45.66367" lon="4.56541">
        <ele>728.2</ele>
        <time>2025-04-30T14:48:48Z</time>
      </trkpt>
      <trkpt lat="45.66365" lon="4.56535">
        <ele>728.4</ele>
        <time>2025-04-30T14:48:49Z</time>
      </trkpt>
      <trkpt lat="45.66361" lon="4.56527">
        <ele>728.6</ele>
        <time>2025-04-30T14:48:50Z</time>
      </trkpt>
      <trkpt lat="45.66358" lon="4.5652">
        <ele>728.6</ele>
        <time>2025-04-30T14:48:51Z</time>
      </trkpt>
      <trkpt lat="45.66355" lon="4.56513">
        <ele>728.8</ele>
        <time>2025-04-30T14:48:52Z</time>
      </trkpt>
      <trkpt lat="45.66353" lon="4.56506">
        <ele>729.2</ele>
        <time>2025-04-30T14:48:53Z</time>
      </trkpt>
      <trkpt lat="45.66351" lon="4.565">
        <ele>729.2</ele>
        <time>2025-04-30T14:48:54Z</time>
      </trkpt>
      <trkpt lat="45.66349" lon="4.56492">
        <ele>729.4</ele>
        <time>2025-04-30T14:48:55Z</time>
      </trkpt>
      <trkpt lat="45.66346" lon="4.56485">
        <ele>729.4</ele>
        <time>2025-04-30T14:48:56Z</time>
      </trkpt>
      <trkpt lat="45.66344" lon="4.56478">
        <ele>729.4</ele>
        <time>2025-04-30T14:48:57Z</time>
      </trkpt>
      <trkpt lat="45.66342" lon="4.5647">
        <ele>729.6</ele>
        <time>2025-04-30T14:48:58Z</time>
      </trkpt>
      <trkpt lat="45.66341" lon="4.56464">
        <ele>729.8</ele>
        <time>2025-04-30T14:48:59Z</time>
      </trkpt>
      <trkpt lat="45.66339" lon="4.56457">
        <ele>730</ele>
        <time>2025-04-30T14:49:00Z</time>
      </trkpt>
      <trkpt lat="45.66337" lon="4.5645">
        <ele>730.4</ele>
        <time>2025-04-30T14:49:01Z</time>
      </trkpt>
      <trkpt lat="45.66335" lon="4.56442">
        <ele>730.8</ele>
        <time>2025-04-30T14:49:02Z</time>
      </trkpt>
      <trkpt lat="45.66333" lon="4.56434">
        <ele>731</ele>
        <time>2025-04-30T14:49:03Z</time>
      </trkpt>
      <trkpt lat="45.66331" lon="4.56424">
        <ele>731</ele>
        <time>2025-04-30T14:49:04Z</time>
      </trkpt>
      <trkpt lat="45.66329" lon="4.56418">
        <ele>731.2</ele>
        <time>2025-04-30T14:49:05Z</time>
      </trkpt>
      <trkpt lat="45.66327" lon="4.5641">
        <ele>731.2</ele>
        <time>2025-04-30T14:49:06Z</time>
      </trkpt>
      <trkpt lat="45.66324" lon="4.564">
        <ele>731.2</ele>
        <time>2025-04-30T14:49:07Z</time>
      </trkpt>
      <trkpt lat="45.66322" lon="4.56395">
        <ele>731</ele>
        <time>2025-04-30T14:49:08Z</time>
      </trkpt>
      <trkpt lat="45.66319" lon="4.56386">
        <ele>731</ele>
        <time>2025-04-30T14:49:09Z</time>
      </trkpt>
      <trkpt lat="45.66316" lon="4.56379">
        <ele>731</ele>
        <time>2025-04-30T14:49:10Z</time>
      </trkpt>
      <trkpt lat="45.66313" lon="4.56372">
        <ele>731</ele>
        <time>2025-04-30T14:49:11Z</time>
      </trkpt>
      <trkpt lat="45.66311" lon="4.56365">
        <ele>731</ele>
        <time>2025-04-30T14:49:12Z</time>
      </trkpt>
      <trkpt lat="45.66308" lon="4.56359">
        <ele>731.2</ele>
        <time>2025-04-30T14:49:13Z</time>
      </trkpt>
      <trkpt lat="45.66306" lon="4.56353">
        <ele>731.2</ele>
        <time>2025-04-30T14:49:14Z</time>
      </trkpt>
      <trkpt lat="45.66303" lon="4.56345">
        <ele>731.4</ele>
        <time>2025-04-30T14:49:15Z</time>
      </trkpt>
      <trkpt lat="45.66301" lon="4.56339">
        <ele>731.8</ele>
        <time>2025-04-30T14:49:16Z</time>
      </trkpt>
      <trkpt lat="45.66299" lon="4.56334">
        <ele>732.4</ele>
        <time>2025-04-30T14:49:17Z</time>
      </trkpt>
      <trkpt lat="45.66298" lon="4.56327">
        <ele>732.6</ele>
        <time>2025-04-30T14:49:18Z</time>
      </trkpt>
      <trkpt lat="45.66297" lon="4.56321">
        <ele>733</ele>
        <time>2025-04-30T14:49:19Z</time>
      </trkpt>
      <trkpt lat="45.66297" lon="4.56317">
        <ele>733.6</ele>
        <time>2025-04-30T14:49:20Z</time>
      </trkpt>
      <trkpt lat="45.66297" lon="4.56312">
        <ele>734.2</ele>
        <time>2025-04-30T14:49:21Z</time>
      </trkpt>
      <trkpt lat="45.66298" lon="4.56308">
        <ele>734.4</ele>
        <time>2025-04-30T14:49:22Z</time>
      </trkpt>
      <trkpt lat="45.663" lon="4.56304">
        <ele>734.8</ele>
        <time>2025-04-30T14:49:23Z</time>
      </trkpt>
      <trkpt lat="45.66302" lon="4.56302">
        <ele>735.2</ele>
        <time>2025-04-30T14:49:24Z</time>
      </trkpt>
      <trkpt lat="45.66305" lon="4.563">
        <ele>735.4</ele>
        <time>2025-04-30T14:49:25Z</time>
      </trkpt>
      <trkpt lat="45.66308" lon="4.56298">
        <ele>735.8</ele>
        <time>2025-04-30T14:49:26Z</time>
      </trkpt>
      <trkpt lat="45.66309" lon="4.56295">
        <ele>735.8</ele>
        <time>2025-04-30T14:49:27Z</time>
      </trkpt>
      <trkpt lat="45.6631" lon="4.56292">
        <ele>736</ele>
        <time>2025-04-30T14:49:28Z</time>
      </trkpt>
      <trkpt lat="45.66311" lon="4.56288">
        <ele>736.2</ele>
        <time>2025-04-30T14:49:29Z</time>
      </trkpt>
      <trkpt lat="45.66311" lon="4.56286">
        <ele>736.2</ele>
        <time>2025-04-30T14:49:30Z</time>
      </trkpt>
      <trkpt lat="45.66311" lon="4.56282">
        <ele>736.4</ele>
        <time>2025-04-30T14:49:31Z</time>
      </trkpt>
      <trkpt lat="45.6631" lon="4.56279">
        <ele>736.4</ele>
        <time>2025-04-30T14:49:32Z</time>
      </trkpt>
      <trkpt lat="45.66308" lon="4.56277">
        <ele>736.2</ele>
        <time>2025-04-30T14:49:33Z</time>
      </trkpt>
      <trkpt lat="45.66306" lon="4.56276">
        <ele>736.2</ele>
        <time>2025-04-30T14:49:34Z</time>
      </trkpt>
      <trkpt lat="45.66304" lon="4.56275">
        <ele>736.2</ele>
        <time>2025-04-30T14:49:35Z</time>
      </trkpt>
      <trkpt lat="45.66302" lon="4.56275">
        <ele>736</ele>
        <time>2025-04-30T14:49:36Z</time>
      </trkpt>
      <trkpt lat="45.66298" lon="4.56276">
        <ele>735.8</ele>
        <time>2025-04-30T14:49:37Z</time>
      </trkpt>
      <trkpt lat="45.66295" lon="4.56278">
        <ele>735.6</ele>
        <time>2025-04-30T14:49:38Z</time>
      </trkpt>
      <trkpt lat="45.66292" lon="4.56282">
        <ele>735.2</ele>
        <time>2025-04-30T14:49:39Z</time>
      </trkpt>
      <trkpt lat="45.66289" lon="4.56285">
        <ele>734.8</ele>
        <time>2025-04-30T14:49:40Z</time>
      </trkpt>
      <trkpt lat="45.66286" lon="4.56288">
        <ele>734.4</ele>
        <time>2025-04-30T14:49:41Z</time>
      </trkpt>
      <trkpt lat="45.66283" lon="4.5629">
        <ele>734.4</ele>
        <time>2025-04-30T14:49:42Z</time>
      </trkpt>
      <trkpt lat="45.6628" lon="4.56292">
        <ele>734.4</ele>
        <time>2025-04-30T14:49:43Z</time>
      </trkpt>
      <trkpt lat="45.66276" lon="4.56294">
        <ele>734.4</ele>
        <time>2025-04-30T14:49:44Z</time>
      </trkpt>
      <trkpt lat="45.66271" lon="4.56294">
        <ele>734.4</ele>
        <time>2025-04-30T14:49:45Z</time>
      </trkpt>
      <trkpt lat="45.66267" lon="4.56295">
        <ele>734.4</ele>
        <time>2025-04-30T14:49:46Z</time>
      </trkpt>
      <trkpt lat="45.66262" lon="4.56296">
        <ele>734.6</ele>
        <time>2025-04-30T14:49:47Z</time>
      </trkpt>
      <trkpt lat="45.66259" lon="4.56296">
        <ele>734.6</ele>
        <time>2025-04-30T14:49:48Z</time>
      </trkpt>
      <trkpt lat="45.66254" lon="4.56296">
        <ele>734.6</ele>
        <time>2025-04-30T14:49:49Z</time>
      </trkpt>
      <trkpt lat="45.6625" lon="4.56297">
        <ele>734.4</ele>
        <time>2025-04-30T14:49:50Z</time>
      </trkpt>
      <trkpt lat="45.66246" lon="4.56298">
        <ele>734.4</ele>
        <time>2025-04-30T14:49:51Z</time>
      </trkpt>
      <trkpt lat="45.66241" lon="4.56299">
        <ele>734.4</ele>
        <time>2025-04-30T14:49:52Z</time>
      </trkpt>
      <trkpt lat="45.66236" lon="4.56299">
        <ele>734.6</ele>
        <time>2025-04-30T14:49:53Z</time>
      </trkpt>
      <trkpt lat="45.66233" lon="4.563">
        <ele>734.4</ele>
        <time>2025-04-30T14:49:54Z</time>
      </trkpt>
      <trkpt lat="45.66227" lon="4.56301">
        <ele>734.2</ele>
        <time>2025-04-30T14:49:55Z</time>
      </trkpt>
      <trkpt lat="45.66222" lon="4.56301">
        <ele>734.2</ele>
        <time>2025-04-30T14:49:56Z</time>
      </trkpt>
      <trkpt lat="45.66218" lon="4.56302">
        <ele>734</ele>
        <time>2025-04-30T14:49:57Z</time>
      </trkpt>
      <trkpt lat="45.66213" lon="4.56302">
        <ele>733.8</ele>
        <time>2025-04-30T14:49:58Z</time>
      </trkpt>
      <trkpt lat="45.66206" lon="4.56303">
        <ele>733.6</ele>
        <time>2025-04-30T14:49:59Z</time>
      </trkpt>
      <trkpt lat="45.662" lon="4.56303">
        <ele>733.6</ele>
        <time>2025-04-30T14:50:00Z</time>
      </trkpt>
      <trkpt lat="45.66195" lon="4.56304">
        <ele>733.4</ele>
        <time>2025-04-30T14:50:01Z</time>
      </trkpt>
      <trkpt lat="45.66188" lon="4.56305">
        <ele>733</ele>
        <time>2025-04-30T14:50:02Z</time>
      </trkpt>
      <trkpt lat="45.66183" lon="4.56306">
        <ele>732.6</ele>
        <time>2025-04-30T14:50:03Z</time>
      </trkpt>
      <trkpt lat="45.66177" lon="4.56307">
        <ele>732.4</ele>
        <time>2025-04-30T14:50:04Z</time>
      </trkpt>
      <trkpt lat="45.66171" lon="4.56309">
        <ele>732.2</ele>
        <time>2025-04-30T14:50:05Z</time>
      </trkpt>
      <trkpt lat="45.66165" lon="4.5631">
        <ele>732.2</ele>
        <time>2025-04-30T14:50:06Z</time>
      </trkpt>
      <trkpt lat="45.6616" lon="4.56312">
        <ele>732.2</ele>
        <time>2025-04-30T14:50:07Z</time>
      </trkpt>
      <trkpt lat="45.66153" lon="4.56313">
        <ele>732.2</ele>
        <time>2025-04-30T14:50:08Z</time>
      </trkpt>
      <trkpt lat="45.66148" lon="4.56315">
        <ele>732.2</ele>
        <time>2025-04-30T14:50:09Z</time>
      </trkpt>
      <trkpt lat="45.66144" lon="4.56317">
        <ele>732</ele>
        <time>2025-04-30T14:50:10Z</time>
      </trkpt>
      <trkpt lat="45.66138" lon="4.5632">
        <ele>732</ele>
        <time>2025-04-30T14:50:11Z</time>
      </trkpt>
      <trkpt lat="45.66134" lon="4.56321">
        <ele>732</ele>
        <time>2025-04-30T14:50:12Z</time>
      </trkpt>
      <trkpt lat="45.66128" lon="4.56324">
        <ele>731.8</ele>
        <time>2025-04-30T14:50:13Z</time>
      </trkpt>
      <trkpt lat="45.66123" lon="4.56326">
        <ele>731.2</ele>
        <time>2025-04-30T14:50:14Z</time>
      </trkpt>
      <trkpt lat="45.66117" lon="4.56328">
        <ele>730.2</ele>
        <time>2025-04-30T14:50:15Z</time>
      </trkpt>
      <trkpt lat="45.66113" lon="4.5633">
        <ele>729.6</ele>
        <time>2025-04-30T14:50:16Z</time>
      </trkpt>
      <trkpt lat="45.66106" lon="4.56333">
        <ele>729.2</ele>
        <time>2025-04-30T14:50:17Z</time>
      </trkpt>
      <trkpt lat="45.66102" lon="4.56335">
        <ele>729.2</ele>
        <time>2025-04-30T14:50:18Z</time>
      </trkpt>
      <trkpt lat="45.66097" lon="4.56337">
        <ele>729.2</ele>
        <time>2025-04-30T14:50:19Z</time>
      </trkpt>
      <trkpt lat="45.66091" lon="4.5634">
        <ele>729.2</ele>
        <time>2025-04-30T14:50:20Z</time>
      </trkpt>
      <trkpt lat="45.66086" lon="4.56342">
        <ele>729.4</ele>
        <time>2025-04-30T14:50:21Z</time>
      </trkpt>
      <trkpt lat="45.66081" lon="4.56344">
        <ele>729.4</ele>
        <time>2025-04-30T14:50:22Z</time>
      </trkpt>
      <trkpt lat="45.66075" lon="4.56347">
        <ele>729.6</ele>
        <time>2025-04-30T14:50:23Z</time>
      </trkpt>
      <trkpt lat="45.66069" lon="4.56349">
        <ele>729.6</ele>
        <time>2025-04-30T14:50:24Z</time>
      </trkpt>
      <trkpt lat="45.66065" lon="4.56352">
        <ele>729.8</ele>
        <time>2025-04-30T14:50:25Z</time>
      </trkpt>
      <trkpt lat="45.66059" lon="4.56355">
        <ele>730.2</ele>
        <time>2025-04-30T14:50:26Z</time>
      </trkpt>
      <trkpt lat="45.66053" lon="4.56358">
        <ele>730.4</ele>
        <time>2025-04-30T14:50:27Z</time>
      </trkpt>
      <trkpt lat="45.66048" lon="4.56362">
        <ele>730.4</ele>
        <time>2025-04-30T14:50:28Z</time>
      </trkpt>
      <trkpt lat="45.66042" lon="4.56365">
        <ele>730.4</ele>
        <time>2025-04-30T14:50:29Z</time>
      </trkpt>
      <trkpt lat="45.66038" lon="4.56368">
        <ele>730.4</ele>
        <time>2025-04-30T14:50:30Z</time>
      </trkpt>
      <trkpt lat="45.66032" lon="4.56372">
        <ele>730.4</ele>
        <time>2025-04-30T14:50:31Z</time>
      </trkpt>
      <trkpt lat="45.66026" lon="4.56375">
        <ele>730.2</ele>
        <time>2025-04-30T14:50:32Z</time>
      </trkpt>
      <trkpt lat="45.6602" lon="4.56379">
        <ele>730</ele>
        <time>2025-04-30T14:50:33Z</time>
      </trkpt>
      <trkpt lat="45.66014" lon="4.56382">
        <ele>730</ele>
        <time>2025-04-30T14:50:34Z</time>
      </trkpt>
      <trkpt lat="45.66009" lon="4.56384">
        <ele>729.8</ele>
        <time>2025-04-30T14:50:35Z</time>
      </trkpt>
      <trkpt lat="45.66003" lon="4.56387">
        <ele>729.8</ele>
        <time>2025-04-30T14:50:36Z</time>
      </trkpt>
      <trkpt lat="45.65996" lon="4.5639">
        <ele>729.6</ele>
        <time>2025-04-30T14:50:37Z</time>
      </trkpt>
      <trkpt lat="45.65991" lon="4.56393">
        <ele>729.4</ele>
        <time>2025-04-30T14:50:38Z</time>
      </trkpt>
      <trkpt lat="45.65983" lon="4.56395">
        <ele>729.2</ele>
        <time>2025-04-30T14:50:39Z</time>
      </trkpt>
      <trkpt lat="45.65976" lon="4.56397">
        <ele>728.6</ele>
        <time>2025-04-30T14:50:40Z</time>
      </trkpt>
      <trkpt lat="45.6597" lon="4.56398">
        <ele>728.2</ele>
        <time>2025-04-30T14:50:41Z</time>
      </trkpt>
      <trkpt lat="45.65962" lon="4.56398">
        <ele>727.4</ele>
        <time>2025-04-30T14:50:42Z</time>
      </trkpt>
      <trkpt lat="45.65956" lon="4.56398">
        <ele>726.8</ele>
        <time>2025-04-30T14:50:43Z</time>
      </trkpt>
      <trkpt lat="45.65952" lon="4.56398">
        <ele>726.8</ele>
        <time>2025-04-30T14:50:44Z</time>
      </trkpt>
      <trkpt lat="45.6595" lon="4.56399">
        <ele>726.8</ele>
        <time>2025-04-30T14:50:45Z</time>
      </trkpt>
      <trkpt lat="45.65948" lon="4.56399">
        <ele>726.8</ele>
        <time>2025-04-30T14:50:46Z</time>
      </trkpt>
      <trkpt lat="45.65945" lon="4.56399">
        <ele>727.2</ele>
        <time>2025-04-30T14:50:47Z</time>
      </trkpt>
      <trkpt lat="45.65941" lon="4.56399">
        <ele>727.2</ele>
        <time>2025-04-30T14:50:48Z</time>
      </trkpt>
      <trkpt lat="45.65936" lon="4.564">
        <ele>727.2</ele>
        <time>2025-04-30T14:50:49Z</time>
      </trkpt>
      <trkpt lat="45.65931" lon="4.564">
        <ele>727.2</ele>
        <time>2025-04-30T14:50:50Z</time>
      </trkpt>
      <trkpt lat="45.65925" lon="4.564">
        <ele>727</ele>
        <time>2025-04-30T14:50:51Z</time>
      </trkpt>
      <trkpt lat="45.6592" lon="4.564">
        <ele>726.6</ele>
        <time>2025-04-30T14:50:52Z</time>
      </trkpt>
      <trkpt lat="45.65915" lon="4.564">
        <ele>725.8</ele>
        <time>2025-04-30T14:50:53Z</time>
      </trkpt>
      <trkpt lat="45.6591" lon="4.56401">
        <ele>725.4</ele>
        <time>2025-04-30T14:50:54Z</time>
      </trkpt>
      <trkpt lat="45.65906" lon="4.56402">
        <ele>725</ele>
        <time>2025-04-30T14:50:55Z</time>
      </trkpt>
      <trkpt lat="45.65904" lon="4.56403">
        <ele>725</ele>
        <time>2025-04-30T14:50:56Z</time>
      </trkpt>
      <trkpt lat="45.65904" lon="4.56405">
        <ele>725</ele>
        <time>2025-04-30T14:50:57Z</time>
      </trkpt>
      <trkpt lat="45.65905" lon="4.56405">
        <ele>725</ele>
        <time>2025-04-30T14:50:58Z</time>
      </trkpt>
      <trkpt lat="45.65905" lon="4.56405">
        <ele>724.8</ele>
        <time>2025-04-30T14:50:59Z</time>
      </trkpt>
      <trkpt lat="45.65905" lon="4.56405">
        <ele>724.8</ele>
        <time>2025-04-30T14:51:00Z</time>
      </trkpt>
      <trkpt lat="45.65905" lon="4.56405">
        <ele>724.8</ele>
        <time>2025-04-30T14:51:01Z</time>
      </trkpt>
      <trkpt lat="45.65905" lon="4.56405">
        <ele>724.8</ele>
        <time>2025-04-30T14:51:02Z</time>
      </trkpt>
      <trkpt lat="45.65905" lon="4.56405">
        <ele>724.8</ele>
        <time>2025-04-30T14:51:03Z</time>
      </trkpt>
      <trkpt lat="45.65905" lon="4.56405">
        <ele>724.8</ele>
        <time>2025-04-30T14:51:04Z</time>
      </trkpt>
      <trkpt lat="45.65905" lon="4.56405">
        <ele>724.8</ele>
        <time>2025-04-30T14:51:05Z</time>
      </trkpt>
      <trkpt lat="45.65905" lon="4.56405">
        <ele>724.8</ele>
        <time>2025-04-30T14:51:06Z</time>
      </trkpt>
      <trkpt lat="45.65905" lon="4.56405">
        <ele>724.6</ele>
        <time>2025-04-30T14:51:07Z</time>
      </trkpt>
      <trkpt lat="45.65905" lon="4.56405">
        <ele>724.6</ele>
        <time>2025-04-30T14:51:08Z</time>
      </trkpt>
      <trkpt lat="45.65905" lon="4.56405">
        <ele>724.6</ele>
        <time>2025-04-30T14:51:09Z</time>
      </trkpt>
      <trkpt lat="45.65905" lon="4.56405">
        <ele>724.6</ele>
        <time>2025-04-30T14:51:10Z</time>
      </trkpt>
      <trkpt lat="45.65905" lon="4.56405">
        <ele>724.6</ele>
        <time>2025-04-30T14:51:11Z</time>
      </trkpt>
      <trkpt lat="45.65905" lon="4.56405">
        <ele>724.6</ele>
        <time>2025-04-30T14:51:12Z</time>
      </trkpt>
      <trkpt lat="45.65905" lon="4.56405">
        <ele>724.6</ele>
        <time>2025-04-30T14:51:13Z</time>
      </trkpt>
      <trkpt lat="45.65905" lon="4.56405">
        <ele>724.6</ele>
        <time>2025-04-30T14:51:14Z</time>
      </trkpt>
      <trkpt lat="45.65905" lon="4.56405">
        <ele>724.6</ele>
        <time>2025-04-30T14:51:15Z</time>
      </trkpt>
      <trkpt lat="45.65905" lon="4.56405">
        <ele>724.6</ele>
        <time>2025-04-30T14:51:16Z</time>
      </trkpt>
      <trkpt lat="45.65905" lon="4.56405">
        <ele>724.6</ele>
        <time>2025-04-30T14:51:17Z</time>
      </trkpt>
      <trkpt lat="45.65905" lon="4.56405">
        <ele>724.4</ele>
        <time>2025-04-30T14:51:18Z</time>
      </trkpt>
      <trkpt lat="45.65905" lon="4.56405">
        <ele>724.4</ele>
        <time>2025-04-30T14:51:19Z</time>
      </trkpt>
      <trkpt lat="45.65905" lon="4.56405">
        <ele>724.4</ele>
        <time>2025-04-30T14:51:20Z</time>
      </trkpt>
      <trkpt lat="45.65905" lon="4.56405">
        <ele>724.4</ele>
        <time>2025-04-30T14:51:21Z</time>
      </trkpt>
      <trkpt lat="45.65905" lon="4.56405">
        <ele>724.4</ele>
        <time>2025-04-30T14:51:22Z</time>
      </trkpt>
      <trkpt lat="45.65905" lon="4.56405">
        <ele>724.4</ele>
        <time>2025-04-30T14:51:23Z</time>
      </trkpt>
      <trkpt lat="45.65905" lon="4.56405">
        <ele>724.4</ele>
        <time>2025-04-30T14:51:24Z</time>
      </trkpt>
      <trkpt lat="45.65905" lon="4.56405">
        <ele>724.4</ele>
        <time>2025-04-30T14:51:25Z</time>
      </trkpt>
      <trkpt lat="45.65905" lon="4.56405">
        <ele>724.4</ele>
        <time>2025-04-30T14:51:26Z</time>
      </trkpt>
      <trkpt lat="45.65905" lon="4.56405">
        <ele>724.4</ele>
        <time>2025-04-30T14:51:27Z</time>
      </trkpt>
      <trkpt lat="45.65905" lon="4.56405">
        <ele>724.4</ele>
        <time>2025-04-30T14:51:28Z</time>
      </trkpt>
      <trkpt lat="45.65905" lon="4.56405">
        <ele>724.6</ele>
        <time>2025-04-30T14:51:29Z</time>
      </trkpt>
      <trkpt lat="45.65905" lon="4.56405">
        <ele>724.6</ele>
        <time>2025-04-30T14:51:30Z</time>
      </trkpt>
      <trkpt lat="45.65905" lon="4.56405">
        <ele>724.6</ele>
        <time>2025-04-30T14:51:31Z</time>
      </trkpt>
      <trkpt lat="45.65905" lon="4.56405">
        <ele>724.6</ele>
        <time>2025-04-30T14:51:32Z</time>
      </trkpt>
      <trkpt lat="45.65905" lon="4.56405">
        <ele>724.6</ele>
        <time>2025-04-30T14:51:33Z</time>
      </trkpt>
      <trkpt lat="45.65905" lon="4.56405">
        <ele>724.6</ele>
        <time>2025-04-30T14:51:34Z</time>
      </trkpt>
      <trkpt lat="45.65905" lon="4.56405">
        <ele>724.6</ele>
        <time>2025-04-30T14:51:35Z</time>
      </trkpt>
      <trkpt lat="45.65905" lon="4.56405">
        <ele>724.6</ele>
        <time>2025-04-30T14:51:36Z</time>
      </trkpt>
      <trkpt lat="45.65905" lon="4.56405">
        <ele>724.6</ele>
        <time>2025-04-30T14:51:37Z</time>
      </trkpt>
      <trkpt lat="45.65905" lon="4.56405">
        <ele>724.8</ele>
        <time>2025-04-30T14:51:38Z</time>
      </trkpt>
      <trkpt lat="45.65905" lon="4.56405">
        <ele>724.8</ele>
        <time>2025-04-30T14:51:39Z</time>
      </trkpt>
      <trkpt lat="45.65905" lon="4.56405">
        <ele>724.8</ele>
        <time>2025-04-30T14:51:40Z</time>
      </trkpt>
      <trkpt lat="45.65905" lon="4.56405">
        <ele>724.8</ele>
        <time>2025-04-30T14:51:41Z</time>
      </trkpt>
      <trkpt lat="45.65905" lon="4.56405">
        <ele>724.8</ele>
        <time>2025-04-30T14:51:42Z</time>
      </trkpt>
      <trkpt lat="45.65905" lon="4.56405">
        <ele>724.8</ele>
        <time>2025-04-30T14:51:43Z</time>
      </trkpt>
      <trkpt lat="45.65905" lon="4.56405">
        <ele>724.8</ele>
        <time>2025-04-30T14:51:44Z</time>
      </trkpt>
      <trkpt lat="45.65905" lon="4.56405">
        <ele>724.8</ele>
        <time>2025-04-30T14:51:45Z</time>
      </trkpt>
      <trkpt lat="45.65905" lon="4.56405">
        <ele>724.8</ele>
        <time>2025-04-30T14:51:46Z</time>
      </trkpt>
      <trkpt lat="45.65905" lon="4.56405">
        <ele>724.8</ele>
        <time>2025-04-30T14:51:47Z</time>
      </trkpt>
      <trkpt lat="45.65905" lon="4.56405">
        <ele>724.8</ele>
        <time>2025-04-30T14:51:48Z</time>
      </trkpt>
      <trkpt lat="45.65905" lon="4.56405">
        <ele>724.8</ele>
        <time>2025-04-30T14:51:49Z</time>
      </trkpt>
      <trkpt lat="45.65905" lon="4.56405">
        <ele>724.8</ele>
        <time>2025-04-30T14:51:50Z</time>
      </trkpt>
      <trkpt lat="45.65905" lon="4.56405">
        <ele>724.8</ele>
        <time>2025-04-30T14:51:51Z</time>
      </trkpt>
      <trkpt lat="45.65905" lon="4.56405">
        <ele>724.8</ele>
        <time>2025-04-30T14:51:52Z</time>
      </trkpt>
      <trkpt lat="45.65905" lon="4.56405">
        <ele>724.8</ele>
        <time>2025-04-30T14:51:53Z</time>
      </trkpt>
      <trkpt lat="45.65905" lon="4.56405">
        <ele>724.8</ele>
        <time>2025-04-30T14:51:54Z</time>
      </trkpt>
      <trkpt lat="45.65905" lon="4.56405">
        <ele>725</ele>
        <time>2025-04-30T14:51:55Z</time>
      </trkpt>
      <trkpt lat="45.65905" lon="4.56405">
        <ele>725</ele>
        <time>2025-04-30T14:51:56Z</time>
      </trkpt>
      <trkpt lat="45.65905" lon="4.56405">
        <ele>725</ele>
        <time>2025-04-30T14:51:57Z</time>
      </trkpt>
      <trkpt lat="45.65905" lon="4.56405">
        <ele>725</ele>
        <time>2025-04-30T14:51:58Z</time>
      </trkpt>
      <trkpt lat="45.65905" lon="4.56405">
        <ele>725</ele>
        <time>2025-04-30T14:51:59Z</time>
      </trkpt>
      <trkpt lat="45.65905" lon="4.56405">
        <ele>725</ele>
        <time>2025-04-30T14:52:00Z</time>
      </trkpt>
      <trkpt lat="45.65905" lon="4.56405">
        <ele>725</ele>
        <time>2025-04-30T14:52:01Z</time>
      </trkpt>
      <trkpt lat="45.65905" lon="4.56405">
        <ele>724.6</ele>
        <time>2025-04-30T14:52:02Z</time>
      </trkpt>
      <trkpt lat="45.65905" lon="4.56405">
        <ele>724.6</ele>
        <time>2025-04-30T14:52:03Z</time>
      </trkpt>
      <trkpt lat="45.65905" lon="4.56405">
        <ele>725</ele>
        <time>2025-04-30T14:52:04Z</time>
      </trkpt>
      <trkpt lat="45.65905" lon="4.56405">
        <ele>725</ele>
        <time>2025-04-30T14:52:05Z</time>
      </trkpt>
      <trkpt lat="45.65905" lon="4.56405">
        <ele>725</ele>
        <time>2025-04-30T14:52:06Z</time>
      </trkpt>
      <trkpt lat="45.65905" lon="4.56405">
        <ele>725</ele>
        <time>2025-04-30T14:52:07Z</time>
      </trkpt>
      <trkpt lat="45.65905" lon="4.56405">
        <ele>725</ele>
        <time>2025-04-30T14:52:08Z</time>
      </trkpt>
      <trkpt lat="45.65905" lon="4.56405">
        <ele>725.2</ele>
        <time>2025-04-30T14:52:09Z</time>
      </trkpt>
      <trkpt lat="45.65905" lon="4.56405">
        <ele>725.2</ele>
        <time>2025-04-30T14:52:10Z</time>
      </trkpt>
      <trkpt lat="45.65905" lon="4.56405">
        <ele>725</ele>
        <time>2025-04-30T14:52:11Z</time>
      </trkpt>
      <trkpt lat="45.65905" lon="4.56405">
        <ele>725</ele>
        <time>2025-04-30T14:52:12Z</time>
      </trkpt>
      <trkpt lat="45.65905" lon="4.56405">
        <ele>725</ele>
        <time>2025-04-30T14:52:13Z</time>
      </trkpt>
      <trkpt lat="45.65905" lon="4.56405">
        <ele>725</ele>
        <time>2025-04-30T14:52:14Z</time>
      </trkpt>
      <trkpt lat="45.65905" lon="4.56405">
        <ele>725</ele>
        <time>2025-04-30T14:52:15Z</time>
      </trkpt>
      <trkpt lat="45.65905" lon="4.56405">
        <ele>725.2</ele>
        <time>2025-04-30T14:52:16Z</time>
      </trkpt>
      <trkpt lat="45.65905" lon="4.56405">
        <ele>725.4</ele>
        <time>2025-04-30T14:52:17Z</time>
      </trkpt>
      <trkpt lat="45.65905" lon="4.56405">
        <ele>725.4</ele>
        <time>2025-04-30T14:52:18Z</time>
      </trkpt>
      <trkpt lat="45.65905" lon="4.56405">
        <ele>725.4</ele>
        <time>2025-04-30T14:52:19Z</time>
      </trkpt>
      <trkpt lat="45.65905" lon="4.56405">
        <ele>725.4</ele>
        <time>2025-04-30T14:52:20Z</time>
      </trkpt>
      <trkpt lat="45.65905" lon="4.56405">
        <ele>725.4</ele>
        <time>2025-04-30T14:52:21Z</time>
      </trkpt>
      <trkpt lat="45.65905" lon="4.56405">
        <ele>725.4</ele>
        <time>2025-04-30T14:52:22Z</time>
      </trkpt>
      <trkpt lat="45.65905" lon="4.56405">
        <ele>725.4</ele>
        <time>2025-04-30T14:52:23Z</time>
      </trkpt>
      <trkpt lat="45.65905" lon="4.56405">
        <ele>725.4</ele>
        <time>2025-04-30T14:52:24Z</time>
      </trkpt>
      <trkpt lat="45.65905" lon="4.56405">
        <ele>725.6</ele>
        <time>2025-04-30T14:52:25Z</time>
      </trkpt>
      <trkpt lat="45.65905" lon="4.56405">
        <ele>725.6</ele>
        <time>2025-04-30T14:52:26Z</time>
      </trkpt>
      <trkpt lat="45.65905" lon="4.56405">
        <ele>725.6</ele>
        <time>2025-04-30T14:52:27Z</time>
      </trkpt>
      <trkpt lat="45.65905" lon="4.56405">
        <ele>725.6</ele>
        <time>2025-04-30T14:52:28Z</time>
      </trkpt>
      <trkpt lat="45.65905" lon="4.56405">
        <ele>725.6</ele>
        <time>2025-04-30T14:52:29Z</time>
      </trkpt>
      <trkpt lat="45.65905" lon="4.56405">
        <ele>725.6</ele>
        <time>2025-04-30T14:52:30Z</time>
      </trkpt>
      <trkpt lat="45.65905" lon="4.56405">
        <ele>725.6</ele>
        <time>2025-04-30T14:52:31Z</time>
      </trkpt>
      <trkpt lat="45.65905" lon="4.56405">
        <ele>725.6</ele>
        <time>2025-04-30T14:52:32Z</time>
      </trkpt>
      <trkpt lat="45.65905" lon="4.56405">
        <ele>725.6</ele>
        <time>2025-04-30T14:52:33Z</time>
      </trkpt>
      <trkpt lat="45.65905" lon="4.56405">
        <ele>725.6</ele>
        <time>2025-04-30T14:52:34Z</time>
      </trkpt>
      <trkpt lat="45.65905" lon="4.56405">
        <ele>725.6</ele>
        <time>2025-04-30T14:52:35Z</time>
      </trkpt>
      <trkpt lat="45.65905" lon="4.56405">
        <ele>725.6</ele>
        <time>2025-04-30T14:52:36Z</time>
      </trkpt>
      <trkpt lat="45.65905" lon="4.56405">
        <ele>725.8</ele>
        <time>2025-04-30T14:52:37Z</time>
      </trkpt>
      <trkpt lat="45.65905" lon="4.56405">
        <ele>725.8</ele>
        <time>2025-04-30T14:52:38Z</time>
      </trkpt>
      <trkpt lat="45.65905" lon="4.56405">
        <ele>725.8</ele>
        <time>2025-04-30T14:52:39Z</time>
      </trkpt>
      <trkpt lat="45.65905" lon="4.56405">
        <ele>725.8</ele>
        <time>2025-04-30T14:52:40Z</time>
      </trkpt>
      <trkpt lat="45.65905" lon="4.56405">
        <ele>725.6</ele>
        <time>2025-04-30T14:52:41Z</time>
      </trkpt>
      <trkpt lat="45.65905" lon="4.56405">
        <ele>725.6</ele>
        <time>2025-04-30T14:52:42Z</time>
      </trkpt>
      <trkpt lat="45.65905" lon="4.56405">
        <ele>725.6</ele>
        <time>2025-04-30T14:52:43Z</time>
      </trkpt>
      <trkpt lat="45.65905" lon="4.56405">
        <ele>725.6</ele>
        <time>2025-04-30T14:52:44Z</time>
      </trkpt>
      <trkpt lat="45.65905" lon="4.56405">
        <ele>725.6</ele>
        <time>2025-04-30T14:52:45Z</time>
      </trkpt>
      <trkpt lat="45.65905" lon="4.56405">
        <ele>725.6</ele>
        <time>2025-04-30T14:52:46Z</time>
      </trkpt>
      <trkpt lat="45.65905" lon="4.56405">
        <ele>725.6</ele>
        <time>2025-04-30T14:52:47Z</time>
      </trkpt>
      <trkpt lat="45.65905" lon="4.56405">
        <ele>725.6</ele>
        <time>2025-04-30T14:52:48Z</time>
      </trkpt>
      <trkpt lat="45.65905" lon="4.56405">
        <ele>725.6</ele>
        <time>2025-04-30T14:52:49Z</time>
      </trkpt>
      <trkpt lat="45.65905" lon="4.56405">
        <ele>725.6</ele>
        <time>2025-04-30T14:52:50Z</time>
      </trkpt>
      <trkpt lat="45.65905" lon="4.56405">
        <ele>725.6</ele>
        <time>2025-04-30T14:52:51Z</time>
      </trkpt>
      <trkpt lat="45.65905" lon="4.56405">
        <ele>725.6</ele>
        <time>2025-04-30T14:52:52Z</time>
      </trkpt>
      <trkpt lat="45.65905" lon="4.56405">
        <ele>725.6</ele>
        <time>2025-04-30T14:52:53Z</time>
      </trkpt>
      <trkpt lat="45.65905" lon="4.56405">
        <ele>725.6</ele>
        <time>2025-04-30T14:52:54Z</time>
      </trkpt>
      <trkpt lat="45.65905" lon="4.56405">
        <ele>725.6</ele>
        <time>2025-04-30T14:52:55Z</time>
      </trkpt>
      <trkpt lat="45.65905" lon="4.56405">
        <ele>725.4</ele>
        <time>2025-04-30T14:52:56Z</time>
      </trkpt>
      <trkpt lat="45.65905" lon="4.56405">
        <ele>725.4</ele>
        <time>2025-04-30T14:52:57Z</time>
      </trkpt>
      <trkpt lat="45.65905" lon="4.56405">
        <ele>725.4</ele>
        <time>2025-04-30T14:52:58Z</time>
      </trkpt>
      <trkpt lat="45.65905" lon="4.56405">
        <ele>725.4</ele>
        <time>2025-04-30T14:52:59Z</time>
      </trkpt>
      <trkpt lat="45.65905" lon="4.56405">
        <ele>725.4</ele>
        <time>2025-04-30T14:53:00Z</time>
      </trkpt>
      <trkpt lat="45.65905" lon="4.56405">
        <ele>725.4</ele>
        <time>2025-04-30T14:53:01Z</time>
      </trkpt>
      <trkpt lat="45.65905" lon="4.56405">
        <ele>725.8</ele>
        <time>2025-04-30T14:53:02Z</time>
      </trkpt>
      <trkpt lat="45.65905" lon="4.56405">
        <ele>725.8</ele>
        <time>2025-04-30T14:53:03Z</time>
      </trkpt>
      <trkpt lat="45.65905" lon="4.56405">
        <ele>725.8</ele>
        <time>2025-04-30T14:53:04Z</time>
      </trkpt>
      <trkpt lat="45.65905" lon="4.56405">
        <ele>725.8</ele>
        <time>2025-04-30T14:53:05Z</time>
      </trkpt>
      <trkpt lat="45.65905" lon="4.56405">
        <ele>725.6</ele>
        <time>2025-04-30T14:53:06Z</time>
      </trkpt>
      <trkpt lat="45.65905" lon="4.56405">
        <ele>725.6</ele>
        <time>2025-04-30T14:53:07Z</time>
      </trkpt>
      <trkpt lat="45.65905" lon="4.56405">
        <ele>725.6</ele>
        <time>2025-04-30T14:53:08Z</time>
      </trkpt>
      <trkpt lat="45.65905" lon="4.56405">
        <ele>725.6</ele>
        <time>2025-04-30T14:53:09Z</time>
      </trkpt>
      <trkpt lat="45.65905" lon="4.56405">
        <ele>725.6</ele>
        <time>2025-04-30T14:53:10Z</time>
      </trkpt>
      <trkpt lat="45.65905" lon="4.56405">
        <ele>725.6</ele>
        <time>2025-04-30T14:53:11Z</time>
      </trkpt>
      <trkpt lat="45.65905" lon="4.56405">
        <ele>725.6</ele>
        <time>2025-04-30T14:53:12Z</time>
      </trkpt>
      <trkpt lat="45.65905" lon="4.56405">
        <ele>725.6</ele>
        <time>2025-04-30T14:53:13Z</time>
      </trkpt>
      <trkpt lat="45.65905" lon="4.56405">
        <ele>725.6</ele>
        <time>2025-04-30T14:53:14Z</time>
      </trkpt>
      <trkpt lat="45.65905" lon="4.56405">
        <ele>725.6</ele>
        <time>2025-04-30T14:53:15Z</time>
      </trkpt>
      <trkpt lat="45.65905" lon="4.56405">
        <ele>725.8</ele>
        <time>2025-04-30T14:53:16Z</time>
      </trkpt>
      <trkpt lat="45.65905" lon="4.56405">
        <ele>725.8</ele>
        <time>2025-04-30T14:53:17Z</time>
      </trkpt>
      <trkpt lat="45.65905" lon="4.56405">
        <ele>725.8</ele>
        <time>2025-04-30T14:53:18Z</time>
      </trkpt>
      <trkpt lat="45.65905" lon="4.56405">
        <ele>725.8</ele>
        <time>2025-04-30T14:53:19Z</time>
      </trkpt>
      <trkpt lat="45.65905" lon="4.56405">
        <ele>725.8</ele>
        <time>2025-04-30T14:53:20Z</time>
      </trkpt>
      <trkpt lat="45.65905" lon="4.56405">
        <ele>725.8</ele>
        <time>2025-04-30T14:53:21Z</time>
      </trkpt>
      <trkpt lat="45.65905" lon="4.56405">
        <ele>725.8</ele>
        <time>2025-04-30T14:53:22Z</time>
      </trkpt>
      <trkpt lat="45.65905" lon="4.56405">
        <ele>726</ele>
        <time>2025-04-30T14:53:23Z</time>
      </trkpt>
      <trkpt lat="45.65905" lon="4.56405">
        <ele>726</ele>
        <time>2025-04-30T14:53:24Z</time>
      </trkpt>
      <trkpt lat="45.65905" lon="4.56405">
        <ele>726</ele>
        <time>2025-04-30T14:53:25Z</time>
      </trkpt>
      <trkpt lat="45.65905" lon="4.56405">
        <ele>726</ele>
        <time>2025-04-30T14:53:26Z</time>
      </trkpt>
      <trkpt lat="45.65905" lon="4.56405">
        <ele>726</ele>
        <time>2025-04-30T14:53:27Z</time>
      </trkpt>
      <trkpt lat="45.65905" lon="4.56405">
        <ele>726</ele>
        <time>2025-04-30T14:53:28Z</time>
      </trkpt>
      <trkpt lat="45.65905" lon="4.56405">
        <ele>725.8</ele>
        <time>2025-04-30T14:53:29Z</time>
      </trkpt>
      <trkpt lat="45.65905" lon="4.56405">
        <ele>725.8</ele>
        <time>2025-04-30T14:53:30Z</time>
      </trkpt>
      <trkpt lat="45.65905" lon="4.56405">
        <ele>725.8</ele>
        <time>2025-04-30T14:53:31Z</time>
      </trkpt>
      <trkpt lat="45.65904" lon="4.56405">
        <ele>725.6</ele>
        <time>2025-04-30T14:53:32Z</time>
      </trkpt>
      <trkpt lat="45.65904" lon="4.56405">
        <ele>725.6</ele>
        <time>2025-04-30T14:53:33Z</time>
      </trkpt>
      <trkpt lat="45.65904" lon="4.56405">
        <ele>725.6</ele>
        <time>2025-04-30T14:53:34Z</time>
      </trkpt>
      <trkpt lat="45.65904" lon="4.56405">
        <ele>725.4</ele>
        <time>2025-04-30T14:53:35Z</time>
      </trkpt>
      <trkpt lat="45.65904" lon="4.56405">
        <ele>725.4</ele>
        <time>2025-04-30T14:53:36Z</time>
      </trkpt>
      <trkpt lat="45.65904" lon="4.56405">
        <ele>725.4</ele>
        <time>2025-04-30T14:53:37Z</time>
      </trkpt>
      <trkpt lat="45.65904" lon="4.56405">
        <ele>725.4</ele>
        <time>2025-04-30T14:53:38Z</time>
      </trkpt>
      <trkpt lat="45.65904" lon="4.56405">
        <ele>725.4</ele>
        <time>2025-04-30T14:53:39Z</time>
      </trkpt>
      <trkpt lat="45.65904" lon="4.56405">
        <ele>725.4</ele>
        <time>2025-04-30T14:53:40Z</time>
      </trkpt>
      <trkpt lat="45.65904" lon="4.56405">
        <ele>725.4</ele>
        <time>2025-04-30T14:53:41Z</time>
      </trkpt>
      <trkpt lat="45.65904" lon="4.56405">
        <ele>725.4</ele>
        <time>2025-04-30T14:53:42Z</time>
      </trkpt>
      <trkpt lat="45.65904" lon="4.56405">
        <ele>725.4</ele>
        <time>2025-04-30T14:53:43Z</time>
      </trkpt>
      <trkpt lat="45.65904" lon="4.56405">
        <ele>725.4</ele>
        <time>2025-04-30T14:53:44Z</time>
      </trkpt>
      <trkpt lat="45.65904" lon="4.56405">
        <ele>725.4</ele>
        <time>2025-04-30T14:53:45Z</time>
      </trkpt>
      <trkpt lat="45.65904" lon="4.56405">
        <ele>725.6</ele>
        <time>2025-04-30T14:53:46Z</time>
      </trkpt>
      <trkpt lat="45.65904" lon="4.56405">
        <ele>725.6</ele>
        <time>2025-04-30T14:53:47Z</time>
      </trkpt>
      <trkpt lat="45.65904" lon="4.56405">
        <ele>725.6</ele>
        <time>2025-04-30T14:53:48Z</time>
      </trkpt>
      <trkpt lat="45.65904" lon="4.56405">
        <ele>725.6</ele>
        <time>2025-04-30T14:53:49Z</time>
      </trkpt>
      <trkpt lat="45.65904" lon="4.56405">
        <ele>725.6</ele>
        <time>2025-04-30T14:53:50Z</time>
      </trkpt>
      <trkpt lat="45.65904" lon="4.56405">
        <ele>725.6</ele>
        <time>2025-04-30T14:53:51Z</time>
      </trkpt>
      <trkpt lat="45.65904" lon="4.56405">
        <ele>726</ele>
        <time>2025-04-30T14:53:52Z</time>
      </trkpt>
      <trkpt lat="45.65904" lon="4.56405">
        <ele>726</ele>
        <time>2025-04-30T14:53:53Z</time>
      </trkpt>
      <trkpt lat="45.65904" lon="4.56405">
        <ele>726</ele>
        <time>2025-04-30T14:53:54Z</time>
      </trkpt>
      <trkpt lat="45.65904" lon="4.56405">
        <ele>726</ele>
        <time>2025-04-30T14:53:55Z</time>
      </trkpt>
      <trkpt lat="45.65904" lon="4.56405">
        <ele>726</ele>
        <time>2025-04-30T14:53:56Z</time>
      </trkpt>
      <trkpt lat="45.65904" lon="4.56405">
        <ele>725.8</ele>
        <time>2025-04-30T14:53:57Z</time>
      </trkpt>
      <trkpt lat="45.65904" lon="4.56405">
        <ele>725.8</ele>
        <time>2025-04-30T14:53:58Z</time>
      </trkpt>
      <trkpt lat="45.65904" lon="4.56405">
        <ele>725.6</ele>
        <time>2025-04-30T14:53:59Z</time>
      </trkpt>
      <trkpt lat="45.65904" lon="4.56405">
        <ele>725.6</ele>
        <time>2025-04-30T14:54:00Z</time>
      </trkpt>
      <trkpt lat="45.65904" lon="4.56405">
        <ele>725.6</ele>
        <time>2025-04-30T14:54:01Z</time>
      </trkpt>
      <trkpt lat="45.65904" lon="4.56405">
        <ele>725.6</ele>
        <time>2025-04-30T14:54:02Z</time>
      </trkpt>
      <trkpt lat="45.65904" lon="4.56405">
        <ele>725.6</ele>
        <time>2025-04-30T14:54:03Z</time>
      </trkpt>
      <trkpt lat="45.65904" lon="4.56405">
        <ele>725.6</ele>
        <time>2025-04-30T14:54:04Z</time>
      </trkpt>
      <trkpt lat="45.65904" lon="4.56405">
        <ele>725.6</ele>
        <time>2025-04-30T14:54:05Z</time>
      </trkpt>
      <trkpt lat="45.65904" lon="4.56405">
        <ele>725.6</ele>
        <time>2025-04-30T14:54:06Z</time>
      </trkpt>
      <trkpt lat="45.65904" lon="4.56405">
        <ele>725.6</ele>
        <time>2025-04-30T14:54:07Z</time>
      </trkpt>
      <trkpt lat="45.65904" lon="4.56405">
        <ele>725.6</ele>
        <time>2025-04-30T14:54:08Z</time>
      </trkpt>
      <trkpt lat="45.65904" lon="4.56405">
        <ele>725.6</ele>
        <time>2025-04-30T14:54:09Z</time>
      </trkpt>
      <trkpt lat="45.65904" lon="4.56405">
        <ele>725.6</ele>
        <time>2025-04-30T14:54:10Z</time>
      </trkpt>
      <trkpt lat="45.65904" lon="4.56405">
        <ele>725.6</ele>
        <time>2025-04-30T14:54:11Z</time>
      </trkpt>
      <trkpt lat="45.65904" lon="4.56405">
        <ele>725.6</ele>
        <time>2025-04-30T14:54:12Z</time>
      </trkpt>
      <trkpt lat="45.65904" lon="4.56405">
        <ele>725.6</ele>
        <time>2025-04-30T14:54:13Z</time>
      </trkpt>
      <trkpt lat="45.65904" lon="4.56405">
        <ele>725.6</ele>
        <time>2025-04-30T14:54:14Z</time>
      </trkpt>
      <trkpt lat="45.65904" lon="4.56405">
        <ele>725.6</ele>
        <time>2025-04-30T14:54:15Z</time>
      </trkpt>
      <trkpt lat="45.65904" lon="4.56405">
        <ele>725.6</ele>
        <time>2025-04-30T14:54:16Z</time>
      </trkpt>
      <trkpt lat="45.65904" lon="4.56405">
        <ele>725.6</ele>
        <time>2025-04-30T14:54:17Z</time>
      </trkpt>
      <trkpt lat="45.65904" lon="4.56405">
        <ele>725.6</ele>
        <time>2025-04-30T14:54:18Z</time>
      </trkpt>
      <trkpt lat="45.65904" lon="4.56405">
        <ele>725.6</ele>
        <time>2025-04-30T14:54:19Z</time>
      </trkpt>
      <trkpt lat="45.65904" lon="4.56405">
        <ele>725.6</ele>
        <time>2025-04-30T14:54:20Z</time>
      </trkpt>
      <trkpt lat="45.65904" lon="4.56405">
        <ele>725.6</ele>
        <time>2025-04-30T14:54:21Z</time>
      </trkpt>
      <trkpt lat="45.65904" lon="4.56405">
        <ele>725.6</ele>
        <time>2025-04-30T14:54:22Z</time>
      </trkpt>
      <trkpt lat="45.65904" lon="4.56405">
        <ele>725.6</ele>
        <time>2025-04-30T14:54:23Z</time>
      </trkpt>
      <trkpt lat="45.65904" lon="4.56405">
        <ele>725.6</ele>
        <time>2025-04-30T14:54:24Z</time>
      </trkpt>
      <trkpt lat="45.65904" lon="4.56405">
        <ele>725.6</ele>
        <time>2025-04-30T14:54:25Z</time>
      </trkpt>
      <trkpt lat="45.65904" lon="4.56405">
        <ele>725.6</ele>
        <time>2025-04-30T14:54:26Z</time>
      </trkpt>
      <trkpt lat="45.65904" lon="4.56405">
        <ele>725.6</ele>
        <time>2025-04-30T14:54:27Z</time>
      </trkpt>
      <trkpt lat="45.65904" lon="4.56405">
        <ele>725.6</ele>
        <time>2025-04-30T14:54:28Z</time>
      </trkpt>
      <trkpt lat="45.65904" lon="4.56405">
        <ele>725.6</ele>
        <time>2025-04-30T14:54:29Z</time>
      </trkpt>
      <trkpt lat="45.65904" lon="4.56405">
        <ele>725.6</ele>
        <time>2025-04-30T14:54:30Z</time>
      </trkpt>
      <trkpt lat="45.65904" lon="4.56405">
        <ele>725.6</ele>
        <time>2025-04-30T14:54:31Z</time>
      </trkpt>
      <trkpt lat="45.65904" lon="4.56405">
        <ele>725.6</ele>
        <time>2025-04-30T14:54:32Z</time>
      </trkpt>
      <trkpt lat="45.65904" lon="4.56405">
        <ele>725.6</ele>
        <time>2025-04-30T14:54:33Z</time>
      </trkpt>
      <trkpt lat="45.65904" lon="4.56405">
        <ele>725.6</ele>
        <time>2025-04-30T14:54:34Z</time>
      </trkpt>
      <trkpt lat="45.65904" lon="4.56405">
        <ele>725.6</ele>
        <time>2025-04-30T14:54:35Z</time>
      </trkpt>
      <trkpt lat="45.65904" lon="4.56405">
        <ele>725.6</ele>
        <time>2025-04-30T14:54:36Z</time>
      </trkpt>
      <trkpt lat="45.65903" lon="4.56404">
        <ele>725.6</ele>
        <time>2025-04-30T14:54:37Z</time>
      </trkpt>
      <trkpt lat="45.65902" lon="4.56403">
        <ele>725.6</ele>
        <time>2025-04-30T14:54:38Z</time>
      </trkpt>
      <trkpt lat="45.659" lon="4.56402">
        <ele>725.6</ele>
        <time>2025-04-30T14:54:39Z</time>
      </trkpt>
      <trkpt lat="45.65898" lon="4.564">
        <ele>725.8</ele>
        <time>2025-04-30T14:54:40Z</time>
      </trkpt>
      <trkpt lat="45.65895" lon="4.56398">
        <ele>725.8</ele>
        <time>2025-04-30T14:54:41Z</time>
      </trkpt>
      <trkpt lat="45.65892" lon="4.56397">
        <ele>725.6</ele>
        <time>2025-04-30T14:54:42Z</time>
      </trkpt>
      <trkpt lat="45.65889" lon="4.56396">
        <ele>725.6</ele>
        <time>2025-04-30T14:54:43Z</time>
      </trkpt>
      <trkpt lat="45.65886" lon="4.56397">
        <ele>725.4</ele>
        <time>2025-04-30T14:54:44Z</time>
      </trkpt>
      <trkpt lat="45.65884" lon="4.56399">
        <ele>725.2</ele>
        <time>2025-04-30T14:54:45Z</time>
      </trkpt>
      <trkpt lat="45.65882" lon="4.56402">
        <ele>725</ele>
        <time>2025-04-30T14:54:46Z</time>
      </trkpt>
      <trkpt lat="45.65881" lon="4.56406">
        <ele>724.8</ele>
        <time>2025-04-30T14:54:47Z</time>
      </trkpt>
      <trkpt lat="45.6588" lon="4.56411">
        <ele>724.8</ele>
        <time>2025-04-30T14:54:48Z</time>
      </trkpt>
      <trkpt lat="45.65879" lon="4.56415">
        <ele>724.6</ele>
        <time>2025-04-30T14:54:49Z</time>
      </trkpt>
      <trkpt lat="45.65877" lon="4.56419">
        <ele>724.4</ele>
        <time>2025-04-30T14:54:50Z</time>
      </trkpt>
      <trkpt lat="45.65876" lon="4.56423">
        <ele>724.4</ele>
        <time>2025-04-30T14:54:51Z</time>
      </trkpt>
      <trkpt lat="45.65875" lon="4.56426">
        <ele>724.4</ele>
        <time>2025-04-30T14:54:52Z</time>
      </trkpt>
      <trkpt lat="45.65874" lon="4.56429">
        <ele>724.4</ele>
        <time>2025-04-30T14:54:53Z</time>
      </trkpt>
      <trkpt lat="45.65874" lon="4.56431">
        <ele>724.4</ele>
        <time>2025-04-30T14:54:54Z</time>
      </trkpt>
      <trkpt lat="45.65873" lon="4.56433">
        <ele>724.4</ele>
        <time>2025-04-30T14:54:55Z</time>
      </trkpt>
      <trkpt lat="45.65872" lon="4.56436">
        <ele>724.4</ele>
        <time>2025-04-30T14:54:56Z</time>
      </trkpt>
      <trkpt lat="45.65872" lon="4.56439">
        <ele>724.4</ele>
        <time>2025-04-30T14:54:57Z</time>
      </trkpt>
      <trkpt lat="45.65872" lon="4.56442">
        <ele>724.6</ele>
        <time>2025-04-30T14:54:58Z</time>
      </trkpt>
      <trkpt lat="45.65872" lon="4.56445">
        <ele>724.4</ele>
        <time>2025-04-30T14:54:59Z</time>
      </trkpt>
      <trkpt lat="45.65871" lon="4.56447">
        <ele>724.4</ele>
        <time>2025-04-30T14:55:00Z</time>
      </trkpt>
      <trkpt lat="45.6587" lon="4.5645">
        <ele>724.4</ele>
        <time>2025-04-30T14:55:01Z</time>
      </trkpt>
      <trkpt lat="45.65869" lon="4.56453">
        <ele>724.4</ele>
        <time>2025-04-30T14:55:02Z</time>
      </trkpt>
      <trkpt lat="45.65869" lon="4.56454">
        <ele>724.2</ele>
        <time>2025-04-30T14:55:03Z</time>
      </trkpt>
      <trkpt lat="45.65869" lon="4.56454">
        <ele>724.2</ele>
        <time>2025-04-30T14:55:04Z</time>
      </trkpt>
      <trkpt lat="45.65869" lon="4.56454">
        <ele>724.4</ele>
        <time>2025-04-30T14:55:05Z</time>
      </trkpt>
      <trkpt lat="45.65869" lon="4.56454">
        <ele>724.4</ele>
        <time>2025-04-30T14:55:06Z</time>
      </trkpt>
      <trkpt lat="45.65869" lon="4.56454">
        <ele>724.4</ele>
        <time>2025-04-30T14:55:07Z</time>
      </trkpt>
      <trkpt lat="45.65869" lon="4.56454">
        <ele>724.4</ele>
        <time>2025-04-30T14:55:08Z</time>
      </trkpt>
      <trkpt lat="45.65869" lon="4.56454">
        <ele>724.4</ele>
        <time>2025-04-30T14:55:09Z</time>
      </trkpt>
      <trkpt lat="45.65869" lon="4.56454">
        <ele>724.4</ele>
        <time>2025-04-30T14:55:10Z</time>
      </trkpt>
      <trkpt lat="45.65869" lon="4.56454">
        <ele>724.4</ele>
        <time>2025-04-30T14:55:11Z</time>
      </trkpt>
      <trkpt lat="45.65869" lon="4.56454">
        <ele>724.4</ele>
        <time>2025-04-30T14:55:12Z</time>
      </trkpt>
      <trkpt lat="45.65869" lon="4.56454">
        <ele>724.4</ele>
        <time>2025-04-30T14:55:13Z</time>
      </trkpt>
      <trkpt lat="45.65869" lon="4.56454">
        <ele>724.4</ele>
        <time>2025-04-30T14:55:14Z</time>
      </trkpt>
      <trkpt lat="45.65869" lon="4.56454">
        <ele>724.4</ele>
        <time>2025-04-30T14:55:15Z</time>
      </trkpt>
      <trkpt lat="45.65869" lon="4.56454">
        <ele>724.4</ele>
        <time>2025-04-30T14:55:16Z</time>
      </trkpt>
      <trkpt lat="45.65869" lon="4.56454">
        <ele>724.4</ele>
        <time>2025-04-30T14:55:17Z</time>
      </trkpt>
      <trkpt lat="45.65869" lon="4.56454">
        <ele>724.4</ele>
        <time>2025-04-30T14:55:18Z</time>
      </trkpt>
      <trkpt lat="45.65869" lon="4.56454">
        <ele>724.4</ele>
        <time>2025-04-30T14:55:19Z</time>
      </trkpt>
      <trkpt lat="45.65869" lon="4.56454">
        <ele>724.6</ele>
        <time>2025-04-30T14:55:20Z</time>
      </trkpt>
      <trkpt lat="45.65869" lon="4.56454">
        <ele>724.6</ele>
        <time>2025-04-30T14:55:21Z</time>
      </trkpt>
      <trkpt lat="45.65869" lon="4.56454">
        <ele>724.6</ele>
        <time>2025-04-30T14:55:22Z</time>
      </trkpt>
      <trkpt lat="45.65869" lon="4.56454">
        <ele>724.6</ele>
        <time>2025-04-30T14:55:23Z</time>
      </trkpt>
      <trkpt lat="45.65869" lon="4.56454">
        <ele>724.6</ele>
        <time>2025-04-30T14:55:24Z</time>
      </trkpt>
      <trkpt lat="45.65869" lon="4.56454">
        <ele>724.6</ele>
        <time>2025-04-30T14:55:25Z</time>
      </trkpt>
      <trkpt lat="45.65869" lon="4.56454">
        <ele>724.6</ele>
        <time>2025-04-30T14:55:26Z</time>
      </trkpt>
      <trkpt lat="45.65869" lon="4.56454">
        <ele>724.6</ele>
        <time>2025-04-30T14:55:27Z</time>
      </trkpt>
      <trkpt lat="45.65869" lon="4.56454">
        <ele>724.6</ele>
        <time>2025-04-30T14:55:28Z</time>
      </trkpt>
      <trkpt lat="45.65869" lon="4.56454">
        <ele>724.6</ele>
        <time>2025-04-30T14:55:29Z</time>
      </trkpt>
      <trkpt lat="45.65869" lon="4.56454">
        <ele>724.6</ele>
        <time>2025-04-30T14:55:30Z</time>
      </trkpt>
      <trkpt lat="45.65869" lon="4.56454">
        <ele>724.6</ele>
        <time>2025-04-30T14:55:31Z</time>
      </trkpt>
      <trkpt lat="45.65869" lon="4.56454">
        <ele>724.6</ele>
        <time>2025-04-30T14:55:32Z</time>
      </trkpt>
      <trkpt lat="45.65869" lon="4.56454">
        <ele>724.6</ele>
        <time>2025-04-30T14:55:33Z</time>
      </trkpt>
      <trkpt lat="45.65869" lon="4.56455">
        <ele>724.6</ele>
        <time>2025-04-30T14:55:34Z</time>
      </trkpt>
      <trkpt lat="45.65868" lon="4.56456">
        <ele>724.6</ele>
        <time>2025-04-30T14:55:35Z</time>
      </trkpt>
      <trkpt lat="45.65867" lon="4.56458">
        <ele>724.6</ele>
        <time>2025-04-30T14:55:36Z</time>
      </trkpt>
      <trkpt lat="45.65865" lon="4.56459">
        <ele>724.6</ele>
        <time>2025-04-30T14:55:37Z</time>
      </trkpt>
      <trkpt lat="45.65862" lon="4.56459">
        <ele>724.6</ele>
        <time>2025-04-30T14:55:38Z</time>
      </trkpt>
      <trkpt lat="45.65859" lon="4.5646">
        <ele>724.6</ele>
        <time>2025-04-30T14:55:39Z</time>
      </trkpt>
      <trkpt lat="45.65855" lon="4.5646">
        <ele>724.6</ele>
        <time>2025-04-30T14:55:40Z</time>
      </trkpt>
      <trkpt lat="45.65851" lon="4.56461">
        <ele>724.6</ele>
        <time>2025-04-30T14:55:41Z</time>
      </trkpt>
      <trkpt lat="45.65847" lon="4.56462">
        <ele>724.6</ele>
        <time>2025-04-30T14:55:42Z</time>
      </trkpt>
      <trkpt lat="45.65842" lon="4.56463">
        <ele>724.6</ele>
        <time>2025-04-30T14:55:43Z</time>
      </trkpt>
      <trkpt lat="45.65838" lon="4.56464">
        <ele>724.6</ele>
        <time>2025-04-30T14:55:44Z</time>
      </trkpt>
      <trkpt lat="45.65834" lon="4.56465">
        <ele>724.6</ele>
        <time>2025-04-30T14:55:45Z</time>
      </trkpt>
      <trkpt lat="45.65829" lon="4.56467">
        <ele>724.8</ele>
        <time>2025-04-30T14:55:46Z</time>
      </trkpt>
      <trkpt lat="45.65825" lon="4.56468">
        <ele>724.8</ele>
        <time>2025-04-30T14:55:47Z</time>
      </trkpt>
      <trkpt lat="45.65821" lon="4.56469">
        <ele>725</ele>
        <time>2025-04-30T14:55:48Z</time>
      </trkpt>
      <trkpt lat="45.65817" lon="4.56471">
        <ele>725.2</ele>
        <time>2025-04-30T14:55:49Z</time>
      </trkpt>
      <trkpt lat="45.65813" lon="4.56473">
        <ele>725.4</ele>
        <time>2025-04-30T14:55:50Z</time>
      </trkpt>
      <trkpt lat="45.65809" lon="4.56474">
        <ele>725.6</ele>
        <time>2025-04-30T14:55:51Z</time>
      </trkpt>
      <trkpt lat="45.65805" lon="4.56475">
        <ele>725.8</ele>
        <time>2025-04-30T14:55:52Z</time>
      </trkpt>
      <trkpt lat="45.65801" lon="4.56477">
        <ele>726</ele>
        <time>2025-04-30T14:55:53Z</time>
      </trkpt>
      <trkpt lat="45.65797" lon="4.56478">
        <ele>726.2</ele>
        <time>2025-04-30T14:55:54Z</time>
      </trkpt>
      <trkpt lat="45.65793" lon="4.56479">
        <ele>726.4</ele>
        <time>2025-04-30T14:55:55Z</time>
      </trkpt>
      <trkpt lat="45.6579" lon="4.5648">
        <ele>726.8</ele>
        <time>2025-04-30T14:55:56Z</time>
      </trkpt>
      <trkpt lat="45.65787" lon="4.56482">
        <ele>727.2</ele>
        <time>2025-04-30T14:55:57Z</time>
      </trkpt>
      <trkpt lat="45.65784" lon="4.56483">
        <ele>727.2</ele>
        <time>2025-04-30T14:55:58Z</time>
      </trkpt>
      <trkpt lat="45.65781" lon="4.56484">
        <ele>727.6</ele>
        <time>2025-04-30T14:55:59Z</time>
      </trkpt>
      <trkpt lat="45.65777" lon="4.56486">
        <ele>727.8</ele>
        <time>2025-04-30T14:56:00Z</time>
      </trkpt>
      <trkpt lat="45.65774" lon="4.56486">
        <ele>728.2</ele>
        <time>2025-04-30T14:56:01Z</time>
      </trkpt>
      <trkpt lat="45.65771" lon="4.56487">
        <ele>728.6</ele>
        <time>2025-04-30T14:56:02Z</time>
      </trkpt>
      <trkpt lat="45.65768" lon="4.56488">
        <ele>729.2</ele>
        <time>2025-04-30T14:56:03Z</time>
      </trkpt>
      <trkpt lat="45.65766" lon="4.56489">
        <ele>729.6</ele>
        <time>2025-04-30T14:56:04Z</time>
      </trkpt>
      <trkpt lat="45.65763" lon="4.5649">
        <ele>729.8</ele>
        <time>2025-04-30T14:56:05Z</time>
      </trkpt>
      <trkpt lat="45.6576" lon="4.56492">
        <ele>730</ele>
        <time>2025-04-30T14:56:06Z</time>
      </trkpt>
      <trkpt lat="45.65757" lon="4.56493">
        <ele>730.2</ele>
        <time>2025-04-30T14:56:07Z</time>
      </trkpt>
      <trkpt lat="45.65755" lon="4.56495">
        <ele>730.6</ele>
        <time>2025-04-30T14:56:08Z</time>
      </trkpt>
      <trkpt lat="45.65752" lon="4.56496">
        <ele>730.8</ele>
        <time>2025-04-30T14:56:09Z</time>
      </trkpt>
      <trkpt lat="45.65749" lon="4.56498">
        <ele>731</ele>
        <time>2025-04-30T14:56:10Z</time>
      </trkpt>
      <trkpt lat="45.65746" lon="4.565">
        <ele>731.2</ele>
        <time>2025-04-30T14:56:11Z</time>
      </trkpt>
      <trkpt lat="45.65743" lon="4.56503">
        <ele>731.4</ele>
        <time>2025-04-30T14:56:12Z</time>
      </trkpt>
      <trkpt lat="45.65741" lon="4.56505">
        <ele>731.6</ele>
        <time>2025-04-30T14:56:13Z</time>
      </trkpt>
      <trkpt lat="45.65738" lon="4.56507">
        <ele>732</ele>
        <time>2025-04-30T14:56:14Z</time>
      </trkpt>
      <trkpt lat="45.65735" lon="4.56509">
        <ele>732.2</ele>
        <time>2025-04-30T14:56:15Z</time>
      </trkpt>
      <trkpt lat="45.65732" lon="4.56512">
        <ele>732.6</ele>
        <time>2025-04-30T14:56:16Z</time>
      </trkpt>
      <trkpt lat="45.65729" lon="4.56514">
        <ele>732.6</ele>
        <time>2025-04-30T14:56:17Z</time>
      </trkpt>
      <trkpt lat="45.65727" lon="4.56516">
        <ele>732.8</ele>
        <time>2025-04-30T14:56:18Z</time>
      </trkpt>
      <trkpt lat="45.65724" lon="4.56518">
        <ele>732.8</ele>
        <time>2025-04-30T14:56:19Z</time>
      </trkpt>
      <trkpt lat="45.65721" lon="4.5652">
        <ele>732.8</ele>
        <time>2025-04-30T14:56:20Z</time>
      </trkpt>
      <trkpt lat="45.65718" lon="4.56522">
        <ele>733.2</ele>
        <time>2025-04-30T14:56:21Z</time>
      </trkpt>
      <trkpt lat="45.65715" lon="4.56524">
        <ele>733.4</ele>
        <time>2025-04-30T14:56:22Z</time>
      </trkpt>
      <trkpt lat="45.65713" lon="4.56526">
        <ele>733.6</ele>
        <time>2025-04-30T14:56:23Z</time>
      </trkpt>
      <trkpt lat="45.6571" lon="4.56527">
        <ele>734</ele>
        <time>2025-04-30T14:56:24Z</time>
      </trkpt>
      <trkpt lat="45.65708" lon="4.56529">
        <ele>734.4</ele>
        <time>2025-04-30T14:56:25Z</time>
      </trkpt>
      <trkpt lat="45.65705" lon="4.56531">
        <ele>735</ele>
        <time>2025-04-30T14:56:26Z</time>
      </trkpt>
      <trkpt lat="45.65703" lon="4.56533">
        <ele>735.4</ele>
        <time>2025-04-30T14:56:27Z</time>
      </trkpt>
      <trkpt lat="45.65701" lon="4.56535">
        <ele>735.4</ele>
        <time>2025-04-30T14:56:28Z</time>
      </trkpt>
      <trkpt lat="45.65699" lon="4.56537">
        <ele>736</ele>
        <time>2025-04-30T14:56:29Z</time>
      </trkpt>
      <trkpt lat="45.65697" lon="4.56539">
        <ele>736.4</ele>
        <time>2025-04-30T14:56:30Z</time>
      </trkpt>
      <trkpt lat="45.65695" lon="4.56541">
        <ele>736.8</ele>
        <time>2025-04-30T14:56:31Z</time>
      </trkpt>
      <trkpt lat="45.65693" lon="4.56542">
        <ele>737</ele>
        <time>2025-04-30T14:56:32Z</time>
      </trkpt>
      <trkpt lat="45.6569" lon="4.56544">
        <ele>737</ele>
        <time>2025-04-30T14:56:33Z</time>
      </trkpt>
      <trkpt lat="45.65688" lon="4.56545">
        <ele>737.2</ele>
        <time>2025-04-30T14:56:34Z</time>
      </trkpt>
      <trkpt lat="45.65686" lon="4.56546">
        <ele>737.4</ele>
        <time>2025-04-30T14:56:35Z</time>
      </trkpt>
      <trkpt lat="45.65684" lon="4.56547">
        <ele>737.8</ele>
        <time>2025-04-30T14:56:36Z</time>
      </trkpt>
      <trkpt lat="45.65682" lon="4.56549">
        <ele>738.2</ele>
        <time>2025-04-30T14:56:37Z</time>
      </trkpt>
      <trkpt lat="45.6568" lon="4.5655">
        <ele>738.4</ele>
        <time>2025-04-30T14:56:38Z</time>
      </trkpt>
      <trkpt lat="45.65678" lon="4.56552">
        <ele>738.6</ele>
        <time>2025-04-30T14:56:39Z</time>
      </trkpt>
      <trkpt lat="45.65676" lon="4.56554">
        <ele>739</ele>
        <time>2025-04-30T14:56:40Z</time>
      </trkpt>
      <trkpt lat="45.65674" lon="4.56555">
        <ele>739.2</ele>
        <time>2025-04-30T14:56:41Z</time>
      </trkpt>
      <trkpt lat="45.65672" lon="4.56557">
        <ele>739.6</ele>
        <time>2025-04-30T14:56:42Z</time>
      </trkpt>
      <trkpt lat="45.6567" lon="4.56558">
        <ele>739.8</ele>
        <time>2025-04-30T14:56:43Z</time>
      </trkpt>
      <trkpt lat="45.65668" lon="4.56559">
        <ele>739.8</ele>
        <time>2025-04-30T14:56:44Z</time>
      </trkpt>
      <trkpt lat="45.65666" lon="4.56561">
        <ele>740.2</ele>
        <time>2025-04-30T14:56:45Z</time>
      </trkpt>
      <trkpt lat="45.65664" lon="4.56563">
        <ele>740.4</ele>
        <time>2025-04-30T14:56:46Z</time>
      </trkpt>
      <trkpt lat="45.65662" lon="4.56564">
        <ele>740.4</ele>
        <time>2025-04-30T14:56:47Z</time>
      </trkpt>
      <trkpt lat="45.6566" lon="4.56566">
        <ele>740.8</ele>
        <time>2025-04-30T14:56:48Z</time>
      </trkpt>
      <trkpt lat="45.65658" lon="4.56568">
        <ele>740.8</ele>
        <time>2025-04-30T14:56:49Z</time>
      </trkpt>
      <trkpt lat="45.65657" lon="4.56571">
        <ele>741</ele>
        <time>2025-04-30T14:56:50Z</time>
      </trkpt>
      <trkpt lat="45.65656" lon="4.56572">
        <ele>741.2</ele>
        <time>2025-04-30T14:56:51Z</time>
      </trkpt>
      <trkpt lat="45.65654" lon="4.56573">
        <ele>741.6</ele>
        <time>2025-04-30T14:56:52Z</time>
      </trkpt>
      <trkpt lat="45.65652" lon="4.56574">
        <ele>742</ele>
        <time>2025-04-30T14:56:53Z</time>
      </trkpt>
      <trkpt lat="45.65649" lon="4.56576">
        <ele>742.2</ele>
        <time>2025-04-30T14:56:54Z</time>
      </trkpt>
      <trkpt lat="45.65647" lon="4.56576">
        <ele>742.4</ele>
        <time>2025-04-30T14:56:55Z</time>
      </trkpt>
      <trkpt lat="45.65645" lon="4.56578">
        <ele>742.8</ele>
        <time>2025-04-30T14:56:56Z</time>
      </trkpt>
      <trkpt lat="45.65643" lon="4.5658">
        <ele>743</ele>
        <time>2025-04-30T14:56:57Z</time>
      </trkpt>
      <trkpt lat="45.65642" lon="4.56582">
        <ele>743.2</ele>
        <time>2025-04-30T14:56:58Z</time>
      </trkpt>
      <trkpt lat="45.6564" lon="4.56583">
        <ele>743.4</ele>
        <time>2025-04-30T14:56:59Z</time>
      </trkpt>
      <trkpt lat="45.65638" lon="4.56584">
        <ele>743.6</ele>
        <time>2025-04-30T14:57:00Z</time>
      </trkpt>
      <trkpt lat="45.65636" lon="4.56586">
        <ele>743.8</ele>
        <time>2025-04-30T14:57:01Z</time>
      </trkpt>
      <trkpt lat="45.65634" lon="4.56587">
        <ele>744.2</ele>
        <time>2025-04-30T14:57:02Z</time>
      </trkpt>
      <trkpt lat="45.65632" lon="4.56588">
        <ele>744.4</ele>
        <time>2025-04-30T14:57:03Z</time>
      </trkpt>
      <trkpt lat="45.6563" lon="4.5659">
        <ele>744.6</ele>
        <time>2025-04-30T14:57:04Z</time>
      </trkpt>
      <trkpt lat="45.65628" lon="4.56592">
        <ele>745</ele>
        <time>2025-04-30T14:57:05Z</time>
      </trkpt>
      <trkpt lat="45.65626" lon="4.56593">
        <ele>745.2</ele>
        <time>2025-04-30T14:57:06Z</time>
      </trkpt>
      <trkpt lat="45.65624" lon="4.56595">
        <ele>745.6</ele>
        <time>2025-04-30T14:57:07Z</time>
      </trkpt>
      <trkpt lat="45.65623" lon="4.56597">
        <ele>745.8</ele>
        <time>2025-04-30T14:57:08Z</time>
      </trkpt>
      <trkpt lat="45.65621" lon="4.56599">
        <ele>746</ele>
        <time>2025-04-30T14:57:09Z</time>
      </trkpt>
      <trkpt lat="45.65619" lon="4.566">
        <ele>746.2</ele>
        <time>2025-04-30T14:57:10Z</time>
      </trkpt>
      <trkpt lat="45.65616" lon="4.56601">
        <ele>746.4</ele>
        <time>2025-04-30T14:57:11Z</time>
      </trkpt>
      <trkpt lat="45.65614" lon="4.56603">
        <ele>746.8</ele>
        <time>2025-04-30T14:57:12Z</time>
      </trkpt>
      <trkpt lat="45.65612" lon="4.56604">
        <ele>747.2</ele>
        <time>2025-04-30T14:57:13Z</time>
      </trkpt>
      <trkpt lat="45.6561" lon="4.56606">
        <ele>747.6</ele>
        <time>2025-04-30T14:57:14Z</time>
      </trkpt>
      <trkpt lat="45.65608" lon="4.56607">
        <ele>747.8</ele>
        <time>2025-04-30T14:57:15Z</time>
      </trkpt>
      <trkpt lat="45.65606" lon="4.56609">
        <ele>748.2</ele>
        <time>2025-04-30T14:57:16Z</time>
      </trkpt>
      <trkpt lat="45.65604" lon="4.5661">
        <ele>748.6</ele>
        <time>2025-04-30T14:57:17Z</time>
      </trkpt>
      <trkpt lat="45.65603" lon="4.56612">
        <ele>748.8</ele>
        <time>2025-04-30T14:57:18Z</time>
      </trkpt>
      <trkpt lat="45.65601" lon="4.56613">
        <ele>749.4</ele>
        <time>2025-04-30T14:57:19Z</time>
      </trkpt>
      <trkpt lat="45.65599" lon="4.56614">
        <ele>749.8</ele>
        <time>2025-04-30T14:57:20Z</time>
      </trkpt>
      <trkpt lat="45.65597" lon="4.56616">
        <ele>750.2</ele>
        <time>2025-04-30T14:57:21Z</time>
      </trkpt>
      <trkpt lat="45.65595" lon="4.56617">
        <ele>750.4</ele>
        <time>2025-04-30T14:57:22Z</time>
      </trkpt>
      <trkpt lat="45.65592" lon="4.56619">
        <ele>750.8</ele>
        <time>2025-04-30T14:57:23Z</time>
      </trkpt>
      <trkpt lat="45.6559" lon="4.5662">
        <ele>751.2</ele>
        <time>2025-04-30T14:57:24Z</time>
      </trkpt>
      <trkpt lat="45.65588" lon="4.56622">
        <ele>751.6</ele>
        <time>2025-04-30T14:57:25Z</time>
      </trkpt>
      <trkpt lat="45.65587" lon="4.56624">
        <ele>752</ele>
        <time>2025-04-30T14:57:26Z</time>
      </trkpt>
      <trkpt lat="45.65585" lon="4.56625">
        <ele>752.4</ele>
        <time>2025-04-30T14:57:27Z</time>
      </trkpt>
      <trkpt lat="45.65583" lon="4.56626">
        <ele>752.8</ele>
        <time>2025-04-30T14:57:28Z</time>
      </trkpt>
      <trkpt lat="45.65581" lon="4.56628">
        <ele>753.4</ele>
        <time>2025-04-30T14:57:29Z</time>
      </trkpt>
      <trkpt lat="45.65579" lon="4.5663">
        <ele>753.6</ele>
        <time>2025-04-30T14:57:30Z</time>
      </trkpt>
      <trkpt lat="45.65577" lon="4.56632">
        <ele>754.2</ele>
        <time>2025-04-30T14:57:31Z</time>
      </trkpt>
      <trkpt lat="45.65576" lon="4.56634">
        <ele>754.6</ele>
        <time>2025-04-30T14:57:32Z</time>
      </trkpt>
      <trkpt lat="45.65574" lon="4.56635">
        <ele>755.2</ele>
        <time>2025-04-30T14:57:33Z</time>
      </trkpt>
      <trkpt lat="45.65572" lon="4.56637">
        <ele>755.4</ele>
        <time>2025-04-30T14:57:34Z</time>
      </trkpt>
      <trkpt lat="45.6557" lon="4.56638">
        <ele>755.6</ele>
        <time>2025-04-30T14:57:35Z</time>
      </trkpt>
      <trkpt lat="45.65567" lon="4.5664">
        <ele>756</ele>
        <time>2025-04-30T14:57:36Z</time>
      </trkpt>
      <trkpt lat="45.65565" lon="4.56642">
        <ele>756.4</ele>
        <time>2025-04-30T14:57:37Z</time>
      </trkpt>
      <trkpt lat="45.65563" lon="4.56644">
        <ele>756.8</ele>
        <time>2025-04-30T14:57:38Z</time>
      </trkpt>
      <trkpt lat="45.6556" lon="4.56645">
        <ele>757.2</ele>
        <time>2025-04-30T14:57:39Z</time>
      </trkpt>
      <trkpt lat="45.65558" lon="4.56646">
        <ele>757.6</ele>
        <time>2025-04-30T14:57:40Z</time>
      </trkpt>
      <trkpt lat="45.65555" lon="4.56648">
        <ele>758</ele>
        <time>2025-04-30T14:57:41Z</time>
      </trkpt>
      <trkpt lat="45.65554" lon="4.5665">
        <ele>758.2</ele>
        <time>2025-04-30T14:57:42Z</time>
      </trkpt>
      <trkpt lat="45.65551" lon="4.56651">
        <ele>758.6</ele>
        <time>2025-04-30T14:57:43Z</time>
      </trkpt>
      <trkpt lat="45.65549" lon="4.56653">
        <ele>758.8</ele>
        <time>2025-04-30T14:57:44Z</time>
      </trkpt>
      <trkpt lat="45.65546" lon="4.56654">
        <ele>759.2</ele>
        <time>2025-04-30T14:57:45Z</time>
      </trkpt>
      <trkpt lat="45.65544" lon="4.56656">
        <ele>759.8</ele>
        <time>2025-04-30T14:57:46Z</time>
      </trkpt>
      <trkpt lat="45.65541" lon="4.56657">
        <ele>760</ele>
        <time>2025-04-30T14:57:47Z</time>
      </trkpt>
      <trkpt lat="45.65539" lon="4.56658">
        <ele>760.2</ele>
        <time>2025-04-30T14:57:48Z</time>
      </trkpt>
      <trkpt lat="45.65536" lon="4.56658">
        <ele>760.6</ele>
        <time>2025-04-30T14:57:49Z</time>
      </trkpt>
      <trkpt lat="45.65533" lon="4.56659">
        <ele>760.8</ele>
        <time>2025-04-30T14:57:50Z</time>
      </trkpt>
      <trkpt lat="45.65531" lon="4.5666">
        <ele>761</ele>
        <time>2025-04-30T14:57:51Z</time>
      </trkpt>
      <trkpt lat="45.65528" lon="4.56661">
        <ele>761.4</ele>
        <time>2025-04-30T14:57:52Z</time>
      </trkpt>
      <trkpt lat="45.65526" lon="4.56663">
        <ele>761.4</ele>
        <time>2025-04-30T14:57:53Z</time>
      </trkpt>
      <trkpt lat="45.65523" lon="4.56664">
        <ele>761.8</ele>
        <time>2025-04-30T14:57:54Z</time>
      </trkpt>
      <trkpt lat="45.65521" lon="4.56665">
        <ele>762.2</ele>
        <time>2025-04-30T14:57:55Z</time>
      </trkpt>
      <trkpt lat="45.65518" lon="4.56666">
        <ele>762.6</ele>
        <time>2025-04-30T14:57:56Z</time>
      </trkpt>
      <trkpt lat="45.65515" lon="4.56667">
        <ele>762.8</ele>
        <time>2025-04-30T14:57:57Z</time>
      </trkpt>
      <trkpt lat="45.65513" lon="4.56667">
        <ele>763.2</ele>
        <time>2025-04-30T14:57:58Z</time>
      </trkpt>
      <trkpt lat="45.65511" lon="4.56667">
        <ele>763.6</ele>
        <time>2025-04-30T14:57:59Z</time>
      </trkpt>
      <trkpt lat="45.65508" lon="4.56667">
        <ele>764</ele>
        <time>2025-04-30T14:58:00Z</time>
      </trkpt>
      <trkpt lat="45.65506" lon="4.56667">
        <ele>764.4</ele>
        <time>2025-04-30T14:58:01Z</time>
      </trkpt>
      <trkpt lat="45.65503" lon="4.56666">
        <ele>764.8</ele>
        <time>2025-04-30T14:58:02Z</time>
      </trkpt>
      <trkpt lat="45.65501" lon="4.56664">
        <ele>765.2</ele>
        <time>2025-04-30T14:58:03Z</time>
      </trkpt>
      <trkpt lat="45.65499" lon="4.56663">
        <ele>765.8</ele>
        <time>2025-04-30T14:58:04Z</time>
      </trkpt>
      <trkpt lat="45.65496" lon="4.56663">
        <ele>766</ele>
        <time>2025-04-30T14:58:05Z</time>
      </trkpt>
      <trkpt lat="45.65494" lon="4.56662">
        <ele>766.2</ele>
        <time>2025-04-30T14:58:06Z</time>
      </trkpt>
      <trkpt lat="45.65491" lon="4.56661">
        <ele>766.6</ele>
        <time>2025-04-30T14:58:07Z</time>
      </trkpt>
      <trkpt lat="45.65488" lon="4.56661">
        <ele>767</ele>
        <time>2025-04-30T14:58:08Z</time>
      </trkpt>
      <trkpt lat="45.65486" lon="4.5666">
        <ele>767.2</ele>
        <time>2025-04-30T14:58:09Z</time>
      </trkpt>
      <trkpt lat="45.65484" lon="4.5666">
        <ele>767.6</ele>
        <time>2025-04-30T14:58:10Z</time>
      </trkpt>
      <trkpt lat="45.65481" lon="4.5666">
        <ele>767.8</ele>
        <time>2025-04-30T14:58:11Z</time>
      </trkpt>
      <trkpt lat="45.65479" lon="4.56659">
        <ele>768.2</ele>
        <time>2025-04-30T14:58:12Z</time>
      </trkpt>
      <trkpt lat="45.65477" lon="4.56658">
        <ele>768.4</ele>
        <time>2025-04-30T14:58:13Z</time>
      </trkpt>
      <trkpt lat="45.65474" lon="4.56658">
        <ele>768.8</ele>
        <time>2025-04-30T14:58:14Z</time>
      </trkpt>
      <trkpt lat="45.65472" lon="4.56657">
        <ele>769.2</ele>
        <time>2025-04-30T14:58:15Z</time>
      </trkpt>
      <trkpt lat="45.65469" lon="4.56657">
        <ele>769.4</ele>
        <time>2025-04-30T14:58:16Z</time>
      </trkpt>
      <trkpt lat="45.65467" lon="4.56656">
        <ele>769.8</ele>
        <time>2025-04-30T14:58:17Z</time>
      </trkpt>
      <trkpt lat="45.65464" lon="4.56655">
        <ele>770</ele>
        <time>2025-04-30T14:58:18Z</time>
      </trkpt>
      <trkpt lat="45.65462" lon="4.56655">
        <ele>770.4</ele>
        <time>2025-04-30T14:58:19Z</time>
      </trkpt>
      <trkpt lat="45.6546" lon="4.56654">
        <ele>770.8</ele>
        <time>2025-04-30T14:58:20Z</time>
      </trkpt>
      <trkpt lat="45.65458" lon="4.56654">
        <ele>771</ele>
        <time>2025-04-30T14:58:21Z</time>
      </trkpt>
      <trkpt lat="45.65456" lon="4.56653">
        <ele>771.2</ele>
        <time>2025-04-30T14:58:22Z</time>
      </trkpt>
      <trkpt lat="45.65455" lon="4.56652">
        <ele>771.4</ele>
        <time>2025-04-30T14:58:23Z</time>
      </trkpt>
      <trkpt lat="45.65453" lon="4.5665">
        <ele>771.8</ele>
        <time>2025-04-30T14:58:24Z</time>
      </trkpt>
      <trkpt lat="45.6545" lon="4.5665">
        <ele>772.2</ele>
        <time>2025-04-30T14:58:25Z</time>
      </trkpt>
      <trkpt lat="45.65448" lon="4.56649">
        <ele>772.4</ele>
        <time>2025-04-30T14:58:26Z</time>
      </trkpt>
      <trkpt lat="45.65446" lon="4.56648">
        <ele>772.6</ele>
        <time>2025-04-30T14:58:27Z</time>
      </trkpt>
      <trkpt lat="45.65444" lon="4.56647">
        <ele>773</ele>
        <time>2025-04-30T14:58:28Z</time>
      </trkpt>
      <trkpt lat="45.65441" lon="4.56647">
        <ele>773.4</ele>
        <time>2025-04-30T14:58:29Z</time>
      </trkpt>
      <trkpt lat="45.65439" lon="4.56646">
        <ele>773.8</ele>
        <time>2025-04-30T14:58:30Z</time>
      </trkpt>
      <trkpt lat="45.65437" lon="4.56645">
        <ele>774.2</ele>
        <time>2025-04-30T14:58:31Z</time>
      </trkpt>
      <trkpt lat="45.65435" lon="4.56645">
        <ele>774.6</ele>
        <time>2025-04-30T14:58:32Z</time>
      </trkpt>
      <trkpt lat="45.65433" lon="4.56644">
        <ele>775</ele>
        <time>2025-04-30T14:58:33Z</time>
      </trkpt>
      <trkpt lat="45.65431" lon="4.56644">
        <ele>775.2</ele>
        <time>2025-04-30T14:58:34Z</time>
      </trkpt>
      <trkpt lat="45.65429" lon="4.56645">
        <ele>775.4</ele>
        <time>2025-04-30T14:58:35Z</time>
      </trkpt>
      <trkpt lat="45.65427" lon="4.56646">
        <ele>775.6</ele>
        <time>2025-04-30T14:58:36Z</time>
      </trkpt>
      <trkpt lat="45.65425" lon="4.56648">
        <ele>775.8</ele>
        <time>2025-04-30T14:58:37Z</time>
      </trkpt>
      <trkpt lat="45.65423" lon="4.5665">
        <ele>775.8</ele>
        <time>2025-04-30T14:58:38Z</time>
      </trkpt>
      <trkpt lat="45.65421" lon="4.56652">
        <ele>776</ele>
        <time>2025-04-30T14:58:39Z</time>
      </trkpt>
      <trkpt lat="45.65418" lon="4.56654">
        <ele>776.2</ele>
        <time>2025-04-30T14:58:40Z</time>
      </trkpt>
      <trkpt lat="45.65415" lon="4.56656">
        <ele>776.4</ele>
        <time>2025-04-30T14:58:41Z</time>
      </trkpt>
      <trkpt lat="45.65412" lon="4.56659">
        <ele>776.4</ele>
        <time>2025-04-30T14:58:42Z</time>
      </trkpt>
      <trkpt lat="45.65409" lon="4.56663">
        <ele>776.6</ele>
        <time>2025-04-30T14:58:43Z</time>
      </trkpt>
      <trkpt lat="45.65406" lon="4.56665">
        <ele>777</ele>
        <time>2025-04-30T14:58:44Z</time>
      </trkpt>
      <trkpt lat="45.65403" lon="4.56668">
        <ele>777</ele>
        <time>2025-04-30T14:58:45Z</time>
      </trkpt>
      <trkpt lat="45.654" lon="4.56671">
        <ele>777.2</ele>
        <time>2025-04-30T14:58:46Z</time>
      </trkpt>
      <trkpt lat="45.65397" lon="4.56673">
        <ele>777.2</ele>
        <time>2025-04-30T14:58:47Z</time>
      </trkpt>
      <trkpt lat="45.65394" lon="4.56674">
        <ele>777.4</ele>
        <time>2025-04-30T14:58:48Z</time>
      </trkpt>
      <trkpt lat="45.65391" lon="4.56675">
        <ele>777.6</ele>
        <time>2025-04-30T14:58:49Z</time>
      </trkpt>
      <trkpt lat="45.65388" lon="4.56674">
        <ele>777.8</ele>
        <time>2025-04-30T14:58:50Z</time>
      </trkpt>
      <trkpt lat="45.65385" lon="4.56673">
        <ele>778</ele>
        <time>2025-04-30T14:58:51Z</time>
      </trkpt>
      <trkpt lat="45.65383" lon="4.5667">
        <ele>778.2</ele>
        <time>2025-04-30T14:58:52Z</time>
      </trkpt>
      <trkpt lat="45.65381" lon="4.56668">
        <ele>778.2</ele>
        <time>2025-04-30T14:58:53Z</time>
      </trkpt>
      <trkpt lat="45.65378" lon="4.56666">
        <ele>778.6</ele>
        <time>2025-04-30T14:58:54Z</time>
      </trkpt>
      <trkpt lat="45.65376" lon="4.56664">
        <ele>779.2</ele>
        <time>2025-04-30T14:58:55Z</time>
      </trkpt>
      <trkpt lat="45.65374" lon="4.56662">
        <ele>779.4</ele>
        <time>2025-04-30T14:58:56Z</time>
      </trkpt>
      <trkpt lat="45.65372" lon="4.56661">
        <ele>779.6</ele>
        <time>2025-04-30T14:58:57Z</time>
      </trkpt>
      <trkpt lat="45.6537" lon="4.5666">
        <ele>780</ele>
        <time>2025-04-30T14:58:58Z</time>
      </trkpt>
      <trkpt lat="45.65368" lon="4.56659">
        <ele>780.2</ele>
        <time>2025-04-30T14:58:59Z</time>
      </trkpt>
      <trkpt lat="45.65368" lon="4.56659">
        <ele>780.2</ele>
        <time>2025-04-30T14:59:00Z</time>
      </trkpt>
      <trkpt lat="45.65368" lon="4.56659">
        <ele>780.4</ele>
        <time>2025-04-30T14:59:01Z</time>
      </trkpt>
      <trkpt lat="45.65368" lon="4.56659">
        <ele>780.6</ele>
        <time>2025-04-30T14:59:02Z</time>
      </trkpt>
      <trkpt lat="45.65368" lon="4.56659">
        <ele>780.8</ele>
        <time>2025-04-30T14:59:03Z</time>
      </trkpt>
      <trkpt lat="45.65368" lon="4.56659">
        <ele>780.8</ele>
        <time>2025-04-30T14:59:04Z</time>
      </trkpt>
      <trkpt lat="45.65368" lon="4.56659">
        <ele>780.8</ele>
        <time>2025-04-30T14:59:05Z</time>
      </trkpt>
      <trkpt lat="45.65368" lon="4.56659">
        <ele>781</ele>
        <time>2025-04-30T14:59:06Z</time>
      </trkpt>
      <trkpt lat="45.65367" lon="4.56658">
        <ele>781.2</ele>
        <time>2025-04-30T14:59:07Z</time>
      </trkpt>
      <trkpt lat="45.65366" lon="4.56658">
        <ele>781.2</ele>
        <time>2025-04-30T14:59:08Z</time>
      </trkpt>
      <trkpt lat="45.65363" lon="4.56656">
        <ele>781.2</ele>
        <time>2025-04-30T14:59:09Z</time>
      </trkpt>
      <trkpt lat="45.65361" lon="4.56654">
        <ele>781.2</ele>
        <time>2025-04-30T14:59:10Z</time>
      </trkpt>
      <trkpt lat="45.65358" lon="4.56651">
        <ele>781.2</ele>
        <time>2025-04-30T14:59:11Z</time>
      </trkpt>
      <trkpt lat="45.65355" lon="4.56648">
        <ele>781.2</ele>
        <time>2025-04-30T14:59:12Z</time>
      </trkpt>
      <trkpt lat="45.65352" lon="4.56645">
        <ele>781.2</ele>
        <time>2025-04-30T14:59:13Z</time>
      </trkpt>
      <trkpt lat="45.65349" lon="4.56643">
        <ele>781</ele>
        <time>2025-04-30T14:59:14Z</time>
      </trkpt>
      <trkpt lat="45.65345" lon="4.56642">
        <ele>781</ele>
        <time>2025-04-30T14:59:15Z</time>
      </trkpt>
      <trkpt lat="45.65341" lon="4.56642">
        <ele>781</ele>
        <time>2025-04-30T14:59:16Z</time>
      </trkpt>
      <trkpt lat="45.65337" lon="4.56642">
        <ele>781</ele>
        <time>2025-04-30T14:59:17Z</time>
      </trkpt>
      <trkpt lat="45.65333" lon="4.56643">
        <ele>781</ele>
        <time>2025-04-30T14:59:18Z</time>
      </trkpt>
      <trkpt lat="45.65329" lon="4.56643">
        <ele>781</ele>
        <time>2025-04-30T14:59:19Z</time>
      </trkpt>
      <trkpt lat="45.65324" lon="4.56643">
        <ele>781.2</ele>
        <time>2025-04-30T14:59:20Z</time>
      </trkpt>
      <trkpt lat="45.6532" lon="4.56643">
        <ele>781.4</ele>
        <time>2025-04-30T14:59:21Z</time>
      </trkpt>
      <trkpt lat="45.65317" lon="4.56643">
        <ele>781.4</ele>
        <time>2025-04-30T14:59:22Z</time>
      </trkpt>
      <trkpt lat="45.65313" lon="4.56643">
        <ele>781.4</ele>
        <time>2025-04-30T14:59:23Z</time>
      </trkpt>
      <trkpt lat="45.6531" lon="4.56644">
        <ele>781.4</ele>
        <time>2025-04-30T14:59:24Z</time>
      </trkpt>
      <trkpt lat="45.65307" lon="4.56645">
        <ele>781.6</ele>
        <time>2025-04-30T14:59:25Z</time>
      </trkpt>
      <trkpt lat="45.65305" lon="4.56645">
        <ele>781.6</ele>
        <time>2025-04-30T14:59:26Z</time>
      </trkpt>
      <trkpt lat="45.65303" lon="4.56645">
        <ele>781.6</ele>
        <time>2025-04-30T14:59:27Z</time>
      </trkpt>
      <trkpt lat="45.65301" lon="4.56646">
        <ele>781.6</ele>
        <time>2025-04-30T14:59:28Z</time>
      </trkpt>
      <trkpt lat="45.65298" lon="4.56646">
        <ele>781.6</ele>
        <time>2025-04-30T14:59:29Z</time>
      </trkpt>
      <trkpt lat="45.65294" lon="4.56647">
        <ele>781.6</ele>
        <time>2025-04-30T14:59:30Z</time>
      </trkpt>
      <trkpt lat="45.6529" lon="4.56648">
        <ele>781.6</ele>
        <time>2025-04-30T14:59:31Z</time>
      </trkpt>
      <trkpt lat="45.65287" lon="4.56648">
        <ele>781.6</ele>
        <time>2025-04-30T14:59:32Z</time>
      </trkpt>
      <trkpt lat="45.65282" lon="4.56648">
        <ele>781.6</ele>
        <time>2025-04-30T14:59:33Z</time>
      </trkpt>
      <trkpt lat="45.65278" lon="4.56649">
        <ele>781.6</ele>
        <time>2025-04-30T14:59:34Z</time>
      </trkpt>
      <trkpt lat="45.65274" lon="4.56649">
        <ele>781.6</ele>
        <time>2025-04-30T14:59:35Z</time>
      </trkpt>
      <trkpt lat="45.65271" lon="4.5665">
        <ele>781.6</ele>
        <time>2025-04-30T14:59:36Z</time>
      </trkpt>
      <trkpt lat="45.65267" lon="4.56651">
        <ele>781.6</ele>
        <time>2025-04-30T14:59:37Z</time>
      </trkpt>
      <trkpt lat="45.65263" lon="4.56652">
        <ele>781.8</ele>
        <time>2025-04-30T14:59:38Z</time>
      </trkpt>
      <trkpt lat="45.65259" lon="4.56652">
        <ele>781.8</ele>
        <time>2025-04-30T14:59:39Z</time>
      </trkpt>
      <trkpt lat="45.65256" lon="4.56653">
        <ele>782</ele>
        <time>2025-04-30T14:59:40Z</time>
      </trkpt>
      <trkpt lat="45.65253" lon="4.56654">
        <ele>782.2</ele>
        <time>2025-04-30T14:59:41Z</time>
      </trkpt>
      <trkpt lat="45.65249" lon="4.56654">
        <ele>782.4</ele>
        <time>2025-04-30T14:59:42Z</time>
      </trkpt>
      <trkpt lat="45.65246" lon="4.56654">
        <ele>782.6</ele>
        <time>2025-04-30T14:59:43Z</time>
      </trkpt>
      <trkpt lat="45.65243" lon="4.56655">
        <ele>782.8</ele>
        <time>2025-04-30T14:59:44Z</time>
      </trkpt>
      <trkpt lat="45.6524" lon="4.56656">
        <ele>782.8</ele>
        <time>2025-04-30T14:59:45Z</time>
      </trkpt>
      <trkpt lat="45.65236" lon="4.56657">
        <ele>782.8</ele>
        <time>2025-04-30T14:59:46Z</time>
      </trkpt>
      <trkpt lat="45.65233" lon="4.56657">
        <ele>783</ele>
        <time>2025-04-30T14:59:47Z</time>
      </trkpt>
      <trkpt lat="45.6523" lon="4.56658">
        <ele>783</ele>
        <time>2025-04-30T14:59:48Z</time>
      </trkpt>
      <trkpt lat="45.65228" lon="4.56659">
        <ele>783</ele>
        <time>2025-04-30T14:59:49Z</time>
      </trkpt>
      <trkpt lat="45.65225" lon="4.5666">
        <ele>783</ele>
        <time>2025-04-30T14:59:50Z</time>
      </trkpt>
      <trkpt lat="45.65223" lon="4.56661">
        <ele>783.2</ele>
        <time>2025-04-30T14:59:51Z</time>
      </trkpt>
      <trkpt lat="45.65221" lon="4.56662">
        <ele>783.2</ele>
        <time>2025-04-30T14:59:52Z</time>
      </trkpt>
      <trkpt lat="45.65218" lon="4.56662">
        <ele>783.4</ele>
        <time>2025-04-30T14:59:53Z</time>
      </trkpt>
      <trkpt lat="45.65215" lon="4.56663">
        <ele>783.4</ele>
        <time>2025-04-30T14:59:54Z</time>
      </trkpt>
      <trkpt lat="45.65212" lon="4.56664">
        <ele>783.4</ele>
        <time>2025-04-30T14:59:55Z</time>
      </trkpt>
      <trkpt lat="45.65209" lon="4.56665">
        <ele>783.4</ele>
        <time>2025-04-30T14:59:56Z</time>
      </trkpt>
      <trkpt lat="45.65205" lon="4.56665">
        <ele>783.6</ele>
        <time>2025-04-30T14:59:57Z</time>
      </trkpt>
      <trkpt lat="45.65202" lon="4.56665">
        <ele>783.6</ele>
        <time>2025-04-30T14:59:58Z</time>
      </trkpt>
      <trkpt lat="45.65198" lon="4.56666">
        <ele>783.6</ele>
        <time>2025-04-30T14:59:59Z</time>
      </trkpt>
      <trkpt lat="45.65194" lon="4.56666">
        <ele>783.8</ele>
        <time>2025-04-30T15:00:00Z</time>
      </trkpt>
      <trkpt lat="45.6519" lon="4.56667">
        <ele>783.8</ele>
        <time>2025-04-30T15:00:01Z</time>
      </trkpt>
      <trkpt lat="45.65187" lon="4.56667">
        <ele>783.8</ele>
        <time>2025-04-30T15:00:02Z</time>
      </trkpt>
      <trkpt lat="45.65183" lon="4.56667">
        <ele>784</ele>
        <time>2025-04-30T15:00:03Z</time>
      </trkpt>
      <trkpt lat="45.65179" lon="4.56667">
        <ele>784.2</ele>
        <time>2025-04-30T15:00:04Z</time>
      </trkpt>
      <trkpt lat="45.65175" lon="4.56666">
        <ele>784.4</ele>
        <time>2025-04-30T15:00:05Z</time>
      </trkpt>
      <trkpt lat="45.65172" lon="4.56666">
        <ele>784.6</ele>
        <time>2025-04-30T15:00:06Z</time>
      </trkpt>
      <trkpt lat="45.65169" lon="4.56665">
        <ele>784.8</ele>
        <time>2025-04-30T15:00:07Z</time>
      </trkpt>
      <trkpt lat="45.65165" lon="4.56665">
        <ele>785.2</ele>
        <time>2025-04-30T15:00:08Z</time>
      </trkpt>
      <trkpt lat="45.65162" lon="4.56665">
        <ele>785.4</ele>
        <time>2025-04-30T15:00:09Z</time>
      </trkpt>
      <trkpt lat="45.65159" lon="4.56665">
        <ele>785.6</ele>
        <time>2025-04-30T15:00:10Z</time>
      </trkpt>
      <trkpt lat="45.65156" lon="4.56664">
        <ele>785.8</ele>
        <time>2025-04-30T15:00:11Z</time>
      </trkpt>
      <trkpt lat="45.65153" lon="4.56664">
        <ele>785.8</ele>
        <time>2025-04-30T15:00:12Z</time>
      </trkpt>
      <trkpt lat="45.6515" lon="4.56664">
        <ele>786.2</ele>
        <time>2025-04-30T15:00:13Z</time>
      </trkpt>
      <trkpt lat="45.65148" lon="4.56664">
        <ele>786.4</ele>
        <time>2025-04-30T15:00:14Z</time>
      </trkpt>
      <trkpt lat="45.65145" lon="4.56663">
        <ele>786.6</ele>
        <time>2025-04-30T15:00:15Z</time>
      </trkpt>
      <trkpt lat="45.65142" lon="4.56663">
        <ele>786.8</ele>
        <time>2025-04-30T15:00:16Z</time>
      </trkpt>
      <trkpt lat="45.6514" lon="4.56663">
        <ele>787.4</ele>
        <time>2025-04-30T15:00:17Z</time>
      </trkpt>
      <trkpt lat="45.65137" lon="4.56665">
        <ele>788</ele>
        <time>2025-04-30T15:00:18Z</time>
      </trkpt>
      <trkpt lat="45.65134" lon="4.56666">
        <ele>788.2</ele>
        <time>2025-04-30T15:00:19Z</time>
      </trkpt>
      <trkpt lat="45.6513" lon="4.56668">
        <ele>788.4</ele>
        <time>2025-04-30T15:00:20Z</time>
      </trkpt>
      <trkpt lat="45.65127" lon="4.56671">
        <ele>788.4</ele>
        <time>2025-04-30T15:00:21Z</time>
      </trkpt>
      <trkpt lat="45.65124" lon="4.56674">
        <ele>788.4</ele>
        <time>2025-04-30T15:00:22Z</time>
      </trkpt>
      <trkpt lat="45.65121" lon="4.56676">
        <ele>788.6</ele>
        <time>2025-04-30T15:00:23Z</time>
      </trkpt>
      <trkpt lat="45.65118" lon="4.56679">
        <ele>788.6</ele>
        <time>2025-04-30T15:00:24Z</time>
      </trkpt>
      <trkpt lat="45.65115" lon="4.56681">
        <ele>788.6</ele>
        <time>2025-04-30T15:00:25Z</time>
      </trkpt>
      <trkpt lat="45.65112" lon="4.56683">
        <ele>788.8</ele>
        <time>2025-04-30T15:00:26Z</time>
      </trkpt>
      <trkpt lat="45.65109" lon="4.56686">
        <ele>788.8</ele>
        <time>2025-04-30T15:00:27Z</time>
      </trkpt>
      <trkpt lat="45.65106" lon="4.56688">
        <ele>789</ele>
        <time>2025-04-30T15:00:28Z</time>
      </trkpt>
      <trkpt lat="45.65103" lon="4.56691">
        <ele>789.2</ele>
        <time>2025-04-30T15:00:29Z</time>
      </trkpt>
      <trkpt lat="45.651" lon="4.56694">
        <ele>789.2</ele>
        <time>2025-04-30T15:00:30Z</time>
      </trkpt>
      <trkpt lat="45.65097" lon="4.56696">
        <ele>789.4</ele>
        <time>2025-04-30T15:00:31Z</time>
      </trkpt>
      <trkpt lat="45.65095" lon="4.56699">
        <ele>789.4</ele>
        <time>2025-04-30T15:00:32Z</time>
      </trkpt>
      <trkpt lat="45.65093" lon="4.56702">
        <ele>789.6</ele>
        <time>2025-04-30T15:00:33Z</time>
      </trkpt>
      <trkpt lat="45.6509" lon="4.56704">
        <ele>789.8</ele>
        <time>2025-04-30T15:00:34Z</time>
      </trkpt>
      <trkpt lat="45.65088" lon="4.56706">
        <ele>790.2</ele>
        <time>2025-04-30T15:00:35Z</time>
      </trkpt>
      <trkpt lat="45.65086" lon="4.56708">
        <ele>790.4</ele>
        <time>2025-04-30T15:00:36Z</time>
      </trkpt>
      <trkpt lat="45.65084" lon="4.56711">
        <ele>790.6</ele>
        <time>2025-04-30T15:00:37Z</time>
      </trkpt>
      <trkpt lat="45.65082" lon="4.56713">
        <ele>790.8</ele>
        <time>2025-04-30T15:00:38Z</time>
      </trkpt>
      <trkpt lat="45.6508" lon="4.56715">
        <ele>791</ele>
        <time>2025-04-30T15:00:39Z</time>
      </trkpt>
      <trkpt lat="45.65078" lon="4.56717">
        <ele>791.2</ele>
        <time>2025-04-30T15:00:40Z</time>
      </trkpt>
      <trkpt lat="45.65075" lon="4.5672">
        <ele>791.4</ele>
        <time>2025-04-30T15:00:41Z</time>
      </trkpt>
      <trkpt lat="45.65073" lon="4.56722">
        <ele>792</ele>
        <time>2025-04-30T15:00:42Z</time>
      </trkpt>
      <trkpt lat="45.65071" lon="4.56725">
        <ele>792</ele>
        <time>2025-04-30T15:00:43Z</time>
      </trkpt>
      <trkpt lat="45.65069" lon="4.56728">
        <ele>792.4</ele>
        <time>2025-04-30T15:00:44Z</time>
      </trkpt>
      <trkpt lat="45.65066" lon="4.5673">
        <ele>792.6</ele>
        <time>2025-04-30T15:00:45Z</time>
      </trkpt>
      <trkpt lat="45.65064" lon="4.56733">
        <ele>792.6</ele>
        <time>2025-04-30T15:00:46Z</time>
      </trkpt>
      <trkpt lat="45.65062" lon="4.56736">
        <ele>792.8</ele>
        <time>2025-04-30T15:00:47Z</time>
      </trkpt>
      <trkpt lat="45.65059" lon="4.56738">
        <ele>793</ele>
        <time>2025-04-30T15:00:48Z</time>
      </trkpt>
      <trkpt lat="45.65057" lon="4.56741">
        <ele>793.2</ele>
        <time>2025-04-30T15:00:49Z</time>
      </trkpt>
      <trkpt lat="45.65054" lon="4.56744">
        <ele>793.4</ele>
        <time>2025-04-30T15:00:50Z</time>
      </trkpt>
      <trkpt lat="45.65052" lon="4.56746">
        <ele>793.6</ele>
        <time>2025-04-30T15:00:51Z</time>
      </trkpt>
      <trkpt lat="45.6505" lon="4.56749">
        <ele>793.8</ele>
        <time>2025-04-30T15:00:52Z</time>
      </trkpt>
      <trkpt lat="45.65048" lon="4.56752">
        <ele>793.8</ele>
        <time>2025-04-30T15:00:53Z</time>
      </trkpt>
      <trkpt lat="45.65045" lon="4.56754">
        <ele>794</ele>
        <time>2025-04-30T15:00:54Z</time>
      </trkpt>
      <trkpt lat="45.65042" lon="4.56756">
        <ele>794.2</ele>
        <time>2025-04-30T15:00:55Z</time>
      </trkpt>
      <trkpt lat="45.6504" lon="4.56759">
        <ele>794.4</ele>
        <time>2025-04-30T15:00:56Z</time>
      </trkpt>
      <trkpt lat="45.65038" lon="4.56762">
        <ele>794.8</ele>
        <time>2025-04-30T15:00:57Z</time>
      </trkpt>
      <trkpt lat="45.65035" lon="4.56764">
        <ele>794.8</ele>
        <time>2025-04-30T15:00:58Z</time>
      </trkpt>
      <trkpt lat="45.65032" lon="4.56767">
        <ele>795</ele>
        <time>2025-04-30T15:00:59Z</time>
      </trkpt>
      <trkpt lat="45.6503" lon="4.5677">
        <ele>795.2</ele>
        <time>2025-04-30T15:01:00Z</time>
      </trkpt>
      <trkpt lat="45.65027" lon="4.56773">
        <ele>795.4</ele>
        <time>2025-04-30T15:01:01Z</time>
      </trkpt>
      <trkpt lat="45.65024" lon="4.56776">
        <ele>795.4</ele>
        <time>2025-04-30T15:01:02Z</time>
      </trkpt>
      <trkpt lat="45.65021" lon="4.56778">
        <ele>795.6</ele>
        <time>2025-04-30T15:01:03Z</time>
      </trkpt>
      <trkpt lat="45.65018" lon="4.56781">
        <ele>795.6</ele>
        <time>2025-04-30T15:01:04Z</time>
      </trkpt>
      <trkpt lat="45.65016" lon="4.56784">
        <ele>795.8</ele>
        <time>2025-04-30T15:01:05Z</time>
      </trkpt>
      <trkpt lat="45.65014" lon="4.56786">
        <ele>795.8</ele>
        <time>2025-04-30T15:01:06Z</time>
      </trkpt>
      <trkpt lat="45.65011" lon="4.56789">
        <ele>795.8</ele>
        <time>2025-04-30T15:01:07Z</time>
      </trkpt>
      <trkpt lat="45.65009" lon="4.56792">
        <ele>796</ele>
        <time>2025-04-30T15:01:08Z</time>
      </trkpt>
      <trkpt lat="45.65006" lon="4.56795">
        <ele>796</ele>
        <time>2025-04-30T15:01:09Z</time>
      </trkpt>
      <trkpt lat="45.65004" lon="4.56799">
        <ele>796.2</ele>
        <time>2025-04-30T15:01:10Z</time>
      </trkpt>
      <trkpt lat="45.65001" lon="4.56802">
        <ele>796.2</ele>
        <time>2025-04-30T15:01:11Z</time>
      </trkpt>
      <trkpt lat="45.64998" lon="4.56806">
        <ele>796.4</ele>
        <time>2025-04-30T15:01:12Z</time>
      </trkpt>
      <trkpt lat="45.64995" lon="4.5681">
        <ele>796.6</ele>
        <time>2025-04-30T15:01:13Z</time>
      </trkpt>
      <trkpt lat="45.64992" lon="4.56814">
        <ele>796.6</ele>
        <time>2025-04-30T15:01:14Z</time>
      </trkpt>
      <trkpt lat="45.64989" lon="4.56817">
        <ele>796.6</ele>
        <time>2025-04-30T15:01:15Z</time>
      </trkpt>
      <trkpt lat="45.64986" lon="4.56821">
        <ele>796.6</ele>
        <time>2025-04-30T15:01:16Z</time>
      </trkpt>
      <trkpt lat="45.64984" lon="4.56825">
        <ele>796.6</ele>
        <time>2025-04-30T15:01:17Z</time>
      </trkpt>
      <trkpt lat="45.64981" lon="4.5683">
        <ele>796.6</ele>
        <time>2025-04-30T15:01:18Z</time>
      </trkpt>
      <trkpt lat="45.64978" lon="4.56834">
        <ele>796.6</ele>
        <time>2025-04-30T15:01:19Z</time>
      </trkpt>
      <trkpt lat="45.64975" lon="4.56838">
        <ele>796.6</ele>
        <time>2025-04-30T15:01:20Z</time>
      </trkpt>
      <trkpt lat="45.64973" lon="4.56842">
        <ele>796.8</ele>
        <time>2025-04-30T15:01:21Z</time>
      </trkpt>
      <trkpt lat="45.6497" lon="4.56846">
        <ele>796.8</ele>
        <time>2025-04-30T15:01:22Z</time>
      </trkpt>
      <trkpt lat="45.64967" lon="4.56851">
        <ele>796.8</ele>
        <time>2025-04-30T15:01:23Z</time>
      </trkpt>
      <trkpt lat="45.64965" lon="4.56856">
        <ele>796.8</ele>
        <time>2025-04-30T15:01:24Z</time>
      </trkpt>
      <trkpt lat="45.64962" lon="4.56861">
        <ele>796.8</ele>
        <time>2025-04-30T15:01:25Z</time>
      </trkpt>
      <trkpt lat="45.64959" lon="4.56866">
        <ele>797</ele>
        <time>2025-04-30T15:01:26Z</time>
      </trkpt>
      <trkpt lat="45.64957" lon="4.56871">
        <ele>797.2</ele>
        <time>2025-04-30T15:01:27Z</time>
      </trkpt>
      <trkpt lat="45.64954" lon="4.56877">
        <ele>797.4</ele>
        <time>2025-04-30T15:01:28Z</time>
      </trkpt>
      <trkpt lat="45.64951" lon="4.56882">
        <ele>797.4</ele>
        <time>2025-04-30T15:01:29Z</time>
      </trkpt>
      <trkpt lat="45.64949" lon="4.56887">
        <ele>797.6</ele>
        <time>2025-04-30T15:01:30Z</time>
      </trkpt>
      <trkpt lat="45.64946" lon="4.56892">
        <ele>797.6</ele>
        <time>2025-04-30T15:01:31Z</time>
      </trkpt>
      <trkpt lat="45.64944" lon="4.56898">
        <ele>797.8</ele>
        <time>2025-04-30T15:01:32Z</time>
      </trkpt>
      <trkpt lat="45.64941" lon="4.56903">
        <ele>798</ele>
        <time>2025-04-30T15:01:33Z</time>
      </trkpt>
      <trkpt lat="45.64938" lon="4.56908">
        <ele>798.2</ele>
        <time>2025-04-30T15:01:34Z</time>
      </trkpt>
      <trkpt lat="45.64936" lon="4.56913">
        <ele>798.2</ele>
        <time>2025-04-30T15:01:35Z</time>
      </trkpt>
      <trkpt lat="45.64933" lon="4.56919">
        <ele>798.2</ele>
        <time>2025-04-30T15:01:36Z</time>
      </trkpt>
      <trkpt lat="45.6493" lon="4.56924">
        <ele>798.4</ele>
        <time>2025-04-30T15:01:37Z</time>
      </trkpt>
      <trkpt lat="45.64928" lon="4.56929">
        <ele>798.4</ele>
        <time>2025-04-30T15:01:38Z</time>
      </trkpt>
      <trkpt lat="45.64925" lon="4.56935">
        <ele>798.4</ele>
        <time>2025-04-30T15:01:39Z</time>
      </trkpt>
      <trkpt lat="45.64922" lon="4.5694">
        <ele>798.4</ele>
        <time>2025-04-30T15:01:40Z</time>
      </trkpt>
      <trkpt lat="45.64919" lon="4.56946">
        <ele>798.4</ele>
        <time>2025-04-30T15:01:41Z</time>
      </trkpt>
      <trkpt lat="45.64917" lon="4.56951">
        <ele>798.4</ele>
        <time>2025-04-30T15:01:42Z</time>
      </trkpt>
      <trkpt lat="45.64914" lon="4.56956">
        <ele>798.4</ele>
        <time>2025-04-30T15:01:43Z</time>
      </trkpt>
      <trkpt lat="45.64911" lon="4.56962">
        <ele>798.2</ele>
        <time>2025-04-30T15:01:44Z</time>
      </trkpt>
      <trkpt lat="45.64908" lon="4.56967">
        <ele>798.2</ele>
        <time>2025-04-30T15:01:45Z</time>
      </trkpt>
      <trkpt lat="45.64906" lon="4.56973">
        <ele>798.2</ele>
        <time>2025-04-30T15:01:46Z</time>
      </trkpt>
      <trkpt lat="45.64903" lon="4.56978">
        <ele>798.2</ele>
        <time>2025-04-30T15:01:47Z</time>
      </trkpt>
      <trkpt lat="45.649" lon="4.56984">
        <ele>798.4</ele>
        <time>2025-04-30T15:01:48Z</time>
      </trkpt>
      <trkpt lat="45.64896" lon="4.56989">
        <ele>798.4</ele>
        <time>2025-04-30T15:01:49Z</time>
      </trkpt>
      <trkpt lat="45.64893" lon="4.56994">
        <ele>798.6</ele>
        <time>2025-04-30T15:01:50Z</time>
      </trkpt>
      <trkpt lat="45.6489" lon="4.56999">
        <ele>798.8</ele>
        <time>2025-04-30T15:01:51Z</time>
      </trkpt>
      <trkpt lat="45.64887" lon="4.57003">
        <ele>798.8</ele>
        <time>2025-04-30T15:01:52Z</time>
      </trkpt>
      <trkpt lat="45.64883" lon="4.57007">
        <ele>799</ele>
        <time>2025-04-30T15:01:53Z</time>
      </trkpt>
      <trkpt lat="45.6488" lon="4.57011">
        <ele>799.2</ele>
        <time>2025-04-30T15:01:54Z</time>
      </trkpt>
      <trkpt lat="45.64877" lon="4.57015">
        <ele>799.4</ele>
        <time>2025-04-30T15:01:55Z</time>
      </trkpt>
      <trkpt lat="45.64873" lon="4.57019">
        <ele>799.6</ele>
        <time>2025-04-30T15:01:56Z</time>
      </trkpt>
      <trkpt lat="45.64869" lon="4.57023">
        <ele>799.6</ele>
        <time>2025-04-30T15:01:57Z</time>
      </trkpt>
      <trkpt lat="45.64866" lon="4.57026">
        <ele>799.8</ele>
        <time>2025-04-30T15:01:58Z</time>
      </trkpt>
      <trkpt lat="45.64863" lon="4.5703">
        <ele>800</ele>
        <time>2025-04-30T15:01:59Z</time>
      </trkpt>
      <trkpt lat="45.64859" lon="4.57034">
        <ele>800.4</ele>
        <time>2025-04-30T15:02:00Z</time>
      </trkpt>
      <trkpt lat="45.64855" lon="4.57038">
        <ele>800.6</ele>
        <time>2025-04-30T15:02:01Z</time>
      </trkpt>
      <trkpt lat="45.64852" lon="4.57042">
        <ele>800.8</ele>
        <time>2025-04-30T15:02:02Z</time>
      </trkpt>
      <trkpt lat="45.64849" lon="4.57046">
        <ele>801</ele>
        <time>2025-04-30T15:02:03Z</time>
      </trkpt>
      <trkpt lat="45.64845" lon="4.5705">
        <ele>801.2</ele>
        <time>2025-04-30T15:02:04Z</time>
      </trkpt>
      <trkpt lat="45.64842" lon="4.57055">
        <ele>801.6</ele>
        <time>2025-04-30T15:02:05Z</time>
      </trkpt>
      <trkpt lat="45.64839" lon="4.57059">
        <ele>801.8</ele>
        <time>2025-04-30T15:02:06Z</time>
      </trkpt>
      <trkpt lat="45.64837" lon="4.57064">
        <ele>802</ele>
        <time>2025-04-30T15:02:07Z</time>
      </trkpt>
      <trkpt lat="45.64833" lon="4.57068">
        <ele>802.2</ele>
        <time>2025-04-30T15:02:08Z</time>
      </trkpt>
      <trkpt lat="45.6483" lon="4.57071">
        <ele>802.4</ele>
        <time>2025-04-30T15:02:09Z</time>
      </trkpt>
      <trkpt lat="45.64828" lon="4.57075">
        <ele>802.6</ele>
        <time>2025-04-30T15:02:10Z</time>
      </trkpt>
      <trkpt lat="45.64826" lon="4.57079">
        <ele>802.8</ele>
        <time>2025-04-30T15:02:11Z</time>
      </trkpt>
      <trkpt lat="45.64824" lon="4.57083">
        <ele>803.2</ele>
        <time>2025-04-30T15:02:12Z</time>
      </trkpt>
      <trkpt lat="45.64822" lon="4.57087">
        <ele>803.6</ele>
        <time>2025-04-30T15:02:13Z</time>
      </trkpt>
      <trkpt lat="45.64819" lon="4.57091">
        <ele>803.8</ele>
        <time>2025-04-30T15:02:14Z</time>
      </trkpt>
      <trkpt lat="45.64816" lon="4.57096">
        <ele>803.8</ele>
        <time>2025-04-30T15:02:15Z</time>
      </trkpt>
      <trkpt lat="45.64813" lon="4.571">
        <ele>804</ele>
        <time>2025-04-30T15:02:16Z</time>
      </trkpt>
      <trkpt lat="45.6481" lon="4.57105">
        <ele>804.2</ele>
        <time>2025-04-30T15:02:17Z</time>
      </trkpt>
      <trkpt lat="45.64807" lon="4.5711">
        <ele>804.2</ele>
        <time>2025-04-30T15:02:18Z</time>
      </trkpt>
      <trkpt lat="45.64804" lon="4.57115">
        <ele>804.2</ele>
        <time>2025-04-30T15:02:19Z</time>
      </trkpt>
      <trkpt lat="45.648" lon="4.57119">
        <ele>804.2</ele>
        <time>2025-04-30T15:02:20Z</time>
      </trkpt>
      <trkpt lat="45.64796" lon="4.57124">
        <ele>804.2</ele>
        <time>2025-04-30T15:02:21Z</time>
      </trkpt>
      <trkpt lat="45.64792" lon="4.57128">
        <ele>804.2</ele>
        <time>2025-04-30T15:02:22Z</time>
      </trkpt>
      <trkpt lat="45.64789" lon="4.57132">
        <ele>804.2</ele>
        <time>2025-04-30T15:02:23Z</time>
      </trkpt>
      <trkpt lat="45.64785" lon="4.57136">
        <ele>804.4</ele>
        <time>2025-04-30T15:02:24Z</time>
      </trkpt>
      <trkpt lat="45.64781" lon="4.5714">
        <ele>804.4</ele>
        <time>2025-04-30T15:02:25Z</time>
      </trkpt>
      <trkpt lat="45.64778" lon="4.57144">
        <ele>804.6</ele>
        <time>2025-04-30T15:02:26Z</time>
      </trkpt>
      <trkpt lat="45.64774" lon="4.57148">
        <ele>804.6</ele>
        <time>2025-04-30T15:02:27Z</time>
      </trkpt>
      <trkpt lat="45.64771" lon="4.57151">
        <ele>804.8</ele>
        <time>2025-04-30T15:02:28Z</time>
      </trkpt>
      <trkpt lat="45.64767" lon="4.57155">
        <ele>805</ele>
        <time>2025-04-30T15:02:29Z</time>
      </trkpt>
      <trkpt lat="45.64763" lon="4.57158">
        <ele>805.2</ele>
        <time>2025-04-30T15:02:30Z</time>
      </trkpt>
      <trkpt lat="45.64759" lon="4.57162">
        <ele>805.4</ele>
        <time>2025-04-30T15:02:31Z</time>
      </trkpt>
      <trkpt lat="45.64755" lon="4.57165">
        <ele>805.4</ele>
        <time>2025-04-30T15:02:32Z</time>
      </trkpt>
      <trkpt lat="45.64751" lon="4.57169">
        <ele>805.4</ele>
        <time>2025-04-30T15:02:33Z</time>
      </trkpt>
      <trkpt lat="45.64747" lon="4.57173">
        <ele>805.4</ele>
        <time>2025-04-30T15:02:34Z</time>
      </trkpt>
      <trkpt lat="45.64742" lon="4.57176">
        <ele>805.4</ele>
        <time>2025-04-30T15:02:35Z</time>
      </trkpt>
      <trkpt lat="45.64737" lon="4.57179">
        <ele>805.4</ele>
        <time>2025-04-30T15:02:36Z</time>
      </trkpt>
      <trkpt lat="45.64733" lon="4.57182">
        <ele>805.2</ele>
        <time>2025-04-30T15:02:37Z</time>
      </trkpt>
      <trkpt lat="45.64728" lon="4.57185">
        <ele>805.2</ele>
        <time>2025-04-30T15:02:38Z</time>
      </trkpt>
      <trkpt lat="45.64724" lon="4.57188">
        <ele>805.2</ele>
        <time>2025-04-30T15:02:39Z</time>
      </trkpt>
      <trkpt lat="45.6472" lon="4.57191">
        <ele>805.2</ele>
        <time>2025-04-30T15:02:40Z</time>
      </trkpt>
      <trkpt lat="45.64715" lon="4.57194">
        <ele>805.6</ele>
        <time>2025-04-30T15:02:41Z</time>
      </trkpt>
      <trkpt lat="45.6471" lon="4.57197">
        <ele>805.8</ele>
        <time>2025-04-30T15:02:42Z</time>
      </trkpt>
      <trkpt lat="45.64705" lon="4.572">
        <ele>806.2</ele>
        <time>2025-04-30T15:02:43Z</time>
      </trkpt>
      <trkpt lat="45.647" lon="4.57204">
        <ele>806.4</ele>
        <time>2025-04-30T15:02:44Z</time>
      </trkpt>
      <trkpt lat="45.64695" lon="4.57207">
        <ele>806.4</ele>
        <time>2025-04-30T15:02:45Z</time>
      </trkpt>
      <trkpt lat="45.6469" lon="4.57211">
        <ele>806.4</ele>
        <time>2025-04-30T15:02:46Z</time>
      </trkpt>
      <trkpt lat="45.64685" lon="4.57214">
        <ele>806.4</ele>
        <time>2025-04-30T15:02:47Z</time>
      </trkpt>
      <trkpt lat="45.6468" lon="4.57218">
        <ele>806.4</ele>
        <time>2025-04-30T15:02:48Z</time>
      </trkpt>
      <trkpt lat="45.64676" lon="4.5722">
        <ele>806.4</ele>
        <time>2025-04-30T15:02:49Z</time>
      </trkpt>
      <trkpt lat="45.64671" lon="4.57223">
        <ele>806.4</ele>
        <time>2025-04-30T15:02:50Z</time>
      </trkpt>
      <trkpt lat="45.64667" lon="4.57226">
        <ele>806.4</ele>
        <time>2025-04-30T15:02:51Z</time>
      </trkpt>
      <trkpt lat="45.64662" lon="4.57229">
        <ele>806.6</ele>
        <time>2025-04-30T15:02:52Z</time>
      </trkpt>
      <trkpt lat="45.64658" lon="4.57232">
        <ele>806.6</ele>
        <time>2025-04-30T15:02:53Z</time>
      </trkpt>
      <trkpt lat="45.64653" lon="4.57235">
        <ele>806.6</ele>
        <time>2025-04-30T15:02:54Z</time>
      </trkpt>
      <trkpt lat="45.64649" lon="4.57238">
        <ele>806.6</ele>
        <time>2025-04-30T15:02:55Z</time>
      </trkpt>
      <trkpt lat="45.64644" lon="4.57241">
        <ele>806.6</ele>
        <time>2025-04-30T15:02:56Z</time>
      </trkpt>
      <trkpt lat="45.6464" lon="4.57245">
        <ele>806.6</ele>
        <time>2025-04-30T15:02:57Z</time>
      </trkpt>
      <trkpt lat="45.64636" lon="4.57248">
        <ele>806.6</ele>
        <time>2025-04-30T15:02:58Z</time>
      </trkpt>
      <trkpt lat="45.64631" lon="4.57251">
        <ele>806.6</ele>
        <time>2025-04-30T15:02:59Z</time>
      </trkpt>
      <trkpt lat="45.64627" lon="4.57255">
        <ele>806.6</ele>
        <time>2025-04-30T15:03:00Z</time>
      </trkpt>
      <trkpt lat="45.64622" lon="4.57258">
        <ele>806.6</ele>
        <time>2025-04-30T15:03:01Z</time>
      </trkpt>
      <trkpt lat="45.64618" lon="4.57262">
        <ele>806.6</ele>
        <time>2025-04-30T15:03:02Z</time>
      </trkpt>
      <trkpt lat="45.64613" lon="4.57265">
        <ele>806.4</ele>
        <time>2025-04-30T15:03:03Z</time>
      </trkpt>
      <trkpt lat="45.64608" lon="4.57269">
        <ele>806.2</ele>
        <time>2025-04-30T15:03:04Z</time>
      </trkpt>
      <trkpt lat="45.64603" lon="4.57273">
        <ele>806.2</ele>
        <time>2025-04-30T15:03:05Z</time>
      </trkpt>
      <trkpt lat="45.64598" lon="4.57276">
        <ele>805.6</ele>
        <time>2025-04-30T15:03:06Z</time>
      </trkpt>
      <trkpt lat="45.64594" lon="4.5728">
        <ele>805.4</ele>
        <time>2025-04-30T15:03:07Z</time>
      </trkpt>
      <trkpt lat="45.64589" lon="4.57284">
        <ele>805.4</ele>
        <time>2025-04-30T15:03:08Z</time>
      </trkpt>
      <trkpt lat="45.64584" lon="4.57288">
        <ele>805.2</ele>
        <time>2025-04-30T15:03:09Z</time>
      </trkpt>
      <trkpt lat="45.64579" lon="4.57292">
        <ele>805</ele>
        <time>2025-04-30T15:03:10Z</time>
      </trkpt>
      <trkpt lat="45.64574" lon="4.57296">
        <ele>804.8</ele>
        <time>2025-04-30T15:03:11Z</time>
      </trkpt>
      <trkpt lat="45.64569" lon="4.573">
        <ele>804.4</ele>
        <time>2025-04-30T15:03:12Z</time>
      </trkpt>
      <trkpt lat="45.64564" lon="4.57304">
        <ele>804.2</ele>
        <time>2025-04-30T15:03:13Z</time>
      </trkpt>
      <trkpt lat="45.64558" lon="4.57308">
        <ele>803.8</ele>
        <time>2025-04-30T15:03:14Z</time>
      </trkpt>
      <trkpt lat="45.64553" lon="4.57312">
        <ele>803.6</ele>
        <time>2025-04-30T15:03:15Z</time>
      </trkpt>
      <trkpt lat="45.64548" lon="4.57316">
        <ele>803.4</ele>
        <time>2025-04-30T15:03:16Z</time>
      </trkpt>
      <trkpt lat="45.64543" lon="4.57319">
        <ele>803</ele>
        <time>2025-04-30T15:03:17Z</time>
      </trkpt>
      <trkpt lat="45.64538" lon="4.57323">
        <ele>803</ele>
        <time>2025-04-30T15:03:18Z</time>
      </trkpt>
      <trkpt lat="45.64533" lon="4.57328">
        <ele>802.8</ele>
        <time>2025-04-30T15:03:19Z</time>
      </trkpt>
      <trkpt lat="45.64527" lon="4.57333">
        <ele>802.4</ele>
        <time>2025-04-30T15:03:20Z</time>
      </trkpt>
      <trkpt lat="45.64521" lon="4.57337">
        <ele>802.2</ele>
        <time>2025-04-30T15:03:21Z</time>
      </trkpt>
      <trkpt lat="45.64515" lon="4.57342">
        <ele>801.4</ele>
        <time>2025-04-30T15:03:22Z</time>
      </trkpt>
      <trkpt lat="45.64508" lon="4.57348">
        <ele>800.8</ele>
        <time>2025-04-30T15:03:23Z</time>
      </trkpt>
      <trkpt lat="45.64501" lon="4.57353">
        <ele>800.2</ele>
        <time>2025-04-30T15:03:24Z</time>
      </trkpt>
      <trkpt lat="45.64493" lon="4.57359">
        <ele>799.2</ele>
        <time>2025-04-30T15:03:25Z</time>
      </trkpt>
      <trkpt lat="45.64486" lon="4.57365">
        <ele>798</ele>
        <time>2025-04-30T15:03:26Z</time>
      </trkpt>
      <trkpt lat="45.64479" lon="4.57371">
        <ele>797.4</ele>
        <time>2025-04-30T15:03:27Z</time>
      </trkpt>
      <trkpt lat="45.64471" lon="4.57376">
        <ele>796.2</ele>
        <time>2025-04-30T15:03:28Z</time>
      </trkpt>
      <trkpt lat="45.64463" lon="4.57381">
        <ele>795</ele>
        <time>2025-04-30T15:03:29Z</time>
      </trkpt>
      <trkpt lat="45.64455" lon="4.57383">
        <ele>794.6</ele>
        <time>2025-04-30T15:03:30Z</time>
      </trkpt>
      <trkpt lat="45.64447" lon="4.57385">
        <ele>794.2</ele>
        <time>2025-04-30T15:03:31Z</time>
      </trkpt>
      <trkpt lat="45.64438" lon="4.57385">
        <ele>793.2</ele>
        <time>2025-04-30T15:03:32Z</time>
      </trkpt>
      <trkpt lat="45.6443" lon="4.57384">
        <ele>793</ele>
        <time>2025-04-30T15:03:33Z</time>
      </trkpt>
      <trkpt lat="45.64422" lon="4.57382">
        <ele>792.4</ele>
        <time>2025-04-30T15:03:34Z</time>
      </trkpt>
      <trkpt lat="45.64416" lon="4.5738">
        <ele>791.6</ele>
        <time>2025-04-30T15:03:35Z</time>
      </trkpt>
      <trkpt lat="45.6441" lon="4.57378">
        <ele>791.4</ele>
        <time>2025-04-30T15:03:36Z</time>
      </trkpt>
      <trkpt lat="45.64405" lon="4.57376">
        <ele>791.2</ele>
        <time>2025-04-30T15:03:37Z</time>
      </trkpt>
      <trkpt lat="45.64401" lon="4.57375">
        <ele>791.2</ele>
        <time>2025-04-30T15:03:38Z</time>
      </trkpt>
      <trkpt lat="45.64398" lon="4.57373">
        <ele>790.6</ele>
        <time>2025-04-30T15:03:39Z</time>
      </trkpt>
      <trkpt lat="45.64395" lon="4.57372">
        <ele>790.6</ele>
        <time>2025-04-30T15:03:40Z</time>
      </trkpt>
      <trkpt lat="45.64393" lon="4.5737">
        <ele>790.4</ele>
        <time>2025-04-30T15:03:41Z</time>
      </trkpt>
      <trkpt lat="45.64393" lon="4.5737">
        <ele>790.4</ele>
        <time>2025-04-30T15:03:42Z</time>
      </trkpt>
      <trkpt lat="45.64393" lon="4.5737">
        <ele>790.4</ele>
        <time>2025-04-30T15:03:43Z</time>
      </trkpt>
      <trkpt lat="45.64393" lon="4.5737">
        <ele>790.4</ele>
        <time>2025-04-30T15:03:44Z</time>
      </trkpt>
      <trkpt lat="45.64393" lon="4.5737">
        <ele>790.4</ele>
        <time>2025-04-30T15:03:45Z</time>
      </trkpt>
      <trkpt lat="45.64393" lon="4.5737">
        <ele>790.4</ele>
        <time>2025-04-30T15:03:46Z</time>
      </trkpt>
      <trkpt lat="45.64393" lon="4.5737">
        <ele>790.4</ele>
        <time>2025-04-30T15:03:47Z</time>
      </trkpt>
      <trkpt lat="45.64393" lon="4.5737">
        <ele>790.4</ele>
        <time>2025-04-30T15:03:48Z</time>
      </trkpt>
      <trkpt lat="45.64393" lon="4.5737">
        <ele>790.4</ele>
        <time>2025-04-30T15:03:49Z</time>
      </trkpt>
      <trkpt lat="45.64393" lon="4.5737">
        <ele>790.4</ele>
        <time>2025-04-30T15:03:50Z</time>
      </trkpt>
      <trkpt lat="45.64393" lon="4.5737">
        <ele>790.4</ele>
        <time>2025-04-30T15:03:51Z</time>
      </trkpt>
      <trkpt lat="45.64393" lon="4.5737">
        <ele>790.4</ele>
        <time>2025-04-30T15:03:52Z</time>
      </trkpt>
      <trkpt lat="45.64393" lon="4.5737">
        <ele>791</ele>
        <time>2025-04-30T15:03:53Z</time>
      </trkpt>
      <trkpt lat="45.64393" lon="4.5737">
        <ele>791</ele>
        <time>2025-04-30T15:03:54Z</time>
      </trkpt>
      <trkpt lat="45.64392" lon="4.5737">
        <ele>791</ele>
        <time>2025-04-30T15:03:55Z</time>
      </trkpt>
      <trkpt lat="45.64391" lon="4.5737">
        <ele>791</ele>
        <time>2025-04-30T15:03:56Z</time>
      </trkpt>
      <trkpt lat="45.6439" lon="4.5737">
        <ele>790.8</ele>
        <time>2025-04-30T15:03:57Z</time>
      </trkpt>
      <trkpt lat="45.6439" lon="4.57372">
        <ele>790.6</ele>
        <time>2025-04-30T15:03:58Z</time>
      </trkpt>
      <trkpt lat="45.64389" lon="4.57373">
        <ele>790.4</ele>
        <time>2025-04-30T15:03:59Z</time>
      </trkpt>
      <trkpt lat="45.64388" lon="4.57374">
        <ele>790.2</ele>
        <time>2025-04-30T15:04:00Z</time>
      </trkpt>
      <trkpt lat="45.64387" lon="4.57375">
        <ele>790</ele>
        <time>2025-04-30T15:04:01Z</time>
      </trkpt>
      <trkpt lat="45.64385" lon="4.57377">
        <ele>789.8</ele>
        <time>2025-04-30T15:04:02Z</time>
      </trkpt>
      <trkpt lat="45.64383" lon="4.57379">
        <ele>789.4</ele>
        <time>2025-04-30T15:04:03Z</time>
      </trkpt>
      <trkpt lat="45.6438" lon="4.57382">
        <ele>789.2</ele>
        <time>2025-04-30T15:04:04Z</time>
      </trkpt>
      <trkpt lat="45.64377" lon="4.57384">
        <ele>788.8</ele>
        <time>2025-04-30T15:04:05Z</time>
      </trkpt>
      <trkpt lat="45.64373" lon="4.57388">
        <ele>787.8</ele>
        <time>2025-04-30T15:04:06Z</time>
      </trkpt>
      <trkpt lat="45.6437" lon="4.57391">
        <ele>786.8</ele>
        <time>2025-04-30T15:04:07Z</time>
      </trkpt>
      <trkpt lat="45.64367" lon="4.57395">
        <ele>785.8</ele>
        <time>2025-04-30T15:04:08Z</time>
      </trkpt>
      <trkpt lat="45.64364" lon="4.57399">
        <ele>785.2</ele>
        <time>2025-04-30T15:04:09Z</time>
      </trkpt>
      <trkpt lat="45.64361" lon="4.57403">
        <ele>784.8</ele>
        <time>2025-04-30T15:04:10Z</time>
      </trkpt>
      <trkpt lat="45.64359" lon="4.57406">
        <ele>784</ele>
        <time>2025-04-30T15:04:11Z</time>
      </trkpt>
      <trkpt lat="45.64357" lon="4.57409">
        <ele>783.8</ele>
        <time>2025-04-30T15:04:12Z</time>
      </trkpt>
      <trkpt lat="45.64354" lon="4.57412">
        <ele>783.4</ele>
        <time>2025-04-30T15:04:13Z</time>
      </trkpt>
      <trkpt lat="45.6435" lon="4.57413">
        <ele>782.6</ele>
        <time>2025-04-30T15:04:14Z</time>
      </trkpt>
      <trkpt lat="45.64345" lon="4.57416">
        <ele>782.6</ele>
        <time>2025-04-30T15:04:15Z</time>
      </trkpt>
      <trkpt lat="45.6434" lon="4.57418">
        <ele>782</ele>
        <time>2025-04-30T15:04:16Z</time>
      </trkpt>
      <trkpt lat="45.64334" lon="4.5742">
        <ele>780.8</ele>
        <time>2025-04-30T15:04:17Z</time>
      </trkpt>
      <trkpt lat="45.64328" lon="4.57422">
        <ele>779.8</ele>
        <time>2025-04-30T15:04:18Z</time>
      </trkpt>
      <trkpt lat="45.64322" lon="4.57424">
        <ele>778.8</ele>
        <time>2025-04-30T15:04:19Z</time>
      </trkpt>
      <trkpt lat="45.64315" lon="4.57425">
        <ele>778.2</ele>
        <time>2025-04-30T15:04:20Z</time>
      </trkpt>
      <trkpt lat="45.6431" lon="4.57426">
        <ele>777.6</ele>
        <time>2025-04-30T15:04:21Z</time>
      </trkpt>
      <trkpt lat="45.64304" lon="4.57427">
        <ele>777.4</ele>
        <time>2025-04-30T15:04:22Z</time>
      </trkpt>
      <trkpt lat="45.643" lon="4.57428">
        <ele>777.2</ele>
        <time>2025-04-30T15:04:23Z</time>
      </trkpt>
      <trkpt lat="45.64296" lon="4.57429">
        <ele>777.2</ele>
        <time>2025-04-30T15:04:24Z</time>
      </trkpt>
      <trkpt lat="45.64292" lon="4.5743">
        <ele>777.2</ele>
        <time>2025-04-30T15:04:25Z</time>
      </trkpt>
      <trkpt lat="45.64289" lon="4.57431">
        <ele>777.4</ele>
        <time>2025-04-30T15:04:26Z</time>
      </trkpt>
      <trkpt lat="45.64286" lon="4.57431">
        <ele>777.8</ele>
        <time>2025-04-30T15:04:27Z</time>
      </trkpt>
      <trkpt lat="45.64285" lon="4.57431">
        <ele>778.4</ele>
        <time>2025-04-30T15:04:28Z</time>
      </trkpt>
      <trkpt lat="45.64285" lon="4.57431">
        <ele>778.6</ele>
        <time>2025-04-30T15:04:29Z</time>
      </trkpt>
      <trkpt lat="45.64285" lon="4.57431">
        <ele>779</ele>
        <time>2025-04-30T15:04:30Z</time>
      </trkpt>
      <trkpt lat="45.64285" lon="4.57431">
        <ele>779.6</ele>
        <time>2025-04-30T15:04:31Z</time>
      </trkpt>
      <trkpt lat="45.64285" lon="4.57431">
        <ele>779.8</ele>
        <time>2025-04-30T15:04:32Z</time>
      </trkpt>
      <trkpt lat="45.64285" lon="4.57431">
        <ele>780</ele>
        <time>2025-04-30T15:04:33Z</time>
      </trkpt>
      <trkpt lat="45.64285" lon="4.57431">
        <ele>780</ele>
        <time>2025-04-30T15:04:34Z</time>
      </trkpt>
      <trkpt lat="45.64285" lon="4.57431">
        <ele>780</ele>
        <time>2025-04-30T15:04:35Z</time>
      </trkpt>
      <trkpt lat="45.64285" lon="4.57431">
        <ele>780.2</ele>
        <time>2025-04-30T15:04:36Z</time>
      </trkpt>
      <trkpt lat="45.64285" lon="4.57431">
        <ele>780.2</ele>
        <time>2025-04-30T15:04:37Z</time>
      </trkpt>
      <trkpt lat="45.64285" lon="4.57431">
        <ele>780.2</ele>
        <time>2025-04-30T15:04:38Z</time>
      </trkpt>
      <trkpt lat="45.64285" lon="4.57431">
        <ele>780.2</ele>
        <time>2025-04-30T15:04:39Z</time>
      </trkpt>
      <trkpt lat="45.64285" lon="4.57431">
        <ele>780.2</ele>
        <time>2025-04-30T15:04:40Z</time>
      </trkpt>
      <trkpt lat="45.64285" lon="4.57431">
        <ele>780</ele>
        <time>2025-04-30T15:04:41Z</time>
      </trkpt>
      <trkpt lat="45.64285" lon="4.57431">
        <ele>780</ele>
        <time>2025-04-30T15:04:42Z</time>
      </trkpt>
      <trkpt lat="45.64285" lon="4.57431">
        <ele>779.8</ele>
        <time>2025-04-30T15:04:43Z</time>
      </trkpt>
      <trkpt lat="45.64285" lon="4.57431">
        <ele>779.8</ele>
        <time>2025-04-30T15:04:44Z</time>
      </trkpt>
      <trkpt lat="45.64285" lon="4.57431">
        <ele>779.8</ele>
        <time>2025-04-30T15:04:45Z</time>
      </trkpt>
      <trkpt lat="45.64285" lon="4.57431">
        <ele>779.8</ele>
        <time>2025-04-30T15:04:46Z</time>
      </trkpt>
      <trkpt lat="45.64285" lon="4.57431">
        <ele>779.8</ele>
        <time>2025-04-30T15:04:47Z</time>
      </trkpt>
      <trkpt lat="45.64285" lon="4.57431">
        <ele>779.8</ele>
        <time>2025-04-30T15:04:48Z</time>
      </trkpt>
      <trkpt lat="45.64285" lon="4.57431">
        <ele>779.8</ele>
        <time>2025-04-30T15:04:49Z</time>
      </trkpt>
      <trkpt lat="45.64285" lon="4.57431">
        <ele>779.8</ele>
        <time>2025-04-30T15:04:50Z</time>
      </trkpt>
      <trkpt lat="45.64285" lon="4.57431">
        <ele>779.8</ele>
        <time>2025-04-30T15:04:51Z</time>
      </trkpt>
      <trkpt lat="45.64284" lon="4.57431">
        <ele>779.8</ele>
        <time>2025-04-30T15:04:52Z</time>
      </trkpt>
      <trkpt lat="45.64282" lon="4.57431">
        <ele>779.6</ele>
        <time>2025-04-30T15:04:53Z</time>
      </trkpt>
      <trkpt lat="45.64279" lon="4.57431">
        <ele>779.6</ele>
        <time>2025-04-30T15:04:54Z</time>
      </trkpt>
      <trkpt lat="45.64277" lon="4.57432">
        <ele>779.6</ele>
        <time>2025-04-30T15:04:55Z</time>
      </trkpt>
      <trkpt lat="45.64273" lon="4.57432">
        <ele>779.6</ele>
        <time>2025-04-30T15:04:56Z</time>
      </trkpt>
      <trkpt lat="45.6427" lon="4.57433">
        <ele>779.2</ele>
        <time>2025-04-30T15:04:57Z</time>
      </trkpt>
      <trkpt lat="45.64266" lon="4.57435">
        <ele>779</ele>
        <time>2025-04-30T15:04:58Z</time>
      </trkpt>
      <trkpt lat="45.64261" lon="4.57437">
        <ele>778.6</ele>
        <time>2025-04-30T15:04:59Z</time>
      </trkpt>
      <trkpt lat="45.64256" lon="4.57439">
        <ele>778.6</ele>
        <time>2025-04-30T15:05:00Z</time>
      </trkpt>
      <trkpt lat="45.64252" lon="4.5744">
        <ele>778.6</ele>
        <time>2025-04-30T15:05:01Z</time>
      </trkpt>
      <trkpt lat="45.64247" lon="4.57442">
        <ele>778.6</ele>
        <time>2025-04-30T15:05:02Z</time>
      </trkpt>
      <trkpt lat="45.64242" lon="4.57444">
        <ele>778.6</ele>
        <time>2025-04-30T15:05:03Z</time>
      </trkpt>
      <trkpt lat="45.64238" lon="4.57447">
        <ele>778.8</ele>
        <time>2025-04-30T15:05:04Z</time>
      </trkpt>
      <trkpt lat="45.64234" lon="4.57448">
        <ele>779</ele>
        <time>2025-04-30T15:05:05Z</time>
      </trkpt>
      <trkpt lat="45.64231" lon="4.57449">
        <ele>779.8</ele>
        <time>2025-04-30T15:05:06Z</time>
      </trkpt>
      <trkpt lat="45.64228" lon="4.57449">
        <ele>780.4</ele>
        <time>2025-04-30T15:05:07Z</time>
      </trkpt>
      <trkpt lat="45.64227" lon="4.5745">
        <ele>780.6</ele>
        <time>2025-04-30T15:05:08Z</time>
      </trkpt>
      <trkpt lat="45.64224" lon="4.57451">
        <ele>781</ele>
        <time>2025-04-30T15:05:09Z</time>
      </trkpt>
      <trkpt lat="45.64222" lon="4.57451">
        <ele>781.6</ele>
        <time>2025-04-30T15:05:10Z</time>
      </trkpt>
      <trkpt lat="45.64219" lon="4.57452">
        <ele>782</ele>
        <time>2025-04-30T15:05:11Z</time>
      </trkpt>
      <trkpt lat="45.64216" lon="4.57453">
        <ele>782.4</ele>
        <time>2025-04-30T15:05:12Z</time>
      </trkpt>
      <trkpt lat="45.64212" lon="4.57453">
        <ele>782.8</ele>
        <time>2025-04-30T15:05:13Z</time>
      </trkpt>
      <trkpt lat="45.64208" lon="4.57454">
        <ele>783</ele>
        <time>2025-04-30T15:05:14Z</time>
      </trkpt>
      <trkpt lat="45.64204" lon="4.57455">
        <ele>783</ele>
        <time>2025-04-30T15:05:15Z</time>
      </trkpt>
      <trkpt lat="45.642" lon="4.57456">
        <ele>783.4</ele>
        <time>2025-04-30T15:05:16Z</time>
      </trkpt>
      <trkpt lat="45.64196" lon="4.57457">
        <ele>783.6</ele>
        <time>2025-04-30T15:05:17Z</time>
      </trkpt>
      <trkpt lat="45.64193" lon="4.57457">
        <ele>783.8</ele>
        <time>2025-04-30T15:05:18Z</time>
      </trkpt>
      <trkpt lat="45.6419" lon="4.57457">
        <ele>784.2</ele>
        <time>2025-04-30T15:05:19Z</time>
      </trkpt>
      <trkpt lat="45.64187" lon="4.57458">
        <ele>784.4</ele>
        <time>2025-04-30T15:05:20Z</time>
      </trkpt>
      <trkpt lat="45.64184" lon="4.57459">
        <ele>785</ele>
        <time>2025-04-30T15:05:21Z</time>
      </trkpt>
      <trkpt lat="45.64181" lon="4.57461">
        <ele>785.2</ele>
        <time>2025-04-30T15:05:22Z</time>
      </trkpt>
      <trkpt lat="45.64178" lon="4.57463">
        <ele>785.6</ele>
        <time>2025-04-30T15:05:23Z</time>
      </trkpt>
      <trkpt lat="45.64175" lon="4.57465">
        <ele>785.8</ele>
        <time>2025-04-30T15:05:24Z</time>
      </trkpt>
      <trkpt lat="45.64172" lon="4.57466">
        <ele>786</ele>
        <time>2025-04-30T15:05:25Z</time>
      </trkpt>
      <trkpt lat="45.64169" lon="4.57467">
        <ele>786</ele>
        <time>2025-04-30T15:05:26Z</time>
      </trkpt>
      <trkpt lat="45.64165" lon="4.57468">
        <ele>786.2</ele>
        <time>2025-04-30T15:05:27Z</time>
      </trkpt>
      <trkpt lat="45.64162" lon="4.5747">
        <ele>786.4</ele>
        <time>2025-04-30T15:05:28Z</time>
      </trkpt>
      <trkpt lat="45.64159" lon="4.57472">
        <ele>786.8</ele>
        <time>2025-04-30T15:05:29Z</time>
      </trkpt>
      <trkpt lat="45.64157" lon="4.57473">
        <ele>786.8</ele>
        <time>2025-04-30T15:05:30Z</time>
      </trkpt>
      <trkpt lat="45.64155" lon="4.57475">
        <ele>787</ele>
        <time>2025-04-30T15:05:31Z</time>
      </trkpt>
      <trkpt lat="45.64153" lon="4.57477">
        <ele>787.6</ele>
        <time>2025-04-30T15:05:32Z</time>
      </trkpt>
      <trkpt lat="45.64151" lon="4.57478">
        <ele>788</ele>
        <time>2025-04-30T15:05:33Z</time>
      </trkpt>
      <trkpt lat="45.64148" lon="4.57479">
        <ele>788.2</ele>
        <time>2025-04-30T15:05:34Z</time>
      </trkpt>
      <trkpt lat="45.64145" lon="4.5748">
        <ele>788.4</ele>
        <time>2025-04-30T15:05:35Z</time>
      </trkpt>
      <trkpt lat="45.64143" lon="4.57482">
        <ele>788.8</ele>
        <time>2025-04-30T15:05:36Z</time>
      </trkpt>
      <trkpt lat="45.64141" lon="4.57483">
        <ele>788.8</ele>
        <time>2025-04-30T15:05:37Z</time>
      </trkpt>
      <trkpt lat="45.64138" lon="4.57484">
        <ele>789</ele>
        <time>2025-04-30T15:05:38Z</time>
      </trkpt>
      <trkpt lat="45.64135" lon="4.57486">
        <ele>789.2</ele>
        <time>2025-04-30T15:05:39Z</time>
      </trkpt>
      <trkpt lat="45.64133" lon="4.57487">
        <ele>789.2</ele>
        <time>2025-04-30T15:05:40Z</time>
      </trkpt>
      <trkpt lat="45.6413" lon="4.57488">
        <ele>789.4</ele>
        <time>2025-04-30T15:05:41Z</time>
      </trkpt>
      <trkpt lat="45.64128" lon="4.5749">
        <ele>789.6</ele>
        <time>2025-04-30T15:05:42Z</time>
      </trkpt>
      <trkpt lat="45.64125" lon="4.57492">
        <ele>789.8</ele>
        <time>2025-04-30T15:05:43Z</time>
      </trkpt>
      <trkpt lat="45.64123" lon="4.57493">
        <ele>790</ele>
        <time>2025-04-30T15:05:44Z</time>
      </trkpt>
      <trkpt lat="45.6412" lon="4.57495">
        <ele>790</ele>
        <time>2025-04-30T15:05:45Z</time>
      </trkpt>
      <trkpt lat="45.64117" lon="4.57497">
        <ele>790.2</ele>
        <time>2025-04-30T15:05:46Z</time>
      </trkpt>
      <trkpt lat="45.64115" lon="4.57499">
        <ele>790.4</ele>
        <time>2025-04-30T15:05:47Z</time>
      </trkpt>
      <trkpt lat="45.64113" lon="4.575">
        <ele>790.6</ele>
        <time>2025-04-30T15:05:48Z</time>
      </trkpt>
      <trkpt lat="45.6411" lon="4.57502">
        <ele>790.8</ele>
        <time>2025-04-30T15:05:49Z</time>
      </trkpt>
      <trkpt lat="45.64107" lon="4.57504">
        <ele>790.8</ele>
        <time>2025-04-30T15:05:50Z</time>
      </trkpt>
      <trkpt lat="45.64105" lon="4.57505">
        <ele>791</ele>
        <time>2025-04-30T15:05:51Z</time>
      </trkpt>
      <trkpt lat="45.64103" lon="4.57506">
        <ele>791.4</ele>
        <time>2025-04-30T15:05:52Z</time>
      </trkpt>
      <trkpt lat="45.641" lon="4.57507">
        <ele>791.4</ele>
        <time>2025-04-30T15:05:53Z</time>
      </trkpt>
      <trkpt lat="45.64097" lon="4.57508">
        <ele>791.6</ele>
        <time>2025-04-30T15:05:54Z</time>
      </trkpt>
      <trkpt lat="45.64095" lon="4.57509">
        <ele>791.6</ele>
        <time>2025-04-30T15:05:55Z</time>
      </trkpt>
      <trkpt lat="45.64093" lon="4.5751">
        <ele>791.8</ele>
        <time>2025-04-30T15:05:56Z</time>
      </trkpt>
      <trkpt lat="45.64091" lon="4.5751">
        <ele>792</ele>
        <time>2025-04-30T15:05:57Z</time>
      </trkpt>
      <trkpt lat="45.64088" lon="4.57511">
        <ele>792.4</ele>
        <time>2025-04-30T15:05:58Z</time>
      </trkpt>
      <trkpt lat="45.64086" lon="4.5751">
        <ele>792.6</ele>
        <time>2025-04-30T15:05:59Z</time>
      </trkpt>
      <trkpt lat="45.64083" lon="4.57509">
        <ele>792.8</ele>
        <time>2025-04-30T15:06:00Z</time>
      </trkpt>
      <trkpt lat="45.64081" lon="4.57508">
        <ele>793</ele>
        <time>2025-04-30T15:06:01Z</time>
      </trkpt>
      <trkpt lat="45.64079" lon="4.57507">
        <ele>793.2</ele>
        <time>2025-04-30T15:06:02Z</time>
      </trkpt>
      <trkpt lat="45.64077" lon="4.57506">
        <ele>793.2</ele>
        <time>2025-04-30T15:06:03Z</time>
      </trkpt>
      <trkpt lat="45.64074" lon="4.57505">
        <ele>793.2</ele>
        <time>2025-04-30T15:06:04Z</time>
      </trkpt>
      <trkpt lat="45.64071" lon="4.57505">
        <ele>793.4</ele>
        <time>2025-04-30T15:06:05Z</time>
      </trkpt>
      <trkpt lat="45.64069" lon="4.57505">
        <ele>793.4</ele>
        <time>2025-04-30T15:06:06Z</time>
      </trkpt>
      <trkpt lat="45.64066" lon="4.57504">
        <ele>793.6</ele>
        <time>2025-04-30T15:06:07Z</time>
      </trkpt>
      <trkpt lat="45.64063" lon="4.57504">
        <ele>793.8</ele>
        <time>2025-04-30T15:06:08Z</time>
      </trkpt>
      <trkpt lat="45.6406" lon="4.57504">
        <ele>794</ele>
        <time>2025-04-30T15:06:09Z</time>
      </trkpt>
      <trkpt lat="45.64058" lon="4.57504">
        <ele>794</ele>
        <time>2025-04-30T15:06:10Z</time>
      </trkpt>
      <trkpt lat="45.64056" lon="4.57503">
        <ele>794</ele>
        <time>2025-04-30T15:06:11Z</time>
      </trkpt>
      <trkpt lat="45.64053" lon="4.57503">
        <ele>794.2</ele>
        <time>2025-04-30T15:06:12Z</time>
      </trkpt>
      <trkpt lat="45.64051" lon="4.57502">
        <ele>794.4</ele>
        <time>2025-04-30T15:06:13Z</time>
      </trkpt>
      <trkpt lat="45.64048" lon="4.57502">
        <ele>794.6</ele>
        <time>2025-04-30T15:06:14Z</time>
      </trkpt>
      <trkpt lat="45.64045" lon="4.57502">
        <ele>794.8</ele>
        <time>2025-04-30T15:06:15Z</time>
      </trkpt>
      <trkpt lat="45.64042" lon="4.57502">
        <ele>795</ele>
        <time>2025-04-30T15:06:16Z</time>
      </trkpt>
      <trkpt lat="45.6404" lon="4.57502">
        <ele>795</ele>
        <time>2025-04-30T15:06:17Z</time>
      </trkpt>
      <trkpt lat="45.64039" lon="4.57502">
        <ele>795.2</ele>
        <time>2025-04-30T15:06:18Z</time>
      </trkpt>
      <trkpt lat="45.64036" lon="4.57502">
        <ele>795.4</ele>
        <time>2025-04-30T15:06:19Z</time>
      </trkpt>
      <trkpt lat="45.64034" lon="4.57501">
        <ele>795.6</ele>
        <time>2025-04-30T15:06:20Z</time>
      </trkpt>
      <trkpt lat="45.64032" lon="4.57502">
        <ele>795.8</ele>
        <time>2025-04-30T15:06:21Z</time>
      </trkpt>
      <trkpt lat="45.64031" lon="4.57501">
        <ele>796</ele>
        <time>2025-04-30T15:06:22Z</time>
      </trkpt>
      <trkpt lat="45.64028" lon="4.57502">
        <ele>796</ele>
        <time>2025-04-30T15:06:23Z</time>
      </trkpt>
      <trkpt lat="45.64026" lon="4.57502">
        <ele>796.2</ele>
        <time>2025-04-30T15:06:24Z</time>
      </trkpt>
      <trkpt lat="45.64024" lon="4.57503">
        <ele>796.4</ele>
        <time>2025-04-30T15:06:25Z</time>
      </trkpt>
      <trkpt lat="45.64022" lon="4.57503">
        <ele>796.8</ele>
        <time>2025-04-30T15:06:26Z</time>
      </trkpt>
      <trkpt lat="45.6402" lon="4.57503">
        <ele>797</ele>
        <time>2025-04-30T15:06:27Z</time>
      </trkpt>
      <trkpt lat="45.64019" lon="4.57504">
        <ele>797.2</ele>
        <time>2025-04-30T15:06:28Z</time>
      </trkpt>
      <trkpt lat="45.64017" lon="4.57504">
        <ele>797.4</ele>
        <time>2025-04-30T15:06:29Z</time>
      </trkpt>
      <trkpt lat="45.64016" lon="4.57504">
        <ele>797.6</ele>
        <time>2025-04-30T15:06:30Z</time>
      </trkpt>
      <trkpt lat="45.64015" lon="4.57504">
        <ele>797.8</ele>
        <time>2025-04-30T15:06:31Z</time>
      </trkpt>
      <trkpt lat="45.64013" lon="4.57503">
        <ele>798.2</ele>
        <time>2025-04-30T15:06:32Z</time>
      </trkpt>
      <trkpt lat="45.64012" lon="4.57502">
        <ele>798.6</ele>
        <time>2025-04-30T15:06:33Z</time>
      </trkpt>
      <trkpt lat="45.64011" lon="4.57501">
        <ele>798.8</ele>
        <time>2025-04-30T15:06:34Z</time>
      </trkpt>
      <trkpt lat="45.64009" lon="4.575">
        <ele>799</ele>
        <time>2025-04-30T15:06:35Z</time>
      </trkpt>
      <trkpt lat="45.64007" lon="4.57499">
        <ele>799.2</ele>
        <time>2025-04-30T15:06:36Z</time>
      </trkpt>
      <trkpt lat="45.64006" lon="4.57497">
        <ele>799.4</ele>
        <time>2025-04-30T15:06:37Z</time>
      </trkpt>
      <trkpt lat="45.64004" lon="4.57495">
        <ele>799.6</ele>
        <time>2025-04-30T15:06:38Z</time>
      </trkpt>
      <trkpt lat="45.64003" lon="4.57494">
        <ele>800</ele>
        <time>2025-04-30T15:06:39Z</time>
      </trkpt>
      <trkpt lat="45.64002" lon="4.57493">
        <ele>800.4</ele>
        <time>2025-04-30T15:06:40Z</time>
      </trkpt>
      <trkpt lat="45.64" lon="4.57491">
        <ele>800.6</ele>
        <time>2025-04-30T15:06:41Z</time>
      </trkpt>
      <trkpt lat="45.63999" lon="4.57489">
        <ele>800.8</ele>
        <time>2025-04-30T15:06:42Z</time>
      </trkpt>
      <trkpt lat="45.63998" lon="4.57488">
        <ele>801</ele>
        <time>2025-04-30T15:06:43Z</time>
      </trkpt>
      <trkpt lat="45.63996" lon="4.57486">
        <ele>801.2</ele>
        <time>2025-04-30T15:06:44Z</time>
      </trkpt>
      <trkpt lat="45.63995" lon="4.57485">
        <ele>801.4</ele>
        <time>2025-04-30T15:06:45Z</time>
      </trkpt>
      <trkpt lat="45.63993" lon="4.57483">
        <ele>801.6</ele>
        <time>2025-04-30T15:06:46Z</time>
      </trkpt>
      <trkpt lat="45.63991" lon="4.57481">
        <ele>802</ele>
        <time>2025-04-30T15:06:47Z</time>
      </trkpt>
      <trkpt lat="45.63989" lon="4.57478">
        <ele>802</ele>
        <time>2025-04-30T15:06:48Z</time>
      </trkpt>
      <trkpt lat="45.63988" lon="4.57477">
        <ele>802.2</ele>
        <time>2025-04-30T15:06:49Z</time>
      </trkpt>
      <trkpt lat="45.63986" lon="4.57475">
        <ele>802.4</ele>
        <time>2025-04-30T15:06:50Z</time>
      </trkpt>
      <trkpt lat="45.63984" lon="4.57473">
        <ele>802.4</ele>
        <time>2025-04-30T15:06:51Z</time>
      </trkpt>
      <trkpt lat="45.63981" lon="4.57471">
        <ele>802.6</ele>
        <time>2025-04-30T15:06:52Z</time>
      </trkpt>
      <trkpt lat="45.63979" lon="4.5747">
        <ele>803</ele>
        <time>2025-04-30T15:06:53Z</time>
      </trkpt>
      <trkpt lat="45.63977" lon="4.57469">
        <ele>803.4</ele>
        <time>2025-04-30T15:06:54Z</time>
      </trkpt>
      <trkpt lat="45.63975" lon="4.57468">
        <ele>803.6</ele>
        <time>2025-04-30T15:06:55Z</time>
      </trkpt>
      <trkpt lat="45.63973" lon="4.57468">
        <ele>804</ele>
        <time>2025-04-30T15:06:56Z</time>
      </trkpt>
      <trkpt lat="45.6397" lon="4.57468">
        <ele>804.2</ele>
        <time>2025-04-30T15:06:57Z</time>
      </trkpt>
      <trkpt lat="45.63968" lon="4.57468">
        <ele>804.2</ele>
        <time>2025-04-30T15:06:58Z</time>
      </trkpt>
      <trkpt lat="45.63966" lon="4.57468">
        <ele>804.4</ele>
        <time>2025-04-30T15:06:59Z</time>
      </trkpt>
      <trkpt lat="45.63963" lon="4.57468">
        <ele>804.6</ele>
        <time>2025-04-30T15:07:00Z</time>
      </trkpt>
      <trkpt lat="45.63961" lon="4.57468">
        <ele>805</ele>
        <time>2025-04-30T15:07:01Z</time>
      </trkpt>
      <trkpt lat="45.63958" lon="4.57468">
        <ele>805.4</ele>
        <time>2025-04-30T15:07:02Z</time>
      </trkpt>
      <trkpt lat="45.63956" lon="4.57468">
        <ele>805.6</ele>
        <time>2025-04-30T15:07:03Z</time>
      </trkpt>
      <trkpt lat="45.63953" lon="4.57468">
        <ele>805.8</ele>
        <time>2025-04-30T15:07:04Z</time>
      </trkpt>
      <trkpt lat="45.63951" lon="4.57467">
        <ele>806</ele>
        <time>2025-04-30T15:07:05Z</time>
      </trkpt>
      <trkpt lat="45.63949" lon="4.57467">
        <ele>806.4</ele>
        <time>2025-04-30T15:07:06Z</time>
      </trkpt>
      <trkpt lat="45.63946" lon="4.57467">
        <ele>807</ele>
        <time>2025-04-30T15:07:07Z</time>
      </trkpt>
      <trkpt lat="45.63944" lon="4.57467">
        <ele>807.2</ele>
        <time>2025-04-30T15:07:08Z</time>
      </trkpt>
      <trkpt lat="45.63941" lon="4.57467">
        <ele>807.4</ele>
        <time>2025-04-30T15:07:09Z</time>
      </trkpt>
      <trkpt lat="45.6394" lon="4.57466">
        <ele>807.8</ele>
        <time>2025-04-30T15:07:10Z</time>
      </trkpt>
      <trkpt lat="45.63937" lon="4.57464">
        <ele>808</ele>
        <time>2025-04-30T15:07:11Z</time>
      </trkpt>
      <trkpt lat="45.63935" lon="4.57463">
        <ele>808</ele>
        <time>2025-04-30T15:07:12Z</time>
      </trkpt>
      <trkpt lat="45.63932" lon="4.57463">
        <ele>808.4</ele>
        <time>2025-04-30T15:07:13Z</time>
      </trkpt>
      <trkpt lat="45.63929" lon="4.57463">
        <ele>808.6</ele>
        <time>2025-04-30T15:07:14Z</time>
      </trkpt>
      <trkpt lat="45.63928" lon="4.57462">
        <ele>809</ele>
        <time>2025-04-30T15:07:15Z</time>
      </trkpt>
      <trkpt lat="45.63925" lon="4.57462">
        <ele>809.2</ele>
        <time>2025-04-30T15:07:16Z</time>
      </trkpt>
      <trkpt lat="45.63923" lon="4.57462">
        <ele>809.2</ele>
        <time>2025-04-30T15:07:17Z</time>
      </trkpt>
      <trkpt lat="45.63922" lon="4.57461">
        <ele>809.6</ele>
        <time>2025-04-30T15:07:18Z</time>
      </trkpt>
      <trkpt lat="45.6392" lon="4.5746">
        <ele>809.6</ele>
        <time>2025-04-30T15:07:19Z</time>
      </trkpt>
      <trkpt lat="45.63918" lon="4.5746">
        <ele>810</ele>
        <time>2025-04-30T15:07:20Z</time>
      </trkpt>
      <trkpt lat="45.63916" lon="4.57459">
        <ele>810.4</ele>
        <time>2025-04-30T15:07:21Z</time>
      </trkpt>
      <trkpt lat="45.63914" lon="4.57459">
        <ele>810.6</ele>
        <time>2025-04-30T15:07:22Z</time>
      </trkpt>
      <trkpt lat="45.63912" lon="4.57458">
        <ele>810.8</ele>
        <time>2025-04-30T15:07:23Z</time>
      </trkpt>
      <trkpt lat="45.63909" lon="4.57458">
        <ele>811</ele>
        <time>2025-04-30T15:07:24Z</time>
      </trkpt>
      <trkpt lat="45.63907" lon="4.57457">
        <ele>811.4</ele>
        <time>2025-04-30T15:07:25Z</time>
      </trkpt>
      <trkpt lat="45.63904" lon="4.57456">
        <ele>811.8</ele>
        <time>2025-04-30T15:07:26Z</time>
      </trkpt>
      <trkpt lat="45.63901" lon="4.57456">
        <ele>812</ele>
        <time>2025-04-30T15:07:27Z</time>
      </trkpt>
      <trkpt lat="45.63898" lon="4.57455">
        <ele>812.2</ele>
        <time>2025-04-30T15:07:28Z</time>
      </trkpt>
      <trkpt lat="45.63896" lon="4.57454">
        <ele>812.4</ele>
        <time>2025-04-30T15:07:29Z</time>
      </trkpt>
      <trkpt lat="45.63893" lon="4.57454">
        <ele>812.6</ele>
        <time>2025-04-30T15:07:30Z</time>
      </trkpt>
      <trkpt lat="45.6389" lon="4.57454">
        <ele>812.8</ele>
        <time>2025-04-30T15:07:31Z</time>
      </trkpt>
      <trkpt lat="45.63887" lon="4.57453">
        <ele>813</ele>
        <time>2025-04-30T15:07:32Z</time>
      </trkpt>
      <trkpt lat="45.63884" lon="4.57453">
        <ele>813.2</ele>
        <time>2025-04-30T15:07:33Z</time>
      </trkpt>
      <trkpt lat="45.63882" lon="4.57453">
        <ele>813.4</ele>
        <time>2025-04-30T15:07:34Z</time>
      </trkpt>
      <trkpt lat="45.63879" lon="4.57454">
        <ele>813.4</ele>
        <time>2025-04-30T15:07:35Z</time>
      </trkpt>
      <trkpt lat="45.63876" lon="4.57454">
        <ele>813.6</ele>
        <time>2025-04-30T15:07:36Z</time>
      </trkpt>
      <trkpt lat="45.63874" lon="4.57454">
        <ele>813.8</ele>
        <time>2025-04-30T15:07:37Z</time>
      </trkpt>
      <trkpt lat="45.63872" lon="4.57454">
        <ele>814</ele>
        <time>2025-04-30T15:07:38Z</time>
      </trkpt>
      <trkpt lat="45.63869" lon="4.57455">
        <ele>814.4</ele>
        <time>2025-04-30T15:07:39Z</time>
      </trkpt>
      <trkpt lat="45.63867" lon="4.57456">
        <ele>814.8</ele>
        <time>2025-04-30T15:07:40Z</time>
      </trkpt>
      <trkpt lat="45.63864" lon="4.57456">
        <ele>815.2</ele>
        <time>2025-04-30T15:07:41Z</time>
      </trkpt>
      <trkpt lat="45.63861" lon="4.57456">
        <ele>815.4</ele>
        <time>2025-04-30T15:07:42Z</time>
      </trkpt>
      <trkpt lat="45.63859" lon="4.57457">
        <ele>815.6</ele>
        <time>2025-04-30T15:07:43Z</time>
      </trkpt>
      <trkpt lat="45.63857" lon="4.57457">
        <ele>815.8</ele>
        <time>2025-04-30T15:07:44Z</time>
      </trkpt>
      <trkpt lat="45.63855" lon="4.57457">
        <ele>816</ele>
        <time>2025-04-30T15:07:45Z</time>
      </trkpt>
      <trkpt lat="45.63853" lon="4.57457">
        <ele>816.2</ele>
        <time>2025-04-30T15:07:46Z</time>
      </trkpt>
      <trkpt lat="45.6385" lon="4.57458">
        <ele>816.4</ele>
        <time>2025-04-30T15:07:47Z</time>
      </trkpt>
      <trkpt lat="45.63848" lon="4.57459">
        <ele>816.8</ele>
        <time>2025-04-30T15:07:48Z</time>
      </trkpt>
      <trkpt lat="45.63846" lon="4.5746">
        <ele>817</ele>
        <time>2025-04-30T15:07:49Z</time>
      </trkpt>
      <trkpt lat="45.63844" lon="4.57459">
        <ele>817.4</ele>
        <time>2025-04-30T15:07:50Z</time>
      </trkpt>
      <trkpt lat="45.63843" lon="4.57459">
        <ele>817.8</ele>
        <time>2025-04-30T15:07:51Z</time>
      </trkpt>
      <trkpt lat="45.63841" lon="4.5746">
        <ele>818.2</ele>
        <time>2025-04-30T15:07:52Z</time>
      </trkpt>
      <trkpt lat="45.6384" lon="4.57461">
        <ele>818.4</ele>
        <time>2025-04-30T15:07:53Z</time>
      </trkpt>
      <trkpt lat="45.63838" lon="4.57461">
        <ele>818.8</ele>
        <time>2025-04-30T15:07:54Z</time>
      </trkpt>
      <trkpt lat="45.63836" lon="4.57462">
        <ele>819</ele>
        <time>2025-04-30T15:07:55Z</time>
      </trkpt>
      <trkpt lat="45.63835" lon="4.57463">
        <ele>819.2</ele>
        <time>2025-04-30T15:07:56Z</time>
      </trkpt>
      <trkpt lat="45.63833" lon="4.57464">
        <ele>819.6</ele>
        <time>2025-04-30T15:07:57Z</time>
      </trkpt>
      <trkpt lat="45.63832" lon="4.57465">
        <ele>819.8</ele>
        <time>2025-04-30T15:07:58Z</time>
      </trkpt>
      <trkpt lat="45.6383" lon="4.57465">
        <ele>820.2</ele>
        <time>2025-04-30T15:07:59Z</time>
      </trkpt>
      <trkpt lat="45.63828" lon="4.57465">
        <ele>820.2</ele>
        <time>2025-04-30T15:08:00Z</time>
      </trkpt>
      <trkpt lat="45.63826" lon="4.57466">
        <ele>820.4</ele>
        <time>2025-04-30T15:08:01Z</time>
      </trkpt>
      <trkpt lat="45.63825" lon="4.57466">
        <ele>820.6</ele>
        <time>2025-04-30T15:08:02Z</time>
      </trkpt>
      <trkpt lat="45.63824" lon="4.57466">
        <ele>820.8</ele>
        <time>2025-04-30T15:08:03Z</time>
      </trkpt>
      <trkpt lat="45.63822" lon="4.57467">
        <ele>821</ele>
        <time>2025-04-30T15:08:04Z</time>
      </trkpt>
      <trkpt lat="45.63821" lon="4.57468">
        <ele>821.2</ele>
        <time>2025-04-30T15:08:05Z</time>
      </trkpt>
      <trkpt lat="45.63819" lon="4.57469">
        <ele>821.4</ele>
        <time>2025-04-30T15:08:06Z</time>
      </trkpt>
      <trkpt lat="45.63818" lon="4.5747">
        <ele>821.6</ele>
        <time>2025-04-30T15:08:07Z</time>
      </trkpt>
      <trkpt lat="45.63816" lon="4.57471">
        <ele>821.6</ele>
        <time>2025-04-30T15:08:08Z</time>
      </trkpt>
      <trkpt lat="45.63814" lon="4.57472">
        <ele>821.6</ele>
        <time>2025-04-30T15:08:09Z</time>
      </trkpt>
      <trkpt lat="45.63813" lon="4.57474">
        <ele>821.6</ele>
        <time>2025-04-30T15:08:10Z</time>
      </trkpt>
      <trkpt lat="45.63811" lon="4.57475">
        <ele>821.8</ele>
        <time>2025-04-30T15:08:11Z</time>
      </trkpt>
      <trkpt lat="45.6381" lon="4.57477">
        <ele>822</ele>
        <time>2025-04-30T15:08:12Z</time>
      </trkpt>
      <trkpt lat="45.63808" lon="4.57478">
        <ele>822</ele>
        <time>2025-04-30T15:08:13Z</time>
      </trkpt>
      <trkpt lat="45.63806" lon="4.5748">
        <ele>822</ele>
        <time>2025-04-30T15:08:14Z</time>
      </trkpt>
      <trkpt lat="45.63805" lon="4.57481">
        <ele>822.2</ele>
        <time>2025-04-30T15:08:15Z</time>
      </trkpt>
      <trkpt lat="45.63803" lon="4.57483">
        <ele>822.4</ele>
        <time>2025-04-30T15:08:16Z</time>
      </trkpt>
      <trkpt lat="45.63802" lon="4.57485">
        <ele>822.8</ele>
        <time>2025-04-30T15:08:17Z</time>
      </trkpt>
      <trkpt lat="45.638" lon="4.57486">
        <ele>823</ele>
        <time>2025-04-30T15:08:18Z</time>
      </trkpt>
      <trkpt lat="45.63798" lon="4.57487">
        <ele>823.2</ele>
        <time>2025-04-30T15:08:19Z</time>
      </trkpt>
      <trkpt lat="45.63796" lon="4.57488">
        <ele>823.4</ele>
        <time>2025-04-30T15:08:20Z</time>
      </trkpt>
      <trkpt lat="45.63795" lon="4.57491">
        <ele>823.4</ele>
        <time>2025-04-30T15:08:21Z</time>
      </trkpt>
      <trkpt lat="45.63794" lon="4.57493">
        <ele>823.6</ele>
        <time>2025-04-30T15:08:22Z</time>
      </trkpt>
      <trkpt lat="45.63792" lon="4.57494">
        <ele>823.8</ele>
        <time>2025-04-30T15:08:23Z</time>
      </trkpt>
      <trkpt lat="45.63791" lon="4.57496">
        <ele>823.8</ele>
        <time>2025-04-30T15:08:24Z</time>
      </trkpt>
      <trkpt lat="45.63789" lon="4.57498">
        <ele>824</ele>
        <time>2025-04-30T15:08:25Z</time>
      </trkpt>
      <trkpt lat="45.63788" lon="4.575">
        <ele>824.2</ele>
        <time>2025-04-30T15:08:26Z</time>
      </trkpt>
      <trkpt lat="45.63786" lon="4.57501">
        <ele>824.2</ele>
        <time>2025-04-30T15:08:27Z</time>
      </trkpt>
      <trkpt lat="45.63784" lon="4.57503">
        <ele>824.6</ele>
        <time>2025-04-30T15:08:28Z</time>
      </trkpt>
      <trkpt lat="45.63782" lon="4.57505">
        <ele>824.8</ele>
        <time>2025-04-30T15:08:29Z</time>
      </trkpt>
      <trkpt lat="45.63781" lon="4.57507">
        <ele>825.2</ele>
        <time>2025-04-30T15:08:30Z</time>
      </trkpt>
      <trkpt lat="45.6378" lon="4.57509">
        <ele>825.4</ele>
        <time>2025-04-30T15:08:31Z</time>
      </trkpt>
      <trkpt lat="45.63779" lon="4.57511">
        <ele>825.6</ele>
        <time>2025-04-30T15:08:32Z</time>
      </trkpt>
      <trkpt lat="45.63777" lon="4.57514">
        <ele>825.8</ele>
        <time>2025-04-30T15:08:33Z</time>
      </trkpt>
      <trkpt lat="45.63776" lon="4.57515">
        <ele>826</ele>
        <time>2025-04-30T15:08:34Z</time>
      </trkpt>
      <trkpt lat="45.63774" lon="4.57517">
        <ele>826</ele>
        <time>2025-04-30T15:08:35Z</time>
      </trkpt>
      <trkpt lat="45.63773" lon="4.57519">
        <ele>826.2</ele>
        <time>2025-04-30T15:08:36Z</time>
      </trkpt>
      <trkpt lat="45.63771" lon="4.5752">
        <ele>826.4</ele>
        <time>2025-04-30T15:08:37Z</time>
      </trkpt>
      <trkpt lat="45.6377" lon="4.57522">
        <ele>826.4</ele>
        <time>2025-04-30T15:08:38Z</time>
      </trkpt>
      <trkpt lat="45.63768" lon="4.57524">
        <ele>826.6</ele>
        <time>2025-04-30T15:08:39Z</time>
      </trkpt>
      <trkpt lat="45.63767" lon="4.57527">
        <ele>826.6</ele>
        <time>2025-04-30T15:08:40Z</time>
      </trkpt>
      <trkpt lat="45.63765" lon="4.57529">
        <ele>826.6</ele>
        <time>2025-04-30T15:08:41Z</time>
      </trkpt>
      <trkpt lat="45.63764" lon="4.57532">
        <ele>826.8</ele>
        <time>2025-04-30T15:08:42Z</time>
      </trkpt>
      <trkpt lat="45.63763" lon="4.57534">
        <ele>826.8</ele>
        <time>2025-04-30T15:08:43Z</time>
      </trkpt>
      <trkpt lat="45.63761" lon="4.57536">
        <ele>827</ele>
        <time>2025-04-30T15:08:44Z</time>
      </trkpt>
      <trkpt lat="45.6376" lon="4.57539">
        <ele>827</ele>
        <time>2025-04-30T15:08:45Z</time>
      </trkpt>
      <trkpt lat="45.63759" lon="4.57541">
        <ele>827.2</ele>
        <time>2025-04-30T15:08:46Z</time>
      </trkpt>
      <trkpt lat="45.63759" lon="4.57543">
        <ele>827.2</ele>
        <time>2025-04-30T15:08:47Z</time>
      </trkpt>
      <trkpt lat="45.63759" lon="4.57545">
        <ele>827.4</ele>
        <time>2025-04-30T15:08:48Z</time>
      </trkpt>
      <trkpt lat="45.63759" lon="4.57547">
        <ele>827.6</ele>
        <time>2025-04-30T15:08:49Z</time>
      </trkpt>
      <trkpt lat="45.63757" lon="4.57548">
        <ele>827.8</ele>
        <time>2025-04-30T15:08:50Z</time>
      </trkpt>
      <trkpt lat="45.63757" lon="4.57549">
        <ele>827.8</ele>
        <time>2025-04-30T15:08:51Z</time>
      </trkpt>
      <trkpt lat="45.63757" lon="4.57549">
        <ele>827.8</ele>
        <time>2025-04-30T15:08:52Z</time>
      </trkpt>
      <trkpt lat="45.63757" lon="4.57549">
        <ele>828</ele>
        <time>2025-04-30T15:08:53Z</time>
      </trkpt>
      <trkpt lat="45.63757" lon="4.57549">
        <ele>828.2</ele>
        <time>2025-04-30T15:08:54Z</time>
      </trkpt>
      <trkpt lat="45.63757" lon="4.57549">
        <ele>828.2</ele>
        <time>2025-04-30T15:08:55Z</time>
      </trkpt>
      <trkpt lat="45.63757" lon="4.57549">
        <ele>828.2</ele>
        <time>2025-04-30T15:08:56Z</time>
      </trkpt>
      <trkpt lat="45.63757" lon="4.57549">
        <ele>828.2</ele>
        <time>2025-04-30T15:08:57Z</time>
      </trkpt>
      <trkpt lat="45.63757" lon="4.57549">
        <ele>828.4</ele>
        <time>2025-04-30T15:08:58Z</time>
      </trkpt>
      <trkpt lat="45.63757" lon="4.57549">
        <ele>828.4</ele>
        <time>2025-04-30T15:08:59Z</time>
      </trkpt>
      <trkpt lat="45.63757" lon="4.57549">
        <ele>828.4</ele>
        <time>2025-04-30T15:09:00Z</time>
      </trkpt>
      <trkpt lat="45.63757" lon="4.57549">
        <ele>828.4</ele>
        <time>2025-04-30T15:09:01Z</time>
      </trkpt>
      <trkpt lat="45.63757" lon="4.57549">
        <ele>828.4</ele>
        <time>2025-04-30T15:09:02Z</time>
      </trkpt>
      <trkpt lat="45.63757" lon="4.57549">
        <ele>828.4</ele>
        <time>2025-04-30T15:09:03Z</time>
      </trkpt>
      <trkpt lat="45.63757" lon="4.57549">
        <ele>828.4</ele>
        <time>2025-04-30T15:09:04Z</time>
      </trkpt>
      <trkpt lat="45.63757" lon="4.57549">
        <ele>828.6</ele>
        <time>2025-04-30T15:09:05Z</time>
      </trkpt>
      <trkpt lat="45.63757" lon="4.57549">
        <ele>828.6</ele>
        <time>2025-04-30T15:09:06Z</time>
      </trkpt>
      <trkpt lat="45.63757" lon="4.57549">
        <ele>828.6</ele>
        <time>2025-04-30T15:09:07Z</time>
      </trkpt>
      <trkpt lat="45.63757" lon="4.57549">
        <ele>828.6</ele>
        <time>2025-04-30T15:09:08Z</time>
      </trkpt>
      <trkpt lat="45.63757" lon="4.57549">
        <ele>828.6</ele>
        <time>2025-04-30T15:09:09Z</time>
      </trkpt>
      <trkpt lat="45.63757" lon="4.57549">
        <ele>828.6</ele>
        <time>2025-04-30T15:09:10Z</time>
      </trkpt>
      <trkpt lat="45.63757" lon="4.57549">
        <ele>828.6</ele>
        <time>2025-04-30T15:09:11Z</time>
      </trkpt>
      <trkpt lat="45.63757" lon="4.57549">
        <ele>828.6</ele>
        <time>2025-04-30T15:09:12Z</time>
      </trkpt>
      <trkpt lat="45.63757" lon="4.57549">
        <ele>828.6</ele>
        <time>2025-04-30T15:09:13Z</time>
      </trkpt>
      <trkpt lat="45.63757" lon="4.57549">
        <ele>828.6</ele>
        <time>2025-04-30T15:09:14Z</time>
      </trkpt>
      <trkpt lat="45.63757" lon="4.57549">
        <ele>828.6</ele>
        <time>2025-04-30T15:09:15Z</time>
      </trkpt>
      <trkpt lat="45.63757" lon="4.57549">
        <ele>828.4</ele>
        <time>2025-04-30T15:09:16Z</time>
      </trkpt>
      <trkpt lat="45.63757" lon="4.57549">
        <ele>828.4</ele>
        <time>2025-04-30T15:09:17Z</time>
      </trkpt>
      <trkpt lat="45.63757" lon="4.57549">
        <ele>828.4</ele>
        <time>2025-04-30T15:09:18Z</time>
      </trkpt>
      <trkpt lat="45.63757" lon="4.57549">
        <ele>828.4</ele>
        <time>2025-04-30T15:09:19Z</time>
      </trkpt>
      <trkpt lat="45.63757" lon="4.57549">
        <ele>828.2</ele>
        <time>2025-04-30T15:09:20Z</time>
      </trkpt>
      <trkpt lat="45.63757" lon="4.57549">
        <ele>828.2</ele>
        <time>2025-04-30T15:09:21Z</time>
      </trkpt>
      <trkpt lat="45.63757" lon="4.57549">
        <ele>828.2</ele>
        <time>2025-04-30T15:09:22Z</time>
      </trkpt>
      <trkpt lat="45.63757" lon="4.57549">
        <ele>828.2</ele>
        <time>2025-04-30T15:09:23Z</time>
      </trkpt>
      <trkpt lat="45.63757" lon="4.57549">
        <ele>828.4</ele>
        <time>2025-04-30T15:09:24Z</time>
      </trkpt>
      <trkpt lat="45.63757" lon="4.57549">
        <ele>828.4</ele>
        <time>2025-04-30T15:09:25Z</time>
      </trkpt>
      <trkpt lat="45.63757" lon="4.57549">
        <ele>828.6</ele>
        <time>2025-04-30T15:09:26Z</time>
      </trkpt>
      <trkpt lat="45.63757" lon="4.57549">
        <ele>828.6</ele>
        <time>2025-04-30T15:09:27Z</time>
      </trkpt>
      <trkpt lat="45.63757" lon="4.57549">
        <ele>828.6</ele>
        <time>2025-04-30T15:09:28Z</time>
      </trkpt>
      <trkpt lat="45.63757" lon="4.57549">
        <ele>828.6</ele>
        <time>2025-04-30T15:09:29Z</time>
      </trkpt>
      <trkpt lat="45.63757" lon="4.57549">
        <ele>828.6</ele>
        <time>2025-04-30T15:09:30Z</time>
      </trkpt>
      <trkpt lat="45.63757" lon="4.57549">
        <ele>828.6</ele>
        <time>2025-04-30T15:09:31Z</time>
      </trkpt>
      <trkpt lat="45.63757" lon="4.57549">
        <ele>828.6</ele>
        <time>2025-04-30T15:09:32Z</time>
      </trkpt>
      <trkpt lat="45.63757" lon="4.57549">
        <ele>828.6</ele>
        <time>2025-04-30T15:09:33Z</time>
      </trkpt>
      <trkpt lat="45.63757" lon="4.57549">
        <ele>828.4</ele>
        <time>2025-04-30T15:09:34Z</time>
      </trkpt>
      <trkpt lat="45.63757" lon="4.57549">
        <ele>828.4</ele>
        <time>2025-04-30T15:09:35Z</time>
      </trkpt>
      <trkpt lat="45.63757" lon="4.57549">
        <ele>828.4</ele>
        <time>2025-04-30T15:09:36Z</time>
      </trkpt>
      <trkpt lat="45.63757" lon="4.57549">
        <ele>828.4</ele>
        <time>2025-04-30T15:09:37Z</time>
      </trkpt>
      <trkpt lat="45.63757" lon="4.57549">
        <ele>828.4</ele>
        <time>2025-04-30T15:09:38Z</time>
      </trkpt>
      <trkpt lat="45.63757" lon="4.57549">
        <ele>828.4</ele>
        <time>2025-04-30T15:09:39Z</time>
      </trkpt>
      <trkpt lat="45.63757" lon="4.57549">
        <ele>828.4</ele>
        <time>2025-04-30T15:09:40Z</time>
      </trkpt>
      <trkpt lat="45.63757" lon="4.57549">
        <ele>828.4</ele>
        <time>2025-04-30T15:09:41Z</time>
      </trkpt>
      <trkpt lat="45.63757" lon="4.57549">
        <ele>828.4</ele>
        <time>2025-04-30T15:09:42Z</time>
      </trkpt>
      <trkpt lat="45.63757" lon="4.57549">
        <ele>828.4</ele>
        <time>2025-04-30T15:09:43Z</time>
      </trkpt>
      <trkpt lat="45.63757" lon="4.57549">
        <ele>828.2</ele>
        <time>2025-04-30T15:09:44Z</time>
      </trkpt>
      <trkpt lat="45.63757" lon="4.57549">
        <ele>828.2</ele>
        <time>2025-04-30T15:09:45Z</time>
      </trkpt>
      <trkpt lat="45.63757" lon="4.57549">
        <ele>828.2</ele>
        <time>2025-04-30T15:09:46Z</time>
      </trkpt>
      <trkpt lat="45.63757" lon="4.57549">
        <ele>828.2</ele>
        <time>2025-04-30T15:09:47Z</time>
      </trkpt>
      <trkpt lat="45.63757" lon="4.57549">
        <ele>828.2</ele>
        <time>2025-04-30T15:09:48Z</time>
      </trkpt>
      <trkpt lat="45.63757" lon="4.57549">
        <ele>828.2</ele>
        <time>2025-04-30T15:09:49Z</time>
      </trkpt>
      <trkpt lat="45.63757" lon="4.57549">
        <ele>828.2</ele>
        <time>2025-04-30T15:09:50Z</time>
      </trkpt>
      <trkpt lat="45.63757" lon="4.57549">
        <ele>828.2</ele>
        <time>2025-04-30T15:09:51Z</time>
      </trkpt>
      <trkpt lat="45.63757" lon="4.57549">
        <ele>828.2</ele>
        <time>2025-04-30T15:09:52Z</time>
      </trkpt>
      <trkpt lat="45.63757" lon="4.57549">
        <ele>828.2</ele>
        <time>2025-04-30T15:09:53Z</time>
      </trkpt>
      <trkpt lat="45.63757" lon="4.57549">
        <ele>828</ele>
        <time>2025-04-30T15:09:54Z</time>
      </trkpt>
      <trkpt lat="45.63757" lon="4.57549">
        <ele>828</ele>
        <time>2025-04-30T15:09:55Z</time>
      </trkpt>
      <trkpt lat="45.63757" lon="4.57549">
        <ele>828</ele>
        <time>2025-04-30T15:09:56Z</time>
      </trkpt>
      <trkpt lat="45.63757" lon="4.57549">
        <ele>828</ele>
        <time>2025-04-30T15:09:57Z</time>
      </trkpt>
      <trkpt lat="45.63757" lon="4.57549">
        <ele>828</ele>
        <time>2025-04-30T15:09:58Z</time>
      </trkpt>
      <trkpt lat="45.63757" lon="4.57549">
        <ele>828</ele>
        <time>2025-04-30T15:09:59Z</time>
      </trkpt>
      <trkpt lat="45.63757" lon="4.57549">
        <ele>828</ele>
        <time>2025-04-30T15:10:00Z</time>
      </trkpt>
      <trkpt lat="45.63757" lon="4.57549">
        <ele>828</ele>
        <time>2025-04-30T15:10:01Z</time>
      </trkpt>
      <trkpt lat="45.63756" lon="4.5755">
        <ele>828</ele>
        <time>2025-04-30T15:10:02Z</time>
      </trkpt>
      <trkpt lat="45.63755" lon="4.57552">
        <ele>828</ele>
        <time>2025-04-30T15:10:03Z</time>
      </trkpt>
      <trkpt lat="45.63754" lon="4.57554">
        <ele>828.4</ele>
        <time>2025-04-30T15:10:04Z</time>
      </trkpt>
      <trkpt lat="45.63753" lon="4.57556">
        <ele>828.4</ele>
        <time>2025-04-30T15:10:05Z</time>
      </trkpt>
      <trkpt lat="45.63751" lon="4.57559">
        <ele>828.2</ele>
        <time>2025-04-30T15:10:06Z</time>
      </trkpt>
      <trkpt lat="45.63749" lon="4.57561">
        <ele>828</ele>
        <time>2025-04-30T15:10:07Z</time>
      </trkpt>
      <trkpt lat="45.63748" lon="4.57564">
        <ele>827.8</ele>
        <time>2025-04-30T15:10:08Z</time>
      </trkpt>
      <trkpt lat="45.63745" lon="4.57569">
        <ele>827.6</ele>
        <time>2025-04-30T15:10:09Z</time>
      </trkpt>
      <trkpt lat="45.63744" lon="4.57572">
        <ele>827.6</ele>
        <time>2025-04-30T15:10:10Z</time>
      </trkpt>
      <trkpt lat="45.63742" lon="4.57577">
        <ele>827.4</ele>
        <time>2025-04-30T15:10:11Z</time>
      </trkpt>
      <trkpt lat="45.63739" lon="4.57583">
        <ele>827</ele>
        <time>2025-04-30T15:10:12Z</time>
      </trkpt>
      <trkpt lat="45.63737" lon="4.57588">
        <ele>826.8</ele>
        <time>2025-04-30T15:10:13Z</time>
      </trkpt>
      <trkpt lat="45.63734" lon="4.57594">
        <ele>826.2</ele>
        <time>2025-04-30T15:10:14Z</time>
      </trkpt>
      <trkpt lat="45.63732" lon="4.57604">
        <ele>825.8</ele>
        <time>2025-04-30T15:10:15Z</time>
      </trkpt>
      <trkpt lat="45.6373" lon="4.5761">
        <ele>825.2</ele>
        <time>2025-04-30T15:10:16Z</time>
      </trkpt>
      <trkpt lat="45.63729" lon="4.57619">
        <ele>824.8</ele>
        <time>2025-04-30T15:10:17Z</time>
      </trkpt>
      <trkpt lat="45.63728" lon="4.57628">
        <ele>823.6</ele>
        <time>2025-04-30T15:10:18Z</time>
      </trkpt>
      <trkpt lat="45.63728" lon="4.57637">
        <ele>823.4</ele>
        <time>2025-04-30T15:10:19Z</time>
      </trkpt>
      <trkpt lat="45.63728" lon="4.57647">
        <ele>823</ele>
        <time>2025-04-30T15:10:20Z</time>
      </trkpt>
      <trkpt lat="45.63728" lon="4.57656">
        <ele>822.6</ele>
        <time>2025-04-30T15:10:21Z</time>
      </trkpt>
      <trkpt lat="45.63728" lon="4.57666">
        <ele>822.4</ele>
        <time>2025-04-30T15:10:22Z</time>
      </trkpt>
      <trkpt lat="45.63728" lon="4.57675">
        <ele>822.2</ele>
        <time>2025-04-30T15:10:23Z</time>
      </trkpt>
      <trkpt lat="45.63727" lon="4.57686">
        <ele>822</ele>
        <time>2025-04-30T15:10:24Z</time>
      </trkpt>
      <trkpt lat="45.63725" lon="4.57694">
        <ele>821.8</ele>
        <time>2025-04-30T15:10:25Z</time>
      </trkpt>
      <trkpt lat="45.63724" lon="4.57701">
        <ele>821.4</ele>
        <time>2025-04-30T15:10:26Z</time>
      </trkpt>
      <trkpt lat="45.63722" lon="4.57709">
        <ele>821</ele>
        <time>2025-04-30T15:10:27Z</time>
      </trkpt>
      <trkpt lat="45.63719" lon="4.57718">
        <ele>820.6</ele>
        <time>2025-04-30T15:10:28Z</time>
      </trkpt>
      <trkpt lat="45.63716" lon="4.57724">
        <ele>820.4</ele>
        <time>2025-04-30T15:10:29Z</time>
      </trkpt>
      <trkpt lat="45.63712" lon="4.57732">
        <ele>820.4</ele>
        <time>2025-04-30T15:10:30Z</time>
      </trkpt>
      <trkpt lat="45.63708" lon="4.57742">
        <ele>820.2</ele>
        <time>2025-04-30T15:10:31Z</time>
      </trkpt>
      <trkpt lat="45.63704" lon="4.57748">
        <ele>819.6</ele>
        <time>2025-04-30T15:10:32Z</time>
      </trkpt>
      <trkpt lat="45.637" lon="4.57753">
        <ele>819</ele>
        <time>2025-04-30T15:10:33Z</time>
      </trkpt>
      <trkpt lat="45.63695" lon="4.57759">
        <ele>818.8</ele>
        <time>2025-04-30T15:10:34Z</time>
      </trkpt>
      <trkpt lat="45.6369" lon="4.57762">
        <ele>818.4</ele>
        <time>2025-04-30T15:10:35Z</time>
      </trkpt>
      <trkpt lat="45.63684" lon="4.57766">
        <ele>817.8</ele>
        <time>2025-04-30T15:10:36Z</time>
      </trkpt>
      <trkpt lat="45.63677" lon="4.57773">
        <ele>817.4</ele>
        <time>2025-04-30T15:10:37Z</time>
      </trkpt>
      <trkpt lat="45.63672" lon="4.57778">
        <ele>816.8</ele>
        <time>2025-04-30T15:10:38Z</time>
      </trkpt>
      <trkpt lat="45.63666" lon="4.57783">
        <ele>815.6</ele>
        <time>2025-04-30T15:10:39Z</time>
      </trkpt>
      <trkpt lat="45.6366" lon="4.57787">
        <ele>814.2</ele>
        <time>2025-04-30T15:10:40Z</time>
      </trkpt>
      <trkpt lat="45.63657" lon="4.57789">
        <ele>813.2</ele>
        <time>2025-04-30T15:10:41Z</time>
      </trkpt>
      <trkpt lat="45.63654" lon="4.57791">
        <ele>812.8</ele>
        <time>2025-04-30T15:10:42Z</time>
      </trkpt>
      <trkpt lat="45.63652" lon="4.57792">
        <ele>812.8</ele>
        <time>2025-04-30T15:10:43Z</time>
      </trkpt>
      <trkpt lat="45.63652" lon="4.57792">
        <ele>812.8</ele>
        <time>2025-04-30T15:10:44Z</time>
      </trkpt>
      <trkpt lat="45.63652" lon="4.57792">
        <ele>812.8</ele>
        <time>2025-04-30T15:10:45Z</time>
      </trkpt>
      <trkpt lat="45.63652" lon="4.57792">
        <ele>812.8</ele>
        <time>2025-04-30T15:10:46Z</time>
      </trkpt>
      <trkpt lat="45.63652" lon="4.57792">
        <ele>813.2</ele>
        <time>2025-04-30T15:10:47Z</time>
      </trkpt>
      <trkpt lat="45.63652" lon="4.57792">
        <ele>813.2</ele>
        <time>2025-04-30T15:10:48Z</time>
      </trkpt>
      <trkpt lat="45.63652" lon="4.57792">
        <ele>813.2</ele>
        <time>2025-04-30T15:10:49Z</time>
      </trkpt>
      <trkpt lat="45.63652" lon="4.57792">
        <ele>813.2</ele>
        <time>2025-04-30T15:10:50Z</time>
      </trkpt>
      <trkpt lat="45.63652" lon="4.57792">
        <ele>813.2</ele>
        <time>2025-04-30T15:10:51Z</time>
      </trkpt>
      <trkpt lat="45.63652" lon="4.57792">
        <ele>813.2</ele>
        <time>2025-04-30T15:10:52Z</time>
      </trkpt>
      <trkpt lat="45.63652" lon="4.57792">
        <ele>813.2</ele>
        <time>2025-04-30T15:10:53Z</time>
      </trkpt>
      <trkpt lat="45.63652" lon="4.57792">
        <ele>813.2</ele>
        <time>2025-04-30T15:10:54Z</time>
      </trkpt>
      <trkpt lat="45.63652" lon="4.57793">
        <ele>813.2</ele>
        <time>2025-04-30T15:10:55Z</time>
      </trkpt>
      <trkpt lat="45.63651" lon="4.57794">
        <ele>813</ele>
        <time>2025-04-30T15:10:56Z</time>
      </trkpt>
      <trkpt lat="45.63649" lon="4.57796">
        <ele>813</ele>
        <time>2025-04-30T15:10:57Z</time>
      </trkpt>
      <trkpt lat="45.63647" lon="4.578">
        <ele>813</ele>
        <time>2025-04-30T15:10:58Z</time>
      </trkpt>
      <trkpt lat="45.63645" lon="4.57804">
        <ele>812.8</ele>
        <time>2025-04-30T15:10:59Z</time>
      </trkpt>
      <trkpt lat="45.63643" lon="4.57808">
        <ele>812.8</ele>
        <time>2025-04-30T15:11:00Z</time>
      </trkpt>
      <trkpt lat="45.6364" lon="4.57813">
        <ele>812.2</ele>
        <time>2025-04-30T15:11:01Z</time>
      </trkpt>
      <trkpt lat="45.63638" lon="4.57819">
        <ele>811.4</ele>
        <time>2025-04-30T15:11:02Z</time>
      </trkpt>
      <trkpt lat="45.63636" lon="4.57822">
        <ele>811.2</ele>
        <time>2025-04-30T15:11:03Z</time>
      </trkpt>
      <trkpt lat="45.63634" lon="4.57827">
        <ele>810.8</ele>
        <time>2025-04-30T15:11:04Z</time>
      </trkpt>
      <trkpt lat="45.63632" lon="4.57831">
        <ele>810.6</ele>
        <time>2025-04-30T15:11:05Z</time>
      </trkpt>
      <trkpt lat="45.63632" lon="4.57833">
        <ele>810.6</ele>
        <time>2025-04-30T15:11:06Z</time>
      </trkpt>
      <trkpt lat="45.63629" lon="4.57837">
        <ele>810.4</ele>
        <time>2025-04-30T15:11:07Z</time>
      </trkpt>
      <trkpt lat="45.63627" lon="4.5784">
        <ele>810.6</ele>
        <time>2025-04-30T15:11:08Z</time>
      </trkpt>
      <trkpt lat="45.63625" lon="4.57843">
        <ele>810.6</ele>
        <time>2025-04-30T15:11:09Z</time>
      </trkpt>
      <trkpt lat="45.63622" lon="4.57846">
        <ele>810.6</ele>
        <time>2025-04-30T15:11:10Z</time>
      </trkpt>
      <trkpt lat="45.6362" lon="4.5785">
        <ele>810.4</ele>
        <time>2025-04-30T15:11:11Z</time>
      </trkpt>
      <trkpt lat="45.63618" lon="4.57855">
        <ele>810.4</ele>
        <time>2025-04-30T15:11:12Z</time>
      </trkpt>
      <trkpt lat="45.63616" lon="4.57861">
        <ele>810</ele>
        <time>2025-04-30T15:11:13Z</time>
      </trkpt>
      <trkpt lat="45.63614" lon="4.57866">
        <ele>810</ele>
        <time>2025-04-30T15:11:14Z</time>
      </trkpt>
      <trkpt lat="45.63613" lon="4.57871">
        <ele>809.8</ele>
        <time>2025-04-30T15:11:15Z</time>
      </trkpt>
      <trkpt lat="45.63612" lon="4.57877">
        <ele>809.6</ele>
        <time>2025-04-30T15:11:16Z</time>
      </trkpt>
      <trkpt lat="45.63611" lon="4.57882">
        <ele>809.6</ele>
        <time>2025-04-30T15:11:17Z</time>
      </trkpt>
      <trkpt lat="45.6361" lon="4.57887">
        <ele>809.6</ele>
        <time>2025-04-30T15:11:18Z</time>
      </trkpt>
      <trkpt lat="45.6361" lon="4.57891">
        <ele>809.8</ele>
        <time>2025-04-30T15:11:19Z</time>
      </trkpt>
      <trkpt lat="45.6361" lon="4.57896">
        <ele>809.8</ele>
        <time>2025-04-30T15:11:20Z</time>
      </trkpt>
      <trkpt lat="45.63609" lon="4.57902">
        <ele>809.8</ele>
        <time>2025-04-30T15:11:21Z</time>
      </trkpt>
      <trkpt lat="45.63609" lon="4.57909">
        <ele>809.8</ele>
        <time>2025-04-30T15:11:22Z</time>
      </trkpt>
      <trkpt lat="45.63608" lon="4.57914">
        <ele>810</ele>
        <time>2025-04-30T15:11:23Z</time>
      </trkpt>
      <trkpt lat="45.63607" lon="4.57919">
        <ele>810</ele>
        <time>2025-04-30T15:11:24Z</time>
      </trkpt>
      <trkpt lat="45.63606" lon="4.57924">
        <ele>810.2</ele>
        <time>2025-04-30T15:11:25Z</time>
      </trkpt>
      <trkpt lat="45.63604" lon="4.57929">
        <ele>810.2</ele>
        <time>2025-04-30T15:11:26Z</time>
      </trkpt>
      <trkpt lat="45.63601" lon="4.57932">
        <ele>810.2</ele>
        <time>2025-04-30T15:11:27Z</time>
      </trkpt>
      <trkpt lat="45.63599" lon="4.57935">
        <ele>810.2</ele>
        <time>2025-04-30T15:11:28Z</time>
      </trkpt>
      <trkpt lat="45.63597" lon="4.57939">
        <ele>810.2</ele>
        <time>2025-04-30T15:11:29Z</time>
      </trkpt>
      <trkpt lat="45.63595" lon="4.57942">
        <ele>810.2</ele>
        <time>2025-04-30T15:11:30Z</time>
      </trkpt>
      <trkpt lat="45.63593" lon="4.57945">
        <ele>810.2</ele>
        <time>2025-04-30T15:11:31Z</time>
      </trkpt>
      <trkpt lat="45.63591" lon="4.57948">
        <ele>810.2</ele>
        <time>2025-04-30T15:11:32Z</time>
      </trkpt>
      <trkpt lat="45.63588" lon="4.57952">
        <ele>810.2</ele>
        <time>2025-04-30T15:11:33Z</time>
      </trkpt>
      <trkpt lat="45.63587" lon="4.57955">
        <ele>810.2</ele>
        <time>2025-04-30T15:11:34Z</time>
      </trkpt>
      <trkpt lat="45.63586" lon="4.57958">
        <ele>810.4</ele>
        <time>2025-04-30T15:11:35Z</time>
      </trkpt>
      <trkpt lat="45.63584" lon="4.57962">
        <ele>810.4</ele>
        <time>2025-04-30T15:11:36Z</time>
      </trkpt>
      <trkpt lat="45.63581" lon="4.57965">
        <ele>810.4</ele>
        <time>2025-04-30T15:11:37Z</time>
      </trkpt>
      <trkpt lat="45.63579" lon="4.57967">
        <ele>810.4</ele>
        <time>2025-04-30T15:11:38Z</time>
      </trkpt>
      <trkpt lat="45.63577" lon="4.5797">
        <ele>810.4</ele>
        <time>2025-04-30T15:11:39Z</time>
      </trkpt>
      <trkpt lat="45.63575" lon="4.57972">
        <ele>810</ele>
        <time>2025-04-30T15:11:40Z</time>
      </trkpt>
      <trkpt lat="45.63572" lon="4.57975">
        <ele>809.8</ele>
        <time>2025-04-30T15:11:41Z</time>
      </trkpt>
      <trkpt lat="45.63569" lon="4.57978">
        <ele>809.6</ele>
        <time>2025-04-30T15:11:42Z</time>
      </trkpt>
      <trkpt lat="45.63567" lon="4.5798">
        <ele>809.4</ele>
        <time>2025-04-30T15:11:43Z</time>
      </trkpt>
      <trkpt lat="45.63564" lon="4.57982">
        <ele>809.4</ele>
        <time>2025-04-30T15:11:44Z</time>
      </trkpt>
      <trkpt lat="45.6356" lon="4.57984">
        <ele>809.4</ele>
        <time>2025-04-30T15:11:45Z</time>
      </trkpt>
      <trkpt lat="45.63556" lon="4.57986">
        <ele>809.4</ele>
        <time>2025-04-30T15:11:46Z</time>
      </trkpt>
      <trkpt lat="45.63552" lon="4.57988">
        <ele>809.4</ele>
        <time>2025-04-30T15:11:47Z</time>
      </trkpt>
      <trkpt lat="45.63548" lon="4.5799">
        <ele>809.4</ele>
        <time>2025-04-30T15:11:48Z</time>
      </trkpt>
      <trkpt lat="45.63545" lon="4.57992">
        <ele>809.4</ele>
        <time>2025-04-30T15:11:49Z</time>
      </trkpt>
      <trkpt lat="45.63541" lon="4.57992">
        <ele>809.6</ele>
        <time>2025-04-30T15:11:50Z</time>
      </trkpt>
      <trkpt lat="45.63537" lon="4.57991">
        <ele>809.6</ele>
        <time>2025-04-30T15:11:51Z</time>
      </trkpt>
      <trkpt lat="45.63535" lon="4.57989">
        <ele>809.6</ele>
        <time>2025-04-30T15:11:52Z</time>
      </trkpt>
      <trkpt lat="45.63532" lon="4.57985">
        <ele>810</ele>
        <time>2025-04-30T15:11:53Z</time>
      </trkpt>
      <trkpt lat="45.63532" lon="4.57981">
        <ele>810.2</ele>
        <time>2025-04-30T15:11:54Z</time>
      </trkpt>
      <trkpt lat="45.6353" lon="4.57977">
        <ele>810.4</ele>
        <time>2025-04-30T15:11:55Z</time>
      </trkpt>
      <trkpt lat="45.63528" lon="4.57972">
        <ele>810.8</ele>
        <time>2025-04-30T15:11:56Z</time>
      </trkpt>
      <trkpt lat="45.63527" lon="4.57968">
        <ele>811</ele>
        <time>2025-04-30T15:11:57Z</time>
      </trkpt>
      <trkpt lat="45.63526" lon="4.57965">
        <ele>811</ele>
        <time>2025-04-30T15:11:58Z</time>
      </trkpt>
      <trkpt lat="45.63526" lon="4.57961">
        <ele>811.4</ele>
        <time>2025-04-30T15:11:59Z</time>
      </trkpt>
      <trkpt lat="45.63525" lon="4.57958">
        <ele>811.4</ele>
        <time>2025-04-30T15:12:00Z</time>
      </trkpt>
      <trkpt lat="45.63523" lon="4.57954">
        <ele>811.6</ele>
        <time>2025-04-30T15:12:01Z</time>
      </trkpt>
      <trkpt lat="45.63521" lon="4.57949">
        <ele>811.8</ele>
        <time>2025-04-30T15:12:02Z</time>
      </trkpt>
      <trkpt lat="45.63519" lon="4.57945">
        <ele>811.8</ele>
        <time>2025-04-30T15:12:03Z</time>
      </trkpt>
      <trkpt lat="45.63517" lon="4.57941">
        <ele>812</ele>
        <time>2025-04-30T15:12:04Z</time>
      </trkpt>
      <trkpt lat="45.63515" lon="4.57938">
        <ele>812</ele>
        <time>2025-04-30T15:12:05Z</time>
      </trkpt>
      <trkpt lat="45.63511" lon="4.57933">
        <ele>812.2</ele>
        <time>2025-04-30T15:12:06Z</time>
      </trkpt>
      <trkpt lat="45.63508" lon="4.57929">
        <ele>812.2</ele>
        <time>2025-04-30T15:12:07Z</time>
      </trkpt>
      <trkpt lat="45.63505" lon="4.57926">
        <ele>812.2</ele>
        <time>2025-04-30T15:12:08Z</time>
      </trkpt>
      <trkpt lat="45.63502" lon="4.57924">
        <ele>812.4</ele>
        <time>2025-04-30T15:12:09Z</time>
      </trkpt>
      <trkpt lat="45.63498" lon="4.57922">
        <ele>812.4</ele>
        <time>2025-04-30T15:12:10Z</time>
      </trkpt>
      <trkpt lat="45.63495" lon="4.57921">
        <ele>812.6</ele>
        <time>2025-04-30T15:12:11Z</time>
      </trkpt>
      <trkpt lat="45.63492" lon="4.57921">
        <ele>812.6</ele>
        <time>2025-04-30T15:12:12Z</time>
      </trkpt>
      <trkpt lat="45.63489" lon="4.5792">
        <ele>812.8</ele>
        <time>2025-04-30T15:12:13Z</time>
      </trkpt>
      <trkpt lat="45.63486" lon="4.57919">
        <ele>812.8</ele>
        <time>2025-04-30T15:12:14Z</time>
      </trkpt>
      <trkpt lat="45.63483" lon="4.57918">
        <ele>812.8</ele>
        <time>2025-04-30T15:12:15Z</time>
      </trkpt>
      <trkpt lat="45.63479" lon="4.57918">
        <ele>812.8</ele>
        <time>2025-04-30T15:12:16Z</time>
      </trkpt>
      <trkpt lat="45.63476" lon="4.57917">
        <ele>813</ele>
        <time>2025-04-30T15:12:17Z</time>
      </trkpt>
      <trkpt lat="45.63473" lon="4.57917">
        <ele>813</ele>
        <time>2025-04-30T15:12:18Z</time>
      </trkpt>
      <trkpt lat="45.6347" lon="4.57916">
        <ele>813</ele>
        <time>2025-04-30T15:12:19Z</time>
      </trkpt>
      <trkpt lat="45.63467" lon="4.57916">
        <ele>813.4</ele>
        <time>2025-04-30T15:12:20Z</time>
      </trkpt>
      <trkpt lat="45.63465" lon="4.57917">
        <ele>813.4</ele>
        <time>2025-04-30T15:12:21Z</time>
      </trkpt>
      <trkpt lat="45.63461" lon="4.57917">
        <ele>813.6</ele>
        <time>2025-04-30T15:12:22Z</time>
      </trkpt>
      <trkpt lat="45.63458" lon="4.57918">
        <ele>813.8</ele>
        <time>2025-04-30T15:12:23Z</time>
      </trkpt>
      <trkpt lat="45.63454" lon="4.57918">
        <ele>814</ele>
        <time>2025-04-30T15:12:24Z</time>
      </trkpt>
      <trkpt lat="45.63451" lon="4.57918">
        <ele>814.2</ele>
        <time>2025-04-30T15:12:25Z</time>
      </trkpt>
      <trkpt lat="45.63448" lon="4.57919">
        <ele>814.2</ele>
        <time>2025-04-30T15:12:26Z</time>
      </trkpt>
      <trkpt lat="45.63444" lon="4.57919">
        <ele>814.2</ele>
        <time>2025-04-30T15:12:27Z</time>
      </trkpt>
      <trkpt lat="45.6344" lon="4.5792">
        <ele>814.2</ele>
        <time>2025-04-30T15:12:28Z</time>
      </trkpt>
      <trkpt lat="45.63436" lon="4.5792">
        <ele>814.2</ele>
        <time>2025-04-30T15:12:29Z</time>
      </trkpt>
      <trkpt lat="45.63431" lon="4.5792">
        <ele>814.2</ele>
        <time>2025-04-30T15:12:30Z</time>
      </trkpt>
      <trkpt lat="45.63427" lon="4.57921">
        <ele>813.8</ele>
        <time>2025-04-30T15:12:31Z</time>
      </trkpt>
      <trkpt lat="45.63421" lon="4.57924">
        <ele>813.4</ele>
        <time>2025-04-30T15:12:32Z</time>
      </trkpt>
      <trkpt lat="45.63417" lon="4.57926">
        <ele>813.2</ele>
        <time>2025-04-30T15:12:33Z</time>
      </trkpt>
      <trkpt lat="45.63413" lon="4.57928">
        <ele>812.8</ele>
        <time>2025-04-30T15:12:34Z</time>
      </trkpt>
      <trkpt lat="45.63407" lon="4.57931">
        <ele>812.6</ele>
        <time>2025-04-30T15:12:35Z</time>
      </trkpt>
      <trkpt lat="45.63402" lon="4.57933">
        <ele>812.6</ele>
        <time>2025-04-30T15:12:36Z</time>
      </trkpt>
      <trkpt lat="45.63398" lon="4.57935">
        <ele>812.4</ele>
        <time>2025-04-30T15:12:37Z</time>
      </trkpt>
      <trkpt lat="45.63393" lon="4.57938">
        <ele>812</ele>
        <time>2025-04-30T15:12:38Z</time>
      </trkpt>
      <trkpt lat="45.63389" lon="4.5794">
        <ele>811.4</ele>
        <time>2025-04-30T15:12:39Z</time>
      </trkpt>
      <trkpt lat="45.63386" lon="4.57941">
        <ele>811.4</ele>
        <time>2025-04-30T15:12:40Z</time>
      </trkpt>
      <trkpt lat="45.63384" lon="4.57943">
        <ele>811.4</ele>
        <time>2025-04-30T15:12:41Z</time>
      </trkpt>
      <trkpt lat="45.63383" lon="4.57943">
        <ele>811.4</ele>
        <time>2025-04-30T15:12:42Z</time>
      </trkpt>
      <trkpt lat="45.63383" lon="4.57943">
        <ele>811.8</ele>
        <time>2025-04-30T15:12:43Z</time>
      </trkpt>
      <trkpt lat="45.63383" lon="4.57943">
        <ele>813.2</ele>
        <time>2025-04-30T15:12:44Z</time>
      </trkpt>
      <trkpt lat="45.63383" lon="4.57943">
        <ele>813.2</ele>
        <time>2025-04-30T15:12:45Z</time>
      </trkpt>
      <trkpt lat="45.63383" lon="4.57943">
        <ele>813.2</ele>
        <time>2025-04-30T15:12:46Z</time>
      </trkpt>
      <trkpt lat="45.63383" lon="4.57943">
        <ele>813.2</ele>
        <time>2025-04-30T15:12:47Z</time>
      </trkpt>
      <trkpt lat="45.63383" lon="4.57943">
        <ele>813.2</ele>
        <time>2025-04-30T15:12:48Z</time>
      </trkpt>
      <trkpt lat="45.63383" lon="4.57943">
        <ele>813.2</ele>
        <time>2025-04-30T15:12:49Z</time>
      </trkpt>
      <trkpt lat="45.63383" lon="4.57943">
        <ele>813.2</ele>
        <time>2025-04-30T15:12:50Z</time>
      </trkpt>
      <trkpt lat="45.63383" lon="4.57943">
        <ele>813.2</ele>
        <time>2025-04-30T15:12:51Z</time>
      </trkpt>
      <trkpt lat="45.63383" lon="4.57943">
        <ele>813.2</ele>
        <time>2025-04-30T15:12:52Z</time>
      </trkpt>
      <trkpt lat="45.63383" lon="4.57943">
        <ele>813.2</ele>
        <time>2025-04-30T15:12:53Z</time>
      </trkpt>
      <trkpt lat="45.63383" lon="4.57943">
        <ele>813.2</ele>
        <time>2025-04-30T15:12:54Z</time>
      </trkpt>
      <trkpt lat="45.63383" lon="4.57943">
        <ele>813.2</ele>
        <time>2025-04-30T15:12:55Z</time>
      </trkpt>
      <trkpt lat="45.63383" lon="4.57943">
        <ele>813.2</ele>
        <time>2025-04-30T15:12:56Z</time>
      </trkpt>
      <trkpt lat="45.63383" lon="4.57943">
        <ele>813.2</ele>
        <time>2025-04-30T15:12:57Z</time>
      </trkpt>
      <trkpt lat="45.63383" lon="4.57943">
        <ele>813.2</ele>
        <time>2025-04-30T15:12:58Z</time>
      </trkpt>
      <trkpt lat="45.63383" lon="4.57943">
        <ele>813.2</ele>
        <time>2025-04-30T15:12:59Z</time>
      </trkpt>
      <trkpt lat="45.63383" lon="4.57943">
        <ele>813.2</ele>
        <time>2025-04-30T15:13:00Z</time>
      </trkpt>
      <trkpt lat="45.63383" lon="4.57943">
        <ele>813.2</ele>
        <time>2025-04-30T15:13:01Z</time>
      </trkpt>
      <trkpt lat="45.63383" lon="4.57943">
        <ele>813.2</ele>
        <time>2025-04-30T15:13:02Z</time>
      </trkpt>
      <trkpt lat="45.63383" lon="4.57943">
        <ele>813.2</ele>
        <time>2025-04-30T15:13:03Z</time>
      </trkpt>
      <trkpt lat="45.63383" lon="4.57943">
        <ele>813.2</ele>
        <time>2025-04-30T15:13:04Z</time>
      </trkpt>
      <trkpt lat="45.63383" lon="4.57943">
        <ele>813.2</ele>
        <time>2025-04-30T15:13:05Z</time>
      </trkpt>
      <trkpt lat="45.63383" lon="4.57943">
        <ele>813.2</ele>
        <time>2025-04-30T15:13:06Z</time>
      </trkpt>
      <trkpt lat="45.63383" lon="4.57943">
        <ele>813.2</ele>
        <time>2025-04-30T15:13:07Z</time>
      </trkpt>
      <trkpt lat="45.63382" lon="4.57943">
        <ele>813.2</ele>
        <time>2025-04-30T15:13:08Z</time>
      </trkpt>
      <trkpt lat="45.63382" lon="4.57944">
        <ele>813.2</ele>
        <time>2025-04-30T15:13:09Z</time>
      </trkpt>
      <trkpt lat="45.63381" lon="4.57944">
        <ele>813.2</ele>
        <time>2025-04-30T15:13:10Z</time>
      </trkpt>
      <trkpt lat="45.63381" lon="4.57944">
        <ele>813.2</ele>
        <time>2025-04-30T15:13:11Z</time>
      </trkpt>
      <trkpt lat="45.63381" lon="4.57944">
        <ele>813.2</ele>
        <time>2025-04-30T15:13:12Z</time>
      </trkpt>
      <trkpt lat="45.63381" lon="4.57944">
        <ele>813.2</ele>
        <time>2025-04-30T15:13:13Z</time>
      </trkpt>
      <trkpt lat="45.63381" lon="4.57944">
        <ele>813.2</ele>
        <time>2025-04-30T15:13:14Z</time>
      </trkpt>
      <trkpt lat="45.63381" lon="4.57944">
        <ele>813.2</ele>
        <time>2025-04-30T15:13:15Z</time>
      </trkpt>
      <trkpt lat="45.63381" lon="4.57944">
        <ele>813.2</ele>
        <time>2025-04-30T15:13:16Z</time>
      </trkpt>
      <trkpt lat="45.63381" lon="4.57944">
        <ele>813.2</ele>
        <time>2025-04-30T15:13:17Z</time>
      </trkpt>
      <trkpt lat="45.63381" lon="4.57944">
        <ele>813.2</ele>
        <time>2025-04-30T15:13:18Z</time>
      </trkpt>
      <trkpt lat="45.63381" lon="4.57944">
        <ele>813.2</ele>
        <time>2025-04-30T15:13:19Z</time>
      </trkpt>
      <trkpt lat="45.63381" lon="4.57944">
        <ele>813.2</ele>
        <time>2025-04-30T15:13:20Z</time>
      </trkpt>
      <trkpt lat="45.63381" lon="4.57944">
        <ele>813.2</ele>
        <time>2025-04-30T15:13:21Z</time>
      </trkpt>
      <trkpt lat="45.63381" lon="4.57944">
        <ele>813.2</ele>
        <time>2025-04-30T15:13:22Z</time>
      </trkpt>
      <trkpt lat="45.63381" lon="4.57944">
        <ele>813.2</ele>
        <time>2025-04-30T15:13:23Z</time>
      </trkpt>
      <trkpt lat="45.63381" lon="4.57944">
        <ele>813.2</ele>
        <time>2025-04-30T15:13:24Z</time>
      </trkpt>
      <trkpt lat="45.63381" lon="4.57944">
        <ele>813.2</ele>
        <time>2025-04-30T15:13:25Z</time>
      </trkpt>
      <trkpt lat="45.63381" lon="4.57944">
        <ele>813.2</ele>
        <time>2025-04-30T15:13:26Z</time>
      </trkpt>
      <trkpt lat="45.63381" lon="4.57944">
        <ele>813.2</ele>
        <time>2025-04-30T15:13:27Z</time>
      </trkpt>
      <trkpt lat="45.63381" lon="4.57944">
        <ele>813.2</ele>
        <time>2025-04-30T15:13:28Z</time>
      </trkpt>
      <trkpt lat="45.63381" lon="4.57944">
        <ele>813.2</ele>
        <time>2025-04-30T15:13:29Z</time>
      </trkpt>
      <trkpt lat="45.63381" lon="4.57944">
        <ele>813.2</ele>
        <time>2025-04-30T15:13:30Z</time>
      </trkpt>
      <trkpt lat="45.63381" lon="4.57944">
        <ele>813.2</ele>
        <time>2025-04-30T15:13:31Z</time>
      </trkpt>
      <trkpt lat="45.63381" lon="4.57944">
        <ele>813.2</ele>
        <time>2025-04-30T15:13:32Z</time>
      </trkpt>
      <trkpt lat="45.63381" lon="4.57944">
        <ele>813.2</ele>
        <time>2025-04-30T15:13:33Z</time>
      </trkpt>
      <trkpt lat="45.63381" lon="4.57944">
        <ele>813.2</ele>
        <time>2025-04-30T15:13:34Z</time>
      </trkpt>
      <trkpt lat="45.63381" lon="4.57944">
        <ele>813.2</ele>
        <time>2025-04-30T15:13:35Z</time>
      </trkpt>
      <trkpt lat="45.63381" lon="4.57944">
        <ele>813.2</ele>
        <time>2025-04-30T15:13:36Z</time>
      </trkpt>
      <trkpt lat="45.63381" lon="4.57944">
        <ele>813.2</ele>
        <time>2025-04-30T15:13:37Z</time>
      </trkpt>
      <trkpt lat="45.63381" lon="4.57944">
        <ele>813.2</ele>
        <time>2025-04-30T15:13:38Z</time>
      </trkpt>
      <trkpt lat="45.63381" lon="4.57944">
        <ele>813.2</ele>
        <time>2025-04-30T15:13:39Z</time>
      </trkpt>
      <trkpt lat="45.63381" lon="4.57944">
        <ele>813.2</ele>
        <time>2025-04-30T15:13:40Z</time>
      </trkpt>
      <trkpt lat="45.63381" lon="4.57944">
        <ele>813.2</ele>
        <time>2025-04-30T15:13:41Z</time>
      </trkpt>
      <trkpt lat="45.63381" lon="4.57944">
        <ele>813.2</ele>
        <time>2025-04-30T15:13:42Z</time>
      </trkpt>
      <trkpt lat="45.63381" lon="4.57944">
        <ele>813.2</ele>
        <time>2025-04-30T15:13:43Z</time>
      </trkpt>
      <trkpt lat="45.63381" lon="4.57944">
        <ele>813.2</ele>
        <time>2025-04-30T15:13:44Z</time>
      </trkpt>
      <trkpt lat="45.63381" lon="4.57944">
        <ele>813.2</ele>
        <time>2025-04-30T15:13:45Z</time>
      </trkpt>
      <trkpt lat="45.63381" lon="4.57944">
        <ele>813.2</ele>
        <time>2025-04-30T15:13:46Z</time>
      </trkpt>
      <trkpt lat="45.63381" lon="4.57944">
        <ele>813.2</ele>
        <time>2025-04-30T15:13:47Z</time>
      </trkpt>
      <trkpt lat="45.63381" lon="4.57944">
        <ele>813.2</ele>
        <time>2025-04-30T15:13:48Z</time>
      </trkpt>
      <trkpt lat="45.63381" lon="4.57944">
        <ele>813.2</ele>
        <time>2025-04-30T15:13:49Z</time>
      </trkpt>
      <trkpt lat="45.63381" lon="4.57944">
        <ele>813.2</ele>
        <time>2025-04-30T15:13:50Z</time>
      </trkpt>
      <trkpt lat="45.63381" lon="4.57944">
        <ele>813.2</ele>
        <time>2025-04-30T15:13:51Z</time>
      </trkpt>
      <trkpt lat="45.63381" lon="4.57944">
        <ele>813.2</ele>
        <time>2025-04-30T15:13:52Z</time>
      </trkpt>
      <trkpt lat="45.63381" lon="4.57944">
        <ele>813.2</ele>
        <time>2025-04-30T15:13:53Z</time>
      </trkpt>
      <trkpt lat="45.63381" lon="4.57944">
        <ele>813.2</ele>
        <time>2025-04-30T15:13:54Z</time>
      </trkpt>
      <trkpt lat="45.63381" lon="4.57944">
        <ele>813.2</ele>
        <time>2025-04-30T15:13:55Z</time>
      </trkpt>
      <trkpt lat="45.63381" lon="4.57944">
        <ele>813.2</ele>
        <time>2025-04-30T15:13:56Z</time>
      </trkpt>
      <trkpt lat="45.63381" lon="4.57944">
        <ele>813.2</ele>
        <time>2025-04-30T15:13:57Z</time>
      </trkpt>
      <trkpt lat="45.63381" lon="4.57944">
        <ele>813.2</ele>
        <time>2025-04-30T15:13:58Z</time>
      </trkpt>
      <trkpt lat="45.63381" lon="4.57944">
        <ele>813.2</ele>
        <time>2025-04-30T15:13:59Z</time>
      </trkpt>
      <trkpt lat="45.63381" lon="4.57944">
        <ele>813.2</ele>
        <time>2025-04-30T15:14:00Z</time>
      </trkpt>
      <trkpt lat="45.63381" lon="4.57944">
        <ele>813.2</ele>
        <time>2025-04-30T15:14:01Z</time>
      </trkpt>
      <trkpt lat="45.63381" lon="4.57944">
        <ele>813.2</ele>
        <time>2025-04-30T15:14:02Z</time>
      </trkpt>
      <trkpt lat="45.63381" lon="4.57944">
        <ele>813.2</ele>
        <time>2025-04-30T15:14:03Z</time>
      </trkpt>
      <trkpt lat="45.63381" lon="4.57944">
        <ele>813.2</ele>
        <time>2025-04-30T15:14:04Z</time>
      </trkpt>
      <trkpt lat="45.63381" lon="4.57944">
        <ele>813.2</ele>
        <time>2025-04-30T15:14:05Z</time>
      </trkpt>
      <trkpt lat="45.63381" lon="4.57944">
        <ele>813.2</ele>
        <time>2025-04-30T15:14:06Z</time>
      </trkpt>
      <trkpt lat="45.63381" lon="4.57944">
        <ele>813.2</ele>
        <time>2025-04-30T15:14:07Z</time>
      </trkpt>
      <trkpt lat="45.63381" lon="4.57944">
        <ele>813.2</ele>
        <time>2025-04-30T15:14:08Z</time>
      </trkpt>
      <trkpt lat="45.63381" lon="4.57944">
        <ele>813.2</ele>
        <time>2025-04-30T15:14:09Z</time>
      </trkpt>
      <trkpt lat="45.63381" lon="4.57944">
        <ele>813.2</ele>
        <time>2025-04-30T15:14:10Z</time>
      </trkpt>
      <trkpt lat="45.63381" lon="4.57944">
        <ele>813.2</ele>
        <time>2025-04-30T15:14:11Z</time>
      </trkpt>
      <trkpt lat="45.63381" lon="4.57944">
        <ele>813.2</ele>
        <time>2025-04-30T15:14:12Z</time>
      </trkpt>
      <trkpt lat="45.63381" lon="4.57944">
        <ele>813.2</ele>
        <time>2025-04-30T15:14:13Z</time>
      </trkpt>
      <trkpt lat="45.63381" lon="4.57944">
        <ele>813.2</ele>
        <time>2025-04-30T15:14:14Z</time>
      </trkpt>
      <trkpt lat="45.63381" lon="4.57944">
        <ele>813.2</ele>
        <time>2025-04-30T15:14:15Z</time>
      </trkpt>
      <trkpt lat="45.63381" lon="4.57944">
        <ele>813.2</ele>
        <time>2025-04-30T15:14:16Z</time>
      </trkpt>
      <trkpt lat="45.63381" lon="4.57944">
        <ele>813.2</ele>
        <time>2025-04-30T15:14:17Z</time>
      </trkpt>
      <trkpt lat="45.63381" lon="4.57944">
        <ele>813.2</ele>
        <time>2025-04-30T15:14:18Z</time>
      </trkpt>
      <trkpt lat="45.63381" lon="4.57944">
        <ele>813.2</ele>
        <time>2025-04-30T15:14:19Z</time>
      </trkpt>
      <trkpt lat="45.63381" lon="4.57944">
        <ele>813.2</ele>
        <time>2025-04-30T15:14:20Z</time>
      </trkpt>
      <trkpt lat="45.63381" lon="4.57944">
        <ele>813.2</ele>
        <time>2025-04-30T15:14:21Z</time>
      </trkpt>
      <trkpt lat="45.63381" lon="4.57944">
        <ele>813.2</ele>
        <time>2025-04-30T15:14:22Z</time>
      </trkpt>
      <trkpt lat="45.63381" lon="4.57944">
        <ele>813.2</ele>
        <time>2025-04-30T15:14:23Z</time>
      </trkpt>
      <trkpt lat="45.63381" lon="4.57944">
        <ele>813.2</ele>
        <time>2025-04-30T15:14:24Z</time>
      </trkpt>
      <trkpt lat="45.63381" lon="4.57944">
        <ele>813.2</ele>
        <time>2025-04-30T15:14:25Z</time>
      </trkpt>
      <trkpt lat="45.6338" lon="4.57945">
        <ele>813.2</ele>
        <time>2025-04-30T15:14:26Z</time>
      </trkpt>
      <trkpt lat="45.63379" lon="4.57945">
        <ele>813.2</ele>
        <time>2025-04-30T15:14:27Z</time>
      </trkpt>
      <trkpt lat="45.63377" lon="4.57947">
        <ele>813.6</ele>
        <time>2025-04-30T15:14:28Z</time>
      </trkpt>
      <trkpt lat="45.63374" lon="4.57949">
        <ele>813.4</ele>
        <time>2025-04-30T15:14:29Z</time>
      </trkpt>
      <trkpt lat="45.63371" lon="4.57951">
        <ele>813.2</ele>
        <time>2025-04-30T15:14:30Z</time>
      </trkpt>
      <trkpt lat="45.63368" lon="4.57954">
        <ele>813</ele>
        <time>2025-04-30T15:14:31Z</time>
      </trkpt>
      <trkpt lat="45.63365" lon="4.57957">
        <ele>812.4</ele>
        <time>2025-04-30T15:14:32Z</time>
      </trkpt>
      <trkpt lat="45.63361" lon="4.57961">
        <ele>812.2</ele>
        <time>2025-04-30T15:14:33Z</time>
      </trkpt>
      <trkpt lat="45.63358" lon="4.57965">
        <ele>812.2</ele>
        <time>2025-04-30T15:14:34Z</time>
      </trkpt>
      <trkpt lat="45.63354" lon="4.57969">
        <ele>812</ele>
        <time>2025-04-30T15:14:35Z</time>
      </trkpt>
      <trkpt lat="45.63351" lon="4.57973">
        <ele>812</ele>
        <time>2025-04-30T15:14:36Z</time>
      </trkpt>
      <trkpt lat="45.63348" lon="4.57977">
        <ele>812</ele>
        <time>2025-04-30T15:14:37Z</time>
      </trkpt>
      <trkpt lat="45.63344" lon="4.57981">
        <ele>812</ele>
        <time>2025-04-30T15:14:38Z</time>
      </trkpt>
      <trkpt lat="45.63341" lon="4.57983">
        <ele>812</ele>
        <time>2025-04-30T15:14:39Z</time>
      </trkpt>
      <trkpt lat="45.63338" lon="4.57986">
        <ele>812</ele>
        <time>2025-04-30T15:14:40Z</time>
      </trkpt>
      <trkpt lat="45.63334" lon="4.57989">
        <ele>812</ele>
        <time>2025-04-30T15:14:41Z</time>
      </trkpt>
      <trkpt lat="45.63331" lon="4.57992">
        <ele>812</ele>
        <time>2025-04-30T15:14:42Z</time>
      </trkpt>
      <trkpt lat="45.63327" lon="4.57996">
        <ele>812</ele>
        <time>2025-04-30T15:14:43Z</time>
      </trkpt>
      <trkpt lat="45.63323" lon="4.57999">
        <ele>812</ele>
        <time>2025-04-30T15:14:44Z</time>
      </trkpt>
      <trkpt lat="45.63321" lon="4.58002">
        <ele>812</ele>
        <time>2025-04-30T15:14:45Z</time>
      </trkpt>
      <trkpt lat="45.63317" lon="4.58004">
        <ele>812</ele>
        <time>2025-04-30T15:14:46Z</time>
      </trkpt>
      <trkpt lat="45.63314" lon="4.58007">
        <ele>812.2</ele>
        <time>2025-04-30T15:14:47Z</time>
      </trkpt>
      <trkpt lat="45.63311" lon="4.58009">
        <ele>812.2</ele>
        <time>2025-04-30T15:14:48Z</time>
      </trkpt>
      <trkpt lat="45.63308" lon="4.58011">
        <ele>812.2</ele>
        <time>2025-04-30T15:14:49Z</time>
      </trkpt>
      <trkpt lat="45.63305" lon="4.58013">
        <ele>812.2</ele>
        <time>2025-04-30T15:14:50Z</time>
      </trkpt>
      <trkpt lat="45.63302" lon="4.58015">
        <ele>812.2</ele>
        <time>2025-04-30T15:14:51Z</time>
      </trkpt>
      <trkpt lat="45.63299" lon="4.58017">
        <ele>812.2</ele>
        <time>2025-04-30T15:14:52Z</time>
      </trkpt>
      <trkpt lat="45.63296" lon="4.5802">
        <ele>812.2</ele>
        <time>2025-04-30T15:14:53Z</time>
      </trkpt>
      <trkpt lat="45.63292" lon="4.58022">
        <ele>812.2</ele>
        <time>2025-04-30T15:14:54Z</time>
      </trkpt>
      <trkpt lat="45.63288" lon="4.58025">
        <ele>811.8</ele>
        <time>2025-04-30T15:14:55Z</time>
      </trkpt>
      <trkpt lat="45.63283" lon="4.58028">
        <ele>811.4</ele>
        <time>2025-04-30T15:14:56Z</time>
      </trkpt>
      <trkpt lat="45.63279" lon="4.58031">
        <ele>811</ele>
        <time>2025-04-30T15:14:57Z</time>
      </trkpt>
      <trkpt lat="45.63276" lon="4.58033">
        <ele>810.4</ele>
        <time>2025-04-30T15:14:58Z</time>
      </trkpt>
      <trkpt lat="45.63272" lon="4.58035">
        <ele>810.2</ele>
        <time>2025-04-30T15:14:59Z</time>
      </trkpt>
      <trkpt lat="45.63269" lon="4.58037">
        <ele>810.2</ele>
        <time>2025-04-30T15:15:00Z</time>
      </trkpt>
      <trkpt lat="45.63267" lon="4.58039">
        <ele>810.2</ele>
        <time>2025-04-30T15:15:01Z</time>
      </trkpt>
      <trkpt lat="45.63265" lon="4.58042">
        <ele>810.2</ele>
        <time>2025-04-30T15:15:02Z</time>
      </trkpt>
      <trkpt lat="45.63265" lon="4.58045">
        <ele>810.2</ele>
        <time>2025-04-30T15:15:03Z</time>
      </trkpt>
      <trkpt lat="45.63266" lon="4.58047">
        <ele>810.2</ele>
        <time>2025-04-30T15:15:04Z</time>
      </trkpt>
      <trkpt lat="45.63268" lon="4.5805">
        <ele>810.2</ele>
        <time>2025-04-30T15:15:05Z</time>
      </trkpt>
      <trkpt lat="45.6327" lon="4.58052">
        <ele>810.6</ele>
        <time>2025-04-30T15:15:06Z</time>
      </trkpt>
      <trkpt lat="45.63273" lon="4.58054">
        <ele>811</ele>
        <time>2025-04-30T15:15:07Z</time>
      </trkpt>
      <trkpt lat="45.63275" lon="4.58056">
        <ele>811.4</ele>
        <time>2025-04-30T15:15:08Z</time>
      </trkpt>
      <trkpt lat="45.63277" lon="4.58058">
        <ele>811.6</ele>
        <time>2025-04-30T15:15:09Z</time>
      </trkpt>
      <trkpt lat="45.63279" lon="4.5806">
        <ele>812.2</ele>
        <time>2025-04-30T15:15:10Z</time>
      </trkpt>
      <trkpt lat="45.63281" lon="4.58063">
        <ele>812.6</ele>
        <time>2025-04-30T15:15:11Z</time>
      </trkpt>
      <trkpt lat="45.63283" lon="4.58065">
        <ele>813.2</ele>
        <time>2025-04-30T15:15:12Z</time>
      </trkpt>
      <trkpt lat="45.63285" lon="4.58067">
        <ele>813.6</ele>
        <time>2025-04-30T15:15:13Z</time>
      </trkpt>
      <trkpt lat="45.63286" lon="4.5807">
        <ele>814</ele>
        <time>2025-04-30T15:15:14Z</time>
      </trkpt>
      <trkpt lat="45.63288" lon="4.58071">
        <ele>814.4</ele>
        <time>2025-04-30T15:15:15Z</time>
      </trkpt>
      <trkpt lat="45.6329" lon="4.58074">
        <ele>814.8</ele>
        <time>2025-04-30T15:15:16Z</time>
      </trkpt>
      <trkpt lat="45.63292" lon="4.58076">
        <ele>815.2</ele>
        <time>2025-04-30T15:15:17Z</time>
      </trkpt>
      <trkpt lat="45.63294" lon="4.58079">
        <ele>815.4</ele>
        <time>2025-04-30T15:15:18Z</time>
      </trkpt>
      <trkpt lat="45.63295" lon="4.58081">
        <ele>816</ele>
        <time>2025-04-30T15:15:19Z</time>
      </trkpt>
      <trkpt lat="45.63297" lon="4.58084">
        <ele>816.4</ele>
        <time>2025-04-30T15:15:20Z</time>
      </trkpt>
      <trkpt lat="45.63298" lon="4.58086">
        <ele>816.8</ele>
        <time>2025-04-30T15:15:21Z</time>
      </trkpt>
      <trkpt lat="45.633" lon="4.58088">
        <ele>817.2</ele>
        <time>2025-04-30T15:15:22Z</time>
      </trkpt>
      <trkpt lat="45.63301" lon="4.5809">
        <ele>817.6</ele>
        <time>2025-04-30T15:15:23Z</time>
      </trkpt>
      <trkpt lat="45.63302" lon="4.58093">
        <ele>818.2</ele>
        <time>2025-04-30T15:15:24Z</time>
      </trkpt>
      <trkpt lat="45.63303" lon="4.58095">
        <ele>818.6</ele>
        <time>2025-04-30T15:15:25Z</time>
      </trkpt>
      <trkpt lat="45.63305" lon="4.58098">
        <ele>818.8</ele>
        <time>2025-04-30T15:15:26Z</time>
      </trkpt>
      <trkpt lat="45.63306" lon="4.581">
        <ele>819.2</ele>
        <time>2025-04-30T15:15:27Z</time>
      </trkpt>
      <trkpt lat="45.63306" lon="4.58102">
        <ele>819.4</ele>
        <time>2025-04-30T15:15:28Z</time>
      </trkpt>
      <trkpt lat="45.63307" lon="4.58104">
        <ele>819.8</ele>
        <time>2025-04-30T15:15:29Z</time>
      </trkpt>
      <trkpt lat="45.63309" lon="4.58106">
        <ele>820.2</ele>
        <time>2025-04-30T15:15:30Z</time>
      </trkpt>
      <trkpt lat="45.6331" lon="4.58109">
        <ele>820.6</ele>
        <time>2025-04-30T15:15:31Z</time>
      </trkpt>
      <trkpt lat="45.63311" lon="4.58111">
        <ele>820.8</ele>
        <time>2025-04-30T15:15:32Z</time>
      </trkpt>
      <trkpt lat="45.63312" lon="4.58113">
        <ele>821.2</ele>
        <time>2025-04-30T15:15:33Z</time>
      </trkpt>
      <trkpt lat="45.63313" lon="4.58115">
        <ele>821.4</ele>
        <time>2025-04-30T15:15:34Z</time>
      </trkpt>
      <trkpt lat="45.63314" lon="4.58117">
        <ele>821.8</ele>
        <time>2025-04-30T15:15:35Z</time>
      </trkpt>
      <trkpt lat="45.63316" lon="4.58119">
        <ele>822</ele>
        <time>2025-04-30T15:15:36Z</time>
      </trkpt>
      <trkpt lat="45.63317" lon="4.5812">
        <ele>822.4</ele>
        <time>2025-04-30T15:15:37Z</time>
      </trkpt>
      <trkpt lat="45.63318" lon="4.58121">
        <ele>822.6</ele>
        <time>2025-04-30T15:15:38Z</time>
      </trkpt>
      <trkpt lat="45.63319" lon="4.58124">
        <ele>822.8</ele>
        <time>2025-04-30T15:15:39Z</time>
      </trkpt>
      <trkpt lat="45.6332" lon="4.58126">
        <ele>823.2</ele>
        <time>2025-04-30T15:15:40Z</time>
      </trkpt>
      <trkpt lat="45.63321" lon="4.58128">
        <ele>823.4</ele>
        <time>2025-04-30T15:15:41Z</time>
      </trkpt>
      <trkpt lat="45.63322" lon="4.5813">
        <ele>823.6</ele>
        <time>2025-04-30T15:15:42Z</time>
      </trkpt>
      <trkpt lat="45.63324" lon="4.58132">
        <ele>824</ele>
        <time>2025-04-30T15:15:43Z</time>
      </trkpt>
      <trkpt lat="45.63325" lon="4.58134">
        <ele>824.4</ele>
        <time>2025-04-30T15:15:44Z</time>
      </trkpt>
      <trkpt lat="45.63326" lon="4.58135">
        <ele>824.4</ele>
        <time>2025-04-30T15:15:45Z</time>
      </trkpt>
      <trkpt lat="45.63327" lon="4.58137">
        <ele>824.8</ele>
        <time>2025-04-30T15:15:46Z</time>
      </trkpt>
      <trkpt lat="45.63328" lon="4.58139">
        <ele>825.2</ele>
        <time>2025-04-30T15:15:47Z</time>
      </trkpt>
      <trkpt lat="45.63329" lon="4.5814">
        <ele>825.4</ele>
        <time>2025-04-30T15:15:48Z</time>
      </trkpt>
      <trkpt lat="45.63331" lon="4.58142">
        <ele>825.8</ele>
        <time>2025-04-30T15:15:49Z</time>
      </trkpt>
      <trkpt lat="45.63332" lon="4.58143">
        <ele>826.2</ele>
        <time>2025-04-30T15:15:50Z</time>
      </trkpt>
      <trkpt lat="45.63333" lon="4.58144">
        <ele>826.4</ele>
        <time>2025-04-30T15:15:51Z</time>
      </trkpt>
      <trkpt lat="45.63335" lon="4.58144">
        <ele>826.6</ele>
        <time>2025-04-30T15:15:52Z</time>
      </trkpt>
      <trkpt lat="45.63336" lon="4.58145">
        <ele>826.8</ele>
        <time>2025-04-30T15:15:53Z</time>
      </trkpt>
      <trkpt lat="45.63337" lon="4.58146">
        <ele>827</ele>
        <time>2025-04-30T15:15:54Z</time>
      </trkpt>
      <trkpt lat="45.63339" lon="4.58148">
        <ele>827.4</ele>
        <time>2025-04-30T15:15:55Z</time>
      </trkpt>
      <trkpt lat="45.63341" lon="4.58149">
        <ele>827.6</ele>
        <time>2025-04-30T15:15:56Z</time>
      </trkpt>
      <trkpt lat="45.63342" lon="4.5815">
        <ele>827.8</ele>
        <time>2025-04-30T15:15:57Z</time>
      </trkpt>
      <trkpt lat="45.63343" lon="4.58152">
        <ele>828</ele>
        <time>2025-04-30T15:15:58Z</time>
      </trkpt>
      <trkpt lat="45.63344" lon="4.58153">
        <ele>828.4</ele>
        <time>2025-04-30T15:15:59Z</time>
      </trkpt>
      <trkpt lat="45.63345" lon="4.58154">
        <ele>828.6</ele>
        <time>2025-04-30T15:16:00Z</time>
      </trkpt>
      <trkpt lat="45.63347" lon="4.58155">
        <ele>829</ele>
        <time>2025-04-30T15:16:01Z</time>
      </trkpt>
      <trkpt lat="45.63348" lon="4.58155">
        <ele>829.2</ele>
        <time>2025-04-30T15:16:02Z</time>
      </trkpt>
      <trkpt lat="45.6335" lon="4.58156">
        <ele>829.4</ele>
        <time>2025-04-30T15:16:03Z</time>
      </trkpt>
      <trkpt lat="45.63351" lon="4.58157">
        <ele>829.8</ele>
        <time>2025-04-30T15:16:04Z</time>
      </trkpt>
      <trkpt lat="45.63353" lon="4.58159">
        <ele>830</ele>
        <time>2025-04-30T15:16:05Z</time>
      </trkpt>
      <trkpt lat="45.63354" lon="4.5816">
        <ele>830.4</ele>
        <time>2025-04-30T15:16:06Z</time>
      </trkpt>
      <trkpt lat="45.63356" lon="4.58162">
        <ele>830.6</ele>
        <time>2025-04-30T15:16:07Z</time>
      </trkpt>
      <trkpt lat="45.63357" lon="4.58164">
        <ele>830.8</ele>
        <time>2025-04-30T15:16:08Z</time>
      </trkpt>
      <trkpt lat="45.63358" lon="4.58166">
        <ele>830.8</ele>
        <time>2025-04-30T15:16:09Z</time>
      </trkpt>
      <trkpt lat="45.63359" lon="4.58168">
        <ele>831.4</ele>
        <time>2025-04-30T15:16:10Z</time>
      </trkpt>
      <trkpt lat="45.6336" lon="4.5817">
        <ele>831.6</ele>
        <time>2025-04-30T15:16:11Z</time>
      </trkpt>
      <trkpt lat="45.63361" lon="4.58172">
        <ele>832</ele>
        <time>2025-04-30T15:16:12Z</time>
      </trkpt>
      <trkpt lat="45.63362" lon="4.58175">
        <ele>832.2</ele>
        <time>2025-04-30T15:16:13Z</time>
      </trkpt>
      <trkpt lat="45.63364" lon="4.58177">
        <ele>832.4</ele>
        <time>2025-04-30T15:16:14Z</time>
      </trkpt>
      <trkpt lat="45.63365" lon="4.58179">
        <ele>832.8</ele>
        <time>2025-04-30T15:16:15Z</time>
      </trkpt>
      <trkpt lat="45.63367" lon="4.58182">
        <ele>833</ele>
        <time>2025-04-30T15:16:16Z</time>
      </trkpt>
      <trkpt lat="45.63368" lon="4.58185">
        <ele>833.2</ele>
        <time>2025-04-30T15:16:17Z</time>
      </trkpt>
      <trkpt lat="45.6337" lon="4.58187">
        <ele>833.2</ele>
        <time>2025-04-30T15:16:18Z</time>
      </trkpt>
      <trkpt lat="45.63371" lon="4.5819">
        <ele>833.4</ele>
        <time>2025-04-30T15:16:19Z</time>
      </trkpt>
      <trkpt lat="45.63373" lon="4.58193">
        <ele>833.8</ele>
        <time>2025-04-30T15:16:20Z</time>
      </trkpt>
      <trkpt lat="45.63374" lon="4.58194">
        <ele>834</ele>
        <time>2025-04-30T15:16:21Z</time>
      </trkpt>
      <trkpt lat="45.63376" lon="4.58197">
        <ele>834.2</ele>
        <time>2025-04-30T15:16:22Z</time>
      </trkpt>
      <trkpt lat="45.63377" lon="4.58199">
        <ele>834.6</ele>
        <time>2025-04-30T15:16:23Z</time>
      </trkpt>
      <trkpt lat="45.63378" lon="4.58201">
        <ele>835</ele>
        <time>2025-04-30T15:16:24Z</time>
      </trkpt>
      <trkpt lat="45.63379" lon="4.58204">
        <ele>835</ele>
        <time>2025-04-30T15:16:25Z</time>
      </trkpt>
      <trkpt lat="45.6338" lon="4.58207">
        <ele>835.4</ele>
        <time>2025-04-30T15:16:26Z</time>
      </trkpt>
      <trkpt lat="45.63381" lon="4.58209">
        <ele>835.6</ele>
        <time>2025-04-30T15:16:27Z</time>
      </trkpt>
      <trkpt lat="45.63382" lon="4.58212">
        <ele>835.8</ele>
        <time>2025-04-30T15:16:28Z</time>
      </trkpt>
      <trkpt lat="45.63383" lon="4.58215">
        <ele>836</ele>
        <time>2025-04-30T15:16:29Z</time>
      </trkpt>
      <trkpt lat="45.63384" lon="4.58217">
        <ele>836.2</ele>
        <time>2025-04-30T15:16:30Z</time>
      </trkpt>
      <trkpt lat="45.63386" lon="4.5822">
        <ele>836.4</ele>
        <time>2025-04-30T15:16:31Z</time>
      </trkpt>
      <trkpt lat="45.63387" lon="4.58222">
        <ele>836.4</ele>
        <time>2025-04-30T15:16:32Z</time>
      </trkpt>
      <trkpt lat="45.63389" lon="4.58223">
        <ele>836.4</ele>
        <time>2025-04-30T15:16:33Z</time>
      </trkpt>
      <trkpt lat="45.63391" lon="4.58224">
        <ele>836.6</ele>
        <time>2025-04-30T15:16:34Z</time>
      </trkpt>
      <trkpt lat="45.63393" lon="4.58224">
        <ele>836.8</ele>
        <time>2025-04-30T15:16:35Z</time>
      </trkpt>
      <trkpt lat="45.63395" lon="4.58224">
        <ele>837</ele>
        <time>2025-04-30T15:16:36Z</time>
      </trkpt>
      <trkpt lat="45.63397" lon="4.58224">
        <ele>837</ele>
        <time>2025-04-30T15:16:37Z</time>
      </trkpt>
      <trkpt lat="45.634" lon="4.58225">
        <ele>837.2</ele>
        <time>2025-04-30T15:16:38Z</time>
      </trkpt>
      <trkpt lat="45.63401" lon="4.58226">
        <ele>837.6</ele>
        <time>2025-04-30T15:16:39Z</time>
      </trkpt>
      <trkpt lat="45.63404" lon="4.58227">
        <ele>837.8</ele>
        <time>2025-04-30T15:16:40Z</time>
      </trkpt>
      <trkpt lat="45.63406" lon="4.58229">
        <ele>837.8</ele>
        <time>2025-04-30T15:16:41Z</time>
      </trkpt>
      <trkpt lat="45.63408" lon="4.5823">
        <ele>838</ele>
        <time>2025-04-30T15:16:42Z</time>
      </trkpt>
      <trkpt lat="45.6341" lon="4.58231">
        <ele>838</ele>
        <time>2025-04-30T15:16:43Z</time>
      </trkpt>
      <trkpt lat="45.63413" lon="4.58231">
        <ele>838</ele>
        <time>2025-04-30T15:16:44Z</time>
      </trkpt>
      <trkpt lat="45.63415" lon="4.58232">
        <ele>838</ele>
        <time>2025-04-30T15:16:45Z</time>
      </trkpt>
      <trkpt lat="45.63418" lon="4.58233">
        <ele>838.2</ele>
        <time>2025-04-30T15:16:46Z</time>
      </trkpt>
      <trkpt lat="45.6342" lon="4.58235">
        <ele>838.2</ele>
        <time>2025-04-30T15:16:47Z</time>
      </trkpt>
      <trkpt lat="45.63422" lon="4.58236">
        <ele>838.6</ele>
        <time>2025-04-30T15:16:48Z</time>
      </trkpt>
      <trkpt lat="45.63424" lon="4.58237">
        <ele>838.8</ele>
        <time>2025-04-30T15:16:49Z</time>
      </trkpt>
      <trkpt lat="45.63427" lon="4.58238">
        <ele>839</ele>
        <time>2025-04-30T15:16:50Z</time>
      </trkpt>
      <trkpt lat="45.63428" lon="4.58239">
        <ele>839.2</ele>
        <time>2025-04-30T15:16:51Z</time>
      </trkpt>
      <trkpt lat="45.63431" lon="4.58241">
        <ele>839.4</ele>
        <time>2025-04-30T15:16:52Z</time>
      </trkpt>
      <trkpt lat="45.63433" lon="4.58242">
        <ele>839.6</ele>
        <time>2025-04-30T15:16:53Z</time>
      </trkpt>
      <trkpt lat="45.63435" lon="4.58243">
        <ele>839.8</ele>
        <time>2025-04-30T15:16:54Z</time>
      </trkpt>
      <trkpt lat="45.63438" lon="4.58245">
        <ele>840</ele>
        <time>2025-04-30T15:16:55Z</time>
      </trkpt>
      <trkpt lat="45.6344" lon="4.58246">
        <ele>840.2</ele>
        <time>2025-04-30T15:16:56Z</time>
      </trkpt>
      <trkpt lat="45.63442" lon="4.58248">
        <ele>840.2</ele>
        <time>2025-04-30T15:16:57Z</time>
      </trkpt>
      <trkpt lat="45.63445" lon="4.5825">
        <ele>840.4</ele>
        <time>2025-04-30T15:16:58Z</time>
      </trkpt>
      <trkpt lat="45.63448" lon="4.58251">
        <ele>840.8</ele>
        <time>2025-04-30T15:16:59Z</time>
      </trkpt>
      <trkpt lat="45.63449" lon="4.58252">
        <ele>840.8</ele>
        <time>2025-04-30T15:17:00Z</time>
      </trkpt>
      <trkpt lat="45.63452" lon="4.58253">
        <ele>841</ele>
        <time>2025-04-30T15:17:01Z</time>
      </trkpt>
      <trkpt lat="45.63455" lon="4.58256">
        <ele>841</ele>
        <time>2025-04-30T15:17:02Z</time>
      </trkpt>
      <trkpt lat="45.63457" lon="4.58257">
        <ele>841.4</ele>
        <time>2025-04-30T15:17:03Z</time>
      </trkpt>
      <trkpt lat="45.63459" lon="4.5826">
        <ele>841.4</ele>
        <time>2025-04-30T15:17:04Z</time>
      </trkpt>
      <trkpt lat="45.63462" lon="4.58262">
        <ele>841.6</ele>
        <time>2025-04-30T15:17:05Z</time>
      </trkpt>
      <trkpt lat="45.63464" lon="4.58264">
        <ele>841.6</ele>
        <time>2025-04-30T15:17:06Z</time>
      </trkpt>
      <trkpt lat="45.63466" lon="4.58266">
        <ele>841.8</ele>
        <time>2025-04-30T15:17:07Z</time>
      </trkpt>
      <trkpt lat="45.63469" lon="4.58269">
        <ele>842</ele>
        <time>2025-04-30T15:17:08Z</time>
      </trkpt>
      <trkpt lat="45.63472" lon="4.58271">
        <ele>842</ele>
        <time>2025-04-30T15:17:09Z</time>
      </trkpt>
      <trkpt lat="45.63474" lon="4.58274">
        <ele>842.2</ele>
        <time>2025-04-30T15:17:10Z</time>
      </trkpt>
      <trkpt lat="45.63476" lon="4.58276">
        <ele>842.4</ele>
        <time>2025-04-30T15:17:11Z</time>
      </trkpt>
      <trkpt lat="45.63478" lon="4.58277">
        <ele>842.6</ele>
        <time>2025-04-30T15:17:12Z</time>
      </trkpt>
      <trkpt lat="45.6348" lon="4.58279">
        <ele>842.6</ele>
        <time>2025-04-30T15:17:13Z</time>
      </trkpt>
      <trkpt lat="45.63482" lon="4.58281">
        <ele>843</ele>
        <time>2025-04-30T15:17:14Z</time>
      </trkpt>
      <trkpt lat="45.63484" lon="4.58283">
        <ele>843.2</ele>
        <time>2025-04-30T15:17:15Z</time>
      </trkpt>
      <trkpt lat="45.63486" lon="4.58285">
        <ele>843.2</ele>
        <time>2025-04-30T15:17:16Z</time>
      </trkpt>
      <trkpt lat="45.63488" lon="4.58287">
        <ele>843.4</ele>
        <time>2025-04-30T15:17:17Z</time>
      </trkpt>
      <trkpt lat="45.6349" lon="4.58289">
        <ele>843.6</ele>
        <time>2025-04-30T15:17:18Z</time>
      </trkpt>
      <trkpt lat="45.63492" lon="4.58291">
        <ele>843.8</ele>
        <time>2025-04-30T15:17:19Z</time>
      </trkpt>
      <trkpt lat="45.63495" lon="4.58293">
        <ele>844</ele>
        <time>2025-04-30T15:17:20Z</time>
      </trkpt>
      <trkpt lat="45.63496" lon="4.58295">
        <ele>844.2</ele>
        <time>2025-04-30T15:17:21Z</time>
      </trkpt>
      <trkpt lat="45.63499" lon="4.58298">
        <ele>844.2</ele>
        <time>2025-04-30T15:17:22Z</time>
      </trkpt>
      <trkpt lat="45.63501" lon="4.58299">
        <ele>844.4</ele>
        <time>2025-04-30T15:17:23Z</time>
      </trkpt>
      <trkpt lat="45.63503" lon="4.58301">
        <ele>844.6</ele>
        <time>2025-04-30T15:17:24Z</time>
      </trkpt>
      <trkpt lat="45.63505" lon="4.58302">
        <ele>844.8</ele>
        <time>2025-04-30T15:17:25Z</time>
      </trkpt>
      <trkpt lat="45.63506" lon="4.58304">
        <ele>845</ele>
        <time>2025-04-30T15:17:26Z</time>
      </trkpt>
      <trkpt lat="45.63508" lon="4.58306">
        <ele>845.2</ele>
        <time>2025-04-30T15:17:27Z</time>
      </trkpt>
      <trkpt lat="45.63509" lon="4.58308">
        <ele>845.6</ele>
        <time>2025-04-30T15:17:28Z</time>
      </trkpt>
      <trkpt lat="45.63511" lon="4.5831">
        <ele>846</ele>
        <time>2025-04-30T15:17:29Z</time>
      </trkpt>
      <trkpt lat="45.63512" lon="4.58312">
        <ele>846.2</ele>
        <time>2025-04-30T15:17:30Z</time>
      </trkpt>
      <trkpt lat="45.63514" lon="4.58315">
        <ele>846.6</ele>
        <time>2025-04-30T15:17:31Z</time>
      </trkpt>
      <trkpt lat="45.63516" lon="4.58318">
        <ele>846.8</ele>
        <time>2025-04-30T15:17:32Z</time>
      </trkpt>
      <trkpt lat="45.63518" lon="4.5832">
        <ele>846.8</ele>
        <time>2025-04-30T15:17:33Z</time>
      </trkpt>
      <trkpt lat="45.6352" lon="4.58323">
        <ele>847.2</ele>
        <time>2025-04-30T15:17:34Z</time>
      </trkpt>
      <trkpt lat="45.63522" lon="4.58326">
        <ele>847.4</ele>
        <time>2025-04-30T15:17:35Z</time>
      </trkpt>
      <trkpt lat="45.63523" lon="4.58328">
        <ele>847.6</ele>
        <time>2025-04-30T15:17:36Z</time>
      </trkpt>
      <trkpt lat="45.63525" lon="4.58331">
        <ele>848</ele>
        <time>2025-04-30T15:17:37Z</time>
      </trkpt>
      <trkpt lat="45.63527" lon="4.58333">
        <ele>848</ele>
        <time>2025-04-30T15:17:38Z</time>
      </trkpt>
      <trkpt lat="45.63528" lon="4.58335">
        <ele>848.2</ele>
        <time>2025-04-30T15:17:39Z</time>
      </trkpt>
      <trkpt lat="45.6353" lon="4.58338">
        <ele>848.2</ele>
        <time>2025-04-30T15:17:40Z</time>
      </trkpt>
      <trkpt lat="45.63532" lon="4.58341">
        <ele>848.6</ele>
        <time>2025-04-30T15:17:41Z</time>
      </trkpt>
      <trkpt lat="45.63533" lon="4.58342">
        <ele>848.8</ele>
        <time>2025-04-30T15:17:42Z</time>
      </trkpt>
      <trkpt lat="45.63536" lon="4.58345">
        <ele>849</ele>
        <time>2025-04-30T15:17:43Z</time>
      </trkpt>
      <trkpt lat="45.63538" lon="4.58348">
        <ele>849.2</ele>
        <time>2025-04-30T15:17:44Z</time>
      </trkpt>
      <trkpt lat="45.63539" lon="4.5835">
        <ele>849.4</ele>
        <time>2025-04-30T15:17:45Z</time>
      </trkpt>
      <trkpt lat="45.63541" lon="4.58353">
        <ele>849.4</ele>
        <time>2025-04-30T15:17:46Z</time>
      </trkpt>
      <trkpt lat="45.63543" lon="4.58356">
        <ele>849.6</ele>
        <time>2025-04-30T15:17:47Z</time>
      </trkpt>
      <trkpt lat="45.63544" lon="4.58359">
        <ele>850.2</ele>
        <time>2025-04-30T15:17:48Z</time>
      </trkpt>
      <trkpt lat="45.63547" lon="4.58362">
        <ele>850.4</ele>
        <time>2025-04-30T15:17:49Z</time>
      </trkpt>
      <trkpt lat="45.63549" lon="4.58365">
        <ele>850.6</ele>
        <time>2025-04-30T15:17:50Z</time>
      </trkpt>
      <trkpt lat="45.6355" lon="4.58367">
        <ele>850.8</ele>
        <time>2025-04-30T15:17:51Z</time>
      </trkpt>
      <trkpt lat="45.63553" lon="4.5837">
        <ele>850.8</ele>
        <time>2025-04-30T15:17:52Z</time>
      </trkpt>
      <trkpt lat="45.63555" lon="4.58373">
        <ele>850.8</ele>
        <time>2025-04-30T15:17:53Z</time>
      </trkpt>
      <trkpt lat="45.63556" lon="4.58375">
        <ele>851</ele>
        <time>2025-04-30T15:17:54Z</time>
      </trkpt>
      <trkpt lat="45.63559" lon="4.58378">
        <ele>851.2</ele>
        <time>2025-04-30T15:17:55Z</time>
      </trkpt>
      <trkpt lat="45.63561" lon="4.58381">
        <ele>851.4</ele>
        <time>2025-04-30T15:17:56Z</time>
      </trkpt>
      <trkpt lat="45.63562" lon="4.58384">
        <ele>851.6</ele>
        <time>2025-04-30T15:17:57Z</time>
      </trkpt>
      <trkpt lat="45.63565" lon="4.58387">
        <ele>851.8</ele>
        <time>2025-04-30T15:17:58Z</time>
      </trkpt>
      <trkpt lat="45.63567" lon="4.5839">
        <ele>852</ele>
        <time>2025-04-30T15:17:59Z</time>
      </trkpt>
      <trkpt lat="45.63568" lon="4.58392">
        <ele>852</ele>
        <time>2025-04-30T15:18:00Z</time>
      </trkpt>
      <trkpt lat="45.63571" lon="4.58395">
        <ele>852.2</ele>
        <time>2025-04-30T15:18:01Z</time>
      </trkpt>
      <trkpt lat="45.63573" lon="4.58397">
        <ele>852.2</ele>
        <time>2025-04-30T15:18:02Z</time>
      </trkpt>
      <trkpt lat="45.63575" lon="4.58399">
        <ele>852.4</ele>
        <time>2025-04-30T15:18:03Z</time>
      </trkpt>
      <trkpt lat="45.63577" lon="4.58403">
        <ele>852.4</ele>
        <time>2025-04-30T15:18:04Z</time>
      </trkpt>
      <trkpt lat="45.63579" lon="4.58405">
        <ele>852.6</ele>
        <time>2025-04-30T15:18:05Z</time>
      </trkpt>
      <trkpt lat="45.63581" lon="4.58406">
        <ele>852.6</ele>
        <time>2025-04-30T15:18:06Z</time>
      </trkpt>
      <trkpt lat="45.63583" lon="4.58408">
        <ele>852.8</ele>
        <time>2025-04-30T15:18:07Z</time>
      </trkpt>
      <trkpt lat="45.63585" lon="4.5841">
        <ele>853</ele>
        <time>2025-04-30T15:18:08Z</time>
      </trkpt>
      <trkpt lat="45.63588" lon="4.58412">
        <ele>853.2</ele>
        <time>2025-04-30T15:18:09Z</time>
      </trkpt>
      <trkpt lat="45.6359" lon="4.58414">
        <ele>853.2</ele>
        <time>2025-04-30T15:18:10Z</time>
      </trkpt>
      <trkpt lat="45.63592" lon="4.58417">
        <ele>853.4</ele>
        <time>2025-04-30T15:18:11Z</time>
      </trkpt>
      <trkpt lat="45.63595" lon="4.58419">
        <ele>853.4</ele>
        <time>2025-04-30T15:18:12Z</time>
      </trkpt>
      <trkpt lat="45.63597" lon="4.5842">
        <ele>853.6</ele>
        <time>2025-04-30T15:18:13Z</time>
      </trkpt>
      <trkpt lat="45.636" lon="4.58422">
        <ele>853.8</ele>
        <time>2025-04-30T15:18:14Z</time>
      </trkpt>
      <trkpt lat="45.63602" lon="4.58424">
        <ele>853.8</ele>
        <time>2025-04-30T15:18:15Z</time>
      </trkpt>
      <trkpt lat="45.63605" lon="4.58426">
        <ele>854</ele>
        <time>2025-04-30T15:18:16Z</time>
      </trkpt>
      <trkpt lat="45.63607" lon="4.58428">
        <ele>854</ele>
        <time>2025-04-30T15:18:17Z</time>
      </trkpt>
      <trkpt lat="45.63609" lon="4.5843">
        <ele>854.2</ele>
        <time>2025-04-30T15:18:18Z</time>
      </trkpt>
      <trkpt lat="45.63612" lon="4.58432">
        <ele>854.4</ele>
        <time>2025-04-30T15:18:19Z</time>
      </trkpt>
      <trkpt lat="45.63615" lon="4.58434">
        <ele>854.6</ele>
        <time>2025-04-30T15:18:20Z</time>
      </trkpt>
      <trkpt lat="45.63617" lon="4.58435">
        <ele>854.8</ele>
        <time>2025-04-30T15:18:21Z</time>
      </trkpt>
      <trkpt lat="45.6362" lon="4.58438">
        <ele>855</ele>
        <time>2025-04-30T15:18:22Z</time>
      </trkpt>
      <trkpt lat="45.63622" lon="4.5844">
        <ele>855.4</ele>
        <time>2025-04-30T15:18:23Z</time>
      </trkpt>
      <trkpt lat="45.63624" lon="4.58442">
        <ele>855.4</ele>
        <time>2025-04-30T15:18:24Z</time>
      </trkpt>
      <trkpt lat="45.63627" lon="4.58444">
        <ele>855.6</ele>
        <time>2025-04-30T15:18:25Z</time>
      </trkpt>
      <trkpt lat="45.63629" lon="4.58446">
        <ele>855.8</ele>
        <time>2025-04-30T15:18:26Z</time>
      </trkpt>
      <trkpt lat="45.63631" lon="4.58447">
        <ele>856</ele>
        <time>2025-04-30T15:18:27Z</time>
      </trkpt>
      <trkpt lat="45.63633" lon="4.58448">
        <ele>856</ele>
        <time>2025-04-30T15:18:28Z</time>
      </trkpt>
      <trkpt lat="45.63635" lon="4.58449">
        <ele>856.2</ele>
        <time>2025-04-30T15:18:29Z</time>
      </trkpt>
      <trkpt lat="45.63636" lon="4.5845">
        <ele>856.4</ele>
        <time>2025-04-30T15:18:30Z</time>
      </trkpt>
      <trkpt lat="45.63639" lon="4.58452">
        <ele>856.6</ele>
        <time>2025-04-30T15:18:31Z</time>
      </trkpt>
      <trkpt lat="45.6364" lon="4.58454">
        <ele>857</ele>
        <time>2025-04-30T15:18:32Z</time>
      </trkpt>
      <trkpt lat="45.6364" lon="4.58455">
        <ele>857.2</ele>
        <time>2025-04-30T15:18:33Z</time>
      </trkpt>
      <trkpt lat="45.6364" lon="4.58458">
        <ele>857.4</ele>
        <time>2025-04-30T15:18:34Z</time>
      </trkpt>
      <trkpt lat="45.63638" lon="4.58461">
        <ele>857.8</ele>
        <time>2025-04-30T15:18:35Z</time>
      </trkpt>
      <trkpt lat="45.63637" lon="4.58463">
        <ele>858</ele>
        <time>2025-04-30T15:18:36Z</time>
      </trkpt>
      <trkpt lat="45.63634" lon="4.58465">
        <ele>858</ele>
        <time>2025-04-30T15:18:37Z</time>
      </trkpt>
      <trkpt lat="45.63632" lon="4.58468">
        <ele>858.2</ele>
        <time>2025-04-30T15:18:38Z</time>
      </trkpt>
      <trkpt lat="45.63631" lon="4.58471">
        <ele>858.2</ele>
        <time>2025-04-30T15:18:39Z</time>
      </trkpt>
      <trkpt lat="45.63629" lon="4.58475">
        <ele>858.2</ele>
        <time>2025-04-30T15:18:40Z</time>
      </trkpt>
      <trkpt lat="45.63628" lon="4.58478">
        <ele>858.2</ele>
        <time>2025-04-30T15:18:41Z</time>
      </trkpt>
      <trkpt lat="45.63626" lon="4.58481">
        <ele>858.4</ele>
        <time>2025-04-30T15:18:42Z</time>
      </trkpt>
      <trkpt lat="45.63625" lon="4.58484">
        <ele>858.4</ele>
        <time>2025-04-30T15:18:43Z</time>
      </trkpt>
      <trkpt lat="45.63623" lon="4.58487">
        <ele>858.6</ele>
        <time>2025-04-30T15:18:44Z</time>
      </trkpt>
      <trkpt lat="45.63622" lon="4.58489">
        <ele>858.8</ele>
        <time>2025-04-30T15:18:45Z</time>
      </trkpt>
      <trkpt lat="45.6362" lon="4.58491">
        <ele>859</ele>
        <time>2025-04-30T15:18:46Z</time>
      </trkpt>
      <trkpt lat="45.63618" lon="4.58494">
        <ele>859.4</ele>
        <time>2025-04-30T15:18:47Z</time>
      </trkpt>
      <trkpt lat="45.63617" lon="4.58496">
        <ele>859.6</ele>
        <time>2025-04-30T15:18:48Z</time>
      </trkpt>
      <trkpt lat="45.63615" lon="4.585">
        <ele>859.8</ele>
        <time>2025-04-30T15:18:49Z</time>
      </trkpt>
      <trkpt lat="45.63614" lon="4.58502">
        <ele>859.8</ele>
        <time>2025-04-30T15:18:50Z</time>
      </trkpt>
      <trkpt lat="45.63613" lon="4.58505">
        <ele>859.8</ele>
        <time>2025-04-30T15:18:51Z</time>
      </trkpt>
      <trkpt lat="45.63612" lon="4.58508">
        <ele>860</ele>
        <time>2025-04-30T15:18:52Z</time>
      </trkpt>
      <trkpt lat="45.63611" lon="4.58512">
        <ele>860.2</ele>
        <time>2025-04-30T15:18:53Z</time>
      </trkpt>
      <trkpt lat="45.63611" lon="4.58514">
        <ele>860.6</ele>
        <time>2025-04-30T15:18:54Z</time>
      </trkpt>
      <trkpt lat="45.63611" lon="4.58518">
        <ele>860.8</ele>
        <time>2025-04-30T15:18:55Z</time>
      </trkpt>
      <trkpt lat="45.63611" lon="4.58521">
        <ele>860.8</ele>
        <time>2025-04-30T15:18:56Z</time>
      </trkpt>
      <trkpt lat="45.63611" lon="4.58523">
        <ele>861</ele>
        <time>2025-04-30T15:18:57Z</time>
      </trkpt>
      <trkpt lat="45.63612" lon="4.58527">
        <ele>861</ele>
        <time>2025-04-30T15:18:58Z</time>
      </trkpt>
      <trkpt lat="45.63612" lon="4.5853">
        <ele>861.2</ele>
        <time>2025-04-30T15:18:59Z</time>
      </trkpt>
      <trkpt lat="45.63612" lon="4.58532">
        <ele>861.8</ele>
        <time>2025-04-30T15:19:00Z</time>
      </trkpt>
      <trkpt lat="45.63612" lon="4.58534">
        <ele>862.2</ele>
        <time>2025-04-30T15:19:01Z</time>
      </trkpt>
      <trkpt lat="45.63612" lon="4.58537">
        <ele>862.4</ele>
        <time>2025-04-30T15:19:02Z</time>
      </trkpt>
      <trkpt lat="45.63613" lon="4.58539">
        <ele>862.6</ele>
        <time>2025-04-30T15:19:03Z</time>
      </trkpt>
      <trkpt lat="45.63613" lon="4.58542">
        <ele>863</ele>
        <time>2025-04-30T15:19:04Z</time>
      </trkpt>
      <trkpt lat="45.63613" lon="4.58545">
        <ele>863.2</ele>
        <time>2025-04-30T15:19:05Z</time>
      </trkpt>
      <trkpt lat="45.63613" lon="4.58547">
        <ele>863.8</ele>
        <time>2025-04-30T15:19:06Z</time>
      </trkpt>
      <trkpt lat="45.63613" lon="4.5855">
        <ele>864</ele>
        <time>2025-04-30T15:19:07Z</time>
      </trkpt>
      <trkpt lat="45.63613" lon="4.58553">
        <ele>864.2</ele>
        <time>2025-04-30T15:19:08Z</time>
      </trkpt>
      <trkpt lat="45.63613" lon="4.58555">
        <ele>864.4</ele>
        <time>2025-04-30T15:19:09Z</time>
      </trkpt>
      <trkpt lat="45.63613" lon="4.58559">
        <ele>864.8</ele>
        <time>2025-04-30T15:19:10Z</time>
      </trkpt>
      <trkpt lat="45.63613" lon="4.58562">
        <ele>865</ele>
        <time>2025-04-30T15:19:11Z</time>
      </trkpt>
      <trkpt lat="45.63612" lon="4.58564">
        <ele>865.2</ele>
        <time>2025-04-30T15:19:12Z</time>
      </trkpt>
      <trkpt lat="45.63611" lon="4.58567">
        <ele>865.4</ele>
        <time>2025-04-30T15:19:13Z</time>
      </trkpt>
      <trkpt lat="45.6361" lon="4.5857">
        <ele>865.6</ele>
        <time>2025-04-30T15:19:14Z</time>
      </trkpt>
      <trkpt lat="45.6361" lon="4.58572">
        <ele>865.8</ele>
        <time>2025-04-30T15:19:15Z</time>
      </trkpt>
      <trkpt lat="45.63609" lon="4.58576">
        <ele>866</ele>
        <time>2025-04-30T15:19:16Z</time>
      </trkpt>
      <trkpt lat="45.63608" lon="4.58579">
        <ele>866.4</ele>
        <time>2025-04-30T15:19:17Z</time>
      </trkpt>
      <trkpt lat="45.63607" lon="4.58582">
        <ele>866.8</ele>
        <time>2025-04-30T15:19:18Z</time>
      </trkpt>
      <trkpt lat="45.63606" lon="4.58585">
        <ele>866.8</ele>
        <time>2025-04-30T15:19:19Z</time>
      </trkpt>
      <trkpt lat="45.63605" lon="4.58589">
        <ele>867</ele>
        <time>2025-04-30T15:19:20Z</time>
      </trkpt>
      <trkpt lat="45.63604" lon="4.58591">
        <ele>867</ele>
        <time>2025-04-30T15:19:21Z</time>
      </trkpt>
      <trkpt lat="45.63603" lon="4.58594">
        <ele>867.4</ele>
        <time>2025-04-30T15:19:22Z</time>
      </trkpt>
      <trkpt lat="45.63601" lon="4.58598">
        <ele>867.4</ele>
        <time>2025-04-30T15:19:23Z</time>
      </trkpt>
      <trkpt lat="45.63601" lon="4.586">
        <ele>867.8</ele>
        <time>2025-04-30T15:19:24Z</time>
      </trkpt>
      <trkpt lat="45.636" lon="4.58603">
        <ele>868.2</ele>
        <time>2025-04-30T15:19:25Z</time>
      </trkpt>
      <trkpt lat="45.63599" lon="4.58606">
        <ele>868.4</ele>
        <time>2025-04-30T15:19:26Z</time>
      </trkpt>
      <trkpt lat="45.63598" lon="4.58609">
        <ele>868.8</ele>
        <time>2025-04-30T15:19:27Z</time>
      </trkpt>
      <trkpt lat="45.63597" lon="4.58613">
        <ele>869</ele>
        <time>2025-04-30T15:19:28Z</time>
      </trkpt>
      <trkpt lat="45.63596" lon="4.58617">
        <ele>869.4</ele>
        <time>2025-04-30T15:19:29Z</time>
      </trkpt>
      <trkpt lat="45.63595" lon="4.58619">
        <ele>869.6</ele>
        <time>2025-04-30T15:19:30Z</time>
      </trkpt>
      <trkpt lat="45.63594" lon="4.58623">
        <ele>869.8</ele>
        <time>2025-04-30T15:19:31Z</time>
      </trkpt>
      <trkpt lat="45.63594" lon="4.58626">
        <ele>870</ele>
        <time>2025-04-30T15:19:32Z</time>
      </trkpt>
      <trkpt lat="45.63594" lon="4.58628">
        <ele>870.4</ele>
        <time>2025-04-30T15:19:33Z</time>
      </trkpt>
      <trkpt lat="45.63593" lon="4.58631">
        <ele>870.8</ele>
        <time>2025-04-30T15:19:34Z</time>
      </trkpt>
      <trkpt lat="45.63593" lon="4.58634">
        <ele>871</ele>
        <time>2025-04-30T15:19:35Z</time>
      </trkpt>
      <trkpt lat="45.63593" lon="4.58638">
        <ele>871.2</ele>
        <time>2025-04-30T15:19:36Z</time>
      </trkpt>
      <trkpt lat="45.63592" lon="4.5864">
        <ele>871.6</ele>
        <time>2025-04-30T15:19:37Z</time>
      </trkpt>
      <trkpt lat="45.63592" lon="4.58644">
        <ele>871.8</ele>
        <time>2025-04-30T15:19:38Z</time>
      </trkpt>
      <trkpt lat="45.63593" lon="4.58648">
        <ele>872</ele>
        <time>2025-04-30T15:19:39Z</time>
      </trkpt>
      <trkpt lat="45.63593" lon="4.58651">
        <ele>872.2</ele>
        <time>2025-04-30T15:19:40Z</time>
      </trkpt>
      <trkpt lat="45.63594" lon="4.58654">
        <ele>872.4</ele>
        <time>2025-04-30T15:19:41Z</time>
      </trkpt>
      <trkpt lat="45.63595" lon="4.58657">
        <ele>872.6</ele>
        <time>2025-04-30T15:19:42Z</time>
      </trkpt>
      <trkpt lat="45.63596" lon="4.58661">
        <ele>873</ele>
        <time>2025-04-30T15:19:43Z</time>
      </trkpt>
      <trkpt lat="45.63597" lon="4.58664">
        <ele>873.2</ele>
        <time>2025-04-30T15:19:44Z</time>
      </trkpt>
      <trkpt lat="45.63598" lon="4.58667">
        <ele>873.4</ele>
        <time>2025-04-30T15:19:45Z</time>
      </trkpt>
      <trkpt lat="45.63598" lon="4.5867">
        <ele>873.8</ele>
        <time>2025-04-30T15:19:46Z</time>
      </trkpt>
      <trkpt lat="45.636" lon="4.58674">
        <ele>874.2</ele>
        <time>2025-04-30T15:19:47Z</time>
      </trkpt>
      <trkpt lat="45.63601" lon="4.58676">
        <ele>874.4</ele>
        <time>2025-04-30T15:19:48Z</time>
      </trkpt>
      <trkpt lat="45.63603" lon="4.58679">
        <ele>874.4</ele>
        <time>2025-04-30T15:19:49Z</time>
      </trkpt>
      <trkpt lat="45.63604" lon="4.58682">
        <ele>874.8</ele>
        <time>2025-04-30T15:19:50Z</time>
      </trkpt>
      <trkpt lat="45.63606" lon="4.58685">
        <ele>875</ele>
        <time>2025-04-30T15:19:51Z</time>
      </trkpt>
      <trkpt lat="45.63607" lon="4.58688">
        <ele>875.4</ele>
        <time>2025-04-30T15:19:52Z</time>
      </trkpt>
      <trkpt lat="45.6361" lon="4.58691">
        <ele>875.4</ele>
        <time>2025-04-30T15:19:53Z</time>
      </trkpt>
      <trkpt lat="45.63611" lon="4.58692">
        <ele>875.8</ele>
        <time>2025-04-30T15:19:54Z</time>
      </trkpt>
      <trkpt lat="45.63613" lon="4.58694">
        <ele>876</ele>
        <time>2025-04-30T15:19:55Z</time>
      </trkpt>
      <trkpt lat="45.63615" lon="4.58695">
        <ele>876.2</ele>
        <time>2025-04-30T15:19:56Z</time>
      </trkpt>
      <trkpt lat="45.63618" lon="4.58697">
        <ele>876.2</ele>
        <time>2025-04-30T15:19:57Z</time>
      </trkpt>
      <trkpt lat="45.6362" lon="4.58698">
        <ele>876.6</ele>
        <time>2025-04-30T15:19:58Z</time>
      </trkpt>
      <trkpt lat="45.63623" lon="4.58699">
        <ele>876.8</ele>
        <time>2025-04-30T15:19:59Z</time>
      </trkpt>
      <trkpt lat="45.63625" lon="4.587">
        <ele>877</ele>
        <time>2025-04-30T15:20:00Z</time>
      </trkpt>
      <trkpt lat="45.63628" lon="4.58701">
        <ele>877.2</ele>
        <time>2025-04-30T15:20:01Z</time>
      </trkpt>
      <trkpt lat="45.6363" lon="4.58702">
        <ele>877.2</ele>
        <time>2025-04-30T15:20:02Z</time>
      </trkpt>
      <trkpt lat="45.63632" lon="4.58703">
        <ele>877.4</ele>
        <time>2025-04-30T15:20:03Z</time>
      </trkpt>
      <trkpt lat="45.63635" lon="4.58704">
        <ele>877.6</ele>
        <time>2025-04-30T15:20:04Z</time>
      </trkpt>
      <trkpt lat="45.63638" lon="4.58705">
        <ele>877.8</ele>
        <time>2025-04-30T15:20:05Z</time>
      </trkpt>
      <trkpt lat="45.6364" lon="4.58705">
        <ele>878.2</ele>
        <time>2025-04-30T15:20:06Z</time>
      </trkpt>
      <trkpt lat="45.63643" lon="4.58705">
        <ele>878.2</ele>
        <time>2025-04-30T15:20:07Z</time>
      </trkpt>
      <trkpt lat="45.63646" lon="4.58706">
        <ele>878.4</ele>
        <time>2025-04-30T15:20:08Z</time>
      </trkpt>
      <trkpt lat="45.63649" lon="4.58706">
        <ele>878.4</ele>
        <time>2025-04-30T15:20:09Z</time>
      </trkpt>
      <trkpt lat="45.63652" lon="4.58706">
        <ele>878.6</ele>
        <time>2025-04-30T15:20:10Z</time>
      </trkpt>
      <trkpt lat="45.63655" lon="4.58706">
        <ele>878.8</ele>
        <time>2025-04-30T15:20:11Z</time>
      </trkpt>
      <trkpt lat="45.63658" lon="4.58706">
        <ele>878.8</ele>
        <time>2025-04-30T15:20:12Z</time>
      </trkpt>
      <trkpt lat="45.63661" lon="4.58706">
        <ele>879</ele>
        <time>2025-04-30T15:20:13Z</time>
      </trkpt>
      <trkpt lat="45.63664" lon="4.58707">
        <ele>879</ele>
        <time>2025-04-30T15:20:14Z</time>
      </trkpt>
      <trkpt lat="45.63668" lon="4.58707">
        <ele>879.4</ele>
        <time>2025-04-30T15:20:15Z</time>
      </trkpt>
      <trkpt lat="45.6367" lon="4.58707">
        <ele>879.4</ele>
        <time>2025-04-30T15:20:16Z</time>
      </trkpt>
      <trkpt lat="45.63673" lon="4.58707">
        <ele>879.6</ele>
        <time>2025-04-30T15:20:17Z</time>
      </trkpt>
      <trkpt lat="45.63676" lon="4.58707">
        <ele>879.8</ele>
        <time>2025-04-30T15:20:18Z</time>
      </trkpt>
      <trkpt lat="45.63678" lon="4.58707">
        <ele>879.8</ele>
        <time>2025-04-30T15:20:19Z</time>
      </trkpt>
      <trkpt lat="45.63681" lon="4.58707">
        <ele>880</ele>
        <time>2025-04-30T15:20:20Z</time>
      </trkpt>
      <trkpt lat="45.63684" lon="4.58708">
        <ele>880</ele>
        <time>2025-04-30T15:20:21Z</time>
      </trkpt>
      <trkpt lat="45.63686" lon="4.58708">
        <ele>880.4</ele>
        <time>2025-04-30T15:20:22Z</time>
      </trkpt>
      <trkpt lat="45.63689" lon="4.58709">
        <ele>880.6</ele>
        <time>2025-04-30T15:20:23Z</time>
      </trkpt>
      <trkpt lat="45.63692" lon="4.5871">
        <ele>880.8</ele>
        <time>2025-04-30T15:20:24Z</time>
      </trkpt>
      <trkpt lat="45.63694" lon="4.5871">
        <ele>881</ele>
        <time>2025-04-30T15:20:25Z</time>
      </trkpt>
      <trkpt lat="45.63696" lon="4.5871">
        <ele>881.2</ele>
        <time>2025-04-30T15:20:26Z</time>
      </trkpt>
      <trkpt lat="45.63699" lon="4.58709">
        <ele>881.4</ele>
        <time>2025-04-30T15:20:27Z</time>
      </trkpt>
      <trkpt lat="45.63701" lon="4.58709">
        <ele>881.6</ele>
        <time>2025-04-30T15:20:28Z</time>
      </trkpt>
      <trkpt lat="45.63703" lon="4.58709">
        <ele>882</ele>
        <time>2025-04-30T15:20:29Z</time>
      </trkpt>
      <trkpt lat="45.63706" lon="4.58709">
        <ele>882.6</ele>
        <time>2025-04-30T15:20:30Z</time>
      </trkpt>
      <trkpt lat="45.63708" lon="4.5871">
        <ele>882.8</ele>
        <time>2025-04-30T15:20:31Z</time>
      </trkpt>
      <trkpt lat="45.63711" lon="4.5871">
        <ele>883.2</ele>
        <time>2025-04-30T15:20:32Z</time>
      </trkpt>
      <trkpt lat="45.63713" lon="4.5871">
        <ele>883.4</ele>
        <time>2025-04-30T15:20:33Z</time>
      </trkpt>
      <trkpt lat="45.63716" lon="4.58711">
        <ele>883.4</ele>
        <time>2025-04-30T15:20:34Z</time>
      </trkpt>
      <trkpt lat="45.63719" lon="4.58711">
        <ele>883.6</ele>
        <time>2025-04-30T15:20:35Z</time>
      </trkpt>
      <trkpt lat="45.63722" lon="4.58711">
        <ele>883.8</ele>
        <time>2025-04-30T15:20:36Z</time>
      </trkpt>
      <trkpt lat="45.63724" lon="4.58711">
        <ele>884</ele>
        <time>2025-04-30T15:20:37Z</time>
      </trkpt>
      <trkpt lat="45.63727" lon="4.58712">
        <ele>884</ele>
        <time>2025-04-30T15:20:38Z</time>
      </trkpt>
      <trkpt lat="45.6373" lon="4.58713">
        <ele>884.2</ele>
        <time>2025-04-30T15:20:39Z</time>
      </trkpt>
      <trkpt lat="45.63733" lon="4.58713">
        <ele>884.2</ele>
        <time>2025-04-30T15:20:40Z</time>
      </trkpt>
      <trkpt lat="45.63736" lon="4.58713">
        <ele>884.2</ele>
        <time>2025-04-30T15:20:41Z</time>
      </trkpt>
      <trkpt lat="45.63738" lon="4.58713">
        <ele>884.4</ele>
        <time>2025-04-30T15:20:42Z</time>
      </trkpt>
      <trkpt lat="45.63741" lon="4.58713">
        <ele>884.8</ele>
        <time>2025-04-30T15:20:43Z</time>
      </trkpt>
      <trkpt lat="45.63744" lon="4.58713">
        <ele>885</ele>
        <time>2025-04-30T15:20:44Z</time>
      </trkpt>
      <trkpt lat="45.63747" lon="4.58714">
        <ele>885</ele>
        <time>2025-04-30T15:20:45Z</time>
      </trkpt>
      <trkpt lat="45.63749" lon="4.58714">
        <ele>885.2</ele>
        <time>2025-04-30T15:20:46Z</time>
      </trkpt>
      <trkpt lat="45.63753" lon="4.58714">
        <ele>885.2</ele>
        <time>2025-04-30T15:20:47Z</time>
      </trkpt>
      <trkpt lat="45.63755" lon="4.58713">
        <ele>885.4</ele>
        <time>2025-04-30T15:20:48Z</time>
      </trkpt>
      <trkpt lat="45.63758" lon="4.58712">
        <ele>885.4</ele>
        <time>2025-04-30T15:20:49Z</time>
      </trkpt>
      <trkpt lat="45.63762" lon="4.5871">
        <ele>885.4</ele>
        <time>2025-04-30T15:20:50Z</time>
      </trkpt>
      <trkpt lat="45.63765" lon="4.58709">
        <ele>885.6</ele>
        <time>2025-04-30T15:20:51Z</time>
      </trkpt>
      <trkpt lat="45.63768" lon="4.58707">
        <ele>885.6</ele>
        <time>2025-04-30T15:20:52Z</time>
      </trkpt>
      <trkpt lat="45.63772" lon="4.58703">
        <ele>885.6</ele>
        <time>2025-04-30T15:20:53Z</time>
      </trkpt>
      <trkpt lat="45.63775" lon="4.58701">
        <ele>885.6</ele>
        <time>2025-04-30T15:20:54Z</time>
      </trkpt>
      <trkpt lat="45.63778" lon="4.58699">
        <ele>885.6</ele>
        <time>2025-04-30T15:20:55Z</time>
      </trkpt>
      <trkpt lat="45.63782" lon="4.58696">
        <ele>885.6</ele>
        <time>2025-04-30T15:20:56Z</time>
      </trkpt>
      <trkpt lat="45.63784" lon="4.58694">
        <ele>885.6</ele>
        <time>2025-04-30T15:20:57Z</time>
      </trkpt>
      <trkpt lat="45.63788" lon="4.58692">
        <ele>885.6</ele>
        <time>2025-04-30T15:20:58Z</time>
      </trkpt>
      <trkpt lat="45.63792" lon="4.58691">
        <ele>885.6</ele>
        <time>2025-04-30T15:20:59Z</time>
      </trkpt>
      <trkpt lat="45.63796" lon="4.58692">
        <ele>885.6</ele>
        <time>2025-04-30T15:21:00Z</time>
      </trkpt>
      <trkpt lat="45.638" lon="4.58693">
        <ele>885.8</ele>
        <time>2025-04-30T15:21:01Z</time>
      </trkpt>
      <trkpt lat="45.63804" lon="4.58695">
        <ele>886</ele>
        <time>2025-04-30T15:21:02Z</time>
      </trkpt>
      <trkpt lat="45.63807" lon="4.58696">
        <ele>886</ele>
        <time>2025-04-30T15:21:03Z</time>
      </trkpt>
      <trkpt lat="45.6381" lon="4.58698">
        <ele>886</ele>
        <time>2025-04-30T15:21:04Z</time>
      </trkpt>
      <trkpt lat="45.63814" lon="4.58701">
        <ele>886.2</ele>
        <time>2025-04-30T15:21:05Z</time>
      </trkpt>
      <trkpt lat="45.63816" lon="4.58702">
        <ele>886.6</ele>
        <time>2025-04-30T15:21:06Z</time>
      </trkpt>
      <trkpt lat="45.63818" lon="4.58704">
        <ele>887.4</ele>
        <time>2025-04-30T15:21:07Z</time>
      </trkpt>
      <trkpt lat="45.6382" lon="4.58706">
        <ele>887.8</ele>
        <time>2025-04-30T15:21:08Z</time>
      </trkpt>
      <trkpt lat="45.63821" lon="4.58708">
        <ele>887.8</ele>
        <time>2025-04-30T15:21:09Z</time>
      </trkpt>
      <trkpt lat="45.63823" lon="4.5871">
        <ele>888.2</ele>
        <time>2025-04-30T15:21:10Z</time>
      </trkpt>
      <trkpt lat="45.63825" lon="4.58712">
        <ele>889</ele>
        <time>2025-04-30T15:21:11Z</time>
      </trkpt>
      <trkpt lat="45.63827" lon="4.58713">
        <ele>889.2</ele>
        <time>2025-04-30T15:21:12Z</time>
      </trkpt>
      <trkpt lat="45.63829" lon="4.58715">
        <ele>889.4</ele>
        <time>2025-04-30T15:21:13Z</time>
      </trkpt>
      <trkpt lat="45.63832" lon="4.58716">
        <ele>889.6</ele>
        <time>2025-04-30T15:21:14Z</time>
      </trkpt>
      <trkpt lat="45.63834" lon="4.58717">
        <ele>889.6</ele>
        <time>2025-04-30T15:21:15Z</time>
      </trkpt>
      <trkpt lat="45.63836" lon="4.58719">
        <ele>890</ele>
        <time>2025-04-30T15:21:16Z</time>
      </trkpt>
      <trkpt lat="45.63838" lon="4.58721">
        <ele>890</ele>
        <time>2025-04-30T15:21:17Z</time>
      </trkpt>
      <trkpt lat="45.63841" lon="4.58722">
        <ele>890.4</ele>
        <time>2025-04-30T15:21:18Z</time>
      </trkpt>
      <trkpt lat="45.63844" lon="4.58724">
        <ele>890.4</ele>
        <time>2025-04-30T15:21:19Z</time>
      </trkpt>
      <trkpt lat="45.63846" lon="4.58726">
        <ele>890.6</ele>
        <time>2025-04-30T15:21:20Z</time>
      </trkpt>
      <trkpt lat="45.63849" lon="4.58728">
        <ele>891</ele>
        <time>2025-04-30T15:21:21Z</time>
      </trkpt>
      <trkpt lat="45.63851" lon="4.5873">
        <ele>891.2</ele>
        <time>2025-04-30T15:21:22Z</time>
      </trkpt>
      <trkpt lat="45.63854" lon="4.58732">
        <ele>891.4</ele>
        <time>2025-04-30T15:21:23Z</time>
      </trkpt>
      <trkpt lat="45.63856" lon="4.58733">
        <ele>891.6</ele>
        <time>2025-04-30T15:21:24Z</time>
      </trkpt>
      <trkpt lat="45.63859" lon="4.58735">
        <ele>892</ele>
        <time>2025-04-30T15:21:25Z</time>
      </trkpt>
      <trkpt lat="45.63862" lon="4.58737">
        <ele>892</ele>
        <time>2025-04-30T15:21:26Z</time>
      </trkpt>
      <trkpt lat="45.63864" lon="4.58738">
        <ele>892.4</ele>
        <time>2025-04-30T15:21:27Z</time>
      </trkpt>
      <trkpt lat="45.63867" lon="4.5874">
        <ele>892.4</ele>
        <time>2025-04-30T15:21:28Z</time>
      </trkpt>
      <trkpt lat="45.6387" lon="4.58742">
        <ele>892.6</ele>
        <time>2025-04-30T15:21:29Z</time>
      </trkpt>
      <trkpt lat="45.63872" lon="4.58742">
        <ele>892.8</ele>
        <time>2025-04-30T15:21:30Z</time>
      </trkpt>
      <trkpt lat="45.63875" lon="4.58743">
        <ele>893</ele>
        <time>2025-04-30T15:21:31Z</time>
      </trkpt>
      <trkpt lat="45.63878" lon="4.58745">
        <ele>893</ele>
        <time>2025-04-30T15:21:32Z</time>
      </trkpt>
      <trkpt lat="45.6388" lon="4.58745">
        <ele>893.2</ele>
        <time>2025-04-30T15:21:33Z</time>
      </trkpt>
      <trkpt lat="45.63883" lon="4.58746">
        <ele>893.2</ele>
        <time>2025-04-30T15:21:34Z</time>
      </trkpt>
      <trkpt lat="45.63885" lon="4.58748">
        <ele>893.2</ele>
        <time>2025-04-30T15:21:35Z</time>
      </trkpt>
      <trkpt lat="45.63887" lon="4.58749">
        <ele>893.2</ele>
        <time>2025-04-30T15:21:36Z</time>
      </trkpt>
      <trkpt lat="45.63889" lon="4.58751">
        <ele>893.2</ele>
        <time>2025-04-30T15:21:37Z</time>
      </trkpt>
      <trkpt lat="45.63892" lon="4.58754">
        <ele>893.2</ele>
        <time>2025-04-30T15:21:38Z</time>
      </trkpt>
      <trkpt lat="45.63894" lon="4.58756">
        <ele>893.2</ele>
        <time>2025-04-30T15:21:39Z</time>
      </trkpt>
      <trkpt lat="45.63897" lon="4.5876">
        <ele>893</ele>
        <time>2025-04-30T15:21:40Z</time>
      </trkpt>
      <trkpt lat="45.639" lon="4.58763">
        <ele>893</ele>
        <time>2025-04-30T15:21:41Z</time>
      </trkpt>
      <trkpt lat="45.63903" lon="4.58767">
        <ele>892.8</ele>
        <time>2025-04-30T15:21:42Z</time>
      </trkpt>
      <trkpt lat="45.63906" lon="4.58771">
        <ele>892.4</ele>
        <time>2025-04-30T15:21:43Z</time>
      </trkpt>
      <trkpt lat="45.6391" lon="4.58775">
        <ele>891.8</ele>
        <time>2025-04-30T15:21:44Z</time>
      </trkpt>
      <trkpt lat="45.63912" lon="4.58778">
        <ele>891.6</ele>
        <time>2025-04-30T15:21:45Z</time>
      </trkpt>
      <trkpt lat="45.63915" lon="4.58781">
        <ele>891</ele>
        <time>2025-04-30T15:21:46Z</time>
      </trkpt>
      <trkpt lat="45.63919" lon="4.58785">
        <ele>890.8</ele>
        <time>2025-04-30T15:21:47Z</time>
      </trkpt>
      <trkpt lat="45.63922" lon="4.58789">
        <ele>890.4</ele>
        <time>2025-04-30T15:21:48Z</time>
      </trkpt>
      <trkpt lat="45.63926" lon="4.58792">
        <ele>890.2</ele>
        <time>2025-04-30T15:21:49Z</time>
      </trkpt>
      <trkpt lat="45.63931" lon="4.58796">
        <ele>889.6</ele>
        <time>2025-04-30T15:21:50Z</time>
      </trkpt>
      <trkpt lat="45.63934" lon="4.58799">
        <ele>889.6</ele>
        <time>2025-04-30T15:21:51Z</time>
      </trkpt>
      <trkpt lat="45.63939" lon="4.58802">
        <ele>888.4</ele>
        <time>2025-04-30T15:21:52Z</time>
      </trkpt>
      <trkpt lat="45.63944" lon="4.58805">
        <ele>888.2</ele>
        <time>2025-04-30T15:21:53Z</time>
      </trkpt>
      <trkpt lat="45.6395" lon="4.58807">
        <ele>887.4</ele>
        <time>2025-04-30T15:21:54Z</time>
      </trkpt>
      <trkpt lat="45.63954" lon="4.58808">
        <ele>887</ele>
        <time>2025-04-30T15:21:55Z</time>
      </trkpt>
      <trkpt lat="45.6396" lon="4.5881">
        <ele>886.6</ele>
        <time>2025-04-30T15:21:56Z</time>
      </trkpt>
      <trkpt lat="45.63963" lon="4.58811">
        <ele>886</ele>
        <time>2025-04-30T15:21:57Z</time>
      </trkpt>
      <trkpt lat="45.63967" lon="4.58812">
        <ele>885.6</ele>
        <time>2025-04-30T15:21:58Z</time>
      </trkpt>
      <trkpt lat="45.63971" lon="4.58812">
        <ele>885.2</ele>
        <time>2025-04-30T15:21:59Z</time>
      </trkpt>
      <trkpt lat="45.63974" lon="4.58812">
        <ele>885</ele>
        <time>2025-04-30T15:22:00Z</time>
      </trkpt>
      <trkpt lat="45.63979" lon="4.58811">
        <ele>884.8</ele>
        <time>2025-04-30T15:22:01Z</time>
      </trkpt>
      <trkpt lat="45.63984" lon="4.58811">
        <ele>884.4</ele>
        <time>2025-04-30T15:22:02Z</time>
      </trkpt>
      <trkpt lat="45.63987" lon="4.58809">
        <ele>883.6</ele>
        <time>2025-04-30T15:22:03Z</time>
      </trkpt>
      <trkpt lat="45.63991" lon="4.58808">
        <ele>883.2</ele>
        <time>2025-04-30T15:22:04Z</time>
      </trkpt>
      <trkpt lat="45.63996" lon="4.58805">
        <ele>882.8</ele>
        <time>2025-04-30T15:22:05Z</time>
      </trkpt>
      <trkpt lat="45.63999" lon="4.58804">
        <ele>882</ele>
        <time>2025-04-30T15:22:06Z</time>
      </trkpt>
      <trkpt lat="45.64003" lon="4.58802">
        <ele>881.6</ele>
        <time>2025-04-30T15:22:07Z</time>
      </trkpt>
      <trkpt lat="45.64009" lon="4.58802">
        <ele>881.2</ele>
        <time>2025-04-30T15:22:08Z</time>
      </trkpt>
      <trkpt lat="45.64013" lon="4.58801">
        <ele>880.2</ele>
        <time>2025-04-30T15:22:09Z</time>
      </trkpt>
      <trkpt lat="45.64018" lon="4.58801">
        <ele>879.8</ele>
        <time>2025-04-30T15:22:10Z</time>
      </trkpt>
      <trkpt lat="45.64023" lon="4.58801">
        <ele>879.4</ele>
        <time>2025-04-30T15:22:11Z</time>
      </trkpt>
      <trkpt lat="45.64028" lon="4.588">
        <ele>878.4</ele>
        <time>2025-04-30T15:22:12Z</time>
      </trkpt>
      <trkpt lat="45.64034" lon="4.58799">
        <ele>877.2</ele>
        <time>2025-04-30T15:22:13Z</time>
      </trkpt>
      <trkpt lat="45.6404" lon="4.58798">
        <ele>876.6</ele>
        <time>2025-04-30T15:22:14Z</time>
      </trkpt>
      <trkpt lat="45.64044" lon="4.58797">
        <ele>875.8</ele>
        <time>2025-04-30T15:22:15Z</time>
      </trkpt>
      <trkpt lat="45.64049" lon="4.58797">
        <ele>874.6</ele>
        <time>2025-04-30T15:22:16Z</time>
      </trkpt>
      <trkpt lat="45.64055" lon="4.58797">
        <ele>874.2</ele>
        <time>2025-04-30T15:22:17Z</time>
      </trkpt>
      <trkpt lat="45.64058" lon="4.58797">
        <ele>873.4</ele>
        <time>2025-04-30T15:22:18Z</time>
      </trkpt>
      <trkpt lat="45.64062" lon="4.58798">
        <ele>872.6</ele>
        <time>2025-04-30T15:22:19Z</time>
      </trkpt>
      <trkpt lat="45.64068" lon="4.58798">
        <ele>871.8</ele>
        <time>2025-04-30T15:22:20Z</time>
      </trkpt>
      <trkpt lat="45.64072" lon="4.58798">
        <ele>871.2</ele>
        <time>2025-04-30T15:22:21Z</time>
      </trkpt>
      <trkpt lat="45.64076" lon="4.58798">
        <ele>870.8</ele>
        <time>2025-04-30T15:22:22Z</time>
      </trkpt>
      <trkpt lat="45.6408" lon="4.58799">
        <ele>870.2</ele>
        <time>2025-04-30T15:22:23Z</time>
      </trkpt>
      <trkpt lat="45.64081" lon="4.58799">
        <ele>869.4</ele>
        <time>2025-04-30T15:22:24Z</time>
      </trkpt>
      <trkpt lat="45.64082" lon="4.588">
        <ele>869</ele>
        <time>2025-04-30T15:22:25Z</time>
      </trkpt>
      <trkpt lat="45.64082" lon="4.588">
        <ele>868.8</ele>
        <time>2025-04-30T15:22:26Z</time>
      </trkpt>
      <trkpt lat="45.64082" lon="4.588">
        <ele>868.8</ele>
        <time>2025-04-30T15:22:27Z</time>
      </trkpt>
      <trkpt lat="45.64082" lon="4.588">
        <ele>868.8</ele>
        <time>2025-04-30T15:22:28Z</time>
      </trkpt>
      <trkpt lat="45.64082" lon="4.588">
        <ele>868.8</ele>
        <time>2025-04-30T15:22:29Z</time>
      </trkpt>
      <trkpt lat="45.64082" lon="4.588">
        <ele>868.8</ele>
        <time>2025-04-30T15:22:30Z</time>
      </trkpt>
      <trkpt lat="45.64082" lon="4.588">
        <ele>868.6</ele>
        <time>2025-04-30T15:22:31Z</time>
      </trkpt>
      <trkpt lat="45.64082" lon="4.588">
        <ele>868.6</ele>
        <time>2025-04-30T15:22:32Z</time>
      </trkpt>
      <trkpt lat="45.64082" lon="4.588">
        <ele>868.6</ele>
        <time>2025-04-30T15:22:33Z</time>
      </trkpt>
      <trkpt lat="45.64082" lon="4.588">
        <ele>868.6</ele>
        <time>2025-04-30T15:22:34Z</time>
      </trkpt>
      <trkpt lat="45.64082" lon="4.588">
        <ele>868.4</ele>
        <time>2025-04-30T15:22:35Z</time>
      </trkpt>
      <trkpt lat="45.64082" lon="4.588">
        <ele>868.4</ele>
        <time>2025-04-30T15:22:36Z</time>
      </trkpt>
      <trkpt lat="45.64082" lon="4.588">
        <ele>868.4</ele>
        <time>2025-04-30T15:22:37Z</time>
      </trkpt>
      <trkpt lat="45.64082" lon="4.588">
        <ele>868.4</ele>
        <time>2025-04-30T15:22:38Z</time>
      </trkpt>
      <trkpt lat="45.64082" lon="4.588">
        <ele>868.4</ele>
        <time>2025-04-30T15:22:39Z</time>
      </trkpt>
      <trkpt lat="45.64082" lon="4.588">
        <ele>868.2</ele>
        <time>2025-04-30T15:22:40Z</time>
      </trkpt>
      <trkpt lat="45.64082" lon="4.588">
        <ele>868.2</ele>
        <time>2025-04-30T15:22:41Z</time>
      </trkpt>
      <trkpt lat="45.64082" lon="4.588">
        <ele>868.2</ele>
        <time>2025-04-30T15:22:42Z</time>
      </trkpt>
      <trkpt lat="45.64082" lon="4.588">
        <ele>868.2</ele>
        <time>2025-04-30T15:22:43Z</time>
      </trkpt>
      <trkpt lat="45.64082" lon="4.588">
        <ele>868.2</ele>
        <time>2025-04-30T15:22:44Z</time>
      </trkpt>
      <trkpt lat="45.64082" lon="4.588">
        <ele>868.2</ele>
        <time>2025-04-30T15:22:45Z</time>
      </trkpt>
      <trkpt lat="45.64082" lon="4.588">
        <ele>868.2</ele>
        <time>2025-04-30T15:22:46Z</time>
      </trkpt>
      <trkpt lat="45.64082" lon="4.588">
        <ele>868.2</ele>
        <time>2025-04-30T15:22:47Z</time>
      </trkpt>
      <trkpt lat="45.64082" lon="4.588">
        <ele>868.2</ele>
        <time>2025-04-30T15:22:48Z</time>
      </trkpt>
      <trkpt lat="45.64082" lon="4.588">
        <ele>868.2</ele>
        <time>2025-04-30T15:22:49Z</time>
      </trkpt>
      <trkpt lat="45.64082" lon="4.588">
        <ele>868.2</ele>
        <time>2025-04-30T15:22:50Z</time>
      </trkpt>
      <trkpt lat="45.64082" lon="4.588">
        <ele>868.2</ele>
        <time>2025-04-30T15:22:51Z</time>
      </trkpt>
      <trkpt lat="45.64082" lon="4.588">
        <ele>868.2</ele>
        <time>2025-04-30T15:22:52Z</time>
      </trkpt>
      <trkpt lat="45.64082" lon="4.588">
        <ele>868.2</ele>
        <time>2025-04-30T15:22:53Z</time>
      </trkpt>
      <trkpt lat="45.64082" lon="4.588">
        <ele>868.4</ele>
        <time>2025-04-30T15:22:54Z</time>
      </trkpt>
      <trkpt lat="45.64082" lon="4.588">
        <ele>868.4</ele>
        <time>2025-04-30T15:22:55Z</time>
      </trkpt>
      <trkpt lat="45.64082" lon="4.588">
        <ele>868.4</ele>
        <time>2025-04-30T15:22:56Z</time>
      </trkpt>
      <trkpt lat="45.64082" lon="4.588">
        <ele>868.6</ele>
        <time>2025-04-30T15:22:57Z</time>
      </trkpt>
      <trkpt lat="45.64082" lon="4.588">
        <ele>868.6</ele>
        <time>2025-04-30T15:22:58Z</time>
      </trkpt>
      <trkpt lat="45.64082" lon="4.588">
        <ele>868.6</ele>
        <time>2025-04-30T15:22:59Z</time>
      </trkpt>
      <trkpt lat="45.64081" lon="4.588">
        <ele>868.6</ele>
        <time>2025-04-30T15:23:00Z</time>
      </trkpt>
      <trkpt lat="45.64081" lon="4.58801">
        <ele>868.6</ele>
        <time>2025-04-30T15:23:01Z</time>
      </trkpt>
      <trkpt lat="45.64081" lon="4.58802">
        <ele>868.6</ele>
        <time>2025-04-30T15:23:02Z</time>
      </trkpt>
      <trkpt lat="45.6408" lon="4.58803">
        <ele>868.8</ele>
        <time>2025-04-30T15:23:03Z</time>
      </trkpt>
      <trkpt lat="45.64079" lon="4.58805">
        <ele>868.6</ele>
        <time>2025-04-30T15:23:04Z</time>
      </trkpt>
      <trkpt lat="45.64079" lon="4.58807">
        <ele>868.6</ele>
        <time>2025-04-30T15:23:05Z</time>
      </trkpt>
      <trkpt lat="45.64078" lon="4.5881">
        <ele>868.6</ele>
        <time>2025-04-30T15:23:06Z</time>
      </trkpt>
      <trkpt lat="45.64078" lon="4.58813">
        <ele>868.8</ele>
        <time>2025-04-30T15:23:07Z</time>
      </trkpt>
      <trkpt lat="45.64078" lon="4.58816">
        <ele>868.8</ele>
        <time>2025-04-30T15:23:08Z</time>
      </trkpt>
      <trkpt lat="45.64077" lon="4.58819">
        <ele>869</ele>
        <time>2025-04-30T15:23:09Z</time>
      </trkpt>
      <trkpt lat="45.64076" lon="4.58822">
        <ele>869.2</ele>
        <time>2025-04-30T15:23:10Z</time>
      </trkpt>
      <trkpt lat="45.64074" lon="4.58825">
        <ele>869.6</ele>
        <time>2025-04-30T15:23:11Z</time>
      </trkpt>
      <trkpt lat="45.64073" lon="4.58828">
        <ele>869.8</ele>
        <time>2025-04-30T15:23:12Z</time>
      </trkpt>
      <trkpt lat="45.64071" lon="4.5883">
        <ele>869.8</ele>
        <time>2025-04-30T15:23:13Z</time>
      </trkpt>
      <trkpt lat="45.6407" lon="4.58833">
        <ele>870</ele>
        <time>2025-04-30T15:23:14Z</time>
      </trkpt>
      <trkpt lat="45.64069" lon="4.58835">
        <ele>870.2</ele>
        <time>2025-04-30T15:23:15Z</time>
      </trkpt>
      <trkpt lat="45.64067" lon="4.58837">
        <ele>870.4</ele>
        <time>2025-04-30T15:23:16Z</time>
      </trkpt>
      <trkpt lat="45.64066" lon="4.58839">
        <ele>870.6</ele>
        <time>2025-04-30T15:23:17Z</time>
      </trkpt>
      <trkpt lat="45.64064" lon="4.5884">
        <ele>871</ele>
        <time>2025-04-30T15:23:18Z</time>
      </trkpt>
      <trkpt lat="45.64063" lon="4.58842">
        <ele>871.4</ele>
        <time>2025-04-30T15:23:19Z</time>
      </trkpt>
      <trkpt lat="45.64061" lon="4.58846">
        <ele>871.6</ele>
        <time>2025-04-30T15:23:20Z</time>
      </trkpt>
      <trkpt lat="45.6406" lon="4.58848">
        <ele>871.8</ele>
        <time>2025-04-30T15:23:21Z</time>
      </trkpt>
      <trkpt lat="45.64058" lon="4.58851">
        <ele>872</ele>
        <time>2025-04-30T15:23:22Z</time>
      </trkpt>
      <trkpt lat="45.64056" lon="4.58854">
        <ele>872.4</ele>
        <time>2025-04-30T15:23:23Z</time>
      </trkpt>
      <trkpt lat="45.64055" lon="4.58857">
        <ele>872.8</ele>
        <time>2025-04-30T15:23:24Z</time>
      </trkpt>
      <trkpt lat="45.64053" lon="4.5886">
        <ele>873</ele>
        <time>2025-04-30T15:23:25Z</time>
      </trkpt>
      <trkpt lat="45.64052" lon="4.58863">
        <ele>873.4</ele>
        <time>2025-04-30T15:23:26Z</time>
      </trkpt>
      <trkpt lat="45.64051" lon="4.58866">
        <ele>873.6</ele>
        <time>2025-04-30T15:23:27Z</time>
      </trkpt>
      <trkpt lat="45.6405" lon="4.58869">
        <ele>874</ele>
        <time>2025-04-30T15:23:28Z</time>
      </trkpt>
      <trkpt lat="45.6405" lon="4.58872">
        <ele>874.4</ele>
        <time>2025-04-30T15:23:29Z</time>
      </trkpt>
      <trkpt lat="45.64048" lon="4.58875">
        <ele>874.8</ele>
        <time>2025-04-30T15:23:30Z</time>
      </trkpt>
      <trkpt lat="45.64048" lon="4.58877">
        <ele>874.8</ele>
        <time>2025-04-30T15:23:31Z</time>
      </trkpt>
      <trkpt lat="45.64047" lon="4.58881">
        <ele>875.2</ele>
        <time>2025-04-30T15:23:32Z</time>
      </trkpt>
      <trkpt lat="45.64046" lon="4.58883">
        <ele>875.4</ele>
        <time>2025-04-30T15:23:33Z</time>
      </trkpt>
      <trkpt lat="45.64046" lon="4.58886">
        <ele>875.8</ele>
        <time>2025-04-30T15:23:34Z</time>
      </trkpt>
      <trkpt lat="45.64046" lon="4.58888">
        <ele>876</ele>
        <time>2025-04-30T15:23:35Z</time>
      </trkpt>
      <trkpt lat="45.64046" lon="4.58891">
        <ele>876</ele>
        <time>2025-04-30T15:23:36Z</time>
      </trkpt>
      <trkpt lat="45.64046" lon="4.58893">
        <ele>876.2</ele>
        <time>2025-04-30T15:23:37Z</time>
      </trkpt>
      <trkpt lat="45.64046" lon="4.58894">
        <ele>876.4</ele>
        <time>2025-04-30T15:23:38Z</time>
      </trkpt>
      <trkpt lat="45.64046" lon="4.58897">
        <ele>876.6</ele>
        <time>2025-04-30T15:23:39Z</time>
      </trkpt>
      <trkpt lat="45.64046" lon="4.589">
        <ele>876.8</ele>
        <time>2025-04-30T15:23:40Z</time>
      </trkpt>
      <trkpt lat="45.64046" lon="4.58903">
        <ele>877</ele>
        <time>2025-04-30T15:23:41Z</time>
      </trkpt>
      <trkpt lat="45.64047" lon="4.58905">
        <ele>877.2</ele>
        <time>2025-04-30T15:23:42Z</time>
      </trkpt>
      <trkpt lat="45.64047" lon="4.58908">
        <ele>877.4</ele>
        <time>2025-04-30T15:23:43Z</time>
      </trkpt>
      <trkpt lat="45.64046" lon="4.58912">
        <ele>877.4</ele>
        <time>2025-04-30T15:23:44Z</time>
      </trkpt>
      <trkpt lat="45.64047" lon="4.58914">
        <ele>877.6</ele>
        <time>2025-04-30T15:23:45Z</time>
      </trkpt>
      <trkpt lat="45.64046" lon="4.58918">
        <ele>877.6</ele>
        <time>2025-04-30T15:23:46Z</time>
      </trkpt>
      <trkpt lat="45.64046" lon="4.58922">
        <ele>877.6</ele>
        <time>2025-04-30T15:23:47Z</time>
      </trkpt>
      <trkpt lat="45.64046" lon="4.58926">
        <ele>877.6</ele>
        <time>2025-04-30T15:23:48Z</time>
      </trkpt>
      <trkpt lat="45.64046" lon="4.58929">
        <ele>877.8</ele>
        <time>2025-04-30T15:23:49Z</time>
      </trkpt>
      <trkpt lat="45.64047" lon="4.58932">
        <ele>877.8</ele>
        <time>2025-04-30T15:23:50Z</time>
      </trkpt>
      <trkpt lat="45.64047" lon="4.58935">
        <ele>878</ele>
        <time>2025-04-30T15:23:51Z</time>
      </trkpt>
      <trkpt lat="45.64047" lon="4.58938">
        <ele>878.2</ele>
        <time>2025-04-30T15:23:52Z</time>
      </trkpt>
      <trkpt lat="45.64047" lon="4.58942">
        <ele>878.4</ele>
        <time>2025-04-30T15:23:53Z</time>
      </trkpt>
      <trkpt lat="45.64047" lon="4.58945">
        <ele>878.6</ele>
        <time>2025-04-30T15:23:54Z</time>
      </trkpt>
      <trkpt lat="45.64047" lon="4.5895">
        <ele>878.6</ele>
        <time>2025-04-30T15:23:55Z</time>
      </trkpt>
      <trkpt lat="45.64048" lon="4.58955">
        <ele>878.8</ele>
        <time>2025-04-30T15:23:56Z</time>
      </trkpt>
      <trkpt lat="45.64046" lon="4.5896">
        <ele>878.8</ele>
        <time>2025-04-30T15:23:57Z</time>
      </trkpt>
      <trkpt lat="45.64046" lon="4.58963">
        <ele>879</ele>
        <time>2025-04-30T15:23:58Z</time>
      </trkpt>
      <trkpt lat="45.64046" lon="4.58967">
        <ele>879.2</ele>
        <time>2025-04-30T15:23:59Z</time>
      </trkpt>
      <trkpt lat="45.64046" lon="4.58971">
        <ele>879.4</ele>
        <time>2025-04-30T15:24:00Z</time>
      </trkpt>
      <trkpt lat="45.64046" lon="4.58973">
        <ele>879.8</ele>
        <time>2025-04-30T15:24:01Z</time>
      </trkpt>
      <trkpt lat="45.64046" lon="4.58977">
        <ele>880</ele>
        <time>2025-04-30T15:24:02Z</time>
      </trkpt>
      <trkpt lat="45.64046" lon="4.58981">
        <ele>880.4</ele>
        <time>2025-04-30T15:24:03Z</time>
      </trkpt>
      <trkpt lat="45.64046" lon="4.58984">
        <ele>880.6</ele>
        <time>2025-04-30T15:24:04Z</time>
      </trkpt>
      <trkpt lat="45.64046" lon="4.58989">
        <ele>880.8</ele>
        <time>2025-04-30T15:24:05Z</time>
      </trkpt>
      <trkpt lat="45.64045" lon="4.58993">
        <ele>881</ele>
        <time>2025-04-30T15:24:06Z</time>
      </trkpt>
      <trkpt lat="45.64045" lon="4.58997">
        <ele>881.2</ele>
        <time>2025-04-30T15:24:07Z</time>
      </trkpt>
      <trkpt lat="45.64045" lon="4.59001">
        <ele>881.4</ele>
        <time>2025-04-30T15:24:08Z</time>
      </trkpt>
      <trkpt lat="45.64045" lon="4.59004">
        <ele>881.4</ele>
        <time>2025-04-30T15:24:09Z</time>
      </trkpt>
      <trkpt lat="45.64043" lon="4.59009">
        <ele>881.6</ele>
        <time>2025-04-30T15:24:10Z</time>
      </trkpt>
      <trkpt lat="45.64043" lon="4.59013">
        <ele>881.8</ele>
        <time>2025-04-30T15:24:11Z</time>
      </trkpt>
      <trkpt lat="45.6404" lon="4.59017">
        <ele>882</ele>
        <time>2025-04-30T15:24:12Z</time>
      </trkpt>
      <trkpt lat="45.64038" lon="4.59021">
        <ele>882.4</ele>
        <time>2025-04-30T15:24:13Z</time>
      </trkpt>
      <trkpt lat="45.64035" lon="4.59027">
        <ele>882.4</ele>
        <time>2025-04-30T15:24:14Z</time>
      </trkpt>
      <trkpt lat="45.64035" lon="4.5903">
        <ele>882.8</ele>
        <time>2025-04-30T15:24:15Z</time>
      </trkpt>
      <trkpt lat="45.64034" lon="4.59033">
        <ele>883</ele>
        <time>2025-04-30T15:24:16Z</time>
      </trkpt>
      <trkpt lat="45.64032" lon="4.59036">
        <ele>883.2</ele>
        <time>2025-04-30T15:24:17Z</time>
      </trkpt>
      <trkpt lat="45.64029" lon="4.59038">
        <ele>883.4</ele>
        <time>2025-04-30T15:24:18Z</time>
      </trkpt>
      <trkpt lat="45.64026" lon="4.59041">
        <ele>883.8</ele>
        <time>2025-04-30T15:24:19Z</time>
      </trkpt>
      <trkpt lat="45.64026" lon="4.59043">
        <ele>884</ele>
        <time>2025-04-30T15:24:20Z</time>
      </trkpt>
      <trkpt lat="45.64025" lon="4.59044">
        <ele>884.2</ele>
        <time>2025-04-30T15:24:21Z</time>
      </trkpt>
      <trkpt lat="45.64024" lon="4.59046">
        <ele>884.4</ele>
        <time>2025-04-30T15:24:22Z</time>
      </trkpt>
      <trkpt lat="45.64024" lon="4.59048">
        <ele>885</ele>
        <time>2025-04-30T15:24:23Z</time>
      </trkpt>
      <trkpt lat="45.64023" lon="4.59049">
        <ele>885</ele>
        <time>2025-04-30T15:24:24Z</time>
      </trkpt>
      <trkpt lat="45.64022" lon="4.59051">
        <ele>885.2</ele>
        <time>2025-04-30T15:24:25Z</time>
      </trkpt>
      <trkpt lat="45.64021" lon="4.59053">
        <ele>885.6</ele>
        <time>2025-04-30T15:24:26Z</time>
      </trkpt>
      <trkpt lat="45.6402" lon="4.59054">
        <ele>885.6</ele>
        <time>2025-04-30T15:24:27Z</time>
      </trkpt>
      <trkpt lat="45.64019" lon="4.59056">
        <ele>885.8</ele>
        <time>2025-04-30T15:24:28Z</time>
      </trkpt>
      <trkpt lat="45.64018" lon="4.59058">
        <ele>886.2</ele>
        <time>2025-04-30T15:24:29Z</time>
      </trkpt>
      <trkpt lat="45.64017" lon="4.5906">
        <ele>886.4</ele>
        <time>2025-04-30T15:24:30Z</time>
      </trkpt>
      <trkpt lat="45.64016" lon="4.59062">
        <ele>886.6</ele>
        <time>2025-04-30T15:24:31Z</time>
      </trkpt>
      <trkpt lat="45.64015" lon="4.59064">
        <ele>886.8</ele>
        <time>2025-04-30T15:24:32Z</time>
      </trkpt>
      <trkpt lat="45.64014" lon="4.59067">
        <ele>887.2</ele>
        <time>2025-04-30T15:24:33Z</time>
      </trkpt>
      <trkpt lat="45.64013" lon="4.59069">
        <ele>887.4</ele>
        <time>2025-04-30T15:24:34Z</time>
      </trkpt>
      <trkpt lat="45.64012" lon="4.59072">
        <ele>887.6</ele>
        <time>2025-04-30T15:24:35Z</time>
      </trkpt>
      <trkpt lat="45.64011" lon="4.59074">
        <ele>887.8</ele>
        <time>2025-04-30T15:24:36Z</time>
      </trkpt>
      <trkpt lat="45.64011" lon="4.59076">
        <ele>888.2</ele>
        <time>2025-04-30T15:24:37Z</time>
      </trkpt>
      <trkpt lat="45.6401" lon="4.59078">
        <ele>888.4</ele>
        <time>2025-04-30T15:24:38Z</time>
      </trkpt>
      <trkpt lat="45.64009" lon="4.59081">
        <ele>888.4</ele>
        <time>2025-04-30T15:24:39Z</time>
      </trkpt>
      <trkpt lat="45.64008" lon="4.59082">
        <ele>888.8</ele>
        <time>2025-04-30T15:24:40Z</time>
      </trkpt>
      <trkpt lat="45.64006" lon="4.59085">
        <ele>889</ele>
        <time>2025-04-30T15:24:41Z</time>
      </trkpt>
      <trkpt lat="45.64004" lon="4.59087">
        <ele>889.4</ele>
        <time>2025-04-30T15:24:42Z</time>
      </trkpt>
      <trkpt lat="45.64003" lon="4.5909">
        <ele>889.6</ele>
        <time>2025-04-30T15:24:43Z</time>
      </trkpt>
      <trkpt lat="45.64002" lon="4.59092">
        <ele>889.8</ele>
        <time>2025-04-30T15:24:44Z</time>
      </trkpt>
      <trkpt lat="45.64002" lon="4.59095">
        <ele>890.2</ele>
        <time>2025-04-30T15:24:45Z</time>
      </trkpt>
      <trkpt lat="45.64002" lon="4.59096">
        <ele>890.4</ele>
        <time>2025-04-30T15:24:46Z</time>
      </trkpt>
      <trkpt lat="45.64002" lon="4.59098">
        <ele>890.8</ele>
        <time>2025-04-30T15:24:47Z</time>
      </trkpt>
      <trkpt lat="45.64" lon="4.59101">
        <ele>891</ele>
        <time>2025-04-30T15:24:48Z</time>
      </trkpt>
      <trkpt lat="45.63998" lon="4.59104">
        <ele>891.4</ele>
        <time>2025-04-30T15:24:49Z</time>
      </trkpt>
      <trkpt lat="45.63997" lon="4.59106">
        <ele>891.8</ele>
        <time>2025-04-30T15:24:50Z</time>
      </trkpt>
      <trkpt lat="45.63996" lon="4.59108">
        <ele>892</ele>
        <time>2025-04-30T15:24:51Z</time>
      </trkpt>
      <trkpt lat="45.63993" lon="4.5911">
        <ele>892.4</ele>
        <time>2025-04-30T15:24:52Z</time>
      </trkpt>
      <trkpt lat="45.63991" lon="4.59112">
        <ele>892.8</ele>
        <time>2025-04-30T15:24:53Z</time>
      </trkpt>
      <trkpt lat="45.63988" lon="4.59114">
        <ele>893.2</ele>
        <time>2025-04-30T15:24:54Z</time>
      </trkpt>
      <trkpt lat="45.63985" lon="4.59116">
        <ele>893.6</ele>
        <time>2025-04-30T15:24:55Z</time>
      </trkpt>
      <trkpt lat="45.63984" lon="4.59119">
        <ele>893.8</ele>
        <time>2025-04-30T15:24:56Z</time>
      </trkpt>
      <trkpt lat="45.63983" lon="4.59121">
        <ele>894.4</ele>
        <time>2025-04-30T15:24:57Z</time>
      </trkpt>
      <trkpt lat="45.63979" lon="4.59123">
        <ele>894.6</ele>
        <time>2025-04-30T15:24:58Z</time>
      </trkpt>
      <trkpt lat="45.63977" lon="4.59124">
        <ele>895</ele>
        <time>2025-04-30T15:24:59Z</time>
      </trkpt>
      <trkpt lat="45.63977" lon="4.59127">
        <ele>895.2</ele>
        <time>2025-04-30T15:25:00Z</time>
      </trkpt>
      <trkpt lat="45.63974" lon="4.5913">
        <ele>895.6</ele>
        <time>2025-04-30T15:25:01Z</time>
      </trkpt>
      <trkpt lat="45.63973" lon="4.5913">
        <ele>896</ele>
        <time>2025-04-30T15:25:02Z</time>
      </trkpt>
      <trkpt lat="45.63971" lon="4.59131">
        <ele>896.2</ele>
        <time>2025-04-30T15:25:03Z</time>
      </trkpt>
      <trkpt lat="45.63971" lon="4.59132">
        <ele>896.6</ele>
        <time>2025-04-30T15:25:04Z</time>
      </trkpt>
      <trkpt lat="45.6397" lon="4.59134">
        <ele>897</ele>
        <time>2025-04-30T15:25:05Z</time>
      </trkpt>
      <trkpt lat="45.63969" lon="4.59135">
        <ele>897.2</ele>
        <time>2025-04-30T15:25:06Z</time>
      </trkpt>
      <trkpt lat="45.63967" lon="4.59136">
        <ele>897.6</ele>
        <time>2025-04-30T15:25:07Z</time>
      </trkpt>
      <trkpt lat="45.63966" lon="4.59137">
        <ele>898</ele>
        <time>2025-04-30T15:25:08Z</time>
      </trkpt>
      <trkpt lat="45.63964" lon="4.59138">
        <ele>898.2</ele>
        <time>2025-04-30T15:25:09Z</time>
      </trkpt>
      <trkpt lat="45.63963" lon="4.5914">
        <ele>898.6</ele>
        <time>2025-04-30T15:25:10Z</time>
      </trkpt>
      <trkpt lat="45.63962" lon="4.59141">
        <ele>898.8</ele>
        <time>2025-04-30T15:25:11Z</time>
      </trkpt>
      <trkpt lat="45.6396" lon="4.59142">
        <ele>899</ele>
        <time>2025-04-30T15:25:12Z</time>
      </trkpt>
      <trkpt lat="45.63959" lon="4.59144">
        <ele>899.4</ele>
        <time>2025-04-30T15:25:13Z</time>
      </trkpt>
      <trkpt lat="45.63958" lon="4.59146">
        <ele>899.8</ele>
        <time>2025-04-30T15:25:14Z</time>
      </trkpt>
      <trkpt lat="45.63957" lon="4.59147">
        <ele>900</ele>
        <time>2025-04-30T15:25:15Z</time>
      </trkpt>
      <trkpt lat="45.63956" lon="4.59148">
        <ele>900.4</ele>
        <time>2025-04-30T15:25:16Z</time>
      </trkpt>
      <trkpt lat="45.63955" lon="4.59149">
        <ele>900.6</ele>
        <time>2025-04-30T15:25:17Z</time>
      </trkpt>
      <trkpt lat="45.63955" lon="4.59149">
        <ele>900.8</ele>
        <time>2025-04-30T15:25:18Z</time>
      </trkpt>
      <trkpt lat="45.63954" lon="4.59151">
        <ele>901.2</ele>
        <time>2025-04-30T15:25:19Z</time>
      </trkpt>
      <trkpt lat="45.63954" lon="4.59153">
        <ele>901.4</ele>
        <time>2025-04-30T15:25:20Z</time>
      </trkpt>
      <trkpt lat="45.63953" lon="4.59155">
        <ele>901.6</ele>
        <time>2025-04-30T15:25:21Z</time>
      </trkpt>
      <trkpt lat="45.63953" lon="4.59157">
        <ele>901.8</ele>
        <time>2025-04-30T15:25:22Z</time>
      </trkpt>
      <trkpt lat="45.63952" lon="4.59159">
        <ele>901.8</ele>
        <time>2025-04-30T15:25:23Z</time>
      </trkpt>
      <trkpt lat="45.63951" lon="4.59161">
        <ele>902.2</ele>
        <time>2025-04-30T15:25:24Z</time>
      </trkpt>
      <trkpt lat="45.6395" lon="4.59163">
        <ele>902.4</ele>
        <time>2025-04-30T15:25:25Z</time>
      </trkpt>
      <trkpt lat="45.6395" lon="4.59165">
        <ele>902.8</ele>
        <time>2025-04-30T15:25:26Z</time>
      </trkpt>
      <trkpt lat="45.6395" lon="4.59168">
        <ele>903.2</ele>
        <time>2025-04-30T15:25:27Z</time>
      </trkpt>
      <trkpt lat="45.6395" lon="4.59171">
        <ele>903.6</ele>
        <time>2025-04-30T15:25:28Z</time>
      </trkpt>
      <trkpt lat="45.63951" lon="4.59174">
        <ele>903.8</ele>
        <time>2025-04-30T15:25:29Z</time>
      </trkpt>
      <trkpt lat="45.6395" lon="4.59176">
        <ele>904</ele>
        <time>2025-04-30T15:25:30Z</time>
      </trkpt>
      <trkpt lat="45.6395" lon="4.59177">
        <ele>904</ele>
        <time>2025-04-30T15:25:31Z</time>
      </trkpt>
      <trkpt lat="45.6395" lon="4.5918">
        <ele>904.2</ele>
        <time>2025-04-30T15:25:32Z</time>
      </trkpt>
      <trkpt lat="45.63951" lon="4.59183">
        <ele>904.4</ele>
        <time>2025-04-30T15:25:33Z</time>
      </trkpt>
      <trkpt lat="45.63951" lon="4.59186">
        <ele>904.4</ele>
        <time>2025-04-30T15:25:34Z</time>
      </trkpt>
      <trkpt lat="45.63952" lon="4.59188">
        <ele>904.6</ele>
        <time>2025-04-30T15:25:35Z</time>
      </trkpt>
      <trkpt lat="45.63952" lon="4.59191">
        <ele>904.6</ele>
        <time>2025-04-30T15:25:36Z</time>
      </trkpt>
      <trkpt lat="45.63953" lon="4.59194">
        <ele>904.8</ele>
        <time>2025-04-30T15:25:37Z</time>
      </trkpt>
      <trkpt lat="45.63953" lon="4.59196">
        <ele>904.8</ele>
        <time>2025-04-30T15:25:38Z</time>
      </trkpt>
      <trkpt lat="45.63954" lon="4.59199">
        <ele>904.8</ele>
        <time>2025-04-30T15:25:39Z</time>
      </trkpt>
      <trkpt lat="45.63955" lon="4.59201">
        <ele>904.8</ele>
        <time>2025-04-30T15:25:40Z</time>
      </trkpt>
      <trkpt lat="45.63956" lon="4.59203">
        <ele>905</ele>
        <time>2025-04-30T15:25:41Z</time>
      </trkpt>
      <trkpt lat="45.63957" lon="4.59206">
        <ele>905.2</ele>
        <time>2025-04-30T15:25:42Z</time>
      </trkpt>
      <trkpt lat="45.63957" lon="4.59209">
        <ele>905.2</ele>
        <time>2025-04-30T15:25:43Z</time>
      </trkpt>
      <trkpt lat="45.63958" lon="4.59212">
        <ele>905.4</ele>
        <time>2025-04-30T15:25:44Z</time>
      </trkpt>
      <trkpt lat="45.63959" lon="4.59214">
        <ele>905.4</ele>
        <time>2025-04-30T15:25:45Z</time>
      </trkpt>
      <trkpt lat="45.63961" lon="4.59218">
        <ele>905.6</ele>
        <time>2025-04-30T15:25:46Z</time>
      </trkpt>
      <trkpt lat="45.63961" lon="4.59221">
        <ele>905.6</ele>
        <time>2025-04-30T15:25:47Z</time>
      </trkpt>
      <trkpt lat="45.63962" lon="4.59224">
        <ele>905.6</ele>
        <time>2025-04-30T15:25:48Z</time>
      </trkpt>
      <trkpt lat="45.63963" lon="4.59229">
        <ele>905.8</ele>
        <time>2025-04-30T15:25:49Z</time>
      </trkpt>
      <trkpt lat="45.63963" lon="4.59233">
        <ele>905.8</ele>
        <time>2025-04-30T15:25:50Z</time>
      </trkpt>
      <trkpt lat="45.63963" lon="4.59237">
        <ele>906.2</ele>
        <time>2025-04-30T15:25:51Z</time>
      </trkpt>
      <trkpt lat="45.63963" lon="4.59241">
        <ele>906.2</ele>
        <time>2025-04-30T15:25:52Z</time>
      </trkpt>
      <trkpt lat="45.63962" lon="4.59244">
        <ele>906.4</ele>
        <time>2025-04-30T15:25:53Z</time>
      </trkpt>
      <trkpt lat="45.63963" lon="4.59248">
        <ele>906.6</ele>
        <time>2025-04-30T15:25:54Z</time>
      </trkpt>
      <trkpt lat="45.63964" lon="4.59252">
        <ele>907</ele>
        <time>2025-04-30T15:25:55Z</time>
      </trkpt>
      <trkpt lat="45.63965" lon="4.59256">
        <ele>907</ele>
        <time>2025-04-30T15:25:56Z</time>
      </trkpt>
      <trkpt lat="45.63965" lon="4.5926">
        <ele>907.4</ele>
        <time>2025-04-30T15:25:57Z</time>
      </trkpt>
      <trkpt lat="45.63966" lon="4.59262">
        <ele>907.4</ele>
        <time>2025-04-30T15:25:58Z</time>
      </trkpt>
      <trkpt lat="45.63966" lon="4.59267">
        <ele>907.6</ele>
        <time>2025-04-30T15:25:59Z</time>
      </trkpt>
      <trkpt lat="45.63967" lon="4.59271">
        <ele>907.6</ele>
        <time>2025-04-30T15:26:00Z</time>
      </trkpt>
      <trkpt lat="45.63967" lon="4.59275">
        <ele>907.6</ele>
        <time>2025-04-30T15:26:01Z</time>
      </trkpt>
      <trkpt lat="45.63967" lon="4.59278">
        <ele>907.8</ele>
        <time>2025-04-30T15:26:02Z</time>
      </trkpt>
      <trkpt lat="45.63967" lon="4.59281">
        <ele>908</ele>
        <time>2025-04-30T15:26:03Z</time>
      </trkpt>
      <trkpt lat="45.63969" lon="4.59286">
        <ele>908.4</ele>
        <time>2025-04-30T15:26:04Z</time>
      </trkpt>
      <trkpt lat="45.6397" lon="4.59289">
        <ele>908.4</ele>
        <time>2025-04-30T15:26:05Z</time>
      </trkpt>
      <trkpt lat="45.6397" lon="4.59293">
        <ele>908.6</ele>
        <time>2025-04-30T15:26:06Z</time>
      </trkpt>
      <trkpt lat="45.6397" lon="4.59297">
        <ele>908.8</ele>
        <time>2025-04-30T15:26:07Z</time>
      </trkpt>
      <trkpt lat="45.63969" lon="4.59301">
        <ele>909</ele>
        <time>2025-04-30T15:26:08Z</time>
      </trkpt>
      <trkpt lat="45.63971" lon="4.59304">
        <ele>909.4</ele>
        <time>2025-04-30T15:26:09Z</time>
      </trkpt>
      <trkpt lat="45.63972" lon="4.59305">
        <ele>909.6</ele>
        <time>2025-04-30T15:26:10Z</time>
      </trkpt>
      <trkpt lat="45.63973" lon="4.59309">
        <ele>909.8</ele>
        <time>2025-04-30T15:26:11Z</time>
      </trkpt>
      <trkpt lat="45.63973" lon="4.59312">
        <ele>910</ele>
        <time>2025-04-30T15:26:12Z</time>
      </trkpt>
      <trkpt lat="45.63971" lon="4.59314">
        <ele>910.2</ele>
        <time>2025-04-30T15:26:13Z</time>
      </trkpt>
      <trkpt lat="45.63971" lon="4.59317">
        <ele>910.4</ele>
        <time>2025-04-30T15:26:14Z</time>
      </trkpt>
      <trkpt lat="45.63973" lon="4.59321">
        <ele>910.6</ele>
        <time>2025-04-30T15:26:15Z</time>
      </trkpt>
      <trkpt lat="45.63974" lon="4.59325">
        <ele>910.8</ele>
        <time>2025-04-30T15:26:16Z</time>
      </trkpt>
      <trkpt lat="45.63974" lon="4.59328">
        <ele>911</ele>
        <time>2025-04-30T15:26:17Z</time>
      </trkpt>
      <trkpt lat="45.63975" lon="4.5933">
        <ele>911.2</ele>
        <time>2025-04-30T15:26:18Z</time>
      </trkpt>
      <trkpt lat="45.63976" lon="4.59332">
        <ele>911.4</ele>
        <time>2025-04-30T15:26:19Z</time>
      </trkpt>
      <trkpt lat="45.63976" lon="4.59333">
        <ele>911.6</ele>
        <time>2025-04-30T15:26:20Z</time>
      </trkpt>
      <trkpt lat="45.63976" lon="4.59335">
        <ele>911.8</ele>
        <time>2025-04-30T15:26:21Z</time>
      </trkpt>
      <trkpt lat="45.63976" lon="4.59337">
        <ele>912</ele>
        <time>2025-04-30T15:26:22Z</time>
      </trkpt>
      <trkpt lat="45.63977" lon="4.5934">
        <ele>912.2</ele>
        <time>2025-04-30T15:26:23Z</time>
      </trkpt>
      <trkpt lat="45.63976" lon="4.59342">
        <ele>912.4</ele>
        <time>2025-04-30T15:26:24Z</time>
      </trkpt>
      <trkpt lat="45.63976" lon="4.59343">
        <ele>912.6</ele>
        <time>2025-04-30T15:26:25Z</time>
      </trkpt>
      <trkpt lat="45.63976" lon="4.59345">
        <ele>912.8</ele>
        <time>2025-04-30T15:26:26Z</time>
      </trkpt>
      <trkpt lat="45.63975" lon="4.59346">
        <ele>913</ele>
        <time>2025-04-30T15:26:27Z</time>
      </trkpt>
      <trkpt lat="45.63973" lon="4.59349">
        <ele>913</ele>
        <time>2025-04-30T15:26:28Z</time>
      </trkpt>
      <trkpt lat="45.63972" lon="4.59351">
        <ele>913.4</ele>
        <time>2025-04-30T15:26:29Z</time>
      </trkpt>
      <trkpt lat="45.63971" lon="4.59353">
        <ele>913.6</ele>
        <time>2025-04-30T15:26:30Z</time>
      </trkpt>
      <trkpt lat="45.63971" lon="4.59355">
        <ele>913.8</ele>
        <time>2025-04-30T15:26:31Z</time>
      </trkpt>
      <trkpt lat="45.63971" lon="4.59358">
        <ele>914.2</ele>
        <time>2025-04-30T15:26:32Z</time>
      </trkpt>
      <trkpt lat="45.63971" lon="4.5936">
        <ele>914.4</ele>
        <time>2025-04-30T15:26:33Z</time>
      </trkpt>
      <trkpt lat="45.63969" lon="4.59362">
        <ele>914.6</ele>
        <time>2025-04-30T15:26:34Z</time>
      </trkpt>
      <trkpt lat="45.63968" lon="4.59364">
        <ele>914.8</ele>
        <time>2025-04-30T15:26:35Z</time>
      </trkpt>
      <trkpt lat="45.63966" lon="4.59367">
        <ele>915</ele>
        <time>2025-04-30T15:26:36Z</time>
      </trkpt>
      <trkpt lat="45.63965" lon="4.59369">
        <ele>915.4</ele>
        <time>2025-04-30T15:26:37Z</time>
      </trkpt>
      <trkpt lat="45.63965" lon="4.59371">
        <ele>915.6</ele>
        <time>2025-04-30T15:26:38Z</time>
      </trkpt>
      <trkpt lat="45.63964" lon="4.59374">
        <ele>915.8</ele>
        <time>2025-04-30T15:26:39Z</time>
      </trkpt>
      <trkpt lat="45.63962" lon="4.59376">
        <ele>916</ele>
        <time>2025-04-30T15:26:40Z</time>
      </trkpt>
      <trkpt lat="45.63961" lon="4.59378">
        <ele>916.2</ele>
        <time>2025-04-30T15:26:41Z</time>
      </trkpt>
      <trkpt lat="45.63959" lon="4.5938">
        <ele>916.4</ele>
        <time>2025-04-30T15:26:42Z</time>
      </trkpt>
      <trkpt lat="45.63958" lon="4.59382">
        <ele>916.8</ele>
        <time>2025-04-30T15:26:43Z</time>
      </trkpt>
      <trkpt lat="45.63957" lon="4.59385">
        <ele>916.8</ele>
        <time>2025-04-30T15:26:44Z</time>
      </trkpt>
      <trkpt lat="45.63955" lon="4.59387">
        <ele>917</ele>
        <time>2025-04-30T15:26:45Z</time>
      </trkpt>
      <trkpt lat="45.63954" lon="4.59389">
        <ele>917.2</ele>
        <time>2025-04-30T15:26:46Z</time>
      </trkpt>
      <trkpt lat="45.63954" lon="4.5939">
        <ele>917.4</ele>
        <time>2025-04-30T15:26:47Z</time>
      </trkpt>
      <trkpt lat="45.63954" lon="4.5939">
        <ele>917.6</ele>
        <time>2025-04-30T15:26:48Z</time>
      </trkpt>
      <trkpt lat="45.63954" lon="4.59391">
        <ele>917.8</ele>
        <time>2025-04-30T15:26:49Z</time>
      </trkpt>
      <trkpt lat="45.63953" lon="4.59393">
        <ele>918</ele>
        <time>2025-04-30T15:26:50Z</time>
      </trkpt>
      <trkpt lat="45.63953" lon="4.59396">
        <ele>918.2</ele>
        <time>2025-04-30T15:26:51Z</time>
      </trkpt>
      <trkpt lat="45.63953" lon="4.59397">
        <ele>918.4</ele>
        <time>2025-04-30T15:26:52Z</time>
      </trkpt>
      <trkpt lat="45.63954" lon="4.594">
        <ele>918.4</ele>
        <time>2025-04-30T15:26:53Z</time>
      </trkpt>
      <trkpt lat="45.63954" lon="4.59403">
        <ele>918.6</ele>
        <time>2025-04-30T15:26:54Z</time>
      </trkpt>
      <trkpt lat="45.63954" lon="4.59407">
        <ele>918.6</ele>
        <time>2025-04-30T15:26:55Z</time>
      </trkpt>
      <trkpt lat="45.63953" lon="4.59411">
        <ele>918.6</ele>
        <time>2025-04-30T15:26:56Z</time>
      </trkpt>
      <trkpt lat="45.63952" lon="4.59414">
        <ele>918.6</ele>
        <time>2025-04-30T15:26:57Z</time>
      </trkpt>
      <trkpt lat="45.63949" lon="4.59417">
        <ele>918.6</ele>
        <time>2025-04-30T15:26:58Z</time>
      </trkpt>
      <trkpt lat="45.63947" lon="4.59419">
        <ele>918.8</ele>
        <time>2025-04-30T15:26:59Z</time>
      </trkpt>
      <trkpt lat="45.63945" lon="4.59421">
        <ele>919</ele>
        <time>2025-04-30T15:27:00Z</time>
      </trkpt>
      <trkpt lat="45.63942" lon="4.59423">
        <ele>919.2</ele>
        <time>2025-04-30T15:27:01Z</time>
      </trkpt>
      <trkpt lat="45.6394" lon="4.59425">
        <ele>919.2</ele>
        <time>2025-04-30T15:27:02Z</time>
      </trkpt>
      <trkpt lat="45.63938" lon="4.59425">
        <ele>919.6</ele>
        <time>2025-04-30T15:27:03Z</time>
      </trkpt>
      <trkpt lat="45.63936" lon="4.59426">
        <ele>919.6</ele>
        <time>2025-04-30T15:27:04Z</time>
      </trkpt>
      <trkpt lat="45.63934" lon="4.59426">
        <ele>919.6</ele>
        <time>2025-04-30T15:27:05Z</time>
      </trkpt>
      <trkpt lat="45.63932" lon="4.59425">
        <ele>919.8</ele>
        <time>2025-04-30T15:27:06Z</time>
      </trkpt>
      <trkpt lat="45.6393" lon="4.59426">
        <ele>920</ele>
        <time>2025-04-30T15:27:07Z</time>
      </trkpt>
      <trkpt lat="45.63927" lon="4.59427">
        <ele>920.2</ele>
        <time>2025-04-30T15:27:08Z</time>
      </trkpt>
      <trkpt lat="45.63925" lon="4.59428">
        <ele>920.2</ele>
        <time>2025-04-30T15:27:09Z</time>
      </trkpt>
      <trkpt lat="45.63924" lon="4.5943">
        <ele>920.4</ele>
        <time>2025-04-30T15:27:10Z</time>
      </trkpt>
      <trkpt lat="45.63922" lon="4.59431">
        <ele>920.6</ele>
        <time>2025-04-30T15:27:11Z</time>
      </trkpt>
      <trkpt lat="45.6392" lon="4.59432">
        <ele>920.6</ele>
        <time>2025-04-30T15:27:12Z</time>
      </trkpt>
      <trkpt lat="45.63918" lon="4.59432">
        <ele>920.6</ele>
        <time>2025-04-30T15:27:13Z</time>
      </trkpt>
      <trkpt lat="45.63917" lon="4.59433">
        <ele>920.6</ele>
        <time>2025-04-30T15:27:14Z</time>
      </trkpt>
      <trkpt lat="45.63915" lon="4.59433">
        <ele>920.6</ele>
        <time>2025-04-30T15:27:15Z</time>
      </trkpt>
      <trkpt lat="45.63913" lon="4.59433">
        <ele>920.6</ele>
        <time>2025-04-30T15:27:16Z</time>
      </trkpt>
      <trkpt lat="45.63911" lon="4.59434">
        <ele>920.6</ele>
        <time>2025-04-30T15:27:17Z</time>
      </trkpt>
      <trkpt lat="45.6391" lon="4.59435">
        <ele>920.6</ele>
        <time>2025-04-30T15:27:18Z</time>
      </trkpt>
      <trkpt lat="45.63908" lon="4.59436">
        <ele>920.6</ele>
        <time>2025-04-30T15:27:19Z</time>
      </trkpt>
      <trkpt lat="45.63906" lon="4.59437">
        <ele>920.4</ele>
        <time>2025-04-30T15:27:20Z</time>
      </trkpt>
      <trkpt lat="45.63905" lon="4.59438">
        <ele>920.4</ele>
        <time>2025-04-30T15:27:21Z</time>
      </trkpt>
      <trkpt lat="45.63905" lon="4.59438">
        <ele>920.4</ele>
        <time>2025-04-30T15:27:22Z</time>
      </trkpt>
      <trkpt lat="45.63905" lon="4.59438">
        <ele>920.2</ele>
        <time>2025-04-30T15:27:23Z</time>
      </trkpt>
      <trkpt lat="45.63905" lon="4.59438">
        <ele>920.2</ele>
        <time>2025-04-30T15:27:24Z</time>
      </trkpt>
      <trkpt lat="45.63905" lon="4.59438">
        <ele>920.2</ele>
        <time>2025-04-30T15:27:25Z</time>
      </trkpt>
      <trkpt lat="45.63905" lon="4.59438">
        <ele>920.2</ele>
        <time>2025-04-30T15:27:26Z</time>
      </trkpt>
      <trkpt lat="45.63905" lon="4.59438">
        <ele>920.2</ele>
        <time>2025-04-30T15:27:27Z</time>
      </trkpt>
      <trkpt lat="45.63905" lon="4.59438">
        <ele>920.2</ele>
        <time>2025-04-30T15:27:28Z</time>
      </trkpt>
      <trkpt lat="45.63905" lon="4.59438">
        <ele>920.2</ele>
        <time>2025-04-30T15:27:29Z</time>
      </trkpt>
      <trkpt lat="45.63905" lon="4.59438">
        <ele>920.2</ele>
        <time>2025-04-30T15:27:30Z</time>
      </trkpt>
      <trkpt lat="45.63905" lon="4.59438">
        <ele>920.2</ele>
        <time>2025-04-30T15:27:31Z</time>
      </trkpt>
      <trkpt lat="45.63905" lon="4.59438">
        <ele>920.2</ele>
        <time>2025-04-30T15:27:32Z</time>
      </trkpt>
      <trkpt lat="45.63905" lon="4.59438">
        <ele>920.2</ele>
        <time>2025-04-30T15:27:33Z</time>
      </trkpt>
      <trkpt lat="45.63905" lon="4.59438">
        <ele>920.2</ele>
        <time>2025-04-30T15:27:34Z</time>
      </trkpt>
      <trkpt lat="45.63905" lon="4.59438">
        <ele>920.2</ele>
        <time>2025-04-30T15:27:35Z</time>
      </trkpt>
      <trkpt lat="45.63905" lon="4.59438">
        <ele>920.2</ele>
        <time>2025-04-30T15:27:36Z</time>
      </trkpt>
      <trkpt lat="45.63905" lon="4.59438">
        <ele>920.2</ele>
        <time>2025-04-30T15:27:37Z</time>
      </trkpt>
      <trkpt lat="45.63904" lon="4.59439">
        <ele>920</ele>
        <time>2025-04-30T15:27:38Z</time>
      </trkpt>
      <trkpt lat="45.63903" lon="4.5944">
        <ele>920</ele>
        <time>2025-04-30T15:27:39Z</time>
      </trkpt>
      <trkpt lat="45.63901" lon="4.59443">
        <ele>920</ele>
        <time>2025-04-30T15:27:40Z</time>
      </trkpt>
      <trkpt lat="45.63898" lon="4.59448">
        <ele>919.8</ele>
        <time>2025-04-30T15:27:41Z</time>
      </trkpt>
      <trkpt lat="45.63895" lon="4.59452">
        <ele>919.6</ele>
        <time>2025-04-30T15:27:42Z</time>
      </trkpt>
      <trkpt lat="45.63891" lon="4.59455">
        <ele>919.2</ele>
        <time>2025-04-30T15:27:43Z</time>
      </trkpt>
      <trkpt lat="45.63888" lon="4.59457">
        <ele>918.4</ele>
        <time>2025-04-30T15:27:44Z</time>
      </trkpt>
      <trkpt lat="45.63884" lon="4.59458">
        <ele>917.8</ele>
        <time>2025-04-30T15:27:45Z</time>
      </trkpt>
      <trkpt lat="45.63879" lon="4.5946">
        <ele>917.4</ele>
        <time>2025-04-30T15:27:46Z</time>
      </trkpt>
      <trkpt lat="45.63874" lon="4.59461">
        <ele>916.8</ele>
        <time>2025-04-30T15:27:47Z</time>
      </trkpt>
      <trkpt lat="45.63868" lon="4.59461">
        <ele>916.4</ele>
        <time>2025-04-30T15:27:48Z</time>
      </trkpt>
      <trkpt lat="45.63863" lon="4.59461">
        <ele>915.6</ele>
        <time>2025-04-30T15:27:49Z</time>
      </trkpt>
      <trkpt lat="45.63857" lon="4.59461">
        <ele>915</ele>
        <time>2025-04-30T15:27:50Z</time>
      </trkpt>
      <trkpt lat="45.63852" lon="4.59461">
        <ele>914.4</ele>
        <time>2025-04-30T15:27:51Z</time>
      </trkpt>
      <trkpt lat="45.63848" lon="4.5946">
        <ele>914.2</ele>
        <time>2025-04-30T15:27:52Z</time>
      </trkpt>
      <trkpt lat="45.63842" lon="4.5946">
        <ele>914.2</ele>
        <time>2025-04-30T15:27:53Z</time>
      </trkpt>
      <trkpt lat="45.63836" lon="4.59461">
        <ele>914.2</ele>
        <time>2025-04-30T15:27:54Z</time>
      </trkpt>
      <trkpt lat="45.63832" lon="4.5946">
        <ele>914.6</ele>
        <time>2025-04-30T15:27:55Z</time>
      </trkpt>
      <trkpt lat="45.63827" lon="4.59459">
        <ele>915.4</ele>
        <time>2025-04-30T15:27:56Z</time>
      </trkpt>
      <trkpt lat="45.63823" lon="4.59458">
        <ele>915.6</ele>
        <time>2025-04-30T15:27:57Z</time>
      </trkpt>
      <trkpt lat="45.63819" lon="4.59458">
        <ele>916.4</ele>
        <time>2025-04-30T15:27:58Z</time>
      </trkpt>
      <trkpt lat="45.63815" lon="4.59458">
        <ele>916.8</ele>
        <time>2025-04-30T15:27:59Z</time>
      </trkpt>
      <trkpt lat="45.63812" lon="4.59457">
        <ele>917.6</ele>
        <time>2025-04-30T15:28:00Z</time>
      </trkpt>
      <trkpt lat="45.63809" lon="4.59455">
        <ele>918.2</ele>
        <time>2025-04-30T15:28:01Z</time>
      </trkpt>
      <trkpt lat="45.63806" lon="4.59454">
        <ele>918.4</ele>
        <time>2025-04-30T15:28:02Z</time>
      </trkpt>
      <trkpt lat="45.63804" lon="4.59453">
        <ele>918.8</ele>
        <time>2025-04-30T15:28:03Z</time>
      </trkpt>
      <trkpt lat="45.63802" lon="4.59453">
        <ele>919.4</ele>
        <time>2025-04-30T15:28:04Z</time>
      </trkpt>
      <trkpt lat="45.63801" lon="4.59452">
        <ele>919.8</ele>
        <time>2025-04-30T15:28:05Z</time>
      </trkpt>
      <trkpt lat="45.63801" lon="4.59452">
        <ele>920</ele>
        <time>2025-04-30T15:28:06Z</time>
      </trkpt>
      <trkpt lat="45.63801" lon="4.59452">
        <ele>920.2</ele>
        <time>2025-04-30T15:28:07Z</time>
      </trkpt>
      <trkpt lat="45.63801" lon="4.59452">
        <ele>920.6</ele>
        <time>2025-04-30T15:28:08Z</time>
      </trkpt>
      <trkpt lat="45.63801" lon="4.59452">
        <ele>920.8</ele>
        <time>2025-04-30T15:28:09Z</time>
      </trkpt>
      <trkpt lat="45.63801" lon="4.59452">
        <ele>920.8</ele>
        <time>2025-04-30T15:28:10Z</time>
      </trkpt>
      <trkpt lat="45.63801" lon="4.59452">
        <ele>920.8</ele>
        <time>2025-04-30T15:28:11Z</time>
      </trkpt>
      <trkpt lat="45.63801" lon="4.59452">
        <ele>920.8</ele>
        <time>2025-04-30T15:28:12Z</time>
      </trkpt>
      <trkpt lat="45.63801" lon="4.59452">
        <ele>920.8</ele>
        <time>2025-04-30T15:28:13Z</time>
      </trkpt>
      <trkpt lat="45.63801" lon="4.59452">
        <ele>920.8</ele>
        <time>2025-04-30T15:28:14Z</time>
      </trkpt>
      <trkpt lat="45.63801" lon="4.59452">
        <ele>920.8</ele>
        <time>2025-04-30T15:28:15Z</time>
      </trkpt>
      <trkpt lat="45.63801" lon="4.59452">
        <ele>920.8</ele>
        <time>2025-04-30T15:28:16Z</time>
      </trkpt>
      <trkpt lat="45.63801" lon="4.59452">
        <ele>920.8</ele>
        <time>2025-04-30T15:28:17Z</time>
      </trkpt>
      <trkpt lat="45.63801" lon="4.59452">
        <ele>920.8</ele>
        <time>2025-04-30T15:28:18Z</time>
      </trkpt>
      <trkpt lat="45.63801" lon="4.59452">
        <ele>920.8</ele>
        <time>2025-04-30T15:28:19Z</time>
      </trkpt>
      <trkpt lat="45.63801" lon="4.59452">
        <ele>920.8</ele>
        <time>2025-04-30T15:28:20Z</time>
      </trkpt>
      <trkpt lat="45.63801" lon="4.59452">
        <ele>920.8</ele>
        <time>2025-04-30T15:28:21Z</time>
      </trkpt>
      <trkpt lat="45.63801" lon="4.59452">
        <ele>920.8</ele>
        <time>2025-04-30T15:28:22Z</time>
      </trkpt>
      <trkpt lat="45.63801" lon="4.59452">
        <ele>920.8</ele>
        <time>2025-04-30T15:28:23Z</time>
      </trkpt>
      <trkpt lat="45.63801" lon="4.59453">
        <ele>920.8</ele>
        <time>2025-04-30T15:28:24Z</time>
      </trkpt>
      <trkpt lat="45.63801" lon="4.59453">
        <ele>920.8</ele>
        <time>2025-04-30T15:28:25Z</time>
      </trkpt>
      <trkpt lat="45.63801" lon="4.59453">
        <ele>920.8</ele>
        <time>2025-04-30T15:28:26Z</time>
      </trkpt>
      <trkpt lat="45.63802" lon="4.59452">
        <ele>920.8</ele>
        <time>2025-04-30T15:28:27Z</time>
      </trkpt>
      <trkpt lat="45.63802" lon="4.59452">
        <ele>920.6</ele>
        <time>2025-04-30T15:28:28Z</time>
      </trkpt>
      <trkpt lat="45.63802" lon="4.59452">
        <ele>920.4</ele>
        <time>2025-04-30T15:28:29Z</time>
      </trkpt>
      <trkpt lat="45.63803" lon="4.5945">
        <ele>920.4</ele>
        <time>2025-04-30T15:28:30Z</time>
      </trkpt>
      <trkpt lat="45.63803" lon="4.59448">
        <ele>920.4</ele>
        <time>2025-04-30T15:28:31Z</time>
      </trkpt>
      <trkpt lat="45.63802" lon="4.59446">
        <ele>920.4</ele>
        <time>2025-04-30T15:28:32Z</time>
      </trkpt>
      <trkpt lat="45.63801" lon="4.59444">
        <ele>920.4</ele>
        <time>2025-04-30T15:28:33Z</time>
      </trkpt>
      <trkpt lat="45.63799" lon="4.59442">
        <ele>920.4</ele>
        <time>2025-04-30T15:28:34Z</time>
      </trkpt>
      <trkpt lat="45.63797" lon="4.5944">
        <ele>920.6</ele>
        <time>2025-04-30T15:28:35Z</time>
      </trkpt>
      <trkpt lat="45.63796" lon="4.59438">
        <ele>920.6</ele>
        <time>2025-04-30T15:28:36Z</time>
      </trkpt>
      <trkpt lat="45.63795" lon="4.59436">
        <ele>921</ele>
        <time>2025-04-30T15:28:37Z</time>
      </trkpt>
      <trkpt lat="45.63794" lon="4.59433">
        <ele>921</ele>
        <time>2025-04-30T15:28:38Z</time>
      </trkpt>
      <trkpt lat="45.63792" lon="4.59431">
        <ele>921.2</ele>
        <time>2025-04-30T15:28:39Z</time>
      </trkpt>
      <trkpt lat="45.63791" lon="4.59429">
        <ele>921.2</ele>
        <time>2025-04-30T15:28:40Z</time>
      </trkpt>
      <trkpt lat="45.63789" lon="4.59428">
        <ele>921.8</ele>
        <time>2025-04-30T15:28:41Z</time>
      </trkpt>
      <trkpt lat="45.63787" lon="4.59425">
        <ele>921.8</ele>
        <time>2025-04-30T15:28:42Z</time>
      </trkpt>
      <trkpt lat="45.63786" lon="4.59423">
        <ele>922.2</ele>
        <time>2025-04-30T15:28:43Z</time>
      </trkpt>
      <trkpt lat="45.63784" lon="4.59422">
        <ele>922.4</ele>
        <time>2025-04-30T15:28:44Z</time>
      </trkpt>
      <trkpt lat="45.63783" lon="4.59419">
        <ele>922.6</ele>
        <time>2025-04-30T15:28:45Z</time>
      </trkpt>
      <trkpt lat="45.63781" lon="4.59416">
        <ele>922.8</ele>
        <time>2025-04-30T15:28:46Z</time>
      </trkpt>
      <trkpt lat="45.6378" lon="4.59414">
        <ele>923.2</ele>
        <time>2025-04-30T15:28:47Z</time>
      </trkpt>
      <trkpt lat="45.63778" lon="4.59412">
        <ele>923.4</ele>
        <time>2025-04-30T15:28:48Z</time>
      </trkpt>
      <trkpt lat="45.63777" lon="4.59411">
        <ele>923.4</ele>
        <time>2025-04-30T15:28:49Z</time>
      </trkpt>
      <trkpt lat="45.63776" lon="4.59408">
        <ele>923.6</ele>
        <time>2025-04-30T15:28:50Z</time>
      </trkpt>
      <trkpt lat="45.63774" lon="4.59405">
        <ele>923.8</ele>
        <time>2025-04-30T15:28:51Z</time>
      </trkpt>
      <trkpt lat="45.63773" lon="4.59404">
        <ele>924</ele>
        <time>2025-04-30T15:28:52Z</time>
      </trkpt>
      <trkpt lat="45.63771" lon="4.59402">
        <ele>924.2</ele>
        <time>2025-04-30T15:28:53Z</time>
      </trkpt>
      <trkpt lat="45.6377" lon="4.59402">
        <ele>924.4</ele>
        <time>2025-04-30T15:28:54Z</time>
      </trkpt>
      <trkpt lat="45.63769" lon="4.59401">
        <ele>924.6</ele>
        <time>2025-04-30T15:28:55Z</time>
      </trkpt>
      <trkpt lat="45.63768" lon="4.59401">
        <ele>924.8</ele>
        <time>2025-04-30T15:28:56Z</time>
      </trkpt>
      <trkpt lat="45.63766" lon="4.594">
        <ele>924.8</ele>
        <time>2025-04-30T15:28:57Z</time>
      </trkpt>
      <trkpt lat="45.63764" lon="4.594">
        <ele>924.8</ele>
        <time>2025-04-30T15:28:58Z</time>
      </trkpt>
      <trkpt lat="45.63761" lon="4.594">
        <ele>924.8</ele>
        <time>2025-04-30T15:28:59Z</time>
      </trkpt>
      <trkpt lat="45.63758" lon="4.59399">
        <ele>924.8</ele>
        <time>2025-04-30T15:29:00Z</time>
      </trkpt>
      <trkpt lat="45.63756" lon="4.59399">
        <ele>924.6</ele>
        <time>2025-04-30T15:29:01Z</time>
      </trkpt>
      <trkpt lat="45.63754" lon="4.59398">
        <ele>924.6</ele>
        <time>2025-04-30T15:29:02Z</time>
      </trkpt>
      <trkpt lat="45.63752" lon="4.59398">
        <ele>924.6</ele>
        <time>2025-04-30T15:29:03Z</time>
      </trkpt>
      <trkpt lat="45.63751" lon="4.59398">
        <ele>924.6</ele>
        <time>2025-04-30T15:29:04Z</time>
      </trkpt>
      <trkpt lat="45.63749" lon="4.59399">
        <ele>924.6</ele>
        <time>2025-04-30T15:29:05Z</time>
      </trkpt>
      <trkpt lat="45.63748" lon="4.59399">
        <ele>924.6</ele>
        <time>2025-04-30T15:29:06Z</time>
      </trkpt>
      <trkpt lat="45.63748" lon="4.59399">
        <ele>924.6</ele>
        <time>2025-04-30T15:29:07Z</time>
      </trkpt>
      <trkpt lat="45.63748" lon="4.59399">
        <ele>924.6</ele>
        <time>2025-04-30T15:29:08Z</time>
      </trkpt>
      <trkpt lat="45.63748" lon="4.59399">
        <ele>924.6</ele>
        <time>2025-04-30T15:29:09Z</time>
      </trkpt>
      <trkpt lat="45.63748" lon="4.59399">
        <ele>924.6</ele>
        <time>2025-04-30T15:29:10Z</time>
      </trkpt>
      <trkpt lat="45.63748" lon="4.59399">
        <ele>924.6</ele>
        <time>2025-04-30T15:29:11Z</time>
      </trkpt>
      <trkpt lat="45.63748" lon="4.59399">
        <ele>924.6</ele>
        <time>2025-04-30T15:29:12Z</time>
      </trkpt>
      <trkpt lat="45.63748" lon="4.59399">
        <ele>924.6</ele>
        <time>2025-04-30T15:29:13Z</time>
      </trkpt>
      <trkpt lat="45.63748" lon="4.59399">
        <ele>924.6</ele>
        <time>2025-04-30T15:29:14Z</time>
      </trkpt>
      <trkpt lat="45.63748" lon="4.59399">
        <ele>924.6</ele>
        <time>2025-04-30T15:29:15Z</time>
      </trkpt>
      <trkpt lat="45.63748" lon="4.59399">
        <ele>924.4</ele>
        <time>2025-04-30T15:29:16Z</time>
      </trkpt>
      <trkpt lat="45.63748" lon="4.59399">
        <ele>924.4</ele>
        <time>2025-04-30T15:29:17Z</time>
      </trkpt>
      <trkpt lat="45.63748" lon="4.59399">
        <ele>924.2</ele>
        <time>2025-04-30T15:29:18Z</time>
      </trkpt>
      <trkpt lat="45.63748" lon="4.59399">
        <ele>924.2</ele>
        <time>2025-04-30T15:29:19Z</time>
      </trkpt>
      <trkpt lat="45.63748" lon="4.59399">
        <ele>924.2</ele>
        <time>2025-04-30T15:29:20Z</time>
      </trkpt>
      <trkpt lat="45.63748" lon="4.59399">
        <ele>924.2</ele>
        <time>2025-04-30T15:29:21Z</time>
      </trkpt>
      <trkpt lat="45.63748" lon="4.59399">
        <ele>924.2</ele>
        <time>2025-04-30T15:29:22Z</time>
      </trkpt>
      <trkpt lat="45.63748" lon="4.59399">
        <ele>924</ele>
        <time>2025-04-30T15:29:23Z</time>
      </trkpt>
      <trkpt lat="45.63748" lon="4.59399">
        <ele>924</ele>
        <time>2025-04-30T15:29:24Z</time>
      </trkpt>
      <trkpt lat="45.63748" lon="4.59398">
        <ele>924</ele>
        <time>2025-04-30T15:29:25Z</time>
      </trkpt>
      <trkpt lat="45.63748" lon="4.59398">
        <ele>924</ele>
        <time>2025-04-30T15:29:26Z</time>
      </trkpt>
      <trkpt lat="45.63748" lon="4.59398">
        <ele>924</ele>
        <time>2025-04-30T15:29:27Z</time>
      </trkpt>
      <trkpt lat="45.63748" lon="4.59398">
        <ele>924</ele>
        <time>2025-04-30T15:29:28Z</time>
      </trkpt>
      <trkpt lat="45.63748" lon="4.59398">
        <ele>924</ele>
        <time>2025-04-30T15:29:29Z</time>
      </trkpt>
      <trkpt lat="45.63748" lon="4.59398">
        <ele>924</ele>
        <time>2025-04-30T15:29:30Z</time>
      </trkpt>
      <trkpt lat="45.63748" lon="4.59398">
        <ele>924</ele>
        <time>2025-04-30T15:29:31Z</time>
      </trkpt>
      <trkpt lat="45.63748" lon="4.59398">
        <ele>924</ele>
        <time>2025-04-30T15:29:32Z</time>
      </trkpt>
      <trkpt lat="45.63748" lon="4.59398">
        <ele>924</ele>
        <time>2025-04-30T15:29:33Z</time>
      </trkpt>
      <trkpt lat="45.63748" lon="4.59398">
        <ele>924</ele>
        <time>2025-04-30T15:29:34Z</time>
      </trkpt>
      <trkpt lat="45.63748" lon="4.59398">
        <ele>924</ele>
        <time>2025-04-30T15:29:35Z</time>
      </trkpt>
      <trkpt lat="45.63748" lon="4.59398">
        <ele>924</ele>
        <time>2025-04-30T15:29:36Z</time>
      </trkpt>
      <trkpt lat="45.63748" lon="4.59398">
        <ele>924</ele>
        <time>2025-04-30T15:29:37Z</time>
      </trkpt>
      <trkpt lat="45.63748" lon="4.59398">
        <ele>924</ele>
        <time>2025-04-30T15:29:38Z</time>
      </trkpt>
      <trkpt lat="45.63748" lon="4.59398">
        <ele>924</ele>
        <time>2025-04-30T15:29:39Z</time>
      </trkpt>
      <trkpt lat="45.63748" lon="4.59398">
        <ele>924</ele>
        <time>2025-04-30T15:29:40Z</time>
      </trkpt>
      <trkpt lat="45.63748" lon="4.59398">
        <ele>924</ele>
        <time>2025-04-30T15:29:41Z</time>
      </trkpt>
      <trkpt lat="45.63748" lon="4.59398">
        <ele>924</ele>
        <time>2025-04-30T15:29:42Z</time>
      </trkpt>
      <trkpt lat="45.63748" lon="4.59398">
        <ele>924</ele>
        <time>2025-04-30T15:29:43Z</time>
      </trkpt>
      <trkpt lat="45.63748" lon="4.59398">
        <ele>924</ele>
        <time>2025-04-30T15:29:44Z</time>
      </trkpt>
      <trkpt lat="45.63748" lon="4.59398">
        <ele>924</ele>
        <time>2025-04-30T15:29:45Z</time>
      </trkpt>
      <trkpt lat="45.63748" lon="4.59398">
        <ele>924</ele>
        <time>2025-04-30T15:29:46Z</time>
      </trkpt>
      <trkpt lat="45.63748" lon="4.59398">
        <ele>924</ele>
        <time>2025-04-30T15:29:47Z</time>
      </trkpt>
      <trkpt lat="45.63748" lon="4.59398">
        <ele>924</ele>
        <time>2025-04-30T15:29:48Z</time>
      </trkpt>
      <trkpt lat="45.63748" lon="4.59398">
        <ele>924</ele>
        <time>2025-04-30T15:29:49Z</time>
      </trkpt>
      <trkpt lat="45.63748" lon="4.59398">
        <ele>924</ele>
        <time>2025-04-30T15:29:50Z</time>
      </trkpt>
      <trkpt lat="45.63748" lon="4.59398">
        <ele>924</ele>
        <time>2025-04-30T15:29:51Z</time>
      </trkpt>
      <trkpt lat="45.63748" lon="4.59398">
        <ele>924</ele>
        <time>2025-04-30T15:29:52Z</time>
      </trkpt>
      <trkpt lat="45.63748" lon="4.59398">
        <ele>924</ele>
        <time>2025-04-30T15:29:53Z</time>
      </trkpt>
      <trkpt lat="45.63748" lon="4.59398">
        <ele>924</ele>
        <time>2025-04-30T15:29:54Z</time>
      </trkpt>
      <trkpt lat="45.63748" lon="4.59398">
        <ele>924</ele>
        <time>2025-04-30T15:29:55Z</time>
      </trkpt>
      <trkpt lat="45.63748" lon="4.59398">
        <ele>924</ele>
        <time>2025-04-30T15:29:56Z</time>
      </trkpt>
      <trkpt lat="45.63748" lon="4.59398">
        <ele>924</ele>
        <time>2025-04-30T15:29:57Z</time>
      </trkpt>
      <trkpt lat="45.63748" lon="4.59398">
        <ele>924</ele>
        <time>2025-04-30T15:29:58Z</time>
      </trkpt>
      <trkpt lat="45.63748" lon="4.59398">
        <ele>924</ele>
        <time>2025-04-30T15:29:59Z</time>
      </trkpt>
      <trkpt lat="45.63748" lon="4.59398">
        <ele>924</ele>
        <time>2025-04-30T15:30:00Z</time>
      </trkpt>
      <trkpt lat="45.63748" lon="4.59398">
        <ele>924</ele>
        <time>2025-04-30T15:30:01Z</time>
      </trkpt>
      <trkpt lat="45.63748" lon="4.59398">
        <ele>924</ele>
        <time>2025-04-30T15:30:02Z</time>
      </trkpt>
      <trkpt lat="45.63748" lon="4.59398">
        <ele>924</ele>
        <time>2025-04-30T15:30:03Z</time>
      </trkpt>
      <trkpt lat="45.63748" lon="4.59398">
        <ele>924</ele>
        <time>2025-04-30T15:30:04Z</time>
      </trkpt>
      <trkpt lat="45.63748" lon="4.59398">
        <ele>924</ele>
        <time>2025-04-30T15:30:05Z</time>
      </trkpt>
      <trkpt lat="45.63748" lon="4.59398">
        <ele>923.8</ele>
        <time>2025-04-30T15:30:06Z</time>
      </trkpt>
      <trkpt lat="45.63748" lon="4.59398">
        <ele>923.8</ele>
        <time>2025-04-30T15:30:07Z</time>
      </trkpt>
      <trkpt lat="45.63748" lon="4.59398">
        <ele>923.8</ele>
        <time>2025-04-30T15:30:08Z</time>
      </trkpt>
      <trkpt lat="45.63748" lon="4.59398">
        <ele>923.8</ele>
        <time>2025-04-30T15:30:09Z</time>
      </trkpt>
      <trkpt lat="45.63748" lon="4.59398">
        <ele>923.8</ele>
        <time>2025-04-30T15:30:10Z</time>
      </trkpt>
      <trkpt lat="45.63748" lon="4.59398">
        <ele>923.8</ele>
        <time>2025-04-30T15:30:11Z</time>
      </trkpt>
      <trkpt lat="45.63748" lon="4.59398">
        <ele>923.8</ele>
        <time>2025-04-30T15:30:12Z</time>
      </trkpt>
      <trkpt lat="45.63748" lon="4.59398">
        <ele>923.8</ele>
        <time>2025-04-30T15:30:13Z</time>
      </trkpt>
      <trkpt lat="45.63748" lon="4.59398">
        <ele>923.8</ele>
        <time>2025-04-30T15:30:14Z</time>
      </trkpt>
      <trkpt lat="45.63748" lon="4.59398">
        <ele>923.8</ele>
        <time>2025-04-30T15:30:15Z</time>
      </trkpt>
      <trkpt lat="45.63748" lon="4.59398">
        <ele>923.8</ele>
        <time>2025-04-30T15:30:16Z</time>
      </trkpt>
      <trkpt lat="45.63748" lon="4.59398">
        <ele>923.8</ele>
        <time>2025-04-30T15:30:17Z</time>
      </trkpt>
      <trkpt lat="45.63748" lon="4.59398">
        <ele>923.8</ele>
        <time>2025-04-30T15:30:18Z</time>
      </trkpt>
      <trkpt lat="45.63748" lon="4.59398">
        <ele>923.8</ele>
        <time>2025-04-30T15:30:19Z</time>
      </trkpt>
      <trkpt lat="45.63748" lon="4.59398">
        <ele>923.8</ele>
        <time>2025-04-30T15:30:20Z</time>
      </trkpt>
      <trkpt lat="45.63748" lon="4.59398">
        <ele>923.8</ele>
        <time>2025-04-30T15:30:21Z</time>
      </trkpt>
      <trkpt lat="45.63748" lon="4.59398">
        <ele>923.8</ele>
        <time>2025-04-30T15:30:22Z</time>
      </trkpt>
      <trkpt lat="45.63748" lon="4.59398">
        <ele>923.8</ele>
        <time>2025-04-30T15:30:23Z</time>
      </trkpt>
      <trkpt lat="45.63748" lon="4.59398">
        <ele>923.8</ele>
        <time>2025-04-30T15:30:24Z</time>
      </trkpt>
      <trkpt lat="45.63748" lon="4.59398">
        <ele>923.8</ele>
        <time>2025-04-30T15:30:25Z</time>
      </trkpt>
      <trkpt lat="45.63748" lon="4.59398">
        <ele>923.8</ele>
        <time>2025-04-30T15:30:26Z</time>
      </trkpt>
      <trkpt lat="45.63748" lon="4.59398">
        <ele>923.8</ele>
        <time>2025-04-30T15:30:27Z</time>
      </trkpt>
      <trkpt lat="45.63748" lon="4.59398">
        <ele>923.8</ele>
        <time>2025-04-30T15:30:28Z</time>
      </trkpt>
      <trkpt lat="45.63748" lon="4.59398">
        <ele>923.8</ele>
        <time>2025-04-30T15:30:29Z</time>
      </trkpt>
      <trkpt lat="45.63748" lon="4.59398">
        <ele>923.8</ele>
        <time>2025-04-30T15:30:30Z</time>
      </trkpt>
      <trkpt lat="45.63748" lon="4.59398">
        <ele>923.8</ele>
        <time>2025-04-30T15:30:31Z</time>
      </trkpt>
      <trkpt lat="45.63748" lon="4.59398">
        <ele>923.8</ele>
        <time>2025-04-30T15:30:32Z</time>
      </trkpt>
      <trkpt lat="45.63748" lon="4.59398">
        <ele>923.8</ele>
        <time>2025-04-30T15:30:33Z</time>
      </trkpt>
      <trkpt lat="45.63748" lon="4.59398">
        <ele>923.8</ele>
        <time>2025-04-30T15:30:34Z</time>
      </trkpt>
      <trkpt lat="45.63748" lon="4.59398">
        <ele>923.8</ele>
        <time>2025-04-30T15:30:35Z</time>
      </trkpt>
      <trkpt lat="45.63748" lon="4.59398">
        <ele>923.8</ele>
        <time>2025-04-30T15:30:36Z</time>
      </trkpt>
      <trkpt lat="45.63748" lon="4.59398">
        <ele>923.8</ele>
        <time>2025-04-30T15:30:37Z</time>
      </trkpt>
      <trkpt lat="45.63748" lon="4.59398">
        <ele>923.8</ele>
        <time>2025-04-30T15:30:38Z</time>
      </trkpt>
      <trkpt lat="45.63748" lon="4.59398">
        <ele>923.8</ele>
        <time>2025-04-30T15:30:39Z</time>
      </trkpt>
      <trkpt lat="45.63748" lon="4.59398">
        <ele>923.8</ele>
        <time>2025-04-30T15:30:40Z</time>
      </trkpt>
      <trkpt lat="45.63748" lon="4.59398">
        <ele>923.8</ele>
        <time>2025-04-30T15:30:41Z</time>
      </trkpt>
      <trkpt lat="45.63748" lon="4.59398">
        <ele>923.8</ele>
        <time>2025-04-30T15:30:42Z</time>
      </trkpt>
      <trkpt lat="45.63748" lon="4.59398">
        <ele>923.8</ele>
        <time>2025-04-30T15:30:43Z</time>
      </trkpt>
      <trkpt lat="45.63748" lon="4.59398">
        <ele>923.8</ele>
        <time>2025-04-30T15:30:44Z</time>
      </trkpt>
      <trkpt lat="45.63748" lon="4.59398">
        <ele>923.8</ele>
        <time>2025-04-30T15:30:45Z</time>
      </trkpt>
      <trkpt lat="45.63748" lon="4.59398">
        <ele>923.8</ele>
        <time>2025-04-30T15:30:46Z</time>
      </trkpt>
      <trkpt lat="45.63748" lon="4.59398">
        <ele>923.8</ele>
        <time>2025-04-30T15:30:47Z</time>
      </trkpt>
      <trkpt lat="45.63748" lon="4.59398">
        <ele>923.8</ele>
        <time>2025-04-30T15:30:48Z</time>
      </trkpt>
      <trkpt lat="45.63748" lon="4.59398">
        <ele>923.8</ele>
        <time>2025-04-30T15:30:49Z</time>
      </trkpt>
      <trkpt lat="45.63748" lon="4.59398">
        <ele>923.8</ele>
        <time>2025-04-30T15:30:50Z</time>
      </trkpt>
      <trkpt lat="45.63748" lon="4.59398">
        <ele>923.8</ele>
        <time>2025-04-30T15:30:51Z</time>
      </trkpt>
      <trkpt lat="45.63748" lon="4.59398">
        <ele>923.8</ele>
        <time>2025-04-30T15:30:52Z</time>
      </trkpt>
      <trkpt lat="45.63748" lon="4.59398">
        <ele>923.8</ele>
        <time>2025-04-30T15:30:53Z</time>
      </trkpt>
      <trkpt lat="45.63748" lon="4.59398">
        <ele>923.8</ele>
        <time>2025-04-30T15:30:54Z</time>
      </trkpt>
      <trkpt lat="45.63748" lon="4.59398">
        <ele>923.8</ele>
        <time>2025-04-30T15:30:55Z</time>
      </trkpt>
      <trkpt lat="45.63748" lon="4.59398">
        <ele>923.8</ele>
        <time>2025-04-30T15:30:56Z</time>
      </trkpt>
      <trkpt lat="45.63748" lon="4.59398">
        <ele>923.8</ele>
        <time>2025-04-30T15:30:57Z</time>
      </trkpt>
      <trkpt lat="45.63748" lon="4.59398">
        <ele>923.8</ele>
        <time>2025-04-30T15:30:58Z</time>
      </trkpt>
      <trkpt lat="45.63748" lon="4.59398">
        <ele>923.8</ele>
        <time>2025-04-30T15:30:59Z</time>
      </trkpt>
      <trkpt lat="45.63748" lon="4.59398">
        <ele>923.8</ele>
        <time>2025-04-30T15:31:00Z</time>
      </trkpt>
      <trkpt lat="45.63748" lon="4.59398">
        <ele>923.8</ele>
        <time>2025-04-30T15:31:01Z</time>
      </trkpt>
      <trkpt lat="45.63748" lon="4.59398">
        <ele>923.8</ele>
        <time>2025-04-30T15:31:02Z</time>
      </trkpt>
      <trkpt lat="45.63748" lon="4.59398">
        <ele>923.8</ele>
        <time>2025-04-30T15:31:03Z</time>
      </trkpt>
      <trkpt lat="45.63748" lon="4.59398">
        <ele>923.8</ele>
        <time>2025-04-30T15:31:04Z</time>
      </trkpt>
      <trkpt lat="45.63748" lon="4.59398">
        <ele>923.8</ele>
        <time>2025-04-30T15:31:05Z</time>
      </trkpt>
      <trkpt lat="45.63748" lon="4.59398">
        <ele>923.8</ele>
        <time>2025-04-30T15:31:06Z</time>
      </trkpt>
      <trkpt lat="45.63748" lon="4.59398">
        <ele>923.8</ele>
        <time>2025-04-30T15:31:07Z</time>
      </trkpt>
      <trkpt lat="45.63748" lon="4.59398">
        <ele>923.8</ele>
        <time>2025-04-30T15:31:08Z</time>
      </trkpt>
      <trkpt lat="45.63748" lon="4.59398">
        <ele>923.8</ele>
        <time>2025-04-30T15:31:09Z</time>
      </trkpt>
      <trkpt lat="45.63748" lon="4.59398">
        <ele>923.8</ele>
        <time>2025-04-30T15:31:10Z</time>
      </trkpt>
      <trkpt lat="45.63748" lon="4.59398">
        <ele>923.8</ele>
        <time>2025-04-30T15:31:11Z</time>
      </trkpt>
      <trkpt lat="45.63748" lon="4.59398">
        <ele>923.8</ele>
        <time>2025-04-30T15:31:12Z</time>
      </trkpt>
      <trkpt lat="45.63748" lon="4.59398">
        <ele>923.8</ele>
        <time>2025-04-30T15:31:13Z</time>
      </trkpt>
      <trkpt lat="45.63748" lon="4.59398">
        <ele>923.8</ele>
        <time>2025-04-30T15:31:14Z</time>
      </trkpt>
      <trkpt lat="45.63748" lon="4.59398">
        <ele>923.8</ele>
        <time>2025-04-30T15:31:15Z</time>
      </trkpt>
      <trkpt lat="45.63748" lon="4.59398">
        <ele>923.8</ele>
        <time>2025-04-30T15:31:16Z</time>
      </trkpt>
      <trkpt lat="45.63748" lon="4.59398">
        <ele>923.8</ele>
        <time>2025-04-30T15:31:17Z</time>
      </trkpt>
      <trkpt lat="45.63748" lon="4.59398">
        <ele>923.8</ele>
        <time>2025-04-30T15:31:18Z</time>
      </trkpt>
      <trkpt lat="45.63748" lon="4.59398">
        <ele>923.8</ele>
        <time>2025-04-30T15:31:19Z</time>
      </trkpt>
      <trkpt lat="45.63748" lon="4.59398">
        <ele>923.8</ele>
        <time>2025-04-30T15:31:20Z</time>
      </trkpt>
      <trkpt lat="45.63748" lon="4.59398">
        <ele>923.8</ele>
        <time>2025-04-30T15:31:21Z</time>
      </trkpt>
      <trkpt lat="45.63748" lon="4.59398">
        <ele>923.8</ele>
        <time>2025-04-30T15:31:22Z</time>
      </trkpt>
      <trkpt lat="45.63748" lon="4.59398">
        <ele>923.8</ele>
        <time>2025-04-30T15:31:23Z</time>
      </trkpt>
      <trkpt lat="45.63748" lon="4.59398">
        <ele>923.8</ele>
        <time>2025-04-30T15:31:24Z</time>
      </trkpt>
      <trkpt lat="45.63748" lon="4.59398">
        <ele>923.8</ele>
        <time>2025-04-30T15:31:25Z</time>
      </trkpt>
      <trkpt lat="45.63748" lon="4.59398">
        <ele>923.8</ele>
        <time>2025-04-30T15:31:26Z</time>
      </trkpt>
      <trkpt lat="45.63748" lon="4.59398">
        <ele>923.8</ele>
        <time>2025-04-30T15:31:27Z</time>
      </trkpt>
      <trkpt lat="45.63748" lon="4.59398">
        <ele>923.8</ele>
        <time>2025-04-30T15:31:28Z</time>
      </trkpt>
      <trkpt lat="45.63748" lon="4.59398">
        <ele>923.8</ele>
        <time>2025-04-30T15:31:29Z</time>
      </trkpt>
      <trkpt lat="45.63748" lon="4.59398">
        <ele>923.8</ele>
        <time>2025-04-30T15:31:30Z</time>
      </trkpt>
      <trkpt lat="45.63748" lon="4.59398">
        <ele>923.8</ele>
        <time>2025-04-30T15:31:31Z</time>
      </trkpt>
      <trkpt lat="45.63748" lon="4.59398">
        <ele>923.8</ele>
        <time>2025-04-30T15:31:32Z</time>
      </trkpt>
      <trkpt lat="45.63748" lon="4.59398">
        <ele>923.8</ele>
        <time>2025-04-30T15:31:33Z</time>
      </trkpt>
      <trkpt lat="45.63748" lon="4.59398">
        <ele>923.8</ele>
        <time>2025-04-30T15:31:34Z</time>
      </trkpt>
      <trkpt lat="45.63748" lon="4.59398">
        <ele>923.8</ele>
        <time>2025-04-30T15:31:35Z</time>
      </trkpt>
      <trkpt lat="45.63748" lon="4.59398">
        <ele>923.8</ele>
        <time>2025-04-30T15:31:36Z</time>
      </trkpt>
      <trkpt lat="45.63748" lon="4.59398">
        <ele>923.8</ele>
        <time>2025-04-30T15:31:37Z</time>
      </trkpt>
      <trkpt lat="45.63748" lon="4.59398">
        <ele>923.8</ele>
        <time>2025-04-30T15:31:38Z</time>
      </trkpt>
      <trkpt lat="45.63748" lon="4.59398">
        <ele>923.8</ele>
        <time>2025-04-30T15:31:39Z</time>
      </trkpt>
      <trkpt lat="45.63748" lon="4.59398">
        <ele>923.8</ele>
        <time>2025-04-30T15:31:40Z</time>
      </trkpt>
      <trkpt lat="45.63748" lon="4.59398">
        <ele>923.8</ele>
        <time>2025-04-30T15:31:41Z</time>
      </trkpt>
      <trkpt lat="45.63748" lon="4.59398">
        <ele>923.8</ele>
        <time>2025-04-30T15:31:42Z</time>
      </trkpt>
      <trkpt lat="45.63748" lon="4.59398">
        <ele>923.8</ele>
        <time>2025-04-30T15:31:43Z</time>
      </trkpt>
      <trkpt lat="45.63748" lon="4.59398">
        <ele>923.8</ele>
        <time>2025-04-30T15:31:44Z</time>
      </trkpt>
      <trkpt lat="45.63748" lon="4.59398">
        <ele>923.8</ele>
        <time>2025-04-30T15:31:45Z</time>
      </trkpt>
      <trkpt lat="45.63748" lon="4.59398">
        <ele>923.8</ele>
        <time>2025-04-30T15:31:46Z</time>
      </trkpt>
      <trkpt lat="45.63748" lon="4.59398">
        <ele>923.8</ele>
        <time>2025-04-30T15:31:47Z</time>
      </trkpt>
      <trkpt lat="45.63748" lon="4.59398">
        <ele>923.8</ele>
        <time>2025-04-30T15:31:48Z</time>
      </trkpt>
      <trkpt lat="45.63748" lon="4.59398">
        <ele>923.8</ele>
        <time>2025-04-30T15:31:49Z</time>
      </trkpt>
      <trkpt lat="45.63748" lon="4.59398">
        <ele>923.8</ele>
        <time>2025-04-30T15:31:50Z</time>
      </trkpt>
      <trkpt lat="45.63748" lon="4.59398">
        <ele>923.8</ele>
        <time>2025-04-30T15:31:51Z</time>
      </trkpt>
      <trkpt lat="45.63748" lon="4.59398">
        <ele>923.8</ele>
        <time>2025-04-30T15:31:52Z</time>
      </trkpt>
      <trkpt lat="45.63748" lon="4.59398">
        <ele>923.8</ele>
        <time>2025-04-30T15:31:53Z</time>
      </trkpt>
      <trkpt lat="45.63748" lon="4.59398">
        <ele>923.8</ele>
        <time>2025-04-30T15:31:54Z</time>
      </trkpt>
      <trkpt lat="45.63748" lon="4.59398">
        <ele>923.8</ele>
        <time>2025-04-30T15:31:55Z</time>
      </trkpt>
      <trkpt lat="45.63748" lon="4.59398">
        <ele>923.8</ele>
        <time>2025-04-30T15:31:56Z</time>
      </trkpt>
      <trkpt lat="45.63748" lon="4.59398">
        <ele>923.8</ele>
        <time>2025-04-30T15:31:57Z</time>
      </trkpt>
      <trkpt lat="45.63748" lon="4.59398">
        <ele>923.8</ele>
        <time>2025-04-30T15:31:58Z</time>
      </trkpt>
      <trkpt lat="45.63748" lon="4.59398">
        <ele>923.8</ele>
        <time>2025-04-30T15:31:59Z</time>
      </trkpt>
      <trkpt lat="45.63748" lon="4.59398">
        <ele>923.8</ele>
        <time>2025-04-30T15:32:00Z</time>
      </trkpt>
      <trkpt lat="45.63748" lon="4.59398">
        <ele>923.8</ele>
        <time>2025-04-30T15:32:01Z</time>
      </trkpt>
      <trkpt lat="45.63748" lon="4.59398">
        <ele>923.8</ele>
        <time>2025-04-30T15:32:02Z</time>
      </trkpt>
      <trkpt lat="45.63748" lon="4.59398">
        <ele>923.8</ele>
        <time>2025-04-30T15:32:03Z</time>
      </trkpt>
      <trkpt lat="45.63748" lon="4.59398">
        <ele>923.8</ele>
        <time>2025-04-30T15:32:04Z</time>
      </trkpt>
      <trkpt lat="45.63748" lon="4.59398">
        <ele>923.8</ele>
        <time>2025-04-30T15:32:05Z</time>
      </trkpt>
      <trkpt lat="45.63748" lon="4.59398">
        <ele>923.8</ele>
        <time>2025-04-30T15:32:06Z</time>
      </trkpt>
      <trkpt lat="45.63748" lon="4.59398">
        <ele>923.8</ele>
        <time>2025-04-30T15:32:07Z</time>
      </trkpt>
      <trkpt lat="45.63748" lon="4.59398">
        <ele>923.8</ele>
        <time>2025-04-30T15:32:08Z</time>
      </trkpt>
      <trkpt lat="45.63748" lon="4.59398">
        <ele>923.8</ele>
        <time>2025-04-30T15:32:09Z</time>
      </trkpt>
      <trkpt lat="45.63748" lon="4.59398">
        <ele>923.8</ele>
        <time>2025-04-30T15:32:10Z</time>
      </trkpt>
      <trkpt lat="45.63748" lon="4.59398">
        <ele>923.8</ele>
        <time>2025-04-30T15:32:11Z</time>
      </trkpt>
      <trkpt lat="45.63748" lon="4.59398">
        <ele>923.8</ele>
        <time>2025-04-30T15:32:12Z</time>
      </trkpt>
      <trkpt lat="45.63748" lon="4.59398">
        <ele>923.8</ele>
        <time>2025-04-30T15:32:13Z</time>
      </trkpt>
      <trkpt lat="45.63748" lon="4.59398">
        <ele>923.8</ele>
        <time>2025-04-30T15:32:14Z</time>
      </trkpt>
      <trkpt lat="45.63748" lon="4.59398">
        <ele>923.8</ele>
        <time>2025-04-30T15:32:15Z</time>
      </trkpt>
      <trkpt lat="45.63748" lon="4.59398">
        <ele>923.8</ele>
        <time>2025-04-30T15:32:16Z</time>
      </trkpt>
      <trkpt lat="45.63748" lon="4.59398">
        <ele>923.8</ele>
        <time>2025-04-30T15:32:17Z</time>
      </trkpt>
      <trkpt lat="45.63748" lon="4.59398">
        <ele>923.8</ele>
        <time>2025-04-30T15:32:18Z</time>
      </trkpt>
      <trkpt lat="45.63748" lon="4.59398">
        <ele>923.8</ele>
        <time>2025-04-30T15:32:19Z</time>
      </trkpt>
      <trkpt lat="45.63748" lon="4.59398">
        <ele>923.8</ele>
        <time>2025-04-30T15:32:20Z</time>
      </trkpt>
      <trkpt lat="45.63748" lon="4.59398">
        <ele>923.8</ele>
        <time>2025-04-30T15:32:21Z</time>
      </trkpt>
      <trkpt lat="45.63748" lon="4.59398">
        <ele>923.8</ele>
        <time>2025-04-30T15:32:22Z</time>
      </trkpt>
      <trkpt lat="45.63748" lon="4.59398">
        <ele>923.8</ele>
        <time>2025-04-30T15:32:23Z</time>
      </trkpt>
      <trkpt lat="45.63748" lon="4.59398">
        <ele>923.8</ele>
        <time>2025-04-30T15:32:24Z</time>
      </trkpt>
      <trkpt lat="45.63748" lon="4.59398">
        <ele>923.8</ele>
        <time>2025-04-30T15:32:25Z</time>
      </trkpt>
      <trkpt lat="45.63748" lon="4.59398">
        <ele>923.8</ele>
        <time>2025-04-30T15:32:26Z</time>
      </trkpt>
      <trkpt lat="45.63748" lon="4.59398">
        <ele>923.8</ele>
        <time>2025-04-30T15:32:27Z</time>
      </trkpt>
      <trkpt lat="45.63748" lon="4.59398">
        <ele>923.8</ele>
        <time>2025-04-30T15:32:28Z</time>
      </trkpt>
      <trkpt lat="45.63748" lon="4.59398">
        <ele>923.8</ele>
        <time>2025-04-30T15:32:29Z</time>
      </trkpt>
      <trkpt lat="45.63748" lon="4.59398">
        <ele>923.8</ele>
        <time>2025-04-30T15:32:30Z</time>
      </trkpt>
      <trkpt lat="45.63748" lon="4.59398">
        <ele>923.8</ele>
        <time>2025-04-30T15:32:31Z</time>
      </trkpt>
      <trkpt lat="45.63748" lon="4.59398">
        <ele>923.8</ele>
        <time>2025-04-30T15:32:32Z</time>
      </trkpt>
      <trkpt lat="45.63748" lon="4.59398">
        <ele>923.8</ele>
        <time>2025-04-30T15:32:33Z</time>
      </trkpt>
      <trkpt lat="45.63748" lon="4.59398">
        <ele>923.8</ele>
        <time>2025-04-30T15:32:34Z</time>
      </trkpt>
      <trkpt lat="45.63748" lon="4.59398">
        <ele>923.8</ele>
        <time>2025-04-30T15:32:35Z</time>
      </trkpt>
      <trkpt lat="45.63748" lon="4.59398">
        <ele>923.8</ele>
        <time>2025-04-30T15:32:36Z</time>
      </trkpt>
      <trkpt lat="45.63748" lon="4.59398">
        <ele>923.8</ele>
        <time>2025-04-30T15:32:37Z</time>
      </trkpt>
      <trkpt lat="45.63748" lon="4.59398">
        <ele>923.8</ele>
        <time>2025-04-30T15:32:38Z</time>
      </trkpt>
      <trkpt lat="45.63748" lon="4.59398">
        <ele>923.8</ele>
        <time>2025-04-30T15:32:39Z</time>
      </trkpt>
      <trkpt lat="45.63748" lon="4.59398">
        <ele>923.8</ele>
        <time>2025-04-30T15:32:40Z</time>
      </trkpt>
      <trkpt lat="45.63748" lon="4.59398">
        <ele>923.8</ele>
        <time>2025-04-30T15:32:41Z</time>
      </trkpt>
      <trkpt lat="45.63748" lon="4.59398">
        <ele>923.8</ele>
        <time>2025-04-30T15:32:42Z</time>
      </trkpt>
      <trkpt lat="45.63748" lon="4.59398">
        <ele>923.8</ele>
        <time>2025-04-30T15:32:43Z</time>
      </trkpt>
      <trkpt lat="45.63748" lon="4.59398">
        <ele>923.8</ele>
        <time>2025-04-30T15:32:44Z</time>
      </trkpt>
      <trkpt lat="45.63748" lon="4.59398">
        <ele>923.8</ele>
        <time>2025-04-30T15:32:45Z</time>
      </trkpt>
      <trkpt lat="45.63748" lon="4.59398">
        <ele>923.8</ele>
        <time>2025-04-30T15:32:46Z</time>
      </trkpt>
      <trkpt lat="45.63748" lon="4.59398">
        <ele>923.8</ele>
        <time>2025-04-30T15:32:47Z</time>
      </trkpt>
      <trkpt lat="45.63748" lon="4.59398">
        <ele>923.8</ele>
        <time>2025-04-30T15:32:48Z</time>
      </trkpt>
      <trkpt lat="45.63748" lon="4.59398">
        <ele>923.8</ele>
        <time>2025-04-30T15:32:49Z</time>
      </trkpt>
      <trkpt lat="45.63748" lon="4.59398">
        <ele>923.8</ele>
        <time>2025-04-30T15:32:50Z</time>
      </trkpt>
      <trkpt lat="45.63748" lon="4.59398">
        <ele>923.8</ele>
        <time>2025-04-30T15:32:51Z</time>
      </trkpt>
      <trkpt lat="45.63748" lon="4.59398">
        <ele>923.8</ele>
        <time>2025-04-30T15:32:52Z</time>
      </trkpt>
      <trkpt lat="45.63748" lon="4.59398">
        <ele>923.8</ele>
        <time>2025-04-30T15:32:53Z</time>
      </trkpt>
      <trkpt lat="45.63748" lon="4.59398">
        <ele>923.8</ele>
        <time>2025-04-30T15:32:54Z</time>
      </trkpt>
      <trkpt lat="45.63748" lon="4.59398">
        <ele>923.8</ele>
        <time>2025-04-30T15:32:55Z</time>
      </trkpt>
      <trkpt lat="45.63748" lon="4.59398">
        <ele>923.8</ele>
        <time>2025-04-30T15:32:56Z</time>
      </trkpt>
      <trkpt lat="45.63748" lon="4.59398">
        <ele>923.8</ele>
        <time>2025-04-30T15:32:57Z</time>
      </trkpt>
      <trkpt lat="45.63748" lon="4.59398">
        <ele>923.8</ele>
        <time>2025-04-30T15:32:58Z</time>
      </trkpt>
      <trkpt lat="45.63748" lon="4.59398">
        <ele>923.8</ele>
        <time>2025-04-30T15:32:59Z</time>
      </trkpt>
      <trkpt lat="45.63748" lon="4.59398">
        <ele>923.8</ele>
        <time>2025-04-30T15:33:00Z</time>
      </trkpt>
      <trkpt lat="45.63748" lon="4.59398">
        <ele>923.8</ele>
        <time>2025-04-30T15:33:01Z</time>
      </trkpt>
      <trkpt lat="45.63748" lon="4.59398">
        <ele>923.8</ele>
        <time>2025-04-30T15:33:02Z</time>
      </trkpt>
      <trkpt lat="45.63748" lon="4.59398">
        <ele>923.8</ele>
        <time>2025-04-30T15:33:03Z</time>
      </trkpt>
      <trkpt lat="45.63748" lon="4.59398">
        <ele>923.8</ele>
        <time>2025-04-30T15:33:04Z</time>
      </trkpt>
      <trkpt lat="45.63748" lon="4.59398">
        <ele>923.8</ele>
        <time>2025-04-30T15:33:05Z</time>
      </trkpt>
      <trkpt lat="45.63748" lon="4.59398">
        <ele>923.8</ele>
        <time>2025-04-30T15:33:06Z</time>
      </trkpt>
      <trkpt lat="45.63748" lon="4.59398">
        <ele>923.8</ele>
        <time>2025-04-30T15:33:07Z</time>
      </trkpt>
      <trkpt lat="45.63748" lon="4.59398">
        <ele>923.8</ele>
        <time>2025-04-30T15:33:08Z</time>
      </trkpt>
      <trkpt lat="45.63748" lon="4.59398">
        <ele>923.8</ele>
        <time>2025-04-30T15:33:09Z</time>
      </trkpt>
      <trkpt lat="45.63748" lon="4.59398">
        <ele>923.8</ele>
        <time>2025-04-30T15:33:10Z</time>
      </trkpt>
      <trkpt lat="45.63748" lon="4.59398">
        <ele>923.8</ele>
        <time>2025-04-30T15:33:11Z</time>
      </trkpt>
      <trkpt lat="45.63748" lon="4.59398">
        <ele>923.8</ele>
        <time>2025-04-30T15:33:12Z</time>
      </trkpt>
      <trkpt lat="45.63748" lon="4.59398">
        <ele>923.8</ele>
        <time>2025-04-30T15:33:13Z</time>
      </trkpt>
      <trkpt lat="45.63748" lon="4.59398">
        <ele>923.8</ele>
        <time>2025-04-30T15:33:14Z</time>
      </trkpt>
      <trkpt lat="45.63748" lon="4.59398">
        <ele>923.8</ele>
        <time>2025-04-30T15:33:15Z</time>
      </trkpt>
      <trkpt lat="45.63748" lon="4.59398">
        <ele>923.8</ele>
        <time>2025-04-30T15:33:16Z</time>
      </trkpt>
      <trkpt lat="45.63748" lon="4.59398">
        <ele>923.8</ele>
        <time>2025-04-30T15:33:17Z</time>
      </trkpt>
      <trkpt lat="45.63748" lon="4.59398">
        <ele>923.8</ele>
        <time>2025-04-30T15:33:18Z</time>
      </trkpt>
      <trkpt lat="45.63748" lon="4.59398">
        <ele>923.8</ele>
        <time>2025-04-30T15:33:19Z</time>
      </trkpt>
      <trkpt lat="45.63748" lon="4.59398">
        <ele>923.8</ele>
        <time>2025-04-30T15:33:20Z</time>
      </trkpt>
      <trkpt lat="45.63748" lon="4.59398">
        <ele>923.8</ele>
        <time>2025-04-30T15:33:21Z</time>
      </trkpt>
      <trkpt lat="45.63748" lon="4.59398">
        <ele>923.8</ele>
        <time>2025-04-30T15:33:22Z</time>
      </trkpt>
      <trkpt lat="45.63748" lon="4.59398">
        <ele>923.8</ele>
        <time>2025-04-30T15:33:23Z</time>
      </trkpt>
      <trkpt lat="45.63748" lon="4.59398">
        <ele>923.8</ele>
        <time>2025-04-30T15:33:24Z</time>
      </trkpt>
      <trkpt lat="45.63748" lon="4.59398">
        <ele>923.8</ele>
        <time>2025-04-30T15:33:25Z</time>
      </trkpt>
      <trkpt lat="45.63748" lon="4.59398">
        <ele>923.8</ele>
        <time>2025-04-30T15:33:26Z</time>
      </trkpt>
      <trkpt lat="45.63748" lon="4.59398">
        <ele>923.8</ele>
        <time>2025-04-30T15:33:27Z</time>
      </trkpt>
      <trkpt lat="45.63748" lon="4.59398">
        <ele>923.8</ele>
        <time>2025-04-30T15:33:28Z</time>
      </trkpt>
      <trkpt lat="45.63748" lon="4.59398">
        <ele>923.8</ele>
        <time>2025-04-30T15:33:29Z</time>
      </trkpt>
      <trkpt lat="45.63748" lon="4.59398">
        <ele>923.8</ele>
        <time>2025-04-30T15:33:30Z</time>
      </trkpt>
      <trkpt lat="45.63748" lon="4.59398">
        <ele>923.8</ele>
        <time>2025-04-30T15:33:31Z</time>
      </trkpt>
      <trkpt lat="45.63748" lon="4.59398">
        <ele>923.8</ele>
        <time>2025-04-30T15:33:32Z</time>
      </trkpt>
      <trkpt lat="45.63748" lon="4.59398">
        <ele>923.8</ele>
        <time>2025-04-30T15:33:33Z</time>
      </trkpt>
      <trkpt lat="45.63748" lon="4.59398">
        <ele>923.8</ele>
        <time>2025-04-30T15:33:34Z</time>
      </trkpt>
      <trkpt lat="45.63748" lon="4.59398">
        <ele>923.8</ele>
        <time>2025-04-30T15:33:35Z</time>
      </trkpt>
      <trkpt lat="45.63748" lon="4.59398">
        <ele>923.8</ele>
        <time>2025-04-30T15:33:36Z</time>
      </trkpt>
      <trkpt lat="45.63748" lon="4.59398">
        <ele>923.8</ele>
        <time>2025-04-30T15:33:37Z</time>
      </trkpt>
      <trkpt lat="45.63748" lon="4.59398">
        <ele>923.8</ele>
        <time>2025-04-30T15:33:38Z</time>
      </trkpt>
      <trkpt lat="45.63748" lon="4.59398">
        <ele>923.8</ele>
        <time>2025-04-30T15:33:39Z</time>
      </trkpt>
      <trkpt lat="45.63748" lon="4.59398">
        <ele>923.8</ele>
        <time>2025-04-30T15:33:40Z</time>
      </trkpt>
      <trkpt lat="45.63748" lon="4.59398">
        <ele>923.8</ele>
        <time>2025-04-30T15:33:41Z</time>
      </trkpt>
      <trkpt lat="45.63748" lon="4.59398">
        <ele>923.8</ele>
        <time>2025-04-30T15:33:42Z</time>
      </trkpt>
      <trkpt lat="45.63748" lon="4.59398">
        <ele>923.8</ele>
        <time>2025-04-30T15:33:43Z</time>
      </trkpt>
      <trkpt lat="45.63748" lon="4.59398">
        <ele>923.8</ele>
        <time>2025-04-30T15:33:44Z</time>
      </trkpt>
      <trkpt lat="45.63748" lon="4.59398">
        <ele>923.8</ele>
        <time>2025-04-30T15:33:45Z</time>
      </trkpt>
      <trkpt lat="45.63748" lon="4.59398">
        <ele>923.8</ele>
        <time>2025-04-30T15:33:46Z</time>
      </trkpt>
      <trkpt lat="45.63748" lon="4.59398">
        <ele>923.8</ele>
        <time>2025-04-30T15:33:47Z</time>
      </trkpt>
      <trkpt lat="45.63748" lon="4.59398">
        <ele>923.8</ele>
        <time>2025-04-30T15:33:48Z</time>
      </trkpt>
      <trkpt lat="45.63748" lon="4.59398">
        <ele>923.8</ele>
        <time>2025-04-30T15:33:49Z</time>
      </trkpt>
      <trkpt lat="45.63748" lon="4.59398">
        <ele>923.8</ele>
        <time>2025-04-30T15:33:50Z</time>
      </trkpt>
      <trkpt lat="45.63748" lon="4.59398">
        <ele>923.8</ele>
        <time>2025-04-30T15:33:51Z</time>
      </trkpt>
      <trkpt lat="45.63748" lon="4.59398">
        <ele>923.8</ele>
        <time>2025-04-30T15:33:52Z</time>
      </trkpt>
      <trkpt lat="45.63748" lon="4.59398">
        <ele>923.8</ele>
        <time>2025-04-30T15:33:53Z</time>
      </trkpt>
      <trkpt lat="45.63748" lon="4.59398">
        <ele>923.8</ele>
        <time>2025-04-30T15:33:54Z</time>
      </trkpt>
      <trkpt lat="45.63748" lon="4.59398">
        <ele>923.8</ele>
        <time>2025-04-30T15:33:55Z</time>
      </trkpt>
      <trkpt lat="45.63748" lon="4.59398">
        <ele>923.8</ele>
        <time>2025-04-30T15:33:56Z</time>
      </trkpt>
      <trkpt lat="45.63748" lon="4.59398">
        <ele>923.8</ele>
        <time>2025-04-30T15:33:57Z</time>
      </trkpt>
      <trkpt lat="45.63748" lon="4.59398">
        <ele>923.8</ele>
        <time>2025-04-30T15:33:58Z</time>
      </trkpt>
      <trkpt lat="45.63748" lon="4.59398">
        <ele>923.8</ele>
        <time>2025-04-30T15:33:59Z</time>
      </trkpt>
      <trkpt lat="45.63748" lon="4.59398">
        <ele>923.8</ele>
        <time>2025-04-30T15:34:00Z</time>
      </trkpt>
      <trkpt lat="45.63748" lon="4.59398">
        <ele>923.8</ele>
        <time>2025-04-30T15:34:01Z</time>
      </trkpt>
      <trkpt lat="45.63748" lon="4.59398">
        <ele>923.8</ele>
        <time>2025-04-30T15:34:02Z</time>
      </trkpt>
      <trkpt lat="45.63748" lon="4.59398">
        <ele>923.8</ele>
        <time>2025-04-30T15:34:03Z</time>
      </trkpt>
      <trkpt lat="45.63748" lon="4.59398">
        <ele>923.8</ele>
        <time>2025-04-30T15:34:04Z</time>
      </trkpt>
      <trkpt lat="45.63748" lon="4.59398">
        <ele>923.8</ele>
        <time>2025-04-30T15:34:05Z</time>
      </trkpt>
      <trkpt lat="45.63748" lon="4.59398">
        <ele>923.8</ele>
        <time>2025-04-30T15:34:06Z</time>
      </trkpt>
      <trkpt lat="45.63748" lon="4.59398">
        <ele>923.8</ele>
        <time>2025-04-30T15:34:07Z</time>
      </trkpt>
      <trkpt lat="45.63748" lon="4.59398">
        <ele>923.8</ele>
        <time>2025-04-30T15:34:08Z</time>
      </trkpt>
      <trkpt lat="45.63748" lon="4.59398">
        <ele>923.8</ele>
        <time>2025-04-30T15:34:09Z</time>
      </trkpt>
      <trkpt lat="45.63748" lon="4.59398">
        <ele>923.8</ele>
        <time>2025-04-30T15:34:10Z</time>
      </trkpt>
      <trkpt lat="45.63748" lon="4.59398">
        <ele>923.8</ele>
        <time>2025-04-30T15:34:11Z</time>
      </trkpt>
      <trkpt lat="45.63748" lon="4.59398">
        <ele>923.8</ele>
        <time>2025-04-30T15:34:12Z</time>
      </trkpt>
      <trkpt lat="45.63748" lon="4.59398">
        <ele>923.8</ele>
        <time>2025-04-30T15:34:13Z</time>
      </trkpt>
      <trkpt lat="45.63748" lon="4.59398">
        <ele>923.8</ele>
        <time>2025-04-30T15:34:14Z</time>
      </trkpt>
      <trkpt lat="45.63748" lon="4.59398">
        <ele>923.8</ele>
        <time>2025-04-30T15:34:15Z</time>
      </trkpt>
      <trkpt lat="45.63748" lon="4.59398">
        <ele>923.8</ele>
        <time>2025-04-30T15:34:16Z</time>
      </trkpt>
      <trkpt lat="45.63748" lon="4.59398">
        <ele>923.8</ele>
        <time>2025-04-30T15:34:17Z</time>
      </trkpt>
      <trkpt lat="45.63748" lon="4.59398">
        <ele>923.8</ele>
        <time>2025-04-30T15:34:18Z</time>
      </trkpt>
      <trkpt lat="45.63748" lon="4.59398">
        <ele>923.8</ele>
        <time>2025-04-30T15:34:19Z</time>
      </trkpt>
      <trkpt lat="45.63748" lon="4.59398">
        <ele>923.8</ele>
        <time>2025-04-30T15:34:20Z</time>
      </trkpt>
      <trkpt lat="45.63748" lon="4.59398">
        <ele>923.8</ele>
        <time>2025-04-30T15:34:21Z</time>
      </trkpt>
      <trkpt lat="45.63748" lon="4.59398">
        <ele>923.8</ele>
        <time>2025-04-30T15:34:22Z</time>
      </trkpt>
      <trkpt lat="45.63748" lon="4.59398">
        <ele>923.8</ele>
        <time>2025-04-30T15:34:23Z</time>
      </trkpt>
      <trkpt lat="45.63748" lon="4.59398">
        <ele>923.8</ele>
        <time>2025-04-30T15:34:24Z</time>
      </trkpt>
      <trkpt lat="45.63748" lon="4.59398">
        <ele>923.8</ele>
        <time>2025-04-30T15:34:25Z</time>
      </trkpt>
      <trkpt lat="45.63748" lon="4.59398">
        <ele>923.8</ele>
        <time>2025-04-30T15:34:26Z</time>
      </trkpt>
      <trkpt lat="45.63748" lon="4.59398">
        <ele>923.8</ele>
        <time>2025-04-30T15:34:27Z</time>
      </trkpt>
      <trkpt lat="45.63748" lon="4.59398">
        <ele>923.8</ele>
        <time>2025-04-30T15:34:28Z</time>
      </trkpt>
      <trkpt lat="45.63748" lon="4.59398">
        <ele>923.8</ele>
        <time>2025-04-30T15:34:29Z</time>
      </trkpt>
      <trkpt lat="45.63748" lon="4.59398">
        <ele>923.8</ele>
        <time>2025-04-30T15:34:30Z</time>
      </trkpt>
      <trkpt lat="45.63748" lon="4.59398">
        <ele>923.8</ele>
        <time>2025-04-30T15:34:31Z</time>
      </trkpt>
      <trkpt lat="45.63748" lon="4.59398">
        <ele>923.8</ele>
        <time>2025-04-30T15:34:32Z</time>
      </trkpt>
      <trkpt lat="45.63748" lon="4.59398">
        <ele>923.8</ele>
        <time>2025-04-30T15:34:33Z</time>
      </trkpt>
      <trkpt lat="45.63748" lon="4.59398">
        <ele>923.8</ele>
        <time>2025-04-30T15:34:34Z</time>
      </trkpt>
      <trkpt lat="45.63748" lon="4.59398">
        <ele>923.8</ele>
        <time>2025-04-30T15:34:35Z</time>
      </trkpt>
      <trkpt lat="45.63748" lon="4.59398">
        <ele>923.8</ele>
        <time>2025-04-30T15:34:36Z</time>
      </trkpt>
      <trkpt lat="45.63748" lon="4.59398">
        <ele>923.8</ele>
        <time>2025-04-30T15:34:37Z</time>
      </trkpt>
      <trkpt lat="45.63748" lon="4.59398">
        <ele>923.8</ele>
        <time>2025-04-30T15:34:38Z</time>
      </trkpt>
      <trkpt lat="45.63748" lon="4.59398">
        <ele>923.8</ele>
        <time>2025-04-30T15:34:39Z</time>
      </trkpt>
      <trkpt lat="45.63748" lon="4.59398">
        <ele>923.8</ele>
        <time>2025-04-30T15:34:40Z</time>
      </trkpt>
      <trkpt lat="45.63748" lon="4.59398">
        <ele>923.8</ele>
        <time>2025-04-30T15:34:41Z</time>
      </trkpt>
      <trkpt lat="45.63748" lon="4.59398">
        <ele>923.8</ele>
        <time>2025-04-30T15:34:42Z</time>
      </trkpt>
      <trkpt lat="45.63748" lon="4.59398">
        <ele>923.8</ele>
        <time>2025-04-30T15:34:43Z</time>
      </trkpt>
      <trkpt lat="45.63748" lon="4.59398">
        <ele>923.8</ele>
        <time>2025-04-30T15:34:44Z</time>
      </trkpt>
      <trkpt lat="45.63748" lon="4.59398">
        <ele>923.8</ele>
        <time>2025-04-30T15:34:45Z</time>
      </trkpt>
      <trkpt lat="45.63748" lon="4.59398">
        <ele>923.8</ele>
        <time>2025-04-30T15:34:46Z</time>
      </trkpt>
      <trkpt lat="45.63748" lon="4.59398">
        <ele>923.8</ele>
        <time>2025-04-30T15:34:47Z</time>
      </trkpt>
      <trkpt lat="45.63748" lon="4.59398">
        <ele>923.8</ele>
        <time>2025-04-30T15:34:48Z</time>
      </trkpt>
      <trkpt lat="45.63748" lon="4.59398">
        <ele>923.8</ele>
        <time>2025-04-30T15:34:49Z</time>
      </trkpt>
      <trkpt lat="45.63748" lon="4.59398">
        <ele>923.8</ele>
        <time>2025-04-30T15:34:50Z</time>
      </trkpt>
      <trkpt lat="45.63748" lon="4.59398">
        <ele>923.8</ele>
        <time>2025-04-30T15:34:51Z</time>
      </trkpt>
      <trkpt lat="45.63748" lon="4.59398">
        <ele>923.8</ele>
        <time>2025-04-30T15:34:52Z</time>
      </trkpt>
      <trkpt lat="45.63748" lon="4.59398">
        <ele>923.8</ele>
        <time>2025-04-30T15:34:53Z</time>
      </trkpt>
      <trkpt lat="45.63748" lon="4.59398">
        <ele>923.8</ele>
        <time>2025-04-30T15:34:54Z</time>
      </trkpt>
      <trkpt lat="45.63748" lon="4.59398">
        <ele>923.8</ele>
        <time>2025-04-30T15:34:55Z</time>
      </trkpt>
      <trkpt lat="45.63748" lon="4.59398">
        <ele>923.8</ele>
        <time>2025-04-30T15:34:56Z</time>
      </trkpt>
      <trkpt lat="45.63748" lon="4.59398">
        <ele>923.8</ele>
        <time>2025-04-30T15:34:57Z</time>
      </trkpt>
      <trkpt lat="45.63748" lon="4.59398">
        <ele>923.8</ele>
        <time>2025-04-30T15:34:58Z</time>
      </trkpt>
      <trkpt lat="45.63748" lon="4.59398">
        <ele>923.8</ele>
        <time>2025-04-30T15:34:59Z</time>
      </trkpt>
      <trkpt lat="45.63748" lon="4.59398">
        <ele>923.8</ele>
        <time>2025-04-30T15:35:00Z</time>
      </trkpt>
      <trkpt lat="45.63748" lon="4.59398">
        <ele>923.8</ele>
        <time>2025-04-30T15:35:01Z</time>
      </trkpt>
      <trkpt lat="45.63748" lon="4.59398">
        <ele>923.8</ele>
        <time>2025-04-30T15:35:02Z</time>
      </trkpt>
      <trkpt lat="45.63748" lon="4.59398">
        <ele>923.8</ele>
        <time>2025-04-30T15:35:03Z</time>
      </trkpt>
      <trkpt lat="45.63748" lon="4.59398">
        <ele>923.8</ele>
        <time>2025-04-30T15:35:04Z</time>
      </trkpt>
      <trkpt lat="45.63748" lon="4.59398">
        <ele>923.8</ele>
        <time>2025-04-30T15:35:05Z</time>
      </trkpt>
      <trkpt lat="45.63748" lon="4.59398">
        <ele>923.8</ele>
        <time>2025-04-30T15:35:06Z</time>
      </trkpt>
      <trkpt lat="45.63748" lon="4.59398">
        <ele>923.8</ele>
        <time>2025-04-30T15:35:07Z</time>
      </trkpt>
      <trkpt lat="45.63748" lon="4.59398">
        <ele>923.8</ele>
        <time>2025-04-30T15:35:08Z</time>
      </trkpt>
      <trkpt lat="45.63748" lon="4.59398">
        <ele>923.8</ele>
        <time>2025-04-30T15:35:09Z</time>
      </trkpt>
      <trkpt lat="45.63748" lon="4.59398">
        <ele>923.8</ele>
        <time>2025-04-30T15:35:10Z</time>
      </trkpt>
      <trkpt lat="45.63748" lon="4.59398">
        <ele>923.8</ele>
        <time>2025-04-30T15:35:11Z</time>
      </trkpt>
      <trkpt lat="45.63748" lon="4.59398">
        <ele>923.8</ele>
        <time>2025-04-30T15:35:12Z</time>
      </trkpt>
      <trkpt lat="45.63748" lon="4.59398">
        <ele>923.8</ele>
        <time>2025-04-30T15:35:13Z</time>
      </trkpt>
      <trkpt lat="45.63748" lon="4.59398">
        <ele>923.8</ele>
        <time>2025-04-30T15:35:14Z</time>
      </trkpt>
      <trkpt lat="45.63748" lon="4.59398">
        <ele>923.8</ele>
        <time>2025-04-30T15:35:15Z</time>
      </trkpt>
      <trkpt lat="45.63748" lon="4.59398">
        <ele>923.8</ele>
        <time>2025-04-30T15:35:16Z</time>
      </trkpt>
      <trkpt lat="45.63748" lon="4.59398">
        <ele>923.8</ele>
        <time>2025-04-30T15:35:17Z</time>
      </trkpt>
      <trkpt lat="45.63748" lon="4.59398">
        <ele>923.8</ele>
        <time>2025-04-30T15:35:18Z</time>
      </trkpt>
      <trkpt lat="45.63748" lon="4.59398">
        <ele>923.8</ele>
        <time>2025-04-30T15:35:19Z</time>
      </trkpt>
      <trkpt lat="45.63748" lon="4.59398">
        <ele>923.8</ele>
        <time>2025-04-30T15:35:20Z</time>
      </trkpt>
      <trkpt lat="45.63748" lon="4.59398">
        <ele>923.8</ele>
        <time>2025-04-30T15:35:21Z</time>
      </trkpt>
      <trkpt lat="45.63748" lon="4.59398">
        <ele>923.8</ele>
        <time>2025-04-30T15:35:22Z</time>
      </trkpt>
      <trkpt lat="45.63748" lon="4.59398">
        <ele>923.8</ele>
        <time>2025-04-30T15:35:23Z</time>
      </trkpt>
      <trkpt lat="45.63748" lon="4.59398">
        <ele>923.8</ele>
        <time>2025-04-30T15:35:24Z</time>
      </trkpt>
      <trkpt lat="45.63748" lon="4.59398">
        <ele>923.8</ele>
        <time>2025-04-30T15:35:25Z</time>
      </trkpt>
      <trkpt lat="45.63748" lon="4.59398">
        <ele>923.8</ele>
        <time>2025-04-30T15:35:26Z</time>
      </trkpt>
      <trkpt lat="45.63748" lon="4.59398">
        <ele>923.8</ele>
        <time>2025-04-30T15:35:27Z</time>
      </trkpt>
      <trkpt lat="45.63748" lon="4.59398">
        <ele>923.8</ele>
        <time>2025-04-30T15:35:28Z</time>
      </trkpt>
      <trkpt lat="45.63748" lon="4.59398">
        <ele>923.8</ele>
        <time>2025-04-30T15:35:29Z</time>
      </trkpt>
      <trkpt lat="45.63748" lon="4.59398">
        <ele>923.8</ele>
        <time>2025-04-30T15:35:30Z</time>
      </trkpt>
      <trkpt lat="45.63748" lon="4.59398">
        <ele>923.8</ele>
        <time>2025-04-30T15:35:31Z</time>
      </trkpt>
      <trkpt lat="45.63748" lon="4.59398">
        <ele>923.8</ele>
        <time>2025-04-30T15:35:32Z</time>
      </trkpt>
      <trkpt lat="45.63748" lon="4.59398">
        <ele>923.8</ele>
        <time>2025-04-30T15:35:33Z</time>
      </trkpt>
      <trkpt lat="45.63748" lon="4.59398">
        <ele>923.8</ele>
        <time>2025-04-30T15:35:34Z</time>
      </trkpt>
      <trkpt lat="45.63748" lon="4.59398">
        <ele>923.8</ele>
        <time>2025-04-30T15:35:35Z</time>
      </trkpt>
      <trkpt lat="45.63748" lon="4.59398">
        <ele>923.8</ele>
        <time>2025-04-30T15:35:36Z</time>
      </trkpt>
      <trkpt lat="45.63748" lon="4.59398">
        <ele>923.8</ele>
        <time>2025-04-30T15:35:37Z</time>
      </trkpt>
      <trkpt lat="45.63748" lon="4.59398">
        <ele>923.8</ele>
        <time>2025-04-30T15:35:38Z</time>
      </trkpt>
      <trkpt lat="45.63748" lon="4.59398">
        <ele>923.8</ele>
        <time>2025-04-30T15:35:39Z</time>
      </trkpt>
      <trkpt lat="45.63748" lon="4.59398">
        <ele>923.8</ele>
        <time>2025-04-30T15:35:40Z</time>
      </trkpt>
      <trkpt lat="45.63748" lon="4.59398">
        <ele>923.8</ele>
        <time>2025-04-30T15:35:41Z</time>
      </trkpt>
      <trkpt lat="45.63748" lon="4.59398">
        <ele>923.8</ele>
        <time>2025-04-30T15:35:42Z</time>
      </trkpt>
      <trkpt lat="45.63748" lon="4.59398">
        <ele>923.8</ele>
        <time>2025-04-30T15:35:43Z</time>
      </trkpt>
      <trkpt lat="45.63748" lon="4.59398">
        <ele>923.8</ele>
        <time>2025-04-30T15:35:44Z</time>
      </trkpt>
      <trkpt lat="45.63748" lon="4.59398">
        <ele>923.8</ele>
        <time>2025-04-30T15:35:45Z</time>
      </trkpt>
      <trkpt lat="45.63748" lon="4.59398">
        <ele>923.8</ele>
        <time>2025-04-30T15:35:46Z</time>
      </trkpt>
      <trkpt lat="45.63748" lon="4.59398">
        <ele>923.8</ele>
        <time>2025-04-30T15:35:47Z</time>
      </trkpt>
      <trkpt lat="45.63748" lon="4.59398">
        <ele>923.8</ele>
        <time>2025-04-30T15:35:48Z</time>
      </trkpt>
      <trkpt lat="45.63748" lon="4.59398">
        <ele>923.8</ele>
        <time>2025-04-30T15:35:49Z</time>
      </trkpt>
      <trkpt lat="45.63748" lon="4.59398">
        <ele>923.8</ele>
        <time>2025-04-30T15:35:50Z</time>
      </trkpt>
      <trkpt lat="45.63748" lon="4.59398">
        <ele>923.8</ele>
        <time>2025-04-30T15:35:51Z</time>
      </trkpt>
      <trkpt lat="45.63748" lon="4.59398">
        <ele>923.8</ele>
        <time>2025-04-30T15:35:52Z</time>
      </trkpt>
      <trkpt lat="45.63748" lon="4.59398">
        <ele>923.8</ele>
        <time>2025-04-30T15:35:53Z</time>
      </trkpt>
      <trkpt lat="45.63748" lon="4.59398">
        <ele>923.8</ele>
        <time>2025-04-30T15:35:54Z</time>
      </trkpt>
      <trkpt lat="45.63748" lon="4.59398">
        <ele>923.8</ele>
        <time>2025-04-30T15:35:55Z</time>
      </trkpt>
      <trkpt lat="45.63748" lon="4.59398">
        <ele>923.8</ele>
        <time>2025-04-30T15:35:56Z</time>
      </trkpt>
      <trkpt lat="45.63748" lon="4.59398">
        <ele>923.8</ele>
        <time>2025-04-30T15:35:57Z</time>
      </trkpt>
      <trkpt lat="45.63748" lon="4.59398">
        <ele>923.8</ele>
        <time>2025-04-30T15:35:58Z</time>
      </trkpt>
      <trkpt lat="45.63748" lon="4.59398">
        <ele>923.8</ele>
        <time>2025-04-30T15:35:59Z</time>
      </trkpt>
      <trkpt lat="45.63748" lon="4.59398">
        <ele>923.8</ele>
        <time>2025-04-30T15:36:00Z</time>
      </trkpt>
      <trkpt lat="45.63748" lon="4.59398">
        <ele>923.8</ele>
        <time>2025-04-30T15:36:01Z</time>
      </trkpt>
      <trkpt lat="45.63748" lon="4.59398">
        <ele>923.8</ele>
        <time>2025-04-30T15:36:02Z</time>
      </trkpt>
      <trkpt lat="45.63748" lon="4.59398">
        <ele>923.8</ele>
        <time>2025-04-30T15:36:03Z</time>
      </trkpt>
      <trkpt lat="45.63748" lon="4.59398">
        <ele>923.8</ele>
        <time>2025-04-30T15:36:04Z</time>
      </trkpt>
      <trkpt lat="45.63748" lon="4.59398">
        <ele>923.8</ele>
        <time>2025-04-30T15:36:05Z</time>
      </trkpt>
      <trkpt lat="45.63748" lon="4.59398">
        <ele>923.8</ele>
        <time>2025-04-30T15:36:06Z</time>
      </trkpt>
      <trkpt lat="45.63748" lon="4.59398">
        <ele>923.8</ele>
        <time>2025-04-30T15:36:07Z</time>
      </trkpt>
      <trkpt lat="45.63748" lon="4.59398">
        <ele>923.8</ele>
        <time>2025-04-30T15:36:08Z</time>
      </trkpt>
      <trkpt lat="45.63748" lon="4.59398">
        <ele>923.8</ele>
        <time>2025-04-30T15:36:09Z</time>
      </trkpt>
      <trkpt lat="45.63748" lon="4.59398">
        <ele>923.8</ele>
        <time>2025-04-30T15:36:10Z</time>
      </trkpt>
      <trkpt lat="45.63748" lon="4.59398">
        <ele>923.8</ele>
        <time>2025-04-30T15:36:11Z</time>
      </trkpt>
      <trkpt lat="45.63748" lon="4.59398">
        <ele>923.8</ele>
        <time>2025-04-30T15:36:12Z</time>
      </trkpt>
      <trkpt lat="45.63748" lon="4.59398">
        <ele>923.8</ele>
        <time>2025-04-30T15:36:13Z</time>
      </trkpt>
      <trkpt lat="45.63748" lon="4.59398">
        <ele>923.8</ele>
        <time>2025-04-30T15:36:14Z</time>
      </trkpt>
      <trkpt lat="45.63748" lon="4.59398">
        <ele>923.8</ele>
        <time>2025-04-30T15:36:15Z</time>
      </trkpt>
      <trkpt lat="45.63748" lon="4.59398">
        <ele>923.8</ele>
        <time>2025-04-30T15:36:16Z</time>
      </trkpt>
      <trkpt lat="45.63748" lon="4.59398">
        <ele>923.8</ele>
        <time>2025-04-30T15:36:17Z</time>
      </trkpt>
      <trkpt lat="45.63748" lon="4.59398">
        <ele>923.8</ele>
        <time>2025-04-30T15:36:18Z</time>
      </trkpt>
      <trkpt lat="45.63748" lon="4.59398">
        <ele>923.8</ele>
        <time>2025-04-30T15:36:19Z</time>
      </trkpt>
      <trkpt lat="45.63748" lon="4.59398">
        <ele>923.8</ele>
        <time>2025-04-30T15:36:20Z</time>
      </trkpt>
      <trkpt lat="45.63748" lon="4.59398">
        <ele>923.8</ele>
        <time>2025-04-30T15:36:21Z</time>
      </trkpt>
      <trkpt lat="45.63748" lon="4.59398">
        <ele>923.8</ele>
        <time>2025-04-30T15:36:22Z</time>
      </trkpt>
      <trkpt lat="45.63748" lon="4.59398">
        <ele>923.8</ele>
        <time>2025-04-30T15:36:23Z</time>
      </trkpt>
      <trkpt lat="45.63748" lon="4.59398">
        <ele>923.8</ele>
        <time>2025-04-30T15:36:24Z</time>
      </trkpt>
      <trkpt lat="45.63748" lon="4.59398">
        <ele>923.8</ele>
        <time>2025-04-30T15:36:25Z</time>
      </trkpt>
      <trkpt lat="45.63748" lon="4.59398">
        <ele>923.8</ele>
        <time>2025-04-30T15:36:26Z</time>
      </trkpt>
      <trkpt lat="45.63748" lon="4.59398">
        <ele>923.8</ele>
        <time>2025-04-30T15:36:27Z</time>
      </trkpt>
      <trkpt lat="45.63748" lon="4.59398">
        <ele>923.8</ele>
        <time>2025-04-30T15:36:28Z</time>
      </trkpt>
      <trkpt lat="45.63748" lon="4.59398">
        <ele>923.8</ele>
        <time>2025-04-30T15:36:29Z</time>
      </trkpt>
      <trkpt lat="45.63748" lon="4.59398">
        <ele>923.8</ele>
        <time>2025-04-30T15:36:30Z</time>
      </trkpt>
      <trkpt lat="45.63748" lon="4.59398">
        <ele>923.8</ele>
        <time>2025-04-30T15:36:31Z</time>
      </trkpt>
      <trkpt lat="45.63748" lon="4.59398">
        <ele>923.8</ele>
        <time>2025-04-30T15:36:32Z</time>
      </trkpt>
      <trkpt lat="45.63748" lon="4.59398">
        <ele>923.8</ele>
        <time>2025-04-30T15:36:33Z</time>
      </trkpt>
      <trkpt lat="45.63748" lon="4.59398">
        <ele>923.8</ele>
        <time>2025-04-30T15:36:34Z</time>
      </trkpt>
      <trkpt lat="45.63748" lon="4.59398">
        <ele>923.8</ele>
        <time>2025-04-30T15:36:35Z</time>
      </trkpt>
      <trkpt lat="45.63748" lon="4.59398">
        <ele>923.8</ele>
        <time>2025-04-30T15:36:36Z</time>
      </trkpt>
      <trkpt lat="45.63748" lon="4.59398">
        <ele>923.8</ele>
        <time>2025-04-30T15:36:37Z</time>
      </trkpt>
      <trkpt lat="45.63748" lon="4.59398">
        <ele>923.8</ele>
        <time>2025-04-30T15:36:38Z</time>
      </trkpt>
      <trkpt lat="45.63748" lon="4.59398">
        <ele>923.8</ele>
        <time>2025-04-30T15:36:39Z</time>
      </trkpt>
      <trkpt lat="45.63748" lon="4.59398">
        <ele>923.8</ele>
        <time>2025-04-30T15:36:40Z</time>
      </trkpt>
      <trkpt lat="45.63748" lon="4.59398">
        <ele>923.8</ele>
        <time>2025-04-30T15:36:41Z</time>
      </trkpt>
      <trkpt lat="45.63748" lon="4.59398">
        <ele>923.8</ele>
        <time>2025-04-30T15:36:42Z</time>
      </trkpt>
      <trkpt lat="45.63748" lon="4.59398">
        <ele>923.8</ele>
        <time>2025-04-30T15:36:43Z</time>
      </trkpt>
      <trkpt lat="45.63748" lon="4.59398">
        <ele>923.8</ele>
        <time>2025-04-30T15:36:44Z</time>
      </trkpt>
      <trkpt lat="45.63748" lon="4.59398">
        <ele>923.8</ele>
        <time>2025-04-30T15:36:45Z</time>
      </trkpt>
      <trkpt lat="45.63748" lon="4.59398">
        <ele>923.8</ele>
        <time>2025-04-30T15:36:46Z</time>
      </trkpt>
      <trkpt lat="45.63748" lon="4.59398">
        <ele>923.8</ele>
        <time>2025-04-30T15:36:47Z</time>
      </trkpt>
      <trkpt lat="45.63748" lon="4.59398">
        <ele>923.8</ele>
        <time>2025-04-30T15:36:48Z</time>
      </trkpt>
      <trkpt lat="45.63748" lon="4.59398">
        <ele>923.8</ele>
        <time>2025-04-30T15:36:49Z</time>
      </trkpt>
      <trkpt lat="45.63748" lon="4.59398">
        <ele>923.8</ele>
        <time>2025-04-30T15:36:50Z</time>
      </trkpt>
      <trkpt lat="45.63748" lon="4.59398">
        <ele>923.8</ele>
        <time>2025-04-30T15:36:51Z</time>
      </trkpt>
      <trkpt lat="45.63748" lon="4.59398">
        <ele>923.8</ele>
        <time>2025-04-30T15:36:52Z</time>
      </trkpt>
      <trkpt lat="45.63748" lon="4.59398">
        <ele>923.8</ele>
        <time>2025-04-30T15:36:53Z</time>
      </trkpt>
      <trkpt lat="45.63748" lon="4.59398">
        <ele>923.8</ele>
        <time>2025-04-30T15:36:54Z</time>
      </trkpt>
      <trkpt lat="45.63748" lon="4.59398">
        <ele>923.8</ele>
        <time>2025-04-30T15:36:55Z</time>
      </trkpt>
      <trkpt lat="45.63748" lon="4.59398">
        <ele>923.8</ele>
        <time>2025-04-30T15:36:56Z</time>
      </trkpt>
      <trkpt lat="45.63748" lon="4.59398">
        <ele>923.8</ele>
        <time>2025-04-30T15:36:57Z</time>
      </trkpt>
      <trkpt lat="45.63748" lon="4.59398">
        <ele>923.8</ele>
        <time>2025-04-30T15:36:58Z</time>
      </trkpt>
      <trkpt lat="45.63748" lon="4.59398">
        <ele>923.8</ele>
        <time>2025-04-30T15:36:59Z</time>
      </trkpt>
      <trkpt lat="45.63748" lon="4.59398">
        <ele>923.8</ele>
        <time>2025-04-30T15:37:00Z</time>
      </trkpt>
      <trkpt lat="45.63748" lon="4.59398">
        <ele>923.8</ele>
        <time>2025-04-30T15:37:01Z</time>
      </trkpt>
      <trkpt lat="45.63748" lon="4.59398">
        <ele>923.8</ele>
        <time>2025-04-30T15:37:02Z</time>
      </trkpt>
      <trkpt lat="45.63748" lon="4.59398">
        <ele>923.8</ele>
        <time>2025-04-30T15:37:03Z</time>
      </trkpt>
      <trkpt lat="45.63748" lon="4.59398">
        <ele>923.8</ele>
        <time>2025-04-30T15:37:04Z</time>
      </trkpt>
      <trkpt lat="45.63748" lon="4.59398">
        <ele>923.8</ele>
        <time>2025-04-30T15:37:05Z</time>
      </trkpt>
      <trkpt lat="45.63748" lon="4.59398">
        <ele>923.8</ele>
        <time>2025-04-30T15:37:06Z</time>
      </trkpt>
      <trkpt lat="45.63748" lon="4.59398">
        <ele>923.8</ele>
        <time>2025-04-30T15:37:07Z</time>
      </trkpt>
      <trkpt lat="45.63748" lon="4.59398">
        <ele>923.8</ele>
        <time>2025-04-30T15:37:08Z</time>
      </trkpt>
      <trkpt lat="45.63748" lon="4.59398">
        <ele>923.8</ele>
        <time>2025-04-30T15:37:09Z</time>
      </trkpt>
      <trkpt lat="45.63748" lon="4.59398">
        <ele>923.8</ele>
        <time>2025-04-30T15:37:10Z</time>
      </trkpt>
      <trkpt lat="45.63748" lon="4.59398">
        <ele>923.8</ele>
        <time>2025-04-30T15:37:11Z</time>
      </trkpt>
      <trkpt lat="45.63748" lon="4.59398">
        <ele>923.8</ele>
        <time>2025-04-30T15:37:12Z</time>
      </trkpt>
      <trkpt lat="45.63748" lon="4.59398">
        <ele>923.8</ele>
        <time>2025-04-30T15:37:13Z</time>
      </trkpt>
      <trkpt lat="45.63748" lon="4.59398">
        <ele>923.8</ele>
        <time>2025-04-30T15:37:14Z</time>
      </trkpt>
      <trkpt lat="45.63748" lon="4.59398">
        <ele>923.8</ele>
        <time>2025-04-30T15:37:15Z</time>
      </trkpt>
      <trkpt lat="45.63748" lon="4.59398">
        <ele>923.8</ele>
        <time>2025-04-30T15:37:16Z</time>
      </trkpt>
      <trkpt lat="45.63748" lon="4.59398">
        <ele>923.8</ele>
        <time>2025-04-30T15:37:17Z</time>
      </trkpt>
      <trkpt lat="45.63748" lon="4.59398">
        <ele>923.8</ele>
        <time>2025-04-30T15:37:18Z</time>
      </trkpt>
      <trkpt lat="45.63748" lon="4.59398">
        <ele>923.8</ele>
        <time>2025-04-30T15:37:19Z</time>
      </trkpt>
      <trkpt lat="45.63748" lon="4.59398">
        <ele>923.8</ele>
        <time>2025-04-30T15:37:20Z</time>
      </trkpt>
      <trkpt lat="45.63748" lon="4.59398">
        <ele>923.8</ele>
        <time>2025-04-30T15:37:21Z</time>
      </trkpt>
      <trkpt lat="45.63748" lon="4.59398">
        <ele>923.8</ele>
        <time>2025-04-30T15:37:22Z</time>
      </trkpt>
      <trkpt lat="45.63748" lon="4.59398">
        <ele>923.8</ele>
        <time>2025-04-30T15:37:23Z</time>
      </trkpt>
      <trkpt lat="45.63748" lon="4.59398">
        <ele>923.8</ele>
        <time>2025-04-30T15:37:24Z</time>
      </trkpt>
      <trkpt lat="45.63748" lon="4.59398">
        <ele>923.8</ele>
        <time>2025-04-30T15:37:25Z</time>
      </trkpt>
      <trkpt lat="45.63748" lon="4.59398">
        <ele>923.8</ele>
        <time>2025-04-30T15:37:26Z</time>
      </trkpt>
      <trkpt lat="45.63748" lon="4.59398">
        <ele>923.8</ele>
        <time>2025-04-30T15:37:27Z</time>
      </trkpt>
      <trkpt lat="45.63748" lon="4.59398">
        <ele>923.8</ele>
        <time>2025-04-30T15:37:28Z</time>
      </trkpt>
      <trkpt lat="45.63748" lon="4.59398">
        <ele>923.8</ele>
        <time>2025-04-30T15:37:29Z</time>
      </trkpt>
      <trkpt lat="45.63748" lon="4.59398">
        <ele>923.8</ele>
        <time>2025-04-30T15:37:30Z</time>
      </trkpt>
      <trkpt lat="45.63748" lon="4.59398">
        <ele>923.8</ele>
        <time>2025-04-30T15:37:31Z</time>
      </trkpt>
      <trkpt lat="45.63748" lon="4.59398">
        <ele>923.8</ele>
        <time>2025-04-30T15:37:32Z</time>
      </trkpt>
      <trkpt lat="45.63748" lon="4.59398">
        <ele>923.8</ele>
        <time>2025-04-30T15:37:33Z</time>
      </trkpt>
      <trkpt lat="45.63748" lon="4.59398">
        <ele>923.8</ele>
        <time>2025-04-30T15:37:34Z</time>
      </trkpt>
      <trkpt lat="45.63748" lon="4.59398">
        <ele>923.8</ele>
        <time>2025-04-30T15:37:35Z</time>
      </trkpt>
      <trkpt lat="45.63748" lon="4.59398">
        <ele>923.8</ele>
        <time>2025-04-30T15:37:36Z</time>
      </trkpt>
      <trkpt lat="45.63748" lon="4.59398">
        <ele>923.8</ele>
        <time>2025-04-30T15:37:37Z</time>
      </trkpt>
      <trkpt lat="45.63748" lon="4.59398">
        <ele>923.8</ele>
        <time>2025-04-30T15:37:38Z</time>
      </trkpt>
      <trkpt lat="45.63748" lon="4.59398">
        <ele>923.8</ele>
        <time>2025-04-30T15:37:39Z</time>
      </trkpt>
      <trkpt lat="45.63748" lon="4.59398">
        <ele>923.8</ele>
        <time>2025-04-30T15:37:40Z</time>
      </trkpt>
      <trkpt lat="45.63748" lon="4.59398">
        <ele>923.8</ele>
        <time>2025-04-30T15:37:41Z</time>
      </trkpt>
      <trkpt lat="45.63748" lon="4.59398">
        <ele>923.8</ele>
        <time>2025-04-30T15:37:42Z</time>
      </trkpt>
      <trkpt lat="45.63748" lon="4.59398">
        <ele>923.8</ele>
        <time>2025-04-30T15:37:43Z</time>
      </trkpt>
      <trkpt lat="45.63748" lon="4.59398">
        <ele>923.8</ele>
        <time>2025-04-30T15:37:44Z</time>
      </trkpt>
      <trkpt lat="45.63748" lon="4.59398">
        <ele>923.8</ele>
        <time>2025-04-30T15:37:45Z</time>
      </trkpt>
      <trkpt lat="45.63748" lon="4.59398">
        <ele>923.8</ele>
        <time>2025-04-30T15:37:46Z</time>
      </trkpt>
      <trkpt lat="45.63748" lon="4.59398">
        <ele>923.8</ele>
        <time>2025-04-30T15:37:47Z</time>
      </trkpt>
      <trkpt lat="45.63748" lon="4.59398">
        <ele>923.8</ele>
        <time>2025-04-30T15:37:48Z</time>
      </trkpt>
      <trkpt lat="45.63748" lon="4.59398">
        <ele>923.8</ele>
        <time>2025-04-30T15:37:49Z</time>
      </trkpt>
      <trkpt lat="45.63748" lon="4.59398">
        <ele>923.8</ele>
        <time>2025-04-30T15:37:50Z</time>
      </trkpt>
      <trkpt lat="45.63748" lon="4.59398">
        <ele>923.8</ele>
        <time>2025-04-30T15:37:51Z</time>
      </trkpt>
      <trkpt lat="45.63748" lon="4.59398">
        <ele>923.8</ele>
        <time>2025-04-30T15:37:52Z</time>
      </trkpt>
      <trkpt lat="45.63748" lon="4.59398">
        <ele>923.8</ele>
        <time>2025-04-30T15:37:53Z</time>
      </trkpt>
      <trkpt lat="45.63748" lon="4.59398">
        <ele>923.8</ele>
        <time>2025-04-30T15:37:54Z</time>
      </trkpt>
      <trkpt lat="45.63748" lon="4.59398">
        <ele>923.8</ele>
        <time>2025-04-30T15:37:55Z</time>
      </trkpt>
      <trkpt lat="45.63748" lon="4.59398">
        <ele>923.8</ele>
        <time>2025-04-30T15:37:56Z</time>
      </trkpt>
      <trkpt lat="45.63748" lon="4.59398">
        <ele>923.8</ele>
        <time>2025-04-30T15:37:57Z</time>
      </trkpt>
      <trkpt lat="45.63748" lon="4.59398">
        <ele>923.8</ele>
        <time>2025-04-30T15:37:58Z</time>
      </trkpt>
      <trkpt lat="45.63748" lon="4.59398">
        <ele>923.8</ele>
        <time>2025-04-30T15:37:59Z</time>
      </trkpt>
      <trkpt lat="45.63748" lon="4.59398">
        <ele>923.8</ele>
        <time>2025-04-30T15:38:00Z</time>
      </trkpt>
      <trkpt lat="45.63748" lon="4.59398">
        <ele>923.8</ele>
        <time>2025-04-30T15:38:01Z</time>
      </trkpt>
      <trkpt lat="45.63748" lon="4.59398">
        <ele>923.8</ele>
        <time>2025-04-30T15:38:02Z</time>
      </trkpt>
      <trkpt lat="45.63748" lon="4.59398">
        <ele>923.8</ele>
        <time>2025-04-30T15:38:03Z</time>
      </trkpt>
      <trkpt lat="45.63748" lon="4.59398">
        <ele>923.8</ele>
        <time>2025-04-30T15:38:04Z</time>
      </trkpt>
      <trkpt lat="45.63748" lon="4.59398">
        <ele>923.8</ele>
        <time>2025-04-30T15:38:05Z</time>
      </trkpt>
      <trkpt lat="45.63748" lon="4.59398">
        <ele>923.8</ele>
        <time>2025-04-30T15:38:06Z</time>
      </trkpt>
      <trkpt lat="45.63748" lon="4.59398">
        <ele>923.8</ele>
        <time>2025-04-30T15:38:07Z</time>
      </trkpt>
      <trkpt lat="45.63748" lon="4.59398">
        <ele>923.8</ele>
        <time>2025-04-30T15:38:08Z</time>
      </trkpt>
      <trkpt lat="45.63748" lon="4.59398">
        <ele>923.8</ele>
        <time>2025-04-30T15:38:09Z</time>
      </trkpt>
      <trkpt lat="45.63748" lon="4.59398">
        <ele>923.8</ele>
        <time>2025-04-30T15:38:10Z</time>
      </trkpt>
      <trkpt lat="45.63748" lon="4.59398">
        <ele>923.8</ele>
        <time>2025-04-30T15:38:11Z</time>
      </trkpt>
      <trkpt lat="45.63748" lon="4.59398">
        <ele>923.8</ele>
        <time>2025-04-30T15:38:12Z</time>
      </trkpt>
      <trkpt lat="45.63748" lon="4.59398">
        <ele>923.8</ele>
        <time>2025-04-30T15:38:13Z</time>
      </trkpt>
      <trkpt lat="45.63748" lon="4.59398">
        <ele>923.8</ele>
        <time>2025-04-30T15:38:14Z</time>
      </trkpt>
      <trkpt lat="45.63748" lon="4.59398">
        <ele>923.8</ele>
        <time>2025-04-30T15:38:15Z</time>
      </trkpt>
      <trkpt lat="45.63748" lon="4.59398">
        <ele>923.8</ele>
        <time>2025-04-30T15:38:16Z</time>
      </trkpt>
      <trkpt lat="45.63748" lon="4.59398">
        <ele>923.8</ele>
        <time>2025-04-30T15:38:17Z</time>
      </trkpt>
      <trkpt lat="45.63748" lon="4.59398">
        <ele>923.8</ele>
        <time>2025-04-30T15:38:18Z</time>
      </trkpt>
      <trkpt lat="45.63748" lon="4.59398">
        <ele>923.8</ele>
        <time>2025-04-30T15:38:19Z</time>
      </trkpt>
      <trkpt lat="45.63748" lon="4.59398">
        <ele>923.8</ele>
        <time>2025-04-30T15:38:20Z</time>
      </trkpt>
      <trkpt lat="45.63748" lon="4.59398">
        <ele>923.8</ele>
        <time>2025-04-30T15:38:21Z</time>
      </trkpt>
      <trkpt lat="45.63748" lon="4.59398">
        <ele>923.8</ele>
        <time>2025-04-30T15:38:22Z</time>
      </trkpt>
      <trkpt lat="45.63748" lon="4.59398">
        <ele>923.8</ele>
        <time>2025-04-30T15:38:23Z</time>
      </trkpt>
      <trkpt lat="45.63748" lon="4.59398">
        <ele>923.8</ele>
        <time>2025-04-30T15:38:24Z</time>
      </trkpt>
      <trkpt lat="45.63748" lon="4.59398">
        <ele>923.8</ele>
        <time>2025-04-30T15:38:25Z</time>
      </trkpt>
      <trkpt lat="45.63748" lon="4.59398">
        <ele>923.8</ele>
        <time>2025-04-30T15:38:26Z</time>
      </trkpt>
      <trkpt lat="45.63748" lon="4.59398">
        <ele>923.8</ele>
        <time>2025-04-30T15:38:27Z</time>
      </trkpt>
      <trkpt lat="45.63748" lon="4.59398">
        <ele>923.8</ele>
        <time>2025-04-30T15:38:28Z</time>
      </trkpt>
      <trkpt lat="45.63748" lon="4.59398">
        <ele>923.8</ele>
        <time>2025-04-30T15:38:29Z</time>
      </trkpt>
      <trkpt lat="45.63748" lon="4.59398">
        <ele>923.8</ele>
        <time>2025-04-30T15:38:30Z</time>
      </trkpt>
      <trkpt lat="45.63748" lon="4.59398">
        <ele>923.8</ele>
        <time>2025-04-30T15:38:31Z</time>
      </trkpt>
      <trkpt lat="45.63748" lon="4.59398">
        <ele>923.8</ele>
        <time>2025-04-30T15:38:32Z</time>
      </trkpt>
      <trkpt lat="45.63748" lon="4.59398">
        <ele>923.8</ele>
        <time>2025-04-30T15:38:33Z</time>
      </trkpt>
      <trkpt lat="45.63748" lon="4.59398">
        <ele>923.8</ele>
        <time>2025-04-30T15:38:34Z</time>
      </trkpt>
      <trkpt lat="45.63748" lon="4.59398">
        <ele>923.8</ele>
        <time>2025-04-30T15:38:35Z</time>
      </trkpt>
      <trkpt lat="45.63748" lon="4.59398">
        <ele>923.8</ele>
        <time>2025-04-30T15:38:36Z</time>
      </trkpt>
      <trkpt lat="45.63748" lon="4.59398">
        <ele>923.8</ele>
        <time>2025-04-30T15:38:37Z</time>
      </trkpt>
      <trkpt lat="45.63748" lon="4.59398">
        <ele>923.8</ele>
        <time>2025-04-30T15:38:38Z</time>
      </trkpt>
      <trkpt lat="45.63748" lon="4.59398">
        <ele>923.8</ele>
        <time>2025-04-30T15:38:39Z</time>
      </trkpt>
      <trkpt lat="45.63748" lon="4.59398">
        <ele>923.8</ele>
        <time>2025-04-30T15:38:40Z</time>
      </trkpt>
      <trkpt lat="45.63748" lon="4.59398">
        <ele>923.8</ele>
        <time>2025-04-30T15:38:41Z</time>
      </trkpt>
      <trkpt lat="45.63748" lon="4.59398">
        <ele>923.8</ele>
        <time>2025-04-30T15:38:42Z</time>
      </trkpt>
      <trkpt lat="45.63748" lon="4.59398">
        <ele>923.8</ele>
        <time>2025-04-30T15:38:43Z</time>
      </trkpt>
      <trkpt lat="45.63748" lon="4.59398">
        <ele>923.8</ele>
        <time>2025-04-30T15:38:44Z</time>
      </trkpt>
      <trkpt lat="45.63748" lon="4.59398">
        <ele>923.8</ele>
        <time>2025-04-30T15:38:45Z</time>
      </trkpt>
      <trkpt lat="45.63748" lon="4.59398">
        <ele>923.8</ele>
        <time>2025-04-30T15:38:46Z</time>
      </trkpt>
      <trkpt lat="45.63748" lon="4.59398">
        <ele>923.8</ele>
        <time>2025-04-30T15:38:47Z</time>
      </trkpt>
      <trkpt lat="45.63748" lon="4.59398">
        <ele>923.8</ele>
        <time>2025-04-30T15:38:48Z</time>
      </trkpt>
      <trkpt lat="45.63748" lon="4.59398">
        <ele>923.8</ele>
        <time>2025-04-30T15:38:49Z</time>
      </trkpt>
      <trkpt lat="45.63748" lon="4.59398">
        <ele>923.8</ele>
        <time>2025-04-30T15:38:50Z</time>
      </trkpt>
      <trkpt lat="45.63748" lon="4.59398">
        <ele>923.8</ele>
        <time>2025-04-30T15:38:51Z</time>
      </trkpt>
      <trkpt lat="45.63748" lon="4.59398">
        <ele>923.8</ele>
        <time>2025-04-30T15:38:52Z</time>
      </trkpt>
      <trkpt lat="45.63748" lon="4.59398">
        <ele>923.8</ele>
        <time>2025-04-30T15:38:53Z</time>
      </trkpt>
      <trkpt lat="45.63748" lon="4.59398">
        <ele>923.8</ele>
        <time>2025-04-30T15:38:54Z</time>
      </trkpt>
      <trkpt lat="45.63748" lon="4.59398">
        <ele>923.8</ele>
        <time>2025-04-30T15:38:55Z</time>
      </trkpt>
      <trkpt lat="45.63748" lon="4.59398">
        <ele>923.8</ele>
        <time>2025-04-30T15:38:56Z</time>
      </trkpt>
      <trkpt lat="45.63748" lon="4.59398">
        <ele>923.8</ele>
        <time>2025-04-30T15:38:57Z</time>
      </trkpt>
      <trkpt lat="45.63748" lon="4.59398">
        <ele>923.8</ele>
        <time>2025-04-30T15:38:58Z</time>
      </trkpt>
      <trkpt lat="45.63748" lon="4.59398">
        <ele>923.8</ele>
        <time>2025-04-30T15:38:59Z</time>
      </trkpt>
      <trkpt lat="45.63748" lon="4.59398">
        <ele>923.8</ele>
        <time>2025-04-30T15:39:00Z</time>
      </trkpt>
      <trkpt lat="45.63748" lon="4.59398">
        <ele>923.8</ele>
        <time>2025-04-30T15:39:01Z</time>
      </trkpt>
      <trkpt lat="45.63748" lon="4.59398">
        <ele>923.8</ele>
        <time>2025-04-30T15:39:02Z</time>
      </trkpt>
      <trkpt lat="45.63748" lon="4.59398">
        <ele>923.8</ele>
        <time>2025-04-30T15:39:03Z</time>
      </trkpt>
      <trkpt lat="45.63748" lon="4.59398">
        <ele>923.8</ele>
        <time>2025-04-30T15:39:04Z</time>
      </trkpt>
      <trkpt lat="45.63748" lon="4.59398">
        <ele>923.8</ele>
        <time>2025-04-30T15:39:05Z</time>
      </trkpt>
      <trkpt lat="45.63748" lon="4.59398">
        <ele>923.8</ele>
        <time>2025-04-30T15:39:06Z</time>
      </trkpt>
      <trkpt lat="45.63748" lon="4.59398">
        <ele>923.8</ele>
        <time>2025-04-30T15:39:07Z</time>
      </trkpt>
      <trkpt lat="45.63748" lon="4.59398">
        <ele>923.8</ele>
        <time>2025-04-30T15:39:08Z</time>
      </trkpt>
      <trkpt lat="45.63748" lon="4.59398">
        <ele>923.8</ele>
        <time>2025-04-30T15:39:09Z</time>
      </trkpt>
      <trkpt lat="45.63748" lon="4.59398">
        <ele>923.8</ele>
        <time>2025-04-30T15:39:10Z</time>
      </trkpt>
      <trkpt lat="45.63748" lon="4.59398">
        <ele>923.8</ele>
        <time>2025-04-30T15:39:11Z</time>
      </trkpt>
      <trkpt lat="45.63748" lon="4.59398">
        <ele>923.8</ele>
        <time>2025-04-30T15:39:12Z</time>
      </trkpt>
      <trkpt lat="45.63748" lon="4.59398">
        <ele>923.8</ele>
        <time>2025-04-30T15:39:13Z</time>
      </trkpt>
      <trkpt lat="45.63748" lon="4.59398">
        <ele>923.8</ele>
        <time>2025-04-30T15:39:14Z</time>
      </trkpt>
      <trkpt lat="45.63748" lon="4.59398">
        <ele>923.8</ele>
        <time>2025-04-30T15:39:15Z</time>
      </trkpt>
      <trkpt lat="45.63748" lon="4.59398">
        <ele>923.8</ele>
        <time>2025-04-30T15:39:16Z</time>
      </trkpt>
      <trkpt lat="45.63748" lon="4.59398">
        <ele>923.8</ele>
        <time>2025-04-30T15:39:17Z</time>
      </trkpt>
      <trkpt lat="45.63748" lon="4.59398">
        <ele>923.8</ele>
        <time>2025-04-30T15:39:18Z</time>
      </trkpt>
      <trkpt lat="45.63748" lon="4.59398">
        <ele>923.8</ele>
        <time>2025-04-30T15:39:19Z</time>
      </trkpt>
      <trkpt lat="45.63748" lon="4.59398">
        <ele>923.8</ele>
        <time>2025-04-30T15:39:20Z</time>
      </trkpt>
      <trkpt lat="45.63748" lon="4.59398">
        <ele>923.8</ele>
        <time>2025-04-30T15:39:21Z</time>
      </trkpt>
      <trkpt lat="45.63748" lon="4.59398">
        <ele>923.8</ele>
        <time>2025-04-30T15:39:22Z</time>
      </trkpt>
      <trkpt lat="45.63748" lon="4.59398">
        <ele>923.8</ele>
        <time>2025-04-30T15:39:23Z</time>
      </trkpt>
      <trkpt lat="45.63748" lon="4.59398">
        <ele>923.8</ele>
        <time>2025-04-30T15:39:24Z</time>
      </trkpt>
      <trkpt lat="45.63748" lon="4.59398">
        <ele>923.8</ele>
        <time>2025-04-30T15:39:25Z</time>
      </trkpt>
      <trkpt lat="45.63748" lon="4.59398">
        <ele>923.8</ele>
        <time>2025-04-30T15:39:26Z</time>
      </trkpt>
      <trkpt lat="45.63748" lon="4.59398">
        <ele>923.8</ele>
        <time>2025-04-30T15:39:27Z</time>
      </trkpt>
      <trkpt lat="45.63748" lon="4.59398">
        <ele>923.8</ele>
        <time>2025-04-30T15:39:28Z</time>
      </trkpt>
      <trkpt lat="45.63748" lon="4.59398">
        <ele>923.8</ele>
        <time>2025-04-30T15:39:29Z</time>
      </trkpt>
      <trkpt lat="45.63748" lon="4.59398">
        <ele>923.8</ele>
        <time>2025-04-30T15:39:30Z</time>
      </trkpt>
      <trkpt lat="45.63748" lon="4.59398">
        <ele>923.8</ele>
        <time>2025-04-30T15:39:31Z</time>
      </trkpt>
      <trkpt lat="45.63748" lon="4.59398">
        <ele>923.8</ele>
        <time>2025-04-30T15:39:32Z</time>
      </trkpt>
      <trkpt lat="45.63748" lon="4.59398">
        <ele>923.8</ele>
        <time>2025-04-30T15:39:33Z</time>
      </trkpt>
      <trkpt lat="45.63748" lon="4.59398">
        <ele>923.8</ele>
        <time>2025-04-30T15:39:34Z</time>
      </trkpt>
      <trkpt lat="45.63748" lon="4.59398">
        <ele>923.8</ele>
        <time>2025-04-30T15:39:35Z</time>
      </trkpt>
      <trkpt lat="45.63748" lon="4.59398">
        <ele>923.8</ele>
        <time>2025-04-30T15:39:36Z</time>
      </trkpt>
      <trkpt lat="45.63748" lon="4.59398">
        <ele>923.8</ele>
        <time>2025-04-30T15:39:37Z</time>
      </trkpt>
      <trkpt lat="45.63748" lon="4.59398">
        <ele>923.8</ele>
        <time>2025-04-30T15:39:38Z</time>
      </trkpt>
      <trkpt lat="45.63748" lon="4.59398">
        <ele>923.8</ele>
        <time>2025-04-30T15:39:39Z</time>
      </trkpt>
      <trkpt lat="45.63748" lon="4.59398">
        <ele>923.8</ele>
        <time>2025-04-30T15:39:40Z</time>
      </trkpt>
      <trkpt lat="45.63748" lon="4.59398">
        <ele>923.8</ele>
        <time>2025-04-30T15:39:41Z</time>
      </trkpt>
      <trkpt lat="45.63748" lon="4.59398">
        <ele>923.8</ele>
        <time>2025-04-30T15:39:42Z</time>
      </trkpt>
      <trkpt lat="45.63748" lon="4.59398">
        <ele>923.8</ele>
        <time>2025-04-30T15:39:43Z</time>
      </trkpt>
      <trkpt lat="45.63748" lon="4.59398">
        <ele>923.8</ele>
        <time>2025-04-30T15:39:44Z</time>
      </trkpt>
      <trkpt lat="45.63748" lon="4.59398">
        <ele>923.8</ele>
        <time>2025-04-30T15:39:45Z</time>
      </trkpt>
      <trkpt lat="45.63748" lon="4.59398">
        <ele>923.8</ele>
        <time>2025-04-30T15:39:46Z</time>
      </trkpt>
      <trkpt lat="45.63748" lon="4.59398">
        <ele>923.8</ele>
        <time>2025-04-30T15:39:47Z</time>
      </trkpt>
      <trkpt lat="45.63748" lon="4.59398">
        <ele>923.8</ele>
        <time>2025-04-30T15:39:48Z</time>
      </trkpt>
      <trkpt lat="45.63748" lon="4.59398">
        <ele>923.8</ele>
        <time>2025-04-30T15:39:49Z</time>
      </trkpt>
      <trkpt lat="45.63748" lon="4.59398">
        <ele>923.8</ele>
        <time>2025-04-30T15:39:50Z</time>
      </trkpt>
      <trkpt lat="45.63748" lon="4.59398">
        <ele>923.8</ele>
        <time>2025-04-30T15:39:51Z</time>
      </trkpt>
      <trkpt lat="45.63748" lon="4.59398">
        <ele>923.8</ele>
        <time>2025-04-30T15:39:52Z</time>
      </trkpt>
      <trkpt lat="45.63748" lon="4.59398">
        <ele>923.8</ele>
        <time>2025-04-30T15:39:53Z</time>
      </trkpt>
      <trkpt lat="45.63748" lon="4.59398">
        <ele>923.8</ele>
        <time>2025-04-30T15:39:54Z</time>
      </trkpt>
      <trkpt lat="45.63748" lon="4.59398">
        <ele>923.8</ele>
        <time>2025-04-30T15:39:55Z</time>
      </trkpt>
      <trkpt lat="45.63748" lon="4.59398">
        <ele>923.8</ele>
        <time>2025-04-30T15:39:56Z</time>
      </trkpt>
      <trkpt lat="45.63748" lon="4.59398">
        <ele>923.8</ele>
        <time>2025-04-30T15:39:57Z</time>
      </trkpt>
      <trkpt lat="45.63748" lon="4.59398">
        <ele>923.8</ele>
        <time>2025-04-30T15:39:58Z</time>
      </trkpt>
      <trkpt lat="45.63748" lon="4.59398">
        <ele>923.8</ele>
        <time>2025-04-30T15:39:59Z</time>
      </trkpt>
      <trkpt lat="45.63748" lon="4.59398">
        <ele>923.8</ele>
        <time>2025-04-30T15:40:00Z</time>
      </trkpt>
      <trkpt lat="45.63748" lon="4.59398">
        <ele>923.8</ele>
        <time>2025-04-30T15:40:01Z</time>
      </trkpt>
      <trkpt lat="45.63748" lon="4.59398">
        <ele>923.8</ele>
        <time>2025-04-30T15:40:02Z</time>
      </trkpt>
      <trkpt lat="45.63748" lon="4.59398">
        <ele>923.8</ele>
        <time>2025-04-30T15:40:03Z</time>
      </trkpt>
      <trkpt lat="45.63748" lon="4.59398">
        <ele>923.8</ele>
        <time>2025-04-30T15:40:04Z</time>
      </trkpt>
      <trkpt lat="45.63748" lon="4.59398">
        <ele>923.8</ele>
        <time>2025-04-30T15:40:05Z</time>
      </trkpt>
      <trkpt lat="45.63748" lon="4.59398">
        <ele>923.8</ele>
        <time>2025-04-30T15:40:06Z</time>
      </trkpt>
      <trkpt lat="45.63748" lon="4.59398">
        <ele>923.8</ele>
        <time>2025-04-30T15:40:07Z</time>
      </trkpt>
      <trkpt lat="45.63748" lon="4.59398">
        <ele>923.8</ele>
        <time>2025-04-30T15:40:08Z</time>
      </trkpt>
      <trkpt lat="45.63748" lon="4.59398">
        <ele>923.8</ele>
        <time>2025-04-30T15:40:09Z</time>
      </trkpt>
      <trkpt lat="45.63748" lon="4.59398">
        <ele>923.8</ele>
        <time>2025-04-30T15:40:10Z</time>
      </trkpt>
      <trkpt lat="45.63748" lon="4.59398">
        <ele>923.8</ele>
        <time>2025-04-30T15:40:11Z</time>
      </trkpt>
      <trkpt lat="45.63748" lon="4.59398">
        <ele>923.8</ele>
        <time>2025-04-30T15:40:12Z</time>
      </trkpt>
      <trkpt lat="45.63748" lon="4.59398">
        <ele>923.8</ele>
        <time>2025-04-30T15:40:13Z</time>
      </trkpt>
      <trkpt lat="45.63748" lon="4.59398">
        <ele>923.8</ele>
        <time>2025-04-30T15:40:14Z</time>
      </trkpt>
      <trkpt lat="45.63748" lon="4.59398">
        <ele>923.8</ele>
        <time>2025-04-30T15:40:15Z</time>
      </trkpt>
      <trkpt lat="45.63748" lon="4.59398">
        <ele>923.8</ele>
        <time>2025-04-30T15:40:16Z</time>
      </trkpt>
      <trkpt lat="45.63748" lon="4.59398">
        <ele>923.8</ele>
        <time>2025-04-30T15:40:17Z</time>
      </trkpt>
      <trkpt lat="45.63748" lon="4.59398">
        <ele>923.8</ele>
        <time>2025-04-30T15:40:18Z</time>
      </trkpt>
      <trkpt lat="45.63748" lon="4.59398">
        <ele>923.8</ele>
        <time>2025-04-30T15:40:19Z</time>
      </trkpt>
      <trkpt lat="45.63748" lon="4.59398">
        <ele>923.8</ele>
        <time>2025-04-30T15:40:20Z</time>
      </trkpt>
      <trkpt lat="45.63748" lon="4.59398">
        <ele>923.8</ele>
        <time>2025-04-30T15:40:21Z</time>
      </trkpt>
      <trkpt lat="45.63748" lon="4.59398">
        <ele>923.8</ele>
        <time>2025-04-30T15:40:22Z</time>
      </trkpt>
      <trkpt lat="45.63748" lon="4.59398">
        <ele>923.8</ele>
        <time>2025-04-30T15:40:23Z</time>
      </trkpt>
      <trkpt lat="45.63748" lon="4.59398">
        <ele>923.8</ele>
        <time>2025-04-30T15:40:24Z</time>
      </trkpt>
      <trkpt lat="45.63748" lon="4.59398">
        <ele>923.8</ele>
        <time>2025-04-30T15:40:25Z</time>
      </trkpt>
      <trkpt lat="45.63748" lon="4.59398">
        <ele>923.8</ele>
        <time>2025-04-30T15:40:26Z</time>
      </trkpt>
      <trkpt lat="45.63748" lon="4.59398">
        <ele>923.8</ele>
        <time>2025-04-30T15:40:27Z</time>
      </trkpt>
      <trkpt lat="45.63748" lon="4.59398">
        <ele>923.8</ele>
        <time>2025-04-30T15:40:28Z</time>
      </trkpt>
      <trkpt lat="45.63748" lon="4.59398">
        <ele>923.8</ele>
        <time>2025-04-30T15:40:29Z</time>
      </trkpt>
      <trkpt lat="45.63748" lon="4.59398">
        <ele>923.8</ele>
        <time>2025-04-30T15:40:30Z</time>
      </trkpt>
      <trkpt lat="45.63748" lon="4.59398">
        <ele>923.8</ele>
        <time>2025-04-30T15:40:31Z</time>
      </trkpt>
      <trkpt lat="45.63748" lon="4.59398">
        <ele>923.8</ele>
        <time>2025-04-30T15:40:32Z</time>
      </trkpt>
      <trkpt lat="45.63748" lon="4.59398">
        <ele>923.8</ele>
        <time>2025-04-30T15:40:33Z</time>
      </trkpt>
      <trkpt lat="45.63748" lon="4.59398">
        <ele>923.8</ele>
        <time>2025-04-30T15:40:34Z</time>
      </trkpt>
      <trkpt lat="45.63748" lon="4.59398">
        <ele>923.8</ele>
        <time>2025-04-30T15:40:35Z</time>
      </trkpt>
      <trkpt lat="45.63748" lon="4.59398">
        <ele>923.8</ele>
        <time>2025-04-30T15:40:36Z</time>
      </trkpt>
      <trkpt lat="45.63748" lon="4.59398">
        <ele>923.8</ele>
        <time>2025-04-30T15:40:37Z</time>
      </trkpt>
      <trkpt lat="45.63748" lon="4.59398">
        <ele>923.8</ele>
        <time>2025-04-30T15:40:38Z</time>
      </trkpt>
      <trkpt lat="45.63748" lon="4.59398">
        <ele>923.8</ele>
        <time>2025-04-30T15:40:39Z</time>
      </trkpt>
      <trkpt lat="45.63748" lon="4.59398">
        <ele>923.8</ele>
        <time>2025-04-30T15:40:40Z</time>
      </trkpt>
      <trkpt lat="45.63748" lon="4.59398">
        <ele>923.8</ele>
        <time>2025-04-30T15:40:41Z</time>
      </trkpt>
      <trkpt lat="45.63748" lon="4.59398">
        <ele>923.8</ele>
        <time>2025-04-30T15:40:42Z</time>
      </trkpt>
      <trkpt lat="45.63748" lon="4.59398">
        <ele>923.8</ele>
        <time>2025-04-30T15:40:43Z</time>
      </trkpt>
      <trkpt lat="45.63748" lon="4.59398">
        <ele>923.8</ele>
        <time>2025-04-30T15:40:44Z</time>
      </trkpt>
      <trkpt lat="45.63748" lon="4.59398">
        <ele>923.8</ele>
        <time>2025-04-30T15:40:45Z</time>
      </trkpt>
      <trkpt lat="45.63748" lon="4.59398">
        <ele>923.8</ele>
        <time>2025-04-30T15:40:46Z</time>
      </trkpt>
      <trkpt lat="45.63748" lon="4.59398">
        <ele>923.8</ele>
        <time>2025-04-30T15:40:47Z</time>
      </trkpt>
      <trkpt lat="45.63748" lon="4.59398">
        <ele>923.8</ele>
        <time>2025-04-30T15:40:48Z</time>
      </trkpt>
      <trkpt lat="45.63748" lon="4.59398">
        <ele>923.8</ele>
        <time>2025-04-30T15:40:49Z</time>
      </trkpt>
      <trkpt lat="45.63748" lon="4.59398">
        <ele>923.8</ele>
        <time>2025-04-30T15:40:50Z</time>
      </trkpt>
      <trkpt lat="45.63748" lon="4.59398">
        <ele>923.8</ele>
        <time>2025-04-30T15:40:51Z</time>
      </trkpt>
      <trkpt lat="45.63748" lon="4.59398">
        <ele>923.8</ele>
        <time>2025-04-30T15:40:52Z</time>
      </trkpt>
      <trkpt lat="45.63748" lon="4.59398">
        <ele>923.8</ele>
        <time>2025-04-30T15:40:53Z</time>
      </trkpt>
      <trkpt lat="45.63748" lon="4.59398">
        <ele>923.8</ele>
        <time>2025-04-30T15:40:54Z</time>
      </trkpt>
      <trkpt lat="45.63748" lon="4.59398">
        <ele>923.8</ele>
        <time>2025-04-30T15:40:55Z</time>
      </trkpt>
      <trkpt lat="45.63748" lon="4.59398">
        <ele>923.8</ele>
        <time>2025-04-30T15:40:56Z</time>
      </trkpt>
      <trkpt lat="45.63748" lon="4.59398">
        <ele>923.8</ele>
        <time>2025-04-30T15:40:57Z</time>
      </trkpt>
      <trkpt lat="45.63748" lon="4.59398">
        <ele>923.8</ele>
        <time>2025-04-30T15:40:58Z</time>
      </trkpt>
      <trkpt lat="45.63748" lon="4.59398">
        <ele>923.8</ele>
        <time>2025-04-30T15:40:59Z</time>
      </trkpt>
      <trkpt lat="45.63748" lon="4.59398">
        <ele>923.8</ele>
        <time>2025-04-30T15:41:00Z</time>
      </trkpt>
      <trkpt lat="45.63748" lon="4.59398">
        <ele>923.8</ele>
        <time>2025-04-30T15:41:01Z</time>
      </trkpt>
      <trkpt lat="45.63748" lon="4.59398">
        <ele>923.8</ele>
        <time>2025-04-30T15:41:02Z</time>
      </trkpt>
      <trkpt lat="45.63748" lon="4.59398">
        <ele>923.8</ele>
        <time>2025-04-30T15:41:03Z</time>
      </trkpt>
      <trkpt lat="45.63748" lon="4.59398">
        <ele>923.8</ele>
        <time>2025-04-30T15:41:04Z</time>
      </trkpt>
      <trkpt lat="45.63748" lon="4.59398">
        <ele>923.8</ele>
        <time>2025-04-30T15:41:05Z</time>
      </trkpt>
      <trkpt lat="45.63748" lon="4.59398">
        <ele>923.8</ele>
        <time>2025-04-30T15:41:06Z</time>
      </trkpt>
      <trkpt lat="45.63748" lon="4.59398">
        <ele>923.8</ele>
        <time>2025-04-30T15:41:07Z</time>
      </trkpt>
      <trkpt lat="45.63748" lon="4.59398">
        <ele>923.8</ele>
        <time>2025-04-30T15:41:08Z</time>
      </trkpt>
      <trkpt lat="45.63748" lon="4.59398">
        <ele>923.8</ele>
        <time>2025-04-30T15:41:09Z</time>
      </trkpt>
      <trkpt lat="45.63748" lon="4.59398">
        <ele>923.8</ele>
        <time>2025-04-30T15:41:10Z</time>
      </trkpt>
      <trkpt lat="45.63748" lon="4.59398">
        <ele>923.8</ele>
        <time>2025-04-30T15:41:11Z</time>
      </trkpt>
      <trkpt lat="45.63748" lon="4.59398">
        <ele>923.8</ele>
        <time>2025-04-30T15:41:12Z</time>
      </trkpt>
      <trkpt lat="45.63748" lon="4.59398">
        <ele>923.8</ele>
        <time>2025-04-30T15:41:13Z</time>
      </trkpt>
      <trkpt lat="45.63748" lon="4.59398">
        <ele>923.8</ele>
        <time>2025-04-30T15:41:14Z</time>
      </trkpt>
      <trkpt lat="45.63748" lon="4.59398">
        <ele>923.8</ele>
        <time>2025-04-30T15:41:15Z</time>
      </trkpt>
      <trkpt lat="45.63748" lon="4.59398">
        <ele>923.8</ele>
        <time>2025-04-30T15:41:16Z</time>
      </trkpt>
      <trkpt lat="45.63748" lon="4.59398">
        <ele>923.8</ele>
        <time>2025-04-30T15:41:17Z</time>
      </trkpt>
      <trkpt lat="45.63748" lon="4.59398">
        <ele>923.8</ele>
        <time>2025-04-30T15:41:18Z</time>
      </trkpt>
      <trkpt lat="45.63748" lon="4.59398">
        <ele>923.8</ele>
        <time>2025-04-30T15:41:19Z</time>
      </trkpt>
      <trkpt lat="45.63748" lon="4.59398">
        <ele>923.8</ele>
        <time>2025-04-30T15:41:20Z</time>
      </trkpt>
      <trkpt lat="45.63748" lon="4.59398">
        <ele>923.8</ele>
        <time>2025-04-30T15:41:21Z</time>
      </trkpt>
      <trkpt lat="45.63748" lon="4.59398">
        <ele>923.8</ele>
        <time>2025-04-30T15:41:22Z</time>
      </trkpt>
      <trkpt lat="45.63748" lon="4.59398">
        <ele>923.8</ele>
        <time>2025-04-30T15:41:23Z</time>
      </trkpt>
      <trkpt lat="45.63748" lon="4.59398">
        <ele>923.8</ele>
        <time>2025-04-30T15:41:24Z</time>
      </trkpt>
      <trkpt lat="45.63748" lon="4.59398">
        <ele>923.8</ele>
        <time>2025-04-30T15:41:25Z</time>
      </trkpt>
      <trkpt lat="45.63748" lon="4.59398">
        <ele>923.8</ele>
        <time>2025-04-30T15:41:26Z</time>
      </trkpt>
      <trkpt lat="45.63748" lon="4.59398">
        <ele>923.8</ele>
        <time>2025-04-30T15:41:27Z</time>
      </trkpt>
      <trkpt lat="45.63748" lon="4.59398">
        <ele>923.8</ele>
        <time>2025-04-30T15:41:28Z</time>
      </trkpt>
      <trkpt lat="45.63748" lon="4.59398">
        <ele>923.8</ele>
        <time>2025-04-30T15:41:29Z</time>
      </trkpt>
      <trkpt lat="45.63748" lon="4.59398">
        <ele>923.8</ele>
        <time>2025-04-30T15:41:30Z</time>
      </trkpt>
      <trkpt lat="45.63748" lon="4.59398">
        <ele>923.8</ele>
        <time>2025-04-30T15:41:31Z</time>
      </trkpt>
      <trkpt lat="45.63748" lon="4.59398">
        <ele>923.8</ele>
        <time>2025-04-30T15:41:32Z</time>
      </trkpt>
      <trkpt lat="45.63748" lon="4.59398">
        <ele>923.8</ele>
        <time>2025-04-30T15:41:33Z</time>
      </trkpt>
      <trkpt lat="45.63748" lon="4.59398">
        <ele>923.8</ele>
        <time>2025-04-30T15:41:34Z</time>
      </trkpt>
      <trkpt lat="45.63748" lon="4.59398">
        <ele>923.8</ele>
        <time>2025-04-30T15:41:35Z</time>
      </trkpt>
      <trkpt lat="45.63748" lon="4.59398">
        <ele>923.8</ele>
        <time>2025-04-30T15:41:36Z</time>
      </trkpt>
      <trkpt lat="45.63748" lon="4.59398">
        <ele>923.8</ele>
        <time>2025-04-30T15:41:37Z</time>
      </trkpt>
      <trkpt lat="45.63748" lon="4.59398">
        <ele>923.8</ele>
        <time>2025-04-30T15:41:38Z</time>
      </trkpt>
      <trkpt lat="45.63748" lon="4.59398">
        <ele>923.8</ele>
        <time>2025-04-30T15:41:39Z</time>
      </trkpt>
      <trkpt lat="45.63748" lon="4.59398">
        <ele>923.8</ele>
        <time>2025-04-30T15:41:40Z</time>
      </trkpt>
      <trkpt lat="45.63748" lon="4.59398">
        <ele>923.8</ele>
        <time>2025-04-30T15:41:41Z</time>
      </trkpt>
      <trkpt lat="45.63748" lon="4.59398">
        <ele>923.8</ele>
        <time>2025-04-30T15:41:42Z</time>
      </trkpt>
      <trkpt lat="45.63748" lon="4.59398">
        <ele>923.8</ele>
        <time>2025-04-30T15:41:43Z</time>
      </trkpt>
      <trkpt lat="45.63748" lon="4.59398">
        <ele>923.8</ele>
        <time>2025-04-30T15:41:44Z</time>
      </trkpt>
      <trkpt lat="45.63748" lon="4.59398">
        <ele>923.8</ele>
        <time>2025-04-30T15:41:45Z</time>
      </trkpt>
      <trkpt lat="45.63748" lon="4.59398">
        <ele>923.8</ele>
        <time>2025-04-30T15:41:46Z</time>
      </trkpt>
      <trkpt lat="45.63748" lon="4.59398">
        <ele>923.8</ele>
        <time>2025-04-30T15:41:47Z</time>
      </trkpt>
      <trkpt lat="45.63748" lon="4.59398">
        <ele>923.8</ele>
        <time>2025-04-30T15:41:48Z</time>
      </trkpt>
      <trkpt lat="45.63748" lon="4.59398">
        <ele>923.8</ele>
        <time>2025-04-30T15:41:49Z</time>
      </trkpt>
      <trkpt lat="45.63748" lon="4.59398">
        <ele>923.8</ele>
        <time>2025-04-30T15:41:50Z</time>
      </trkpt>
      <trkpt lat="45.63748" lon="4.59398">
        <ele>923.8</ele>
        <time>2025-04-30T15:41:51Z</time>
      </trkpt>
      <trkpt lat="45.63748" lon="4.59398">
        <ele>923.8</ele>
        <time>2025-04-30T15:41:52Z</time>
      </trkpt>
      <trkpt lat="45.63748" lon="4.59398">
        <ele>923.8</ele>
        <time>2025-04-30T15:41:53Z</time>
      </trkpt>
      <trkpt lat="45.63748" lon="4.59398">
        <ele>923.8</ele>
        <time>2025-04-30T15:41:54Z</time>
      </trkpt>
      <trkpt lat="45.63748" lon="4.59398">
        <ele>923.8</ele>
        <time>2025-04-30T15:41:55Z</time>
      </trkpt>
      <trkpt lat="45.63748" lon="4.59397">
        <ele>923.6</ele>
        <time>2025-04-30T15:41:56Z</time>
      </trkpt>
      <trkpt lat="45.63748" lon="4.59396">
        <ele>923.4</ele>
        <time>2025-04-30T15:41:57Z</time>
      </trkpt>
      <trkpt lat="45.63748" lon="4.59396">
        <ele>922.4</ele>
        <time>2025-04-30T15:41:58Z</time>
      </trkpt>
      <trkpt lat="45.63748" lon="4.59396">
        <ele>919.8</ele>
        <time>2025-04-30T15:41:59Z</time>
      </trkpt>
      <trkpt lat="45.63748" lon="4.59396">
        <ele>919.8</ele>
        <time>2025-04-30T15:42:00Z</time>
      </trkpt>
      <trkpt lat="45.63748" lon="4.59396">
        <ele>919.8</ele>
        <time>2025-04-30T15:42:01Z</time>
      </trkpt>
      <trkpt lat="45.63748" lon="4.59396">
        <ele>920.2</ele>
        <time>2025-04-30T15:42:02Z</time>
      </trkpt>
      <trkpt lat="45.63748" lon="4.59396">
        <ele>920.8</ele>
        <time>2025-04-30T15:42:03Z</time>
      </trkpt>
      <trkpt lat="45.63748" lon="4.59396">
        <ele>921.8</ele>
        <time>2025-04-30T15:42:04Z</time>
      </trkpt>
      <trkpt lat="45.63748" lon="4.59396">
        <ele>923.6</ele>
        <time>2025-04-30T15:42:05Z</time>
      </trkpt>
      <trkpt lat="45.63748" lon="4.59396">
        <ele>927.8</ele>
        <time>2025-04-30T15:42:06Z</time>
      </trkpt>
      <trkpt lat="45.63748" lon="4.59396">
        <ele>927.8</ele>
        <time>2025-04-30T15:42:07Z</time>
      </trkpt>
      <trkpt lat="45.63748" lon="4.59396">
        <ele>927.8</ele>
        <time>2025-04-30T15:42:08Z</time>
      </trkpt>
      <trkpt lat="45.63748" lon="4.59396">
        <ele>927.8</ele>
        <time>2025-04-30T15:42:09Z</time>
      </trkpt>
      <trkpt lat="45.63748" lon="4.59396">
        <ele>926.6</ele>
        <time>2025-04-30T15:42:10Z</time>
      </trkpt>
      <trkpt lat="45.63748" lon="4.59396">
        <ele>925.8</ele>
        <time>2025-04-30T15:42:11Z</time>
      </trkpt>
      <trkpt lat="45.63748" lon="4.59396">
        <ele>925.2</ele>
        <time>2025-04-30T15:42:12Z</time>
      </trkpt>
      <trkpt lat="45.63748" lon="4.59396">
        <ele>924.8</ele>
        <time>2025-04-30T15:42:13Z</time>
      </trkpt>
      <trkpt lat="45.63748" lon="4.59396">
        <ele>924.4</ele>
        <time>2025-04-30T15:42:14Z</time>
      </trkpt>
      <trkpt lat="45.63748" lon="4.59396">
        <ele>924.2</ele>
        <time>2025-04-30T15:42:15Z</time>
      </trkpt>
      <trkpt lat="45.63748" lon="4.59396">
        <ele>924.2</ele>
        <time>2025-04-30T15:42:16Z</time>
      </trkpt>
      <trkpt lat="45.63748" lon="4.59396">
        <ele>924</ele>
        <time>2025-04-30T15:42:17Z</time>
      </trkpt>
      <trkpt lat="45.63748" lon="4.59396">
        <ele>924</ele>
        <time>2025-04-30T15:42:18Z</time>
      </trkpt>
      <trkpt lat="45.63748" lon="4.59396">
        <ele>924</ele>
        <time>2025-04-30T15:42:19Z</time>
      </trkpt>
      <trkpt lat="45.63748" lon="4.59396">
        <ele>924</ele>
        <time>2025-04-30T15:42:20Z</time>
      </trkpt>
      <trkpt lat="45.63748" lon="4.59396">
        <ele>923.8</ele>
        <time>2025-04-30T15:42:21Z</time>
      </trkpt>
      <trkpt lat="45.63748" lon="4.59396">
        <ele>923.8</ele>
        <time>2025-04-30T15:42:22Z</time>
      </trkpt>
      <trkpt lat="45.63748" lon="4.59396">
        <ele>923.8</ele>
        <time>2025-04-30T15:42:23Z</time>
      </trkpt>
      <trkpt lat="45.63748" lon="4.59396">
        <ele>923.8</ele>
        <time>2025-04-30T15:42:24Z</time>
      </trkpt>
      <trkpt lat="45.63748" lon="4.59396">
        <ele>923.8</ele>
        <time>2025-04-30T15:42:25Z</time>
      </trkpt>
      <trkpt lat="45.63748" lon="4.59396">
        <ele>923.8</ele>
        <time>2025-04-30T15:42:26Z</time>
      </trkpt>
      <trkpt lat="45.63748" lon="4.59396">
        <ele>923.8</ele>
        <time>2025-04-30T15:42:27Z</time>
      </trkpt>
      <trkpt lat="45.63748" lon="4.59396">
        <ele>923.8</ele>
        <time>2025-04-30T15:42:28Z</time>
      </trkpt>
      <trkpt lat="45.63748" lon="4.59396">
        <ele>923.8</ele>
        <time>2025-04-30T15:42:29Z</time>
      </trkpt>
      <trkpt lat="45.63748" lon="4.59396">
        <ele>923.8</ele>
        <time>2025-04-30T15:42:30Z</time>
      </trkpt>
      <trkpt lat="45.63748" lon="4.59396">
        <ele>923.8</ele>
        <time>2025-04-30T15:42:31Z</time>
      </trkpt>
      <trkpt lat="45.63748" lon="4.59396">
        <ele>923.8</ele>
        <time>2025-04-30T15:42:32Z</time>
      </trkpt>
      <trkpt lat="45.63748" lon="4.59396">
        <ele>923.8</ele>
        <time>2025-04-30T15:42:33Z</time>
      </trkpt>
      <trkpt lat="45.63748" lon="4.59396">
        <ele>923.8</ele>
        <time>2025-04-30T15:42:34Z</time>
      </trkpt>
      <trkpt lat="45.63748" lon="4.59396">
        <ele>923.8</ele>
        <time>2025-04-30T15:42:35Z</time>
      </trkpt>
      <trkpt lat="45.63748" lon="4.59396">
        <ele>923.8</ele>
        <time>2025-04-30T15:42:36Z</time>
      </trkpt>
      <trkpt lat="45.63748" lon="4.59396">
        <ele>923.8</ele>
        <time>2025-04-30T15:42:37Z</time>
      </trkpt>
      <trkpt lat="45.63748" lon="4.59396">
        <ele>923.8</ele>
        <time>2025-04-30T15:42:38Z</time>
      </trkpt>
      <trkpt lat="45.63748" lon="4.59396">
        <ele>923.8</ele>
        <time>2025-04-30T15:42:39Z</time>
      </trkpt>
      <trkpt lat="45.63748" lon="4.59396">
        <ele>923.8</ele>
        <time>2025-04-30T15:42:40Z</time>
      </trkpt>
      <trkpt lat="45.63748" lon="4.59396">
        <ele>923.8</ele>
        <time>2025-04-30T15:42:41Z</time>
      </trkpt>
      <trkpt lat="45.63748" lon="4.59396">
        <ele>923.8</ele>
        <time>2025-04-30T15:42:42Z</time>
      </trkpt>
      <trkpt lat="45.63748" lon="4.59396">
        <ele>923.8</ele>
        <time>2025-04-30T15:42:43Z</time>
      </trkpt>
      <trkpt lat="45.63749" lon="4.59396">
        <ele>923.8</ele>
        <time>2025-04-30T15:42:44Z</time>
      </trkpt>
      <trkpt lat="45.63749" lon="4.59396">
        <ele>923.8</ele>
        <time>2025-04-30T15:42:45Z</time>
      </trkpt>
      <trkpt lat="45.63749" lon="4.59396">
        <ele>923.8</ele>
        <time>2025-04-30T15:42:46Z</time>
      </trkpt>
      <trkpt lat="45.63748" lon="4.59396">
        <ele>923.8</ele>
        <time>2025-04-30T15:42:47Z</time>
      </trkpt>
      <trkpt lat="45.63748" lon="4.59396">
        <ele>923.8</ele>
        <time>2025-04-30T15:42:48Z</time>
      </trkpt>
      <trkpt lat="45.63748" lon="4.59396">
        <ele>923.8</ele>
        <time>2025-04-30T15:42:49Z</time>
      </trkpt>
      <trkpt lat="45.63748" lon="4.59396">
        <ele>923.8</ele>
        <time>2025-04-30T15:42:50Z</time>
      </trkpt>
      <trkpt lat="45.63748" lon="4.59396">
        <ele>923.8</ele>
        <time>2025-04-30T15:42:51Z</time>
      </trkpt>
      <trkpt lat="45.63748" lon="4.59396">
        <ele>923.8</ele>
        <time>2025-04-30T15:42:52Z</time>
      </trkpt>
      <trkpt lat="45.63748" lon="4.59396">
        <ele>923.8</ele>
        <time>2025-04-30T15:42:53Z</time>
      </trkpt>
      <trkpt lat="45.63748" lon="4.59396">
        <ele>923.8</ele>
        <time>2025-04-30T15:42:54Z</time>
      </trkpt>
      <trkpt lat="45.63748" lon="4.59396">
        <ele>923.8</ele>
        <time>2025-04-30T15:42:55Z</time>
      </trkpt>
      <trkpt lat="45.63748" lon="4.59396">
        <ele>923.8</ele>
        <time>2025-04-30T15:42:56Z</time>
      </trkpt>
      <trkpt lat="45.63748" lon="4.59396">
        <ele>923.8</ele>
        <time>2025-04-30T15:42:57Z</time>
      </trkpt>
      <trkpt lat="45.63748" lon="4.59396">
        <ele>923.8</ele>
        <time>2025-04-30T15:42:58Z</time>
      </trkpt>
      <trkpt lat="45.63749" lon="4.59396">
        <ele>923.8</ele>
        <time>2025-04-30T15:42:59Z</time>
      </trkpt>
      <trkpt lat="45.6375" lon="4.59396">
        <ele>923.6</ele>
        <time>2025-04-30T15:43:00Z</time>
      </trkpt>
      <trkpt lat="45.63751" lon="4.59397">
        <ele>923.6</ele>
        <time>2025-04-30T15:43:01Z</time>
      </trkpt>
      <trkpt lat="45.63751" lon="4.59397">
        <ele>923.6</ele>
        <time>2025-04-30T15:43:02Z</time>
      </trkpt>
      <trkpt lat="45.63752" lon="4.59397">
        <ele>923.6</ele>
        <time>2025-04-30T15:43:03Z</time>
      </trkpt>
      <trkpt lat="45.63752" lon="4.59397">
        <ele>923.6</ele>
        <time>2025-04-30T15:43:04Z</time>
      </trkpt>
      <trkpt lat="45.63752" lon="4.59397">
        <ele>923.6</ele>
        <time>2025-04-30T15:43:05Z</time>
      </trkpt>
      <trkpt lat="45.63752" lon="4.59397">
        <ele>923.6</ele>
        <time>2025-04-30T15:43:06Z</time>
      </trkpt>
      <trkpt lat="45.63752" lon="4.59397">
        <ele>923.8</ele>
        <time>2025-04-30T15:43:07Z</time>
      </trkpt>
      <trkpt lat="45.63752" lon="4.59397">
        <ele>923.8</ele>
        <time>2025-04-30T15:43:08Z</time>
      </trkpt>
      <trkpt lat="45.63752" lon="4.59397">
        <ele>923.8</ele>
        <time>2025-04-30T15:43:09Z</time>
      </trkpt>
      <trkpt lat="45.63752" lon="4.59397">
        <ele>923.8</ele>
        <time>2025-04-30T15:43:10Z</time>
      </trkpt>
      <trkpt lat="45.63752" lon="4.59397">
        <ele>923.8</ele>
        <time>2025-04-30T15:43:11Z</time>
      </trkpt>
      <trkpt lat="45.63752" lon="4.59397">
        <ele>923.8</ele>
        <time>2025-04-30T15:43:12Z</time>
      </trkpt>
      <trkpt lat="45.63752" lon="4.59397">
        <ele>923.8</ele>
        <time>2025-04-30T15:43:13Z</time>
      </trkpt>
      <trkpt lat="45.63752" lon="4.59397">
        <ele>923.8</ele>
        <time>2025-04-30T15:43:14Z</time>
      </trkpt>
      <trkpt lat="45.63752" lon="4.59397">
        <ele>923.8</ele>
        <time>2025-04-30T15:43:15Z</time>
      </trkpt>
      <trkpt lat="45.63752" lon="4.59397">
        <ele>923.8</ele>
        <time>2025-04-30T15:43:16Z</time>
      </trkpt>
      <trkpt lat="45.63752" lon="4.59397">
        <ele>923.8</ele>
        <time>2025-04-30T15:43:17Z</time>
      </trkpt>
      <trkpt lat="45.63752" lon="4.59397">
        <ele>923.8</ele>
        <time>2025-04-30T15:43:18Z</time>
      </trkpt>
      <trkpt lat="45.63752" lon="4.59397">
        <ele>923.8</ele>
        <time>2025-04-30T15:43:19Z</time>
      </trkpt>
      <trkpt lat="45.63752" lon="4.59397">
        <ele>923.8</ele>
        <time>2025-04-30T15:43:20Z</time>
      </trkpt>
      <trkpt lat="45.63752" lon="4.59397">
        <ele>923.8</ele>
        <time>2025-04-30T15:43:21Z</time>
      </trkpt>
      <trkpt lat="45.63752" lon="4.59397">
        <ele>923.8</ele>
        <time>2025-04-30T15:43:22Z</time>
      </trkpt>
      <trkpt lat="45.63752" lon="4.59397">
        <ele>923.8</ele>
        <time>2025-04-30T15:43:23Z</time>
      </trkpt>
      <trkpt lat="45.63752" lon="4.59397">
        <ele>923.8</ele>
        <time>2025-04-30T15:43:24Z</time>
      </trkpt>
      <trkpt lat="45.63752" lon="4.59397">
        <ele>924</ele>
        <time>2025-04-30T15:43:25Z</time>
      </trkpt>
      <trkpt lat="45.63752" lon="4.59397">
        <ele>924</ele>
        <time>2025-04-30T15:43:26Z</time>
      </trkpt>
      <trkpt lat="45.63752" lon="4.59397">
        <ele>924</ele>
        <time>2025-04-30T15:43:27Z</time>
      </trkpt>
      <trkpt lat="45.63752" lon="4.59397">
        <ele>924</ele>
        <time>2025-04-30T15:43:28Z</time>
      </trkpt>
      <trkpt lat="45.63752" lon="4.59397">
        <ele>923.8</ele>
        <time>2025-04-30T15:43:29Z</time>
      </trkpt>
      <trkpt lat="45.63752" lon="4.59397">
        <ele>923.8</ele>
        <time>2025-04-30T15:43:30Z</time>
      </trkpt>
      <trkpt lat="45.63752" lon="4.59397">
        <ele>923.8</ele>
        <time>2025-04-30T15:43:31Z</time>
      </trkpt>
      <trkpt lat="45.63752" lon="4.59397">
        <ele>923.8</ele>
        <time>2025-04-30T15:43:32Z</time>
      </trkpt>
      <trkpt lat="45.63752" lon="4.59397">
        <ele>923.8</ele>
        <time>2025-04-30T15:43:33Z</time>
      </trkpt>
      <trkpt lat="45.63752" lon="4.59397">
        <ele>924</ele>
        <time>2025-04-30T15:43:34Z</time>
      </trkpt>
      <trkpt lat="45.63752" lon="4.59397">
        <ele>924</ele>
        <time>2025-04-30T15:43:35Z</time>
      </trkpt>
      <trkpt lat="45.63752" lon="4.59397">
        <ele>924</ele>
        <time>2025-04-30T15:43:36Z</time>
      </trkpt>
      <trkpt lat="45.63752" lon="4.59397">
        <ele>924</ele>
        <time>2025-04-30T15:43:37Z</time>
      </trkpt>
      <trkpt lat="45.63752" lon="4.59397">
        <ele>924</ele>
        <time>2025-04-30T15:43:38Z</time>
      </trkpt>
      <trkpt lat="45.63752" lon="4.59397">
        <ele>924</ele>
        <time>2025-04-30T15:43:39Z</time>
      </trkpt>
      <trkpt lat="45.63752" lon="4.59397">
        <ele>924</ele>
        <time>2025-04-30T15:43:40Z</time>
      </trkpt>
      <trkpt lat="45.63752" lon="4.59397">
        <ele>924</ele>
        <time>2025-04-30T15:43:41Z</time>
      </trkpt>
      <trkpt lat="45.63752" lon="4.59397">
        <ele>924</ele>
        <time>2025-04-30T15:43:42Z</time>
      </trkpt>
      <trkpt lat="45.63752" lon="4.59397">
        <ele>924</ele>
        <time>2025-04-30T15:43:43Z</time>
      </trkpt>
      <trkpt lat="45.63752" lon="4.59397">
        <ele>924</ele>
        <time>2025-04-30T15:43:44Z</time>
      </trkpt>
      <trkpt lat="45.63752" lon="4.59397">
        <ele>924</ele>
        <time>2025-04-30T15:43:45Z</time>
      </trkpt>
      <trkpt lat="45.63752" lon="4.59397">
        <ele>924</ele>
        <time>2025-04-30T15:43:46Z</time>
      </trkpt>
      <trkpt lat="45.63752" lon="4.59397">
        <ele>924</ele>
        <time>2025-04-30T15:43:47Z</time>
      </trkpt>
      <trkpt lat="45.63752" lon="4.59397">
        <ele>924</ele>
        <time>2025-04-30T15:43:48Z</time>
      </trkpt>
      <trkpt lat="45.63752" lon="4.59397">
        <ele>924</ele>
        <time>2025-04-30T15:43:49Z</time>
      </trkpt>
      <trkpt lat="45.63752" lon="4.59397">
        <ele>924</ele>
        <time>2025-04-30T15:43:50Z</time>
      </trkpt>
      <trkpt lat="45.63752" lon="4.59397">
        <ele>924</ele>
        <time>2025-04-30T15:43:51Z</time>
      </trkpt>
      <trkpt lat="45.63752" lon="4.59397">
        <ele>923.8</ele>
        <time>2025-04-30T15:43:52Z</time>
      </trkpt>
      <trkpt lat="45.63752" lon="4.59398">
        <ele>923.8</ele>
        <time>2025-04-30T15:43:53Z</time>
      </trkpt>
      <trkpt lat="45.63753" lon="4.59397">
        <ele>923.8</ele>
        <time>2025-04-30T15:43:54Z</time>
      </trkpt>
      <trkpt lat="45.63754" lon="4.59396">
        <ele>923.8</ele>
        <time>2025-04-30T15:43:55Z</time>
      </trkpt>
      <trkpt lat="45.63754" lon="4.59395">
        <ele>923.8</ele>
        <time>2025-04-30T15:43:56Z</time>
      </trkpt>
      <trkpt lat="45.63755" lon="4.59395">
        <ele>923.8</ele>
        <time>2025-04-30T15:43:57Z</time>
      </trkpt>
      <trkpt lat="45.63756" lon="4.59394">
        <ele>923.8</ele>
        <time>2025-04-30T15:43:58Z</time>
      </trkpt>
      <trkpt lat="45.63757" lon="4.59392">
        <ele>923.8</ele>
        <time>2025-04-30T15:43:59Z</time>
      </trkpt>
      <trkpt lat="45.63757" lon="4.59391">
        <ele>923.6</ele>
        <time>2025-04-30T15:44:00Z</time>
      </trkpt>
      <trkpt lat="45.63758" lon="4.5939">
        <ele>923.6</ele>
        <time>2025-04-30T15:44:01Z</time>
      </trkpt>
      <trkpt lat="45.63758" lon="4.59388">
        <ele>923.8</ele>
        <time>2025-04-30T15:44:02Z</time>
      </trkpt>
      <trkpt lat="45.63758" lon="4.59386">
        <ele>923.8</ele>
        <time>2025-04-30T15:44:03Z</time>
      </trkpt>
      <trkpt lat="45.63757" lon="4.59384">
        <ele>923.8</ele>
        <time>2025-04-30T15:44:04Z</time>
      </trkpt>
      <trkpt lat="45.63756" lon="4.59383">
        <ele>923.8</ele>
        <time>2025-04-30T15:44:05Z</time>
      </trkpt>
      <trkpt lat="45.63754" lon="4.5938">
        <ele>923.8</ele>
        <time>2025-04-30T15:44:06Z</time>
      </trkpt>
      <trkpt lat="45.63752" lon="4.59377">
        <ele>923.8</ele>
        <time>2025-04-30T15:44:07Z</time>
      </trkpt>
      <trkpt lat="45.6375" lon="4.59374">
        <ele>923.6</ele>
        <time>2025-04-30T15:44:08Z</time>
      </trkpt>
      <trkpt lat="45.63748" lon="4.59371">
        <ele>923.2</ele>
        <time>2025-04-30T15:44:09Z</time>
      </trkpt>
      <trkpt lat="45.63746" lon="4.59368">
        <ele>922.6</ele>
        <time>2025-04-30T15:44:10Z</time>
      </trkpt>
      <trkpt lat="45.63743" lon="4.59366">
        <ele>922.2</ele>
        <time>2025-04-30T15:44:11Z</time>
      </trkpt>
      <trkpt lat="45.63741" lon="4.59364">
        <ele>922</ele>
        <time>2025-04-30T15:44:12Z</time>
      </trkpt>
      <trkpt lat="45.63737" lon="4.59362">
        <ele>921.6</ele>
        <time>2025-04-30T15:44:13Z</time>
      </trkpt>
      <trkpt lat="45.63734" lon="4.59359">
        <ele>921</ele>
        <time>2025-04-30T15:44:14Z</time>
      </trkpt>
      <trkpt lat="45.63732" lon="4.59355">
        <ele>920.4</ele>
        <time>2025-04-30T15:44:15Z</time>
      </trkpt>
      <trkpt lat="45.63729" lon="4.5935">
        <ele>920</ele>
        <time>2025-04-30T15:44:16Z</time>
      </trkpt>
      <trkpt lat="45.63726" lon="4.59347">
        <ele>919.2</ele>
        <time>2025-04-30T15:44:17Z</time>
      </trkpt>
      <trkpt lat="45.63724" lon="4.59343">
        <ele>918.4</ele>
        <time>2025-04-30T15:44:18Z</time>
      </trkpt>
      <trkpt lat="45.63722" lon="4.5934">
        <ele>918.2</ele>
        <time>2025-04-30T15:44:19Z</time>
      </trkpt>
      <trkpt lat="45.63721" lon="4.59336">
        <ele>917.8</ele>
        <time>2025-04-30T15:44:20Z</time>
      </trkpt>
      <trkpt lat="45.6372" lon="4.59331">
        <ele>917.6</ele>
        <time>2025-04-30T15:44:21Z</time>
      </trkpt>
      <trkpt lat="45.6372" lon="4.59327">
        <ele>917.2</ele>
        <time>2025-04-30T15:44:22Z</time>
      </trkpt>
      <trkpt lat="45.63719" lon="4.59323">
        <ele>916.6</ele>
        <time>2025-04-30T15:44:23Z</time>
      </trkpt>
      <trkpt lat="45.63718" lon="4.59318">
        <ele>916.2</ele>
        <time>2025-04-30T15:44:24Z</time>
      </trkpt>
      <trkpt lat="45.63716" lon="4.59315">
        <ele>915.4</ele>
        <time>2025-04-30T15:44:25Z</time>
      </trkpt>
      <trkpt lat="45.63715" lon="4.59313">
        <ele>914.4</ele>
        <time>2025-04-30T15:44:26Z</time>
      </trkpt>
      <trkpt lat="45.63713" lon="4.59309">
        <ele>914</ele>
        <time>2025-04-30T15:44:27Z</time>
      </trkpt>
      <trkpt lat="45.6371" lon="4.59306">
        <ele>913.6</ele>
        <time>2025-04-30T15:44:28Z</time>
      </trkpt>
      <trkpt lat="45.63707" lon="4.59303">
        <ele>913</ele>
        <time>2025-04-30T15:44:29Z</time>
      </trkpt>
      <trkpt lat="45.63706" lon="4.59301">
        <ele>912</ele>
        <time>2025-04-30T15:44:30Z</time>
      </trkpt>
      <trkpt lat="45.63705" lon="4.593">
        <ele>911.2</ele>
        <time>2025-04-30T15:44:31Z</time>
      </trkpt>
      <trkpt lat="45.63705" lon="4.593">
        <ele>910.4</ele>
        <time>2025-04-30T15:44:32Z</time>
      </trkpt>
      <trkpt lat="45.63705" lon="4.593">
        <ele>910</ele>
        <time>2025-04-30T15:44:33Z</time>
      </trkpt>
      <trkpt lat="45.63705" lon="4.593">
        <ele>909.8</ele>
        <time>2025-04-30T15:44:34Z</time>
      </trkpt>
      <trkpt lat="45.63705" lon="4.59299">
        <ele>909.6</ele>
        <time>2025-04-30T15:44:35Z</time>
      </trkpt>
      <trkpt lat="45.63704" lon="4.59297">
        <ele>909.4</ele>
        <time>2025-04-30T15:44:36Z</time>
      </trkpt>
      <trkpt lat="45.63704" lon="4.59295">
        <ele>909.4</ele>
        <time>2025-04-30T15:44:37Z</time>
      </trkpt>
      <trkpt lat="45.63703" lon="4.59292">
        <ele>909.2</ele>
        <time>2025-04-30T15:44:38Z</time>
      </trkpt>
      <trkpt lat="45.63702" lon="4.59289">
        <ele>909</ele>
        <time>2025-04-30T15:44:39Z</time>
      </trkpt>
      <trkpt lat="45.63701" lon="4.59286">
        <ele>908.8</ele>
        <time>2025-04-30T15:44:40Z</time>
      </trkpt>
      <trkpt lat="45.637" lon="4.59283">
        <ele>908.4</ele>
        <time>2025-04-30T15:44:41Z</time>
      </trkpt>
      <trkpt lat="45.63698" lon="4.59278">
        <ele>907.8</ele>
        <time>2025-04-30T15:44:42Z</time>
      </trkpt>
      <trkpt lat="45.63694" lon="4.59274">
        <ele>907.4</ele>
        <time>2025-04-30T15:44:43Z</time>
      </trkpt>
      <trkpt lat="45.63691" lon="4.59271">
        <ele>907</ele>
        <time>2025-04-30T15:44:44Z</time>
      </trkpt>
      <trkpt lat="45.63688" lon="4.59267">
        <ele>905.8</ele>
        <time>2025-04-30T15:44:45Z</time>
      </trkpt>
      <trkpt lat="45.63685" lon="4.59262">
        <ele>905</ele>
        <time>2025-04-30T15:44:46Z</time>
      </trkpt>
      <trkpt lat="45.63684" lon="4.59256">
        <ele>903.6</ele>
        <time>2025-04-30T15:44:47Z</time>
      </trkpt>
      <trkpt lat="45.63683" lon="4.5925">
        <ele>903</ele>
        <time>2025-04-30T15:44:48Z</time>
      </trkpt>
      <trkpt lat="45.63684" lon="4.59243">
        <ele>902.2</ele>
        <time>2025-04-30T15:44:49Z</time>
      </trkpt>
      <trkpt lat="45.63683" lon="4.59236">
        <ele>901.4</ele>
        <time>2025-04-30T15:44:50Z</time>
      </trkpt>
      <trkpt lat="45.63681" lon="4.59229">
        <ele>900.6</ele>
        <time>2025-04-30T15:44:51Z</time>
      </trkpt>
      <trkpt lat="45.63679" lon="4.59224">
        <ele>899.8</ele>
        <time>2025-04-30T15:44:52Z</time>
      </trkpt>
      <trkpt lat="45.63676" lon="4.59219">
        <ele>898.6</ele>
        <time>2025-04-30T15:44:53Z</time>
      </trkpt>
      <trkpt lat="45.63675" lon="4.59215">
        <ele>897.8</ele>
        <time>2025-04-30T15:44:54Z</time>
      </trkpt>
      <trkpt lat="45.63673" lon="4.59209">
        <ele>897.2</ele>
        <time>2025-04-30T15:44:55Z</time>
      </trkpt>
      <trkpt lat="45.6367" lon="4.59205">
        <ele>896.4</ele>
        <time>2025-04-30T15:44:56Z</time>
      </trkpt>
      <trkpt lat="45.63668" lon="4.59202">
        <ele>895.4</ele>
        <time>2025-04-30T15:44:57Z</time>
      </trkpt>
      <trkpt lat="45.63665" lon="4.59198">
        <ele>894.4</ele>
        <time>2025-04-30T15:44:58Z</time>
      </trkpt>
      <trkpt lat="45.63663" lon="4.59194">
        <ele>893.4</ele>
        <time>2025-04-30T15:44:59Z</time>
      </trkpt>
      <trkpt lat="45.63662" lon="4.5919">
        <ele>892.6</ele>
        <time>2025-04-30T15:45:00Z</time>
      </trkpt>
      <trkpt lat="45.63661" lon="4.59186">
        <ele>892</ele>
        <time>2025-04-30T15:45:01Z</time>
      </trkpt>
      <trkpt lat="45.6366" lon="4.59182">
        <ele>891.6</ele>
        <time>2025-04-30T15:45:02Z</time>
      </trkpt>
      <trkpt lat="45.63658" lon="4.59179">
        <ele>891.2</ele>
        <time>2025-04-30T15:45:03Z</time>
      </trkpt>
      <trkpt lat="45.63656" lon="4.59175">
        <ele>890.8</ele>
        <time>2025-04-30T15:45:04Z</time>
      </trkpt>
      <trkpt lat="45.63653" lon="4.59174">
        <ele>889.8</ele>
        <time>2025-04-30T15:45:05Z</time>
      </trkpt>
      <trkpt lat="45.63651" lon="4.59175">
        <ele>889.2</ele>
        <time>2025-04-30T15:45:06Z</time>
      </trkpt>
      <trkpt lat="45.63649" lon="4.59177">
        <ele>888.4</ele>
        <time>2025-04-30T15:45:07Z</time>
      </trkpt>
      <trkpt lat="45.63648" lon="4.5918">
        <ele>888</ele>
        <time>2025-04-30T15:45:08Z</time>
      </trkpt>
      <trkpt lat="45.63647" lon="4.59183">
        <ele>887.6</ele>
        <time>2025-04-30T15:45:09Z</time>
      </trkpt>
      <trkpt lat="45.63644" lon="4.59185">
        <ele>887.2</ele>
        <time>2025-04-30T15:45:10Z</time>
      </trkpt>
      <trkpt lat="45.63641" lon="4.59187">
        <ele>886.6</ele>
        <time>2025-04-30T15:45:11Z</time>
      </trkpt>
      <trkpt lat="45.63637" lon="4.59189">
        <ele>886.6</ele>
        <time>2025-04-30T15:45:12Z</time>
      </trkpt>
      <trkpt lat="45.63634" lon="4.59192">
        <ele>886</ele>
        <time>2025-04-30T15:45:13Z</time>
      </trkpt>
      <trkpt lat="45.63631" lon="4.59196">
        <ele>885.6</ele>
        <time>2025-04-30T15:45:14Z</time>
      </trkpt>
      <trkpt lat="45.63627" lon="4.59201">
        <ele>885</ele>
        <time>2025-04-30T15:45:15Z</time>
      </trkpt>
      <trkpt lat="45.63624" lon="4.59206">
        <ele>884.6</ele>
        <time>2025-04-30T15:45:16Z</time>
      </trkpt>
      <trkpt lat="45.6362" lon="4.5921">
        <ele>884.2</ele>
        <time>2025-04-30T15:45:17Z</time>
      </trkpt>
      <trkpt lat="45.63615" lon="4.59215">
        <ele>884</ele>
        <time>2025-04-30T15:45:18Z</time>
      </trkpt>
      <trkpt lat="45.63611" lon="4.59218">
        <ele>883.6</ele>
        <time>2025-04-30T15:45:19Z</time>
      </trkpt>
      <trkpt lat="45.63607" lon="4.59223">
        <ele>883.6</ele>
        <time>2025-04-30T15:45:20Z</time>
      </trkpt>
      <trkpt lat="45.63603" lon="4.59227">
        <ele>883.4</ele>
        <time>2025-04-30T15:45:21Z</time>
      </trkpt>
      <trkpt lat="45.636" lon="4.59232">
        <ele>883.2</ele>
        <time>2025-04-30T15:45:22Z</time>
      </trkpt>
      <trkpt lat="45.63595" lon="4.59237">
        <ele>882.8</ele>
        <time>2025-04-30T15:45:23Z</time>
      </trkpt>
      <trkpt lat="45.63591" lon="4.59242">
        <ele>882.6</ele>
        <time>2025-04-30T15:45:24Z</time>
      </trkpt>
      <trkpt lat="45.63586" lon="4.59247">
        <ele>882.4</ele>
        <time>2025-04-30T15:45:25Z</time>
      </trkpt>
      <trkpt lat="45.63581" lon="4.59254">
        <ele>882</ele>
        <time>2025-04-30T15:45:26Z</time>
      </trkpt>
      <trkpt lat="45.63576" lon="4.59261">
        <ele>881.2</ele>
        <time>2025-04-30T15:45:27Z</time>
      </trkpt>
      <trkpt lat="45.63572" lon="4.59268">
        <ele>880.6</ele>
        <time>2025-04-30T15:45:28Z</time>
      </trkpt>
      <trkpt lat="45.63568" lon="4.59275">
        <ele>880</ele>
        <time>2025-04-30T15:45:29Z</time>
      </trkpt>
      <trkpt lat="45.63564" lon="4.59282">
        <ele>879.4</ele>
        <time>2025-04-30T15:45:30Z</time>
      </trkpt>
      <trkpt lat="45.63561" lon="4.5929">
        <ele>878.4</ele>
        <time>2025-04-30T15:45:31Z</time>
      </trkpt>
      <trkpt lat="45.63559" lon="4.59298">
        <ele>877.4</ele>
        <time>2025-04-30T15:45:32Z</time>
      </trkpt>
      <trkpt lat="45.63558" lon="4.59303">
        <ele>876.6</ele>
        <time>2025-04-30T15:45:33Z</time>
      </trkpt>
      <trkpt lat="45.63555" lon="4.5931">
        <ele>875.6</ele>
        <time>2025-04-30T15:45:34Z</time>
      </trkpt>
      <trkpt lat="45.63553" lon="4.59316">
        <ele>875</ele>
        <time>2025-04-30T15:45:35Z</time>
      </trkpt>
      <trkpt lat="45.63551" lon="4.59322">
        <ele>874.8</ele>
        <time>2025-04-30T15:45:36Z</time>
      </trkpt>
      <trkpt lat="45.63548" lon="4.59328">
        <ele>873.8</ele>
        <time>2025-04-30T15:45:37Z</time>
      </trkpt>
      <trkpt lat="45.63546" lon="4.59334">
        <ele>873</ele>
        <time>2025-04-30T15:45:38Z</time>
      </trkpt>
      <trkpt lat="45.63544" lon="4.5934">
        <ele>872.2</ele>
        <time>2025-04-30T15:45:39Z</time>
      </trkpt>
      <trkpt lat="45.63542" lon="4.59345">
        <ele>871.4</ele>
        <time>2025-04-30T15:45:40Z</time>
      </trkpt>
      <trkpt lat="45.6354" lon="4.5935">
        <ele>870.8</ele>
        <time>2025-04-30T15:45:41Z</time>
      </trkpt>
      <trkpt lat="45.63538" lon="4.59355">
        <ele>870.4</ele>
        <time>2025-04-30T15:45:42Z</time>
      </trkpt>
      <trkpt lat="45.63537" lon="4.5936">
        <ele>869.4</ele>
        <time>2025-04-30T15:45:43Z</time>
      </trkpt>
      <trkpt lat="45.63535" lon="4.59365">
        <ele>869</ele>
        <time>2025-04-30T15:45:44Z</time>
      </trkpt>
      <trkpt lat="45.63533" lon="4.5937">
        <ele>868.2</ele>
        <time>2025-04-30T15:45:45Z</time>
      </trkpt>
      <trkpt lat="45.63532" lon="4.59375">
        <ele>867.8</ele>
        <time>2025-04-30T15:45:46Z</time>
      </trkpt>
      <trkpt lat="45.6353" lon="4.59378">
        <ele>867.2</ele>
        <time>2025-04-30T15:45:47Z</time>
      </trkpt>
      <trkpt lat="45.63527" lon="4.59383">
        <ele>866.6</ele>
        <time>2025-04-30T15:45:48Z</time>
      </trkpt>
      <trkpt lat="45.63524" lon="4.59387">
        <ele>866</ele>
        <time>2025-04-30T15:45:49Z</time>
      </trkpt>
      <trkpt lat="45.63522" lon="4.59392">
        <ele>865</ele>
        <time>2025-04-30T15:45:50Z</time>
      </trkpt>
      <trkpt lat="45.63519" lon="4.59396">
        <ele>864.2</ele>
        <time>2025-04-30T15:45:51Z</time>
      </trkpt>
      <trkpt lat="45.63516" lon="4.59402">
        <ele>863</ele>
        <time>2025-04-30T15:45:52Z</time>
      </trkpt>
      <trkpt lat="45.63515" lon="4.59406">
        <ele>862.2</ele>
        <time>2025-04-30T15:45:53Z</time>
      </trkpt>
      <trkpt lat="45.63512" lon="4.59414">
        <ele>861.4</ele>
        <time>2025-04-30T15:45:54Z</time>
      </trkpt>
      <trkpt lat="45.63509" lon="4.59422">
        <ele>860.6</ele>
        <time>2025-04-30T15:45:55Z</time>
      </trkpt>
      <trkpt lat="45.63507" lon="4.59431">
        <ele>859.8</ele>
        <time>2025-04-30T15:45:56Z</time>
      </trkpt>
      <trkpt lat="45.63506" lon="4.59441">
        <ele>858</ele>
        <time>2025-04-30T15:45:57Z</time>
      </trkpt>
      <trkpt lat="45.63506" lon="4.5945">
        <ele>857.2</ele>
        <time>2025-04-30T15:45:58Z</time>
      </trkpt>
      <trkpt lat="45.63507" lon="4.59459">
        <ele>856.6</ele>
        <time>2025-04-30T15:45:59Z</time>
      </trkpt>
      <trkpt lat="45.63509" lon="4.59468">
        <ele>855.6</ele>
        <time>2025-04-30T15:46:00Z</time>
      </trkpt>
      <trkpt lat="45.63511" lon="4.59476">
        <ele>855.2</ele>
        <time>2025-04-30T15:46:01Z</time>
      </trkpt>
      <trkpt lat="45.63513" lon="4.59483">
        <ele>855.2</ele>
        <time>2025-04-30T15:46:02Z</time>
      </trkpt>
      <trkpt lat="45.63515" lon="4.59491">
        <ele>855.2</ele>
        <time>2025-04-30T15:46:03Z</time>
      </trkpt>
      <trkpt lat="45.63516" lon="4.59498">
        <ele>855.2</ele>
        <time>2025-04-30T15:46:04Z</time>
      </trkpt>
      <trkpt lat="45.63518" lon="4.59506">
        <ele>855.6</ele>
        <time>2025-04-30T15:46:05Z</time>
      </trkpt>
      <trkpt lat="45.63518" lon="4.59513">
        <ele>856</ele>
        <time>2025-04-30T15:46:06Z</time>
      </trkpt>
      <trkpt lat="45.63519" lon="4.59521">
        <ele>856.2</ele>
        <time>2025-04-30T15:46:07Z</time>
      </trkpt>
      <trkpt lat="45.63519" lon="4.59528">
        <ele>856.4</ele>
        <time>2025-04-30T15:46:08Z</time>
      </trkpt>
      <trkpt lat="45.6352" lon="4.59534">
        <ele>856.6</ele>
        <time>2025-04-30T15:46:09Z</time>
      </trkpt>
      <trkpt lat="45.63521" lon="4.5954">
        <ele>856.8</ele>
        <time>2025-04-30T15:46:10Z</time>
      </trkpt>
      <trkpt lat="45.63522" lon="4.59546">
        <ele>857.2</ele>
        <time>2025-04-30T15:46:11Z</time>
      </trkpt>
      <trkpt lat="45.63522" lon="4.59551">
        <ele>857.6</ele>
        <time>2025-04-30T15:46:12Z</time>
      </trkpt>
      <trkpt lat="45.63523" lon="4.59558">
        <ele>858</ele>
        <time>2025-04-30T15:46:13Z</time>
      </trkpt>
      <trkpt lat="45.63524" lon="4.59564">
        <ele>858.6</ele>
        <time>2025-04-30T15:46:14Z</time>
      </trkpt>
      <trkpt lat="45.63525" lon="4.59569">
        <ele>858.8</ele>
        <time>2025-04-30T15:46:15Z</time>
      </trkpt>
      <trkpt lat="45.63527" lon="4.59574">
        <ele>859</ele>
        <time>2025-04-30T15:46:16Z</time>
      </trkpt>
      <trkpt lat="45.63528" lon="4.59578">
        <ele>859.2</ele>
        <time>2025-04-30T15:46:17Z</time>
      </trkpt>
      <trkpt lat="45.6353" lon="4.59582">
        <ele>859.6</ele>
        <time>2025-04-30T15:46:18Z</time>
      </trkpt>
      <trkpt lat="45.63533" lon="4.59586">
        <ele>859.8</ele>
        <time>2025-04-30T15:46:19Z</time>
      </trkpt>
      <trkpt lat="45.63535" lon="4.59589">
        <ele>860.2</ele>
        <time>2025-04-30T15:46:20Z</time>
      </trkpt>
      <trkpt lat="45.63538" lon="4.59591">
        <ele>860.6</ele>
        <time>2025-04-30T15:46:21Z</time>
      </trkpt>
      <trkpt lat="45.63541" lon="4.59594">
        <ele>860.6</ele>
        <time>2025-04-30T15:46:22Z</time>
      </trkpt>
      <trkpt lat="45.63544" lon="4.59597">
        <ele>861.2</ele>
        <time>2025-04-30T15:46:23Z</time>
      </trkpt>
      <trkpt lat="45.63547" lon="4.59601">
        <ele>861.4</ele>
        <time>2025-04-30T15:46:24Z</time>
      </trkpt>
      <trkpt lat="45.63549" lon="4.59604">
        <ele>861.6</ele>
        <time>2025-04-30T15:46:25Z</time>
      </trkpt>
      <trkpt lat="45.63552" lon="4.59608">
        <ele>861.6</ele>
        <time>2025-04-30T15:46:26Z</time>
      </trkpt>
      <trkpt lat="45.63554" lon="4.59612">
        <ele>861.8</ele>
        <time>2025-04-30T15:46:27Z</time>
      </trkpt>
      <trkpt lat="45.63557" lon="4.59616">
        <ele>862</ele>
        <time>2025-04-30T15:46:28Z</time>
      </trkpt>
      <trkpt lat="45.63559" lon="4.5962">
        <ele>862.2</ele>
        <time>2025-04-30T15:46:29Z</time>
      </trkpt>
      <trkpt lat="45.63561" lon="4.59625">
        <ele>862.2</ele>
        <time>2025-04-30T15:46:30Z</time>
      </trkpt>
      <trkpt lat="45.63563" lon="4.59629">
        <ele>862.2</ele>
        <time>2025-04-30T15:46:31Z</time>
      </trkpt>
      <trkpt lat="45.63565" lon="4.59634">
        <ele>862.2</ele>
        <time>2025-04-30T15:46:32Z</time>
      </trkpt>
      <trkpt lat="45.63567" lon="4.59639">
        <ele>862.2</ele>
        <time>2025-04-30T15:46:33Z</time>
      </trkpt>
      <trkpt lat="45.63568" lon="4.59643">
        <ele>862.2</ele>
        <time>2025-04-30T15:46:34Z</time>
      </trkpt>
      <trkpt lat="45.63569" lon="4.59647">
        <ele>862.2</ele>
        <time>2025-04-30T15:46:35Z</time>
      </trkpt>
      <trkpt lat="45.6357" lon="4.59651">
        <ele>862.2</ele>
        <time>2025-04-30T15:46:36Z</time>
      </trkpt>
      <trkpt lat="45.6357" lon="4.59653">
        <ele>862.2</ele>
        <time>2025-04-30T15:46:37Z</time>
      </trkpt>
      <trkpt lat="45.63571" lon="4.59653">
        <ele>862.2</ele>
        <time>2025-04-30T15:46:38Z</time>
      </trkpt>
      <trkpt lat="45.63571" lon="4.59653">
        <ele>862.4</ele>
        <time>2025-04-30T15:46:39Z</time>
      </trkpt>
      <trkpt lat="45.63571" lon="4.59653">
        <ele>862.4</ele>
        <time>2025-04-30T15:46:40Z</time>
      </trkpt>
      <trkpt lat="45.63571" lon="4.59653">
        <ele>862.6</ele>
        <time>2025-04-30T15:46:41Z</time>
      </trkpt>
      <trkpt lat="45.63571" lon="4.59653">
        <ele>862.6</ele>
        <time>2025-04-30T15:46:42Z</time>
      </trkpt>
      <trkpt lat="45.63571" lon="4.59653">
        <ele>862.6</ele>
        <time>2025-04-30T15:46:43Z</time>
      </trkpt>
      <trkpt lat="45.63571" lon="4.59653">
        <ele>862.6</ele>
        <time>2025-04-30T15:46:44Z</time>
      </trkpt>
      <trkpt lat="45.63571" lon="4.59653">
        <ele>862.6</ele>
        <time>2025-04-30T15:46:45Z</time>
      </trkpt>
      <trkpt lat="45.63571" lon="4.59653">
        <ele>862.6</ele>
        <time>2025-04-30T15:46:46Z</time>
      </trkpt>
      <trkpt lat="45.63571" lon="4.59653">
        <ele>862.6</ele>
        <time>2025-04-30T15:46:47Z</time>
      </trkpt>
      <trkpt lat="45.63571" lon="4.59653">
        <ele>862.6</ele>
        <time>2025-04-30T15:46:48Z</time>
      </trkpt>
      <trkpt lat="45.63571" lon="4.59653">
        <ele>862.6</ele>
        <time>2025-04-30T15:46:49Z</time>
      </trkpt>
      <trkpt lat="45.63571" lon="4.59653">
        <ele>862.6</ele>
        <time>2025-04-30T15:46:50Z</time>
      </trkpt>
      <trkpt lat="45.63571" lon="4.59653">
        <ele>862.4</ele>
        <time>2025-04-30T15:46:51Z</time>
      </trkpt>
      <trkpt lat="45.63571" lon="4.59653">
        <ele>862.4</ele>
        <time>2025-04-30T15:46:52Z</time>
      </trkpt>
      <trkpt lat="45.63571" lon="4.59653">
        <ele>862.4</ele>
        <time>2025-04-30T15:46:53Z</time>
      </trkpt>
      <trkpt lat="45.63571" lon="4.59653">
        <ele>862.4</ele>
        <time>2025-04-30T15:46:54Z</time>
      </trkpt>
      <trkpt lat="45.63571" lon="4.59653">
        <ele>862.2</ele>
        <time>2025-04-30T15:46:55Z</time>
      </trkpt>
      <trkpt lat="45.63571" lon="4.59653">
        <ele>862.2</ele>
        <time>2025-04-30T15:46:56Z</time>
      </trkpt>
      <trkpt lat="45.63571" lon="4.59653">
        <ele>862.2</ele>
        <time>2025-04-30T15:46:57Z</time>
      </trkpt>
      <trkpt lat="45.63571" lon="4.59653">
        <ele>862.2</ele>
        <time>2025-04-30T15:46:58Z</time>
      </trkpt>
      <trkpt lat="45.63571" lon="4.59653">
        <ele>862.2</ele>
        <time>2025-04-30T15:46:59Z</time>
      </trkpt>
      <trkpt lat="45.63571" lon="4.59653">
        <ele>862.2</ele>
        <time>2025-04-30T15:47:00Z</time>
      </trkpt>
      <trkpt lat="45.63571" lon="4.59653">
        <ele>862.2</ele>
        <time>2025-04-30T15:47:01Z</time>
      </trkpt>
      <trkpt lat="45.63571" lon="4.59653">
        <ele>862.2</ele>
        <time>2025-04-30T15:47:02Z</time>
      </trkpt>
      <trkpt lat="45.63571" lon="4.59653">
        <ele>862</ele>
        <time>2025-04-30T15:47:03Z</time>
      </trkpt>
      <trkpt lat="45.63571" lon="4.59653">
        <ele>862</ele>
        <time>2025-04-30T15:47:04Z</time>
      </trkpt>
      <trkpt lat="45.63571" lon="4.59653">
        <ele>862</ele>
        <time>2025-04-30T15:47:05Z</time>
      </trkpt>
      <trkpt lat="45.63571" lon="4.59653">
        <ele>862</ele>
        <time>2025-04-30T15:47:06Z</time>
      </trkpt>
      <trkpt lat="45.63571" lon="4.59653">
        <ele>862</ele>
        <time>2025-04-30T15:47:07Z</time>
      </trkpt>
      <trkpt lat="45.63571" lon="4.59653">
        <ele>862</ele>
        <time>2025-04-30T15:47:08Z</time>
      </trkpt>
      <trkpt lat="45.63571" lon="4.59653">
        <ele>862</ele>
        <time>2025-04-30T15:47:09Z</time>
      </trkpt>
      <trkpt lat="45.63571" lon="4.59653">
        <ele>862</ele>
        <time>2025-04-30T15:47:10Z</time>
      </trkpt>
      <trkpt lat="45.63571" lon="4.59653">
        <ele>862</ele>
        <time>2025-04-30T15:47:11Z</time>
      </trkpt>
      <trkpt lat="45.63571" lon="4.59653">
        <ele>862</ele>
        <time>2025-04-30T15:47:12Z</time>
      </trkpt>
      <trkpt lat="45.63571" lon="4.59653">
        <ele>862</ele>
        <time>2025-04-30T15:47:13Z</time>
      </trkpt>
      <trkpt lat="45.63571" lon="4.59653">
        <ele>862</ele>
        <time>2025-04-30T15:47:14Z</time>
      </trkpt>
      <trkpt lat="45.63571" lon="4.59653">
        <ele>862</ele>
        <time>2025-04-30T15:47:15Z</time>
      </trkpt>
      <trkpt lat="45.6357" lon="4.59654">
        <ele>862</ele>
        <time>2025-04-30T15:47:16Z</time>
      </trkpt>
      <trkpt lat="45.63569" lon="4.59654">
        <ele>862</ele>
        <time>2025-04-30T15:47:17Z</time>
      </trkpt>
      <trkpt lat="45.63569" lon="4.59654">
        <ele>862</ele>
        <time>2025-04-30T15:47:18Z</time>
      </trkpt>
      <trkpt lat="45.63568" lon="4.59654">
        <ele>862</ele>
        <time>2025-04-30T15:47:19Z</time>
      </trkpt>
      <trkpt lat="45.63568" lon="4.59654">
        <ele>862</ele>
        <time>2025-04-30T15:47:20Z</time>
      </trkpt>
      <trkpt lat="45.63568" lon="4.59654">
        <ele>862</ele>
        <time>2025-04-30T15:47:21Z</time>
      </trkpt>
      <trkpt lat="45.63568" lon="4.59654">
        <ele>862</ele>
        <time>2025-04-30T15:47:22Z</time>
      </trkpt>
      <trkpt lat="45.63568" lon="4.59654">
        <ele>862</ele>
        <time>2025-04-30T15:47:23Z</time>
      </trkpt>
      <trkpt lat="45.63568" lon="4.59654">
        <ele>862</ele>
        <time>2025-04-30T15:47:24Z</time>
      </trkpt>
      <trkpt lat="45.63568" lon="4.59654">
        <ele>861.8</ele>
        <time>2025-04-30T15:47:25Z</time>
      </trkpt>
      <trkpt lat="45.63568" lon="4.59654">
        <ele>861.8</ele>
        <time>2025-04-30T15:47:26Z</time>
      </trkpt>
      <trkpt lat="45.63568" lon="4.59654">
        <ele>861.8</ele>
        <time>2025-04-30T15:47:27Z</time>
      </trkpt>
      <trkpt lat="45.63568" lon="4.59654">
        <ele>861.8</ele>
        <time>2025-04-30T15:47:28Z</time>
      </trkpt>
      <trkpt lat="45.63568" lon="4.59654">
        <ele>861.8</ele>
        <time>2025-04-30T15:47:29Z</time>
      </trkpt>
      <trkpt lat="45.63568" lon="4.59654">
        <ele>861.8</ele>
        <time>2025-04-30T15:47:30Z</time>
      </trkpt>
      <trkpt lat="45.63568" lon="4.59654">
        <ele>861.8</ele>
        <time>2025-04-30T15:47:31Z</time>
      </trkpt>
      <trkpt lat="45.63568" lon="4.59654">
        <ele>861.8</ele>
        <time>2025-04-30T15:47:32Z</time>
      </trkpt>
      <trkpt lat="45.63568" lon="4.59654">
        <ele>861.8</ele>
        <time>2025-04-30T15:47:33Z</time>
      </trkpt>
      <trkpt lat="45.63568" lon="4.59654">
        <ele>861.8</ele>
        <time>2025-04-30T15:47:34Z</time>
      </trkpt>
      <trkpt lat="45.63568" lon="4.59654">
        <ele>862</ele>
        <time>2025-04-30T15:47:35Z</time>
      </trkpt>
      <trkpt lat="45.63568" lon="4.59654">
        <ele>862</ele>
        <time>2025-04-30T15:47:36Z</time>
      </trkpt>
      <trkpt lat="45.63568" lon="4.59654">
        <ele>862</ele>
        <time>2025-04-30T15:47:37Z</time>
      </trkpt>
      <trkpt lat="45.63568" lon="4.59654">
        <ele>862</ele>
        <time>2025-04-30T15:47:38Z</time>
      </trkpt>
      <trkpt lat="45.63568" lon="4.59654">
        <ele>862</ele>
        <time>2025-04-30T15:47:39Z</time>
      </trkpt>
      <trkpt lat="45.63568" lon="4.59654">
        <ele>862</ele>
        <time>2025-04-30T15:47:40Z</time>
      </trkpt>
      <trkpt lat="45.63568" lon="4.59654">
        <ele>862</ele>
        <time>2025-04-30T15:47:41Z</time>
      </trkpt>
      <trkpt lat="45.63568" lon="4.59654">
        <ele>862</ele>
        <time>2025-04-30T15:47:42Z</time>
      </trkpt>
      <trkpt lat="45.63568" lon="4.59654">
        <ele>862</ele>
        <time>2025-04-30T15:47:43Z</time>
      </trkpt>
      <trkpt lat="45.63568" lon="4.59654">
        <ele>862</ele>
        <time>2025-04-30T15:47:44Z</time>
      </trkpt>
      <trkpt lat="45.63568" lon="4.59654">
        <ele>862</ele>
        <time>2025-04-30T15:47:45Z</time>
      </trkpt>
      <trkpt lat="45.63568" lon="4.59654">
        <ele>862</ele>
        <time>2025-04-30T15:47:46Z</time>
      </trkpt>
      <trkpt lat="45.63568" lon="4.59654">
        <ele>862</ele>
        <time>2025-04-30T15:47:47Z</time>
      </trkpt>
      <trkpt lat="45.63568" lon="4.59654">
        <ele>862.2</ele>
        <time>2025-04-30T15:47:48Z</time>
      </trkpt>
      <trkpt lat="45.63568" lon="4.59654">
        <ele>862.2</ele>
        <time>2025-04-30T15:47:49Z</time>
      </trkpt>
      <trkpt lat="45.63568" lon="4.59654">
        <ele>862.2</ele>
        <time>2025-04-30T15:47:50Z</time>
      </trkpt>
      <trkpt lat="45.63568" lon="4.59654">
        <ele>862.2</ele>
        <time>2025-04-30T15:47:51Z</time>
      </trkpt>
      <trkpt lat="45.63568" lon="4.59654">
        <ele>862.2</ele>
        <time>2025-04-30T15:47:52Z</time>
      </trkpt>
      <trkpt lat="45.63568" lon="4.59654">
        <ele>862.2</ele>
        <time>2025-04-30T15:47:53Z</time>
      </trkpt>
      <trkpt lat="45.63568" lon="4.59654">
        <ele>862.2</ele>
        <time>2025-04-30T15:47:54Z</time>
      </trkpt>
      <trkpt lat="45.63568" lon="4.59654">
        <ele>862.2</ele>
        <time>2025-04-30T15:47:55Z</time>
      </trkpt>
      <trkpt lat="45.63568" lon="4.59654">
        <ele>862.2</ele>
        <time>2025-04-30T15:47:56Z</time>
      </trkpt>
      <trkpt lat="45.63568" lon="4.59654">
        <ele>862.2</ele>
        <time>2025-04-30T15:47:57Z</time>
      </trkpt>
      <trkpt lat="45.63568" lon="4.59654">
        <ele>862.2</ele>
        <time>2025-04-30T15:47:58Z</time>
      </trkpt>
      <trkpt lat="45.63568" lon="4.59654">
        <ele>862.2</ele>
        <time>2025-04-30T15:47:59Z</time>
      </trkpt>
      <trkpt lat="45.63568" lon="4.59654">
        <ele>862.2</ele>
        <time>2025-04-30T15:48:00Z</time>
      </trkpt>
      <trkpt lat="45.63568" lon="4.59654">
        <ele>862.2</ele>
        <time>2025-04-30T15:48:01Z</time>
      </trkpt>
      <trkpt lat="45.63568" lon="4.59654">
        <ele>862.2</ele>
        <time>2025-04-30T15:48:02Z</time>
      </trkpt>
      <trkpt lat="45.63568" lon="4.59654">
        <ele>862.2</ele>
        <time>2025-04-30T15:48:03Z</time>
      </trkpt>
      <trkpt lat="45.63568" lon="4.59654">
        <ele>862.2</ele>
        <time>2025-04-30T15:48:04Z</time>
      </trkpt>
      <trkpt lat="45.63568" lon="4.59654">
        <ele>862.2</ele>
        <time>2025-04-30T15:48:05Z</time>
      </trkpt>
      <trkpt lat="45.63568" lon="4.59654">
        <ele>862.2</ele>
        <time>2025-04-30T15:48:06Z</time>
      </trkpt>
      <trkpt lat="45.63568" lon="4.59654">
        <ele>862.2</ele>
        <time>2025-04-30T15:48:07Z</time>
      </trkpt>
      <trkpt lat="45.63568" lon="4.59654">
        <ele>862.2</ele>
        <time>2025-04-30T15:48:08Z</time>
      </trkpt>
      <trkpt lat="45.63568" lon="4.59654">
        <ele>862.2</ele>
        <time>2025-04-30T15:48:09Z</time>
      </trkpt>
      <trkpt lat="45.63568" lon="4.59654">
        <ele>862.2</ele>
        <time>2025-04-30T15:48:10Z</time>
      </trkpt>
      <trkpt lat="45.63568" lon="4.59654">
        <ele>862.2</ele>
        <time>2025-04-30T15:48:11Z</time>
      </trkpt>
      <trkpt lat="45.63568" lon="4.59654">
        <ele>862.2</ele>
        <time>2025-04-30T15:48:12Z</time>
      </trkpt>
      <trkpt lat="45.63568" lon="4.59654">
        <ele>862.2</ele>
        <time>2025-04-30T15:48:13Z</time>
      </trkpt>
      <trkpt lat="45.63568" lon="4.59654">
        <ele>862.2</ele>
        <time>2025-04-30T15:48:14Z</time>
      </trkpt>
      <trkpt lat="45.63568" lon="4.59654">
        <ele>862.2</ele>
        <time>2025-04-30T15:48:15Z</time>
      </trkpt>
      <trkpt lat="45.63568" lon="4.59655">
        <ele>862.2</ele>
        <time>2025-04-30T15:48:16Z</time>
      </trkpt>
      <trkpt lat="45.63568" lon="4.59655">
        <ele>862</ele>
        <time>2025-04-30T15:48:17Z</time>
      </trkpt>
      <trkpt lat="45.63568" lon="4.59655">
        <ele>862</ele>
        <time>2025-04-30T15:48:18Z</time>
      </trkpt>
      <trkpt lat="45.63568" lon="4.59655">
        <ele>862</ele>
        <time>2025-04-30T15:48:19Z</time>
      </trkpt>
      <trkpt lat="45.63568" lon="4.59655">
        <ele>862</ele>
        <time>2025-04-30T15:48:20Z</time>
      </trkpt>
      <trkpt lat="45.63569" lon="4.59656">
        <ele>862</ele>
        <time>2025-04-30T15:48:21Z</time>
      </trkpt>
      <trkpt lat="45.63569" lon="4.59656">
        <ele>862.2</ele>
        <time>2025-04-30T15:48:22Z</time>
      </trkpt>
      <trkpt lat="45.63569" lon="4.59656">
        <ele>862.2</ele>
        <time>2025-04-30T15:48:23Z</time>
      </trkpt>
      <trkpt lat="45.63569" lon="4.59656">
        <ele>862.4</ele>
        <time>2025-04-30T15:48:24Z</time>
      </trkpt>
      <trkpt lat="45.63569" lon="4.59656">
        <ele>862.6</ele>
        <time>2025-04-30T15:48:25Z</time>
      </trkpt>
      <trkpt lat="45.63569" lon="4.59656">
        <ele>862.8</ele>
        <time>2025-04-30T15:48:26Z</time>
      </trkpt>
      <trkpt lat="45.63569" lon="4.59656">
        <ele>862.8</ele>
        <time>2025-04-30T15:48:27Z</time>
      </trkpt>
      <trkpt lat="45.63569" lon="4.59656">
        <ele>862.8</ele>
        <time>2025-04-30T15:48:28Z</time>
      </trkpt>
      <trkpt lat="45.63569" lon="4.59657">
        <ele>862.8</ele>
        <time>2025-04-30T15:48:29Z</time>
      </trkpt>
      <trkpt lat="45.6357" lon="4.59658">
        <ele>862.8</ele>
        <time>2025-04-30T15:48:30Z</time>
      </trkpt>
      <trkpt lat="45.63571" lon="4.5966">
        <ele>862.8</ele>
        <time>2025-04-30T15:48:31Z</time>
      </trkpt>
      <trkpt lat="45.63573" lon="4.59661">
        <ele>862.6</ele>
        <time>2025-04-30T15:48:32Z</time>
      </trkpt>
      <trkpt lat="45.63574" lon="4.59663">
        <ele>862.4</ele>
        <time>2025-04-30T15:48:33Z</time>
      </trkpt>
      <trkpt lat="45.63575" lon="4.59666">
        <ele>862.4</ele>
        <time>2025-04-30T15:48:34Z</time>
      </trkpt>
      <trkpt lat="45.63576" lon="4.5967">
        <ele>862.4</ele>
        <time>2025-04-30T15:48:35Z</time>
      </trkpt>
      <trkpt lat="45.63578" lon="4.59673">
        <ele>862.2</ele>
        <time>2025-04-30T15:48:36Z</time>
      </trkpt>
      <trkpt lat="45.63581" lon="4.59677">
        <ele>862.2</ele>
        <time>2025-04-30T15:48:37Z</time>
      </trkpt>
      <trkpt lat="45.63584" lon="4.59681">
        <ele>862</ele>
        <time>2025-04-30T15:48:38Z</time>
      </trkpt>
      <trkpt lat="45.63587" lon="4.59684">
        <ele>861.6</ele>
        <time>2025-04-30T15:48:39Z</time>
      </trkpt>
      <trkpt lat="45.63591" lon="4.59687">
        <ele>861.2</ele>
        <time>2025-04-30T15:48:40Z</time>
      </trkpt>
      <trkpt lat="45.63595" lon="4.59691">
        <ele>860.8</ele>
        <time>2025-04-30T15:48:41Z</time>
      </trkpt>
      <trkpt lat="45.63597" lon="4.59694">
        <ele>860.4</ele>
        <time>2025-04-30T15:48:42Z</time>
      </trkpt>
      <trkpt lat="45.63599" lon="4.59698">
        <ele>859.8</ele>
        <time>2025-04-30T15:48:43Z</time>
      </trkpt>
      <trkpt lat="45.63601" lon="4.59703">
        <ele>859.4</ele>
        <time>2025-04-30T15:48:44Z</time>
      </trkpt>
      <trkpt lat="45.63603" lon="4.59708">
        <ele>859.4</ele>
        <time>2025-04-30T15:48:45Z</time>
      </trkpt>
      <trkpt lat="45.63605" lon="4.59713">
        <ele>859.2</ele>
        <time>2025-04-30T15:48:46Z</time>
      </trkpt>
      <trkpt lat="45.63606" lon="4.59716">
        <ele>859</ele>
        <time>2025-04-30T15:48:47Z</time>
      </trkpt>
      <trkpt lat="45.63607" lon="4.59719">
        <ele>858.4</ele>
        <time>2025-04-30T15:48:48Z</time>
      </trkpt>
      <trkpt lat="45.63608" lon="4.59719">
        <ele>858.2</ele>
        <time>2025-04-30T15:48:49Z</time>
      </trkpt>
      <trkpt lat="45.63608" lon="4.59719">
        <ele>858</ele>
        <time>2025-04-30T15:48:50Z</time>
      </trkpt>
      <trkpt lat="45.63608" lon="4.59719">
        <ele>858</ele>
        <time>2025-04-30T15:48:51Z</time>
      </trkpt>
      <trkpt lat="45.63608" lon="4.59719">
        <ele>858</ele>
        <time>2025-04-30T15:48:52Z</time>
      </trkpt>
      <trkpt lat="45.63608" lon="4.5972">
        <ele>858</ele>
        <time>2025-04-30T15:48:53Z</time>
      </trkpt>
      <trkpt lat="45.63608" lon="4.59721">
        <ele>858</ele>
        <time>2025-04-30T15:48:54Z</time>
      </trkpt>
      <trkpt lat="45.63608" lon="4.59725">
        <ele>858</ele>
        <time>2025-04-30T15:48:55Z</time>
      </trkpt>
      <trkpt lat="45.63609" lon="4.59729">
        <ele>857.8</ele>
        <time>2025-04-30T15:48:56Z</time>
      </trkpt>
      <trkpt lat="45.6361" lon="4.59735">
        <ele>857.8</ele>
        <time>2025-04-30T15:48:57Z</time>
      </trkpt>
      <trkpt lat="45.63611" lon="4.59741">
        <ele>857.6</ele>
        <time>2025-04-30T15:48:58Z</time>
      </trkpt>
      <trkpt lat="45.63612" lon="4.59749">
        <ele>857.2</ele>
        <time>2025-04-30T15:48:59Z</time>
      </trkpt>
      <trkpt lat="45.63612" lon="4.59757">
        <ele>856.8</ele>
        <time>2025-04-30T15:49:00Z</time>
      </trkpt>
      <trkpt lat="45.63614" lon="4.59766">
        <ele>856.4</ele>
        <time>2025-04-30T15:49:01Z</time>
      </trkpt>
      <trkpt lat="45.63615" lon="4.59775">
        <ele>856</ele>
        <time>2025-04-30T15:49:02Z</time>
      </trkpt>
      <trkpt lat="45.63617" lon="4.59784">
        <ele>855.6</ele>
        <time>2025-04-30T15:49:03Z</time>
      </trkpt>
      <trkpt lat="45.63618" lon="4.59794">
        <ele>855.2</ele>
        <time>2025-04-30T15:49:04Z</time>
      </trkpt>
      <trkpt lat="45.63619" lon="4.59801">
        <ele>854.8</ele>
        <time>2025-04-30T15:49:05Z</time>
      </trkpt>
      <trkpt lat="45.63621" lon="4.59812">
        <ele>854.4</ele>
        <time>2025-04-30T15:49:06Z</time>
      </trkpt>
      <trkpt lat="45.63622" lon="4.59819">
        <ele>854.2</ele>
        <time>2025-04-30T15:49:07Z</time>
      </trkpt>
      <trkpt lat="45.63624" lon="4.59828">
        <ele>854</ele>
        <time>2025-04-30T15:49:08Z</time>
      </trkpt>
      <trkpt lat="45.63626" lon="4.59838">
        <ele>853.8</ele>
        <time>2025-04-30T15:49:09Z</time>
      </trkpt>
      <trkpt lat="45.63628" lon="4.59847">
        <ele>853.6</ele>
        <time>2025-04-30T15:49:10Z</time>
      </trkpt>
      <trkpt lat="45.6363" lon="4.59855">
        <ele>853.6</ele>
        <time>2025-04-30T15:49:11Z</time>
      </trkpt>
      <trkpt lat="45.63632" lon="4.59864">
        <ele>853.4</ele>
        <time>2025-04-30T15:49:12Z</time>
      </trkpt>
      <trkpt lat="45.63634" lon="4.59873">
        <ele>853.2</ele>
        <time>2025-04-30T15:49:13Z</time>
      </trkpt>
      <trkpt lat="45.63636" lon="4.59882">
        <ele>852.8</ele>
        <time>2025-04-30T15:49:14Z</time>
      </trkpt>
      <trkpt lat="45.63638" lon="4.5989">
        <ele>852.6</ele>
        <time>2025-04-30T15:49:15Z</time>
      </trkpt>
      <trkpt lat="45.63642" lon="4.59897">
        <ele>852</ele>
        <time>2025-04-30T15:49:16Z</time>
      </trkpt>
      <trkpt lat="45.63645" lon="4.59903">
        <ele>851.4</ele>
        <time>2025-04-30T15:49:17Z</time>
      </trkpt>
      <trkpt lat="45.63648" lon="4.59909">
        <ele>851.4</ele>
        <time>2025-04-30T15:49:18Z</time>
      </trkpt>
      <trkpt lat="45.63651" lon="4.59915">
        <ele>851</ele>
        <time>2025-04-30T15:49:19Z</time>
      </trkpt>
      <trkpt lat="45.63654" lon="4.5992">
        <ele>850.8</ele>
        <time>2025-04-30T15:49:20Z</time>
      </trkpt>
      <trkpt lat="45.63657" lon="4.59925">
        <ele>850.6</ele>
        <time>2025-04-30T15:49:21Z</time>
      </trkpt>
      <trkpt lat="45.63661" lon="4.5993">
        <ele>850.2</ele>
        <time>2025-04-30T15:49:22Z</time>
      </trkpt>
      <trkpt lat="45.63665" lon="4.59934">
        <ele>849.8</ele>
        <time>2025-04-30T15:49:23Z</time>
      </trkpt>
      <trkpt lat="45.63671" lon="4.59938">
        <ele>849.4</ele>
        <time>2025-04-30T15:49:24Z</time>
      </trkpt>
      <trkpt lat="45.63675" lon="4.59943">
        <ele>848.6</ele>
        <time>2025-04-30T15:49:25Z</time>
      </trkpt>
      <trkpt lat="45.63681" lon="4.5995">
        <ele>847.4</ele>
        <time>2025-04-30T15:49:26Z</time>
      </trkpt>
      <trkpt lat="45.63686" lon="4.59958">
        <ele>846.2</ele>
        <time>2025-04-30T15:49:27Z</time>
      </trkpt>
      <trkpt lat="45.63692" lon="4.59968">
        <ele>845.2</ele>
        <time>2025-04-30T15:49:28Z</time>
      </trkpt>
      <trkpt lat="45.63697" lon="4.59977">
        <ele>844</ele>
        <time>2025-04-30T15:49:29Z</time>
      </trkpt>
      <trkpt lat="45.63702" lon="4.59986">
        <ele>843.6</ele>
        <time>2025-04-30T15:49:30Z</time>
      </trkpt>
      <trkpt lat="45.63707" lon="4.59995">
        <ele>842</ele>
        <time>2025-04-30T15:49:31Z</time>
      </trkpt>
      <trkpt lat="45.63711" lon="4.60003">
        <ele>841.2</ele>
        <time>2025-04-30T15:49:32Z</time>
      </trkpt>
      <trkpt lat="45.63714" lon="4.6001">
        <ele>841</ele>
        <time>2025-04-30T15:49:33Z</time>
      </trkpt>
      <trkpt lat="45.63716" lon="4.60015">
        <ele>840.4</ele>
        <time>2025-04-30T15:49:34Z</time>
      </trkpt>
      <trkpt lat="45.63719" lon="4.6002">
        <ele>840.2</ele>
        <time>2025-04-30T15:49:35Z</time>
      </trkpt>
      <trkpt lat="45.63721" lon="4.60023">
        <ele>840.2</ele>
        <time>2025-04-30T15:49:36Z</time>
      </trkpt>
      <trkpt lat="45.63723" lon="4.60024">
        <ele>840.2</ele>
        <time>2025-04-30T15:49:37Z</time>
      </trkpt>
      <trkpt lat="45.63725" lon="4.60025">
        <ele>840.2</ele>
        <time>2025-04-30T15:49:38Z</time>
      </trkpt>
      <trkpt lat="45.63727" lon="4.60027">
        <ele>840.2</ele>
        <time>2025-04-30T15:49:39Z</time>
      </trkpt>
      <trkpt lat="45.63728" lon="4.60029">
        <ele>840.2</ele>
        <time>2025-04-30T15:49:40Z</time>
      </trkpt>
      <trkpt lat="45.63731" lon="4.60032">
        <ele>840</ele>
        <time>2025-04-30T15:49:41Z</time>
      </trkpt>
      <trkpt lat="45.63732" lon="4.60033">
        <ele>839.8</ele>
        <time>2025-04-30T15:49:42Z</time>
      </trkpt>
      <trkpt lat="45.63735" lon="4.60036">
        <ele>839.2</ele>
        <time>2025-04-30T15:49:43Z</time>
      </trkpt>
      <trkpt lat="45.63737" lon="4.60038">
        <ele>838.6</ele>
        <time>2025-04-30T15:49:44Z</time>
      </trkpt>
      <trkpt lat="45.63739" lon="4.60041">
        <ele>838.6</ele>
        <time>2025-04-30T15:49:45Z</time>
      </trkpt>
      <trkpt lat="45.63742" lon="4.60045">
        <ele>838</ele>
        <time>2025-04-30T15:49:46Z</time>
      </trkpt>
      <trkpt lat="45.63744" lon="4.60047">
        <ele>837.4</ele>
        <time>2025-04-30T15:49:47Z</time>
      </trkpt>
      <trkpt lat="45.63747" lon="4.6005">
        <ele>837</ele>
        <time>2025-04-30T15:49:48Z</time>
      </trkpt>
      <trkpt lat="45.63749" lon="4.60054">
        <ele>836</ele>
        <time>2025-04-30T15:49:49Z</time>
      </trkpt>
      <trkpt lat="45.63751" lon="4.60055">
        <ele>835.4</ele>
        <time>2025-04-30T15:49:50Z</time>
      </trkpt>
      <trkpt lat="45.63751" lon="4.60057">
        <ele>835.4</ele>
        <time>2025-04-30T15:49:51Z</time>
      </trkpt>
      <trkpt lat="45.63751" lon="4.60058">
        <ele>835.2</ele>
        <time>2025-04-30T15:49:52Z</time>
      </trkpt>
      <trkpt lat="45.63751" lon="4.60058">
        <ele>835</ele>
        <time>2025-04-30T15:49:53Z</time>
      </trkpt>
      <trkpt lat="45.63751" lon="4.60058">
        <ele>835</ele>
        <time>2025-04-30T15:49:54Z</time>
      </trkpt>
      <trkpt lat="45.63751" lon="4.60058">
        <ele>835</ele>
        <time>2025-04-30T15:49:55Z</time>
      </trkpt>
      <trkpt lat="45.63751" lon="4.60058">
        <ele>835</ele>
        <time>2025-04-30T15:49:56Z</time>
      </trkpt>
      <trkpt lat="45.63751" lon="4.60058">
        <ele>835</ele>
        <time>2025-04-30T15:49:57Z</time>
      </trkpt>
      <trkpt lat="45.63751" lon="4.60058">
        <ele>835</ele>
        <time>2025-04-30T15:49:58Z</time>
      </trkpt>
      <trkpt lat="45.63751" lon="4.60058">
        <ele>835</ele>
        <time>2025-04-30T15:49:59Z</time>
      </trkpt>
      <trkpt lat="45.63751" lon="4.60058">
        <ele>835</ele>
        <time>2025-04-30T15:50:00Z</time>
      </trkpt>
      <trkpt lat="45.63751" lon="4.60058">
        <ele>835</ele>
        <time>2025-04-30T15:50:01Z</time>
      </trkpt>
      <trkpt lat="45.63751" lon="4.60058">
        <ele>835</ele>
        <time>2025-04-30T15:50:02Z</time>
      </trkpt>
      <trkpt lat="45.63751" lon="4.60059">
        <ele>835</ele>
        <time>2025-04-30T15:50:03Z</time>
      </trkpt>
      <trkpt lat="45.63752" lon="4.60061">
        <ele>835</ele>
        <time>2025-04-30T15:50:04Z</time>
      </trkpt>
      <trkpt lat="45.63754" lon="4.60064">
        <ele>835</ele>
        <time>2025-04-30T15:50:05Z</time>
      </trkpt>
      <trkpt lat="45.63755" lon="4.60067">
        <ele>835</ele>
        <time>2025-04-30T15:50:06Z</time>
      </trkpt>
      <trkpt lat="45.63757" lon="4.60072">
        <ele>834.8</ele>
        <time>2025-04-30T15:50:07Z</time>
      </trkpt>
      <trkpt lat="45.63759" lon="4.60075">
        <ele>834.4</ele>
        <time>2025-04-30T15:50:08Z</time>
      </trkpt>
      <trkpt lat="45.6376" lon="4.60079">
        <ele>834</ele>
        <time>2025-04-30T15:50:09Z</time>
      </trkpt>
      <trkpt lat="45.63762" lon="4.60084">
        <ele>833.4</ele>
        <time>2025-04-30T15:50:10Z</time>
      </trkpt>
      <trkpt lat="45.63764" lon="4.60088">
        <ele>833.2</ele>
        <time>2025-04-30T15:50:11Z</time>
      </trkpt>
      <trkpt lat="45.63766" lon="4.60093">
        <ele>833</ele>
        <time>2025-04-30T15:50:12Z</time>
      </trkpt>
      <trkpt lat="45.63769" lon="4.60099">
        <ele>832.8</ele>
        <time>2025-04-30T15:50:13Z</time>
      </trkpt>
      <trkpt lat="45.63771" lon="4.60103">
        <ele>832.4</ele>
        <time>2025-04-30T15:50:14Z</time>
      </trkpt>
      <trkpt lat="45.63773" lon="4.60107">
        <ele>831.6</ele>
        <time>2025-04-30T15:50:15Z</time>
      </trkpt>
      <trkpt lat="45.63776" lon="4.60112">
        <ele>830.8</ele>
        <time>2025-04-30T15:50:16Z</time>
      </trkpt>
      <trkpt lat="45.63778" lon="4.60116">
        <ele>830</ele>
        <time>2025-04-30T15:50:17Z</time>
      </trkpt>
      <trkpt lat="45.63781" lon="4.6012">
        <ele>829.4</ele>
        <time>2025-04-30T15:50:18Z</time>
      </trkpt>
      <trkpt lat="45.63784" lon="4.60124">
        <ele>829</ele>
        <time>2025-04-30T15:50:19Z</time>
      </trkpt>
      <trkpt lat="45.63787" lon="4.60127">
        <ele>828</ele>
        <time>2025-04-30T15:50:20Z</time>
      </trkpt>
      <trkpt lat="45.6379" lon="4.60132">
        <ele>827.6</ele>
        <time>2025-04-30T15:50:21Z</time>
      </trkpt>
      <trkpt lat="45.63793" lon="4.60136">
        <ele>827</ele>
        <time>2025-04-30T15:50:22Z</time>
      </trkpt>
      <trkpt lat="45.63796" lon="4.60141">
        <ele>826.2</ele>
        <time>2025-04-30T15:50:23Z</time>
      </trkpt>
      <trkpt lat="45.63798" lon="4.60145">
        <ele>825</ele>
        <time>2025-04-30T15:50:24Z</time>
      </trkpt>
      <trkpt lat="45.638" lon="4.60147">
        <ele>824.2</ele>
        <time>2025-04-30T15:50:25Z</time>
      </trkpt>
      <trkpt lat="45.63801" lon="4.6015">
        <ele>823.8</ele>
        <time>2025-04-30T15:50:26Z</time>
      </trkpt>
      <trkpt lat="45.63802" lon="4.60152">
        <ele>823.8</ele>
        <time>2025-04-30T15:50:27Z</time>
      </trkpt>
      <trkpt lat="45.63803" lon="4.60155">
        <ele>823.4</ele>
        <time>2025-04-30T15:50:28Z</time>
      </trkpt>
      <trkpt lat="45.63804" lon="4.60158">
        <ele>822.8</ele>
        <time>2025-04-30T15:50:29Z</time>
      </trkpt>
      <trkpt lat="45.63806" lon="4.60161">
        <ele>822.6</ele>
        <time>2025-04-30T15:50:30Z</time>
      </trkpt>
      <trkpt lat="45.63811" lon="4.60168">
        <ele>822.2</ele>
        <time>2025-04-30T15:50:31Z</time>
      </trkpt>
      <trkpt lat="45.63815" lon="4.60174">
        <ele>821.4</ele>
        <time>2025-04-30T15:50:32Z</time>
      </trkpt>
      <trkpt lat="45.6382" lon="4.60181">
        <ele>820.6</ele>
        <time>2025-04-30T15:50:33Z</time>
      </trkpt>
      <trkpt lat="45.63824" lon="4.60189">
        <ele>818.8</ele>
        <time>2025-04-30T15:50:34Z</time>
      </trkpt>
      <trkpt lat="45.63829" lon="4.60196">
        <ele>817.6</ele>
        <time>2025-04-30T15:50:35Z</time>
      </trkpt>
      <trkpt lat="45.63833" lon="4.60203">
        <ele>816.6</ele>
        <time>2025-04-30T15:50:36Z</time>
      </trkpt>
      <trkpt lat="45.63836" lon="4.60211">
        <ele>815.8</ele>
        <time>2025-04-30T15:50:37Z</time>
      </trkpt>
      <trkpt lat="45.63839" lon="4.60218">
        <ele>814.6</ele>
        <time>2025-04-30T15:50:38Z</time>
      </trkpt>
      <trkpt lat="45.63841" lon="4.60225">
        <ele>813.8</ele>
        <time>2025-04-30T15:50:39Z</time>
      </trkpt>
      <trkpt lat="45.63844" lon="4.60232">
        <ele>813.2</ele>
        <time>2025-04-30T15:50:40Z</time>
      </trkpt>
      <trkpt lat="45.63847" lon="4.6024">
        <ele>812.2</ele>
        <time>2025-04-30T15:50:41Z</time>
      </trkpt>
      <trkpt lat="45.6385" lon="4.60247">
        <ele>811.2</ele>
        <time>2025-04-30T15:50:42Z</time>
      </trkpt>
      <trkpt lat="45.63854" lon="4.60253">
        <ele>810.4</ele>
        <time>2025-04-30T15:50:43Z</time>
      </trkpt>
      <trkpt lat="45.63857" lon="4.60257">
        <ele>809.2</ele>
        <time>2025-04-30T15:50:44Z</time>
      </trkpt>
      <trkpt lat="45.6386" lon="4.60261">
        <ele>808.8</ele>
        <time>2025-04-30T15:50:45Z</time>
      </trkpt>
      <trkpt lat="45.63864" lon="4.60265">
        <ele>808.2</ele>
        <time>2025-04-30T15:50:46Z</time>
      </trkpt>
      <trkpt lat="45.63868" lon="4.60269">
        <ele>807.6</ele>
        <time>2025-04-30T15:50:47Z</time>
      </trkpt>
      <trkpt lat="45.63873" lon="4.60274">
        <ele>807</ele>
        <time>2025-04-30T15:50:48Z</time>
      </trkpt>
      <trkpt lat="45.63877" lon="4.6028">
        <ele>806.4</ele>
        <time>2025-04-30T15:50:49Z</time>
      </trkpt>
      <trkpt lat="45.63882" lon="4.60286">
        <ele>805.6</ele>
        <time>2025-04-30T15:50:50Z</time>
      </trkpt>
      <trkpt lat="45.63887" lon="4.60292">
        <ele>804.8</ele>
        <time>2025-04-30T15:50:51Z</time>
      </trkpt>
      <trkpt lat="45.63893" lon="4.60299">
        <ele>803.8</ele>
        <time>2025-04-30T15:50:52Z</time>
      </trkpt>
      <trkpt lat="45.639" lon="4.60306">
        <ele>802.8</ele>
        <time>2025-04-30T15:50:53Z</time>
      </trkpt>
      <trkpt lat="45.63907" lon="4.60314">
        <ele>800.4</ele>
        <time>2025-04-30T15:50:54Z</time>
      </trkpt>
      <trkpt lat="45.63914" lon="4.6032">
        <ele>799.4</ele>
        <time>2025-04-30T15:50:55Z</time>
      </trkpt>
      <trkpt lat="45.63919" lon="4.60326">
        <ele>798.2</ele>
        <time>2025-04-30T15:50:56Z</time>
      </trkpt>
      <trkpt lat="45.63924" lon="4.60331">
        <ele>797.4</ele>
        <time>2025-04-30T15:50:57Z</time>
      </trkpt>
      <trkpt lat="45.63927" lon="4.60337">
        <ele>797.2</ele>
        <time>2025-04-30T15:50:58Z</time>
      </trkpt>
      <trkpt lat="45.6393" lon="4.60342">
        <ele>796.8</ele>
        <time>2025-04-30T15:50:59Z</time>
      </trkpt>
      <trkpt lat="45.63933" lon="4.60346">
        <ele>796.6</ele>
        <time>2025-04-30T15:51:00Z</time>
      </trkpt>
      <trkpt lat="45.63934" lon="4.60348">
        <ele>796.4</ele>
        <time>2025-04-30T15:51:01Z</time>
      </trkpt>
      <trkpt lat="45.63936" lon="4.60352">
        <ele>796.4</ele>
        <time>2025-04-30T15:51:02Z</time>
      </trkpt>
      <trkpt lat="45.63938" lon="4.60357">
        <ele>796.4</ele>
        <time>2025-04-30T15:51:03Z</time>
      </trkpt>
      <trkpt lat="45.63941" lon="4.60361">
        <ele>796.2</ele>
        <time>2025-04-30T15:51:04Z</time>
      </trkpt>
      <trkpt lat="45.63945" lon="4.60365">
        <ele>796</ele>
        <time>2025-04-30T15:51:05Z</time>
      </trkpt>
      <trkpt lat="45.63948" lon="4.60368">
        <ele>795.6</ele>
        <time>2025-04-30T15:51:06Z</time>
      </trkpt>
      <trkpt lat="45.63951" lon="4.60371">
        <ele>794.8</ele>
        <time>2025-04-30T15:51:07Z</time>
      </trkpt>
      <trkpt lat="45.63957" lon="4.60374">
        <ele>794.4</ele>
        <time>2025-04-30T15:51:08Z</time>
      </trkpt>
      <trkpt lat="45.63962" lon="4.60376">
        <ele>793.8</ele>
        <time>2025-04-30T15:51:09Z</time>
      </trkpt>
      <trkpt lat="45.63966" lon="4.60378">
        <ele>793.6</ele>
        <time>2025-04-30T15:51:10Z</time>
      </trkpt>
      <trkpt lat="45.63973" lon="4.60381">
        <ele>793</ele>
        <time>2025-04-30T15:51:11Z</time>
      </trkpt>
      <trkpt lat="45.63979" lon="4.60384">
        <ele>792</ele>
        <time>2025-04-30T15:51:12Z</time>
      </trkpt>
      <trkpt lat="45.63984" lon="4.60387">
        <ele>791.8</ele>
        <time>2025-04-30T15:51:13Z</time>
      </trkpt>
      <trkpt lat="45.6399" lon="4.60392">
        <ele>791.2</ele>
        <time>2025-04-30T15:51:14Z</time>
      </trkpt>
      <trkpt lat="45.63992" lon="4.60395">
        <ele>790.4</ele>
        <time>2025-04-30T15:51:15Z</time>
      </trkpt>
      <trkpt lat="45.63995" lon="4.60398">
        <ele>790.2</ele>
        <time>2025-04-30T15:51:16Z</time>
      </trkpt>
      <trkpt lat="45.64" lon="4.60402">
        <ele>790</ele>
        <time>2025-04-30T15:51:17Z</time>
      </trkpt>
      <trkpt lat="45.64004" lon="4.60405">
        <ele>789.8</ele>
        <time>2025-04-30T15:51:18Z</time>
      </trkpt>
      <trkpt lat="45.6401" lon="4.60407">
        <ele>789.6</ele>
        <time>2025-04-30T15:51:19Z</time>
      </trkpt>
      <trkpt lat="45.64014" lon="4.60409">
        <ele>789.2</ele>
        <time>2025-04-30T15:51:20Z</time>
      </trkpt>
      <trkpt lat="45.64019" lon="4.60411">
        <ele>788.8</ele>
        <time>2025-04-30T15:51:21Z</time>
      </trkpt>
      <trkpt lat="45.64024" lon="4.60414">
        <ele>788.6</ele>
        <time>2025-04-30T15:51:22Z</time>
      </trkpt>
      <trkpt lat="45.64029" lon="4.60418">
        <ele>788.2</ele>
        <time>2025-04-30T15:51:23Z</time>
      </trkpt>
      <trkpt lat="45.64033" lon="4.60423">
        <ele>787.6</ele>
        <time>2025-04-30T15:51:24Z</time>
      </trkpt>
      <trkpt lat="45.64037" lon="4.60429">
        <ele>787.4</ele>
        <time>2025-04-30T15:51:25Z</time>
      </trkpt>
      <trkpt lat="45.64041" lon="4.60434">
        <ele>787</ele>
        <time>2025-04-30T15:51:26Z</time>
      </trkpt>
      <trkpt lat="45.64043" lon="4.60437">
        <ele>785.8</ele>
        <time>2025-04-30T15:51:27Z</time>
      </trkpt>
      <trkpt lat="45.64044" lon="4.6044">
        <ele>785.6</ele>
        <time>2025-04-30T15:51:28Z</time>
      </trkpt>
      <trkpt lat="45.64048" lon="4.60444">
        <ele>785</ele>
        <time>2025-04-30T15:51:29Z</time>
      </trkpt>
      <trkpt lat="45.64051" lon="4.60447">
        <ele>784.8</ele>
        <time>2025-04-30T15:51:30Z</time>
      </trkpt>
      <trkpt lat="45.64054" lon="4.60452">
        <ele>784.4</ele>
        <time>2025-04-30T15:51:31Z</time>
      </trkpt>
      <trkpt lat="45.64056" lon="4.60458">
        <ele>784.2</ele>
        <time>2025-04-30T15:51:32Z</time>
      </trkpt>
      <trkpt lat="45.64058" lon="4.60461">
        <ele>783.6</ele>
        <time>2025-04-30T15:51:33Z</time>
      </trkpt>
      <trkpt lat="45.64059" lon="4.60464">
        <ele>783</ele>
        <time>2025-04-30T15:51:34Z</time>
      </trkpt>
      <trkpt lat="45.6406" lon="4.60468">
        <ele>782.6</ele>
        <time>2025-04-30T15:51:35Z</time>
      </trkpt>
      <trkpt lat="45.64062" lon="4.60472">
        <ele>782.2</ele>
        <time>2025-04-30T15:51:36Z</time>
      </trkpt>
      <trkpt lat="45.64063" lon="4.60474">
        <ele>782.2</ele>
        <time>2025-04-30T15:51:37Z</time>
      </trkpt>
      <trkpt lat="45.64065" lon="4.60477">
        <ele>781.8</ele>
        <time>2025-04-30T15:51:38Z</time>
      </trkpt>
      <trkpt lat="45.64066" lon="4.60479">
        <ele>781.2</ele>
        <time>2025-04-30T15:51:39Z</time>
      </trkpt>
      <trkpt lat="45.64067" lon="4.60481">
        <ele>780.8</ele>
        <time>2025-04-30T15:51:40Z</time>
      </trkpt>
      <trkpt lat="45.64068" lon="4.60484">
        <ele>780.4</ele>
        <time>2025-04-30T15:51:41Z</time>
      </trkpt>
      <trkpt lat="45.64069" lon="4.60487">
        <ele>780</ele>
        <time>2025-04-30T15:51:42Z</time>
      </trkpt>
      <trkpt lat="45.64069" lon="4.6049">
        <ele>779.4</ele>
        <time>2025-04-30T15:51:43Z</time>
      </trkpt>
      <trkpt lat="45.6407" lon="4.60494">
        <ele>778.8</ele>
        <time>2025-04-30T15:51:44Z</time>
      </trkpt>
      <trkpt lat="45.64069" lon="4.60496">
        <ele>778.4</ele>
        <time>2025-04-30T15:51:45Z</time>
      </trkpt>
      <trkpt lat="45.64068" lon="4.60498">
        <ele>777.8</ele>
        <time>2025-04-30T15:51:46Z</time>
      </trkpt>
      <trkpt lat="45.64067" lon="4.605">
        <ele>777.2</ele>
        <time>2025-04-30T15:51:47Z</time>
      </trkpt>
      <trkpt lat="45.64066" lon="4.60502">
        <ele>777</ele>
        <time>2025-04-30T15:51:48Z</time>
      </trkpt>
      <trkpt lat="45.64065" lon="4.60505">
        <ele>776.2</ele>
        <time>2025-04-30T15:51:49Z</time>
      </trkpt>
      <trkpt lat="45.64063" lon="4.60506">
        <ele>775.6</ele>
        <time>2025-04-30T15:51:50Z</time>
      </trkpt>
      <trkpt lat="45.64061" lon="4.60508">
        <ele>775</ele>
        <time>2025-04-30T15:51:51Z</time>
      </trkpt>
      <trkpt lat="45.64057" lon="4.60511">
        <ele>774.4</ele>
        <time>2025-04-30T15:51:52Z</time>
      </trkpt>
      <trkpt lat="45.64053" lon="4.60512">
        <ele>774</ele>
        <time>2025-04-30T15:51:53Z</time>
      </trkpt>
      <trkpt lat="45.6405" lon="4.60512">
        <ele>773</ele>
        <time>2025-04-30T15:51:54Z</time>
      </trkpt>
      <trkpt lat="45.64046" lon="4.60513">
        <ele>772.4</ele>
        <time>2025-04-30T15:51:55Z</time>
      </trkpt>
      <trkpt lat="45.64041" lon="4.60516">
        <ele>771.8</ele>
        <time>2025-04-30T15:51:56Z</time>
      </trkpt>
      <trkpt lat="45.64035" lon="4.60518">
        <ele>770.6</ele>
        <time>2025-04-30T15:51:57Z</time>
      </trkpt>
      <trkpt lat="45.64029" lon="4.6052">
        <ele>769</ele>
        <time>2025-04-30T15:51:58Z</time>
      </trkpt>
      <trkpt lat="45.64024" lon="4.6052">
        <ele>768.2</ele>
        <time>2025-04-30T15:51:59Z</time>
      </trkpt>
      <trkpt lat="45.64016" lon="4.6052">
        <ele>768</ele>
        <time>2025-04-30T15:52:00Z</time>
      </trkpt>
      <trkpt lat="45.6401" lon="4.6052">
        <ele>767</ele>
        <time>2025-04-30T15:52:01Z</time>
      </trkpt>
      <trkpt lat="45.64003" lon="4.60519">
        <ele>766.2</ele>
        <time>2025-04-30T15:52:02Z</time>
      </trkpt>
      <trkpt lat="45.63999" lon="4.60519">
        <ele>765.2</ele>
        <time>2025-04-30T15:52:03Z</time>
      </trkpt>
      <trkpt lat="45.63996" lon="4.6052">
        <ele>764.2</ele>
        <time>2025-04-30T15:52:04Z</time>
      </trkpt>
      <trkpt lat="45.63993" lon="4.60522">
        <ele>763.8</ele>
        <time>2025-04-30T15:52:05Z</time>
      </trkpt>
      <trkpt lat="45.63991" lon="4.60524">
        <ele>763.6</ele>
        <time>2025-04-30T15:52:06Z</time>
      </trkpt>
      <trkpt lat="45.63989" lon="4.60526">
        <ele>763.2</ele>
        <time>2025-04-30T15:52:07Z</time>
      </trkpt>
      <trkpt lat="45.63985" lon="4.60529">
        <ele>763</ele>
        <time>2025-04-30T15:52:08Z</time>
      </trkpt>
      <trkpt lat="45.63982" lon="4.60533">
        <ele>762.6</ele>
        <time>2025-04-30T15:52:09Z</time>
      </trkpt>
      <trkpt lat="45.63978" lon="4.60536">
        <ele>762.2</ele>
        <time>2025-04-30T15:52:10Z</time>
      </trkpt>
      <trkpt lat="45.63974" lon="4.60538">
        <ele>761.4</ele>
        <time>2025-04-30T15:52:11Z</time>
      </trkpt>
      <trkpt lat="45.63971" lon="4.60541">
        <ele>760.6</ele>
        <time>2025-04-30T15:52:12Z</time>
      </trkpt>
      <trkpt lat="45.63969" lon="4.60542">
        <ele>759.4</ele>
        <time>2025-04-30T15:52:13Z</time>
      </trkpt>
      <trkpt lat="45.63969" lon="4.60542">
        <ele>759</ele>
        <time>2025-04-30T15:52:14Z</time>
      </trkpt>
      <trkpt lat="45.63969" lon="4.60542">
        <ele>758.6</ele>
        <time>2025-04-30T15:52:15Z</time>
      </trkpt>
      <trkpt lat="45.63969" lon="4.60542">
        <ele>758.6</ele>
        <time>2025-04-30T15:52:16Z</time>
      </trkpt>
      <trkpt lat="45.63969" lon="4.60542">
        <ele>758.4</ele>
        <time>2025-04-30T15:52:17Z</time>
      </trkpt>
      <trkpt lat="45.63969" lon="4.60542">
        <ele>758.4</ele>
        <time>2025-04-30T15:52:18Z</time>
      </trkpt>
      <trkpt lat="45.63969" lon="4.60542">
        <ele>758.4</ele>
        <time>2025-04-30T15:52:19Z</time>
      </trkpt>
      <trkpt lat="45.63969" lon="4.60542">
        <ele>758.4</ele>
        <time>2025-04-30T15:52:20Z</time>
      </trkpt>
      <trkpt lat="45.63969" lon="4.60542">
        <ele>758.4</ele>
        <time>2025-04-30T15:52:21Z</time>
      </trkpt>
      <trkpt lat="45.63969" lon="4.60542">
        <ele>758.4</ele>
        <time>2025-04-30T15:52:22Z</time>
      </trkpt>
      <trkpt lat="45.63969" lon="4.60543">
        <ele>758.2</ele>
        <time>2025-04-30T15:52:23Z</time>
      </trkpt>
      <trkpt lat="45.63969" lon="4.60543">
        <ele>758.2</ele>
        <time>2025-04-30T15:52:24Z</time>
      </trkpt>
      <trkpt lat="45.63969" lon="4.60543">
        <ele>758.2</ele>
        <time>2025-04-30T15:52:25Z</time>
      </trkpt>
      <trkpt lat="45.63969" lon="4.60543">
        <ele>758.2</ele>
        <time>2025-04-30T15:52:26Z</time>
      </trkpt>
      <trkpt lat="45.63969" lon="4.60543">
        <ele>758.2</ele>
        <time>2025-04-30T15:52:27Z</time>
      </trkpt>
      <trkpt lat="45.63969" lon="4.60543">
        <ele>758.2</ele>
        <time>2025-04-30T15:52:28Z</time>
      </trkpt>
      <trkpt lat="45.63969" lon="4.60543">
        <ele>758.2</ele>
        <time>2025-04-30T15:52:29Z</time>
      </trkpt>
      <trkpt lat="45.63969" lon="4.60543">
        <ele>758.2</ele>
        <time>2025-04-30T15:52:30Z</time>
      </trkpt>
      <trkpt lat="45.63969" lon="4.60543">
        <ele>758.2</ele>
        <time>2025-04-30T15:52:31Z</time>
      </trkpt>
      <trkpt lat="45.63969" lon="4.60543">
        <ele>758.2</ele>
        <time>2025-04-30T15:52:32Z</time>
      </trkpt>
      <trkpt lat="45.63969" lon="4.60543">
        <ele>758</ele>
        <time>2025-04-30T15:52:33Z</time>
      </trkpt>
      <trkpt lat="45.63969" lon="4.60543">
        <ele>758</ele>
        <time>2025-04-30T15:52:34Z</time>
      </trkpt>
      <trkpt lat="45.63969" lon="4.60543">
        <ele>758</ele>
        <time>2025-04-30T15:52:35Z</time>
      </trkpt>
      <trkpt lat="45.63969" lon="4.60543">
        <ele>758</ele>
        <time>2025-04-30T15:52:36Z</time>
      </trkpt>
      <trkpt lat="45.63969" lon="4.60543">
        <ele>758</ele>
        <time>2025-04-30T15:52:37Z</time>
      </trkpt>
      <trkpt lat="45.63969" lon="4.60543">
        <ele>758</ele>
        <time>2025-04-30T15:52:38Z</time>
      </trkpt>
      <trkpt lat="45.63969" lon="4.60543">
        <ele>758</ele>
        <time>2025-04-30T15:52:39Z</time>
      </trkpt>
      <trkpt lat="45.63969" lon="4.60543">
        <ele>758</ele>
        <time>2025-04-30T15:52:40Z</time>
      </trkpt>
      <trkpt lat="45.63969" lon="4.60543">
        <ele>758</ele>
        <time>2025-04-30T15:52:41Z</time>
      </trkpt>
      <trkpt lat="45.63969" lon="4.60543">
        <ele>758</ele>
        <time>2025-04-30T15:52:42Z</time>
      </trkpt>
      <trkpt lat="45.63969" lon="4.60543">
        <ele>758</ele>
        <time>2025-04-30T15:52:43Z</time>
      </trkpt>
      <trkpt lat="45.63969" lon="4.60543">
        <ele>758</ele>
        <time>2025-04-30T15:52:44Z</time>
      </trkpt>
      <trkpt lat="45.63969" lon="4.60543">
        <ele>758</ele>
        <time>2025-04-30T15:52:45Z</time>
      </trkpt>
      <trkpt lat="45.63969" lon="4.60543">
        <ele>758</ele>
        <time>2025-04-30T15:52:46Z</time>
      </trkpt>
      <trkpt lat="45.63969" lon="4.60543">
        <ele>758</ele>
        <time>2025-04-30T15:52:47Z</time>
      </trkpt>
      <trkpt lat="45.63969" lon="4.60543">
        <ele>757.8</ele>
        <time>2025-04-30T15:52:48Z</time>
      </trkpt>
      <trkpt lat="45.6397" lon="4.60544">
        <ele>757.8</ele>
        <time>2025-04-30T15:52:49Z</time>
      </trkpt>
      <trkpt lat="45.63972" lon="4.60547">
        <ele>757.8</ele>
        <time>2025-04-30T15:52:50Z</time>
      </trkpt>
      <trkpt lat="45.63975" lon="4.60549">
        <ele>757.8</ele>
        <time>2025-04-30T15:52:51Z</time>
      </trkpt>
      <trkpt lat="45.63979" lon="4.60551">
        <ele>757.6</ele>
        <time>2025-04-30T15:52:52Z</time>
      </trkpt>
      <trkpt lat="45.63983" lon="4.60554">
        <ele>757.2</ele>
        <time>2025-04-30T15:52:53Z</time>
      </trkpt>
      <trkpt lat="45.63988" lon="4.60557">
        <ele>756.6</ele>
        <time>2025-04-30T15:52:54Z</time>
      </trkpt>
      <trkpt lat="45.63993" lon="4.60561">
        <ele>755.8</ele>
        <time>2025-04-30T15:52:55Z</time>
      </trkpt>
      <trkpt lat="45.63997" lon="4.60565">
        <ele>754.8</ele>
        <time>2025-04-30T15:52:56Z</time>
      </trkpt>
      <trkpt lat="45.64002" lon="4.60568">
        <ele>754.4</ele>
        <time>2025-04-30T15:52:57Z</time>
      </trkpt>
      <trkpt lat="45.64007" lon="4.60572">
        <ele>754</ele>
        <time>2025-04-30T15:52:58Z</time>
      </trkpt>
      <trkpt lat="45.64011" lon="4.60575">
        <ele>753.4</ele>
        <time>2025-04-30T15:52:59Z</time>
      </trkpt>
      <trkpt lat="45.64015" lon="4.60578">
        <ele>753.2</ele>
        <time>2025-04-30T15:53:00Z</time>
      </trkpt>
      <trkpt lat="45.6402" lon="4.6058">
        <ele>753</ele>
        <time>2025-04-30T15:53:01Z</time>
      </trkpt>
      <trkpt lat="45.64024" lon="4.60583">
        <ele>752.8</ele>
        <time>2025-04-30T15:53:02Z</time>
      </trkpt>
      <trkpt lat="45.64028" lon="4.60585">
        <ele>752.6</ele>
        <time>2025-04-30T15:53:03Z</time>
      </trkpt>
      <trkpt lat="45.64033" lon="4.60588">
        <ele>752.4</ele>
        <time>2025-04-30T15:53:04Z</time>
      </trkpt>
      <trkpt lat="45.64037" lon="4.60591">
        <ele>752.4</ele>
        <time>2025-04-30T15:53:05Z</time>
      </trkpt>
      <trkpt lat="45.64041" lon="4.60593">
        <ele>752.2</ele>
        <time>2025-04-30T15:53:06Z</time>
      </trkpt>
      <trkpt lat="45.64046" lon="4.60596">
        <ele>752.2</ele>
        <time>2025-04-30T15:53:07Z</time>
      </trkpt>
      <trkpt lat="45.6405" lon="4.60599">
        <ele>752.2</ele>
        <time>2025-04-30T15:53:08Z</time>
      </trkpt>
      <trkpt lat="45.64054" lon="4.60602">
        <ele>752</ele>
        <time>2025-04-30T15:53:09Z</time>
      </trkpt>
      <trkpt lat="45.64059" lon="4.60604">
        <ele>752</ele>
        <time>2025-04-30T15:53:10Z</time>
      </trkpt>
      <trkpt lat="45.64063" lon="4.60606">
        <ele>751.8</ele>
        <time>2025-04-30T15:53:11Z</time>
      </trkpt>
      <trkpt lat="45.64068" lon="4.60608">
        <ele>751.6</ele>
        <time>2025-04-30T15:53:12Z</time>
      </trkpt>
      <trkpt lat="45.64072" lon="4.60612">
        <ele>751.4</ele>
        <time>2025-04-30T15:53:13Z</time>
      </trkpt>
      <trkpt lat="45.64077" lon="4.60615">
        <ele>751.2</ele>
        <time>2025-04-30T15:53:14Z</time>
      </trkpt>
      <trkpt lat="45.64082" lon="4.60618">
        <ele>750.8</ele>
        <time>2025-04-30T15:53:15Z</time>
      </trkpt>
      <trkpt lat="45.64087" lon="4.60621">
        <ele>750.6</ele>
        <time>2025-04-30T15:53:16Z</time>
      </trkpt>
      <trkpt lat="45.64093" lon="4.60624">
        <ele>750.4</ele>
        <time>2025-04-30T15:53:17Z</time>
      </trkpt>
      <trkpt lat="45.64098" lon="4.60628">
        <ele>749.8</ele>
        <time>2025-04-30T15:53:18Z</time>
      </trkpt>
      <trkpt lat="45.64103" lon="4.60631">
        <ele>749.4</ele>
        <time>2025-04-30T15:53:19Z</time>
      </trkpt>
      <trkpt lat="45.64108" lon="4.60635">
        <ele>748.6</ele>
        <time>2025-04-30T15:53:20Z</time>
      </trkpt>
      <trkpt lat="45.64114" lon="4.60638">
        <ele>748.6</ele>
        <time>2025-04-30T15:53:21Z</time>
      </trkpt>
      <trkpt lat="45.6412" lon="4.60642">
        <ele>748</ele>
        <time>2025-04-30T15:53:22Z</time>
      </trkpt>
      <trkpt lat="45.64127" lon="4.60645">
        <ele>747.4</ele>
        <time>2025-04-30T15:53:23Z</time>
      </trkpt>
      <trkpt lat="45.64134" lon="4.60649">
        <ele>746.6</ele>
        <time>2025-04-30T15:53:24Z</time>
      </trkpt>
      <trkpt lat="45.64141" lon="4.60651">
        <ele>745.6</ele>
        <time>2025-04-30T15:53:25Z</time>
      </trkpt>
      <trkpt lat="45.64146" lon="4.60652">
        <ele>745.2</ele>
        <time>2025-04-30T15:53:26Z</time>
      </trkpt>
      <trkpt lat="45.64153" lon="4.60653">
        <ele>744.4</ele>
        <time>2025-04-30T15:53:27Z</time>
      </trkpt>
      <trkpt lat="45.6416" lon="4.60652">
        <ele>743.8</ele>
        <time>2025-04-30T15:53:28Z</time>
      </trkpt>
      <trkpt lat="45.64166" lon="4.60652">
        <ele>743.8</ele>
        <time>2025-04-30T15:53:29Z</time>
      </trkpt>
      <trkpt lat="45.64172" lon="4.60651">
        <ele>743.6</ele>
        <time>2025-04-30T15:53:30Z</time>
      </trkpt>
      <trkpt lat="45.64179" lon="4.60649">
        <ele>743.4</ele>
        <time>2025-04-30T15:53:31Z</time>
      </trkpt>
      <trkpt lat="45.64185" lon="4.60646">
        <ele>743</ele>
        <time>2025-04-30T15:53:32Z</time>
      </trkpt>
      <trkpt lat="45.64191" lon="4.60643">
        <ele>742.8</ele>
        <time>2025-04-30T15:53:33Z</time>
      </trkpt>
      <trkpt lat="45.64198" lon="4.6064">
        <ele>742.4</ele>
        <time>2025-04-30T15:53:34Z</time>
      </trkpt>
      <trkpt lat="45.64203" lon="4.60636">
        <ele>741.8</ele>
        <time>2025-04-30T15:53:35Z</time>
      </trkpt>
      <trkpt lat="45.64209" lon="4.60631">
        <ele>741.2</ele>
        <time>2025-04-30T15:53:36Z</time>
      </trkpt>
      <trkpt lat="45.64215" lon="4.60626">
        <ele>740.8</ele>
        <time>2025-04-30T15:53:37Z</time>
      </trkpt>
      <trkpt lat="45.64221" lon="4.60622">
        <ele>740</ele>
        <time>2025-04-30T15:53:38Z</time>
      </trkpt>
      <trkpt lat="45.64226" lon="4.60617">
        <ele>739.4</ele>
        <time>2025-04-30T15:53:39Z</time>
      </trkpt>
      <trkpt lat="45.64231" lon="4.60609">
        <ele>739</ele>
        <time>2025-04-30T15:53:40Z</time>
      </trkpt>
      <trkpt lat="45.64234" lon="4.60603">
        <ele>738</ele>
        <time>2025-04-30T15:53:41Z</time>
      </trkpt>
      <trkpt lat="45.64237" lon="4.60599">
        <ele>737</ele>
        <time>2025-04-30T15:53:42Z</time>
      </trkpt>
      <trkpt lat="45.64241" lon="4.60594">
        <ele>736.8</ele>
        <time>2025-04-30T15:53:43Z</time>
      </trkpt>
      <trkpt lat="45.64245" lon="4.60588">
        <ele>736.6</ele>
        <time>2025-04-30T15:53:44Z</time>
      </trkpt>
      <trkpt lat="45.64246" lon="4.60585">
        <ele>736.4</ele>
        <time>2025-04-30T15:53:45Z</time>
      </trkpt>
      <trkpt lat="45.64247" lon="4.60582">
        <ele>736</ele>
        <time>2025-04-30T15:53:46Z</time>
      </trkpt>
      <trkpt lat="45.64249" lon="4.60579">
        <ele>736</ele>
        <time>2025-04-30T15:53:47Z</time>
      </trkpt>
      <trkpt lat="45.6425" lon="4.60576">
        <ele>735.8</ele>
        <time>2025-04-30T15:53:48Z</time>
      </trkpt>
      <trkpt lat="45.64252" lon="4.60573">
        <ele>735.8</ele>
        <time>2025-04-30T15:53:49Z</time>
      </trkpt>
      <trkpt lat="45.64254" lon="4.6057">
        <ele>735.8</ele>
        <time>2025-04-30T15:53:50Z</time>
      </trkpt>
      <trkpt lat="45.64256" lon="4.60567">
        <ele>735.6</ele>
        <time>2025-04-30T15:53:51Z</time>
      </trkpt>
      <trkpt lat="45.64259" lon="4.60564">
        <ele>735.6</ele>
        <time>2025-04-30T15:53:52Z</time>
      </trkpt>
      <trkpt lat="45.64262" lon="4.60561">
        <ele>735.6</ele>
        <time>2025-04-30T15:53:53Z</time>
      </trkpt>
      <trkpt lat="45.64266" lon="4.60558">
        <ele>735.4</ele>
        <time>2025-04-30T15:53:54Z</time>
      </trkpt>
      <trkpt lat="45.6427" lon="4.60555">
        <ele>735.4</ele>
        <time>2025-04-30T15:53:55Z</time>
      </trkpt>
      <trkpt lat="45.64274" lon="4.60551">
        <ele>735</ele>
        <time>2025-04-30T15:53:56Z</time>
      </trkpt>
      <trkpt lat="45.64279" lon="4.60547">
        <ele>734.6</ele>
        <time>2025-04-30T15:53:57Z</time>
      </trkpt>
      <trkpt lat="45.64283" lon="4.60543">
        <ele>734.2</ele>
        <time>2025-04-30T15:53:58Z</time>
      </trkpt>
      <trkpt lat="45.64287" lon="4.60539">
        <ele>734</ele>
        <time>2025-04-30T15:53:59Z</time>
      </trkpt>
      <trkpt lat="45.64291" lon="4.60536">
        <ele>733.6</ele>
        <time>2025-04-30T15:54:00Z</time>
      </trkpt>
      <trkpt lat="45.64296" lon="4.60536">
        <ele>732.8</ele>
        <time>2025-04-30T15:54:01Z</time>
      </trkpt>
      <trkpt lat="45.643" lon="4.60535">
        <ele>732.4</ele>
        <time>2025-04-30T15:54:02Z</time>
      </trkpt>
      <trkpt lat="45.64304" lon="4.60536">
        <ele>731.8</ele>
        <time>2025-04-30T15:54:03Z</time>
      </trkpt>
      <trkpt lat="45.64308" lon="4.60537">
        <ele>730.8</ele>
        <time>2025-04-30T15:54:04Z</time>
      </trkpt>
      <trkpt lat="45.64312" lon="4.60537">
        <ele>730.4</ele>
        <time>2025-04-30T15:54:05Z</time>
      </trkpt>
      <trkpt lat="45.64316" lon="4.60537">
        <ele>730</ele>
        <time>2025-04-30T15:54:06Z</time>
      </trkpt>
      <trkpt lat="45.6432" lon="4.60537">
        <ele>729.4</ele>
        <time>2025-04-30T15:54:07Z</time>
      </trkpt>
      <trkpt lat="45.64322" lon="4.60537">
        <ele>728.4</ele>
        <time>2025-04-30T15:54:08Z</time>
      </trkpt>
      <trkpt lat="45.64325" lon="4.60536">
        <ele>728.2</ele>
        <time>2025-04-30T15:54:09Z</time>
      </trkpt>
      <trkpt lat="45.64327" lon="4.60535">
        <ele>727.6</ele>
        <time>2025-04-30T15:54:10Z</time>
      </trkpt>
      <trkpt lat="45.64329" lon="4.60534">
        <ele>727.2</ele>
        <time>2025-04-30T15:54:11Z</time>
      </trkpt>
      <trkpt lat="45.64331" lon="4.60534">
        <ele>726.8</ele>
        <time>2025-04-30T15:54:12Z</time>
      </trkpt>
      <trkpt lat="45.64333" lon="4.60534">
        <ele>726.4</ele>
        <time>2025-04-30T15:54:13Z</time>
      </trkpt>
      <trkpt lat="45.64337" lon="4.60533">
        <ele>726.4</ele>
        <time>2025-04-30T15:54:14Z</time>
      </trkpt>
      <trkpt lat="45.6434" lon="4.60532">
        <ele>725.8</ele>
        <time>2025-04-30T15:54:15Z</time>
      </trkpt>
      <trkpt lat="45.64344" lon="4.60531">
        <ele>725</ele>
        <time>2025-04-30T15:54:16Z</time>
      </trkpt>
      <trkpt lat="45.64348" lon="4.60529">
        <ele>724.4</ele>
        <time>2025-04-30T15:54:17Z</time>
      </trkpt>
      <trkpt lat="45.64352" lon="4.60526">
        <ele>723.6</ele>
        <time>2025-04-30T15:54:18Z</time>
      </trkpt>
      <trkpt lat="45.64355" lon="4.60523">
        <ele>722.8</ele>
        <time>2025-04-30T15:54:19Z</time>
      </trkpt>
      <trkpt lat="45.64357" lon="4.6052">
        <ele>721.8</ele>
        <time>2025-04-30T15:54:20Z</time>
      </trkpt>
      <trkpt lat="45.6436" lon="4.60519">
        <ele>721.2</ele>
        <time>2025-04-30T15:54:21Z</time>
      </trkpt>
      <trkpt lat="45.64364" lon="4.60518">
        <ele>720.8</ele>
        <time>2025-04-30T15:54:22Z</time>
      </trkpt>
      <trkpt lat="45.64367" lon="4.60517">
        <ele>720.2</ele>
        <time>2025-04-30T15:54:23Z</time>
      </trkpt>
      <trkpt lat="45.64371" lon="4.60516">
        <ele>720</ele>
        <time>2025-04-30T15:54:24Z</time>
      </trkpt>
      <trkpt lat="45.64374" lon="4.60516">
        <ele>718.8</ele>
        <time>2025-04-30T15:54:25Z</time>
      </trkpt>
      <trkpt lat="45.64377" lon="4.60516">
        <ele>718.2</ele>
        <time>2025-04-30T15:54:26Z</time>
      </trkpt>
      <trkpt lat="45.6438" lon="4.60515">
        <ele>717.2</ele>
        <time>2025-04-30T15:54:27Z</time>
      </trkpt>
      <trkpt lat="45.64383" lon="4.60514">
        <ele>716.2</ele>
        <time>2025-04-30T15:54:28Z</time>
      </trkpt>
      <trkpt lat="45.64386" lon="4.60513">
        <ele>715.4</ele>
        <time>2025-04-30T15:54:29Z</time>
      </trkpt>
      <trkpt lat="45.64388" lon="4.60513">
        <ele>715</ele>
        <time>2025-04-30T15:54:30Z</time>
      </trkpt>
      <trkpt lat="45.64392" lon="4.60512">
        <ele>714.2</ele>
        <time>2025-04-30T15:54:31Z</time>
      </trkpt>
      <trkpt lat="45.64395" lon="4.60513">
        <ele>713.4</ele>
        <time>2025-04-30T15:54:32Z</time>
      </trkpt>
      <trkpt lat="45.64397" lon="4.60513">
        <ele>713</ele>
        <time>2025-04-30T15:54:33Z</time>
      </trkpt>
      <trkpt lat="45.644" lon="4.60512">
        <ele>712</ele>
        <time>2025-04-30T15:54:34Z</time>
      </trkpt>
      <trkpt lat="45.64403" lon="4.60511">
        <ele>711.6</ele>
        <time>2025-04-30T15:54:35Z</time>
      </trkpt>
      <trkpt lat="45.64406" lon="4.6051">
        <ele>710.8</ele>
        <time>2025-04-30T15:54:36Z</time>
      </trkpt>
      <trkpt lat="45.64408" lon="4.6051">
        <ele>710</ele>
        <time>2025-04-30T15:54:37Z</time>
      </trkpt>
      <trkpt lat="45.6441" lon="4.60509">
        <ele>709</ele>
        <time>2025-04-30T15:54:38Z</time>
      </trkpt>
      <trkpt lat="45.64413" lon="4.60508">
        <ele>708.6</ele>
        <time>2025-04-30T15:54:39Z</time>
      </trkpt>
      <trkpt lat="45.64415" lon="4.60508">
        <ele>708.2</ele>
        <time>2025-04-30T15:54:40Z</time>
      </trkpt>
      <trkpt lat="45.64418" lon="4.60509">
        <ele>707.2</ele>
        <time>2025-04-30T15:54:41Z</time>
      </trkpt>
      <trkpt lat="45.6442" lon="4.60511">
        <ele>706.4</ele>
        <time>2025-04-30T15:54:42Z</time>
      </trkpt>
      <trkpt lat="45.64422" lon="4.60513">
        <ele>705.6</ele>
        <time>2025-04-30T15:54:43Z</time>
      </trkpt>
      <trkpt lat="45.64424" lon="4.60516">
        <ele>705</ele>
        <time>2025-04-30T15:54:44Z</time>
      </trkpt>
      <trkpt lat="45.64427" lon="4.60519">
        <ele>704.4</ele>
        <time>2025-04-30T15:54:45Z</time>
      </trkpt>
      <trkpt lat="45.64429" lon="4.60522">
        <ele>703.6</ele>
        <time>2025-04-30T15:54:46Z</time>
      </trkpt>
      <trkpt lat="45.64431" lon="4.60524">
        <ele>703</ele>
        <time>2025-04-30T15:54:47Z</time>
      </trkpt>
      <trkpt lat="45.64433" lon="4.60526">
        <ele>702.2</ele>
        <time>2025-04-30T15:54:48Z</time>
      </trkpt>
      <trkpt lat="45.64436" lon="4.60526">
        <ele>701.8</ele>
        <time>2025-04-30T15:54:49Z</time>
      </trkpt>
      <trkpt lat="45.64439" lon="4.60526">
        <ele>701.2</ele>
        <time>2025-04-30T15:54:50Z</time>
      </trkpt>
      <trkpt lat="45.64443" lon="4.60527">
        <ele>700.2</ele>
        <time>2025-04-30T15:54:51Z</time>
      </trkpt>
      <trkpt lat="45.64447" lon="4.60528">
        <ele>699.4</ele>
        <time>2025-04-30T15:54:52Z</time>
      </trkpt>
      <trkpt lat="45.6445" lon="4.60529">
        <ele>698.6</ele>
        <time>2025-04-30T15:54:53Z</time>
      </trkpt>
      <trkpt lat="45.64454" lon="4.6053">
        <ele>697.8</ele>
        <time>2025-04-30T15:54:54Z</time>
      </trkpt>
      <trkpt lat="45.64456" lon="4.60531">
        <ele>696.6</ele>
        <time>2025-04-30T15:54:55Z</time>
      </trkpt>
      <trkpt lat="45.64459" lon="4.60533">
        <ele>695.6</ele>
        <time>2025-04-30T15:54:56Z</time>
      </trkpt>
      <trkpt lat="45.64463" lon="4.60536">
        <ele>694.8</ele>
        <time>2025-04-30T15:54:57Z</time>
      </trkpt>
      <trkpt lat="45.64466" lon="4.60538">
        <ele>694</ele>
        <time>2025-04-30T15:54:58Z</time>
      </trkpt>
      <trkpt lat="45.64469" lon="4.60541">
        <ele>693</ele>
        <time>2025-04-30T15:54:59Z</time>
      </trkpt>
      <trkpt lat="45.64473" lon="4.60543">
        <ele>692.2</ele>
        <time>2025-04-30T15:55:00Z</time>
      </trkpt>
      <trkpt lat="45.64476" lon="4.60546">
        <ele>690.8</ele>
        <time>2025-04-30T15:55:01Z</time>
      </trkpt>
      <trkpt lat="45.64481" lon="4.6055">
        <ele>690.2</ele>
        <time>2025-04-30T15:55:02Z</time>
      </trkpt>
      <trkpt lat="45.64485" lon="4.60554">
        <ele>688.8</ele>
        <time>2025-04-30T15:55:03Z</time>
      </trkpt>
      <trkpt lat="45.64488" lon="4.60558">
        <ele>687.6</ele>
        <time>2025-04-30T15:55:04Z</time>
      </trkpt>
      <trkpt lat="45.64491" lon="4.60562">
        <ele>686.8</ele>
        <time>2025-04-30T15:55:05Z</time>
      </trkpt>
      <trkpt lat="45.64495" lon="4.60567">
        <ele>686</ele>
        <time>2025-04-30T15:55:06Z</time>
      </trkpt>
      <trkpt lat="45.64498" lon="4.60572">
        <ele>685</ele>
        <time>2025-04-30T15:55:07Z</time>
      </trkpt>
      <trkpt lat="45.64501" lon="4.60575">
        <ele>684.6</ele>
        <time>2025-04-30T15:55:08Z</time>
      </trkpt>
      <trkpt lat="45.64504" lon="4.60577">
        <ele>683.2</ele>
        <time>2025-04-30T15:55:09Z</time>
      </trkpt>
      <trkpt lat="45.64505" lon="4.60578">
        <ele>682.2</ele>
        <time>2025-04-30T15:55:10Z</time>
      </trkpt>
      <trkpt lat="45.64505" lon="4.60578">
        <ele>681.8</ele>
        <time>2025-04-30T15:55:11Z</time>
      </trkpt>
      <trkpt lat="45.64505" lon="4.60578">
        <ele>681.4</ele>
        <time>2025-04-30T15:55:12Z</time>
      </trkpt>
      <trkpt lat="45.64505" lon="4.60578">
        <ele>681.2</ele>
        <time>2025-04-30T15:55:13Z</time>
      </trkpt>
      <trkpt lat="45.64505" lon="4.60579">
        <ele>681</ele>
        <time>2025-04-30T15:55:14Z</time>
      </trkpt>
      <trkpt lat="45.64506" lon="4.60579">
        <ele>681</ele>
        <time>2025-04-30T15:55:15Z</time>
      </trkpt>
      <trkpt lat="45.64507" lon="4.6058">
        <ele>680.8</ele>
        <time>2025-04-30T15:55:16Z</time>
      </trkpt>
      <trkpt lat="45.64508" lon="4.60582">
        <ele>680.8</ele>
        <time>2025-04-30T15:55:17Z</time>
      </trkpt>
      <trkpt lat="45.64509" lon="4.60585">
        <ele>680.4</ele>
        <time>2025-04-30T15:55:18Z</time>
      </trkpt>
      <trkpt lat="45.6451" lon="4.60588">
        <ele>680.2</ele>
        <time>2025-04-30T15:55:19Z</time>
      </trkpt>
      <trkpt lat="45.64511" lon="4.60591">
        <ele>680</ele>
        <time>2025-04-30T15:55:20Z</time>
      </trkpt>
      <trkpt lat="45.64512" lon="4.60595">
        <ele>679.8</ele>
        <time>2025-04-30T15:55:21Z</time>
      </trkpt>
      <trkpt lat="45.64513" lon="4.606">
        <ele>679.6</ele>
        <time>2025-04-30T15:55:22Z</time>
      </trkpt>
      <trkpt lat="45.64514" lon="4.60605">
        <ele>679</ele>
        <time>2025-04-30T15:55:23Z</time>
      </trkpt>
      <trkpt lat="45.64515" lon="4.6061">
        <ele>678.6</ele>
        <time>2025-04-30T15:55:24Z</time>
      </trkpt>
      <trkpt lat="45.64516" lon="4.60613">
        <ele>677.6</ele>
        <time>2025-04-30T15:55:25Z</time>
      </trkpt>
      <trkpt lat="45.64518" lon="4.60615">
        <ele>676.6</ele>
        <time>2025-04-30T15:55:26Z</time>
      </trkpt>
      <trkpt lat="45.6452" lon="4.60616">
        <ele>676.4</ele>
        <time>2025-04-30T15:55:27Z</time>
      </trkpt>
      <trkpt lat="45.64523" lon="4.60615">
        <ele>676</ele>
        <time>2025-04-30T15:55:28Z</time>
      </trkpt>
      <trkpt lat="45.64526" lon="4.60614">
        <ele>675.4</ele>
        <time>2025-04-30T15:55:29Z</time>
      </trkpt>
      <trkpt lat="45.6453" lon="4.60612">
        <ele>674.8</ele>
        <time>2025-04-30T15:55:30Z</time>
      </trkpt>
      <trkpt lat="45.64534" lon="4.6061">
        <ele>674</ele>
        <time>2025-04-30T15:55:31Z</time>
      </trkpt>
      <trkpt lat="45.64537" lon="4.60607">
        <ele>672.8</ele>
        <time>2025-04-30T15:55:32Z</time>
      </trkpt>
      <trkpt lat="45.6454" lon="4.60605">
        <ele>672.2</ele>
        <time>2025-04-30T15:55:33Z</time>
      </trkpt>
      <trkpt lat="45.64543" lon="4.60603">
        <ele>671.4</ele>
        <time>2025-04-30T15:55:34Z</time>
      </trkpt>
      <trkpt lat="45.64547" lon="4.60602">
        <ele>670.6</ele>
        <time>2025-04-30T15:55:35Z</time>
      </trkpt>
      <trkpt lat="45.64552" lon="4.60601">
        <ele>669.8</ele>
        <time>2025-04-30T15:55:36Z</time>
      </trkpt>
      <trkpt lat="45.64557" lon="4.60602">
        <ele>669.2</ele>
        <time>2025-04-30T15:55:37Z</time>
      </trkpt>
      <trkpt lat="45.64563" lon="4.60603">
        <ele>668.2</ele>
        <time>2025-04-30T15:55:38Z</time>
      </trkpt>
      <trkpt lat="45.64567" lon="4.60603">
        <ele>667</ele>
        <time>2025-04-30T15:55:39Z</time>
      </trkpt>
      <trkpt lat="45.64571" lon="4.60603">
        <ele>665.6</ele>
        <time>2025-04-30T15:55:40Z</time>
      </trkpt>
      <trkpt lat="45.64575" lon="4.60604">
        <ele>664.8</ele>
        <time>2025-04-30T15:55:41Z</time>
      </trkpt>
      <trkpt lat="45.64578" lon="4.60605">
        <ele>664</ele>
        <time>2025-04-30T15:55:42Z</time>
      </trkpt>
      <trkpt lat="45.64581" lon="4.60606">
        <ele>663.2</ele>
        <time>2025-04-30T15:55:43Z</time>
      </trkpt>
      <trkpt lat="45.64584" lon="4.60608">
        <ele>662.4</ele>
        <time>2025-04-30T15:55:44Z</time>
      </trkpt>
      <trkpt lat="45.64587" lon="4.60611">
        <ele>661.6</ele>
        <time>2025-04-30T15:55:45Z</time>
      </trkpt>
      <trkpt lat="45.64591" lon="4.60614">
        <ele>661</ele>
        <time>2025-04-30T15:55:46Z</time>
      </trkpt>
      <trkpt lat="45.64595" lon="4.60617">
        <ele>660.4</ele>
        <time>2025-04-30T15:55:47Z</time>
      </trkpt>
      <trkpt lat="45.646" lon="4.60622">
        <ele>659.2</ele>
        <time>2025-04-30T15:55:48Z</time>
      </trkpt>
      <trkpt lat="45.64604" lon="4.60625">
        <ele>658.2</ele>
        <time>2025-04-30T15:55:49Z</time>
      </trkpt>
      <trkpt lat="45.64607" lon="4.60628">
        <ele>657.2</ele>
        <time>2025-04-30T15:55:50Z</time>
      </trkpt>
      <trkpt lat="45.6461" lon="4.6063">
        <ele>656.2</ele>
        <time>2025-04-30T15:55:51Z</time>
      </trkpt>
      <trkpt lat="45.64613" lon="4.60631">
        <ele>655.6</ele>
        <time>2025-04-30T15:55:52Z</time>
      </trkpt>
      <trkpt lat="45.64617" lon="4.60633">
        <ele>654.8</ele>
        <time>2025-04-30T15:55:53Z</time>
      </trkpt>
      <trkpt lat="45.64621" lon="4.60633">
        <ele>654.2</ele>
        <time>2025-04-30T15:55:54Z</time>
      </trkpt>
      <trkpt lat="45.64626" lon="4.60635">
        <ele>653.4</ele>
        <time>2025-04-30T15:55:55Z</time>
      </trkpt>
      <trkpt lat="45.64631" lon="4.60637">
        <ele>652.6</ele>
        <time>2025-04-30T15:55:56Z</time>
      </trkpt>
      <trkpt lat="45.64635" lon="4.60639">
        <ele>651.8</ele>
        <time>2025-04-30T15:55:57Z</time>
      </trkpt>
      <trkpt lat="45.64639" lon="4.60643">
        <ele>650.2</ele>
        <time>2025-04-30T15:55:58Z</time>
      </trkpt>
      <trkpt lat="45.64641" lon="4.60645">
        <ele>649</ele>
        <time>2025-04-30T15:55:59Z</time>
      </trkpt>
      <trkpt lat="45.64644" lon="4.60648">
        <ele>648.8</ele>
        <time>2025-04-30T15:56:00Z</time>
      </trkpt>
      <trkpt lat="45.64647" lon="4.60651">
        <ele>648.2</ele>
        <time>2025-04-30T15:56:01Z</time>
      </trkpt>
      <trkpt lat="45.6465" lon="4.60653">
        <ele>647.8</ele>
        <time>2025-04-30T15:56:02Z</time>
      </trkpt>
      <trkpt lat="45.64655" lon="4.60658">
        <ele>647.6</ele>
        <time>2025-04-30T15:56:03Z</time>
      </trkpt>
      <trkpt lat="45.64659" lon="4.60662">
        <ele>647</ele>
        <time>2025-04-30T15:56:04Z</time>
      </trkpt>
      <trkpt lat="45.64663" lon="4.60666">
        <ele>646.6</ele>
        <time>2025-04-30T15:56:05Z</time>
      </trkpt>
      <trkpt lat="45.64668" lon="4.60669">
        <ele>645.4</ele>
        <time>2025-04-30T15:56:06Z</time>
      </trkpt>
      <trkpt lat="45.64673" lon="4.60671">
        <ele>644.8</ele>
        <time>2025-04-30T15:56:07Z</time>
      </trkpt>
      <trkpt lat="45.64678" lon="4.60672">
        <ele>644.2</ele>
        <time>2025-04-30T15:56:08Z</time>
      </trkpt>
      <trkpt lat="45.64685" lon="4.60673">
        <ele>643</ele>
        <time>2025-04-30T15:56:09Z</time>
      </trkpt>
      <trkpt lat="45.6469" lon="4.60674">
        <ele>642.2</ele>
        <time>2025-04-30T15:56:10Z</time>
      </trkpt>
      <trkpt lat="45.64695" lon="4.60675">
        <ele>640.8</ele>
        <time>2025-04-30T15:56:11Z</time>
      </trkpt>
      <trkpt lat="45.64698" lon="4.60675">
        <ele>639.4</ele>
        <time>2025-04-30T15:56:12Z</time>
      </trkpt>
      <trkpt lat="45.647" lon="4.60675">
        <ele>638.6</ele>
        <time>2025-04-30T15:56:13Z</time>
      </trkpt>
      <trkpt lat="45.64704" lon="4.60675">
        <ele>638.4</ele>
        <time>2025-04-30T15:56:14Z</time>
      </trkpt>
      <trkpt lat="45.64708" lon="4.60674">
        <ele>638.2</ele>
        <time>2025-04-30T15:56:15Z</time>
      </trkpt>
      <trkpt lat="45.64713" lon="4.60673">
        <ele>637.8</ele>
        <time>2025-04-30T15:56:16Z</time>
      </trkpt>
      <trkpt lat="45.64718" lon="4.60672">
        <ele>636.8</ele>
        <time>2025-04-30T15:56:17Z</time>
      </trkpt>
      <trkpt lat="45.64723" lon="4.6067">
        <ele>636.4</ele>
        <time>2025-04-30T15:56:18Z</time>
      </trkpt>
      <trkpt lat="45.64728" lon="4.60668">
        <ele>635.6</ele>
        <time>2025-04-30T15:56:19Z</time>
      </trkpt>
      <trkpt lat="45.64733" lon="4.60666">
        <ele>634.4</ele>
        <time>2025-04-30T15:56:20Z</time>
      </trkpt>
      <trkpt lat="45.64737" lon="4.60665">
        <ele>633.4</ele>
        <time>2025-04-30T15:56:21Z</time>
      </trkpt>
      <trkpt lat="45.6474" lon="4.60665">
        <ele>632.8</ele>
        <time>2025-04-30T15:56:22Z</time>
      </trkpt>
      <trkpt lat="45.64744" lon="4.60666">
        <ele>632.4</ele>
        <time>2025-04-30T15:56:23Z</time>
      </trkpt>
      <trkpt lat="45.64747" lon="4.60667">
        <ele>632</ele>
        <time>2025-04-30T15:56:24Z</time>
      </trkpt>
      <trkpt lat="45.64751" lon="4.60668">
        <ele>631.6</ele>
        <time>2025-04-30T15:56:25Z</time>
      </trkpt>
      <trkpt lat="45.64754" lon="4.60669">
        <ele>631</ele>
        <time>2025-04-30T15:56:26Z</time>
      </trkpt>
      <trkpt lat="45.64756" lon="4.6067">
        <ele>630.6</ele>
        <time>2025-04-30T15:56:27Z</time>
      </trkpt>
      <trkpt lat="45.64758" lon="4.60672">
        <ele>630</ele>
        <time>2025-04-30T15:56:28Z</time>
      </trkpt>
      <trkpt lat="45.6476" lon="4.60674">
        <ele>629.6</ele>
        <time>2025-04-30T15:56:29Z</time>
      </trkpt>
      <trkpt lat="45.64762" lon="4.60677">
        <ele>629</ele>
        <time>2025-04-30T15:56:30Z</time>
      </trkpt>
      <trkpt lat="45.64764" lon="4.60681">
        <ele>628.4</ele>
        <time>2025-04-30T15:56:31Z</time>
      </trkpt>
      <trkpt lat="45.64766" lon="4.60685">
        <ele>627.8</ele>
        <time>2025-04-30T15:56:32Z</time>
      </trkpt>
      <trkpt lat="45.64768" lon="4.6069">
        <ele>627.2</ele>
        <time>2025-04-30T15:56:33Z</time>
      </trkpt>
      <trkpt lat="45.6477" lon="4.60694">
        <ele>626.4</ele>
        <time>2025-04-30T15:56:34Z</time>
      </trkpt>
      <trkpt lat="45.64771" lon="4.60698">
        <ele>626</ele>
        <time>2025-04-30T15:56:35Z</time>
      </trkpt>
      <trkpt lat="45.64772" lon="4.607">
        <ele>626</ele>
        <time>2025-04-30T15:56:36Z</time>
      </trkpt>
      <trkpt lat="45.64772" lon="4.60702">
        <ele>625.8</ele>
        <time>2025-04-30T15:56:37Z</time>
      </trkpt>
      <trkpt lat="45.64772" lon="4.60702">
        <ele>625.8</ele>
        <time>2025-04-30T15:56:38Z</time>
      </trkpt>
      <trkpt lat="45.64772" lon="4.60702">
        <ele>625.8</ele>
        <time>2025-04-30T15:56:39Z</time>
      </trkpt>
      <trkpt lat="45.64772" lon="4.60702">
        <ele>626</ele>
        <time>2025-04-30T15:56:40Z</time>
      </trkpt>
      <trkpt lat="45.64772" lon="4.60702">
        <ele>626</ele>
        <time>2025-04-30T15:56:41Z</time>
      </trkpt>
      <trkpt lat="45.64772" lon="4.60702">
        <ele>625.8</ele>
        <time>2025-04-30T15:56:42Z</time>
      </trkpt>
      <trkpt lat="45.64772" lon="4.60702">
        <ele>625.8</ele>
        <time>2025-04-30T15:56:43Z</time>
      </trkpt>
      <trkpt lat="45.64772" lon="4.60702">
        <ele>625.8</ele>
        <time>2025-04-30T15:56:44Z</time>
      </trkpt>
      <trkpt lat="45.64772" lon="4.60702">
        <ele>625.6</ele>
        <time>2025-04-30T15:56:45Z</time>
      </trkpt>
      <trkpt lat="45.64772" lon="4.60702">
        <ele>625.6</ele>
        <time>2025-04-30T15:56:46Z</time>
      </trkpt>
      <trkpt lat="45.64772" lon="4.60702">
        <ele>625.6</ele>
        <time>2025-04-30T15:56:47Z</time>
      </trkpt>
      <trkpt lat="45.64772" lon="4.60702">
        <ele>625.4</ele>
        <time>2025-04-30T15:56:48Z</time>
      </trkpt>
      <trkpt lat="45.64772" lon="4.60702">
        <ele>625.4</ele>
        <time>2025-04-30T15:56:49Z</time>
      </trkpt>
      <trkpt lat="45.64772" lon="4.60702">
        <ele>625.4</ele>
        <time>2025-04-30T15:56:50Z</time>
      </trkpt>
      <trkpt lat="45.64772" lon="4.60702">
        <ele>625.2</ele>
        <time>2025-04-30T15:56:51Z</time>
      </trkpt>
      <trkpt lat="45.64772" lon="4.60702">
        <ele>625.2</ele>
        <time>2025-04-30T15:56:52Z</time>
      </trkpt>
      <trkpt lat="45.64772" lon="4.60702">
        <ele>625.2</ele>
        <time>2025-04-30T15:56:53Z</time>
      </trkpt>
      <trkpt lat="45.64772" lon="4.60702">
        <ele>625.2</ele>
        <time>2025-04-30T15:56:54Z</time>
      </trkpt>
      <trkpt lat="45.64772" lon="4.60702">
        <ele>625</ele>
        <time>2025-04-30T15:56:55Z</time>
      </trkpt>
      <trkpt lat="45.64772" lon="4.60702">
        <ele>625</ele>
        <time>2025-04-30T15:56:56Z</time>
      </trkpt>
      <trkpt lat="45.64772" lon="4.60702">
        <ele>625</ele>
        <time>2025-04-30T15:56:57Z</time>
      </trkpt>
      <trkpt lat="45.64772" lon="4.60702">
        <ele>624.8</ele>
        <time>2025-04-30T15:56:58Z</time>
      </trkpt>
      <trkpt lat="45.64772" lon="4.60703">
        <ele>624.8</ele>
        <time>2025-04-30T15:56:59Z</time>
      </trkpt>
      <trkpt lat="45.64772" lon="4.60703">
        <ele>624.8</ele>
        <time>2025-04-30T15:57:00Z</time>
      </trkpt>
      <trkpt lat="45.64772" lon="4.60705">
        <ele>625</ele>
        <time>2025-04-30T15:57:01Z</time>
      </trkpt>
      <trkpt lat="45.64772" lon="4.60705">
        <ele>625</ele>
        <time>2025-04-30T15:57:02Z</time>
      </trkpt>
      <trkpt lat="45.64772" lon="4.60706">
        <ele>625</ele>
        <time>2025-04-30T15:57:03Z</time>
      </trkpt>
      <trkpt lat="45.64772" lon="4.60707">
        <ele>625</ele>
        <time>2025-04-30T15:57:04Z</time>
      </trkpt>
      <trkpt lat="45.64772" lon="4.60709">
        <ele>624.8</ele>
        <time>2025-04-30T15:57:05Z</time>
      </trkpt>
      <trkpt lat="45.64773" lon="4.60714">
        <ele>624.8</ele>
        <time>2025-04-30T15:57:06Z</time>
      </trkpt>
      <trkpt lat="45.64773" lon="4.60718">
        <ele>624.8</ele>
        <time>2025-04-30T15:57:07Z</time>
      </trkpt>
      <trkpt lat="45.64774" lon="4.60724">
        <ele>624.6</ele>
        <time>2025-04-30T15:57:08Z</time>
      </trkpt>
      <trkpt lat="45.64775" lon="4.6073">
        <ele>624</ele>
        <time>2025-04-30T15:57:09Z</time>
      </trkpt>
      <trkpt lat="45.64778" lon="4.60735">
        <ele>623</ele>
        <time>2025-04-30T15:57:10Z</time>
      </trkpt>
      <trkpt lat="45.64781" lon="4.60738">
        <ele>622</ele>
        <time>2025-04-30T15:57:11Z</time>
      </trkpt>
      <trkpt lat="45.64787" lon="4.60743">
        <ele>621</ele>
        <time>2025-04-30T15:57:12Z</time>
      </trkpt>
      <trkpt lat="45.64792" lon="4.60747">
        <ele>620</ele>
        <time>2025-04-30T15:57:13Z</time>
      </trkpt>
      <trkpt lat="45.64796" lon="4.60751">
        <ele>619</ele>
        <time>2025-04-30T15:57:14Z</time>
      </trkpt>
      <trkpt lat="45.64803" lon="4.60757">
        <ele>618</ele>
        <time>2025-04-30T15:57:15Z</time>
      </trkpt>
      <trkpt lat="45.64806" lon="4.60763">
        <ele>617.2</ele>
        <time>2025-04-30T15:57:16Z</time>
      </trkpt>
      <trkpt lat="45.64811" lon="4.60771">
        <ele>616.6</ele>
        <time>2025-04-30T15:57:17Z</time>
      </trkpt>
      <trkpt lat="45.64815" lon="4.6078">
        <ele>615.4</ele>
        <time>2025-04-30T15:57:18Z</time>
      </trkpt>
      <trkpt lat="45.64818" lon="4.60791">
        <ele>614.4</ele>
        <time>2025-04-30T15:57:19Z</time>
      </trkpt>
      <trkpt lat="45.64821" lon="4.60797">
        <ele>613.6</ele>
        <time>2025-04-30T15:57:20Z</time>
      </trkpt>
      <trkpt lat="45.64826" lon="4.60805">
        <ele>612.8</ele>
        <time>2025-04-30T15:57:21Z</time>
      </trkpt>
      <trkpt lat="45.6483" lon="4.60807">
        <ele>612.6</ele>
        <time>2025-04-30T15:57:22Z</time>
      </trkpt>
      <trkpt lat="45.64836" lon="4.60807">
        <ele>612.4</ele>
        <time>2025-04-30T15:57:23Z</time>
      </trkpt>
      <trkpt lat="45.64841" lon="4.60805">
        <ele>612.4</ele>
        <time>2025-04-30T15:57:24Z</time>
      </trkpt>
      <trkpt lat="45.64846" lon="4.60802">
        <ele>612.4</ele>
        <time>2025-04-30T15:57:25Z</time>
      </trkpt>
      <trkpt lat="45.64849" lon="4.60797">
        <ele>612.6</ele>
        <time>2025-04-30T15:57:26Z</time>
      </trkpt>
      <trkpt lat="45.6485" lon="4.60792">
        <ele>612.8</ele>
        <time>2025-04-30T15:57:27Z</time>
      </trkpt>
      <trkpt lat="45.64851" lon="4.60785">
        <ele>612.8</ele>
        <time>2025-04-30T15:57:28Z</time>
      </trkpt>
      <trkpt lat="45.6485" lon="4.60778">
        <ele>612.8</ele>
        <time>2025-04-30T15:57:29Z</time>
      </trkpt>
      <trkpt lat="45.64849" lon="4.60772">
        <ele>612.8</ele>
        <time>2025-04-30T15:57:30Z</time>
      </trkpt>
      <trkpt lat="45.64849" lon="4.60765">
        <ele>613</ele>
        <time>2025-04-30T15:57:31Z</time>
      </trkpt>
      <trkpt lat="45.64849" lon="4.6076">
        <ele>613</ele>
        <time>2025-04-30T15:57:32Z</time>
      </trkpt>
      <trkpt lat="45.64849" lon="4.60752">
        <ele>613</ele>
        <time>2025-04-30T15:57:33Z</time>
      </trkpt>
      <trkpt lat="45.64848" lon="4.60745">
        <ele>613.2</ele>
        <time>2025-04-30T15:57:34Z</time>
      </trkpt>
      <trkpt lat="45.64847" lon="4.6074">
        <ele>613.2</ele>
        <time>2025-04-30T15:57:35Z</time>
      </trkpt>
      <trkpt lat="45.64846" lon="4.60733">
        <ele>613.4</ele>
        <time>2025-04-30T15:57:36Z</time>
      </trkpt>
      <trkpt lat="45.64844" lon="4.60727">
        <ele>613.6</ele>
        <time>2025-04-30T15:57:37Z</time>
      </trkpt>
      <trkpt lat="45.64843" lon="4.60722">
        <ele>613.8</ele>
        <time>2025-04-30T15:57:38Z</time>
      </trkpt>
      <trkpt lat="45.64841" lon="4.60715">
        <ele>613.8</ele>
        <time>2025-04-30T15:57:39Z</time>
      </trkpt>
      <trkpt lat="45.64839" lon="4.60709">
        <ele>614</ele>
        <time>2025-04-30T15:57:40Z</time>
      </trkpt>
      <trkpt lat="45.64838" lon="4.60705">
        <ele>614</ele>
        <time>2025-04-30T15:57:41Z</time>
      </trkpt>
      <trkpt lat="45.64836" lon="4.607">
        <ele>614.2</ele>
        <time>2025-04-30T15:57:42Z</time>
      </trkpt>
      <trkpt lat="45.64835" lon="4.60697">
        <ele>614.2</ele>
        <time>2025-04-30T15:57:43Z</time>
      </trkpt>
      <trkpt lat="45.64833" lon="4.60694">
        <ele>614.2</ele>
        <time>2025-04-30T15:57:44Z</time>
      </trkpt>
      <trkpt lat="45.64832" lon="4.60691">
        <ele>614.2</ele>
        <time>2025-04-30T15:57:45Z</time>
      </trkpt>
      <trkpt lat="45.64831" lon="4.60689">
        <ele>614.2</ele>
        <time>2025-04-30T15:57:46Z</time>
      </trkpt>
      <trkpt lat="45.6483" lon="4.60688">
        <ele>614.2</ele>
        <time>2025-04-30T15:57:47Z</time>
      </trkpt>
      <trkpt lat="45.6483" lon="4.60686">
        <ele>614.2</ele>
        <time>2025-04-30T15:57:48Z</time>
      </trkpt>
      <trkpt lat="45.6483" lon="4.60686">
        <ele>614.2</ele>
        <time>2025-04-30T15:57:49Z</time>
      </trkpt>
      <trkpt lat="45.6483" lon="4.60686">
        <ele>614.2</ele>
        <time>2025-04-30T15:57:50Z</time>
      </trkpt>
      <trkpt lat="45.6483" lon="4.60686">
        <ele>614.2</ele>
        <time>2025-04-30T15:57:51Z</time>
      </trkpt>
      <trkpt lat="45.6483" lon="4.60686">
        <ele>614.2</ele>
        <time>2025-04-30T15:57:52Z</time>
      </trkpt>
      <trkpt lat="45.6483" lon="4.60686">
        <ele>614.2</ele>
        <time>2025-04-30T15:57:53Z</time>
      </trkpt>
      <trkpt lat="45.6483" lon="4.60686">
        <ele>614.2</ele>
        <time>2025-04-30T15:57:54Z</time>
      </trkpt>
      <trkpt lat="45.6483" lon="4.60686">
        <ele>614.2</ele>
        <time>2025-04-30T15:57:55Z</time>
      </trkpt>
      <trkpt lat="45.6483" lon="4.60686">
        <ele>614.2</ele>
        <time>2025-04-30T15:57:56Z</time>
      </trkpt>
      <trkpt lat="45.6483" lon="4.60686">
        <ele>614.2</ele>
        <time>2025-04-30T15:57:57Z</time>
      </trkpt>
      <trkpt lat="45.6483" lon="4.60686">
        <ele>614</ele>
        <time>2025-04-30T15:57:58Z</time>
      </trkpt>
      <trkpt lat="45.6483" lon="4.60686">
        <ele>614</ele>
        <time>2025-04-30T15:57:59Z</time>
      </trkpt>
      <trkpt lat="45.6483" lon="4.60686">
        <ele>614</ele>
        <time>2025-04-30T15:58:00Z</time>
      </trkpt>
      <trkpt lat="45.6483" lon="4.60686">
        <ele>614</ele>
        <time>2025-04-30T15:58:01Z</time>
      </trkpt>
      <trkpt lat="45.6483" lon="4.60686">
        <ele>614</ele>
        <time>2025-04-30T15:58:02Z</time>
      </trkpt>
      <trkpt lat="45.6483" lon="4.60686">
        <ele>614</ele>
        <time>2025-04-30T15:58:03Z</time>
      </trkpt>
      <trkpt lat="45.6483" lon="4.60686">
        <ele>614</ele>
        <time>2025-04-30T15:58:04Z</time>
      </trkpt>
      <trkpt lat="45.6483" lon="4.60686">
        <ele>613.8</ele>
        <time>2025-04-30T15:58:05Z</time>
      </trkpt>
      <trkpt lat="45.6483" lon="4.60686">
        <ele>613.8</ele>
        <time>2025-04-30T15:58:06Z</time>
      </trkpt>
      <trkpt lat="45.6483" lon="4.60686">
        <ele>613.8</ele>
        <time>2025-04-30T15:58:07Z</time>
      </trkpt>
      <trkpt lat="45.6483" lon="4.60686">
        <ele>613.8</ele>
        <time>2025-04-30T15:58:08Z</time>
      </trkpt>
      <trkpt lat="45.6483" lon="4.60686">
        <ele>613.8</ele>
        <time>2025-04-30T15:58:09Z</time>
      </trkpt>
      <trkpt lat="45.6483" lon="4.60686">
        <ele>613.8</ele>
        <time>2025-04-30T15:58:10Z</time>
      </trkpt>
      <trkpt lat="45.6483" lon="4.60686">
        <ele>613.6</ele>
        <time>2025-04-30T15:58:11Z</time>
      </trkpt>
      <trkpt lat="45.6483" lon="4.60686">
        <ele>613.6</ele>
        <time>2025-04-30T15:58:12Z</time>
      </trkpt>
      <trkpt lat="45.6483" lon="4.60686">
        <ele>613.6</ele>
        <time>2025-04-30T15:58:13Z</time>
      </trkpt>
      <trkpt lat="45.6483" lon="4.60686">
        <ele>613.6</ele>
        <time>2025-04-30T15:58:14Z</time>
      </trkpt>
      <trkpt lat="45.6483" lon="4.60686">
        <ele>613.6</ele>
        <time>2025-04-30T15:58:15Z</time>
      </trkpt>
      <trkpt lat="45.6483" lon="4.60686">
        <ele>613.6</ele>
        <time>2025-04-30T15:58:16Z</time>
      </trkpt>
      <trkpt lat="45.6483" lon="4.60686">
        <ele>613.6</ele>
        <time>2025-04-30T15:58:17Z</time>
      </trkpt>
      <trkpt lat="45.6483" lon="4.60686">
        <ele>613.6</ele>
        <time>2025-04-30T15:58:18Z</time>
      </trkpt>
      <trkpt lat="45.6483" lon="4.60686">
        <ele>613.6</ele>
        <time>2025-04-30T15:58:19Z</time>
      </trkpt>
      <trkpt lat="45.64829" lon="4.60685">
        <ele>613.6</ele>
        <time>2025-04-30T15:58:20Z</time>
      </trkpt>
      <trkpt lat="45.64828" lon="4.60683">
        <ele>613.6</ele>
        <time>2025-04-30T15:58:21Z</time>
      </trkpt>
      <trkpt lat="45.64827" lon="4.60681">
        <ele>613.6</ele>
        <time>2025-04-30T15:58:22Z</time>
      </trkpt>
      <trkpt lat="45.64825" lon="4.60678">
        <ele>613.6</ele>
        <time>2025-04-30T15:58:23Z</time>
      </trkpt>
      <trkpt lat="45.64823" lon="4.60675">
        <ele>613.4</ele>
        <time>2025-04-30T15:58:24Z</time>
      </trkpt>
      <trkpt lat="45.64822" lon="4.60673">
        <ele>613.2</ele>
        <time>2025-04-30T15:58:25Z</time>
      </trkpt>
      <trkpt lat="45.6482" lon="4.60669">
        <ele>613.2</ele>
        <time>2025-04-30T15:58:26Z</time>
      </trkpt>
      <trkpt lat="45.64819" lon="4.60666">
        <ele>613</ele>
        <time>2025-04-30T15:58:27Z</time>
      </trkpt>
      <trkpt lat="45.64817" lon="4.60662">
        <ele>612.6</ele>
        <time>2025-04-30T15:58:28Z</time>
      </trkpt>
      <trkpt lat="45.64814" lon="4.60657">
        <ele>612.6</ele>
        <time>2025-04-30T15:58:29Z</time>
      </trkpt>
      <trkpt lat="45.64811" lon="4.60652">
        <ele>612.2</ele>
        <time>2025-04-30T15:58:30Z</time>
      </trkpt>
      <trkpt lat="45.64809" lon="4.60648">
        <ele>612</ele>
        <time>2025-04-30T15:58:31Z</time>
      </trkpt>
      <trkpt lat="45.64805" lon="4.60642">
        <ele>611.4</ele>
        <time>2025-04-30T15:58:32Z</time>
      </trkpt>
      <trkpt lat="45.64802" lon="4.60637">
        <ele>611.2</ele>
        <time>2025-04-30T15:58:33Z</time>
      </trkpt>
      <trkpt lat="45.64799" lon="4.60633">
        <ele>611</ele>
        <time>2025-04-30T15:58:34Z</time>
      </trkpt>
      <trkpt lat="45.64796" lon="4.60629">
        <ele>610.8</ele>
        <time>2025-04-30T15:58:35Z</time>
      </trkpt>
      <trkpt lat="45.64792" lon="4.60623">
        <ele>610.8</ele>
        <time>2025-04-30T15:58:36Z</time>
      </trkpt>
      <trkpt lat="45.64788" lon="4.60619">
        <ele>610.6</ele>
        <time>2025-04-30T15:58:37Z</time>
      </trkpt>
      <trkpt lat="45.64785" lon="4.60615">
        <ele>610.4</ele>
        <time>2025-04-30T15:58:38Z</time>
      </trkpt>
      <trkpt lat="45.64782" lon="4.6061">
        <ele>610.2</ele>
        <time>2025-04-30T15:58:39Z</time>
      </trkpt>
      <trkpt lat="45.64779" lon="4.60607">
        <ele>610.2</ele>
        <time>2025-04-30T15:58:40Z</time>
      </trkpt>
      <trkpt lat="45.64775" lon="4.60603">
        <ele>610</ele>
        <time>2025-04-30T15:58:41Z</time>
      </trkpt>
      <trkpt lat="45.64772" lon="4.60599">
        <ele>609.8</ele>
        <time>2025-04-30T15:58:42Z</time>
      </trkpt>
      <trkpt lat="45.64768" lon="4.60594">
        <ele>609.6</ele>
        <time>2025-04-30T15:58:43Z</time>
      </trkpt>
      <trkpt lat="45.64765" lon="4.60589">
        <ele>609.4</ele>
        <time>2025-04-30T15:58:44Z</time>
      </trkpt>
      <trkpt lat="45.64761" lon="4.60585">
        <ele>609.4</ele>
        <time>2025-04-30T15:58:45Z</time>
      </trkpt>
      <trkpt lat="45.64758" lon="4.6058">
        <ele>609.2</ele>
        <time>2025-04-30T15:58:46Z</time>
      </trkpt>
      <trkpt lat="45.64754" lon="4.60573">
        <ele>609.2</ele>
        <time>2025-04-30T15:58:47Z</time>
      </trkpt>
      <trkpt lat="45.64751" lon="4.60566">
        <ele>608.6</ele>
        <time>2025-04-30T15:58:48Z</time>
      </trkpt>
      <trkpt lat="45.64749" lon="4.60559">
        <ele>607.8</ele>
        <time>2025-04-30T15:58:49Z</time>
      </trkpt>
      <trkpt lat="45.64746" lon="4.6055">
        <ele>607.4</ele>
        <time>2025-04-30T15:58:50Z</time>
      </trkpt>
      <trkpt lat="45.64745" lon="4.60541">
        <ele>606.4</ele>
        <time>2025-04-30T15:58:51Z</time>
      </trkpt>
      <trkpt lat="45.64746" lon="4.60535">
        <ele>606</ele>
        <time>2025-04-30T15:58:52Z</time>
      </trkpt>
      <trkpt lat="45.64749" lon="4.60527">
        <ele>605.6</ele>
        <time>2025-04-30T15:58:53Z</time>
      </trkpt>
      <trkpt lat="45.64753" lon="4.60522">
        <ele>605.6</ele>
        <time>2025-04-30T15:58:54Z</time>
      </trkpt>
      <trkpt lat="45.64756" lon="4.6052">
        <ele>605.6</ele>
        <time>2025-04-30T15:58:55Z</time>
      </trkpt>
      <trkpt lat="45.64763" lon="4.60518">
        <ele>605.8</ele>
        <time>2025-04-30T15:58:56Z</time>
      </trkpt>
      <trkpt lat="45.64768" lon="4.60517">
        <ele>605.8</ele>
        <time>2025-04-30T15:58:57Z</time>
      </trkpt>
      <trkpt lat="45.64772" lon="4.60516">
        <ele>606.2</ele>
        <time>2025-04-30T15:58:58Z</time>
      </trkpt>
      <trkpt lat="45.64779" lon="4.60514">
        <ele>606</ele>
        <time>2025-04-30T15:58:59Z</time>
      </trkpt>
      <trkpt lat="45.64784" lon="4.60513">
        <ele>606</ele>
        <time>2025-04-30T15:59:00Z</time>
      </trkpt>
      <trkpt lat="45.6479" lon="4.60511">
        <ele>605.8</ele>
        <time>2025-04-30T15:59:01Z</time>
      </trkpt>
      <trkpt lat="45.64797" lon="4.60507">
        <ele>605.8</ele>
        <time>2025-04-30T15:59:02Z</time>
      </trkpt>
      <trkpt lat="45.64802" lon="4.60504">
        <ele>605.6</ele>
        <time>2025-04-30T15:59:03Z</time>
      </trkpt>
      <trkpt lat="45.64807" lon="4.605">
        <ele>605.6</ele>
        <time>2025-04-30T15:59:04Z</time>
      </trkpt>
      <trkpt lat="45.64812" lon="4.60495">
        <ele>605.6</ele>
        <time>2025-04-30T15:59:05Z</time>
      </trkpt>
      <trkpt lat="45.64816" lon="4.60489">
        <ele>605.6</ele>
        <time>2025-04-30T15:59:06Z</time>
      </trkpt>
      <trkpt lat="45.64818" lon="4.60485">
        <ele>606</ele>
        <time>2025-04-30T15:59:07Z</time>
      </trkpt>
      <trkpt lat="45.64819" lon="4.60479">
        <ele>606.6</ele>
        <time>2025-04-30T15:59:08Z</time>
      </trkpt>
      <trkpt lat="45.64821" lon="4.60471">
        <ele>607</ele>
        <time>2025-04-30T15:59:09Z</time>
      </trkpt>
      <trkpt lat="45.64823" lon="4.60464">
        <ele>607.2</ele>
        <time>2025-04-30T15:59:10Z</time>
      </trkpt>
      <trkpt lat="45.64824" lon="4.60457">
        <ele>607.2</ele>
        <time>2025-04-30T15:59:11Z</time>
      </trkpt>
      <trkpt lat="45.64825" lon="4.60449">
        <ele>607.2</ele>
        <time>2025-04-30T15:59:12Z</time>
      </trkpt>
      <trkpt lat="45.64827" lon="4.60441">
        <ele>607.2</ele>
        <time>2025-04-30T15:59:13Z</time>
      </trkpt>
      <trkpt lat="45.64828" lon="4.60433">
        <ele>607.2</ele>
        <time>2025-04-30T15:59:14Z</time>
      </trkpt>
      <trkpt lat="45.6483" lon="4.60425">
        <ele>607</ele>
        <time>2025-04-30T15:59:15Z</time>
      </trkpt>
      <trkpt lat="45.64831" lon="4.60419">
        <ele>606.8</ele>
        <time>2025-04-30T15:59:16Z</time>
      </trkpt>
      <trkpt lat="45.64833" lon="4.60411">
        <ele>606.8</ele>
        <time>2025-04-30T15:59:17Z</time>
      </trkpt>
      <trkpt lat="45.64835" lon="4.60402">
        <ele>606.8</ele>
        <time>2025-04-30T15:59:18Z</time>
      </trkpt>
      <trkpt lat="45.64838" lon="4.60394">
        <ele>606.8</ele>
        <time>2025-04-30T15:59:19Z</time>
      </trkpt>
      <trkpt lat="45.6484" lon="4.60388">
        <ele>606.8</ele>
        <time>2025-04-30T15:59:20Z</time>
      </trkpt>
      <trkpt lat="45.64843" lon="4.60383">
        <ele>606.8</ele>
        <time>2025-04-30T15:59:21Z</time>
      </trkpt>
      <trkpt lat="45.64846" lon="4.60377">
        <ele>606.8</ele>
        <time>2025-04-30T15:59:22Z</time>
      </trkpt>
      <trkpt lat="45.64849" lon="4.60371">
        <ele>607</ele>
        <time>2025-04-30T15:59:23Z</time>
      </trkpt>
      <trkpt lat="45.64852" lon="4.60366">
        <ele>607.2</ele>
        <time>2025-04-30T15:59:24Z</time>
      </trkpt>
      <trkpt lat="45.64855" lon="4.60362">
        <ele>607.2</ele>
        <time>2025-04-30T15:59:25Z</time>
      </trkpt>
      <trkpt lat="45.64858" lon="4.60357">
        <ele>607.4</ele>
        <time>2025-04-30T15:59:26Z</time>
      </trkpt>
      <trkpt lat="45.64861" lon="4.60353">
        <ele>607.8</ele>
        <time>2025-04-30T15:59:27Z</time>
      </trkpt>
      <trkpt lat="45.64863" lon="4.60349">
        <ele>608.2</ele>
        <time>2025-04-30T15:59:28Z</time>
      </trkpt>
      <trkpt lat="45.64865" lon="4.60345">
        <ele>608.8</ele>
        <time>2025-04-30T15:59:29Z</time>
      </trkpt>
      <trkpt lat="45.64867" lon="4.60342">
        <ele>609</ele>
        <time>2025-04-30T15:59:30Z</time>
      </trkpt>
      <trkpt lat="45.64869" lon="4.60339">
        <ele>609.4</ele>
        <time>2025-04-30T15:59:31Z</time>
      </trkpt>
      <trkpt lat="45.64871" lon="4.60336">
        <ele>609.6</ele>
        <time>2025-04-30T15:59:32Z</time>
      </trkpt>
      <trkpt lat="45.64873" lon="4.60334">
        <ele>610</ele>
        <time>2025-04-30T15:59:33Z</time>
      </trkpt>
      <trkpt lat="45.64875" lon="4.60331">
        <ele>610.4</ele>
        <time>2025-04-30T15:59:34Z</time>
      </trkpt>
      <trkpt lat="45.64876" lon="4.60329">
        <ele>611</ele>
        <time>2025-04-30T15:59:35Z</time>
      </trkpt>
      <trkpt lat="45.64876" lon="4.60326">
        <ele>611.6</ele>
        <time>2025-04-30T15:59:36Z</time>
      </trkpt>
      <trkpt lat="45.64876" lon="4.60324">
        <ele>611.8</ele>
        <time>2025-04-30T15:59:37Z</time>
      </trkpt>
      <trkpt lat="45.64876" lon="4.60322">
        <ele>612</ele>
        <time>2025-04-30T15:59:38Z</time>
      </trkpt>
      <trkpt lat="45.64876" lon="4.6032">
        <ele>612.4</ele>
        <time>2025-04-30T15:59:39Z</time>
      </trkpt>
      <trkpt lat="45.64877" lon="4.60318">
        <ele>612.4</ele>
        <time>2025-04-30T15:59:40Z</time>
      </trkpt>
      <trkpt lat="45.64877" lon="4.60317">
        <ele>612.6</ele>
        <time>2025-04-30T15:59:41Z</time>
      </trkpt>
      <trkpt lat="45.64878" lon="4.60316">
        <ele>612.8</ele>
        <time>2025-04-30T15:59:42Z</time>
      </trkpt>
      <trkpt lat="45.64878" lon="4.60316">
        <ele>612.8</ele>
        <time>2025-04-30T15:59:43Z</time>
      </trkpt>
      <trkpt lat="45.64878" lon="4.60316">
        <ele>612.8</ele>
        <time>2025-04-30T15:59:44Z</time>
      </trkpt>
      <trkpt lat="45.64878" lon="4.60316">
        <ele>612.8</ele>
        <time>2025-04-30T15:59:45Z</time>
      </trkpt>
      <trkpt lat="45.64878" lon="4.60316">
        <ele>613</ele>
        <time>2025-04-30T15:59:46Z</time>
      </trkpt>
      <trkpt lat="45.64878" lon="4.60316">
        <ele>613</ele>
        <time>2025-04-30T15:59:47Z</time>
      </trkpt>
      <trkpt lat="45.64878" lon="4.60316">
        <ele>613</ele>
        <time>2025-04-30T15:59:48Z</time>
      </trkpt>
      <trkpt lat="45.64878" lon="4.60316">
        <ele>613</ele>
        <time>2025-04-30T15:59:49Z</time>
      </trkpt>
      <trkpt lat="45.64878" lon="4.60316">
        <ele>613.2</ele>
        <time>2025-04-30T15:59:50Z</time>
      </trkpt>
      <trkpt lat="45.64878" lon="4.60316">
        <ele>613.2</ele>
        <time>2025-04-30T15:59:51Z</time>
      </trkpt>
      <trkpt lat="45.64878" lon="4.60316">
        <ele>613.2</ele>
        <time>2025-04-30T15:59:52Z</time>
      </trkpt>
      <trkpt lat="45.64878" lon="4.60316">
        <ele>613</ele>
        <time>2025-04-30T15:59:53Z</time>
      </trkpt>
      <trkpt lat="45.64878" lon="4.60316">
        <ele>613</ele>
        <time>2025-04-30T15:59:54Z</time>
      </trkpt>
      <trkpt lat="45.64878" lon="4.60316">
        <ele>613</ele>
        <time>2025-04-30T15:59:55Z</time>
      </trkpt>
      <trkpt lat="45.64878" lon="4.60316">
        <ele>613</ele>
        <time>2025-04-30T15:59:56Z</time>
      </trkpt>
      <trkpt lat="45.64878" lon="4.60316">
        <ele>613</ele>
        <time>2025-04-30T15:59:57Z</time>
      </trkpt>
      <trkpt lat="45.64878" lon="4.60316">
        <ele>613</ele>
        <time>2025-04-30T15:59:58Z</time>
      </trkpt>
      <trkpt lat="45.64878" lon="4.60315">
        <ele>613</ele>
        <time>2025-04-30T15:59:59Z</time>
      </trkpt>
      <trkpt lat="45.64879" lon="4.60313">
        <ele>613</ele>
        <time>2025-04-30T16:00:00Z</time>
      </trkpt>
      <trkpt lat="45.64879" lon="4.6031">
        <ele>613</ele>
        <time>2025-04-30T16:00:01Z</time>
      </trkpt>
      <trkpt lat="45.6488" lon="4.60308">
        <ele>613</ele>
        <time>2025-04-30T16:00:02Z</time>
      </trkpt>
      <trkpt lat="45.6488" lon="4.60306">
        <ele>613</ele>
        <time>2025-04-30T16:00:03Z</time>
      </trkpt>
      <trkpt lat="45.64879" lon="4.60303">
        <ele>612.8</ele>
        <time>2025-04-30T16:00:04Z</time>
      </trkpt>
      <trkpt lat="45.64878" lon="4.603">
        <ele>612.6</ele>
        <time>2025-04-30T16:00:05Z</time>
      </trkpt>
      <trkpt lat="45.64878" lon="4.60296">
        <ele>612.4</ele>
        <time>2025-04-30T16:00:06Z</time>
      </trkpt>
      <trkpt lat="45.64877" lon="4.60293">
        <ele>612.2</ele>
        <time>2025-04-30T16:00:07Z</time>
      </trkpt>
      <trkpt lat="45.64877" lon="4.60288">
        <ele>612</ele>
        <time>2025-04-30T16:00:08Z</time>
      </trkpt>
      <trkpt lat="45.64876" lon="4.60283">
        <ele>612</ele>
        <time>2025-04-30T16:00:09Z</time>
      </trkpt>
      <trkpt lat="45.64876" lon="4.60278">
        <ele>611.6</ele>
        <time>2025-04-30T16:00:10Z</time>
      </trkpt>
      <trkpt lat="45.64875" lon="4.60273">
        <ele>611.2</ele>
        <time>2025-04-30T16:00:11Z</time>
      </trkpt>
      <trkpt lat="45.64875" lon="4.60268">
        <ele>610.8</ele>
        <time>2025-04-30T16:00:12Z</time>
      </trkpt>
      <trkpt lat="45.64875" lon="4.60263">
        <ele>610.4</ele>
        <time>2025-04-30T16:00:13Z</time>
      </trkpt>
      <trkpt lat="45.64874" lon="4.60257">
        <ele>610.2</ele>
        <time>2025-04-30T16:00:14Z</time>
      </trkpt>
      <trkpt lat="45.64874" lon="4.60252">
        <ele>610.2</ele>
        <time>2025-04-30T16:00:15Z</time>
      </trkpt>
      <trkpt lat="45.64875" lon="4.60248">
        <ele>610.2</ele>
        <time>2025-04-30T16:00:16Z</time>
      </trkpt>
      <trkpt lat="45.64876" lon="4.60247">
        <ele>610</ele>
        <time>2025-04-30T16:00:17Z</time>
      </trkpt>
      <trkpt lat="45.64877" lon="4.60246">
        <ele>610</ele>
        <time>2025-04-30T16:00:18Z</time>
      </trkpt>
      <trkpt lat="45.64879" lon="4.60246">
        <ele>610.2</ele>
        <time>2025-04-30T16:00:19Z</time>
      </trkpt>
      <trkpt lat="45.64881" lon="4.60247">
        <ele>610.2</ele>
        <time>2025-04-30T16:00:20Z</time>
      </trkpt>
      <trkpt lat="45.64882" lon="4.60248">
        <ele>610.2</ele>
        <time>2025-04-30T16:00:21Z</time>
      </trkpt>
      <trkpt lat="45.64884" lon="4.6025">
        <ele>610.2</ele>
        <time>2025-04-30T16:00:22Z</time>
      </trkpt>
      <trkpt lat="45.64885" lon="4.60252">
        <ele>610.2</ele>
        <time>2025-04-30T16:00:23Z</time>
      </trkpt>
      <trkpt lat="45.64886" lon="4.60255">
        <ele>610.2</ele>
        <time>2025-04-30T16:00:24Z</time>
      </trkpt>
      <trkpt lat="45.64887" lon="4.60258">
        <ele>610.2</ele>
        <time>2025-04-30T16:00:25Z</time>
      </trkpt>
      <trkpt lat="45.64888" lon="4.60261">
        <ele>610</ele>
        <time>2025-04-30T16:00:26Z</time>
      </trkpt>
      <trkpt lat="45.6489" lon="4.60265">
        <ele>609.8</ele>
        <time>2025-04-30T16:00:27Z</time>
      </trkpt>
      <trkpt lat="45.64893" lon="4.6027">
        <ele>609.6</ele>
        <time>2025-04-30T16:00:28Z</time>
      </trkpt>
      <trkpt lat="45.64896" lon="4.60274">
        <ele>609.4</ele>
        <time>2025-04-30T16:00:29Z</time>
      </trkpt>
      <trkpt lat="45.649" lon="4.60278">
        <ele>609</ele>
        <time>2025-04-30T16:00:30Z</time>
      </trkpt>
      <trkpt lat="45.64904" lon="4.60283">
        <ele>608.6</ele>
        <time>2025-04-30T16:00:31Z</time>
      </trkpt>
      <trkpt lat="45.64908" lon="4.60288">
        <ele>608</ele>
        <time>2025-04-30T16:00:32Z</time>
      </trkpt>
      <trkpt lat="45.64913" lon="4.60292">
        <ele>607.6</ele>
        <time>2025-04-30T16:00:33Z</time>
      </trkpt>
      <trkpt lat="45.64918" lon="4.60296">
        <ele>607.4</ele>
        <time>2025-04-30T16:00:34Z</time>
      </trkpt>
      <trkpt lat="45.64923" lon="4.603">
        <ele>606.6</ele>
        <time>2025-04-30T16:00:35Z</time>
      </trkpt>
      <trkpt lat="45.64929" lon="4.60304">
        <ele>606.2</ele>
        <time>2025-04-30T16:00:36Z</time>
      </trkpt>
      <trkpt lat="45.64934" lon="4.60308">
        <ele>605.8</ele>
        <time>2025-04-30T16:00:37Z</time>
      </trkpt>
      <trkpt lat="45.64939" lon="4.60313">
        <ele>605.6</ele>
        <time>2025-04-30T16:00:38Z</time>
      </trkpt>
      <trkpt lat="45.64945" lon="4.60318">
        <ele>605</ele>
        <time>2025-04-30T16:00:39Z</time>
      </trkpt>
      <trkpt lat="45.64949" lon="4.60324">
        <ele>604.6</ele>
        <time>2025-04-30T16:00:40Z</time>
      </trkpt>
      <trkpt lat="45.64953" lon="4.6033">
        <ele>604.2</ele>
        <time>2025-04-30T16:00:41Z</time>
      </trkpt>
      <trkpt lat="45.64957" lon="4.60337">
        <ele>603.8</ele>
        <time>2025-04-30T16:00:42Z</time>
      </trkpt>
      <trkpt lat="45.6496" lon="4.60344">
        <ele>603.6</ele>
        <time>2025-04-30T16:00:43Z</time>
      </trkpt>
      <trkpt lat="45.64964" lon="4.60353">
        <ele>602.6</ele>
        <time>2025-04-30T16:00:44Z</time>
      </trkpt>
      <trkpt lat="45.64968" lon="4.60361">
        <ele>602.4</ele>
        <time>2025-04-30T16:00:45Z</time>
      </trkpt>
      <trkpt lat="45.64971" lon="4.6037">
        <ele>601</ele>
        <time>2025-04-30T16:00:46Z</time>
      </trkpt>
      <trkpt lat="45.64974" lon="4.6038">
        <ele>599.8</ele>
        <time>2025-04-30T16:00:47Z</time>
      </trkpt>
      <trkpt lat="45.64976" lon="4.6039">
        <ele>598.8</ele>
        <time>2025-04-30T16:00:48Z</time>
      </trkpt>
      <trkpt lat="45.64979" lon="4.604">
        <ele>598</ele>
        <time>2025-04-30T16:00:49Z</time>
      </trkpt>
      <trkpt lat="45.64982" lon="4.60411">
        <ele>596.8</ele>
        <time>2025-04-30T16:00:50Z</time>
      </trkpt>
      <trkpt lat="45.64984" lon="4.60417">
        <ele>596.4</ele>
        <time>2025-04-30T16:00:51Z</time>
      </trkpt>
      <trkpt lat="45.64987" lon="4.60423">
        <ele>596.4</ele>
        <time>2025-04-30T16:00:52Z</time>
      </trkpt>
      <trkpt lat="45.6499" lon="4.60429">
        <ele>596.4</ele>
        <time>2025-04-30T16:00:53Z</time>
      </trkpt>
      <trkpt lat="45.64993" lon="4.60434">
        <ele>596.4</ele>
        <time>2025-04-30T16:00:54Z</time>
      </trkpt>
      <trkpt lat="45.64996" lon="4.60438">
        <ele>597</ele>
        <time>2025-04-30T16:00:55Z</time>
      </trkpt>
      <trkpt lat="45.64999" lon="4.60443">
        <ele>597.4</ele>
        <time>2025-04-30T16:00:56Z</time>
      </trkpt>
      <trkpt lat="45.65002" lon="4.60447">
        <ele>598</ele>
        <time>2025-04-30T16:00:57Z</time>
      </trkpt>
      <trkpt lat="45.65005" lon="4.60452">
        <ele>598.4</ele>
        <time>2025-04-30T16:00:58Z</time>
      </trkpt>
      <trkpt lat="45.65008" lon="4.60458">
        <ele>599</ele>
        <time>2025-04-30T16:00:59Z</time>
      </trkpt>
      <trkpt lat="45.65011" lon="4.60464">
        <ele>599.2</ele>
        <time>2025-04-30T16:01:00Z</time>
      </trkpt>
      <trkpt lat="45.65014" lon="4.60469">
        <ele>599.4</ele>
        <time>2025-04-30T16:01:01Z</time>
      </trkpt>
      <trkpt lat="45.65016" lon="4.60471">
        <ele>599.6</ele>
        <time>2025-04-30T16:01:02Z</time>
      </trkpt>
      <trkpt lat="45.65017" lon="4.60472">
        <ele>599.6</ele>
        <time>2025-04-30T16:01:03Z</time>
      </trkpt>
      <trkpt lat="45.65018" lon="4.60473">
        <ele>599.8</ele>
        <time>2025-04-30T16:01:04Z</time>
      </trkpt>
      <trkpt lat="45.65018" lon="4.60473">
        <ele>600.2</ele>
        <time>2025-04-30T16:01:05Z</time>
      </trkpt>
      <trkpt lat="45.65018" lon="4.60473">
        <ele>600.6</ele>
        <time>2025-04-30T16:01:06Z</time>
      </trkpt>
      <trkpt lat="45.65018" lon="4.60473">
        <ele>600.8</ele>
        <time>2025-04-30T16:01:07Z</time>
      </trkpt>
      <trkpt lat="45.65018" lon="4.60474">
        <ele>600.8</ele>
        <time>2025-04-30T16:01:08Z</time>
      </trkpt>
      <trkpt lat="45.65018" lon="4.60474">
        <ele>600.8</ele>
        <time>2025-04-30T16:01:09Z</time>
      </trkpt>
      <trkpt lat="45.65018" lon="4.60476">
        <ele>601</ele>
        <time>2025-04-30T16:01:10Z</time>
      </trkpt>
      <trkpt lat="45.65019" lon="4.60477">
        <ele>601</ele>
        <time>2025-04-30T16:01:11Z</time>
      </trkpt>
      <trkpt lat="45.6502" lon="4.60479">
        <ele>601</ele>
        <time>2025-04-30T16:01:12Z</time>
      </trkpt>
      <trkpt lat="45.65021" lon="4.6048">
        <ele>601</ele>
        <time>2025-04-30T16:01:13Z</time>
      </trkpt>
      <trkpt lat="45.65022" lon="4.60482">
        <ele>600.8</ele>
        <time>2025-04-30T16:01:14Z</time>
      </trkpt>
      <trkpt lat="45.65023" lon="4.60485">
        <ele>600.8</ele>
        <time>2025-04-30T16:01:15Z</time>
      </trkpt>
      <trkpt lat="45.65025" lon="4.60488">
        <ele>600.6</ele>
        <time>2025-04-30T16:01:16Z</time>
      </trkpt>
      <trkpt lat="45.65027" lon="4.60492">
        <ele>600.4</ele>
        <time>2025-04-30T16:01:17Z</time>
      </trkpt>
      <trkpt lat="45.6503" lon="4.60497">
        <ele>600</ele>
        <time>2025-04-30T16:01:18Z</time>
      </trkpt>
      <trkpt lat="45.65033" lon="4.60502">
        <ele>599.4</ele>
        <time>2025-04-30T16:01:19Z</time>
      </trkpt>
      <trkpt lat="45.65036" lon="4.60507">
        <ele>599</ele>
        <time>2025-04-30T16:01:20Z</time>
      </trkpt>
      <trkpt lat="45.65039" lon="4.60512">
        <ele>598</ele>
        <time>2025-04-30T16:01:21Z</time>
      </trkpt>
      <trkpt lat="45.65043" lon="4.60518">
        <ele>596.8</ele>
        <time>2025-04-30T16:01:22Z</time>
      </trkpt>
      <trkpt lat="45.65047" lon="4.60523">
        <ele>596.2</ele>
        <time>2025-04-30T16:01:23Z</time>
      </trkpt>
      <trkpt lat="45.65051" lon="4.60529">
        <ele>594.6</ele>
        <time>2025-04-30T16:01:24Z</time>
      </trkpt>
      <trkpt lat="45.65055" lon="4.60533">
        <ele>594</ele>
        <time>2025-04-30T16:01:25Z</time>
      </trkpt>
      <trkpt lat="45.6506" lon="4.60537">
        <ele>593.2</ele>
        <time>2025-04-30T16:01:26Z</time>
      </trkpt>
      <trkpt lat="45.65065" lon="4.6054">
        <ele>592.2</ele>
        <time>2025-04-30T16:01:27Z</time>
      </trkpt>
      <trkpt lat="45.6507" lon="4.60543">
        <ele>591.2</ele>
        <time>2025-04-30T16:01:28Z</time>
      </trkpt>
      <trkpt lat="45.65077" lon="4.60545">
        <ele>590.4</ele>
        <time>2025-04-30T16:01:29Z</time>
      </trkpt>
      <trkpt lat="45.65082" lon="4.60547">
        <ele>590.2</ele>
        <time>2025-04-30T16:01:30Z</time>
      </trkpt>
      <trkpt lat="45.65087" lon="4.60548">
        <ele>589.6</ele>
        <time>2025-04-30T16:01:31Z</time>
      </trkpt>
      <trkpt lat="45.65092" lon="4.6055">
        <ele>589.4</ele>
        <time>2025-04-30T16:01:32Z</time>
      </trkpt>
      <trkpt lat="45.65097" lon="4.60552">
        <ele>589</ele>
        <time>2025-04-30T16:01:33Z</time>
      </trkpt>
      <trkpt lat="45.65102" lon="4.60554">
        <ele>588.6</ele>
        <time>2025-04-30T16:01:34Z</time>
      </trkpt>
      <trkpt lat="45.65107" lon="4.60556">
        <ele>588</ele>
        <time>2025-04-30T16:01:35Z</time>
      </trkpt>
      <trkpt lat="45.65111" lon="4.60558">
        <ele>587.4</ele>
        <time>2025-04-30T16:01:36Z</time>
      </trkpt>
      <trkpt lat="45.65115" lon="4.60562">
        <ele>587.2</ele>
        <time>2025-04-30T16:01:37Z</time>
      </trkpt>
      <trkpt lat="45.65119" lon="4.60565">
        <ele>586.6</ele>
        <time>2025-04-30T16:01:38Z</time>
      </trkpt>
      <trkpt lat="45.65123" lon="4.6057">
        <ele>586.4</ele>
        <time>2025-04-30T16:01:39Z</time>
      </trkpt>
      <trkpt lat="45.65128" lon="4.60574">
        <ele>585.8</ele>
        <time>2025-04-30T16:01:40Z</time>
      </trkpt>
      <trkpt lat="45.65132" lon="4.60578">
        <ele>585.2</ele>
        <time>2025-04-30T16:01:41Z</time>
      </trkpt>
      <trkpt lat="45.65136" lon="4.60583">
        <ele>584</ele>
        <time>2025-04-30T16:01:42Z</time>
      </trkpt>
      <trkpt lat="45.65141" lon="4.60589">
        <ele>583.6</ele>
        <time>2025-04-30T16:01:43Z</time>
      </trkpt>
      <trkpt lat="45.65145" lon="4.60594">
        <ele>583.4</ele>
        <time>2025-04-30T16:01:44Z</time>
      </trkpt>
      <trkpt lat="45.6515" lon="4.606">
        <ele>583</ele>
        <time>2025-04-30T16:01:45Z</time>
      </trkpt>
      <trkpt lat="45.65154" lon="4.60605">
        <ele>582.6</ele>
        <time>2025-04-30T16:01:46Z</time>
      </trkpt>
      <trkpt lat="45.65158" lon="4.60611">
        <ele>582.6</ele>
        <time>2025-04-30T16:01:47Z</time>
      </trkpt>
      <trkpt lat="45.65162" lon="4.60617">
        <ele>582.4</ele>
        <time>2025-04-30T16:01:48Z</time>
      </trkpt>
      <trkpt lat="45.65167" lon="4.60622">
        <ele>582.4</ele>
        <time>2025-04-30T16:01:49Z</time>
      </trkpt>
      <trkpt lat="45.65171" lon="4.60627">
        <ele>581.8</ele>
        <time>2025-04-30T16:01:50Z</time>
      </trkpt>
      <trkpt lat="45.65176" lon="4.60632">
        <ele>581.4</ele>
        <time>2025-04-30T16:01:51Z</time>
      </trkpt>
      <trkpt lat="45.65181" lon="4.60638">
        <ele>581</ele>
        <time>2025-04-30T16:01:52Z</time>
      </trkpt>
      <trkpt lat="45.65186" lon="4.60643">
        <ele>580.8</ele>
        <time>2025-04-30T16:01:53Z</time>
      </trkpt>
      <trkpt lat="45.65191" lon="4.60648">
        <ele>580.8</ele>
        <time>2025-04-30T16:01:54Z</time>
      </trkpt>
      <trkpt lat="45.65194" lon="4.60652">
        <ele>580.8</ele>
        <time>2025-04-30T16:01:55Z</time>
      </trkpt>
      <trkpt lat="45.65198" lon="4.60655">
        <ele>580.8</ele>
        <time>2025-04-30T16:01:56Z</time>
      </trkpt>
      <trkpt lat="45.65202" lon="4.60659">
        <ele>580.8</ele>
        <time>2025-04-30T16:01:57Z</time>
      </trkpt>
      <trkpt lat="45.65206" lon="4.60663">
        <ele>581</ele>
        <time>2025-04-30T16:01:58Z</time>
      </trkpt>
      <trkpt lat="45.6521" lon="4.60666">
        <ele>581.6</ele>
        <time>2025-04-30T16:01:59Z</time>
      </trkpt>
      <trkpt lat="45.65214" lon="4.60667">
        <ele>581.8</ele>
        <time>2025-04-30T16:02:00Z</time>
      </trkpt>
      <trkpt lat="45.65218" lon="4.60668">
        <ele>581.8</ele>
        <time>2025-04-30T16:02:01Z</time>
      </trkpt>
      <trkpt lat="45.65223" lon="4.6067">
        <ele>582</ele>
        <time>2025-04-30T16:02:02Z</time>
      </trkpt>
      <trkpt lat="45.65227" lon="4.6067">
        <ele>582</ele>
        <time>2025-04-30T16:02:03Z</time>
      </trkpt>
      <trkpt lat="45.65231" lon="4.6067">
        <ele>582.2</ele>
        <time>2025-04-30T16:02:04Z</time>
      </trkpt>
      <trkpt lat="45.65235" lon="4.60669">
        <ele>582.4</ele>
        <time>2025-04-30T16:02:05Z</time>
      </trkpt>
      <trkpt lat="45.65237" lon="4.60669">
        <ele>583</ele>
        <time>2025-04-30T16:02:06Z</time>
      </trkpt>
      <trkpt lat="45.65239" lon="4.60669">
        <ele>583.6</ele>
        <time>2025-04-30T16:02:07Z</time>
      </trkpt>
      <trkpt lat="45.65241" lon="4.6067">
        <ele>584</ele>
        <time>2025-04-30T16:02:08Z</time>
      </trkpt>
      <trkpt lat="45.65243" lon="4.6067">
        <ele>584.4</ele>
        <time>2025-04-30T16:02:09Z</time>
      </trkpt>
      <trkpt lat="45.65245" lon="4.60671">
        <ele>584.6</ele>
        <time>2025-04-30T16:02:10Z</time>
      </trkpt>
      <trkpt lat="45.65247" lon="4.60671">
        <ele>584.6</ele>
        <time>2025-04-30T16:02:11Z</time>
      </trkpt>
      <trkpt lat="45.6525" lon="4.60672">
        <ele>584.6</ele>
        <time>2025-04-30T16:02:12Z</time>
      </trkpt>
      <trkpt lat="45.65253" lon="4.60672">
        <ele>584.6</ele>
        <time>2025-04-30T16:02:13Z</time>
      </trkpt>
      <trkpt lat="45.65257" lon="4.60673">
        <ele>584.6</ele>
        <time>2025-04-30T16:02:14Z</time>
      </trkpt>
      <trkpt lat="45.65261" lon="4.60673">
        <ele>584.4</ele>
        <time>2025-04-30T16:02:15Z</time>
      </trkpt>
      <trkpt lat="45.65265" lon="4.60674">
        <ele>584</ele>
        <time>2025-04-30T16:02:16Z</time>
      </trkpt>
      <trkpt lat="45.65271" lon="4.60675">
        <ele>583.2</ele>
        <time>2025-04-30T16:02:17Z</time>
      </trkpt>
      <trkpt lat="45.65276" lon="4.60676">
        <ele>582.8</ele>
        <time>2025-04-30T16:02:18Z</time>
      </trkpt>
      <trkpt lat="45.65281" lon="4.60677">
        <ele>581.6</ele>
        <time>2025-04-30T16:02:19Z</time>
      </trkpt>
      <trkpt lat="45.65287" lon="4.60677">
        <ele>581.2</ele>
        <time>2025-04-30T16:02:20Z</time>
      </trkpt>
      <trkpt lat="45.65292" lon="4.60678">
        <ele>580.6</ele>
        <time>2025-04-30T16:02:21Z</time>
      </trkpt>
      <trkpt lat="45.65297" lon="4.60678">
        <ele>580.2</ele>
        <time>2025-04-30T16:02:22Z</time>
      </trkpt>
      <trkpt lat="45.65301" lon="4.60677">
        <ele>580</ele>
        <time>2025-04-30T16:02:23Z</time>
      </trkpt>
      <trkpt lat="45.65305" lon="4.60676">
        <ele>579.2</ele>
        <time>2025-04-30T16:02:24Z</time>
      </trkpt>
      <trkpt lat="45.65309" lon="4.60674">
        <ele>579</ele>
        <time>2025-04-30T16:02:25Z</time>
      </trkpt>
      <trkpt lat="45.65314" lon="4.60673">
        <ele>578.8</ele>
        <time>2025-04-30T16:02:26Z</time>
      </trkpt>
      <trkpt lat="45.65318" lon="4.60671">
        <ele>578.4</ele>
        <time>2025-04-30T16:02:27Z</time>
      </trkpt>
      <trkpt lat="45.65322" lon="4.60668">
        <ele>577.2</ele>
        <time>2025-04-30T16:02:28Z</time>
      </trkpt>
      <trkpt lat="45.65326" lon="4.60666">
        <ele>576.6</ele>
        <time>2025-04-30T16:02:29Z</time>
      </trkpt>
      <trkpt lat="45.65331" lon="4.60664">
        <ele>575.8</ele>
        <time>2025-04-30T16:02:30Z</time>
      </trkpt>
      <trkpt lat="45.65334" lon="4.60662">
        <ele>575</ele>
        <time>2025-04-30T16:02:31Z</time>
      </trkpt>
      <trkpt lat="45.65336" lon="4.6066">
        <ele>574.2</ele>
        <time>2025-04-30T16:02:32Z</time>
      </trkpt>
      <trkpt lat="45.65338" lon="4.60657">
        <ele>573.6</ele>
        <time>2025-04-30T16:02:33Z</time>
      </trkpt>
      <trkpt lat="45.65342" lon="4.60655">
        <ele>573</ele>
        <time>2025-04-30T16:02:34Z</time>
      </trkpt>
      <trkpt lat="45.65345" lon="4.60654">
        <ele>572.4</ele>
        <time>2025-04-30T16:02:35Z</time>
      </trkpt>
      <trkpt lat="45.65348" lon="4.60651">
        <ele>571.8</ele>
        <time>2025-04-30T16:02:36Z</time>
      </trkpt>
      <trkpt lat="45.6535" lon="4.6065">
        <ele>571.2</ele>
        <time>2025-04-30T16:02:37Z</time>
      </trkpt>
      <trkpt lat="45.65355" lon="4.60649">
        <ele>570.8</ele>
        <time>2025-04-30T16:02:38Z</time>
      </trkpt>
      <trkpt lat="45.65356" lon="4.60648">
        <ele>570.2</ele>
        <time>2025-04-30T16:02:39Z</time>
      </trkpt>
      <trkpt lat="45.65358" lon="4.60645">
        <ele>569.8</ele>
        <time>2025-04-30T16:02:40Z</time>
      </trkpt>
      <trkpt lat="45.65361" lon="4.60643">
        <ele>569.4</ele>
        <time>2025-04-30T16:02:41Z</time>
      </trkpt>
      <trkpt lat="45.65364" lon="4.6064">
        <ele>569</ele>
        <time>2025-04-30T16:02:42Z</time>
      </trkpt>
      <trkpt lat="45.65366" lon="4.60637">
        <ele>568.4</ele>
        <time>2025-04-30T16:02:43Z</time>
      </trkpt>
      <trkpt lat="45.65368" lon="4.60633">
        <ele>567.8</ele>
        <time>2025-04-30T16:02:44Z</time>
      </trkpt>
      <trkpt lat="45.65369" lon="4.60629">
        <ele>567</ele>
        <time>2025-04-30T16:02:45Z</time>
      </trkpt>
      <trkpt lat="45.6537" lon="4.60625">
        <ele>566.6</ele>
        <time>2025-04-30T16:02:46Z</time>
      </trkpt>
      <trkpt lat="45.65371" lon="4.60622">
        <ele>566</ele>
        <time>2025-04-30T16:02:47Z</time>
      </trkpt>
      <trkpt lat="45.65373" lon="4.60618">
        <ele>565.6</ele>
        <time>2025-04-30T16:02:48Z</time>
      </trkpt>
      <trkpt lat="45.65375" lon="4.60616">
        <ele>564.6</ele>
        <time>2025-04-30T16:02:49Z</time>
      </trkpt>
      <trkpt lat="45.65378" lon="4.60613">
        <ele>564</ele>
        <time>2025-04-30T16:02:50Z</time>
      </trkpt>
      <trkpt lat="45.65382" lon="4.60611">
        <ele>563.4</ele>
        <time>2025-04-30T16:02:51Z</time>
      </trkpt>
      <trkpt lat="45.65385" lon="4.6061">
        <ele>562.6</ele>
        <time>2025-04-30T16:02:52Z</time>
      </trkpt>
      <trkpt lat="45.6539" lon="4.60609">
        <ele>562</ele>
        <time>2025-04-30T16:02:53Z</time>
      </trkpt>
      <trkpt lat="45.65395" lon="4.60607">
        <ele>561.6</ele>
        <time>2025-04-30T16:02:54Z</time>
      </trkpt>
      <trkpt lat="45.654" lon="4.60605">
        <ele>561.2</ele>
        <time>2025-04-30T16:02:55Z</time>
      </trkpt>
      <trkpt lat="45.65406" lon="4.60602">
        <ele>560.6</ele>
        <time>2025-04-30T16:02:56Z</time>
      </trkpt>
      <trkpt lat="45.65414" lon="4.606">
        <ele>559.6</ele>
        <time>2025-04-30T16:02:57Z</time>
      </trkpt>
      <trkpt lat="45.65423" lon="4.60596">
        <ele>558.6</ele>
        <time>2025-04-30T16:02:58Z</time>
      </trkpt>
      <trkpt lat="45.65431" lon="4.60592">
        <ele>557.2</ele>
        <time>2025-04-30T16:02:59Z</time>
      </trkpt>
      <trkpt lat="45.65438" lon="4.60588">
        <ele>555.6</ele>
        <time>2025-04-30T16:03:00Z</time>
      </trkpt>
      <trkpt lat="45.65444" lon="4.60585">
        <ele>555.6</ele>
        <time>2025-04-30T16:03:01Z</time>
      </trkpt>
      <trkpt lat="45.6545" lon="4.60582">
        <ele>555.6</ele>
        <time>2025-04-30T16:03:02Z</time>
      </trkpt>
      <trkpt lat="45.65455" lon="4.60579">
        <ele>555.6</ele>
        <time>2025-04-30T16:03:03Z</time>
      </trkpt>
      <trkpt lat="45.65459" lon="4.60576">
        <ele>556</ele>
        <time>2025-04-30T16:03:04Z</time>
      </trkpt>
      <trkpt lat="45.65463" lon="4.60575">
        <ele>556.6</ele>
        <time>2025-04-30T16:03:05Z</time>
      </trkpt>
      <trkpt lat="45.65466" lon="4.60574">
        <ele>557.2</ele>
        <time>2025-04-30T16:03:06Z</time>
      </trkpt>
      <trkpt lat="45.65469" lon="4.60573">
        <ele>558</ele>
        <time>2025-04-30T16:03:07Z</time>
      </trkpt>
      <trkpt lat="45.65473" lon="4.60573">
        <ele>558.8</ele>
        <time>2025-04-30T16:03:08Z</time>
      </trkpt>
      <trkpt lat="45.65476" lon="4.60573">
        <ele>559.2</ele>
        <time>2025-04-30T16:03:09Z</time>
      </trkpt>
      <trkpt lat="45.65479" lon="4.60573">
        <ele>560</ele>
        <time>2025-04-30T16:03:10Z</time>
      </trkpt>
      <trkpt lat="45.65484" lon="4.60573">
        <ele>560.2</ele>
        <time>2025-04-30T16:03:11Z</time>
      </trkpt>
      <trkpt lat="45.65487" lon="4.60572">
        <ele>560.6</ele>
        <time>2025-04-30T16:03:12Z</time>
      </trkpt>
      <trkpt lat="45.6549" lon="4.60572">
        <ele>561.4</ele>
        <time>2025-04-30T16:03:13Z</time>
      </trkpt>
      <trkpt lat="45.65493" lon="4.60571">
        <ele>561.8</ele>
        <time>2025-04-30T16:03:14Z</time>
      </trkpt>
      <trkpt lat="45.65495" lon="4.60571">
        <ele>562.6</ele>
        <time>2025-04-30T16:03:15Z</time>
      </trkpt>
      <trkpt lat="45.65498" lon="4.60571">
        <ele>563</ele>
        <time>2025-04-30T16:03:16Z</time>
      </trkpt>
      <trkpt lat="45.655" lon="4.60572">
        <ele>563.6</ele>
        <time>2025-04-30T16:03:17Z</time>
      </trkpt>
      <trkpt lat="45.65503" lon="4.60572">
        <ele>564.4</ele>
        <time>2025-04-30T16:03:18Z</time>
      </trkpt>
      <trkpt lat="45.65506" lon="4.60573">
        <ele>564.8</ele>
        <time>2025-04-30T16:03:19Z</time>
      </trkpt>
      <trkpt lat="45.65508" lon="4.60574">
        <ele>565.6</ele>
        <time>2025-04-30T16:03:20Z</time>
      </trkpt>
      <trkpt lat="45.6551" lon="4.60575">
        <ele>566.2</ele>
        <time>2025-04-30T16:03:21Z</time>
      </trkpt>
      <trkpt lat="45.65513" lon="4.60576">
        <ele>566.6</ele>
        <time>2025-04-30T16:03:22Z</time>
      </trkpt>
      <trkpt lat="45.65515" lon="4.60577">
        <ele>567.2</ele>
        <time>2025-04-30T16:03:23Z</time>
      </trkpt>
      <trkpt lat="45.65517" lon="4.60579">
        <ele>567.6</ele>
        <time>2025-04-30T16:03:24Z</time>
      </trkpt>
      <trkpt lat="45.65518" lon="4.6058">
        <ele>568.4</ele>
        <time>2025-04-30T16:03:25Z</time>
      </trkpt>
      <trkpt lat="45.65519" lon="4.60582">
        <ele>568.6</ele>
        <time>2025-04-30T16:03:26Z</time>
      </trkpt>
      <trkpt lat="45.65519" lon="4.60583">
        <ele>569.2</ele>
        <time>2025-04-30T16:03:27Z</time>
      </trkpt>
      <trkpt lat="45.65519" lon="4.60586">
        <ele>569.6</ele>
        <time>2025-04-30T16:03:28Z</time>
      </trkpt>
      <trkpt lat="45.65519" lon="4.60586">
        <ele>570</ele>
        <time>2025-04-30T16:03:29Z</time>
      </trkpt>
      <trkpt lat="45.65519" lon="4.60586">
        <ele>570</ele>
        <time>2025-04-30T16:03:30Z</time>
      </trkpt>
      <trkpt lat="45.65519" lon="4.60586">
        <ele>570.2</ele>
        <time>2025-04-30T16:03:31Z</time>
      </trkpt>
      <trkpt lat="45.65519" lon="4.60586">
        <ele>570.2</ele>
        <time>2025-04-30T16:03:32Z</time>
      </trkpt>
      <trkpt lat="45.65519" lon="4.60586">
        <ele>570.4</ele>
        <time>2025-04-30T16:03:33Z</time>
      </trkpt>
      <trkpt lat="45.65519" lon="4.60586">
        <ele>570.6</ele>
        <time>2025-04-30T16:03:34Z</time>
      </trkpt>
      <trkpt lat="45.65519" lon="4.60586">
        <ele>570.6</ele>
        <time>2025-04-30T16:03:35Z</time>
      </trkpt>
      <trkpt lat="45.65519" lon="4.60586">
        <ele>570.6</ele>
        <time>2025-04-30T16:03:36Z</time>
      </trkpt>
      <trkpt lat="45.65519" lon="4.60586">
        <ele>570.6</ele>
        <time>2025-04-30T16:03:37Z</time>
      </trkpt>
      <trkpt lat="45.65519" lon="4.60586">
        <ele>570.6</ele>
        <time>2025-04-30T16:03:38Z</time>
      </trkpt>
      <trkpt lat="45.65519" lon="4.60586">
        <ele>570.6</ele>
        <time>2025-04-30T16:03:39Z</time>
      </trkpt>
      <trkpt lat="45.65519" lon="4.60586">
        <ele>570.6</ele>
        <time>2025-04-30T16:03:40Z</time>
      </trkpt>
      <trkpt lat="45.65519" lon="4.60586">
        <ele>570.6</ele>
        <time>2025-04-30T16:03:41Z</time>
      </trkpt>
      <trkpt lat="45.65519" lon="4.60586">
        <ele>570.6</ele>
        <time>2025-04-30T16:03:42Z</time>
      </trkpt>
      <trkpt lat="45.65519" lon="4.60588">
        <ele>570.6</ele>
        <time>2025-04-30T16:03:43Z</time>
      </trkpt>
      <trkpt lat="45.65519" lon="4.60591">
        <ele>570.4</ele>
        <time>2025-04-30T16:03:44Z</time>
      </trkpt>
      <trkpt lat="45.65518" lon="4.60593">
        <ele>570.4</ele>
        <time>2025-04-30T16:03:45Z</time>
      </trkpt>
      <trkpt lat="45.65517" lon="4.60598">
        <ele>570.4</ele>
        <time>2025-04-30T16:03:46Z</time>
      </trkpt>
      <trkpt lat="45.65516" lon="4.60601">
        <ele>570.4</ele>
        <time>2025-04-30T16:03:47Z</time>
      </trkpt>
      <trkpt lat="45.65515" lon="4.60605">
        <ele>570.4</ele>
        <time>2025-04-30T16:03:48Z</time>
      </trkpt>
      <trkpt lat="45.65515" lon="4.60609">
        <ele>570.4</ele>
        <time>2025-04-30T16:03:49Z</time>
      </trkpt>
      <trkpt lat="45.65514" lon="4.60612">
        <ele>570.4</ele>
        <time>2025-04-30T16:03:50Z</time>
      </trkpt>
      <trkpt lat="45.65514" lon="4.60616">
        <ele>570.6</ele>
        <time>2025-04-30T16:03:51Z</time>
      </trkpt>
      <trkpt lat="45.65513" lon="4.6062">
        <ele>570.8</ele>
        <time>2025-04-30T16:03:52Z</time>
      </trkpt>
      <trkpt lat="45.65512" lon="4.60624">
        <ele>571</ele>
        <time>2025-04-30T16:03:53Z</time>
      </trkpt>
      <trkpt lat="45.65512" lon="4.60627">
        <ele>571.2</ele>
        <time>2025-04-30T16:03:54Z</time>
      </trkpt>
      <trkpt lat="45.65511" lon="4.60631">
        <ele>571.2</ele>
        <time>2025-04-30T16:03:55Z</time>
      </trkpt>
      <trkpt lat="45.65511" lon="4.60636">
        <ele>571.4</ele>
        <time>2025-04-30T16:03:56Z</time>
      </trkpt>
      <trkpt lat="45.6551" lon="4.6064">
        <ele>571.6</ele>
        <time>2025-04-30T16:03:57Z</time>
      </trkpt>
      <trkpt lat="45.6551" lon="4.60645">
        <ele>571.8</ele>
        <time>2025-04-30T16:03:58Z</time>
      </trkpt>
      <trkpt lat="45.65509" lon="4.6065">
        <ele>572</ele>
        <time>2025-04-30T16:03:59Z</time>
      </trkpt>
      <trkpt lat="45.65509" lon="4.60654">
        <ele>572</ele>
        <time>2025-04-30T16:04:00Z</time>
      </trkpt>
      <trkpt lat="45.65509" lon="4.60659">
        <ele>572</ele>
        <time>2025-04-30T16:04:01Z</time>
      </trkpt>
      <trkpt lat="45.65508" lon="4.60665">
        <ele>572.2</ele>
        <time>2025-04-30T16:04:02Z</time>
      </trkpt>
      <trkpt lat="45.65508" lon="4.60671">
        <ele>572.2</ele>
        <time>2025-04-30T16:04:03Z</time>
      </trkpt>
      <trkpt lat="45.65507" lon="4.60676">
        <ele>572.2</ele>
        <time>2025-04-30T16:04:04Z</time>
      </trkpt>
      <trkpt lat="45.65506" lon="4.60681">
        <ele>572.2</ele>
        <time>2025-04-30T16:04:05Z</time>
      </trkpt>
      <trkpt lat="45.65505" lon="4.60687">
        <ele>572.2</ele>
        <time>2025-04-30T16:04:06Z</time>
      </trkpt>
      <trkpt lat="45.65505" lon="4.60692">
        <ele>572.4</ele>
        <time>2025-04-30T16:04:07Z</time>
      </trkpt>
      <trkpt lat="45.65504" lon="4.60698">
        <ele>572.6</ele>
        <time>2025-04-30T16:04:08Z</time>
      </trkpt>
      <trkpt lat="45.65503" lon="4.60703">
        <ele>572.6</ele>
        <time>2025-04-30T16:04:09Z</time>
      </trkpt>
      <trkpt lat="45.65503" lon="4.60709">
        <ele>572.8</ele>
        <time>2025-04-30T16:04:10Z</time>
      </trkpt>
      <trkpt lat="45.65502" lon="4.60714">
        <ele>573</ele>
        <time>2025-04-30T16:04:11Z</time>
      </trkpt>
      <trkpt lat="45.65501" lon="4.6072">
        <ele>573</ele>
        <time>2025-04-30T16:04:12Z</time>
      </trkpt>
      <trkpt lat="45.655" lon="4.60726">
        <ele>573.2</ele>
        <time>2025-04-30T16:04:13Z</time>
      </trkpt>
      <trkpt lat="45.65499" lon="4.60731">
        <ele>573.6</ele>
        <time>2025-04-30T16:04:14Z</time>
      </trkpt>
      <trkpt lat="45.65499" lon="4.60736">
        <ele>573.8</ele>
        <time>2025-04-30T16:04:15Z</time>
      </trkpt>
      <trkpt lat="45.65498" lon="4.60741">
        <ele>573.8</ele>
        <time>2025-04-30T16:04:16Z</time>
      </trkpt>
      <trkpt lat="45.65497" lon="4.60746">
        <ele>574.4</ele>
        <time>2025-04-30T16:04:17Z</time>
      </trkpt>
      <trkpt lat="45.65496" lon="4.60751">
        <ele>574.6</ele>
        <time>2025-04-30T16:04:18Z</time>
      </trkpt>
      <trkpt lat="45.65495" lon="4.60757">
        <ele>574.8</ele>
        <time>2025-04-30T16:04:19Z</time>
      </trkpt>
      <trkpt lat="45.65494" lon="4.60762">
        <ele>575.2</ele>
        <time>2025-04-30T16:04:20Z</time>
      </trkpt>
      <trkpt lat="45.65493" lon="4.60766">
        <ele>575.4</ele>
        <time>2025-04-30T16:04:21Z</time>
      </trkpt>
      <trkpt lat="45.65491" lon="4.60771">
        <ele>575.4</ele>
        <time>2025-04-30T16:04:22Z</time>
      </trkpt>
      <trkpt lat="45.65489" lon="4.60775">
        <ele>575.6</ele>
        <time>2025-04-30T16:04:23Z</time>
      </trkpt>
      <trkpt lat="45.65487" lon="4.6078">
        <ele>575.6</ele>
        <time>2025-04-30T16:04:24Z</time>
      </trkpt>
      <trkpt lat="45.65486" lon="4.60785">
        <ele>575.8</ele>
        <time>2025-04-30T16:04:25Z</time>
      </trkpt>
      <trkpt lat="45.65484" lon="4.6079">
        <ele>575.8</ele>
        <time>2025-04-30T16:04:26Z</time>
      </trkpt>
      <trkpt lat="45.65482" lon="4.60796">
        <ele>575.8</ele>
        <time>2025-04-30T16:04:27Z</time>
      </trkpt>
      <trkpt lat="45.65481" lon="4.60803">
        <ele>575.4</ele>
        <time>2025-04-30T16:04:28Z</time>
      </trkpt>
      <trkpt lat="45.6548" lon="4.6081">
        <ele>575.2</ele>
        <time>2025-04-30T16:04:29Z</time>
      </trkpt>
      <trkpt lat="45.6548" lon="4.60818">
        <ele>574.6</ele>
        <time>2025-04-30T16:04:30Z</time>
      </trkpt>
      <trkpt lat="45.65479" lon="4.60826">
        <ele>574</ele>
        <time>2025-04-30T16:04:31Z</time>
      </trkpt>
      <trkpt lat="45.6548" lon="4.60835">
        <ele>573.6</ele>
        <time>2025-04-30T16:04:32Z</time>
      </trkpt>
      <trkpt lat="45.65482" lon="4.60843">
        <ele>573</ele>
        <time>2025-04-30T16:04:33Z</time>
      </trkpt>
      <trkpt lat="45.65484" lon="4.6085">
        <ele>573</ele>
        <time>2025-04-30T16:04:34Z</time>
      </trkpt>
      <trkpt lat="45.65486" lon="4.60858">
        <ele>573</ele>
        <time>2025-04-30T16:04:35Z</time>
      </trkpt>
      <trkpt lat="45.65488" lon="4.60866">
        <ele>573</ele>
        <time>2025-04-30T16:04:36Z</time>
      </trkpt>
      <trkpt lat="45.6549" lon="4.60873">
        <ele>573</ele>
        <time>2025-04-30T16:04:37Z</time>
      </trkpt>
      <trkpt lat="45.65492" lon="4.6088">
        <ele>573</ele>
        <time>2025-04-30T16:04:38Z</time>
      </trkpt>
      <trkpt lat="45.65495" lon="4.60886">
        <ele>573.8</ele>
        <time>2025-04-30T16:04:39Z</time>
      </trkpt>
      <trkpt lat="45.65497" lon="4.60893">
        <ele>574.2</ele>
        <time>2025-04-30T16:04:40Z</time>
      </trkpt>
      <trkpt lat="45.65499" lon="4.60898">
        <ele>574.4</ele>
        <time>2025-04-30T16:04:41Z</time>
      </trkpt>
      <trkpt lat="45.65501" lon="4.60905">
        <ele>574.6</ele>
        <time>2025-04-30T16:04:42Z</time>
      </trkpt>
      <trkpt lat="45.65504" lon="4.60913">
        <ele>574.6</ele>
        <time>2025-04-30T16:04:43Z</time>
      </trkpt>
      <trkpt lat="45.65506" lon="4.6092">
        <ele>575</ele>
        <time>2025-04-30T16:04:44Z</time>
      </trkpt>
      <trkpt lat="45.65508" lon="4.60927">
        <ele>575.2</ele>
        <time>2025-04-30T16:04:45Z</time>
      </trkpt>
      <trkpt lat="45.65511" lon="4.60934">
        <ele>575.4</ele>
        <time>2025-04-30T16:04:46Z</time>
      </trkpt>
      <trkpt lat="45.65513" lon="4.6094">
        <ele>575.6</ele>
        <time>2025-04-30T16:04:47Z</time>
      </trkpt>
      <trkpt lat="45.65515" lon="4.60947">
        <ele>575.8</ele>
        <time>2025-04-30T16:04:48Z</time>
      </trkpt>
      <trkpt lat="45.65517" lon="4.60954">
        <ele>576</ele>
        <time>2025-04-30T16:04:49Z</time>
      </trkpt>
      <trkpt lat="45.65519" lon="4.60962">
        <ele>576.2</ele>
        <time>2025-04-30T16:04:50Z</time>
      </trkpt>
      <trkpt lat="45.65522" lon="4.60969">
        <ele>576.4</ele>
        <time>2025-04-30T16:04:51Z</time>
      </trkpt>
      <trkpt lat="45.65524" lon="4.60974">
        <ele>576.4</ele>
        <time>2025-04-30T16:04:52Z</time>
      </trkpt>
      <trkpt lat="45.65526" lon="4.60981">
        <ele>576.6</ele>
        <time>2025-04-30T16:04:53Z</time>
      </trkpt>
      <trkpt lat="45.65528" lon="4.60988">
        <ele>577</ele>
        <time>2025-04-30T16:04:54Z</time>
      </trkpt>
      <trkpt lat="45.65531" lon="4.60995">
        <ele>577.2</ele>
        <time>2025-04-30T16:04:55Z</time>
      </trkpt>
      <trkpt lat="45.65534" lon="4.61">
        <ele>577.6</ele>
        <time>2025-04-30T16:04:56Z</time>
      </trkpt>
      <trkpt lat="45.65538" lon="4.61006">
        <ele>577.8</ele>
        <time>2025-04-30T16:04:57Z</time>
      </trkpt>
      <trkpt lat="45.65542" lon="4.6101">
        <ele>578</ele>
        <time>2025-04-30T16:04:58Z</time>
      </trkpt>
      <trkpt lat="45.65546" lon="4.61013">
        <ele>578.4</ele>
        <time>2025-04-30T16:04:59Z</time>
      </trkpt>
      <trkpt lat="45.65549" lon="4.61014">
        <ele>579</ele>
        <time>2025-04-30T16:05:00Z</time>
      </trkpt>
      <trkpt lat="45.65554" lon="4.61014">
        <ele>579</ele>
        <time>2025-04-30T16:05:01Z</time>
      </trkpt>
      <trkpt lat="45.65559" lon="4.61013">
        <ele>579.2</ele>
        <time>2025-04-30T16:05:02Z</time>
      </trkpt>
      <trkpt lat="45.65564" lon="4.61013">
        <ele>579.6</ele>
        <time>2025-04-30T16:05:03Z</time>
      </trkpt>
      <trkpt lat="45.65569" lon="4.61012">
        <ele>579.8</ele>
        <time>2025-04-30T16:05:04Z</time>
      </trkpt>
      <trkpt lat="45.65574" lon="4.61012">
        <ele>579.8</ele>
        <time>2025-04-30T16:05:05Z</time>
      </trkpt>
      <trkpt lat="45.6558" lon="4.61012">
        <ele>580</ele>
        <time>2025-04-30T16:05:06Z</time>
      </trkpt>
      <trkpt lat="45.65585" lon="4.61011">
        <ele>580</ele>
        <time>2025-04-30T16:05:07Z</time>
      </trkpt>
      <trkpt lat="45.6559" lon="4.61011">
        <ele>580</ele>
        <time>2025-04-30T16:05:08Z</time>
      </trkpt>
      <trkpt lat="45.65595" lon="4.61011">
        <ele>580</ele>
        <time>2025-04-30T16:05:09Z</time>
      </trkpt>
      <trkpt lat="45.656" lon="4.61013">
        <ele>580.2</ele>
        <time>2025-04-30T16:05:10Z</time>
      </trkpt>
      <trkpt lat="45.65605" lon="4.61015">
        <ele>580.4</ele>
        <time>2025-04-30T16:05:11Z</time>
      </trkpt>
      <trkpt lat="45.6561" lon="4.61018">
        <ele>580.4</ele>
        <time>2025-04-30T16:05:12Z</time>
      </trkpt>
      <trkpt lat="45.65614" lon="4.61021">
        <ele>580.6</ele>
        <time>2025-04-30T16:05:13Z</time>
      </trkpt>
      <trkpt lat="45.65619" lon="4.61023">
        <ele>580.6</ele>
        <time>2025-04-30T16:05:14Z</time>
      </trkpt>
      <trkpt lat="45.65623" lon="4.61026">
        <ele>580.8</ele>
        <time>2025-04-30T16:05:15Z</time>
      </trkpt>
      <trkpt lat="45.65627" lon="4.61029">
        <ele>580.8</ele>
        <time>2025-04-30T16:05:16Z</time>
      </trkpt>
      <trkpt lat="45.65631" lon="4.61031">
        <ele>580.8</ele>
        <time>2025-04-30T16:05:17Z</time>
      </trkpt>
      <trkpt lat="45.65635" lon="4.61033">
        <ele>581</ele>
        <time>2025-04-30T16:05:18Z</time>
      </trkpt>
      <trkpt lat="45.65638" lon="4.61036">
        <ele>581.2</ele>
        <time>2025-04-30T16:05:19Z</time>
      </trkpt>
      <trkpt lat="45.6564" lon="4.61039">
        <ele>581.6</ele>
        <time>2025-04-30T16:05:20Z</time>
      </trkpt>
      <trkpt lat="45.65642" lon="4.61043">
        <ele>581.6</ele>
        <time>2025-04-30T16:05:21Z</time>
      </trkpt>
      <trkpt lat="45.65643" lon="4.61047">
        <ele>582</ele>
        <time>2025-04-30T16:05:22Z</time>
      </trkpt>
      <trkpt lat="45.65644" lon="4.61051">
        <ele>582</ele>
        <time>2025-04-30T16:05:23Z</time>
      </trkpt>
      <trkpt lat="45.65645" lon="4.61057">
        <ele>582</ele>
        <time>2025-04-30T16:05:24Z</time>
      </trkpt>
      <trkpt lat="45.65648" lon="4.61063">
        <ele>582</ele>
        <time>2025-04-30T16:05:25Z</time>
      </trkpt>
      <trkpt lat="45.65651" lon="4.61071">
        <ele>582</ele>
        <time>2025-04-30T16:05:26Z</time>
      </trkpt>
      <trkpt lat="45.65653" lon="4.6108">
        <ele>581.4</ele>
        <time>2025-04-30T16:05:27Z</time>
      </trkpt>
      <trkpt lat="45.65655" lon="4.61089">
        <ele>580.2</ele>
        <time>2025-04-30T16:05:28Z</time>
      </trkpt>
      <trkpt lat="45.65654" lon="4.61098">
        <ele>578.6</ele>
        <time>2025-04-30T16:05:29Z</time>
      </trkpt>
      <trkpt lat="45.65653" lon="4.61108">
        <ele>578.2</ele>
        <time>2025-04-30T16:05:30Z</time>
      </trkpt>
      <trkpt lat="45.65651" lon="4.61117">
        <ele>577.2</ele>
        <time>2025-04-30T16:05:31Z</time>
      </trkpt>
      <trkpt lat="45.65648" lon="4.61125">
        <ele>576.4</ele>
        <time>2025-04-30T16:05:32Z</time>
      </trkpt>
      <trkpt lat="45.65644" lon="4.61132">
        <ele>575.2</ele>
        <time>2025-04-30T16:05:33Z</time>
      </trkpt>
      <trkpt lat="45.6564" lon="4.61137">
        <ele>575</ele>
        <time>2025-04-30T16:05:34Z</time>
      </trkpt>
      <trkpt lat="45.65636" lon="4.61143">
        <ele>574.8</ele>
        <time>2025-04-30T16:05:35Z</time>
      </trkpt>
      <trkpt lat="45.65633" lon="4.61149">
        <ele>574.6</ele>
        <time>2025-04-30T16:05:36Z</time>
      </trkpt>
      <trkpt lat="45.65629" lon="4.61155">
        <ele>574.4</ele>
        <time>2025-04-30T16:05:37Z</time>
      </trkpt>
      <trkpt lat="45.65625" lon="4.61162">
        <ele>574.4</ele>
        <time>2025-04-30T16:05:38Z</time>
      </trkpt>
      <trkpt lat="45.65622" lon="4.61169">
        <ele>573.8</ele>
        <time>2025-04-30T16:05:39Z</time>
      </trkpt>
      <trkpt lat="45.6562" lon="4.61175">
        <ele>573.8</ele>
        <time>2025-04-30T16:05:40Z</time>
      </trkpt>
      <trkpt lat="45.65618" lon="4.61181">
        <ele>573.4</ele>
        <time>2025-04-30T16:05:41Z</time>
      </trkpt>
      <trkpt lat="45.65617" lon="4.61187">
        <ele>573</ele>
        <time>2025-04-30T16:05:42Z</time>
      </trkpt>
      <trkpt lat="45.65616" lon="4.61194">
        <ele>572.8</ele>
        <time>2025-04-30T16:05:43Z</time>
      </trkpt>
      <trkpt lat="45.65614" lon="4.61201">
        <ele>572.4</ele>
        <time>2025-04-30T16:05:44Z</time>
      </trkpt>
      <trkpt lat="45.65612" lon="4.61207">
        <ele>572</ele>
        <time>2025-04-30T16:05:45Z</time>
      </trkpt>
      <trkpt lat="45.65611" lon="4.61213">
        <ele>571.8</ele>
        <time>2025-04-30T16:05:46Z</time>
      </trkpt>
      <trkpt lat="45.6561" lon="4.61218">
        <ele>571.4</ele>
        <time>2025-04-30T16:05:47Z</time>
      </trkpt>
      <trkpt lat="45.65609" lon="4.61224">
        <ele>571.2</ele>
        <time>2025-04-30T16:05:48Z</time>
      </trkpt>
      <trkpt lat="45.65608" lon="4.61228">
        <ele>570.8</ele>
        <time>2025-04-30T16:05:49Z</time>
      </trkpt>
      <trkpt lat="45.65607" lon="4.61232">
        <ele>570.4</ele>
        <time>2025-04-30T16:05:50Z</time>
      </trkpt>
      <trkpt lat="45.65607" lon="4.61237">
        <ele>570.2</ele>
        <time>2025-04-30T16:05:51Z</time>
      </trkpt>
      <trkpt lat="45.65606" lon="4.61243">
        <ele>569.8</ele>
        <time>2025-04-30T16:05:52Z</time>
      </trkpt>
      <trkpt lat="45.65606" lon="4.6125">
        <ele>569.4</ele>
        <time>2025-04-30T16:05:53Z</time>
      </trkpt>
      <trkpt lat="45.65605" lon="4.61256">
        <ele>568.8</ele>
        <time>2025-04-30T16:05:54Z</time>
      </trkpt>
      <trkpt lat="45.65605" lon="4.61263">
        <ele>568.4</ele>
        <time>2025-04-30T16:05:55Z</time>
      </trkpt>
      <trkpt lat="45.65606" lon="4.6127">
        <ele>568.2</ele>
        <time>2025-04-30T16:05:56Z</time>
      </trkpt>
      <trkpt lat="45.65607" lon="4.61277">
        <ele>567.4</ele>
        <time>2025-04-30T16:05:57Z</time>
      </trkpt>
      <trkpt lat="45.65608" lon="4.61282">
        <ele>567.2</ele>
        <time>2025-04-30T16:05:58Z</time>
      </trkpt>
      <trkpt lat="45.6561" lon="4.61287">
        <ele>566.8</ele>
        <time>2025-04-30T16:05:59Z</time>
      </trkpt>
      <trkpt lat="45.65612" lon="4.61292">
        <ele>566.4</ele>
        <time>2025-04-30T16:06:00Z</time>
      </trkpt>
      <trkpt lat="45.65614" lon="4.61296">
        <ele>566.2</ele>
        <time>2025-04-30T16:06:01Z</time>
      </trkpt>
      <trkpt lat="45.65616" lon="4.61301">
        <ele>566</ele>
        <time>2025-04-30T16:06:02Z</time>
      </trkpt>
      <trkpt lat="45.65619" lon="4.61306">
        <ele>565.6</ele>
        <time>2025-04-30T16:06:03Z</time>
      </trkpt>
      <trkpt lat="45.6562" lon="4.6131">
        <ele>565.4</ele>
        <time>2025-04-30T16:06:04Z</time>
      </trkpt>
      <trkpt lat="45.65622" lon="4.61314">
        <ele>565.2</ele>
        <time>2025-04-30T16:06:05Z</time>
      </trkpt>
      <trkpt lat="45.65624" lon="4.61318">
        <ele>564.8</ele>
        <time>2025-04-30T16:06:06Z</time>
      </trkpt>
      <trkpt lat="45.65626" lon="4.61323">
        <ele>564.4</ele>
        <time>2025-04-30T16:06:07Z</time>
      </trkpt>
      <trkpt lat="45.65629" lon="4.61328">
        <ele>564.2</ele>
        <time>2025-04-30T16:06:08Z</time>
      </trkpt>
      <trkpt lat="45.65631" lon="4.61333">
        <ele>563.8</ele>
        <time>2025-04-30T16:06:09Z</time>
      </trkpt>
      <trkpt lat="45.65634" lon="4.61339">
        <ele>563.2</ele>
        <time>2025-04-30T16:06:10Z</time>
      </trkpt>
      <trkpt lat="45.65637" lon="4.61345">
        <ele>562.8</ele>
        <time>2025-04-30T16:06:11Z</time>
      </trkpt>
      <trkpt lat="45.65639" lon="4.6135">
        <ele>562.2</ele>
        <time>2025-04-30T16:06:12Z</time>
      </trkpt>
      <trkpt lat="45.65641" lon="4.61355">
        <ele>561.6</ele>
        <time>2025-04-30T16:06:13Z</time>
      </trkpt>
      <trkpt lat="45.65643" lon="4.61358">
        <ele>561.2</ele>
        <time>2025-04-30T16:06:14Z</time>
      </trkpt>
      <trkpt lat="45.65645" lon="4.61362">
        <ele>560.8</ele>
        <time>2025-04-30T16:06:15Z</time>
      </trkpt>
      <trkpt lat="45.65646" lon="4.61365">
        <ele>560.6</ele>
        <time>2025-04-30T16:06:16Z</time>
      </trkpt>
      <trkpt lat="45.65648" lon="4.61368">
        <ele>560.4</ele>
        <time>2025-04-30T16:06:17Z</time>
      </trkpt>
      <trkpt lat="45.6565" lon="4.61371">
        <ele>560</ele>
        <time>2025-04-30T16:06:18Z</time>
      </trkpt>
      <trkpt lat="45.65652" lon="4.61376">
        <ele>559.8</ele>
        <time>2025-04-30T16:06:19Z</time>
      </trkpt>
      <trkpt lat="45.65654" lon="4.6138">
        <ele>559.6</ele>
        <time>2025-04-30T16:06:20Z</time>
      </trkpt>
      <trkpt lat="45.65656" lon="4.61384">
        <ele>559.2</ele>
        <time>2025-04-30T16:06:21Z</time>
      </trkpt>
      <trkpt lat="45.65657" lon="4.61387">
        <ele>558.8</ele>
        <time>2025-04-30T16:06:22Z</time>
      </trkpt>
      <trkpt lat="45.65658" lon="4.6139">
        <ele>558.2</ele>
        <time>2025-04-30T16:06:23Z</time>
      </trkpt>
      <trkpt lat="45.65659" lon="4.61393">
        <ele>558</ele>
        <time>2025-04-30T16:06:24Z</time>
      </trkpt>
      <trkpt lat="45.65661" lon="4.61398">
        <ele>557.8</ele>
        <time>2025-04-30T16:06:25Z</time>
      </trkpt>
      <trkpt lat="45.65663" lon="4.61402">
        <ele>557.4</ele>
        <time>2025-04-30T16:06:26Z</time>
      </trkpt>
      <trkpt lat="45.65664" lon="4.61406">
        <ele>556.8</ele>
        <time>2025-04-30T16:06:27Z</time>
      </trkpt>
      <trkpt lat="45.65666" lon="4.6141">
        <ele>556.4</ele>
        <time>2025-04-30T16:06:28Z</time>
      </trkpt>
      <trkpt lat="45.65668" lon="4.61416">
        <ele>556</ele>
        <time>2025-04-30T16:06:29Z</time>
      </trkpt>
      <trkpt lat="45.6567" lon="4.61421">
        <ele>555.6</ele>
        <time>2025-04-30T16:06:30Z</time>
      </trkpt>
      <trkpt lat="45.65673" lon="4.61428">
        <ele>555</ele>
        <time>2025-04-30T16:06:31Z</time>
      </trkpt>
      <trkpt lat="45.65677" lon="4.61436">
        <ele>554.6</ele>
        <time>2025-04-30T16:06:32Z</time>
      </trkpt>
      <trkpt lat="45.6568" lon="4.61443">
        <ele>554.2</ele>
        <time>2025-04-30T16:06:33Z</time>
      </trkpt>
      <trkpt lat="45.65682" lon="4.61448">
        <ele>552.8</ele>
        <time>2025-04-30T16:06:34Z</time>
      </trkpt>
      <trkpt lat="45.65685" lon="4.61455">
        <ele>552.2</ele>
        <time>2025-04-30T16:06:35Z</time>
      </trkpt>
      <trkpt lat="45.65686" lon="4.6146">
        <ele>551.8</ele>
        <time>2025-04-30T16:06:36Z</time>
      </trkpt>
      <trkpt lat="45.65688" lon="4.61465">
        <ele>551.2</ele>
        <time>2025-04-30T16:06:37Z</time>
      </trkpt>
      <trkpt lat="45.6569" lon="4.6147">
        <ele>550.8</ele>
        <time>2025-04-30T16:06:38Z</time>
      </trkpt>
      <trkpt lat="45.65692" lon="4.61473">
        <ele>550.2</ele>
        <time>2025-04-30T16:06:39Z</time>
      </trkpt>
      <trkpt lat="45.65693" lon="4.61479">
        <ele>550</ele>
        <time>2025-04-30T16:06:40Z</time>
      </trkpt>
      <trkpt lat="45.65694" lon="4.61483">
        <ele>549.4</ele>
        <time>2025-04-30T16:06:41Z</time>
      </trkpt>
      <trkpt lat="45.65695" lon="4.61486">
        <ele>548.8</ele>
        <time>2025-04-30T16:06:42Z</time>
      </trkpt>
      <trkpt lat="45.65696" lon="4.6149">
        <ele>548.6</ele>
        <time>2025-04-30T16:06:43Z</time>
      </trkpt>
      <trkpt lat="45.65697" lon="4.61494">
        <ele>548.4</ele>
        <time>2025-04-30T16:06:44Z</time>
      </trkpt>
      <trkpt lat="45.65698" lon="4.61497">
        <ele>548</ele>
        <time>2025-04-30T16:06:45Z</time>
      </trkpt>
      <trkpt lat="45.65699" lon="4.615">
        <ele>547.6</ele>
        <time>2025-04-30T16:06:46Z</time>
      </trkpt>
      <trkpt lat="45.65701" lon="4.61504">
        <ele>547.4</ele>
        <time>2025-04-30T16:06:47Z</time>
      </trkpt>
      <trkpt lat="45.65702" lon="4.61507">
        <ele>547.2</ele>
        <time>2025-04-30T16:06:48Z</time>
      </trkpt>
      <trkpt lat="45.65704" lon="4.61509">
        <ele>547</ele>
        <time>2025-04-30T16:06:49Z</time>
      </trkpt>
      <trkpt lat="45.65705" lon="4.61511">
        <ele>546.6</ele>
        <time>2025-04-30T16:06:50Z</time>
      </trkpt>
      <trkpt lat="45.65707" lon="4.61513">
        <ele>546.6</ele>
        <time>2025-04-30T16:06:51Z</time>
      </trkpt>
      <trkpt lat="45.65708" lon="4.61516">
        <ele>546.4</ele>
        <time>2025-04-30T16:06:52Z</time>
      </trkpt>
      <trkpt lat="45.6571" lon="4.61518">
        <ele>546.4</ele>
        <time>2025-04-30T16:06:53Z</time>
      </trkpt>
      <trkpt lat="45.65711" lon="4.6152">
        <ele>546.2</ele>
        <time>2025-04-30T16:06:54Z</time>
      </trkpt>
      <trkpt lat="45.65713" lon="4.61525">
        <ele>546.2</ele>
        <time>2025-04-30T16:06:55Z</time>
      </trkpt>
      <trkpt lat="45.65715" lon="4.61528">
        <ele>546</ele>
        <time>2025-04-30T16:06:56Z</time>
      </trkpt>
      <trkpt lat="45.65717" lon="4.61532">
        <ele>546</ele>
        <time>2025-04-30T16:06:57Z</time>
      </trkpt>
      <trkpt lat="45.65718" lon="4.61536">
        <ele>545.8</ele>
        <time>2025-04-30T16:06:58Z</time>
      </trkpt>
      <trkpt lat="45.6572" lon="4.61541">
        <ele>545.6</ele>
        <time>2025-04-30T16:06:59Z</time>
      </trkpt>
      <trkpt lat="45.65721" lon="4.61547">
        <ele>545.4</ele>
        <time>2025-04-30T16:07:00Z</time>
      </trkpt>
      <trkpt lat="45.65722" lon="4.61553">
        <ele>545.4</ele>
        <time>2025-04-30T16:07:01Z</time>
      </trkpt>
      <trkpt lat="45.65723" lon="4.6156">
        <ele>545.2</ele>
        <time>2025-04-30T16:07:02Z</time>
      </trkpt>
      <trkpt lat="45.65725" lon="4.61567">
        <ele>544.6</ele>
        <time>2025-04-30T16:07:03Z</time>
      </trkpt>
      <trkpt lat="45.65726" lon="4.61574">
        <ele>544.2</ele>
        <time>2025-04-30T16:07:04Z</time>
      </trkpt>
      <trkpt lat="45.65726" lon="4.61582">
        <ele>543.6</ele>
        <time>2025-04-30T16:07:05Z</time>
      </trkpt>
      <trkpt lat="45.65727" lon="4.61589">
        <ele>543.2</ele>
        <time>2025-04-30T16:07:06Z</time>
      </trkpt>
      <trkpt lat="45.65727" lon="4.61596">
        <ele>543</ele>
        <time>2025-04-30T16:07:07Z</time>
      </trkpt>
      <trkpt lat="45.65727" lon="4.61603">
        <ele>542.8</ele>
        <time>2025-04-30T16:07:08Z</time>
      </trkpt>
      <trkpt lat="45.65727" lon="4.61608">
        <ele>542.6</ele>
        <time>2025-04-30T16:07:09Z</time>
      </trkpt>
      <trkpt lat="45.65727" lon="4.61615">
        <ele>542.4</ele>
        <time>2025-04-30T16:07:10Z</time>
      </trkpt>
      <trkpt lat="45.65727" lon="4.61622">
        <ele>542.2</ele>
        <time>2025-04-30T16:07:11Z</time>
      </trkpt>
      <trkpt lat="45.65726" lon="4.6163">
        <ele>542.2</ele>
        <time>2025-04-30T16:07:12Z</time>
      </trkpt>
      <trkpt lat="45.65723" lon="4.61641">
        <ele>541.6</ele>
        <time>2025-04-30T16:07:13Z</time>
      </trkpt>
      <trkpt lat="45.65721" lon="4.6165">
        <ele>541</ele>
        <time>2025-04-30T16:07:14Z</time>
      </trkpt>
      <trkpt lat="45.65717" lon="4.6166">
        <ele>540</ele>
        <time>2025-04-30T16:07:15Z</time>
      </trkpt>
      <trkpt lat="45.65713" lon="4.6167">
        <ele>539.2</ele>
        <time>2025-04-30T16:07:16Z</time>
      </trkpt>
      <trkpt lat="45.65709" lon="4.6168">
        <ele>538.2</ele>
        <time>2025-04-30T16:07:17Z</time>
      </trkpt>
      <trkpt lat="45.65706" lon="4.61691">
        <ele>537</ele>
        <time>2025-04-30T16:07:18Z</time>
      </trkpt>
      <trkpt lat="45.65704" lon="4.61703">
        <ele>536</ele>
        <time>2025-04-30T16:07:19Z</time>
      </trkpt>
      <trkpt lat="45.65703" lon="4.61715">
        <ele>534.8</ele>
        <time>2025-04-30T16:07:20Z</time>
      </trkpt>
      <trkpt lat="45.65705" lon="4.61725">
        <ele>533.4</ele>
        <time>2025-04-30T16:07:21Z</time>
      </trkpt>
      <trkpt lat="45.65708" lon="4.61733">
        <ele>532.4</ele>
        <time>2025-04-30T16:07:22Z</time>
      </trkpt>
      <trkpt lat="45.65714" lon="4.61739">
        <ele>531.6</ele>
        <time>2025-04-30T16:07:23Z</time>
      </trkpt>
      <trkpt lat="45.65721" lon="4.61743">
        <ele>531.2</ele>
        <time>2025-04-30T16:07:24Z</time>
      </trkpt>
      <trkpt lat="45.65729" lon="4.61746">
        <ele>530.2</ele>
        <time>2025-04-30T16:07:25Z</time>
      </trkpt>
      <trkpt lat="45.65739" lon="4.61749">
        <ele>529</ele>
        <time>2025-04-30T16:07:26Z</time>
      </trkpt>
      <trkpt lat="45.65749" lon="4.6175">
        <ele>527.2</ele>
        <time>2025-04-30T16:07:27Z</time>
      </trkpt>
      <trkpt lat="45.65759" lon="4.61751">
        <ele>525</ele>
        <time>2025-04-30T16:07:28Z</time>
      </trkpt>
      <trkpt lat="45.65767" lon="4.61751">
        <ele>522.6</ele>
        <time>2025-04-30T16:07:29Z</time>
      </trkpt>
      <trkpt lat="45.65773" lon="4.61754">
        <ele>521</ele>
        <time>2025-04-30T16:07:30Z</time>
      </trkpt>
      <trkpt lat="45.65777" lon="4.61759">
        <ele>521</ele>
        <time>2025-04-30T16:07:31Z</time>
      </trkpt>
      <trkpt lat="45.65779" lon="4.61768">
        <ele>521</ele>
        <time>2025-04-30T16:07:32Z</time>
      </trkpt>
      <trkpt lat="45.65779" lon="4.61776">
        <ele>521</ele>
        <time>2025-04-30T16:07:33Z</time>
      </trkpt>
      <trkpt lat="45.65779" lon="4.61782">
        <ele>521</ele>
        <time>2025-04-30T16:07:34Z</time>
      </trkpt>
      <trkpt lat="45.65778" lon="4.6179">
        <ele>521.2</ele>
        <time>2025-04-30T16:07:35Z</time>
      </trkpt>
      <trkpt lat="45.65776" lon="4.61795">
        <ele>521.8</ele>
        <time>2025-04-30T16:07:36Z</time>
      </trkpt>
      <trkpt lat="45.65775" lon="4.618">
        <ele>522.8</ele>
        <time>2025-04-30T16:07:37Z</time>
      </trkpt>
      <trkpt lat="45.65774" lon="4.61805">
        <ele>523.6</ele>
        <time>2025-04-30T16:07:38Z</time>
      </trkpt>
      <trkpt lat="45.65772" lon="4.6181">
        <ele>524.2</ele>
        <time>2025-04-30T16:07:39Z</time>
      </trkpt>
      <trkpt lat="45.65771" lon="4.61813">
        <ele>524.6</ele>
        <time>2025-04-30T16:07:40Z</time>
      </trkpt>
      <trkpt lat="45.65769" lon="4.61818">
        <ele>525</ele>
        <time>2025-04-30T16:07:41Z</time>
      </trkpt>
      <trkpt lat="45.65767" lon="4.61822">
        <ele>525.4</ele>
        <time>2025-04-30T16:07:42Z</time>
      </trkpt>
      <trkpt lat="45.65766" lon="4.61826">
        <ele>525.8</ele>
        <time>2025-04-30T16:07:43Z</time>
      </trkpt>
      <trkpt lat="45.65765" lon="4.61832">
        <ele>525.8</ele>
        <time>2025-04-30T16:07:44Z</time>
      </trkpt>
      <trkpt lat="45.65763" lon="4.61836">
        <ele>526.2</ele>
        <time>2025-04-30T16:07:45Z</time>
      </trkpt>
      <trkpt lat="45.65762" lon="4.61841">
        <ele>526.2</ele>
        <time>2025-04-30T16:07:46Z</time>
      </trkpt>
      <trkpt lat="45.65761" lon="4.61846">
        <ele>526.4</ele>
        <time>2025-04-30T16:07:47Z</time>
      </trkpt>
      <trkpt lat="45.6576" lon="4.6185">
        <ele>526.4</ele>
        <time>2025-04-30T16:07:48Z</time>
      </trkpt>
      <trkpt lat="45.65759" lon="4.61855">
        <ele>526.8</ele>
        <time>2025-04-30T16:07:49Z</time>
      </trkpt>
      <trkpt lat="45.65758" lon="4.61859">
        <ele>527</ele>
        <time>2025-04-30T16:07:50Z</time>
      </trkpt>
      <trkpt lat="45.65757" lon="4.61863">
        <ele>527.2</ele>
        <time>2025-04-30T16:07:51Z</time>
      </trkpt>
      <trkpt lat="45.65756" lon="4.61866">
        <ele>527.2</ele>
        <time>2025-04-30T16:07:52Z</time>
      </trkpt>
      <trkpt lat="45.65755" lon="4.61869">
        <ele>527.6</ele>
        <time>2025-04-30T16:07:53Z</time>
      </trkpt>
      <trkpt lat="45.65755" lon="4.61873">
        <ele>527.8</ele>
        <time>2025-04-30T16:07:54Z</time>
      </trkpt>
      <trkpt lat="45.65755" lon="4.61877">
        <ele>528.4</ele>
        <time>2025-04-30T16:07:55Z</time>
      </trkpt>
      <trkpt lat="45.65755" lon="4.6188">
        <ele>528.6</ele>
        <time>2025-04-30T16:07:56Z</time>
      </trkpt>
      <trkpt lat="45.65754" lon="4.61885">
        <ele>529</ele>
        <time>2025-04-30T16:07:57Z</time>
      </trkpt>
      <trkpt lat="45.65754" lon="4.61888">
        <ele>529.2</ele>
        <time>2025-04-30T16:07:58Z</time>
      </trkpt>
      <trkpt lat="45.65754" lon="4.61891">
        <ele>529.4</ele>
        <time>2025-04-30T16:07:59Z</time>
      </trkpt>
      <trkpt lat="45.65754" lon="4.61894">
        <ele>529.8</ele>
        <time>2025-04-30T16:08:00Z</time>
      </trkpt>
      <trkpt lat="45.65754" lon="4.61898">
        <ele>530.2</ele>
        <time>2025-04-30T16:08:01Z</time>
      </trkpt>
      <trkpt lat="45.65754" lon="4.619">
        <ele>530.6</ele>
        <time>2025-04-30T16:08:02Z</time>
      </trkpt>
      <trkpt lat="45.65754" lon="4.61904">
        <ele>530.8</ele>
        <time>2025-04-30T16:08:03Z</time>
      </trkpt>
      <trkpt lat="45.65753" lon="4.61907">
        <ele>531.2</ele>
        <time>2025-04-30T16:08:04Z</time>
      </trkpt>
      <trkpt lat="45.65753" lon="4.61909">
        <ele>531.6</ele>
        <time>2025-04-30T16:08:05Z</time>
      </trkpt>
      <trkpt lat="45.65753" lon="4.61912">
        <ele>531.8</ele>
        <time>2025-04-30T16:08:06Z</time>
      </trkpt>
      <trkpt lat="45.65754" lon="4.61915">
        <ele>532.4</ele>
        <time>2025-04-30T16:08:07Z</time>
      </trkpt>
      <trkpt lat="45.65754" lon="4.61916">
        <ele>532.6</ele>
        <time>2025-04-30T16:08:08Z</time>
      </trkpt>
      <trkpt lat="45.65754" lon="4.61918">
        <ele>532.8</ele>
        <time>2025-04-30T16:08:09Z</time>
      </trkpt>
      <trkpt lat="45.65753" lon="4.6192">
        <ele>533</ele>
        <time>2025-04-30T16:08:10Z</time>
      </trkpt>
      <trkpt lat="45.65753" lon="4.61922">
        <ele>533</ele>
        <time>2025-04-30T16:08:11Z</time>
      </trkpt>
      <trkpt lat="45.65752" lon="4.61924">
        <ele>533</ele>
        <time>2025-04-30T16:08:12Z</time>
      </trkpt>
      <trkpt lat="45.65751" lon="4.61927">
        <ele>533</ele>
        <time>2025-04-30T16:08:13Z</time>
      </trkpt>
      <trkpt lat="45.65751" lon="4.61931">
        <ele>532.8</ele>
        <time>2025-04-30T16:08:14Z</time>
      </trkpt>
      <trkpt lat="45.65751" lon="4.61936">
        <ele>532.8</ele>
        <time>2025-04-30T16:08:15Z</time>
      </trkpt>
      <trkpt lat="45.6575" lon="4.61941">
        <ele>532.2</ele>
        <time>2025-04-30T16:08:16Z</time>
      </trkpt>
      <trkpt lat="45.65748" lon="4.61946">
        <ele>531.8</ele>
        <time>2025-04-30T16:08:17Z</time>
      </trkpt>
      <trkpt lat="45.65746" lon="4.61952">
        <ele>531.4</ele>
        <time>2025-04-30T16:08:18Z</time>
      </trkpt>
      <trkpt lat="45.65745" lon="4.61957">
        <ele>530.6</ele>
        <time>2025-04-30T16:08:19Z</time>
      </trkpt>
      <trkpt lat="45.65743" lon="4.61964">
        <ele>530</ele>
        <time>2025-04-30T16:08:20Z</time>
      </trkpt>
      <trkpt lat="45.6574" lon="4.61971">
        <ele>529.4</ele>
        <time>2025-04-30T16:08:21Z</time>
      </trkpt>
      <trkpt lat="45.65737" lon="4.61978">
        <ele>529.2</ele>
        <time>2025-04-30T16:08:22Z</time>
      </trkpt>
      <trkpt lat="45.65734" lon="4.61984">
        <ele>528.6</ele>
        <time>2025-04-30T16:08:23Z</time>
      </trkpt>
      <trkpt lat="45.65731" lon="4.61991">
        <ele>528.4</ele>
        <time>2025-04-30T16:08:24Z</time>
      </trkpt>
      <trkpt lat="45.65727" lon="4.61997">
        <ele>528</ele>
        <time>2025-04-30T16:08:25Z</time>
      </trkpt>
      <trkpt lat="45.65724" lon="4.62004">
        <ele>527.6</ele>
        <time>2025-04-30T16:08:26Z</time>
      </trkpt>
      <trkpt lat="45.65721" lon="4.62011">
        <ele>527.4</ele>
        <time>2025-04-30T16:08:27Z</time>
      </trkpt>
      <trkpt lat="45.65718" lon="4.62017">
        <ele>527</ele>
        <time>2025-04-30T16:08:28Z</time>
      </trkpt>
      <trkpt lat="45.65715" lon="4.62023">
        <ele>526.8</ele>
        <time>2025-04-30T16:08:29Z</time>
      </trkpt>
      <trkpt lat="45.65713" lon="4.62029">
        <ele>526.6</ele>
        <time>2025-04-30T16:08:30Z</time>
      </trkpt>
      <trkpt lat="45.6571" lon="4.62036">
        <ele>526.4</ele>
        <time>2025-04-30T16:08:31Z</time>
      </trkpt>
      <trkpt lat="45.65708" lon="4.62041">
        <ele>526.4</ele>
        <time>2025-04-30T16:08:32Z</time>
      </trkpt>
      <trkpt lat="45.65706" lon="4.62048">
        <ele>526.4</ele>
        <time>2025-04-30T16:08:33Z</time>
      </trkpt>
      <trkpt lat="45.65705" lon="4.62054">
        <ele>526.4</ele>
        <time>2025-04-30T16:08:34Z</time>
      </trkpt>
      <trkpt lat="45.65704" lon="4.62061">
        <ele>526.4</ele>
        <time>2025-04-30T16:08:35Z</time>
      </trkpt>
      <trkpt lat="45.65704" lon="4.62068">
        <ele>526.4</ele>
        <time>2025-04-30T16:08:36Z</time>
      </trkpt>
      <trkpt lat="45.65704" lon="4.62073">
        <ele>526.6</ele>
        <time>2025-04-30T16:08:37Z</time>
      </trkpt>
      <trkpt lat="45.65703" lon="4.6208">
        <ele>526.6</ele>
        <time>2025-04-30T16:08:38Z</time>
      </trkpt>
      <trkpt lat="45.65703" lon="4.62086">
        <ele>526.6</ele>
        <time>2025-04-30T16:08:39Z</time>
      </trkpt>
      <trkpt lat="45.65703" lon="4.62092">
        <ele>526.6</ele>
        <time>2025-04-30T16:08:40Z</time>
      </trkpt>
      <trkpt lat="45.65704" lon="4.62099">
        <ele>526.4</ele>
        <time>2025-04-30T16:08:41Z</time>
      </trkpt>
      <trkpt lat="45.65704" lon="4.62108">
        <ele>526.4</ele>
        <time>2025-04-30T16:08:42Z</time>
      </trkpt>
      <trkpt lat="45.65704" lon="4.62115">
        <ele>526.2</ele>
        <time>2025-04-30T16:08:43Z</time>
      </trkpt>
      <trkpt lat="45.65704" lon="4.62122">
        <ele>526</ele>
        <time>2025-04-30T16:08:44Z</time>
      </trkpt>
      <trkpt lat="45.65703" lon="4.62129">
        <ele>525.8</ele>
        <time>2025-04-30T16:08:45Z</time>
      </trkpt>
      <trkpt lat="45.65703" lon="4.62134">
        <ele>525.4</ele>
        <time>2025-04-30T16:08:46Z</time>
      </trkpt>
      <trkpt lat="45.65703" lon="4.6214">
        <ele>525</ele>
        <time>2025-04-30T16:08:47Z</time>
      </trkpt>
      <trkpt lat="45.65702" lon="4.62148">
        <ele>524.2</ele>
        <time>2025-04-30T16:08:48Z</time>
      </trkpt>
      <trkpt lat="45.65701" lon="4.62154">
        <ele>523.8</ele>
        <time>2025-04-30T16:08:49Z</time>
      </trkpt>
      <trkpt lat="45.657" lon="4.62161">
        <ele>523.4</ele>
        <time>2025-04-30T16:08:50Z</time>
      </trkpt>
      <trkpt lat="45.65699" lon="4.62169">
        <ele>523</ele>
        <time>2025-04-30T16:08:51Z</time>
      </trkpt>
      <trkpt lat="45.65698" lon="4.62176">
        <ele>522.8</ele>
        <time>2025-04-30T16:08:52Z</time>
      </trkpt>
      <trkpt lat="45.65696" lon="4.62182">
        <ele>522.2</ele>
        <time>2025-04-30T16:08:53Z</time>
      </trkpt>
      <trkpt lat="45.65695" lon="4.62188">
        <ele>521.4</ele>
        <time>2025-04-30T16:08:54Z</time>
      </trkpt>
      <trkpt lat="45.65693" lon="4.62195">
        <ele>521.2</ele>
        <time>2025-04-30T16:08:55Z</time>
      </trkpt>
      <trkpt lat="45.65691" lon="4.62201">
        <ele>520.8</ele>
        <time>2025-04-30T16:08:56Z</time>
      </trkpt>
      <trkpt lat="45.6569" lon="4.62207">
        <ele>520.4</ele>
        <time>2025-04-30T16:08:57Z</time>
      </trkpt>
      <trkpt lat="45.65688" lon="4.62212">
        <ele>520</ele>
        <time>2025-04-30T16:08:58Z</time>
      </trkpt>
      <trkpt lat="45.65688" lon="4.62217">
        <ele>519.6</ele>
        <time>2025-04-30T16:08:59Z</time>
      </trkpt>
      <trkpt lat="45.65687" lon="4.62223">
        <ele>519</ele>
        <time>2025-04-30T16:09:00Z</time>
      </trkpt>
      <trkpt lat="45.65686" lon="4.62228">
        <ele>518.8</ele>
        <time>2025-04-30T16:09:01Z</time>
      </trkpt>
      <trkpt lat="45.65686" lon="4.62233">
        <ele>518.4</ele>
        <time>2025-04-30T16:09:02Z</time>
      </trkpt>
      <trkpt lat="45.65686" lon="4.62237">
        <ele>518</ele>
        <time>2025-04-30T16:09:03Z</time>
      </trkpt>
      <trkpt lat="45.65687" lon="4.62243">
        <ele>517.6</ele>
        <time>2025-04-30T16:09:04Z</time>
      </trkpt>
      <trkpt lat="45.65687" lon="4.62248">
        <ele>517.4</ele>
        <time>2025-04-30T16:09:05Z</time>
      </trkpt>
      <trkpt lat="45.65687" lon="4.62255">
        <ele>517.2</ele>
        <time>2025-04-30T16:09:06Z</time>
      </trkpt>
      <trkpt lat="45.65687" lon="4.62261">
        <ele>516.8</ele>
        <time>2025-04-30T16:09:07Z</time>
      </trkpt>
      <trkpt lat="45.65687" lon="4.62269">
        <ele>515.8</ele>
        <time>2025-04-30T16:09:08Z</time>
      </trkpt>
      <trkpt lat="45.65687" lon="4.62277">
        <ele>515.4</ele>
        <time>2025-04-30T16:09:09Z</time>
      </trkpt>
      <trkpt lat="45.65687" lon="4.62282">
        <ele>514.4</ele>
        <time>2025-04-30T16:09:10Z</time>
      </trkpt>
      <trkpt lat="45.65687" lon="4.6229">
        <ele>513.6</ele>
        <time>2025-04-30T16:09:11Z</time>
      </trkpt>
      <trkpt lat="45.65688" lon="4.62295">
        <ele>512.6</ele>
        <time>2025-04-30T16:09:12Z</time>
      </trkpt>
      <trkpt lat="45.65688" lon="4.62299">
        <ele>512</ele>
        <time>2025-04-30T16:09:13Z</time>
      </trkpt>
      <trkpt lat="45.65689" lon="4.62303">
        <ele>511.4</ele>
        <time>2025-04-30T16:09:14Z</time>
      </trkpt>
      <trkpt lat="45.65689" lon="4.62306">
        <ele>511</ele>
        <time>2025-04-30T16:09:15Z</time>
      </trkpt>
      <trkpt lat="45.6569" lon="4.62311">
        <ele>510.8</ele>
        <time>2025-04-30T16:09:16Z</time>
      </trkpt>
      <trkpt lat="45.6569" lon="4.62316">
        <ele>510.6</ele>
        <time>2025-04-30T16:09:17Z</time>
      </trkpt>
      <trkpt lat="45.6569" lon="4.6232">
        <ele>510.2</ele>
        <time>2025-04-30T16:09:18Z</time>
      </trkpt>
      <trkpt lat="45.65691" lon="4.62325">
        <ele>509.4</ele>
        <time>2025-04-30T16:09:19Z</time>
      </trkpt>
      <trkpt lat="45.65692" lon="4.62329">
        <ele>509.2</ele>
        <time>2025-04-30T16:09:20Z</time>
      </trkpt>
      <trkpt lat="45.65694" lon="4.62336">
        <ele>508.8</ele>
        <time>2025-04-30T16:09:21Z</time>
      </trkpt>
      <trkpt lat="45.65695" lon="4.62343">
        <ele>508.4</ele>
        <time>2025-04-30T16:09:22Z</time>
      </trkpt>
      <trkpt lat="45.65696" lon="4.62349">
        <ele>508.2</ele>
        <time>2025-04-30T16:09:23Z</time>
      </trkpt>
      <trkpt lat="45.65697" lon="4.62356">
        <ele>508</ele>
        <time>2025-04-30T16:09:24Z</time>
      </trkpt>
      <trkpt lat="45.65696" lon="4.62362">
        <ele>507.4</ele>
        <time>2025-04-30T16:09:25Z</time>
      </trkpt>
      <trkpt lat="45.65695" lon="4.6237">
        <ele>507</ele>
        <time>2025-04-30T16:09:26Z</time>
      </trkpt>
      <trkpt lat="45.65694" lon="4.62376">
        <ele>506.8</ele>
        <time>2025-04-30T16:09:27Z</time>
      </trkpt>
      <trkpt lat="45.65692" lon="4.62384">
        <ele>506.4</ele>
        <time>2025-04-30T16:09:28Z</time>
      </trkpt>
      <trkpt lat="45.6569" lon="4.62389">
        <ele>506.2</ele>
        <time>2025-04-30T16:09:29Z</time>
      </trkpt>
      <trkpt lat="45.65687" lon="4.62395">
        <ele>506.2</ele>
        <time>2025-04-30T16:09:30Z</time>
      </trkpt>
      <trkpt lat="45.65685" lon="4.62401">
        <ele>506</ele>
        <time>2025-04-30T16:09:31Z</time>
      </trkpt>
      <trkpt lat="45.65682" lon="4.62406">
        <ele>505.8</ele>
        <time>2025-04-30T16:09:32Z</time>
      </trkpt>
      <trkpt lat="45.65679" lon="4.62411">
        <ele>505.6</ele>
        <time>2025-04-30T16:09:33Z</time>
      </trkpt>
      <trkpt lat="45.65676" lon="4.62415">
        <ele>505.6</ele>
        <time>2025-04-30T16:09:34Z</time>
      </trkpt>
      <trkpt lat="45.65672" lon="4.6242">
        <ele>505.6</ele>
        <time>2025-04-30T16:09:35Z</time>
      </trkpt>
      <trkpt lat="45.65669" lon="4.62423">
        <ele>505.6</ele>
        <time>2025-04-30T16:09:36Z</time>
      </trkpt>
      <trkpt lat="45.65666" lon="4.62427">
        <ele>505.6</ele>
        <time>2025-04-30T16:09:37Z</time>
      </trkpt>
      <trkpt lat="45.65662" lon="4.62433">
        <ele>505.6</ele>
        <time>2025-04-30T16:09:38Z</time>
      </trkpt>
      <trkpt lat="45.65659" lon="4.62438">
        <ele>505.6</ele>
        <time>2025-04-30T16:09:39Z</time>
      </trkpt>
      <trkpt lat="45.65656" lon="4.62444">
        <ele>505.6</ele>
        <time>2025-04-30T16:09:40Z</time>
      </trkpt>
      <trkpt lat="45.65654" lon="4.6245">
        <ele>505.6</ele>
        <time>2025-04-30T16:09:41Z</time>
      </trkpt>
      <trkpt lat="45.65651" lon="4.62456">
        <ele>505.6</ele>
        <time>2025-04-30T16:09:42Z</time>
      </trkpt>
      <trkpt lat="45.65649" lon="4.62462">
        <ele>505.8</ele>
        <time>2025-04-30T16:09:43Z</time>
      </trkpt>
      <trkpt lat="45.65647" lon="4.62468">
        <ele>505.8</ele>
        <time>2025-04-30T16:09:44Z</time>
      </trkpt>
      <trkpt lat="45.65646" lon="4.62474">
        <ele>506</ele>
        <time>2025-04-30T16:09:45Z</time>
      </trkpt>
      <trkpt lat="45.65644" lon="4.6248">
        <ele>506</ele>
        <time>2025-04-30T16:09:46Z</time>
      </trkpt>
      <trkpt lat="45.65642" lon="4.62484">
        <ele>506.2</ele>
        <time>2025-04-30T16:09:47Z</time>
      </trkpt>
      <trkpt lat="45.65641" lon="4.62488">
        <ele>506.4</ele>
        <time>2025-04-30T16:09:48Z</time>
      </trkpt>
      <trkpt lat="45.65639" lon="4.62493">
        <ele>506.8</ele>
        <time>2025-04-30T16:09:49Z</time>
      </trkpt>
      <trkpt lat="45.65638" lon="4.62497">
        <ele>507.4</ele>
        <time>2025-04-30T16:09:50Z</time>
      </trkpt>
      <trkpt lat="45.65637" lon="4.62501">
        <ele>507.6</ele>
        <time>2025-04-30T16:09:51Z</time>
      </trkpt>
      <trkpt lat="45.65636" lon="4.62505">
        <ele>508</ele>
        <time>2025-04-30T16:09:52Z</time>
      </trkpt>
      <trkpt lat="45.65635" lon="4.62508">
        <ele>508.2</ele>
        <time>2025-04-30T16:09:53Z</time>
      </trkpt>
      <trkpt lat="45.65634" lon="4.62512">
        <ele>508.6</ele>
        <time>2025-04-30T16:09:54Z</time>
      </trkpt>
      <trkpt lat="45.65634" lon="4.62516">
        <ele>508.8</ele>
        <time>2025-04-30T16:09:55Z</time>
      </trkpt>
      <trkpt lat="45.65633" lon="4.6252">
        <ele>509.2</ele>
        <time>2025-04-30T16:09:56Z</time>
      </trkpt>
      <trkpt lat="45.65632" lon="4.62524">
        <ele>509.6</ele>
        <time>2025-04-30T16:09:57Z</time>
      </trkpt>
      <trkpt lat="45.6563" lon="4.62528">
        <ele>509.8</ele>
        <time>2025-04-30T16:09:58Z</time>
      </trkpt>
      <trkpt lat="45.65629" lon="4.62531">
        <ele>509.8</ele>
        <time>2025-04-30T16:09:59Z</time>
      </trkpt>
      <trkpt lat="45.65628" lon="4.62534">
        <ele>510</ele>
        <time>2025-04-30T16:10:00Z</time>
      </trkpt>
      <trkpt lat="45.65627" lon="4.62538">
        <ele>510.2</ele>
        <time>2025-04-30T16:10:01Z</time>
      </trkpt>
      <trkpt lat="45.65626" lon="4.62542">
        <ele>510.4</ele>
        <time>2025-04-30T16:10:02Z</time>
      </trkpt>
      <trkpt lat="45.65624" lon="4.62546">
        <ele>510.8</ele>
        <time>2025-04-30T16:10:03Z</time>
      </trkpt>
      <trkpt lat="45.65623" lon="4.62549">
        <ele>511.2</ele>
        <time>2025-04-30T16:10:04Z</time>
      </trkpt>
      <trkpt lat="45.65622" lon="4.62552">
        <ele>511.2</ele>
        <time>2025-04-30T16:10:05Z</time>
      </trkpt>
      <trkpt lat="45.6562" lon="4.62555">
        <ele>511.6</ele>
        <time>2025-04-30T16:10:06Z</time>
      </trkpt>
      <trkpt lat="45.65619" lon="4.62559">
        <ele>511.8</ele>
        <time>2025-04-30T16:10:07Z</time>
      </trkpt>
      <trkpt lat="45.65618" lon="4.62563">
        <ele>512</ele>
        <time>2025-04-30T16:10:08Z</time>
      </trkpt>
      <trkpt lat="45.65617" lon="4.62567">
        <ele>512</ele>
        <time>2025-04-30T16:10:09Z</time>
      </trkpt>
      <trkpt lat="45.65616" lon="4.62572">
        <ele>512</ele>
        <time>2025-04-30T16:10:10Z</time>
      </trkpt>
      <trkpt lat="45.65614" lon="4.62576">
        <ele>511.8</ele>
        <time>2025-04-30T16:10:11Z</time>
      </trkpt>
      <trkpt lat="45.65613" lon="4.62581">
        <ele>511.6</ele>
        <time>2025-04-30T16:10:12Z</time>
      </trkpt>
      <trkpt lat="45.65611" lon="4.62586">
        <ele>511.4</ele>
        <time>2025-04-30T16:10:13Z</time>
      </trkpt>
      <trkpt lat="45.6561" lon="4.62592">
        <ele>511.4</ele>
        <time>2025-04-30T16:10:14Z</time>
      </trkpt>
      <trkpt lat="45.65608" lon="4.62598">
        <ele>510.8</ele>
        <time>2025-04-30T16:10:15Z</time>
      </trkpt>
      <trkpt lat="45.65607" lon="4.62602">
        <ele>510.6</ele>
        <time>2025-04-30T16:10:16Z</time>
      </trkpt>
      <trkpt lat="45.65606" lon="4.62607">
        <ele>510.2</ele>
        <time>2025-04-30T16:10:17Z</time>
      </trkpt>
      <trkpt lat="45.65605" lon="4.6261">
        <ele>509.8</ele>
        <time>2025-04-30T16:10:18Z</time>
      </trkpt>
      <trkpt lat="45.65605" lon="4.62615">
        <ele>509.6</ele>
        <time>2025-04-30T16:10:19Z</time>
      </trkpt>
      <trkpt lat="45.65604" lon="4.62617">
        <ele>509.4</ele>
        <time>2025-04-30T16:10:20Z</time>
      </trkpt>
      <trkpt lat="45.65603" lon="4.62619">
        <ele>509.4</ele>
        <time>2025-04-30T16:10:21Z</time>
      </trkpt>
      <trkpt lat="45.65603" lon="4.62622">
        <ele>509.2</ele>
        <time>2025-04-30T16:10:22Z</time>
      </trkpt>
      <trkpt lat="45.65603" lon="4.62625">
        <ele>509</ele>
        <time>2025-04-30T16:10:23Z</time>
      </trkpt>
      <trkpt lat="45.65602" lon="4.62628">
        <ele>508.8</ele>
        <time>2025-04-30T16:10:24Z</time>
      </trkpt>
      <trkpt lat="45.65602" lon="4.62632">
        <ele>508.8</ele>
        <time>2025-04-30T16:10:25Z</time>
      </trkpt>
      <trkpt lat="45.65602" lon="4.62637">
        <ele>508.4</ele>
        <time>2025-04-30T16:10:26Z</time>
      </trkpt>
      <trkpt lat="45.65603" lon="4.62641">
        <ele>507.8</ele>
        <time>2025-04-30T16:10:27Z</time>
      </trkpt>
      <trkpt lat="45.65605" lon="4.62646">
        <ele>507.4</ele>
        <time>2025-04-30T16:10:28Z</time>
      </trkpt>
      <trkpt lat="45.65606" lon="4.6265">
        <ele>506.8</ele>
        <time>2025-04-30T16:10:29Z</time>
      </trkpt>
      <trkpt lat="45.65608" lon="4.62654">
        <ele>506.8</ele>
        <time>2025-04-30T16:10:30Z</time>
      </trkpt>
      <trkpt lat="45.65609" lon="4.62655">
        <ele>506.2</ele>
        <time>2025-04-30T16:10:31Z</time>
      </trkpt>
      <trkpt lat="45.65609" lon="4.62655">
        <ele>506.2</ele>
        <time>2025-04-30T16:10:32Z</time>
      </trkpt>
      <trkpt lat="45.65609" lon="4.62655">
        <ele>506.2</ele>
        <time>2025-04-30T16:10:33Z</time>
      </trkpt>
      <trkpt lat="45.65609" lon="4.62655">
        <ele>506.2</ele>
        <time>2025-04-30T16:10:34Z</time>
      </trkpt>
      <trkpt lat="45.65609" lon="4.62655">
        <ele>506.4</ele>
        <time>2025-04-30T16:10:35Z</time>
      </trkpt>
      <trkpt lat="45.65609" lon="4.62655">
        <ele>506.4</ele>
        <time>2025-04-30T16:10:36Z</time>
      </trkpt>
      <trkpt lat="45.65609" lon="4.62655">
        <ele>506.6</ele>
        <time>2025-04-30T16:10:37Z</time>
      </trkpt>
      <trkpt lat="45.65609" lon="4.62655">
        <ele>506.6</ele>
        <time>2025-04-30T16:10:38Z</time>
      </trkpt>
      <trkpt lat="45.65609" lon="4.62655">
        <ele>506.6</ele>
        <time>2025-04-30T16:10:39Z</time>
      </trkpt>
      <trkpt lat="45.65609" lon="4.62655">
        <ele>506.6</ele>
        <time>2025-04-30T16:10:40Z</time>
      </trkpt>
      <trkpt lat="45.65609" lon="4.62655">
        <ele>506.6</ele>
        <time>2025-04-30T16:10:41Z</time>
      </trkpt>
      <trkpt lat="45.65609" lon="4.62655">
        <ele>506.4</ele>
        <time>2025-04-30T16:10:42Z</time>
      </trkpt>
      <trkpt lat="45.65609" lon="4.62655">
        <ele>506.4</ele>
        <time>2025-04-30T16:10:43Z</time>
      </trkpt>
      <trkpt lat="45.65609" lon="4.62655">
        <ele>506.4</ele>
        <time>2025-04-30T16:10:44Z</time>
      </trkpt>
      <trkpt lat="45.65609" lon="4.62655">
        <ele>506.4</ele>
        <time>2025-04-30T16:10:45Z</time>
      </trkpt>
      <trkpt lat="45.65609" lon="4.62655">
        <ele>506.4</ele>
        <time>2025-04-30T16:10:46Z</time>
      </trkpt>
      <trkpt lat="45.65609" lon="4.62655">
        <ele>506.6</ele>
        <time>2025-04-30T16:10:47Z</time>
      </trkpt>
      <trkpt lat="45.65609" lon="4.62655">
        <ele>506.4</ele>
        <time>2025-04-30T16:10:48Z</time>
      </trkpt>
      <trkpt lat="45.65609" lon="4.62655">
        <ele>506.4</ele>
        <time>2025-04-30T16:10:49Z</time>
      </trkpt>
      <trkpt lat="45.65609" lon="4.62655">
        <ele>506.6</ele>
        <time>2025-04-30T16:10:50Z</time>
      </trkpt>
      <trkpt lat="45.65609" lon="4.62655">
        <ele>506.4</ele>
        <time>2025-04-30T16:10:51Z</time>
      </trkpt>
      <trkpt lat="45.65609" lon="4.62655">
        <ele>506.4</ele>
        <time>2025-04-30T16:10:52Z</time>
      </trkpt>
      <trkpt lat="45.65609" lon="4.62655">
        <ele>505.8</ele>
        <time>2025-04-30T16:10:53Z</time>
      </trkpt>
      <trkpt lat="45.65609" lon="4.62655">
        <ele>505.8</ele>
        <time>2025-04-30T16:10:54Z</time>
      </trkpt>
      <trkpt lat="45.65609" lon="4.62655">
        <ele>506.4</ele>
        <time>2025-04-30T16:10:55Z</time>
      </trkpt>
      <trkpt lat="45.65609" lon="4.62655">
        <ele>506.6</ele>
        <time>2025-04-30T16:10:56Z</time>
      </trkpt>
      <trkpt lat="45.65609" lon="4.62655">
        <ele>506</ele>
        <time>2025-04-30T16:10:57Z</time>
      </trkpt>
      <trkpt lat="45.65609" lon="4.62655">
        <ele>506</ele>
        <time>2025-04-30T16:10:58Z</time>
      </trkpt>
      <trkpt lat="45.65609" lon="4.62655">
        <ele>506.4</ele>
        <time>2025-04-30T16:10:59Z</time>
      </trkpt>
      <trkpt lat="45.65609" lon="4.62655">
        <ele>506.8</ele>
        <time>2025-04-30T16:11:00Z</time>
      </trkpt>
      <trkpt lat="45.65609" lon="4.62655">
        <ele>506.8</ele>
        <time>2025-04-30T16:11:01Z</time>
      </trkpt>
      <trkpt lat="45.65609" lon="4.62655">
        <ele>506.8</ele>
        <time>2025-04-30T16:11:02Z</time>
      </trkpt>
      <trkpt lat="45.65609" lon="4.62655">
        <ele>506.6</ele>
        <time>2025-04-30T16:11:03Z</time>
      </trkpt>
      <trkpt lat="45.65609" lon="4.62655">
        <ele>506.6</ele>
        <time>2025-04-30T16:11:04Z</time>
      </trkpt>
      <trkpt lat="45.65609" lon="4.62655">
        <ele>506.6</ele>
        <time>2025-04-30T16:11:05Z</time>
      </trkpt>
      <trkpt lat="45.65609" lon="4.62655">
        <ele>506.6</ele>
        <time>2025-04-30T16:11:06Z</time>
      </trkpt>
      <trkpt lat="45.65609" lon="4.62655">
        <ele>506.6</ele>
        <time>2025-04-30T16:11:07Z</time>
      </trkpt>
      <trkpt lat="45.65609" lon="4.62655">
        <ele>506.4</ele>
        <time>2025-04-30T16:11:08Z</time>
      </trkpt>
      <trkpt lat="45.65609" lon="4.62655">
        <ele>506.4</ele>
        <time>2025-04-30T16:11:09Z</time>
      </trkpt>
      <trkpt lat="45.65609" lon="4.62655">
        <ele>506.4</ele>
        <time>2025-04-30T16:11:10Z</time>
      </trkpt>
      <trkpt lat="45.65609" lon="4.62655">
        <ele>506.4</ele>
        <time>2025-04-30T16:11:11Z</time>
      </trkpt>
      <trkpt lat="45.65609" lon="4.62655">
        <ele>506.4</ele>
        <time>2025-04-30T16:11:12Z</time>
      </trkpt>
      <trkpt lat="45.65609" lon="4.62655">
        <ele>506.4</ele>
        <time>2025-04-30T16:11:13Z</time>
      </trkpt>
      <trkpt lat="45.65609" lon="4.62655">
        <ele>506.4</ele>
        <time>2025-04-30T16:11:14Z</time>
      </trkpt>
      <trkpt lat="45.65609" lon="4.62655">
        <ele>506.4</ele>
        <time>2025-04-30T16:11:15Z</time>
      </trkpt>
      <trkpt lat="45.65609" lon="4.62655">
        <ele>506.4</ele>
        <time>2025-04-30T16:11:16Z</time>
      </trkpt>
      <trkpt lat="45.65609" lon="4.62655">
        <ele>506.4</ele>
        <time>2025-04-30T16:11:17Z</time>
      </trkpt>
      <trkpt lat="45.65609" lon="4.62655">
        <ele>506.4</ele>
        <time>2025-04-30T16:11:18Z</time>
      </trkpt>
      <trkpt lat="45.65609" lon="4.62655">
        <ele>506.4</ele>
        <time>2025-04-30T16:11:19Z</time>
      </trkpt>
      <trkpt lat="45.65609" lon="4.62655">
        <ele>506.4</ele>
        <time>2025-04-30T16:11:20Z</time>
      </trkpt>
      <trkpt lat="45.65609" lon="4.62655">
        <ele>506.4</ele>
        <time>2025-04-30T16:11:21Z</time>
      </trkpt>
      <trkpt lat="45.65609" lon="4.62655">
        <ele>506.4</ele>
        <time>2025-04-30T16:11:22Z</time>
      </trkpt>
      <trkpt lat="45.65609" lon="4.62655">
        <ele>506.4</ele>
        <time>2025-04-30T16:11:23Z</time>
      </trkpt>
      <trkpt lat="45.65609" lon="4.62655">
        <ele>506.4</ele>
        <time>2025-04-30T16:11:24Z</time>
      </trkpt>
      <trkpt lat="45.65609" lon="4.62655">
        <ele>506.4</ele>
        <time>2025-04-30T16:11:25Z</time>
      </trkpt>
      <trkpt lat="45.65609" lon="4.62655">
        <ele>506.4</ele>
        <time>2025-04-30T16:11:26Z</time>
      </trkpt>
      <trkpt lat="45.65609" lon="4.62655">
        <ele>506.4</ele>
        <time>2025-04-30T16:11:27Z</time>
      </trkpt>
      <trkpt lat="45.65609" lon="4.62655">
        <ele>506.6</ele>
        <time>2025-04-30T16:11:28Z</time>
      </trkpt>
      <trkpt lat="45.65609" lon="4.62655">
        <ele>506.6</ele>
        <time>2025-04-30T16:11:29Z</time>
      </trkpt>
      <trkpt lat="45.65609" lon="4.62655">
        <ele>506.6</ele>
        <time>2025-04-30T16:11:30Z</time>
      </trkpt>
      <trkpt lat="45.65609" lon="4.62655">
        <ele>506.6</ele>
        <time>2025-04-30T16:11:31Z</time>
      </trkpt>
      <trkpt lat="45.65609" lon="4.62655">
        <ele>506.6</ele>
        <time>2025-04-30T16:11:32Z</time>
      </trkpt>
      <trkpt lat="45.65609" lon="4.62655">
        <ele>506.6</ele>
        <time>2025-04-30T16:11:33Z</time>
      </trkpt>
      <trkpt lat="45.65609" lon="4.62655">
        <ele>506.6</ele>
        <time>2025-04-30T16:11:34Z</time>
      </trkpt>
      <trkpt lat="45.65609" lon="4.62655">
        <ele>506.6</ele>
        <time>2025-04-30T16:11:35Z</time>
      </trkpt>
      <trkpt lat="45.65609" lon="4.62655">
        <ele>506.6</ele>
        <time>2025-04-30T16:11:36Z</time>
      </trkpt>
      <trkpt lat="45.65609" lon="4.62655">
        <ele>506.6</ele>
        <time>2025-04-30T16:11:37Z</time>
      </trkpt>
      <trkpt lat="45.65609" lon="4.62655">
        <ele>506.6</ele>
        <time>2025-04-30T16:11:38Z</time>
      </trkpt>
      <trkpt lat="45.65609" lon="4.62655">
        <ele>506.6</ele>
        <time>2025-04-30T16:11:39Z</time>
      </trkpt>
      <trkpt lat="45.65609" lon="4.62655">
        <ele>506.6</ele>
        <time>2025-04-30T16:11:40Z</time>
      </trkpt>
      <trkpt lat="45.65609" lon="4.62655">
        <ele>506.6</ele>
        <time>2025-04-30T16:11:41Z</time>
      </trkpt>
      <trkpt lat="45.65609" lon="4.62655">
        <ele>506.6</ele>
        <time>2025-04-30T16:11:42Z</time>
      </trkpt>
      <trkpt lat="45.65609" lon="4.62655">
        <ele>506.6</ele>
        <time>2025-04-30T16:11:43Z</time>
      </trkpt>
      <trkpt lat="45.65609" lon="4.62655">
        <ele>506.6</ele>
        <time>2025-04-30T16:11:44Z</time>
      </trkpt>
      <trkpt lat="45.65609" lon="4.62655">
        <ele>506.6</ele>
        <time>2025-04-30T16:11:45Z</time>
      </trkpt>
      <trkpt lat="45.65609" lon="4.62655">
        <ele>506.6</ele>
        <time>2025-04-30T16:11:46Z</time>
      </trkpt>
      <trkpt lat="45.65609" lon="4.62655">
        <ele>506.6</ele>
        <time>2025-04-30T16:11:47Z</time>
      </trkpt>
      <trkpt lat="45.65609" lon="4.62655">
        <ele>506.6</ele>
        <time>2025-04-30T16:11:48Z</time>
      </trkpt>
      <trkpt lat="45.65609" lon="4.62655">
        <ele>506.6</ele>
        <time>2025-04-30T16:11:49Z</time>
      </trkpt>
      <trkpt lat="45.65609" lon="4.62655">
        <ele>506.6</ele>
        <time>2025-04-30T16:11:50Z</time>
      </trkpt>
      <trkpt lat="45.65609" lon="4.62655">
        <ele>506.6</ele>
        <time>2025-04-30T16:11:51Z</time>
      </trkpt>
      <trkpt lat="45.65609" lon="4.62655">
        <ele>506.6</ele>
        <time>2025-04-30T16:11:52Z</time>
      </trkpt>
      <trkpt lat="45.65609" lon="4.62655">
        <ele>506.6</ele>
        <time>2025-04-30T16:11:53Z</time>
      </trkpt>
      <trkpt lat="45.65609" lon="4.62655">
        <ele>506.6</ele>
        <time>2025-04-30T16:11:54Z</time>
      </trkpt>
      <trkpt lat="45.65609" lon="4.62655">
        <ele>506.6</ele>
        <time>2025-04-30T16:11:55Z</time>
      </trkpt>
      <trkpt lat="45.65609" lon="4.62655">
        <ele>506.6</ele>
        <time>2025-04-30T16:11:56Z</time>
      </trkpt>
      <trkpt lat="45.65609" lon="4.62655">
        <ele>506.6</ele>
        <time>2025-04-30T16:11:57Z</time>
      </trkpt>
      <trkpt lat="45.65609" lon="4.62655">
        <ele>506.6</ele>
        <time>2025-04-30T16:11:58Z</time>
      </trkpt>
      <trkpt lat="45.65609" lon="4.62655">
        <ele>506.6</ele>
        <time>2025-04-30T16:11:59Z</time>
      </trkpt>
      <trkpt lat="45.65609" lon="4.62655">
        <ele>506.6</ele>
        <time>2025-04-30T16:12:00Z</time>
      </trkpt>
      <trkpt lat="45.65609" lon="4.62655">
        <ele>506.6</ele>
        <time>2025-04-30T16:12:01Z</time>
      </trkpt>
      <trkpt lat="45.65609" lon="4.62655">
        <ele>506.6</ele>
        <time>2025-04-30T16:12:02Z</time>
      </trkpt>
      <trkpt lat="45.65609" lon="4.62655">
        <ele>506.6</ele>
        <time>2025-04-30T16:12:03Z</time>
      </trkpt>
      <trkpt lat="45.65609" lon="4.62655">
        <ele>506.6</ele>
        <time>2025-04-30T16:12:04Z</time>
      </trkpt>
      <trkpt lat="45.65609" lon="4.62655">
        <ele>506.6</ele>
        <time>2025-04-30T16:12:05Z</time>
      </trkpt>
      <trkpt lat="45.65609" lon="4.62655">
        <ele>506.6</ele>
        <time>2025-04-30T16:12:06Z</time>
      </trkpt>
      <trkpt lat="45.65609" lon="4.62655">
        <ele>506.6</ele>
        <time>2025-04-30T16:12:07Z</time>
      </trkpt>
      <trkpt lat="45.65609" lon="4.62655">
        <ele>506.6</ele>
        <time>2025-04-30T16:12:08Z</time>
      </trkpt>
      <trkpt lat="45.65609" lon="4.62655">
        <ele>506.6</ele>
        <time>2025-04-30T16:12:09Z</time>
      </trkpt>
      <trkpt lat="45.65609" lon="4.62655">
        <ele>506.6</ele>
        <time>2025-04-30T16:12:10Z</time>
      </trkpt>
      <trkpt lat="45.65609" lon="4.62655">
        <ele>506.6</ele>
        <time>2025-04-30T16:12:11Z</time>
      </trkpt>
      <trkpt lat="45.65609" lon="4.62655">
        <ele>506.6</ele>
        <time>2025-04-30T16:12:12Z</time>
      </trkpt>
      <trkpt lat="45.65609" lon="4.62655">
        <ele>506.6</ele>
        <time>2025-04-30T16:12:13Z</time>
      </trkpt>
      <trkpt lat="45.65609" lon="4.62655">
        <ele>506.6</ele>
        <time>2025-04-30T16:12:14Z</time>
      </trkpt>
      <trkpt lat="45.65609" lon="4.62655">
        <ele>506.6</ele>
        <time>2025-04-30T16:12:15Z</time>
      </trkpt>
      <trkpt lat="45.65609" lon="4.62655">
        <ele>506.6</ele>
        <time>2025-04-30T16:12:16Z</time>
      </trkpt>
      <trkpt lat="45.65609" lon="4.62655">
        <ele>506.6</ele>
        <time>2025-04-30T16:12:17Z</time>
      </trkpt>
      <trkpt lat="45.65609" lon="4.62655">
        <ele>506.6</ele>
        <time>2025-04-30T16:12:18Z</time>
      </trkpt>
      <trkpt lat="45.65609" lon="4.62655">
        <ele>506.6</ele>
        <time>2025-04-30T16:12:19Z</time>
      </trkpt>
      <trkpt lat="45.65609" lon="4.62655">
        <ele>506.6</ele>
        <time>2025-04-30T16:12:20Z</time>
      </trkpt>
      <trkpt lat="45.65609" lon="4.62655">
        <ele>506.6</ele>
        <time>2025-04-30T16:12:21Z</time>
      </trkpt>
      <trkpt lat="45.65609" lon="4.62655">
        <ele>506.6</ele>
        <time>2025-04-30T16:12:22Z</time>
      </trkpt>
      <trkpt lat="45.65609" lon="4.62655">
        <ele>506.6</ele>
        <time>2025-04-30T16:12:23Z</time>
      </trkpt>
      <trkpt lat="45.65609" lon="4.62655">
        <ele>506.6</ele>
        <time>2025-04-30T16:12:24Z</time>
      </trkpt>
      <trkpt lat="45.65609" lon="4.62655">
        <ele>506.6</ele>
        <time>2025-04-30T16:12:25Z</time>
      </trkpt>
      <trkpt lat="45.65609" lon="4.62655">
        <ele>506.6</ele>
        <time>2025-04-30T16:12:26Z</time>
      </trkpt>
      <trkpt lat="45.65609" lon="4.62655">
        <ele>506.6</ele>
        <time>2025-04-30T16:12:27Z</time>
      </trkpt>
      <trkpt lat="45.65609" lon="4.62655">
        <ele>506.6</ele>
        <time>2025-04-30T16:12:28Z</time>
      </trkpt>
      <trkpt lat="45.65609" lon="4.62655">
        <ele>506.6</ele>
        <time>2025-04-30T16:12:29Z</time>
      </trkpt>
      <trkpt lat="45.65609" lon="4.62655">
        <ele>506.6</ele>
        <time>2025-04-30T16:12:30Z</time>
      </trkpt>
      <trkpt lat="45.65609" lon="4.62655">
        <ele>506.6</ele>
        <time>2025-04-30T16:12:31Z</time>
      </trkpt>
      <trkpt lat="45.65609" lon="4.62655">
        <ele>506.6</ele>
        <time>2025-04-30T16:12:32Z</time>
      </trkpt>
      <trkpt lat="45.65609" lon="4.62655">
        <ele>506.6</ele>
        <time>2025-04-30T16:12:33Z</time>
      </trkpt>
      <trkpt lat="45.65609" lon="4.62655">
        <ele>506.6</ele>
        <time>2025-04-30T16:12:34Z</time>
      </trkpt>
      <trkpt lat="45.65609" lon="4.62655">
        <ele>506.6</ele>
        <time>2025-04-30T16:12:35Z</time>
      </trkpt>
      <trkpt lat="45.65609" lon="4.62655">
        <ele>506.6</ele>
        <time>2025-04-30T16:12:36Z</time>
      </trkpt>
      <trkpt lat="45.65609" lon="4.62655">
        <ele>506.6</ele>
        <time>2025-04-30T16:12:37Z</time>
      </trkpt>
      <trkpt lat="45.65609" lon="4.62656">
        <ele>506.6</ele>
        <time>2025-04-30T16:12:38Z</time>
      </trkpt>
      <trkpt lat="45.6561" lon="4.62657">
        <ele>506.6</ele>
        <time>2025-04-30T16:12:39Z</time>
      </trkpt>
      <trkpt lat="45.65612" lon="4.62658">
        <ele>506.6</ele>
        <time>2025-04-30T16:12:40Z</time>
      </trkpt>
      <trkpt lat="45.65613" lon="4.6266">
        <ele>506.6</ele>
        <time>2025-04-30T16:12:41Z</time>
      </trkpt>
      <trkpt lat="45.65614" lon="4.62662">
        <ele>506.6</ele>
        <time>2025-04-30T16:12:42Z</time>
      </trkpt>
      <trkpt lat="45.65616" lon="4.62664">
        <ele>506.6</ele>
        <time>2025-04-30T16:12:43Z</time>
      </trkpt>
      <trkpt lat="45.65618" lon="4.62667">
        <ele>506.4</ele>
        <time>2025-04-30T16:12:44Z</time>
      </trkpt>
      <trkpt lat="45.65621" lon="4.62671">
        <ele>506.4</ele>
        <time>2025-04-30T16:12:45Z</time>
      </trkpt>
      <trkpt lat="45.65624" lon="4.62674">
        <ele>506.4</ele>
        <time>2025-04-30T16:12:46Z</time>
      </trkpt>
      <trkpt lat="45.65627" lon="4.62678">
        <ele>506.2</ele>
        <time>2025-04-30T16:12:47Z</time>
      </trkpt>
      <trkpt lat="45.6563" lon="4.62681">
        <ele>506.2</ele>
        <time>2025-04-30T16:12:48Z</time>
      </trkpt>
      <trkpt lat="45.65633" lon="4.62685">
        <ele>506.2</ele>
        <time>2025-04-30T16:12:49Z</time>
      </trkpt>
      <trkpt lat="45.65636" lon="4.62688">
        <ele>506.2</ele>
        <time>2025-04-30T16:12:50Z</time>
      </trkpt>
      <trkpt lat="45.6564" lon="4.62692">
        <ele>506.2</ele>
        <time>2025-04-30T16:12:51Z</time>
      </trkpt>
      <trkpt lat="45.65643" lon="4.62696">
        <ele>506.2</ele>
        <time>2025-04-30T16:12:52Z</time>
      </trkpt>
      <trkpt lat="45.65647" lon="4.627">
        <ele>506.2</ele>
        <time>2025-04-30T16:12:53Z</time>
      </trkpt>
      <trkpt lat="45.6565" lon="4.62703">
        <ele>506.2</ele>
        <time>2025-04-30T16:12:54Z</time>
      </trkpt>
      <trkpt lat="45.65653" lon="4.62708">
        <ele>506.4</ele>
        <time>2025-04-30T16:12:55Z</time>
      </trkpt>
      <trkpt lat="45.65658" lon="4.62712">
        <ele>506.4</ele>
        <time>2025-04-30T16:12:56Z</time>
      </trkpt>
      <trkpt lat="45.65662" lon="4.62716">
        <ele>506.4</ele>
        <time>2025-04-30T16:12:57Z</time>
      </trkpt>
      <trkpt lat="45.65665" lon="4.62718">
        <ele>506.4</ele>
        <time>2025-04-30T16:12:58Z</time>
      </trkpt>
      <trkpt lat="45.65669" lon="4.62721">
        <ele>506.6</ele>
        <time>2025-04-30T16:12:59Z</time>
      </trkpt>
      <trkpt lat="45.65673" lon="4.62723">
        <ele>507</ele>
        <time>2025-04-30T16:13:00Z</time>
      </trkpt>
      <trkpt lat="45.65677" lon="4.62726">
        <ele>507</ele>
        <time>2025-04-30T16:13:01Z</time>
      </trkpt>
      <trkpt lat="45.65681" lon="4.62728">
        <ele>507</ele>
        <time>2025-04-30T16:13:02Z</time>
      </trkpt>
      <trkpt lat="45.65684" lon="4.6273">
        <ele>507.4</ele>
        <time>2025-04-30T16:13:03Z</time>
      </trkpt>
      <trkpt lat="45.65687" lon="4.62732">
        <ele>507.8</ele>
        <time>2025-04-30T16:13:04Z</time>
      </trkpt>
      <trkpt lat="45.6569" lon="4.62733">
        <ele>508.2</ele>
        <time>2025-04-30T16:13:05Z</time>
      </trkpt>
      <trkpt lat="45.65694" lon="4.62734">
        <ele>508.4</ele>
        <time>2025-04-30T16:13:06Z</time>
      </trkpt>
      <trkpt lat="45.65697" lon="4.62735">
        <ele>508.8</ele>
        <time>2025-04-30T16:13:07Z</time>
      </trkpt>
      <trkpt lat="45.657" lon="4.62735">
        <ele>509</ele>
        <time>2025-04-30T16:13:08Z</time>
      </trkpt>
      <trkpt lat="45.65704" lon="4.62737">
        <ele>509</ele>
        <time>2025-04-30T16:13:09Z</time>
      </trkpt>
      <trkpt lat="45.65708" lon="4.62738">
        <ele>509</ele>
        <time>2025-04-30T16:13:10Z</time>
      </trkpt>
      <trkpt lat="45.65712" lon="4.6274">
        <ele>509</ele>
        <time>2025-04-30T16:13:11Z</time>
      </trkpt>
      <trkpt lat="45.65716" lon="4.62742">
        <ele>509</ele>
        <time>2025-04-30T16:13:12Z</time>
      </trkpt>
      <trkpt lat="45.65721" lon="4.62744">
        <ele>508.8</ele>
        <time>2025-04-30T16:13:13Z</time>
      </trkpt>
      <trkpt lat="45.65726" lon="4.62746">
        <ele>508.6</ele>
        <time>2025-04-30T16:13:14Z</time>
      </trkpt>
      <trkpt lat="45.6573" lon="4.62749">
        <ele>508.2</ele>
        <time>2025-04-30T16:13:15Z</time>
      </trkpt>
      <trkpt lat="45.65737" lon="4.62752">
        <ele>508</ele>
        <time>2025-04-30T16:13:16Z</time>
      </trkpt>
      <trkpt lat="45.65743" lon="4.62755">
        <ele>507.6</ele>
        <time>2025-04-30T16:13:17Z</time>
      </trkpt>
      <trkpt lat="45.65748" lon="4.62758">
        <ele>507.2</ele>
        <time>2025-04-30T16:13:18Z</time>
      </trkpt>
      <trkpt lat="45.65754" lon="4.6276">
        <ele>506.8</ele>
        <time>2025-04-30T16:13:19Z</time>
      </trkpt>
      <trkpt lat="45.65759" lon="4.62763">
        <ele>506.6</ele>
        <time>2025-04-30T16:13:20Z</time>
      </trkpt>
      <trkpt lat="45.65765" lon="4.62766">
        <ele>506</ele>
        <time>2025-04-30T16:13:21Z</time>
      </trkpt>
      <trkpt lat="45.65771" lon="4.62769">
        <ele>505.6</ele>
        <time>2025-04-30T16:13:22Z</time>
      </trkpt>
      <trkpt lat="45.65777" lon="4.62771">
        <ele>505</ele>
        <time>2025-04-30T16:13:23Z</time>
      </trkpt>
      <trkpt lat="45.65784" lon="4.62774">
        <ele>504.2</ele>
        <time>2025-04-30T16:13:24Z</time>
      </trkpt>
      <trkpt lat="45.65791" lon="4.62775">
        <ele>503.8</ele>
        <time>2025-04-30T16:13:25Z</time>
      </trkpt>
      <trkpt lat="45.65798" lon="4.62776">
        <ele>503.2</ele>
        <time>2025-04-30T16:13:26Z</time>
      </trkpt>
      <trkpt lat="45.65806" lon="4.62777">
        <ele>502</ele>
        <time>2025-04-30T16:13:27Z</time>
      </trkpt>
      <trkpt lat="45.65815" lon="4.62779">
        <ele>501.4</ele>
        <time>2025-04-30T16:13:28Z</time>
      </trkpt>
      <trkpt lat="45.65824" lon="4.62779">
        <ele>499.8</ele>
        <time>2025-04-30T16:13:29Z</time>
      </trkpt>
      <trkpt lat="45.65833" lon="4.62779">
        <ele>498.8</ele>
        <time>2025-04-30T16:13:30Z</time>
      </trkpt>
      <trkpt lat="45.6584" lon="4.62779">
        <ele>497.8</ele>
        <time>2025-04-30T16:13:31Z</time>
      </trkpt>
      <trkpt lat="45.6585" lon="4.62777">
        <ele>497</ele>
        <time>2025-04-30T16:13:32Z</time>
      </trkpt>
      <trkpt lat="45.65859" lon="4.62776">
        <ele>496.4</ele>
        <time>2025-04-30T16:13:33Z</time>
      </trkpt>
      <trkpt lat="45.65868" lon="4.62776">
        <ele>495.2</ele>
        <time>2025-04-30T16:13:34Z</time>
      </trkpt>
      <trkpt lat="45.65875" lon="4.62777">
        <ele>495</ele>
        <time>2025-04-30T16:13:35Z</time>
      </trkpt>
      <trkpt lat="45.65883" lon="4.62778">
        <ele>495</ele>
        <time>2025-04-30T16:13:36Z</time>
      </trkpt>
      <trkpt lat="45.65891" lon="4.6278">
        <ele>495</ele>
        <time>2025-04-30T16:13:37Z</time>
      </trkpt>
      <trkpt lat="45.65898" lon="4.62783">
        <ele>495</ele>
        <time>2025-04-30T16:13:38Z</time>
      </trkpt>
      <trkpt lat="45.65905" lon="4.62788">
        <ele>495.2</ele>
        <time>2025-04-30T16:13:39Z</time>
      </trkpt>
      <trkpt lat="45.6591" lon="4.62795">
        <ele>495.4</ele>
        <time>2025-04-30T16:13:40Z</time>
      </trkpt>
      <trkpt lat="45.65915" lon="4.62804">
        <ele>495.8</ele>
        <time>2025-04-30T16:13:41Z</time>
      </trkpt>
      <trkpt lat="45.65919" lon="4.62811">
        <ele>496</ele>
        <time>2025-04-30T16:13:42Z</time>
      </trkpt>
      <trkpt lat="45.65922" lon="4.62819">
        <ele>496.2</ele>
        <time>2025-04-30T16:13:43Z</time>
      </trkpt>
      <trkpt lat="45.65926" lon="4.62825">
        <ele>496.6</ele>
        <time>2025-04-30T16:13:44Z</time>
      </trkpt>
      <trkpt lat="45.65928" lon="4.6283">
        <ele>496.8</ele>
        <time>2025-04-30T16:13:45Z</time>
      </trkpt>
      <trkpt lat="45.65932" lon="4.62838">
        <ele>497.2</ele>
        <time>2025-04-30T16:13:46Z</time>
      </trkpt>
      <trkpt lat="45.65934" lon="4.62843">
        <ele>497.6</ele>
        <time>2025-04-30T16:13:47Z</time>
      </trkpt>
      <trkpt lat="45.65936" lon="4.62849">
        <ele>498</ele>
        <time>2025-04-30T16:13:48Z</time>
      </trkpt>
      <trkpt lat="45.65938" lon="4.62858">
        <ele>498.4</ele>
        <time>2025-04-30T16:13:49Z</time>
      </trkpt>
      <trkpt lat="45.65939" lon="4.62864">
        <ele>498.6</ele>
        <time>2025-04-30T16:13:50Z</time>
      </trkpt>
      <trkpt lat="45.65941" lon="4.62871">
        <ele>499</ele>
        <time>2025-04-30T16:13:51Z</time>
      </trkpt>
      <trkpt lat="45.65941" lon="4.62877">
        <ele>499.2</ele>
        <time>2025-04-30T16:13:52Z</time>
      </trkpt>
      <trkpt lat="45.65941" lon="4.62883">
        <ele>499.8</ele>
        <time>2025-04-30T16:13:53Z</time>
      </trkpt>
      <trkpt lat="45.65941" lon="4.6289">
        <ele>500.2</ele>
        <time>2025-04-30T16:13:54Z</time>
      </trkpt>
      <trkpt lat="45.65941" lon="4.62897">
        <ele>500.4</ele>
        <time>2025-04-30T16:13:55Z</time>
      </trkpt>
      <trkpt lat="45.65941" lon="4.62903">
        <ele>500.4</ele>
        <time>2025-04-30T16:13:56Z</time>
      </trkpt>
      <trkpt lat="45.65941" lon="4.62909">
        <ele>500.4</ele>
        <time>2025-04-30T16:13:57Z</time>
      </trkpt>
      <trkpt lat="45.65941" lon="4.62914">
        <ele>500.6</ele>
        <time>2025-04-30T16:13:58Z</time>
      </trkpt>
      <trkpt lat="45.65941" lon="4.62922">
        <ele>501</ele>
        <time>2025-04-30T16:13:59Z</time>
      </trkpt>
      <trkpt lat="45.6594" lon="4.62928">
        <ele>501.2</ele>
        <time>2025-04-30T16:14:00Z</time>
      </trkpt>
      <trkpt lat="45.6594" lon="4.62934">
        <ele>501.4</ele>
        <time>2025-04-30T16:14:01Z</time>
      </trkpt>
      <trkpt lat="45.6594" lon="4.62941">
        <ele>501.6</ele>
        <time>2025-04-30T16:14:02Z</time>
      </trkpt>
      <trkpt lat="45.6594" lon="4.62947">
        <ele>501.8</ele>
        <time>2025-04-30T16:14:03Z</time>
      </trkpt>
      <trkpt lat="45.6594" lon="4.62954">
        <ele>501.8</ele>
        <time>2025-04-30T16:14:04Z</time>
      </trkpt>
      <trkpt lat="45.6594" lon="4.6296">
        <ele>502</ele>
        <time>2025-04-30T16:14:05Z</time>
      </trkpt>
      <trkpt lat="45.65939" lon="4.62966">
        <ele>502.2</ele>
        <time>2025-04-30T16:14:06Z</time>
      </trkpt>
      <trkpt lat="45.65939" lon="4.62972">
        <ele>502.2</ele>
        <time>2025-04-30T16:14:07Z</time>
      </trkpt>
      <trkpt lat="45.65941" lon="4.62978">
        <ele>502.4</ele>
        <time>2025-04-30T16:14:08Z</time>
      </trkpt>
      <trkpt lat="45.65942" lon="4.62983">
        <ele>502.8</ele>
        <time>2025-04-30T16:14:09Z</time>
      </trkpt>
      <trkpt lat="45.65943" lon="4.62989">
        <ele>503.2</ele>
        <time>2025-04-30T16:14:10Z</time>
      </trkpt>
      <trkpt lat="45.65945" lon="4.62994">
        <ele>503.6</ele>
        <time>2025-04-30T16:14:11Z</time>
      </trkpt>
      <trkpt lat="45.65947" lon="4.62999">
        <ele>504.2</ele>
        <time>2025-04-30T16:14:12Z</time>
      </trkpt>
      <trkpt lat="45.65949" lon="4.63004">
        <ele>504.4</ele>
        <time>2025-04-30T16:14:13Z</time>
      </trkpt>
      <trkpt lat="45.65951" lon="4.63008">
        <ele>504.8</ele>
        <time>2025-04-30T16:14:14Z</time>
      </trkpt>
      <trkpt lat="45.65954" lon="4.63013">
        <ele>505</ele>
        <time>2025-04-30T16:14:15Z</time>
      </trkpt>
      <trkpt lat="45.65958" lon="4.63018">
        <ele>505</ele>
        <time>2025-04-30T16:14:16Z</time>
      </trkpt>
      <trkpt lat="45.65961" lon="4.63023">
        <ele>505</ele>
        <time>2025-04-30T16:14:17Z</time>
      </trkpt>
      <trkpt lat="45.65965" lon="4.63029">
        <ele>504.8</ele>
        <time>2025-04-30T16:14:18Z</time>
      </trkpt>
      <trkpt lat="45.65968" lon="4.63035">
        <ele>504.8</ele>
        <time>2025-04-30T16:14:19Z</time>
      </trkpt>
      <trkpt lat="45.65971" lon="4.63041">
        <ele>504.4</ele>
        <time>2025-04-30T16:14:20Z</time>
      </trkpt>
      <trkpt lat="45.65975" lon="4.63048">
        <ele>504.2</ele>
        <time>2025-04-30T16:14:21Z</time>
      </trkpt>
      <trkpt lat="45.65979" lon="4.63054">
        <ele>503.6</ele>
        <time>2025-04-30T16:14:22Z</time>
      </trkpt>
      <trkpt lat="45.65983" lon="4.63061">
        <ele>503.2</ele>
        <time>2025-04-30T16:14:23Z</time>
      </trkpt>
      <trkpt lat="45.65986" lon="4.63068">
        <ele>502.8</ele>
        <time>2025-04-30T16:14:24Z</time>
      </trkpt>
      <trkpt lat="45.6599" lon="4.63076">
        <ele>502.6</ele>
        <time>2025-04-30T16:14:25Z</time>
      </trkpt>
      <trkpt lat="45.65994" lon="4.63082">
        <ele>502.2</ele>
        <time>2025-04-30T16:14:26Z</time>
      </trkpt>
      <trkpt lat="45.65997" lon="4.63087">
        <ele>502.2</ele>
        <time>2025-04-30T16:14:27Z</time>
      </trkpt>
      <trkpt lat="45.66001" lon="4.63092">
        <ele>502</ele>
        <time>2025-04-30T16:14:28Z</time>
      </trkpt>
      <trkpt lat="45.66005" lon="4.63097">
        <ele>502</ele>
        <time>2025-04-30T16:14:29Z</time>
      </trkpt>
      <trkpt lat="45.66008" lon="4.63102">
        <ele>502</ele>
        <time>2025-04-30T16:14:30Z</time>
      </trkpt>
      <trkpt lat="45.66013" lon="4.63107">
        <ele>501.8</ele>
        <time>2025-04-30T16:14:31Z</time>
      </trkpt>
      <trkpt lat="45.66016" lon="4.6311">
        <ele>501.6</ele>
        <time>2025-04-30T16:14:32Z</time>
      </trkpt>
      <trkpt lat="45.6602" lon="4.63115">
        <ele>501.6</ele>
        <time>2025-04-30T16:14:33Z</time>
      </trkpt>
      <trkpt lat="45.66025" lon="4.63121">
        <ele>501.4</ele>
        <time>2025-04-30T16:14:34Z</time>
      </trkpt>
      <trkpt lat="45.66028" lon="4.63125">
        <ele>501.4</ele>
        <time>2025-04-30T16:14:35Z</time>
      </trkpt>
      <trkpt lat="45.66031" lon="4.63128">
        <ele>501.4</ele>
        <time>2025-04-30T16:14:36Z</time>
      </trkpt>
      <trkpt lat="45.66035" lon="4.63133">
        <ele>501.4</ele>
        <time>2025-04-30T16:14:37Z</time>
      </trkpt>
      <trkpt lat="45.66038" lon="4.63138">
        <ele>501.4</ele>
        <time>2025-04-30T16:14:38Z</time>
      </trkpt>
      <trkpt lat="45.66041" lon="4.63142">
        <ele>501.4</ele>
        <time>2025-04-30T16:14:39Z</time>
      </trkpt>
      <trkpt lat="45.66044" lon="4.63145">
        <ele>501.2</ele>
        <time>2025-04-30T16:14:40Z</time>
      </trkpt>
      <trkpt lat="45.66048" lon="4.63148">
        <ele>501.2</ele>
        <time>2025-04-30T16:14:41Z</time>
      </trkpt>
      <trkpt lat="45.66053" lon="4.63151">
        <ele>501</ele>
        <time>2025-04-30T16:14:42Z</time>
      </trkpt>
      <trkpt lat="45.66056" lon="4.63153">
        <ele>501</ele>
        <time>2025-04-30T16:14:43Z</time>
      </trkpt>
      <trkpt lat="45.66058" lon="4.63156">
        <ele>501</ele>
        <time>2025-04-30T16:14:44Z</time>
      </trkpt>
      <trkpt lat="45.66058" lon="4.63159">
        <ele>500.8</ele>
        <time>2025-04-30T16:14:45Z</time>
      </trkpt>
      <trkpt lat="45.66058" lon="4.63164">
        <ele>500.8</ele>
        <time>2025-04-30T16:14:46Z</time>
      </trkpt>
      <trkpt lat="45.66058" lon="4.63168">
        <ele>500.8</ele>
        <time>2025-04-30T16:14:47Z</time>
      </trkpt>
      <trkpt lat="45.66058" lon="4.63171">
        <ele>500.6</ele>
        <time>2025-04-30T16:14:48Z</time>
      </trkpt>
      <trkpt lat="45.66058" lon="4.63175">
        <ele>500.6</ele>
        <time>2025-04-30T16:14:49Z</time>
      </trkpt>
      <trkpt lat="45.66058" lon="4.63179">
        <ele>500.4</ele>
        <time>2025-04-30T16:14:50Z</time>
      </trkpt>
      <trkpt lat="45.66058" lon="4.63182">
        <ele>500.4</ele>
        <time>2025-04-30T16:14:51Z</time>
      </trkpt>
      <trkpt lat="45.66058" lon="4.63185">
        <ele>500.2</ele>
        <time>2025-04-30T16:14:52Z</time>
      </trkpt>
      <trkpt lat="45.66058" lon="4.63188">
        <ele>500</ele>
        <time>2025-04-30T16:14:53Z</time>
      </trkpt>
      <trkpt lat="45.66059" lon="4.6319">
        <ele>499.8</ele>
        <time>2025-04-30T16:14:54Z</time>
      </trkpt>
      <trkpt lat="45.6606" lon="4.63193">
        <ele>499.8</ele>
        <time>2025-04-30T16:14:55Z</time>
      </trkpt>
      <trkpt lat="45.6606" lon="4.63195">
        <ele>499.8</ele>
        <time>2025-04-30T16:14:56Z</time>
      </trkpt>
      <trkpt lat="45.66063" lon="4.63198">
        <ele>499.8</ele>
        <time>2025-04-30T16:14:57Z</time>
      </trkpt>
      <trkpt lat="45.66066" lon="4.63201">
        <ele>499.8</ele>
        <time>2025-04-30T16:14:58Z</time>
      </trkpt>
      <trkpt lat="45.66069" lon="4.63204">
        <ele>499.4</ele>
        <time>2025-04-30T16:14:59Z</time>
      </trkpt>
      <trkpt lat="45.66072" lon="4.63206">
        <ele>499.2</ele>
        <time>2025-04-30T16:15:00Z</time>
      </trkpt>
      <trkpt lat="45.66075" lon="4.6321">
        <ele>499</ele>
        <time>2025-04-30T16:15:01Z</time>
      </trkpt>
      <trkpt lat="45.66077" lon="4.63213">
        <ele>498.8</ele>
        <time>2025-04-30T16:15:02Z</time>
      </trkpt>
      <trkpt lat="45.66079" lon="4.63216">
        <ele>498.8</ele>
        <time>2025-04-30T16:15:03Z</time>
      </trkpt>
      <trkpt lat="45.66082" lon="4.6322">
        <ele>498.8</ele>
        <time>2025-04-30T16:15:04Z</time>
      </trkpt>
      <trkpt lat="45.66084" lon="4.63223">
        <ele>498.8</ele>
        <time>2025-04-30T16:15:05Z</time>
      </trkpt>
      <trkpt lat="45.66087" lon="4.63227">
        <ele>498.6</ele>
        <time>2025-04-30T16:15:06Z</time>
      </trkpt>
      <trkpt lat="45.66089" lon="4.63231">
        <ele>498.6</ele>
        <time>2025-04-30T16:15:07Z</time>
      </trkpt>
      <trkpt lat="45.6609" lon="4.63235">
        <ele>498.4</ele>
        <time>2025-04-30T16:15:08Z</time>
      </trkpt>
      <trkpt lat="45.66091" lon="4.63237">
        <ele>498.2</ele>
        <time>2025-04-30T16:15:09Z</time>
      </trkpt>
      <trkpt lat="45.66093" lon="4.63239">
        <ele>498</ele>
        <time>2025-04-30T16:15:10Z</time>
      </trkpt>
      <trkpt lat="45.66095" lon="4.63241">
        <ele>498</ele>
        <time>2025-04-30T16:15:11Z</time>
      </trkpt>
      <trkpt lat="45.66096" lon="4.63242">
        <ele>497.8</ele>
        <time>2025-04-30T16:15:12Z</time>
      </trkpt>
      <trkpt lat="45.66096" lon="4.63243">
        <ele>497.6</ele>
        <time>2025-04-30T16:15:13Z</time>
      </trkpt>
      <trkpt lat="45.66096" lon="4.63243">
        <ele>497.6</ele>
        <time>2025-04-30T16:15:14Z</time>
      </trkpt>
      <trkpt lat="45.66096" lon="4.63243">
        <ele>497.6</ele>
        <time>2025-04-30T16:15:15Z</time>
      </trkpt>
      <trkpt lat="45.66096" lon="4.63243">
        <ele>497.6</ele>
        <time>2025-04-30T16:15:16Z</time>
      </trkpt>
      <trkpt lat="45.66096" lon="4.63243">
        <ele>497.6</ele>
        <time>2025-04-30T16:15:17Z</time>
      </trkpt>
      <trkpt lat="45.66096" lon="4.63243">
        <ele>497.6</ele>
        <time>2025-04-30T16:15:18Z</time>
      </trkpt>
      <trkpt lat="45.66097" lon="4.63242">
        <ele>497.6</ele>
        <time>2025-04-30T16:15:19Z</time>
      </trkpt>
      <trkpt lat="45.66097" lon="4.63243">
        <ele>497.6</ele>
        <time>2025-04-30T16:15:20Z</time>
      </trkpt>
      <trkpt lat="45.66098" lon="4.63242">
        <ele>497.6</ele>
        <time>2025-04-30T16:15:21Z</time>
      </trkpt>
      <trkpt lat="45.66099" lon="4.63241">
        <ele>497.6</ele>
        <time>2025-04-30T16:15:22Z</time>
      </trkpt>
      <trkpt lat="45.661" lon="4.63241">
        <ele>497.6</ele>
        <time>2025-04-30T16:15:23Z</time>
      </trkpt>
      <trkpt lat="45.66102" lon="4.63241">
        <ele>497.6</ele>
        <time>2025-04-30T16:15:24Z</time>
      </trkpt>
      <trkpt lat="45.66104" lon="4.6324">
        <ele>497.6</ele>
        <time>2025-04-30T16:15:25Z</time>
      </trkpt>
      <trkpt lat="45.66107" lon="4.63241">
        <ele>497.4</ele>
        <time>2025-04-30T16:15:26Z</time>
      </trkpt>
      <trkpt lat="45.66109" lon="4.63242">
        <ele>497.2</ele>
        <time>2025-04-30T16:15:27Z</time>
      </trkpt>
      <trkpt lat="45.66111" lon="4.63244">
        <ele>497</ele>
        <time>2025-04-30T16:15:28Z</time>
      </trkpt>
      <trkpt lat="45.66112" lon="4.63246">
        <ele>497</ele>
        <time>2025-04-30T16:15:29Z</time>
      </trkpt>
      <trkpt lat="45.66112" lon="4.63247">
        <ele>496.8</ele>
        <time>2025-04-30T16:15:30Z</time>
      </trkpt>
      <trkpt lat="45.66112" lon="4.63247">
        <ele>496.8</ele>
        <time>2025-04-30T16:15:31Z</time>
      </trkpt>
      <trkpt lat="45.66112" lon="4.63247">
        <ele>496.8</ele>
        <time>2025-04-30T16:15:32Z</time>
      </trkpt>
      <trkpt lat="45.66112" lon="4.63247">
        <ele>496.8</ele>
        <time>2025-04-30T16:15:33Z</time>
      </trkpt>
      <trkpt lat="45.66112" lon="4.63247">
        <ele>496.6</ele>
        <time>2025-04-30T16:15:34Z</time>
      </trkpt>
      <trkpt lat="45.66112" lon="4.63247">
        <ele>496.6</ele>
        <time>2025-04-30T16:15:35Z</time>
      </trkpt>
      <trkpt lat="45.66112" lon="4.63247">
        <ele>496.6</ele>
        <time>2025-04-30T16:15:36Z</time>
      </trkpt>
      <trkpt lat="45.66112" lon="4.63247">
        <ele>496.6</ele>
        <time>2025-04-30T16:15:37Z</time>
      </trkpt>
      <trkpt lat="45.66112" lon="4.63247">
        <ele>496.6</ele>
        <time>2025-04-30T16:15:38Z</time>
      </trkpt>
      <trkpt lat="45.66112" lon="4.63247">
        <ele>496.4</ele>
        <time>2025-04-30T16:15:39Z</time>
      </trkpt>
      <trkpt lat="45.66112" lon="4.63247">
        <ele>496.4</ele>
        <time>2025-04-30T16:15:40Z</time>
      </trkpt>
      <trkpt lat="45.66112" lon="4.63247">
        <ele>496.4</ele>
        <time>2025-04-30T16:15:41Z</time>
      </trkpt>
      <trkpt lat="45.66112" lon="4.63247">
        <ele>496.4</ele>
        <time>2025-04-30T16:15:42Z</time>
      </trkpt>
      <trkpt lat="45.66112" lon="4.63247">
        <ele>496.4</ele>
        <time>2025-04-30T16:15:43Z</time>
      </trkpt>
      <trkpt lat="45.66112" lon="4.63247">
        <ele>496.4</ele>
        <time>2025-04-30T16:15:44Z</time>
      </trkpt>
      <trkpt lat="45.66112" lon="4.63247">
        <ele>496.8</ele>
        <time>2025-04-30T16:15:45Z</time>
      </trkpt>
      <trkpt lat="45.66112" lon="4.63247">
        <ele>496.8</ele>
        <time>2025-04-30T16:15:46Z</time>
      </trkpt>
      <trkpt lat="45.66112" lon="4.63247">
        <ele>496.8</ele>
        <time>2025-04-30T16:15:47Z</time>
      </trkpt>
      <trkpt lat="45.66112" lon="4.63247">
        <ele>496.8</ele>
        <time>2025-04-30T16:15:48Z</time>
      </trkpt>
      <trkpt lat="45.66112" lon="4.63247">
        <ele>496.6</ele>
        <time>2025-04-30T16:15:49Z</time>
      </trkpt>
      <trkpt lat="45.66112" lon="4.63247">
        <ele>496.6</ele>
        <time>2025-04-30T16:15:50Z</time>
      </trkpt>
      <trkpt lat="45.66112" lon="4.63247">
        <ele>496.4</ele>
        <time>2025-04-30T16:15:51Z</time>
      </trkpt>
      <trkpt lat="45.66112" lon="4.63247">
        <ele>496.2</ele>
        <time>2025-04-30T16:15:52Z</time>
      </trkpt>
      <trkpt lat="45.66112" lon="4.63247">
        <ele>496.2</ele>
        <time>2025-04-30T16:15:53Z</time>
      </trkpt>
      <trkpt lat="45.66112" lon="4.63247">
        <ele>496.2</ele>
        <time>2025-04-30T16:15:54Z</time>
      </trkpt>
      <trkpt lat="45.66112" lon="4.63247">
        <ele>496.2</ele>
        <time>2025-04-30T16:15:55Z</time>
      </trkpt>
      <trkpt lat="45.66112" lon="4.63247">
        <ele>496.4</ele>
        <time>2025-04-30T16:15:56Z</time>
      </trkpt>
      <trkpt lat="45.66112" lon="4.63247">
        <ele>496.4</ele>
        <time>2025-04-30T16:15:57Z</time>
      </trkpt>
      <trkpt lat="45.66112" lon="4.63247">
        <ele>496.4</ele>
        <time>2025-04-30T16:15:58Z</time>
      </trkpt>
      <trkpt lat="45.66112" lon="4.63247">
        <ele>496.4</ele>
        <time>2025-04-30T16:15:59Z</time>
      </trkpt>
      <trkpt lat="45.66112" lon="4.63247">
        <ele>496.4</ele>
        <time>2025-04-30T16:16:00Z</time>
      </trkpt>
      <trkpt lat="45.66112" lon="4.63247">
        <ele>496.4</ele>
        <time>2025-04-30T16:16:01Z</time>
      </trkpt>
      <trkpt lat="45.66112" lon="4.63247">
        <ele>496.4</ele>
        <time>2025-04-30T16:16:02Z</time>
      </trkpt>
      <trkpt lat="45.66112" lon="4.63247">
        <ele>496.4</ele>
        <time>2025-04-30T16:16:03Z</time>
      </trkpt>
      <trkpt lat="45.66112" lon="4.63247">
        <ele>496.4</ele>
        <time>2025-04-30T16:16:04Z</time>
      </trkpt>
      <trkpt lat="45.66112" lon="4.63247">
        <ele>496.4</ele>
        <time>2025-04-30T16:16:05Z</time>
      </trkpt>
      <trkpt lat="45.66112" lon="4.63247">
        <ele>496.4</ele>
        <time>2025-04-30T16:16:06Z</time>
      </trkpt>
      <trkpt lat="45.66112" lon="4.63247">
        <ele>496.4</ele>
        <time>2025-04-30T16:16:07Z</time>
      </trkpt>
      <trkpt lat="45.66112" lon="4.63247">
        <ele>496.2</ele>
        <time>2025-04-30T16:16:08Z</time>
      </trkpt>
      <trkpt lat="45.66112" lon="4.63247">
        <ele>496.2</ele>
        <time>2025-04-30T16:16:09Z</time>
      </trkpt>
      <trkpt lat="45.66112" lon="4.63247">
        <ele>496</ele>
        <time>2025-04-30T16:16:10Z</time>
      </trkpt>
      <trkpt lat="45.66112" lon="4.63247">
        <ele>496</ele>
        <time>2025-04-30T16:16:11Z</time>
      </trkpt>
      <trkpt lat="45.66112" lon="4.63247">
        <ele>495.6</ele>
        <time>2025-04-30T16:16:12Z</time>
      </trkpt>
      <trkpt lat="45.66112" lon="4.63247">
        <ele>495.8</ele>
        <time>2025-04-30T16:16:13Z</time>
      </trkpt>
      <trkpt lat="45.66112" lon="4.63247">
        <ele>496</ele>
        <time>2025-04-30T16:16:14Z</time>
      </trkpt>
      <trkpt lat="45.66113" lon="4.63247">
        <ele>496</ele>
        <time>2025-04-30T16:16:15Z</time>
      </trkpt>
      <trkpt lat="45.66115" lon="4.63247">
        <ele>496.4</ele>
        <time>2025-04-30T16:16:16Z</time>
      </trkpt>
      <trkpt lat="45.66117" lon="4.63248">
        <ele>496.4</ele>
        <time>2025-04-30T16:16:17Z</time>
      </trkpt>
      <trkpt lat="45.6612" lon="4.63248">
        <ele>496.4</ele>
        <time>2025-04-30T16:16:18Z</time>
      </trkpt>
      <trkpt lat="45.66124" lon="4.63249">
        <ele>496.4</ele>
        <time>2025-04-30T16:16:19Z</time>
      </trkpt>
      <trkpt lat="45.66128" lon="4.63248">
        <ele>496</ele>
        <time>2025-04-30T16:16:20Z</time>
      </trkpt>
      <trkpt lat="45.66132" lon="4.63246">
        <ele>495.4</ele>
        <time>2025-04-30T16:16:21Z</time>
      </trkpt>
      <trkpt lat="45.66136" lon="4.63245">
        <ele>494.6</ele>
        <time>2025-04-30T16:16:22Z</time>
      </trkpt>
      <trkpt lat="45.6614" lon="4.63245">
        <ele>493.8</ele>
        <time>2025-04-30T16:16:23Z</time>
      </trkpt>
      <trkpt lat="45.66143" lon="4.63248">
        <ele>492.8</ele>
        <time>2025-04-30T16:16:24Z</time>
      </trkpt>
      <trkpt lat="45.66145" lon="4.63253">
        <ele>492.2</ele>
        <time>2025-04-30T16:16:25Z</time>
      </trkpt>
      <trkpt lat="45.66146" lon="4.6326">
        <ele>491.6</ele>
        <time>2025-04-30T16:16:26Z</time>
      </trkpt>
      <trkpt lat="45.66146" lon="4.63266">
        <ele>490.8</ele>
        <time>2025-04-30T16:16:27Z</time>
      </trkpt>
      <trkpt lat="45.66146" lon="4.63272">
        <ele>490.4</ele>
        <time>2025-04-30T16:16:28Z</time>
      </trkpt>
      <trkpt lat="45.66147" lon="4.63277">
        <ele>489.8</ele>
        <time>2025-04-30T16:16:29Z</time>
      </trkpt>
      <trkpt lat="45.66148" lon="4.6328">
        <ele>489.8</ele>
        <time>2025-04-30T16:16:30Z</time>
      </trkpt>
      <trkpt lat="45.6615" lon="4.6328">
        <ele>489.6</ele>
        <time>2025-04-30T16:16:31Z</time>
      </trkpt>
      <trkpt lat="45.66152" lon="4.6328">
        <ele>489.6</ele>
        <time>2025-04-30T16:16:32Z</time>
      </trkpt>
      <trkpt lat="45.66154" lon="4.63279">
        <ele>489.4</ele>
        <time>2025-04-30T16:16:33Z</time>
      </trkpt>
      <trkpt lat="45.66156" lon="4.63278">
        <ele>489.4</ele>
        <time>2025-04-30T16:16:34Z</time>
      </trkpt>
      <trkpt lat="45.66159" lon="4.63277">
        <ele>489.2</ele>
        <time>2025-04-30T16:16:35Z</time>
      </trkpt>
      <trkpt lat="45.66164" lon="4.63275">
        <ele>488.6</ele>
        <time>2025-04-30T16:16:36Z</time>
      </trkpt>
      <trkpt lat="45.66167" lon="4.63274">
        <ele>488.2</ele>
        <time>2025-04-30T16:16:37Z</time>
      </trkpt>
      <trkpt lat="45.66172" lon="4.63272">
        <ele>487.4</ele>
        <time>2025-04-30T16:16:38Z</time>
      </trkpt>
      <trkpt lat="45.66176" lon="4.63271">
        <ele>486.4</ele>
        <time>2025-04-30T16:16:39Z</time>
      </trkpt>
      <trkpt lat="45.66178" lon="4.6327">
        <ele>485.2</ele>
        <time>2025-04-30T16:16:40Z</time>
      </trkpt>
      <trkpt lat="45.66183" lon="4.63269">
        <ele>484.4</ele>
        <time>2025-04-30T16:16:41Z</time>
      </trkpt>
      <trkpt lat="45.66187" lon="4.63268">
        <ele>483.8</ele>
        <time>2025-04-30T16:16:42Z</time>
      </trkpt>
      <trkpt lat="45.66191" lon="4.63266">
        <ele>483</ele>
        <time>2025-04-30T16:16:43Z</time>
      </trkpt>
      <trkpt lat="45.66196" lon="4.63265">
        <ele>482.2</ele>
        <time>2025-04-30T16:16:44Z</time>
      </trkpt>
      <trkpt lat="45.66202" lon="4.63263">
        <ele>481.4</ele>
        <time>2025-04-30T16:16:45Z</time>
      </trkpt>
      <trkpt lat="45.66208" lon="4.63261">
        <ele>480.2</ele>
        <time>2025-04-30T16:16:46Z</time>
      </trkpt>
      <trkpt lat="45.66213" lon="4.6326">
        <ele>478.8</ele>
        <time>2025-04-30T16:16:47Z</time>
      </trkpt>
      <trkpt lat="45.66217" lon="4.63258">
        <ele>477.4</ele>
        <time>2025-04-30T16:16:48Z</time>
      </trkpt>
      <trkpt lat="45.66221" lon="4.63256">
        <ele>476.4</ele>
        <time>2025-04-30T16:16:49Z</time>
      </trkpt>
      <trkpt lat="45.66226" lon="4.63252">
        <ele>475</ele>
        <time>2025-04-30T16:16:50Z</time>
      </trkpt>
      <trkpt lat="45.6623" lon="4.63247">
        <ele>474</ele>
        <time>2025-04-30T16:16:51Z</time>
      </trkpt>
      <trkpt lat="45.66235" lon="4.63243">
        <ele>472.8</ele>
        <time>2025-04-30T16:16:52Z</time>
      </trkpt>
      <trkpt lat="45.6624" lon="4.63239">
        <ele>471.8</ele>
        <time>2025-04-30T16:16:53Z</time>
      </trkpt>
      <trkpt lat="45.66245" lon="4.63235">
        <ele>471</ele>
        <time>2025-04-30T16:16:54Z</time>
      </trkpt>
      <trkpt lat="45.6625" lon="4.63231">
        <ele>469.8</ele>
        <time>2025-04-30T16:16:55Z</time>
      </trkpt>
      <trkpt lat="45.66254" lon="4.63228">
        <ele>468.4</ele>
        <time>2025-04-30T16:16:56Z</time>
      </trkpt>
      <trkpt lat="45.66258" lon="4.63225">
        <ele>467.4</ele>
        <time>2025-04-30T16:16:57Z</time>
      </trkpt>
      <trkpt lat="45.66263" lon="4.6322">
        <ele>466.6</ele>
        <time>2025-04-30T16:16:58Z</time>
      </trkpt>
      <trkpt lat="45.66268" lon="4.63216">
        <ele>465.2</ele>
        <time>2025-04-30T16:16:59Z</time>
      </trkpt>
      <trkpt lat="45.66273" lon="4.63212">
        <ele>464</ele>
        <time>2025-04-30T16:17:00Z</time>
      </trkpt>
      <trkpt lat="45.66277" lon="4.63209">
        <ele>463.2</ele>
        <time>2025-04-30T16:17:01Z</time>
      </trkpt>
      <trkpt lat="45.66282" lon="4.63204">
        <ele>462.4</ele>
        <time>2025-04-30T16:17:02Z</time>
      </trkpt>
      <trkpt lat="45.66287" lon="4.63199">
        <ele>461.2</ele>
        <time>2025-04-30T16:17:03Z</time>
      </trkpt>
      <trkpt lat="45.66292" lon="4.63195">
        <ele>460.2</ele>
        <time>2025-04-30T16:17:04Z</time>
      </trkpt>
      <trkpt lat="45.66297" lon="4.63189">
        <ele>459.6</ele>
        <time>2025-04-30T16:17:05Z</time>
      </trkpt>
      <trkpt lat="45.66302" lon="4.63184">
        <ele>458</ele>
        <time>2025-04-30T16:17:06Z</time>
      </trkpt>
      <trkpt lat="45.66306" lon="4.63181">
        <ele>456.6</ele>
        <time>2025-04-30T16:17:07Z</time>
      </trkpt>
      <trkpt lat="45.6631" lon="4.63178">
        <ele>455.8</ele>
        <time>2025-04-30T16:17:08Z</time>
      </trkpt>
      <trkpt lat="45.66313" lon="4.63174">
        <ele>454.6</ele>
        <time>2025-04-30T16:17:09Z</time>
      </trkpt>
      <trkpt lat="45.66316" lon="4.63171">
        <ele>454</ele>
        <time>2025-04-30T16:17:10Z</time>
      </trkpt>
      <trkpt lat="45.66319" lon="4.63168">
        <ele>453.2</ele>
        <time>2025-04-30T16:17:11Z</time>
      </trkpt>
      <trkpt lat="45.66323" lon="4.63164">
        <ele>452.6</ele>
        <time>2025-04-30T16:17:12Z</time>
      </trkpt>
      <trkpt lat="45.66326" lon="4.63161">
        <ele>451.6</ele>
        <time>2025-04-30T16:17:13Z</time>
      </trkpt>
      <trkpt lat="45.66329" lon="4.63159">
        <ele>451</ele>
        <time>2025-04-30T16:17:14Z</time>
      </trkpt>
      <trkpt lat="45.66332" lon="4.63159">
        <ele>450.4</ele>
        <time>2025-04-30T16:17:15Z</time>
      </trkpt>
      <trkpt lat="45.66336" lon="4.63161">
        <ele>449.8</ele>
        <time>2025-04-30T16:17:16Z</time>
      </trkpt>
      <trkpt lat="45.66339" lon="4.63163">
        <ele>449</ele>
        <time>2025-04-30T16:17:17Z</time>
      </trkpt>
      <trkpt lat="45.66341" lon="4.63165">
        <ele>448.4</ele>
        <time>2025-04-30T16:17:18Z</time>
      </trkpt>
      <trkpt lat="45.66341" lon="4.63165">
        <ele>447.6</ele>
        <time>2025-04-30T16:17:19Z</time>
      </trkpt>
      <trkpt lat="45.66341" lon="4.63165">
        <ele>447.4</ele>
        <time>2025-04-30T16:17:20Z</time>
      </trkpt>
      <trkpt lat="45.66341" lon="4.63165">
        <ele>447.2</ele>
        <time>2025-04-30T16:17:21Z</time>
      </trkpt>
      <trkpt lat="45.66341" lon="4.63165">
        <ele>447</ele>
        <time>2025-04-30T16:17:22Z</time>
      </trkpt>
      <trkpt lat="45.66341" lon="4.63165">
        <ele>447</ele>
        <time>2025-04-30T16:17:23Z</time>
      </trkpt>
      <trkpt lat="45.66341" lon="4.63165">
        <ele>447</ele>
        <time>2025-04-30T16:17:24Z</time>
      </trkpt>
      <trkpt lat="45.66341" lon="4.63165">
        <ele>447</ele>
        <time>2025-04-30T16:17:25Z</time>
      </trkpt>
      <trkpt lat="45.66341" lon="4.63165">
        <ele>447</ele>
        <time>2025-04-30T16:17:26Z</time>
      </trkpt>
      <trkpt lat="45.66341" lon="4.63165">
        <ele>446.8</ele>
        <time>2025-04-30T16:17:27Z</time>
      </trkpt>
      <trkpt lat="45.66341" lon="4.63165">
        <ele>446.8</ele>
        <time>2025-04-30T16:17:28Z</time>
      </trkpt>
      <trkpt lat="45.66341" lon="4.63165">
        <ele>446.8</ele>
        <time>2025-04-30T16:17:29Z</time>
      </trkpt>
      <trkpt lat="45.66341" lon="4.63165">
        <ele>446.8</ele>
        <time>2025-04-30T16:17:30Z</time>
      </trkpt>
      <trkpt lat="45.66341" lon="4.63165">
        <ele>446.8</ele>
        <time>2025-04-30T16:17:31Z</time>
      </trkpt>
      <trkpt lat="45.66341" lon="4.63165">
        <ele>446.8</ele>
        <time>2025-04-30T16:17:32Z</time>
      </trkpt>
      <trkpt lat="45.66341" lon="4.63165">
        <ele>446.8</ele>
        <time>2025-04-30T16:17:33Z</time>
      </trkpt>
      <trkpt lat="45.66341" lon="4.63165">
        <ele>446.8</ele>
        <time>2025-04-30T16:17:34Z</time>
      </trkpt>
      <trkpt lat="45.66341" lon="4.63165">
        <ele>446.8</ele>
        <time>2025-04-30T16:17:35Z</time>
      </trkpt>
      <trkpt lat="45.66341" lon="4.63165">
        <ele>446.8</ele>
        <time>2025-04-30T16:17:36Z</time>
      </trkpt>
      <trkpt lat="45.66341" lon="4.63165">
        <ele>446.8</ele>
        <time>2025-04-30T16:17:37Z</time>
      </trkpt>
      <trkpt lat="45.66341" lon="4.63165">
        <ele>446.8</ele>
        <time>2025-04-30T16:17:38Z</time>
      </trkpt>
      <trkpt lat="45.66341" lon="4.63165">
        <ele>446.6</ele>
        <time>2025-04-30T16:17:39Z</time>
      </trkpt>
      <trkpt lat="45.66341" lon="4.63165">
        <ele>446.6</ele>
        <time>2025-04-30T16:17:40Z</time>
      </trkpt>
      <trkpt lat="45.66341" lon="4.63165">
        <ele>446.6</ele>
        <time>2025-04-30T16:17:41Z</time>
      </trkpt>
      <trkpt lat="45.66341" lon="4.63165">
        <ele>446.6</ele>
        <time>2025-04-30T16:17:42Z</time>
      </trkpt>
      <trkpt lat="45.66341" lon="4.63165">
        <ele>446.6</ele>
        <time>2025-04-30T16:17:43Z</time>
      </trkpt>
      <trkpt lat="45.66341" lon="4.63165">
        <ele>446.6</ele>
        <time>2025-04-30T16:17:44Z</time>
      </trkpt>
      <trkpt lat="45.66341" lon="4.63165">
        <ele>446.6</ele>
        <time>2025-04-30T16:17:45Z</time>
      </trkpt>
      <trkpt lat="45.66341" lon="4.63165">
        <ele>446.6</ele>
        <time>2025-04-30T16:17:46Z</time>
      </trkpt>
      <trkpt lat="45.66341" lon="4.63165">
        <ele>446.6</ele>
        <time>2025-04-30T16:17:47Z</time>
      </trkpt>
      <trkpt lat="45.66341" lon="4.63165">
        <ele>446.6</ele>
        <time>2025-04-30T16:17:48Z</time>
      </trkpt>
      <trkpt lat="45.66341" lon="4.63165">
        <ele>446.6</ele>
        <time>2025-04-30T16:17:49Z</time>
      </trkpt>
      <trkpt lat="45.66341" lon="4.63165">
        <ele>446.6</ele>
        <time>2025-04-30T16:17:50Z</time>
      </trkpt>
      <trkpt lat="45.66341" lon="4.63165">
        <ele>446.6</ele>
        <time>2025-04-30T16:17:51Z</time>
      </trkpt>
      <trkpt lat="45.66341" lon="4.63165">
        <ele>446.6</ele>
        <time>2025-04-30T16:17:52Z</time>
      </trkpt>
      <trkpt lat="45.66341" lon="4.63165">
        <ele>446.6</ele>
        <time>2025-04-30T16:17:53Z</time>
      </trkpt>
      <trkpt lat="45.66341" lon="4.63165">
        <ele>446.6</ele>
        <time>2025-04-30T16:17:54Z</time>
      </trkpt>
      <trkpt lat="45.66341" lon="4.63165">
        <ele>446.6</ele>
        <time>2025-04-30T16:17:55Z</time>
      </trkpt>
      <trkpt lat="45.66341" lon="4.63165">
        <ele>446.4</ele>
        <time>2025-04-30T16:17:56Z</time>
      </trkpt>
      <trkpt lat="45.66341" lon="4.63165">
        <ele>446.4</ele>
        <time>2025-04-30T16:17:57Z</time>
      </trkpt>
      <trkpt lat="45.66341" lon="4.63165">
        <ele>446.4</ele>
        <time>2025-04-30T16:17:58Z</time>
      </trkpt>
      <trkpt lat="45.66341" lon="4.63165">
        <ele>446.4</ele>
        <time>2025-04-30T16:17:59Z</time>
      </trkpt>
      <trkpt lat="45.66341" lon="4.63165">
        <ele>446.4</ele>
        <time>2025-04-30T16:18:00Z</time>
      </trkpt>
      <trkpt lat="45.66341" lon="4.63165">
        <ele>446.4</ele>
        <time>2025-04-30T16:18:01Z</time>
      </trkpt>
      <trkpt lat="45.66341" lon="4.63165">
        <ele>446.4</ele>
        <time>2025-04-30T16:18:02Z</time>
      </trkpt>
      <trkpt lat="45.66341" lon="4.63165">
        <ele>446.4</ele>
        <time>2025-04-30T16:18:03Z</time>
      </trkpt>
      <trkpt lat="45.66341" lon="4.63165">
        <ele>446.4</ele>
        <time>2025-04-30T16:18:04Z</time>
      </trkpt>
      <trkpt lat="45.66341" lon="4.63165">
        <ele>446.4</ele>
        <time>2025-04-30T16:18:05Z</time>
      </trkpt>
      <trkpt lat="45.66341" lon="4.63165">
        <ele>446.4</ele>
        <time>2025-04-30T16:18:06Z</time>
      </trkpt>
      <trkpt lat="45.66341" lon="4.63166">
        <ele>446.4</ele>
        <time>2025-04-30T16:18:07Z</time>
      </trkpt>
      <trkpt lat="45.66341" lon="4.63167">
        <ele>446.2</ele>
        <time>2025-04-30T16:18:08Z</time>
      </trkpt>
      <trkpt lat="45.66341" lon="4.63168">
        <ele>446.2</ele>
        <time>2025-04-30T16:18:09Z</time>
      </trkpt>
      <trkpt lat="45.66341" lon="4.63169">
        <ele>446.2</ele>
        <time>2025-04-30T16:18:10Z</time>
      </trkpt>
      <trkpt lat="45.66342" lon="4.63169">
        <ele>446</ele>
        <time>2025-04-30T16:18:11Z</time>
      </trkpt>
      <trkpt lat="45.66342" lon="4.63169">
        <ele>446</ele>
        <time>2025-04-30T16:18:12Z</time>
      </trkpt>
      <trkpt lat="45.66342" lon="4.63169">
        <ele>446</ele>
        <time>2025-04-30T16:18:13Z</time>
      </trkpt>
      <trkpt lat="45.66342" lon="4.63169">
        <ele>445.8</ele>
        <time>2025-04-30T16:18:14Z</time>
      </trkpt>
      <trkpt lat="45.66342" lon="4.63169">
        <ele>445.8</ele>
        <time>2025-04-30T16:18:15Z</time>
      </trkpt>
      <trkpt lat="45.66342" lon="4.63169">
        <ele>445.8</ele>
        <time>2025-04-30T16:18:16Z</time>
      </trkpt>
      <trkpt lat="45.66342" lon="4.63169">
        <ele>445.6</ele>
        <time>2025-04-30T16:18:17Z</time>
      </trkpt>
      <trkpt lat="45.66342" lon="4.63169">
        <ele>445.6</ele>
        <time>2025-04-30T16:18:18Z</time>
      </trkpt>
      <trkpt lat="45.66342" lon="4.63169">
        <ele>445.6</ele>
        <time>2025-04-30T16:18:19Z</time>
      </trkpt>
      <trkpt lat="45.66342" lon="4.63169">
        <ele>445.6</ele>
        <time>2025-04-30T16:18:20Z</time>
      </trkpt>
      <trkpt lat="45.66342" lon="4.63169">
        <ele>445.6</ele>
        <time>2025-04-30T16:18:21Z</time>
      </trkpt>
      <trkpt lat="45.66342" lon="4.63169">
        <ele>445.6</ele>
        <time>2025-04-30T16:18:22Z</time>
      </trkpt>
      <trkpt lat="45.66342" lon="4.63169">
        <ele>445.6</ele>
        <time>2025-04-30T16:18:23Z</time>
      </trkpt>
      <trkpt lat="45.66342" lon="4.63169">
        <ele>445.6</ele>
        <time>2025-04-30T16:18:24Z</time>
      </trkpt>
      <trkpt lat="45.66342" lon="4.63169">
        <ele>445.6</ele>
        <time>2025-04-30T16:18:25Z</time>
      </trkpt>
      <trkpt lat="45.66342" lon="4.63169">
        <ele>445.6</ele>
        <time>2025-04-30T16:18:26Z</time>
      </trkpt>
      <trkpt lat="45.66342" lon="4.63169">
        <ele>445.6</ele>
        <time>2025-04-30T16:18:27Z</time>
      </trkpt>
      <trkpt lat="45.66342" lon="4.63169">
        <ele>445.6</ele>
        <time>2025-04-30T16:18:28Z</time>
      </trkpt>
      <trkpt lat="45.66342" lon="4.63169">
        <ele>445.6</ele>
        <time>2025-04-30T16:18:29Z</time>
      </trkpt>
      <trkpt lat="45.66342" lon="4.6317">
        <ele>445.4</ele>
        <time>2025-04-30T16:18:30Z</time>
      </trkpt>
      <trkpt lat="45.66342" lon="4.6317">
        <ele>445.4</ele>
        <time>2025-04-30T16:18:31Z</time>
      </trkpt>
      <trkpt lat="45.66343" lon="4.63172">
        <ele>445.4</ele>
        <time>2025-04-30T16:18:32Z</time>
      </trkpt>
      <trkpt lat="45.66345" lon="4.63174">
        <ele>445.2</ele>
        <time>2025-04-30T16:18:33Z</time>
      </trkpt>
      <trkpt lat="45.66347" lon="4.63179">
        <ele>445.2</ele>
        <time>2025-04-30T16:18:34Z</time>
      </trkpt>
      <trkpt lat="45.66349" lon="4.63183">
        <ele>445</ele>
        <time>2025-04-30T16:18:35Z</time>
      </trkpt>
      <trkpt lat="45.66351" lon="4.63188">
        <ele>444.6</ele>
        <time>2025-04-30T16:18:36Z</time>
      </trkpt>
      <trkpt lat="45.66353" lon="4.63194">
        <ele>443.8</ele>
        <time>2025-04-30T16:18:37Z</time>
      </trkpt>
      <trkpt lat="45.66354" lon="4.63199">
        <ele>442.8</ele>
        <time>2025-04-30T16:18:38Z</time>
      </trkpt>
      <trkpt lat="45.66355" lon="4.63204">
        <ele>442.4</ele>
        <time>2025-04-30T16:18:39Z</time>
      </trkpt>
      <trkpt lat="45.66356" lon="4.63209">
        <ele>442</ele>
        <time>2025-04-30T16:18:40Z</time>
      </trkpt>
      <trkpt lat="45.66357" lon="4.63212">
        <ele>441.2</ele>
        <time>2025-04-30T16:18:41Z</time>
      </trkpt>
      <trkpt lat="45.66359" lon="4.63216">
        <ele>441</ele>
        <time>2025-04-30T16:18:42Z</time>
      </trkpt>
      <trkpt lat="45.66361" lon="4.63217">
        <ele>440</ele>
        <time>2025-04-30T16:18:43Z</time>
      </trkpt>
      <trkpt lat="45.66363" lon="4.63216">
        <ele>439.4</ele>
        <time>2025-04-30T16:18:44Z</time>
      </trkpt>
      <trkpt lat="45.66364" lon="4.63214">
        <ele>439</ele>
        <time>2025-04-30T16:18:45Z</time>
      </trkpt>
      <trkpt lat="45.66365" lon="4.63209">
        <ele>438.6</ele>
        <time>2025-04-30T16:18:46Z</time>
      </trkpt>
      <trkpt lat="45.66365" lon="4.63205">
        <ele>438.2</ele>
        <time>2025-04-30T16:18:47Z</time>
      </trkpt>
      <trkpt lat="45.66365" lon="4.63201">
        <ele>437.8</ele>
        <time>2025-04-30T16:18:48Z</time>
      </trkpt>
      <trkpt lat="45.66366" lon="4.63197">
        <ele>437.4</ele>
        <time>2025-04-30T16:18:49Z</time>
      </trkpt>
      <trkpt lat="45.66368" lon="4.63193">
        <ele>437.2</ele>
        <time>2025-04-30T16:18:50Z</time>
      </trkpt>
      <trkpt lat="45.66371" lon="4.63189">
        <ele>437</ele>
        <time>2025-04-30T16:18:51Z</time>
      </trkpt>
      <trkpt lat="45.66374" lon="4.63185">
        <ele>436.8</ele>
        <time>2025-04-30T16:18:52Z</time>
      </trkpt>
      <trkpt lat="45.66378" lon="4.63182">
        <ele>436.6</ele>
        <time>2025-04-30T16:18:53Z</time>
      </trkpt>
      <trkpt lat="45.66381" lon="4.63178">
        <ele>436.4</ele>
        <time>2025-04-30T16:18:54Z</time>
      </trkpt>
      <trkpt lat="45.66384" lon="4.63175">
        <ele>436.4</ele>
        <time>2025-04-30T16:18:55Z</time>
      </trkpt>
      <trkpt lat="45.66386" lon="4.63173">
        <ele>436.4</ele>
        <time>2025-04-30T16:18:56Z</time>
      </trkpt>
      <trkpt lat="45.66389" lon="4.6317">
        <ele>436.6</ele>
        <time>2025-04-30T16:18:57Z</time>
      </trkpt>
      <trkpt lat="45.66391" lon="4.63167">
        <ele>437</ele>
        <time>2025-04-30T16:18:58Z</time>
      </trkpt>
      <trkpt lat="45.66394" lon="4.63163">
        <ele>437.4</ele>
        <time>2025-04-30T16:18:59Z</time>
      </trkpt>
      <trkpt lat="45.66396" lon="4.63161">
        <ele>437.8</ele>
        <time>2025-04-30T16:19:00Z</time>
      </trkpt>
      <trkpt lat="45.66399" lon="4.63159">
        <ele>438.6</ele>
        <time>2025-04-30T16:19:01Z</time>
      </trkpt>
      <trkpt lat="45.66402" lon="4.63159">
        <ele>439</ele>
        <time>2025-04-30T16:19:02Z</time>
      </trkpt>
      <trkpt lat="45.66405" lon="4.6316">
        <ele>439.4</ele>
        <time>2025-04-30T16:19:03Z</time>
      </trkpt>
      <trkpt lat="45.66407" lon="4.63163">
        <ele>439.8</ele>
        <time>2025-04-30T16:19:04Z</time>
      </trkpt>
      <trkpt lat="45.66409" lon="4.63166">
        <ele>440.4</ele>
        <time>2025-04-30T16:19:05Z</time>
      </trkpt>
      <trkpt lat="45.66411" lon="4.63169">
        <ele>440.8</ele>
        <time>2025-04-30T16:19:06Z</time>
      </trkpt>
      <trkpt lat="45.66414" lon="4.63172">
        <ele>441.2</ele>
        <time>2025-04-30T16:19:07Z</time>
      </trkpt>
      <trkpt lat="45.66416" lon="4.63175">
        <ele>441.6</ele>
        <time>2025-04-30T16:19:08Z</time>
      </trkpt>
      <trkpt lat="45.66418" lon="4.63177">
        <ele>442</ele>
        <time>2025-04-30T16:19:09Z</time>
      </trkpt>
      <trkpt lat="45.66421" lon="4.63178">
        <ele>442.2</ele>
        <time>2025-04-30T16:19:10Z</time>
      </trkpt>
      <trkpt lat="45.66423" lon="4.63178">
        <ele>442.6</ele>
        <time>2025-04-30T16:19:11Z</time>
      </trkpt>
      <trkpt lat="45.66426" lon="4.63178">
        <ele>443</ele>
        <time>2025-04-30T16:19:12Z</time>
      </trkpt>
      <trkpt lat="45.66428" lon="4.63177">
        <ele>443.4</ele>
        <time>2025-04-30T16:19:13Z</time>
      </trkpt>
      <trkpt lat="45.6643" lon="4.63175">
        <ele>443.8</ele>
        <time>2025-04-30T16:19:14Z</time>
      </trkpt>
      <trkpt lat="45.66431" lon="4.63173">
        <ele>444.2</ele>
        <time>2025-04-30T16:19:15Z</time>
      </trkpt>
      <trkpt lat="45.66432" lon="4.63171">
        <ele>444.6</ele>
        <time>2025-04-30T16:19:16Z</time>
      </trkpt>
      <trkpt lat="45.66434" lon="4.63169">
        <ele>445</ele>
        <time>2025-04-30T16:19:17Z</time>
      </trkpt>
      <trkpt lat="45.66434" lon="4.63168">
        <ele>445.2</ele>
        <time>2025-04-30T16:19:18Z</time>
      </trkpt>
      <trkpt lat="45.66435" lon="4.63166">
        <ele>445.4</ele>
        <time>2025-04-30T16:19:19Z</time>
      </trkpt>
      <trkpt lat="45.66437" lon="4.63163">
        <ele>445.8</ele>
        <time>2025-04-30T16:19:20Z</time>
      </trkpt>
      <trkpt lat="45.66438" lon="4.63161">
        <ele>446</ele>
        <time>2025-04-30T16:19:21Z</time>
      </trkpt>
      <trkpt lat="45.6644" lon="4.63158">
        <ele>446</ele>
        <time>2025-04-30T16:19:22Z</time>
      </trkpt>
      <trkpt lat="45.66442" lon="4.63157">
        <ele>446</ele>
        <time>2025-04-30T16:19:23Z</time>
      </trkpt>
      <trkpt lat="45.66444" lon="4.63155">
        <ele>446.2</ele>
        <time>2025-04-30T16:19:24Z</time>
      </trkpt>
      <trkpt lat="45.66446" lon="4.63154">
        <ele>446.6</ele>
        <time>2025-04-30T16:19:25Z</time>
      </trkpt>
      <trkpt lat="45.66448" lon="4.63154">
        <ele>447</ele>
        <time>2025-04-30T16:19:26Z</time>
      </trkpt>
      <trkpt lat="45.6645" lon="4.63155">
        <ele>447.4</ele>
        <time>2025-04-30T16:19:27Z</time>
      </trkpt>
      <trkpt lat="45.66452" lon="4.63155">
        <ele>447.8</ele>
        <time>2025-04-30T16:19:28Z</time>
      </trkpt>
      <trkpt lat="45.66454" lon="4.63156">
        <ele>448</ele>
        <time>2025-04-30T16:19:29Z</time>
      </trkpt>
      <trkpt lat="45.66456" lon="4.63156">
        <ele>448.4</ele>
        <time>2025-04-30T16:19:30Z</time>
      </trkpt>
      <trkpt lat="45.66458" lon="4.63155">
        <ele>448.8</ele>
        <time>2025-04-30T16:19:31Z</time>
      </trkpt>
      <trkpt lat="45.6646" lon="4.63155">
        <ele>449</ele>
        <time>2025-04-30T16:19:32Z</time>
      </trkpt>
      <trkpt lat="45.66461" lon="4.63155">
        <ele>449.2</ele>
        <time>2025-04-30T16:19:33Z</time>
      </trkpt>
      <trkpt lat="45.66464" lon="4.63155">
        <ele>449.6</ele>
        <time>2025-04-30T16:19:34Z</time>
      </trkpt>
      <trkpt lat="45.66466" lon="4.63155">
        <ele>449.8</ele>
        <time>2025-04-30T16:19:35Z</time>
      </trkpt>
      <trkpt lat="45.66469" lon="4.63155">
        <ele>450</ele>
        <time>2025-04-30T16:19:36Z</time>
      </trkpt>
      <trkpt lat="45.66472" lon="4.63155">
        <ele>450.2</ele>
        <time>2025-04-30T16:19:37Z</time>
      </trkpt>
      <trkpt lat="45.66474" lon="4.63155">
        <ele>450.2</ele>
        <time>2025-04-30T16:19:38Z</time>
      </trkpt>
      <trkpt lat="45.66477" lon="4.63155">
        <ele>450.4</ele>
        <time>2025-04-30T16:19:39Z</time>
      </trkpt>
      <trkpt lat="45.66479" lon="4.63155">
        <ele>450.4</ele>
        <time>2025-04-30T16:19:40Z</time>
      </trkpt>
      <trkpt lat="45.66482" lon="4.63156">
        <ele>450.6</ele>
        <time>2025-04-30T16:19:41Z</time>
      </trkpt>
      <trkpt lat="45.66485" lon="4.63155">
        <ele>450.8</ele>
        <time>2025-04-30T16:19:42Z</time>
      </trkpt>
      <trkpt lat="45.66488" lon="4.63155">
        <ele>450.8</ele>
        <time>2025-04-30T16:19:43Z</time>
      </trkpt>
      <trkpt lat="45.6649" lon="4.63155">
        <ele>451</ele>
        <time>2025-04-30T16:19:44Z</time>
      </trkpt>
      <trkpt lat="45.66493" lon="4.63155">
        <ele>451</ele>
        <time>2025-04-30T16:19:45Z</time>
      </trkpt>
      <trkpt lat="45.66495" lon="4.63156">
        <ele>451.2</ele>
        <time>2025-04-30T16:19:46Z</time>
      </trkpt>
      <trkpt lat="45.66498" lon="4.63156">
        <ele>451.4</ele>
        <time>2025-04-30T16:19:47Z</time>
      </trkpt>
      <trkpt lat="45.665" lon="4.63157">
        <ele>451.8</ele>
        <time>2025-04-30T16:19:48Z</time>
      </trkpt>
      <trkpt lat="45.66503" lon="4.63158">
        <ele>451.8</ele>
        <time>2025-04-30T16:19:49Z</time>
      </trkpt>
      <trkpt lat="45.66505" lon="4.63158">
        <ele>452</ele>
        <time>2025-04-30T16:19:50Z</time>
      </trkpt>
      <trkpt lat="45.66508" lon="4.63159">
        <ele>452.2</ele>
        <time>2025-04-30T16:19:51Z</time>
      </trkpt>
      <trkpt lat="45.66511" lon="4.63159">
        <ele>452.2</ele>
        <time>2025-04-30T16:19:52Z</time>
      </trkpt>
      <trkpt lat="45.66514" lon="4.6316">
        <ele>452.4</ele>
        <time>2025-04-30T16:19:53Z</time>
      </trkpt>
      <trkpt lat="45.66517" lon="4.63161">
        <ele>452.4</ele>
        <time>2025-04-30T16:19:54Z</time>
      </trkpt>
      <trkpt lat="45.6652" lon="4.63161">
        <ele>452.8</ele>
        <time>2025-04-30T16:19:55Z</time>
      </trkpt>
      <trkpt lat="45.66522" lon="4.63162">
        <ele>452.8</ele>
        <time>2025-04-30T16:19:56Z</time>
      </trkpt>
      <trkpt lat="45.66525" lon="4.63162">
        <ele>452.8</ele>
        <time>2025-04-30T16:19:57Z</time>
      </trkpt>
      <trkpt lat="45.66528" lon="4.63162">
        <ele>453</ele>
        <time>2025-04-30T16:19:58Z</time>
      </trkpt>
      <trkpt lat="45.6653" lon="4.63161">
        <ele>453.2</ele>
        <time>2025-04-30T16:19:59Z</time>
      </trkpt>
      <trkpt lat="45.66533" lon="4.63161">
        <ele>453.4</ele>
        <time>2025-04-30T16:20:00Z</time>
      </trkpt>
      <trkpt lat="45.66535" lon="4.6316">
        <ele>453.6</ele>
        <time>2025-04-30T16:20:01Z</time>
      </trkpt>
      <trkpt lat="45.66537" lon="4.6316">
        <ele>453.8</ele>
        <time>2025-04-30T16:20:02Z</time>
      </trkpt>
      <trkpt lat="45.6654" lon="4.6316">
        <ele>454</ele>
        <time>2025-04-30T16:20:03Z</time>
      </trkpt>
      <trkpt lat="45.66542" lon="4.63159">
        <ele>454.2</ele>
        <time>2025-04-30T16:20:04Z</time>
      </trkpt>
      <trkpt lat="45.66545" lon="4.63158">
        <ele>454.2</ele>
        <time>2025-04-30T16:20:05Z</time>
      </trkpt>
      <trkpt lat="45.66547" lon="4.63157">
        <ele>454.4</ele>
        <time>2025-04-30T16:20:06Z</time>
      </trkpt>
      <trkpt lat="45.6655" lon="4.63156">
        <ele>454.4</ele>
        <time>2025-04-30T16:20:07Z</time>
      </trkpt>
      <trkpt lat="45.66552" lon="4.63155">
        <ele>454.6</ele>
        <time>2025-04-30T16:20:08Z</time>
      </trkpt>
      <trkpt lat="45.66554" lon="4.63153">
        <ele>454.8</ele>
        <time>2025-04-30T16:20:09Z</time>
      </trkpt>
      <trkpt lat="45.66557" lon="4.63152">
        <ele>455</ele>
        <time>2025-04-30T16:20:10Z</time>
      </trkpt>
      <trkpt lat="45.6656" lon="4.63151">
        <ele>455.2</ele>
        <time>2025-04-30T16:20:11Z</time>
      </trkpt>
      <trkpt lat="45.66562" lon="4.63149">
        <ele>455.2</ele>
        <time>2025-04-30T16:20:12Z</time>
      </trkpt>
      <trkpt lat="45.66565" lon="4.63148">
        <ele>455.4</ele>
        <time>2025-04-30T16:20:13Z</time>
      </trkpt>
      <trkpt lat="45.66567" lon="4.63148">
        <ele>455.4</ele>
        <time>2025-04-30T16:20:14Z</time>
      </trkpt>
      <trkpt lat="45.66569" lon="4.63147">
        <ele>455.6</ele>
        <time>2025-04-30T16:20:15Z</time>
      </trkpt>
      <trkpt lat="45.66572" lon="4.63146">
        <ele>455.8</ele>
        <time>2025-04-30T16:20:16Z</time>
      </trkpt>
      <trkpt lat="45.66575" lon="4.63145">
        <ele>456</ele>
        <time>2025-04-30T16:20:17Z</time>
      </trkpt>
      <trkpt lat="45.66578" lon="4.63144">
        <ele>456</ele>
        <time>2025-04-30T16:20:18Z</time>
      </trkpt>
      <trkpt lat="45.6658" lon="4.63143">
        <ele>456.2</ele>
        <time>2025-04-30T16:20:19Z</time>
      </trkpt>
      <trkpt lat="45.66582" lon="4.63142">
        <ele>456.4</ele>
        <time>2025-04-30T16:20:20Z</time>
      </trkpt>
      <trkpt lat="45.66584" lon="4.63142">
        <ele>456.6</ele>
        <time>2025-04-30T16:20:21Z</time>
      </trkpt>
      <trkpt lat="45.66586" lon="4.63141">
        <ele>456.8</ele>
        <time>2025-04-30T16:20:22Z</time>
      </trkpt>
      <trkpt lat="45.66589" lon="4.6314">
        <ele>457.2</ele>
        <time>2025-04-30T16:20:23Z</time>
      </trkpt>
      <trkpt lat="45.66591" lon="4.63139">
        <ele>457.2</ele>
        <time>2025-04-30T16:20:24Z</time>
      </trkpt>
      <trkpt lat="45.66594" lon="4.63138">
        <ele>457.4</ele>
        <time>2025-04-30T16:20:25Z</time>
      </trkpt>
      <trkpt lat="45.66597" lon="4.63137">
        <ele>457.8</ele>
        <time>2025-04-30T16:20:26Z</time>
      </trkpt>
      <trkpt lat="45.66599" lon="4.63136">
        <ele>458</ele>
        <time>2025-04-30T16:20:27Z</time>
      </trkpt>
      <trkpt lat="45.66601" lon="4.63135">
        <ele>458.2</ele>
        <time>2025-04-30T16:20:28Z</time>
      </trkpt>
      <trkpt lat="45.66603" lon="4.63134">
        <ele>458.6</ele>
        <time>2025-04-30T16:20:29Z</time>
      </trkpt>
      <trkpt lat="45.66605" lon="4.63133">
        <ele>458.8</ele>
        <time>2025-04-30T16:20:30Z</time>
      </trkpt>
      <trkpt lat="45.66607" lon="4.63132">
        <ele>459</ele>
        <time>2025-04-30T16:20:31Z</time>
      </trkpt>
      <trkpt lat="45.66609" lon="4.63131">
        <ele>459.4</ele>
        <time>2025-04-30T16:20:32Z</time>
      </trkpt>
      <trkpt lat="45.6661" lon="4.6313">
        <ele>459.8</ele>
        <time>2025-04-30T16:20:33Z</time>
      </trkpt>
      <trkpt lat="45.66613" lon="4.63129">
        <ele>460.2</ele>
        <time>2025-04-30T16:20:34Z</time>
      </trkpt>
      <trkpt lat="45.66615" lon="4.63128">
        <ele>460.6</ele>
        <time>2025-04-30T16:20:35Z</time>
      </trkpt>
      <trkpt lat="45.66618" lon="4.63127">
        <ele>460.8</ele>
        <time>2025-04-30T16:20:36Z</time>
      </trkpt>
      <trkpt lat="45.6662" lon="4.63127">
        <ele>461</ele>
        <time>2025-04-30T16:20:37Z</time>
      </trkpt>
      <trkpt lat="45.66622" lon="4.63126">
        <ele>461.4</ele>
        <time>2025-04-30T16:20:38Z</time>
      </trkpt>
      <trkpt lat="45.66625" lon="4.63125">
        <ele>461.6</ele>
        <time>2025-04-30T16:20:39Z</time>
      </trkpt>
      <trkpt lat="45.66627" lon="4.63124">
        <ele>461.8</ele>
        <time>2025-04-30T16:20:40Z</time>
      </trkpt>
      <trkpt lat="45.66629" lon="4.63122">
        <ele>462</ele>
        <time>2025-04-30T16:20:41Z</time>
      </trkpt>
      <trkpt lat="45.66632" lon="4.63121">
        <ele>462.4</ele>
        <time>2025-04-30T16:20:42Z</time>
      </trkpt>
      <trkpt lat="45.66634" lon="4.6312">
        <ele>462.6</ele>
        <time>2025-04-30T16:20:43Z</time>
      </trkpt>
      <trkpt lat="45.66636" lon="4.63119">
        <ele>462.6</ele>
        <time>2025-04-30T16:20:44Z</time>
      </trkpt>
      <trkpt lat="45.66638" lon="4.63118">
        <ele>462.8</ele>
        <time>2025-04-30T16:20:45Z</time>
      </trkpt>
      <trkpt lat="45.66641" lon="4.63116">
        <ele>463</ele>
        <time>2025-04-30T16:20:46Z</time>
      </trkpt>
      <trkpt lat="45.66643" lon="4.63114">
        <ele>463.2</ele>
        <time>2025-04-30T16:20:47Z</time>
      </trkpt>
      <trkpt lat="45.66645" lon="4.63112">
        <ele>463.4</ele>
        <time>2025-04-30T16:20:48Z</time>
      </trkpt>
      <trkpt lat="45.66648" lon="4.6311">
        <ele>463.6</ele>
        <time>2025-04-30T16:20:49Z</time>
      </trkpt>
      <trkpt lat="45.66651" lon="4.63109">
        <ele>463.6</ele>
        <time>2025-04-30T16:20:50Z</time>
      </trkpt>
      <trkpt lat="45.66653" lon="4.63107">
        <ele>463.6</ele>
        <time>2025-04-30T16:20:51Z</time>
      </trkpt>
      <trkpt lat="45.66655" lon="4.63105">
        <ele>463.8</ele>
        <time>2025-04-30T16:20:52Z</time>
      </trkpt>
      <trkpt lat="45.66658" lon="4.63104">
        <ele>463.8</ele>
        <time>2025-04-30T16:20:53Z</time>
      </trkpt>
      <trkpt lat="45.6666" lon="4.63102">
        <ele>464.2</ele>
        <time>2025-04-30T16:20:54Z</time>
      </trkpt>
      <trkpt lat="45.66663" lon="4.63101">
        <ele>464.2</ele>
        <time>2025-04-30T16:20:55Z</time>
      </trkpt>
      <trkpt lat="45.66665" lon="4.63101">
        <ele>464.4</ele>
        <time>2025-04-30T16:20:56Z</time>
      </trkpt>
      <trkpt lat="45.66666" lon="4.631">
        <ele>464.8</ele>
        <time>2025-04-30T16:20:57Z</time>
      </trkpt>
      <trkpt lat="45.66668" lon="4.63099">
        <ele>465.2</ele>
        <time>2025-04-30T16:20:58Z</time>
      </trkpt>
      <trkpt lat="45.6667" lon="4.63099">
        <ele>465.4</ele>
        <time>2025-04-30T16:20:59Z</time>
      </trkpt>
      <trkpt lat="45.66672" lon="4.63099">
        <ele>465.8</ele>
        <time>2025-04-30T16:21:00Z</time>
      </trkpt>
      <trkpt lat="45.66674" lon="4.63099">
        <ele>466</ele>
        <time>2025-04-30T16:21:01Z</time>
      </trkpt>
      <trkpt lat="45.66676" lon="4.63099">
        <ele>466.2</ele>
        <time>2025-04-30T16:21:02Z</time>
      </trkpt>
      <trkpt lat="45.66678" lon="4.63099">
        <ele>466.4</ele>
        <time>2025-04-30T16:21:03Z</time>
      </trkpt>
      <trkpt lat="45.6668" lon="4.631">
        <ele>466.6</ele>
        <time>2025-04-30T16:21:04Z</time>
      </trkpt>
      <trkpt lat="45.66682" lon="4.631">
        <ele>467</ele>
        <time>2025-04-30T16:21:05Z</time>
      </trkpt>
      <trkpt lat="45.66683" lon="4.631">
        <ele>467.2</ele>
        <time>2025-04-30T16:21:06Z</time>
      </trkpt>
      <trkpt lat="45.66686" lon="4.631">
        <ele>467.6</ele>
        <time>2025-04-30T16:21:07Z</time>
      </trkpt>
      <trkpt lat="45.66688" lon="4.631">
        <ele>467.8</ele>
        <time>2025-04-30T16:21:08Z</time>
      </trkpt>
      <trkpt lat="45.6669" lon="4.631">
        <ele>468.2</ele>
        <time>2025-04-30T16:21:09Z</time>
      </trkpt>
      <trkpt lat="45.66692" lon="4.631">
        <ele>468.4</ele>
        <time>2025-04-30T16:21:10Z</time>
      </trkpt>
      <trkpt lat="45.66695" lon="4.631">
        <ele>468.8</ele>
        <time>2025-04-30T16:21:11Z</time>
      </trkpt>
      <trkpt lat="45.66697" lon="4.631">
        <ele>469.2</ele>
        <time>2025-04-30T16:21:12Z</time>
      </trkpt>
      <trkpt lat="45.66699" lon="4.63101">
        <ele>469.4</ele>
        <time>2025-04-30T16:21:13Z</time>
      </trkpt>
      <trkpt lat="45.66701" lon="4.63101">
        <ele>469.8</ele>
        <time>2025-04-30T16:21:14Z</time>
      </trkpt>
      <trkpt lat="45.66703" lon="4.63102">
        <ele>470.2</ele>
        <time>2025-04-30T16:21:15Z</time>
      </trkpt>
      <trkpt lat="45.66705" lon="4.63102">
        <ele>470.6</ele>
        <time>2025-04-30T16:21:16Z</time>
      </trkpt>
      <trkpt lat="45.66707" lon="4.63103">
        <ele>470.8</ele>
        <time>2025-04-30T16:21:17Z</time>
      </trkpt>
      <trkpt lat="45.66709" lon="4.63104">
        <ele>471</ele>
        <time>2025-04-30T16:21:18Z</time>
      </trkpt>
      <trkpt lat="45.66712" lon="4.63103">
        <ele>471</ele>
        <time>2025-04-30T16:21:19Z</time>
      </trkpt>
      <trkpt lat="45.66714" lon="4.63103">
        <ele>471.4</ele>
        <time>2025-04-30T16:21:20Z</time>
      </trkpt>
      <trkpt lat="45.66716" lon="4.63102">
        <ele>471.6</ele>
        <time>2025-04-30T16:21:21Z</time>
      </trkpt>
      <trkpt lat="45.66718" lon="4.63102">
        <ele>471.8</ele>
        <time>2025-04-30T16:21:22Z</time>
      </trkpt>
      <trkpt lat="45.66721" lon="4.63101">
        <ele>472.2</ele>
        <time>2025-04-30T16:21:23Z</time>
      </trkpt>
      <trkpt lat="45.66723" lon="4.631">
        <ele>472.4</ele>
        <time>2025-04-30T16:21:24Z</time>
      </trkpt>
      <trkpt lat="45.66725" lon="4.63099">
        <ele>472.4</ele>
        <time>2025-04-30T16:21:25Z</time>
      </trkpt>
      <trkpt lat="45.66726" lon="4.63097">
        <ele>472.6</ele>
        <time>2025-04-30T16:21:26Z</time>
      </trkpt>
      <trkpt lat="45.66728" lon="4.63096">
        <ele>473</ele>
        <time>2025-04-30T16:21:27Z</time>
      </trkpt>
      <trkpt lat="45.6673" lon="4.63094">
        <ele>473.2</ele>
        <time>2025-04-30T16:21:28Z</time>
      </trkpt>
      <trkpt lat="45.66733" lon="4.63092">
        <ele>473.6</ele>
        <time>2025-04-30T16:21:29Z</time>
      </trkpt>
      <trkpt lat="45.66735" lon="4.6309">
        <ele>473.8</ele>
        <time>2025-04-30T16:21:30Z</time>
      </trkpt>
      <trkpt lat="45.66737" lon="4.63089">
        <ele>474</ele>
        <time>2025-04-30T16:21:31Z</time>
      </trkpt>
      <trkpt lat="45.66739" lon="4.63087">
        <ele>474.2</ele>
        <time>2025-04-30T16:21:32Z</time>
      </trkpt>
      <trkpt lat="45.66741" lon="4.63086">
        <ele>474.2</ele>
        <time>2025-04-30T16:21:33Z</time>
      </trkpt>
      <trkpt lat="45.66743" lon="4.63085">
        <ele>474.4</ele>
        <time>2025-04-30T16:21:34Z</time>
      </trkpt>
      <trkpt lat="45.66745" lon="4.63083">
        <ele>474.6</ele>
        <time>2025-04-30T16:21:35Z</time>
      </trkpt>
      <trkpt lat="45.66747" lon="4.63082">
        <ele>474.8</ele>
        <time>2025-04-30T16:21:36Z</time>
      </trkpt>
      <trkpt lat="45.66749" lon="4.6308">
        <ele>475</ele>
        <time>2025-04-30T16:21:37Z</time>
      </trkpt>
      <trkpt lat="45.66751" lon="4.63079">
        <ele>475.2</ele>
        <time>2025-04-30T16:21:38Z</time>
      </trkpt>
      <trkpt lat="45.66753" lon="4.63077">
        <ele>475.2</ele>
        <time>2025-04-30T16:21:39Z</time>
      </trkpt>
      <trkpt lat="45.66756" lon="4.63076">
        <ele>475.4</ele>
        <time>2025-04-30T16:21:40Z</time>
      </trkpt>
      <trkpt lat="45.66759" lon="4.63075">
        <ele>475.6</ele>
        <time>2025-04-30T16:21:41Z</time>
      </trkpt>
      <trkpt lat="45.6676" lon="4.63074">
        <ele>475.6</ele>
        <time>2025-04-30T16:21:42Z</time>
      </trkpt>
      <trkpt lat="45.66763" lon="4.63073">
        <ele>475.8</ele>
        <time>2025-04-30T16:21:43Z</time>
      </trkpt>
      <trkpt lat="45.66765" lon="4.63071">
        <ele>476</ele>
        <time>2025-04-30T16:21:44Z</time>
      </trkpt>
      <trkpt lat="45.66767" lon="4.6307">
        <ele>476.2</ele>
        <time>2025-04-30T16:21:45Z</time>
      </trkpt>
      <trkpt lat="45.66769" lon="4.6307">
        <ele>476.4</ele>
        <time>2025-04-30T16:21:46Z</time>
      </trkpt>
      <trkpt lat="45.66771" lon="4.6307">
        <ele>476.6</ele>
        <time>2025-04-30T16:21:47Z</time>
      </trkpt>
      <trkpt lat="45.66773" lon="4.63069">
        <ele>476.8</ele>
        <time>2025-04-30T16:21:48Z</time>
      </trkpt>
      <trkpt lat="45.66776" lon="4.63069">
        <ele>477.2</ele>
        <time>2025-04-30T16:21:49Z</time>
      </trkpt>
      <trkpt lat="45.66779" lon="4.63069">
        <ele>477.2</ele>
        <time>2025-04-30T16:21:50Z</time>
      </trkpt>
      <trkpt lat="45.66782" lon="4.63069">
        <ele>477.2</ele>
        <time>2025-04-30T16:21:51Z</time>
      </trkpt>
      <trkpt lat="45.66786" lon="4.63069">
        <ele>477.2</ele>
        <time>2025-04-30T16:21:52Z</time>
      </trkpt>
      <trkpt lat="45.6679" lon="4.63069">
        <ele>477.2</ele>
        <time>2025-04-30T16:21:53Z</time>
      </trkpt>
      <trkpt lat="45.66793" lon="4.63069">
        <ele>477</ele>
        <time>2025-04-30T16:21:54Z</time>
      </trkpt>
      <trkpt lat="45.66797" lon="4.63068">
        <ele>476.8</ele>
        <time>2025-04-30T16:21:55Z</time>
      </trkpt>
      <trkpt lat="45.66801" lon="4.63068">
        <ele>476.6</ele>
        <time>2025-04-30T16:21:56Z</time>
      </trkpt>
      <trkpt lat="45.66804" lon="4.63068">
        <ele>476.6</ele>
        <time>2025-04-30T16:21:57Z</time>
      </trkpt>
      <trkpt lat="45.66808" lon="4.63068">
        <ele>476.6</ele>
        <time>2025-04-30T16:21:58Z</time>
      </trkpt>
      <trkpt lat="45.66811" lon="4.63068">
        <ele>476.6</ele>
        <time>2025-04-30T16:21:59Z</time>
      </trkpt>
      <trkpt lat="45.66815" lon="4.63069">
        <ele>476.4</ele>
        <time>2025-04-30T16:22:00Z</time>
      </trkpt>
      <trkpt lat="45.66818" lon="4.63069">
        <ele>476.4</ele>
        <time>2025-04-30T16:22:01Z</time>
      </trkpt>
      <trkpt lat="45.66822" lon="4.6307">
        <ele>476.4</ele>
        <time>2025-04-30T16:22:02Z</time>
      </trkpt>
      <trkpt lat="45.66826" lon="4.6307">
        <ele>476.4</ele>
        <time>2025-04-30T16:22:03Z</time>
      </trkpt>
      <trkpt lat="45.6683" lon="4.6307">
        <ele>476.2</ele>
        <time>2025-04-30T16:22:04Z</time>
      </trkpt>
      <trkpt lat="45.66834" lon="4.6307">
        <ele>476.2</ele>
        <time>2025-04-30T16:22:05Z</time>
      </trkpt>
      <trkpt lat="45.66837" lon="4.63071">
        <ele>476</ele>
        <time>2025-04-30T16:22:06Z</time>
      </trkpt>
      <trkpt lat="45.66841" lon="4.63071">
        <ele>476</ele>
        <time>2025-04-30T16:22:07Z</time>
      </trkpt>
      <trkpt lat="45.66845" lon="4.63071">
        <ele>475.8</ele>
        <time>2025-04-30T16:22:08Z</time>
      </trkpt>
      <trkpt lat="45.66848" lon="4.6307">
        <ele>475.8</ele>
        <time>2025-04-30T16:22:09Z</time>
      </trkpt>
      <trkpt lat="45.66852" lon="4.6307">
        <ele>475.6</ele>
        <time>2025-04-30T16:22:10Z</time>
      </trkpt>
      <trkpt lat="45.66857" lon="4.63069">
        <ele>475.6</ele>
        <time>2025-04-30T16:22:11Z</time>
      </trkpt>
      <trkpt lat="45.66861" lon="4.63068">
        <ele>475.4</ele>
        <time>2025-04-30T16:22:12Z</time>
      </trkpt>
      <trkpt lat="45.66866" lon="4.63067">
        <ele>475.2</ele>
        <time>2025-04-30T16:22:13Z</time>
      </trkpt>
      <trkpt lat="45.6687" lon="4.63067">
        <ele>475</ele>
        <time>2025-04-30T16:22:14Z</time>
      </trkpt>
      <trkpt lat="45.66873" lon="4.63066">
        <ele>475</ele>
        <time>2025-04-30T16:22:15Z</time>
      </trkpt>
      <trkpt lat="45.66877" lon="4.63063">
        <ele>474.8</ele>
        <time>2025-04-30T16:22:16Z</time>
      </trkpt>
      <trkpt lat="45.66881" lon="4.63061">
        <ele>474.8</ele>
        <time>2025-04-30T16:22:17Z</time>
      </trkpt>
      <trkpt lat="45.66884" lon="4.63059">
        <ele>474.8</ele>
        <time>2025-04-30T16:22:18Z</time>
      </trkpt>
      <trkpt lat="45.66889" lon="4.63056">
        <ele>474.8</ele>
        <time>2025-04-30T16:22:19Z</time>
      </trkpt>
      <trkpt lat="45.66892" lon="4.63054">
        <ele>474.6</ele>
        <time>2025-04-30T16:22:20Z</time>
      </trkpt>
      <trkpt lat="45.66895" lon="4.63051">
        <ele>474.6</ele>
        <time>2025-04-30T16:22:21Z</time>
      </trkpt>
      <trkpt lat="45.66896" lon="4.6305">
        <ele>474.6</ele>
        <time>2025-04-30T16:22:22Z</time>
      </trkpt>
      <trkpt lat="45.66896" lon="4.6305">
        <ele>474.6</ele>
        <time>2025-04-30T16:22:23Z</time>
      </trkpt>
      <trkpt lat="45.66896" lon="4.6305">
        <ele>474.6</ele>
        <time>2025-04-30T16:22:24Z</time>
      </trkpt>
      <trkpt lat="45.66896" lon="4.6305">
        <ele>474.6</ele>
        <time>2025-04-30T16:22:25Z</time>
      </trkpt>
      <trkpt lat="45.66896" lon="4.6305">
        <ele>474.6</ele>
        <time>2025-04-30T16:22:26Z</time>
      </trkpt>
      <trkpt lat="45.66896" lon="4.6305">
        <ele>474.6</ele>
        <time>2025-04-30T16:22:27Z</time>
      </trkpt>
      <trkpt lat="45.66896" lon="4.6305">
        <ele>474.6</ele>
        <time>2025-04-30T16:22:28Z</time>
      </trkpt>
      <trkpt lat="45.66896" lon="4.6305">
        <ele>474.6</ele>
        <time>2025-04-30T16:22:29Z</time>
      </trkpt>
      <trkpt lat="45.66897" lon="4.6305">
        <ele>474.6</ele>
        <time>2025-04-30T16:22:30Z</time>
      </trkpt>
      <trkpt lat="45.66897" lon="4.63049">
        <ele>474.6</ele>
        <time>2025-04-30T16:22:31Z</time>
      </trkpt>
      <trkpt lat="45.66899" lon="4.63049">
        <ele>474.6</ele>
        <time>2025-04-30T16:22:32Z</time>
      </trkpt>
      <trkpt lat="45.66902" lon="4.63048">
        <ele>474.4</ele>
        <time>2025-04-30T16:22:33Z</time>
      </trkpt>
      <trkpt lat="45.66904" lon="4.63048">
        <ele>474.4</ele>
        <time>2025-04-30T16:22:34Z</time>
      </trkpt>
      <trkpt lat="45.66906" lon="4.63048">
        <ele>474.4</ele>
        <time>2025-04-30T16:22:35Z</time>
      </trkpt>
      <trkpt lat="45.66906" lon="4.63048">
        <ele>474.2</ele>
        <time>2025-04-30T16:22:36Z</time>
      </trkpt>
      <trkpt lat="45.66906" lon="4.63048">
        <ele>474</ele>
        <time>2025-04-30T16:22:37Z</time>
      </trkpt>
      <trkpt lat="45.66906" lon="4.63048">
        <ele>473.8</ele>
        <time>2025-04-30T16:22:38Z</time>
      </trkpt>
      <trkpt lat="45.66906" lon="4.63048">
        <ele>473.8</ele>
        <time>2025-04-30T16:22:39Z</time>
      </trkpt>
      <trkpt lat="45.66906" lon="4.63048">
        <ele>473.6</ele>
        <time>2025-04-30T16:22:40Z</time>
      </trkpt>
      <trkpt lat="45.66906" lon="4.63048">
        <ele>473.4</ele>
        <time>2025-04-30T16:22:41Z</time>
      </trkpt>
      <trkpt lat="45.66906" lon="4.63048">
        <ele>473.2</ele>
        <time>2025-04-30T16:22:42Z</time>
      </trkpt>
      <trkpt lat="45.66906" lon="4.63048">
        <ele>473.2</ele>
        <time>2025-04-30T16:22:43Z</time>
      </trkpt>
      <trkpt lat="45.66906" lon="4.63048">
        <ele>473</ele>
        <time>2025-04-30T16:22:44Z</time>
      </trkpt>
      <trkpt lat="45.66906" lon="4.63048">
        <ele>473</ele>
        <time>2025-04-30T16:22:45Z</time>
      </trkpt>
      <trkpt lat="45.66906" lon="4.63048">
        <ele>473</ele>
        <time>2025-04-30T16:22:46Z</time>
      </trkpt>
      <trkpt lat="45.66906" lon="4.63048">
        <ele>473</ele>
        <time>2025-04-30T16:22:47Z</time>
      </trkpt>
      <trkpt lat="45.66906" lon="4.63048">
        <ele>473</ele>
        <time>2025-04-30T16:22:48Z</time>
      </trkpt>
      <trkpt lat="45.66906" lon="4.63048">
        <ele>473</ele>
        <time>2025-04-30T16:22:49Z</time>
      </trkpt>
      <trkpt lat="45.66906" lon="4.63048">
        <ele>473</ele>
        <time>2025-04-30T16:22:50Z</time>
      </trkpt>
      <trkpt lat="45.66906" lon="4.63048">
        <ele>472.8</ele>
        <time>2025-04-30T16:22:51Z</time>
      </trkpt>
      <trkpt lat="45.66906" lon="4.63048">
        <ele>472.8</ele>
        <time>2025-04-30T16:22:52Z</time>
      </trkpt>
      <trkpt lat="45.66906" lon="4.63048">
        <ele>472.8</ele>
        <time>2025-04-30T16:22:53Z</time>
      </trkpt>
      <trkpt lat="45.66906" lon="4.63048">
        <ele>472.8</ele>
        <time>2025-04-30T16:22:54Z</time>
      </trkpt>
      <trkpt lat="45.66906" lon="4.63048">
        <ele>472.8</ele>
        <time>2025-04-30T16:22:55Z</time>
      </trkpt>
      <trkpt lat="45.66906" lon="4.63048">
        <ele>472.8</ele>
        <time>2025-04-30T16:22:56Z</time>
      </trkpt>
      <trkpt lat="45.66906" lon="4.63048">
        <ele>472.8</ele>
        <time>2025-04-30T16:22:57Z</time>
      </trkpt>
      <trkpt lat="45.66906" lon="4.63048">
        <ele>472.8</ele>
        <time>2025-04-30T16:22:58Z</time>
      </trkpt>
      <trkpt lat="45.66906" lon="4.63048">
        <ele>472.8</ele>
        <time>2025-04-30T16:22:59Z</time>
      </trkpt>
      <trkpt lat="45.66906" lon="4.63048">
        <ele>472.8</ele>
        <time>2025-04-30T16:23:00Z</time>
      </trkpt>
      <trkpt lat="45.66906" lon="4.63048">
        <ele>472.8</ele>
        <time>2025-04-30T16:23:01Z</time>
      </trkpt>
      <trkpt lat="45.66906" lon="4.63048">
        <ele>472.8</ele>
        <time>2025-04-30T16:23:02Z</time>
      </trkpt>
      <trkpt lat="45.66906" lon="4.63048">
        <ele>472.8</ele>
        <time>2025-04-30T16:23:03Z</time>
      </trkpt>
      <trkpt lat="45.66906" lon="4.63048">
        <ele>472.6</ele>
        <time>2025-04-30T16:23:04Z</time>
      </trkpt>
      <trkpt lat="45.66906" lon="4.63048">
        <ele>472.6</ele>
        <time>2025-04-30T16:23:05Z</time>
      </trkpt>
      <trkpt lat="45.66906" lon="4.63048">
        <ele>472.6</ele>
        <time>2025-04-30T16:23:06Z</time>
      </trkpt>
      <trkpt lat="45.66906" lon="4.63048">
        <ele>472.6</ele>
        <time>2025-04-30T16:23:07Z</time>
      </trkpt>
      <trkpt lat="45.66906" lon="4.63048">
        <ele>472.6</ele>
        <time>2025-04-30T16:23:08Z</time>
      </trkpt>
      <trkpt lat="45.66906" lon="4.63048">
        <ele>472.6</ele>
        <time>2025-04-30T16:23:09Z</time>
      </trkpt>
      <trkpt lat="45.66906" lon="4.63048">
        <ele>472.6</ele>
        <time>2025-04-30T16:23:10Z</time>
      </trkpt>
      <trkpt lat="45.66906" lon="4.63048">
        <ele>472.6</ele>
        <time>2025-04-30T16:23:11Z</time>
      </trkpt>
      <trkpt lat="45.66906" lon="4.63048">
        <ele>472.6</ele>
        <time>2025-04-30T16:23:12Z</time>
      </trkpt>
      <trkpt lat="45.66906" lon="4.63048">
        <ele>472.6</ele>
        <time>2025-04-30T16:23:13Z</time>
      </trkpt>
      <trkpt lat="45.66906" lon="4.63048">
        <ele>472.6</ele>
        <time>2025-04-30T16:23:14Z</time>
      </trkpt>
      <trkpt lat="45.66906" lon="4.63048">
        <ele>472.6</ele>
        <time>2025-04-30T16:23:15Z</time>
      </trkpt>
      <trkpt lat="45.66906" lon="4.63048">
        <ele>472.6</ele>
        <time>2025-04-30T16:23:16Z</time>
      </trkpt>
      <trkpt lat="45.66906" lon="4.63048">
        <ele>472.4</ele>
        <time>2025-04-30T16:23:17Z</time>
      </trkpt>
      <trkpt lat="45.66906" lon="4.63048">
        <ele>472.4</ele>
        <time>2025-04-30T16:23:18Z</time>
      </trkpt>
      <trkpt lat="45.66906" lon="4.63048">
        <ele>472.4</ele>
        <time>2025-04-30T16:23:19Z</time>
      </trkpt>
      <trkpt lat="45.66906" lon="4.63048">
        <ele>472.4</ele>
        <time>2025-04-30T16:23:20Z</time>
      </trkpt>
      <trkpt lat="45.66906" lon="4.63048">
        <ele>472.4</ele>
        <time>2025-04-30T16:23:21Z</time>
      </trkpt>
      <trkpt lat="45.66906" lon="4.63048">
        <ele>472.4</ele>
        <time>2025-04-30T16:23:22Z</time>
      </trkpt>
      <trkpt lat="45.66906" lon="4.63048">
        <ele>472.4</ele>
        <time>2025-04-30T16:23:23Z</time>
      </trkpt>
      <trkpt lat="45.66906" lon="4.63048">
        <ele>472.4</ele>
        <time>2025-04-30T16:23:24Z</time>
      </trkpt>
      <trkpt lat="45.66906" lon="4.63048">
        <ele>472.4</ele>
        <time>2025-04-30T16:23:25Z</time>
      </trkpt>
      <trkpt lat="45.66906" lon="4.63048">
        <ele>472.4</ele>
        <time>2025-04-30T16:23:26Z</time>
      </trkpt>
      <trkpt lat="45.66906" lon="4.63048">
        <ele>472.4</ele>
        <time>2025-04-30T16:23:27Z</time>
      </trkpt>
      <trkpt lat="45.66906" lon="4.63048">
        <ele>472.4</ele>
        <time>2025-04-30T16:23:28Z</time>
      </trkpt>
      <trkpt lat="45.66906" lon="4.63048">
        <ele>472.4</ele>
        <time>2025-04-30T16:23:29Z</time>
      </trkpt>
      <trkpt lat="45.66906" lon="4.63048">
        <ele>472.4</ele>
        <time>2025-04-30T16:23:30Z</time>
      </trkpt>
      <trkpt lat="45.66906" lon="4.63048">
        <ele>472.4</ele>
        <time>2025-04-30T16:23:31Z</time>
      </trkpt>
      <trkpt lat="45.66906" lon="4.63048">
        <ele>472.4</ele>
        <time>2025-04-30T16:23:32Z</time>
      </trkpt>
      <trkpt lat="45.66906" lon="4.63048">
        <ele>472.4</ele>
        <time>2025-04-30T16:23:33Z</time>
      </trkpt>
      <trkpt lat="45.66906" lon="4.63048">
        <ele>472.4</ele>
        <time>2025-04-30T16:23:34Z</time>
      </trkpt>
      <trkpt lat="45.66906" lon="4.63048">
        <ele>472.4</ele>
        <time>2025-04-30T16:23:35Z</time>
      </trkpt>
      <trkpt lat="45.66906" lon="4.63048">
        <ele>472.4</ele>
        <time>2025-04-30T16:23:36Z</time>
      </trkpt>
      <trkpt lat="45.66906" lon="4.63048">
        <ele>472.4</ele>
        <time>2025-04-30T16:23:37Z</time>
      </trkpt>
      <trkpt lat="45.66906" lon="4.63048">
        <ele>472.4</ele>
        <time>2025-04-30T16:23:38Z</time>
      </trkpt>
      <trkpt lat="45.66906" lon="4.63048">
        <ele>472.4</ele>
        <time>2025-04-30T16:23:39Z</time>
      </trkpt>
      <trkpt lat="45.66906" lon="4.63048">
        <ele>472.4</ele>
        <time>2025-04-30T16:23:40Z</time>
      </trkpt>
      <trkpt lat="45.66906" lon="4.63048">
        <ele>472.4</ele>
        <time>2025-04-30T16:23:41Z</time>
      </trkpt>
      <trkpt lat="45.66906" lon="4.63048">
        <ele>472.4</ele>
        <time>2025-04-30T16:23:42Z</time>
      </trkpt>
      <trkpt lat="45.66906" lon="4.63048">
        <ele>472.4</ele>
        <time>2025-04-30T16:23:43Z</time>
      </trkpt>
      <trkpt lat="45.66906" lon="4.63048">
        <ele>472.4</ele>
        <time>2025-04-30T16:23:44Z</time>
      </trkpt>
      <trkpt lat="45.66906" lon="4.63048">
        <ele>472.4</ele>
        <time>2025-04-30T16:23:45Z</time>
      </trkpt>
      <trkpt lat="45.66906" lon="4.63048">
        <ele>472.4</ele>
        <time>2025-04-30T16:23:46Z</time>
      </trkpt>
      <trkpt lat="45.66906" lon="4.63048">
        <ele>472.4</ele>
        <time>2025-04-30T16:23:47Z</time>
      </trkpt>
      <trkpt lat="45.66906" lon="4.63048">
        <ele>472.4</ele>
        <time>2025-04-30T16:23:48Z</time>
      </trkpt>
      <trkpt lat="45.66906" lon="4.63048">
        <ele>472.4</ele>
        <time>2025-04-30T16:23:49Z</time>
      </trkpt>
      <trkpt lat="45.66906" lon="4.63048">
        <ele>472.4</ele>
        <time>2025-04-30T16:23:50Z</time>
      </trkpt>
      <trkpt lat="45.66906" lon="4.63048">
        <ele>472.4</ele>
        <time>2025-04-30T16:23:51Z</time>
      </trkpt>
      <trkpt lat="45.66906" lon="4.63048">
        <ele>472.4</ele>
        <time>2025-04-30T16:23:52Z</time>
      </trkpt>
      <trkpt lat="45.66906" lon="4.63048">
        <ele>472.4</ele>
        <time>2025-04-30T16:23:53Z</time>
      </trkpt>
      <trkpt lat="45.66906" lon="4.63048">
        <ele>472.6</ele>
        <time>2025-04-30T16:23:54Z</time>
      </trkpt>
      <trkpt lat="45.66906" lon="4.63048">
        <ele>472.8</ele>
        <time>2025-04-30T16:23:55Z</time>
      </trkpt>
      <trkpt lat="45.66906" lon="4.63048">
        <ele>473</ele>
        <time>2025-04-30T16:23:56Z</time>
      </trkpt>
      <trkpt lat="45.66906" lon="4.63048">
        <ele>473</ele>
        <time>2025-04-30T16:23:57Z</time>
      </trkpt>
      <trkpt lat="45.66906" lon="4.63048">
        <ele>473</ele>
        <time>2025-04-30T16:23:58Z</time>
      </trkpt>
      <trkpt lat="45.66906" lon="4.63048">
        <ele>473</ele>
        <time>2025-04-30T16:23:59Z</time>
      </trkpt>
      <trkpt lat="45.66906" lon="4.63048">
        <ele>473</ele>
        <time>2025-04-30T16:24:00Z</time>
      </trkpt>
      <trkpt lat="45.66906" lon="4.63048">
        <ele>473</ele>
        <time>2025-04-30T16:24:01Z</time>
      </trkpt>
      <trkpt lat="45.66906" lon="4.63048">
        <ele>473</ele>
        <time>2025-04-30T16:24:02Z</time>
      </trkpt>
      <trkpt lat="45.66906" lon="4.63048">
        <ele>473</ele>
        <time>2025-04-30T16:24:03Z</time>
      </trkpt>
      <trkpt lat="45.66906" lon="4.63048">
        <ele>473.2</ele>
        <time>2025-04-30T16:24:04Z</time>
      </trkpt>
      <trkpt lat="45.66906" lon="4.63048">
        <ele>473.2</ele>
        <time>2025-04-30T16:24:05Z</time>
      </trkpt>
      <trkpt lat="45.66906" lon="4.63048">
        <ele>473.2</ele>
        <time>2025-04-30T16:24:06Z</time>
      </trkpt>
      <trkpt lat="45.66906" lon="4.63048">
        <ele>473.2</ele>
        <time>2025-04-30T16:24:07Z</time>
      </trkpt>
      <trkpt lat="45.66906" lon="4.63048">
        <ele>473.2</ele>
        <time>2025-04-30T16:24:08Z</time>
      </trkpt>
      <trkpt lat="45.66906" lon="4.63049">
        <ele>473.2</ele>
        <time>2025-04-30T16:24:09Z</time>
      </trkpt>
      <trkpt lat="45.66906" lon="4.6305">
        <ele>473.2</ele>
        <time>2025-04-30T16:24:10Z</time>
      </trkpt>
      <trkpt lat="45.66907" lon="4.63052">
        <ele>473.2</ele>
        <time>2025-04-30T16:24:11Z</time>
      </trkpt>
      <trkpt lat="45.66908" lon="4.63055">
        <ele>473.2</ele>
        <time>2025-04-30T16:24:12Z</time>
      </trkpt>
      <trkpt lat="45.66909" lon="4.63059">
        <ele>473</ele>
        <time>2025-04-30T16:24:13Z</time>
      </trkpt>
      <trkpt lat="45.66911" lon="4.63063">
        <ele>473</ele>
        <time>2025-04-30T16:24:14Z</time>
      </trkpt>
      <trkpt lat="45.66913" lon="4.63068">
        <ele>472.8</ele>
        <time>2025-04-30T16:24:15Z</time>
      </trkpt>
      <trkpt lat="45.66915" lon="4.63074">
        <ele>472.4</ele>
        <time>2025-04-30T16:24:16Z</time>
      </trkpt>
      <trkpt lat="45.66917" lon="4.6308">
        <ele>472</ele>
        <time>2025-04-30T16:24:17Z</time>
      </trkpt>
      <trkpt lat="45.6692" lon="4.63086">
        <ele>471.2</ele>
        <time>2025-04-30T16:24:18Z</time>
      </trkpt>
      <trkpt lat="45.66923" lon="4.63093">
        <ele>470.8</ele>
        <time>2025-04-30T16:24:19Z</time>
      </trkpt>
      <trkpt lat="45.66926" lon="4.631">
        <ele>470.2</ele>
        <time>2025-04-30T16:24:20Z</time>
      </trkpt>
      <trkpt lat="45.66929" lon="4.63107">
        <ele>469.6</ele>
        <time>2025-04-30T16:24:21Z</time>
      </trkpt>
      <trkpt lat="45.66933" lon="4.63115">
        <ele>469.2</ele>
        <time>2025-04-30T16:24:22Z</time>
      </trkpt>
      <trkpt lat="45.66936" lon="4.63123">
        <ele>468.6</ele>
        <time>2025-04-30T16:24:23Z</time>
      </trkpt>
      <trkpt lat="45.6694" lon="4.63131">
        <ele>467.8</ele>
        <time>2025-04-30T16:24:24Z</time>
      </trkpt>
      <trkpt lat="45.66944" lon="4.63139">
        <ele>467.4</ele>
        <time>2025-04-30T16:24:25Z</time>
      </trkpt>
      <trkpt lat="45.66948" lon="4.63148">
        <ele>466.8</ele>
        <time>2025-04-30T16:24:26Z</time>
      </trkpt>
      <trkpt lat="45.66951" lon="4.63156">
        <ele>466</ele>
        <time>2025-04-30T16:24:27Z</time>
      </trkpt>
      <trkpt lat="45.66955" lon="4.63164">
        <ele>465.8</ele>
        <time>2025-04-30T16:24:28Z</time>
      </trkpt>
      <trkpt lat="45.66959" lon="4.63172">
        <ele>465.2</ele>
        <time>2025-04-30T16:24:29Z</time>
      </trkpt>
      <trkpt lat="45.66963" lon="4.6318">
        <ele>464.8</ele>
        <time>2025-04-30T16:24:30Z</time>
      </trkpt>
      <trkpt lat="45.66967" lon="4.63188">
        <ele>464.2</ele>
        <time>2025-04-30T16:24:31Z</time>
      </trkpt>
      <trkpt lat="45.66972" lon="4.63196">
        <ele>464</ele>
        <time>2025-04-30T16:24:32Z</time>
      </trkpt>
      <trkpt lat="45.66977" lon="4.63204">
        <ele>463.6</ele>
        <time>2025-04-30T16:24:33Z</time>
      </trkpt>
      <trkpt lat="45.66982" lon="4.63211">
        <ele>463</ele>
        <time>2025-04-30T16:24:34Z</time>
      </trkpt>
      <trkpt lat="45.66987" lon="4.63219">
        <ele>463</ele>
        <time>2025-04-30T16:24:35Z</time>
      </trkpt>
      <trkpt lat="45.66992" lon="4.63226">
        <ele>462.6</ele>
        <time>2025-04-30T16:24:36Z</time>
      </trkpt>
      <trkpt lat="45.66997" lon="4.63233">
        <ele>462.2</ele>
        <time>2025-04-30T16:24:37Z</time>
      </trkpt>
      <trkpt lat="45.67002" lon="4.63239">
        <ele>461.8</ele>
        <time>2025-04-30T16:24:38Z</time>
      </trkpt>
      <trkpt lat="45.67007" lon="4.63246">
        <ele>461.6</ele>
        <time>2025-04-30T16:24:39Z</time>
      </trkpt>
      <trkpt lat="45.67012" lon="4.63252">
        <ele>461.4</ele>
        <time>2025-04-30T16:24:40Z</time>
      </trkpt>
      <trkpt lat="45.67016" lon="4.63259">
        <ele>461.4</ele>
        <time>2025-04-30T16:24:41Z</time>
      </trkpt>
      <trkpt lat="45.67021" lon="4.63265">
        <ele>461.2</ele>
        <time>2025-04-30T16:24:42Z</time>
      </trkpt>
      <trkpt lat="45.67025" lon="4.63272">
        <ele>461.2</ele>
        <time>2025-04-30T16:24:43Z</time>
      </trkpt>
      <trkpt lat="45.67028" lon="4.63281">
        <ele>461.2</ele>
        <time>2025-04-30T16:24:44Z</time>
      </trkpt>
      <trkpt lat="45.6703" lon="4.63289">
        <ele>461</ele>
        <time>2025-04-30T16:24:45Z</time>
      </trkpt>
      <trkpt lat="45.67033" lon="4.63299">
        <ele>461</ele>
        <time>2025-04-30T16:24:46Z</time>
      </trkpt>
      <trkpt lat="45.67036" lon="4.63308">
        <ele>460.2</ele>
        <time>2025-04-30T16:24:47Z</time>
      </trkpt>
      <trkpt lat="45.67039" lon="4.63318">
        <ele>460</ele>
        <time>2025-04-30T16:24:48Z</time>
      </trkpt>
      <trkpt lat="45.67042" lon="4.63329">
        <ele>459</ele>
        <time>2025-04-30T16:24:49Z</time>
      </trkpt>
      <trkpt lat="45.67045" lon="4.63339">
        <ele>458.2</ele>
        <time>2025-04-30T16:24:50Z</time>
      </trkpt>
      <trkpt lat="45.67048" lon="4.6335">
        <ele>457</ele>
        <time>2025-04-30T16:24:51Z</time>
      </trkpt>
      <trkpt lat="45.67051" lon="4.6336">
        <ele>456.4</ele>
        <time>2025-04-30T16:24:52Z</time>
      </trkpt>
      <trkpt lat="45.67054" lon="4.6337">
        <ele>455.8</ele>
        <time>2025-04-30T16:24:53Z</time>
      </trkpt>
      <trkpt lat="45.67057" lon="4.63379">
        <ele>455.2</ele>
        <time>2025-04-30T16:24:54Z</time>
      </trkpt>
      <trkpt lat="45.67059" lon="4.63389">
        <ele>455</ele>
        <time>2025-04-30T16:24:55Z</time>
      </trkpt>
      <trkpt lat="45.67062" lon="4.63398">
        <ele>454.8</ele>
        <time>2025-04-30T16:24:56Z</time>
      </trkpt>
      <trkpt lat="45.67066" lon="4.63407">
        <ele>454.6</ele>
        <time>2025-04-30T16:24:57Z</time>
      </trkpt>
      <trkpt lat="45.67069" lon="4.63417">
        <ele>454.2</ele>
        <time>2025-04-30T16:24:58Z</time>
      </trkpt>
      <trkpt lat="45.67073" lon="4.63427">
        <ele>453.8</ele>
        <time>2025-04-30T16:24:59Z</time>
      </trkpt>
      <trkpt lat="45.67077" lon="4.63435">
        <ele>453</ele>
        <time>2025-04-30T16:25:00Z</time>
      </trkpt>
      <trkpt lat="45.67081" lon="4.63444">
        <ele>452.4</ele>
        <time>2025-04-30T16:25:01Z</time>
      </trkpt>
      <trkpt lat="45.67085" lon="4.63454">
        <ele>452.2</ele>
        <time>2025-04-30T16:25:02Z</time>
      </trkpt>
      <trkpt lat="45.67089" lon="4.63463">
        <ele>451.2</ele>
        <time>2025-04-30T16:25:03Z</time>
      </trkpt>
      <trkpt lat="45.67094" lon="4.63472">
        <ele>450.2</ele>
        <time>2025-04-30T16:25:04Z</time>
      </trkpt>
      <trkpt lat="45.67097" lon="4.63481">
        <ele>449</ele>
        <time>2025-04-30T16:25:05Z</time>
      </trkpt>
      <trkpt lat="45.67101" lon="4.63491">
        <ele>448</ele>
        <time>2025-04-30T16:25:06Z</time>
      </trkpt>
      <trkpt lat="45.67105" lon="4.635">
        <ele>447.6</ele>
        <time>2025-04-30T16:25:07Z</time>
      </trkpt>
      <trkpt lat="45.6711" lon="4.6351">
        <ele>447.2</ele>
        <time>2025-04-30T16:25:08Z</time>
      </trkpt>
      <trkpt lat="45.67113" lon="4.63517">
        <ele>446.6</ele>
        <time>2025-04-30T16:25:09Z</time>
      </trkpt>
      <trkpt lat="45.67118" lon="4.63526">
        <ele>445.8</ele>
        <time>2025-04-30T16:25:10Z</time>
      </trkpt>
      <trkpt lat="45.67123" lon="4.63535">
        <ele>444.6</ele>
        <time>2025-04-30T16:25:11Z</time>
      </trkpt>
      <trkpt lat="45.67127" lon="4.63543">
        <ele>443.8</ele>
        <time>2025-04-30T16:25:12Z</time>
      </trkpt>
      <trkpt lat="45.67132" lon="4.63552">
        <ele>443.4</ele>
        <time>2025-04-30T16:25:13Z</time>
      </trkpt>
      <trkpt lat="45.67135" lon="4.63557">
        <ele>443</ele>
        <time>2025-04-30T16:25:14Z</time>
      </trkpt>
      <trkpt lat="45.67139" lon="4.63563">
        <ele>442.8</ele>
        <time>2025-04-30T16:25:15Z</time>
      </trkpt>
      <trkpt lat="45.67143" lon="4.63569">
        <ele>442.4</ele>
        <time>2025-04-30T16:25:16Z</time>
      </trkpt>
      <trkpt lat="45.67147" lon="4.63576">
        <ele>441.8</ele>
        <time>2025-04-30T16:25:17Z</time>
      </trkpt>
      <trkpt lat="45.67151" lon="4.63582">
        <ele>441.2</ele>
        <time>2025-04-30T16:25:18Z</time>
      </trkpt>
      <trkpt lat="45.67155" lon="4.63589">
        <ele>440.6</ele>
        <time>2025-04-30T16:25:19Z</time>
      </trkpt>
      <trkpt lat="45.6716" lon="4.63595">
        <ele>440</ele>
        <time>2025-04-30T16:25:20Z</time>
      </trkpt>
      <trkpt lat="45.67164" lon="4.636">
        <ele>439</ele>
        <time>2025-04-30T16:25:21Z</time>
      </trkpt>
      <trkpt lat="45.67169" lon="4.63604">
        <ele>438.2</ele>
        <time>2025-04-30T16:25:22Z</time>
      </trkpt>
      <trkpt lat="45.67174" lon="4.63609">
        <ele>437.6</ele>
        <time>2025-04-30T16:25:23Z</time>
      </trkpt>
      <trkpt lat="45.67179" lon="4.63613">
        <ele>436.8</ele>
        <time>2025-04-30T16:25:24Z</time>
      </trkpt>
      <trkpt lat="45.67185" lon="4.63617">
        <ele>435.6</ele>
        <time>2025-04-30T16:25:25Z</time>
      </trkpt>
      <trkpt lat="45.67191" lon="4.63621">
        <ele>435</ele>
        <time>2025-04-30T16:25:26Z</time>
      </trkpt>
      <trkpt lat="45.67197" lon="4.63623">
        <ele>433.8</ele>
        <time>2025-04-30T16:25:27Z</time>
      </trkpt>
      <trkpt lat="45.67203" lon="4.63626">
        <ele>433</ele>
        <time>2025-04-30T16:25:28Z</time>
      </trkpt>
      <trkpt lat="45.67208" lon="4.63628">
        <ele>432.4</ele>
        <time>2025-04-30T16:25:29Z</time>
      </trkpt>
      <trkpt lat="45.67213" lon="4.6363">
        <ele>431.6</ele>
        <time>2025-04-30T16:25:30Z</time>
      </trkpt>
      <trkpt lat="45.67218" lon="4.63634">
        <ele>431.4</ele>
        <time>2025-04-30T16:25:31Z</time>
      </trkpt>
      <trkpt lat="45.67222" lon="4.63638">
        <ele>430.6</ele>
        <time>2025-04-30T16:25:32Z</time>
      </trkpt>
      <trkpt lat="45.67227" lon="4.63642">
        <ele>429.6</ele>
        <time>2025-04-30T16:25:33Z</time>
      </trkpt>
      <trkpt lat="45.67232" lon="4.63646">
        <ele>428.6</ele>
        <time>2025-04-30T16:25:34Z</time>
      </trkpt>
      <trkpt lat="45.67237" lon="4.6365">
        <ele>428</ele>
        <time>2025-04-30T16:25:35Z</time>
      </trkpt>
      <trkpt lat="45.67242" lon="4.63654">
        <ele>426.8</ele>
        <time>2025-04-30T16:25:36Z</time>
      </trkpt>
      <trkpt lat="45.67247" lon="4.63658">
        <ele>426</ele>
        <time>2025-04-30T16:25:37Z</time>
      </trkpt>
      <trkpt lat="45.67251" lon="4.63662">
        <ele>424.8</ele>
        <time>2025-04-30T16:25:38Z</time>
      </trkpt>
      <trkpt lat="45.67257" lon="4.63666">
        <ele>423.8</ele>
        <time>2025-04-30T16:25:39Z</time>
      </trkpt>
      <trkpt lat="45.67261" lon="4.6367">
        <ele>422.8</ele>
        <time>2025-04-30T16:25:40Z</time>
      </trkpt>
      <trkpt lat="45.67266" lon="4.63675">
        <ele>422</ele>
        <time>2025-04-30T16:25:41Z</time>
      </trkpt>
      <trkpt lat="45.67268" lon="4.63678">
        <ele>421.2</ele>
        <time>2025-04-30T16:25:42Z</time>
      </trkpt>
      <trkpt lat="45.67271" lon="4.6368">
        <ele>419.8</ele>
        <time>2025-04-30T16:25:43Z</time>
      </trkpt>
      <trkpt lat="45.67272" lon="4.63682">
        <ele>419.6</ele>
        <time>2025-04-30T16:25:44Z</time>
      </trkpt>
      <trkpt lat="45.67274" lon="4.63682">
        <ele>419.6</ele>
        <time>2025-04-30T16:25:45Z</time>
      </trkpt>
      <trkpt lat="45.67274" lon="4.63682">
        <ele>419.2</ele>
        <time>2025-04-30T16:25:46Z</time>
      </trkpt>
      <trkpt lat="45.67274" lon="4.63682">
        <ele>419.2</ele>
        <time>2025-04-30T16:25:47Z</time>
      </trkpt>
      <trkpt lat="45.67274" lon="4.63682">
        <ele>419</ele>
        <time>2025-04-30T16:25:48Z</time>
      </trkpt>
      <trkpt lat="45.67274" lon="4.63682">
        <ele>419</ele>
        <time>2025-04-30T16:25:49Z</time>
      </trkpt>
      <trkpt lat="45.67275" lon="4.63683">
        <ele>419</ele>
        <time>2025-04-30T16:25:50Z</time>
      </trkpt>
      <trkpt lat="45.67275" lon="4.63684">
        <ele>419</ele>
        <time>2025-04-30T16:25:51Z</time>
      </trkpt>
      <trkpt lat="45.67276" lon="4.63686">
        <ele>419</ele>
        <time>2025-04-30T16:25:52Z</time>
      </trkpt>
      <trkpt lat="45.67278" lon="4.63689">
        <ele>419</ele>
        <time>2025-04-30T16:25:53Z</time>
      </trkpt>
      <trkpt lat="45.6728" lon="4.63692">
        <ele>418.6</ele>
        <time>2025-04-30T16:25:54Z</time>
      </trkpt>
      <trkpt lat="45.67284" lon="4.63697">
        <ele>418.4</ele>
        <time>2025-04-30T16:25:55Z</time>
      </trkpt>
      <trkpt lat="45.67288" lon="4.63702">
        <ele>418.2</ele>
        <time>2025-04-30T16:25:56Z</time>
      </trkpt>
      <trkpt lat="45.67292" lon="4.63706">
        <ele>417.2</ele>
        <time>2025-04-30T16:25:57Z</time>
      </trkpt>
      <trkpt lat="45.67296" lon="4.63711">
        <ele>416.2</ele>
        <time>2025-04-30T16:25:58Z</time>
      </trkpt>
      <trkpt lat="45.67299" lon="4.63715">
        <ele>414.8</ele>
        <time>2025-04-30T16:25:59Z</time>
      </trkpt>
      <trkpt lat="45.67302" lon="4.63718">
        <ele>414.4</ele>
        <time>2025-04-30T16:26:00Z</time>
      </trkpt>
      <trkpt lat="45.67304" lon="4.6372">
        <ele>413.2</ele>
        <time>2025-04-30T16:26:01Z</time>
      </trkpt>
      <trkpt lat="45.67305" lon="4.63721">
        <ele>412.4</ele>
        <time>2025-04-30T16:26:02Z</time>
      </trkpt>
      <trkpt lat="45.67306" lon="4.63721">
        <ele>412</ele>
        <time>2025-04-30T16:26:03Z</time>
      </trkpt>
      <trkpt lat="45.67306" lon="4.63721">
        <ele>411.6</ele>
        <time>2025-04-30T16:26:04Z</time>
      </trkpt>
      <trkpt lat="45.67306" lon="4.63721">
        <ele>411.6</ele>
        <time>2025-04-30T16:26:05Z</time>
      </trkpt>
      <trkpt lat="45.67306" lon="4.63721">
        <ele>411.6</ele>
        <time>2025-04-30T16:26:06Z</time>
      </trkpt>
      <trkpt lat="45.67306" lon="4.63721">
        <ele>411.6</ele>
        <time>2025-04-30T16:26:07Z</time>
      </trkpt>
      <trkpt lat="45.67306" lon="4.63721">
        <ele>411.4</ele>
        <time>2025-04-30T16:26:08Z</time>
      </trkpt>
      <trkpt lat="45.67306" lon="4.63721">
        <ele>411.4</ele>
        <time>2025-04-30T16:26:09Z</time>
      </trkpt>
      <trkpt lat="45.67306" lon="4.63721">
        <ele>411.4</ele>
        <time>2025-04-30T16:26:10Z</time>
      </trkpt>
      <trkpt lat="45.67306" lon="4.63721">
        <ele>411.4</ele>
        <time>2025-04-30T16:26:11Z</time>
      </trkpt>
      <trkpt lat="45.67306" lon="4.63721">
        <ele>411.4</ele>
        <time>2025-04-30T16:26:12Z</time>
      </trkpt>
      <trkpt lat="45.67306" lon="4.63721">
        <ele>411.4</ele>
        <time>2025-04-30T16:26:13Z</time>
      </trkpt>
      <trkpt lat="45.67306" lon="4.63721">
        <ele>411.4</ele>
        <time>2025-04-30T16:26:14Z</time>
      </trkpt>
      <trkpt lat="45.67306" lon="4.63721">
        <ele>411.4</ele>
        <time>2025-04-30T16:26:15Z</time>
      </trkpt>
      <trkpt lat="45.67306" lon="4.63721">
        <ele>411.6</ele>
        <time>2025-04-30T16:26:16Z</time>
      </trkpt>
      <trkpt lat="45.67306" lon="4.63721">
        <ele>411.6</ele>
        <time>2025-04-30T16:26:17Z</time>
      </trkpt>
      <trkpt lat="45.67306" lon="4.63721">
        <ele>411.2</ele>
        <time>2025-04-30T16:26:18Z</time>
      </trkpt>
      <trkpt lat="45.67306" lon="4.63721">
        <ele>410.8</ele>
        <time>2025-04-30T16:26:19Z</time>
      </trkpt>
      <trkpt lat="45.67306" lon="4.63721">
        <ele>410</ele>
        <time>2025-04-30T16:26:20Z</time>
      </trkpt>
      <trkpt lat="45.67306" lon="4.63721">
        <ele>410</ele>
        <time>2025-04-30T16:26:21Z</time>
      </trkpt>
      <trkpt lat="45.67306" lon="4.63721">
        <ele>410</ele>
        <time>2025-04-30T16:26:22Z</time>
      </trkpt>
      <trkpt lat="45.67306" lon="4.63721">
        <ele>410</ele>
        <time>2025-04-30T16:26:23Z</time>
      </trkpt>
      <trkpt lat="45.67306" lon="4.63721">
        <ele>410.2</ele>
        <time>2025-04-30T16:26:24Z</time>
      </trkpt>
      <trkpt lat="45.67305" lon="4.63722">
        <ele>412</ele>
        <time>2025-04-30T16:26:25Z</time>
      </trkpt>
      <trkpt lat="45.67305" lon="4.63722">
        <ele>412</ele>
        <time>2025-04-30T16:26:26Z</time>
      </trkpt>
      <trkpt lat="45.67305" lon="4.63722">
        <ele>412</ele>
        <time>2025-04-30T16:26:27Z</time>
      </trkpt>
      <trkpt lat="45.67305" lon="4.63722">
        <ele>412</ele>
        <time>2025-04-30T16:26:28Z</time>
      </trkpt>
      <trkpt lat="45.67305" lon="4.63721">
        <ele>411.6</ele>
        <time>2025-04-30T16:26:29Z</time>
      </trkpt>
      <trkpt lat="45.67304" lon="4.63721">
        <ele>411.4</ele>
        <time>2025-04-30T16:26:30Z</time>
      </trkpt>
      <trkpt lat="45.67304" lon="4.6372">
        <ele>411.4</ele>
        <time>2025-04-30T16:26:31Z</time>
      </trkpt>
      <trkpt lat="45.67303" lon="4.6372">
        <ele>411.4</ele>
        <time>2025-04-30T16:26:32Z</time>
      </trkpt>
      <trkpt lat="45.67302" lon="4.6372">
        <ele>411.4</ele>
        <time>2025-04-30T16:26:33Z</time>
      </trkpt>
      <trkpt lat="45.67301" lon="4.63721">
        <ele>411.6</ele>
        <time>2025-04-30T16:26:34Z</time>
      </trkpt>
      <trkpt lat="45.673" lon="4.63721">
        <ele>411.6</ele>
        <time>2025-04-30T16:26:35Z</time>
      </trkpt>
      <trkpt lat="45.673" lon="4.63722">
        <ele>411.6</ele>
        <time>2025-04-30T16:26:36Z</time>
      </trkpt>
      <trkpt lat="45.673" lon="4.63722">
        <ele>411.6</ele>
        <time>2025-04-30T16:26:37Z</time>
      </trkpt>
      <trkpt lat="45.673" lon="4.63722">
        <ele>411.6</ele>
        <time>2025-04-30T16:26:38Z</time>
      </trkpt>
      <trkpt lat="45.673" lon="4.63722">
        <ele>411.6</ele>
        <time>2025-04-30T16:26:39Z</time>
      </trkpt>
      <trkpt lat="45.673" lon="4.63722">
        <ele>411.6</ele>
        <time>2025-04-30T16:26:40Z</time>
      </trkpt>
      <trkpt lat="45.673" lon="4.63722">
        <ele>411.6</ele>
        <time>2025-04-30T16:26:41Z</time>
      </trkpt>
      <trkpt lat="45.673" lon="4.63722">
        <ele>411.6</ele>
        <time>2025-04-30T16:26:42Z</time>
      </trkpt>
      <trkpt lat="45.673" lon="4.63722">
        <ele>411.6</ele>
        <time>2025-04-30T16:26:43Z</time>
      </trkpt>
      <trkpt lat="45.673" lon="4.63722">
        <ele>411.6</ele>
        <time>2025-04-30T16:26:44Z</time>
      </trkpt>
      <trkpt lat="45.673" lon="4.63722">
        <ele>411.6</ele>
        <time>2025-04-30T16:26:45Z</time>
      </trkpt>
      <trkpt lat="45.673" lon="4.63722">
        <ele>411.4</ele>
        <time>2025-04-30T16:26:46Z</time>
      </trkpt>
      <trkpt lat="45.673" lon="4.63722">
        <ele>411.4</ele>
        <time>2025-04-30T16:26:47Z</time>
      </trkpt>
      <trkpt lat="45.673" lon="4.63722">
        <ele>411.4</ele>
        <time>2025-04-30T16:26:48Z</time>
      </trkpt>
      <trkpt lat="45.673" lon="4.63722">
        <ele>411.4</ele>
        <time>2025-04-30T16:26:49Z</time>
      </trkpt>
      <trkpt lat="45.673" lon="4.63722">
        <ele>411.4</ele>
        <time>2025-04-30T16:26:50Z</time>
      </trkpt>
      <trkpt lat="45.673" lon="4.63722">
        <ele>411.4</ele>
        <time>2025-04-30T16:26:51Z</time>
      </trkpt>
      <trkpt lat="45.673" lon="4.63722">
        <ele>411.4</ele>
        <time>2025-04-30T16:26:52Z</time>
      </trkpt>
      <trkpt lat="45.673" lon="4.63722">
        <ele>411.4</ele>
        <time>2025-04-30T16:26:53Z</time>
      </trkpt>
      <trkpt lat="45.673" lon="4.63722">
        <ele>411.4</ele>
        <time>2025-04-30T16:26:54Z</time>
      </trkpt>
      <trkpt lat="45.673" lon="4.63722">
        <ele>411.4</ele>
        <time>2025-04-30T16:26:55Z</time>
      </trkpt>
      <trkpt lat="45.673" lon="4.63722">
        <ele>411.4</ele>
        <time>2025-04-30T16:26:56Z</time>
      </trkpt>
      <trkpt lat="45.673" lon="4.63722">
        <ele>411.4</ele>
        <time>2025-04-30T16:26:57Z</time>
      </trkpt>
      <trkpt lat="45.673" lon="4.63722">
        <ele>411.4</ele>
        <time>2025-04-30T16:26:58Z</time>
      </trkpt>
      <trkpt lat="45.673" lon="4.63722">
        <ele>411.2</ele>
        <time>2025-04-30T16:26:59Z</time>
      </trkpt>
      <trkpt lat="45.673" lon="4.63722">
        <ele>411.2</ele>
        <time>2025-04-30T16:27:00Z</time>
      </trkpt>
      <trkpt lat="45.673" lon="4.63722">
        <ele>411.2</ele>
        <time>2025-04-30T16:27:01Z</time>
      </trkpt>
      <trkpt lat="45.673" lon="4.63722">
        <ele>411.2</ele>
        <time>2025-04-30T16:27:02Z</time>
      </trkpt>
      <trkpt lat="45.673" lon="4.63722">
        <ele>411.2</ele>
        <time>2025-04-30T16:27:03Z</time>
      </trkpt>
      <trkpt lat="45.673" lon="4.63722">
        <ele>411.2</ele>
        <time>2025-04-30T16:27:04Z</time>
      </trkpt>
      <trkpt lat="45.673" lon="4.63722">
        <ele>411.2</ele>
        <time>2025-04-30T16:27:05Z</time>
      </trkpt>
      <trkpt lat="45.673" lon="4.63722">
        <ele>411.2</ele>
        <time>2025-04-30T16:27:06Z</time>
      </trkpt>
      <trkpt lat="45.673" lon="4.63722">
        <ele>411.2</ele>
        <time>2025-04-30T16:27:07Z</time>
      </trkpt>
      <trkpt lat="45.673" lon="4.63722">
        <ele>411</ele>
        <time>2025-04-30T16:27:08Z</time>
      </trkpt>
      <trkpt lat="45.67299" lon="4.63722">
        <ele>411</ele>
        <time>2025-04-30T16:27:09Z</time>
      </trkpt>
      <trkpt lat="45.67298" lon="4.63724">
        <ele>411</ele>
        <time>2025-04-30T16:27:10Z</time>
      </trkpt>
      <trkpt lat="45.67297" lon="4.63726">
        <ele>411</ele>
        <time>2025-04-30T16:27:11Z</time>
      </trkpt>
      <trkpt lat="45.67297" lon="4.6373">
        <ele>411</ele>
        <time>2025-04-30T16:27:12Z</time>
      </trkpt>
      <trkpt lat="45.67298" lon="4.63734">
        <ele>411</ele>
        <time>2025-04-30T16:27:13Z</time>
      </trkpt>
      <trkpt lat="45.67298" lon="4.63738">
        <ele>410.8</ele>
        <time>2025-04-30T16:27:14Z</time>
      </trkpt>
      <trkpt lat="45.67298" lon="4.63742">
        <ele>410.4</ele>
        <time>2025-04-30T16:27:15Z</time>
      </trkpt>
      <trkpt lat="45.67299" lon="4.63747">
        <ele>410</ele>
        <time>2025-04-30T16:27:16Z</time>
      </trkpt>
      <trkpt lat="45.67299" lon="4.63752">
        <ele>409.8</ele>
        <time>2025-04-30T16:27:17Z</time>
      </trkpt>
      <trkpt lat="45.673" lon="4.63757">
        <ele>409.4</ele>
        <time>2025-04-30T16:27:18Z</time>
      </trkpt>
      <trkpt lat="45.67301" lon="4.63762">
        <ele>408.8</ele>
        <time>2025-04-30T16:27:19Z</time>
      </trkpt>
      <trkpt lat="45.67303" lon="4.6377">
        <ele>408.4</ele>
        <time>2025-04-30T16:27:20Z</time>
      </trkpt>
      <trkpt lat="45.67304" lon="4.63776">
        <ele>408.2</ele>
        <time>2025-04-30T16:27:21Z</time>
      </trkpt>
      <trkpt lat="45.67305" lon="4.63783">
        <ele>407.4</ele>
        <time>2025-04-30T16:27:22Z</time>
      </trkpt>
      <trkpt lat="45.67305" lon="4.63791">
        <ele>406.4</ele>
        <time>2025-04-30T16:27:23Z</time>
      </trkpt>
      <trkpt lat="45.67305" lon="4.63798">
        <ele>405.8</ele>
        <time>2025-04-30T16:27:24Z</time>
      </trkpt>
      <trkpt lat="45.67305" lon="4.63806">
        <ele>404.8</ele>
        <time>2025-04-30T16:27:25Z</time>
      </trkpt>
      <trkpt lat="45.67305" lon="4.63813">
        <ele>404.6</ele>
        <time>2025-04-30T16:27:26Z</time>
      </trkpt>
      <trkpt lat="45.67305" lon="4.63819">
        <ele>404</ele>
        <time>2025-04-30T16:27:27Z</time>
      </trkpt>
      <trkpt lat="45.67304" lon="4.63826">
        <ele>403.4</ele>
        <time>2025-04-30T16:27:28Z</time>
      </trkpt>
      <trkpt lat="45.67305" lon="4.63833">
        <ele>403.2</ele>
        <time>2025-04-30T16:27:29Z</time>
      </trkpt>
      <trkpt lat="45.67307" lon="4.6384">
        <ele>402.8</ele>
        <time>2025-04-30T16:27:30Z</time>
      </trkpt>
      <trkpt lat="45.67309" lon="4.63845">
        <ele>402.4</ele>
        <time>2025-04-30T16:27:31Z</time>
      </trkpt>
      <trkpt lat="45.67312" lon="4.63853">
        <ele>402.2</ele>
        <time>2025-04-30T16:27:32Z</time>
      </trkpt>
      <trkpt lat="45.67316" lon="4.63859">
        <ele>401.4</ele>
        <time>2025-04-30T16:27:33Z</time>
      </trkpt>
      <trkpt lat="45.67318" lon="4.63864">
        <ele>401.2</ele>
        <time>2025-04-30T16:27:34Z</time>
      </trkpt>
      <trkpt lat="45.67321" lon="4.63867">
        <ele>401</ele>
        <time>2025-04-30T16:27:35Z</time>
      </trkpt>
      <trkpt lat="45.67323" lon="4.63872">
        <ele>401</ele>
        <time>2025-04-30T16:27:36Z</time>
      </trkpt>
      <trkpt lat="45.67325" lon="4.63875">
        <ele>400.6</ele>
        <time>2025-04-30T16:27:37Z</time>
      </trkpt>
      <trkpt lat="45.67328" lon="4.6388">
        <ele>400.6</ele>
        <time>2025-04-30T16:27:38Z</time>
      </trkpt>
      <trkpt lat="45.67331" lon="4.63884">
        <ele>400.6</ele>
        <time>2025-04-30T16:27:39Z</time>
      </trkpt>
      <trkpt lat="45.67333" lon="4.63888">
        <ele>400.6</ele>
        <time>2025-04-30T16:27:40Z</time>
      </trkpt>
      <trkpt lat="45.67337" lon="4.63894">
        <ele>399.8</ele>
        <time>2025-04-30T16:27:41Z</time>
      </trkpt>
      <trkpt lat="45.67341" lon="4.639">
        <ele>399.8</ele>
        <time>2025-04-30T16:27:42Z</time>
      </trkpt>
      <trkpt lat="45.67343" lon="4.63905">
        <ele>399.6</ele>
        <time>2025-04-30T16:27:43Z</time>
      </trkpt>
      <trkpt lat="45.67348" lon="4.63912">
        <ele>399.2</ele>
        <time>2025-04-30T16:27:44Z</time>
      </trkpt>
      <trkpt lat="45.67352" lon="4.63919">
        <ele>398.6</ele>
        <time>2025-04-30T16:27:45Z</time>
      </trkpt>
      <trkpt lat="45.67355" lon="4.63924">
        <ele>398.4</ele>
        <time>2025-04-30T16:27:46Z</time>
      </trkpt>
      <trkpt lat="45.6736" lon="4.63932">
        <ele>398</ele>
        <time>2025-04-30T16:27:47Z</time>
      </trkpt>
      <trkpt lat="45.67364" lon="4.63937">
        <ele>397.2</ele>
        <time>2025-04-30T16:27:48Z</time>
      </trkpt>
      <trkpt lat="45.67367" lon="4.63943">
        <ele>396.8</ele>
        <time>2025-04-30T16:27:49Z</time>
      </trkpt>
      <trkpt lat="45.67371" lon="4.63949">
        <ele>396</ele>
        <time>2025-04-30T16:27:50Z</time>
      </trkpt>
      <trkpt lat="45.67375" lon="4.63956">
        <ele>395.6</ele>
        <time>2025-04-30T16:27:51Z</time>
      </trkpt>
      <trkpt lat="45.67378" lon="4.63962">
        <ele>394.8</ele>
        <time>2025-04-30T16:27:52Z</time>
      </trkpt>
      <trkpt lat="45.67382" lon="4.63969">
        <ele>394.4</ele>
        <time>2025-04-30T16:27:53Z</time>
      </trkpt>
      <trkpt lat="45.67387" lon="4.63978">
        <ele>394</ele>
        <time>2025-04-30T16:27:54Z</time>
      </trkpt>
      <trkpt lat="45.6739" lon="4.63985">
        <ele>393.6</ele>
        <time>2025-04-30T16:27:55Z</time>
      </trkpt>
      <trkpt lat="45.67393" lon="4.63991">
        <ele>392.8</ele>
        <time>2025-04-30T16:27:56Z</time>
      </trkpt>
      <trkpt lat="45.67395" lon="4.63997">
        <ele>391.8</ele>
        <time>2025-04-30T16:27:57Z</time>
      </trkpt>
      <trkpt lat="45.67397" lon="4.64003">
        <ele>391.4</ele>
        <time>2025-04-30T16:27:58Z</time>
      </trkpt>
      <trkpt lat="45.67398" lon="4.64009">
        <ele>391</ele>
        <time>2025-04-30T16:27:59Z</time>
      </trkpt>
      <trkpt lat="45.67399" lon="4.64014">
        <ele>390.8</ele>
        <time>2025-04-30T16:28:00Z</time>
      </trkpt>
      <trkpt lat="45.674" lon="4.64019">
        <ele>390.4</ele>
        <time>2025-04-30T16:28:01Z</time>
      </trkpt>
      <trkpt lat="45.67402" lon="4.64029">
        <ele>390</ele>
        <time>2025-04-30T16:28:02Z</time>
      </trkpt>
      <trkpt lat="45.67403" lon="4.64037">
        <ele>389.8</ele>
        <time>2025-04-30T16:28:03Z</time>
      </trkpt>
      <trkpt lat="45.67405" lon="4.64044">
        <ele>388</ele>
        <time>2025-04-30T16:28:04Z</time>
      </trkpt>
      <trkpt lat="45.67406" lon="4.64054">
        <ele>387.4</ele>
        <time>2025-04-30T16:28:05Z</time>
      </trkpt>
      <trkpt lat="45.67408" lon="4.64061">
        <ele>386.8</ele>
        <time>2025-04-30T16:28:06Z</time>
      </trkpt>
      <trkpt lat="45.67409" lon="4.64068">
        <ele>385.6</ele>
        <time>2025-04-30T16:28:07Z</time>
      </trkpt>
      <trkpt lat="45.6741" lon="4.64076">
        <ele>385.2</ele>
        <time>2025-04-30T16:28:08Z</time>
      </trkpt>
      <trkpt lat="45.67412" lon="4.64084">
        <ele>384.6</ele>
        <time>2025-04-30T16:28:09Z</time>
      </trkpt>
      <trkpt lat="45.67413" lon="4.6409">
        <ele>383.8</ele>
        <time>2025-04-30T16:28:10Z</time>
      </trkpt>
      <trkpt lat="45.67414" lon="4.64098">
        <ele>383</ele>
        <time>2025-04-30T16:28:11Z</time>
      </trkpt>
      <trkpt lat="45.67415" lon="4.64102">
        <ele>381.8</ele>
        <time>2025-04-30T16:28:12Z</time>
      </trkpt>
      <trkpt lat="45.67416" lon="4.64107">
        <ele>381</ele>
        <time>2025-04-30T16:28:13Z</time>
      </trkpt>
      <trkpt lat="45.67416" lon="4.64112">
        <ele>380.4</ele>
        <time>2025-04-30T16:28:14Z</time>
      </trkpt>
      <trkpt lat="45.67415" lon="4.64117">
        <ele>379.8</ele>
        <time>2025-04-30T16:28:15Z</time>
      </trkpt>
      <trkpt lat="45.67415" lon="4.64121">
        <ele>379.4</ele>
        <time>2025-04-30T16:28:16Z</time>
      </trkpt>
      <trkpt lat="45.67415" lon="4.64125">
        <ele>379</ele>
        <time>2025-04-30T16:28:17Z</time>
      </trkpt>
      <trkpt lat="45.67414" lon="4.64128">
        <ele>378.6</ele>
        <time>2025-04-30T16:28:18Z</time>
      </trkpt>
      <trkpt lat="45.67414" lon="4.64132">
        <ele>378.6</ele>
        <time>2025-04-30T16:28:19Z</time>
      </trkpt>
      <trkpt lat="45.67412" lon="4.64136">
        <ele>378.4</ele>
        <time>2025-04-30T16:28:20Z</time>
      </trkpt>
      <trkpt lat="45.67411" lon="4.64142">
        <ele>378.2</ele>
        <time>2025-04-30T16:28:21Z</time>
      </trkpt>
      <trkpt lat="45.6741" lon="4.64147">
        <ele>378</ele>
        <time>2025-04-30T16:28:22Z</time>
      </trkpt>
      <trkpt lat="45.67411" lon="4.64153">
        <ele>377.4</ele>
        <time>2025-04-30T16:28:23Z</time>
      </trkpt>
      <trkpt lat="45.67412" lon="4.64158">
        <ele>376.8</ele>
        <time>2025-04-30T16:28:24Z</time>
      </trkpt>
      <trkpt lat="45.67415" lon="4.64164">
        <ele>376.2</ele>
        <time>2025-04-30T16:28:25Z</time>
      </trkpt>
      <trkpt lat="45.67417" lon="4.6417">
        <ele>375.6</ele>
        <time>2025-04-30T16:28:26Z</time>
      </trkpt>
      <trkpt lat="45.67419" lon="4.64175">
        <ele>375.2</ele>
        <time>2025-04-30T16:28:27Z</time>
      </trkpt>
      <trkpt lat="45.67423" lon="4.64182">
        <ele>374.8</ele>
        <time>2025-04-30T16:28:28Z</time>
      </trkpt>
      <trkpt lat="45.67427" lon="4.64188">
        <ele>374.4</ele>
        <time>2025-04-30T16:28:29Z</time>
      </trkpt>
      <trkpt lat="45.67431" lon="4.64194">
        <ele>374.2</ele>
        <time>2025-04-30T16:28:30Z</time>
      </trkpt>
      <trkpt lat="45.67436" lon="4.642">
        <ele>374</ele>
        <time>2025-04-30T16:28:31Z</time>
      </trkpt>
      <trkpt lat="45.67441" lon="4.64205">
        <ele>373.4</ele>
        <time>2025-04-30T16:28:32Z</time>
      </trkpt>
      <trkpt lat="45.67446" lon="4.6421">
        <ele>372.6</ele>
        <time>2025-04-30T16:28:33Z</time>
      </trkpt>
      <trkpt lat="45.67451" lon="4.64215">
        <ele>371.8</ele>
        <time>2025-04-30T16:28:34Z</time>
      </trkpt>
      <trkpt lat="45.67455" lon="4.64219">
        <ele>371.4</ele>
        <time>2025-04-30T16:28:35Z</time>
      </trkpt>
      <trkpt lat="45.6746" lon="4.64223">
        <ele>370.6</ele>
        <time>2025-04-30T16:28:36Z</time>
      </trkpt>
      <trkpt lat="45.67466" lon="4.64228">
        <ele>370.2</ele>
        <time>2025-04-30T16:28:37Z</time>
      </trkpt>
      <trkpt lat="45.6747" lon="4.64232">
        <ele>369.8</ele>
        <time>2025-04-30T16:28:38Z</time>
      </trkpt>
      <trkpt lat="45.67477" lon="4.64239">
        <ele>369.8</ele>
        <time>2025-04-30T16:28:39Z</time>
      </trkpt>
      <trkpt lat="45.6748" lon="4.64243">
        <ele>369.2</ele>
        <time>2025-04-30T16:28:40Z</time>
      </trkpt>
      <trkpt lat="45.67483" lon="4.64247">
        <ele>368.6</ele>
        <time>2025-04-30T16:28:41Z</time>
      </trkpt>
      <trkpt lat="45.67484" lon="4.6425">
        <ele>368.6</ele>
        <time>2025-04-30T16:28:42Z</time>
      </trkpt>
      <trkpt lat="45.67484" lon="4.64251">
        <ele>368.6</ele>
        <time>2025-04-30T16:28:43Z</time>
      </trkpt>
      <trkpt lat="45.67484" lon="4.64251">
        <ele>368.6</ele>
        <time>2025-04-30T16:28:44Z</time>
      </trkpt>
      <trkpt lat="45.67484" lon="4.64251">
        <ele>368.6</ele>
        <time>2025-04-30T16:28:45Z</time>
      </trkpt>
      <trkpt lat="45.67484" lon="4.64251">
        <ele>368.8</ele>
        <time>2025-04-30T16:28:46Z</time>
      </trkpt>
      <trkpt lat="45.67484" lon="4.64251">
        <ele>369</ele>
        <time>2025-04-30T16:28:47Z</time>
      </trkpt>
      <trkpt lat="45.67484" lon="4.64251">
        <ele>369</ele>
        <time>2025-04-30T16:28:48Z</time>
      </trkpt>
      <trkpt lat="45.67484" lon="4.64251">
        <ele>369</ele>
        <time>2025-04-30T16:28:49Z</time>
      </trkpt>
      <trkpt lat="45.67484" lon="4.64251">
        <ele>369</ele>
        <time>2025-04-30T16:28:50Z</time>
      </trkpt>
      <trkpt lat="45.67484" lon="4.64251">
        <ele>369.2</ele>
        <time>2025-04-30T16:28:51Z</time>
      </trkpt>
      <trkpt lat="45.67484" lon="4.64251">
        <ele>369.2</ele>
        <time>2025-04-30T16:28:52Z</time>
      </trkpt>
      <trkpt lat="45.67484" lon="4.64251">
        <ele>369.2</ele>
        <time>2025-04-30T16:28:53Z</time>
      </trkpt>
      <trkpt lat="45.67484" lon="4.64251">
        <ele>369</ele>
        <time>2025-04-30T16:28:54Z</time>
      </trkpt>
      <trkpt lat="45.67484" lon="4.64251">
        <ele>368.8</ele>
        <time>2025-04-30T16:28:55Z</time>
      </trkpt>
      <trkpt lat="45.67484" lon="4.64251">
        <ele>368.4</ele>
        <time>2025-04-30T16:28:56Z</time>
      </trkpt>
      <trkpt lat="45.67484" lon="4.64251">
        <ele>368.4</ele>
        <time>2025-04-30T16:28:57Z</time>
      </trkpt>
      <trkpt lat="45.67484" lon="4.64251">
        <ele>368.4</ele>
        <time>2025-04-30T16:28:58Z</time>
      </trkpt>
      <trkpt lat="45.67484" lon="4.64251">
        <ele>368.6</ele>
        <time>2025-04-30T16:28:59Z</time>
      </trkpt>
      <trkpt lat="45.67484" lon="4.64251">
        <ele>369</ele>
        <time>2025-04-30T16:29:00Z</time>
      </trkpt>
      <trkpt lat="45.67484" lon="4.64251">
        <ele>369.2</ele>
        <time>2025-04-30T16:29:01Z</time>
      </trkpt>
      <trkpt lat="45.67484" lon="4.64251">
        <ele>369.4</ele>
        <time>2025-04-30T16:29:02Z</time>
      </trkpt>
      <trkpt lat="45.67484" lon="4.64251">
        <ele>369.4</ele>
        <time>2025-04-30T16:29:03Z</time>
      </trkpt>
      <trkpt lat="45.67484" lon="4.64251">
        <ele>369.2</ele>
        <time>2025-04-30T16:29:04Z</time>
      </trkpt>
      <trkpt lat="45.67484" lon="4.64251">
        <ele>369.2</ele>
        <time>2025-04-30T16:29:05Z</time>
      </trkpt>
      <trkpt lat="45.67484" lon="4.64251">
        <ele>369.2</ele>
        <time>2025-04-30T16:29:06Z</time>
      </trkpt>
      <trkpt lat="45.67484" lon="4.64251">
        <ele>369</ele>
        <time>2025-04-30T16:29:07Z</time>
      </trkpt>
      <trkpt lat="45.67484" lon="4.64251">
        <ele>369</ele>
        <time>2025-04-30T16:29:08Z</time>
      </trkpt>
      <trkpt lat="45.67484" lon="4.64251">
        <ele>369</ele>
        <time>2025-04-30T16:29:09Z</time>
      </trkpt>
      <trkpt lat="45.67484" lon="4.64251">
        <ele>369</ele>
        <time>2025-04-30T16:29:10Z</time>
      </trkpt>
      <trkpt lat="45.67484" lon="4.64251">
        <ele>369</ele>
        <time>2025-04-30T16:29:11Z</time>
      </trkpt>
      <trkpt lat="45.67484" lon="4.64251">
        <ele>369</ele>
        <time>2025-04-30T16:29:12Z</time>
      </trkpt>
      <trkpt lat="45.67484" lon="4.64251">
        <ele>369</ele>
        <time>2025-04-30T16:29:13Z</time>
      </trkpt>
      <trkpt lat="45.67484" lon="4.64251">
        <ele>369.2</ele>
        <time>2025-04-30T16:29:14Z</time>
      </trkpt>
      <trkpt lat="45.67484" lon="4.64251">
        <ele>369.2</ele>
        <time>2025-04-30T16:29:15Z</time>
      </trkpt>
      <trkpt lat="45.67484" lon="4.64251">
        <ele>369.2</ele>
        <time>2025-04-30T16:29:16Z</time>
      </trkpt>
      <trkpt lat="45.67484" lon="4.64251">
        <ele>369</ele>
        <time>2025-04-30T16:29:17Z</time>
      </trkpt>
      <trkpt lat="45.67484" lon="4.64251">
        <ele>369</ele>
        <time>2025-04-30T16:29:18Z</time>
      </trkpt>
      <trkpt lat="45.67484" lon="4.64251">
        <ele>369</ele>
        <time>2025-04-30T16:29:19Z</time>
      </trkpt>
      <trkpt lat="45.67484" lon="4.64251">
        <ele>369</ele>
        <time>2025-04-30T16:29:20Z</time>
      </trkpt>
      <trkpt lat="45.67484" lon="4.64251">
        <ele>369</ele>
        <time>2025-04-30T16:29:21Z</time>
      </trkpt>
      <trkpt lat="45.67484" lon="4.64251">
        <ele>369</ele>
        <time>2025-04-30T16:29:22Z</time>
      </trkpt>
      <trkpt lat="45.67484" lon="4.64251">
        <ele>369</ele>
        <time>2025-04-30T16:29:23Z</time>
      </trkpt>
      <trkpt lat="45.67484" lon="4.64251">
        <ele>369</ele>
        <time>2025-04-30T16:29:24Z</time>
      </trkpt>
      <trkpt lat="45.67484" lon="4.64251">
        <ele>369</ele>
        <time>2025-04-30T16:29:25Z</time>
      </trkpt>
      <trkpt lat="45.67484" lon="4.64251">
        <ele>369</ele>
        <time>2025-04-30T16:29:26Z</time>
      </trkpt>
      <trkpt lat="45.67484" lon="4.64251">
        <ele>368.8</ele>
        <time>2025-04-30T16:29:27Z</time>
      </trkpt>
      <trkpt lat="45.67484" lon="4.64251">
        <ele>368.8</ele>
        <time>2025-04-30T16:29:28Z</time>
      </trkpt>
      <trkpt lat="45.67484" lon="4.64251">
        <ele>368.8</ele>
        <time>2025-04-30T16:29:29Z</time>
      </trkpt>
      <trkpt lat="45.67484" lon="4.64251">
        <ele>368.8</ele>
        <time>2025-04-30T16:29:30Z</time>
      </trkpt>
      <trkpt lat="45.67484" lon="4.64251">
        <ele>368.8</ele>
        <time>2025-04-30T16:29:31Z</time>
      </trkpt>
      <trkpt lat="45.67484" lon="4.64251">
        <ele>368.8</ele>
        <time>2025-04-30T16:29:32Z</time>
      </trkpt>
      <trkpt lat="45.67484" lon="4.64251">
        <ele>368.8</ele>
        <time>2025-04-30T16:29:33Z</time>
      </trkpt>
      <trkpt lat="45.67484" lon="4.64251">
        <ele>368.8</ele>
        <time>2025-04-30T16:29:34Z</time>
      </trkpt>
      <trkpt lat="45.67484" lon="4.64251">
        <ele>369</ele>
        <time>2025-04-30T16:29:35Z</time>
      </trkpt>
      <trkpt lat="45.67484" lon="4.64251">
        <ele>369</ele>
        <time>2025-04-30T16:29:36Z</time>
      </trkpt>
      <trkpt lat="45.67484" lon="4.64251">
        <ele>369.2</ele>
        <time>2025-04-30T16:29:37Z</time>
      </trkpt>
      <trkpt lat="45.67484" lon="4.64251">
        <ele>369.6</ele>
        <time>2025-04-30T16:29:38Z</time>
      </trkpt>
      <trkpt lat="45.67484" lon="4.64251">
        <ele>369.6</ele>
        <time>2025-04-30T16:29:39Z</time>
      </trkpt>
      <trkpt lat="45.67485" lon="4.64251">
        <ele>369.6</ele>
        <time>2025-04-30T16:29:40Z</time>
      </trkpt>
      <trkpt lat="45.67485" lon="4.64252">
        <ele>369.6</ele>
        <time>2025-04-30T16:29:41Z</time>
      </trkpt>
      <trkpt lat="45.67485" lon="4.64252">
        <ele>369.4</ele>
        <time>2025-04-30T16:29:42Z</time>
      </trkpt>
      <trkpt lat="45.67485" lon="4.64253">
        <ele>369.2</ele>
        <time>2025-04-30T16:29:43Z</time>
      </trkpt>
      <trkpt lat="45.67487" lon="4.64255">
        <ele>369.2</ele>
        <time>2025-04-30T16:29:44Z</time>
      </trkpt>
      <trkpt lat="45.67489" lon="4.64256">
        <ele>369</ele>
        <time>2025-04-30T16:29:45Z</time>
      </trkpt>
      <trkpt lat="45.67491" lon="4.64257">
        <ele>369</ele>
        <time>2025-04-30T16:29:46Z</time>
      </trkpt>
      <trkpt lat="45.67493" lon="4.64259">
        <ele>369</ele>
        <time>2025-04-30T16:29:47Z</time>
      </trkpt>
      <trkpt lat="45.67496" lon="4.6426">
        <ele>368.8</ele>
        <time>2025-04-30T16:29:48Z</time>
      </trkpt>
      <trkpt lat="45.67498" lon="4.64261">
        <ele>368.8</ele>
        <time>2025-04-30T16:29:49Z</time>
      </trkpt>
      <trkpt lat="45.67502" lon="4.64263">
        <ele>368.8</ele>
        <time>2025-04-30T16:29:50Z</time>
      </trkpt>
      <trkpt lat="45.67505" lon="4.64265">
        <ele>368.6</ele>
        <time>2025-04-30T16:29:51Z</time>
      </trkpt>
      <trkpt lat="45.67508" lon="4.64266">
        <ele>368.4</ele>
        <time>2025-04-30T16:29:52Z</time>
      </trkpt>
      <trkpt lat="45.67513" lon="4.64269">
        <ele>368</ele>
        <time>2025-04-30T16:29:53Z</time>
      </trkpt>
      <trkpt lat="45.67517" lon="4.64271">
        <ele>367.8</ele>
        <time>2025-04-30T16:29:54Z</time>
      </trkpt>
      <trkpt lat="45.6752" lon="4.64271">
        <ele>367.6</ele>
        <time>2025-04-30T16:29:55Z</time>
      </trkpt>
      <trkpt lat="45.67525" lon="4.64271">
        <ele>367.4</ele>
        <time>2025-04-30T16:29:56Z</time>
      </trkpt>
      <trkpt lat="45.6753" lon="4.64271">
        <ele>367.2</ele>
        <time>2025-04-30T16:29:57Z</time>
      </trkpt>
      <trkpt lat="45.67534" lon="4.64271">
        <ele>367</ele>
        <time>2025-04-30T16:29:58Z</time>
      </trkpt>
      <trkpt lat="45.67539" lon="4.64271">
        <ele>367</ele>
        <time>2025-04-30T16:29:59Z</time>
      </trkpt>
      <trkpt lat="45.67542" lon="4.64271">
        <ele>367</ele>
        <time>2025-04-30T16:30:00Z</time>
      </trkpt>
      <trkpt lat="45.67547" lon="4.64271">
        <ele>366.8</ele>
        <time>2025-04-30T16:30:01Z</time>
      </trkpt>
      <trkpt lat="45.67551" lon="4.6427">
        <ele>366.6</ele>
        <time>2025-04-30T16:30:02Z</time>
      </trkpt>
      <trkpt lat="45.67556" lon="4.64271">
        <ele>366.6</ele>
        <time>2025-04-30T16:30:03Z</time>
      </trkpt>
      <trkpt lat="45.67561" lon="4.64271">
        <ele>366.6</ele>
        <time>2025-04-30T16:30:04Z</time>
      </trkpt>
      <trkpt lat="45.67565" lon="4.64271">
        <ele>366.6</ele>
        <time>2025-04-30T16:30:05Z</time>
      </trkpt>
      <trkpt lat="45.6757" lon="4.64271">
        <ele>366.4</ele>
        <time>2025-04-30T16:30:06Z</time>
      </trkpt>
      <trkpt lat="45.67574" lon="4.64271">
        <ele>366.2</ele>
        <time>2025-04-30T16:30:07Z</time>
      </trkpt>
      <trkpt lat="45.67578" lon="4.64271">
        <ele>366</ele>
        <time>2025-04-30T16:30:08Z</time>
      </trkpt>
      <trkpt lat="45.67584" lon="4.64272">
        <ele>366</ele>
        <time>2025-04-30T16:30:09Z</time>
      </trkpt>
      <trkpt lat="45.67588" lon="4.64272">
        <ele>365.8</ele>
        <time>2025-04-30T16:30:10Z</time>
      </trkpt>
      <trkpt lat="45.67593" lon="4.64272">
        <ele>365.6</ele>
        <time>2025-04-30T16:30:11Z</time>
      </trkpt>
      <trkpt lat="45.67598" lon="4.64272">
        <ele>365.6</ele>
        <time>2025-04-30T16:30:12Z</time>
      </trkpt>
      <trkpt lat="45.67601" lon="4.64272">
        <ele>365.6</ele>
        <time>2025-04-30T16:30:13Z</time>
      </trkpt>
      <trkpt lat="45.67605" lon="4.64274">
        <ele>365.4</ele>
        <time>2025-04-30T16:30:14Z</time>
      </trkpt>
      <trkpt lat="45.67607" lon="4.64274">
        <ele>365.4</ele>
        <time>2025-04-30T16:30:15Z</time>
      </trkpt>
      <trkpt lat="45.67609" lon="4.64273">
        <ele>365.6</ele>
        <time>2025-04-30T16:30:16Z</time>
      </trkpt>
      <trkpt lat="45.6761" lon="4.64273">
        <ele>365.6</ele>
        <time>2025-04-30T16:30:17Z</time>
      </trkpt>
      <trkpt lat="45.6761" lon="4.64273">
        <ele>365.8</ele>
        <time>2025-04-30T16:30:18Z</time>
      </trkpt>
      <trkpt lat="45.6761" lon="4.64273">
        <ele>365.8</ele>
        <time>2025-04-30T16:30:19Z</time>
      </trkpt>
      <trkpt lat="45.6761" lon="4.64273">
        <ele>366</ele>
        <time>2025-04-30T16:30:20Z</time>
      </trkpt>
      <trkpt lat="45.6761" lon="4.64273">
        <ele>366</ele>
        <time>2025-04-30T16:30:21Z</time>
      </trkpt>
      <trkpt lat="45.6761" lon="4.64273">
        <ele>366</ele>
        <time>2025-04-30T16:30:22Z</time>
      </trkpt>
      <trkpt lat="45.6761" lon="4.64273">
        <ele>366</ele>
        <time>2025-04-30T16:30:23Z</time>
      </trkpt>
      <trkpt lat="45.6761" lon="4.64273">
        <ele>366</ele>
        <time>2025-04-30T16:30:24Z</time>
      </trkpt>
      <trkpt lat="45.67611" lon="4.64272">
        <ele>366</ele>
        <time>2025-04-30T16:30:25Z</time>
      </trkpt>
      <trkpt lat="45.67611" lon="4.6427">
        <ele>366</ele>
        <time>2025-04-30T16:30:26Z</time>
      </trkpt>
      <trkpt lat="45.67611" lon="4.64267">
        <ele>366</ele>
        <time>2025-04-30T16:30:27Z</time>
      </trkpt>
      <trkpt lat="45.67611" lon="4.64265">
        <ele>366</ele>
        <time>2025-04-30T16:30:28Z</time>
      </trkpt>
      <trkpt lat="45.67612" lon="4.64263">
        <ele>366</ele>
        <time>2025-04-30T16:30:29Z</time>
      </trkpt>
      <trkpt lat="45.67613" lon="4.64262">
        <ele>365.8</ele>
        <time>2025-04-30T16:30:30Z</time>
      </trkpt>
      <trkpt lat="45.67613" lon="4.64262">
        <ele>365.8</ele>
        <time>2025-04-30T16:30:31Z</time>
      </trkpt>
      <trkpt lat="45.67613" lon="4.64262">
        <ele>365.8</ele>
        <time>2025-04-30T16:30:32Z</time>
      </trkpt>
      <trkpt lat="45.67613" lon="4.64262">
        <ele>365.8</ele>
        <time>2025-04-30T16:30:33Z</time>
      </trkpt>
      <trkpt lat="45.67613" lon="4.64262">
        <ele>365.8</ele>
        <time>2025-04-30T16:30:34Z</time>
      </trkpt>
      <trkpt lat="45.67613" lon="4.64262">
        <ele>365.8</ele>
        <time>2025-04-30T16:30:35Z</time>
      </trkpt>
      <trkpt lat="45.67613" lon="4.64262">
        <ele>365.8</ele>
        <time>2025-04-30T16:30:36Z</time>
      </trkpt>
      <trkpt lat="45.67613" lon="4.64262">
        <ele>365.6</ele>
        <time>2025-04-30T16:30:37Z</time>
      </trkpt>
      <trkpt lat="45.67613" lon="4.64262">
        <ele>365.6</ele>
        <time>2025-04-30T16:30:38Z</time>
      </trkpt>
      <trkpt lat="45.67613" lon="4.64262">
        <ele>365.6</ele>
        <time>2025-04-30T16:30:39Z</time>
      </trkpt>
      <trkpt lat="45.67613" lon="4.64262">
        <ele>365.6</ele>
        <time>2025-04-30T16:30:40Z</time>
      </trkpt>
      <trkpt lat="45.67613" lon="4.64262">
        <ele>365.6</ele>
        <time>2025-04-30T16:30:41Z</time>
      </trkpt>
      <trkpt lat="45.67613" lon="4.64262">
        <ele>365.6</ele>
        <time>2025-04-30T16:30:42Z</time>
      </trkpt>
      <trkpt lat="45.67613" lon="4.64262">
        <ele>365.8</ele>
        <time>2025-04-30T16:30:43Z</time>
      </trkpt>
      <trkpt lat="45.67613" lon="4.64262">
        <ele>365.8</ele>
        <time>2025-04-30T16:30:44Z</time>
      </trkpt>
      <trkpt lat="45.67613" lon="4.64262">
        <ele>365.8</ele>
        <time>2025-04-30T16:30:45Z</time>
      </trkpt>
      <trkpt lat="45.67613" lon="4.64262">
        <ele>365.6</ele>
        <time>2025-04-30T16:30:46Z</time>
      </trkpt>
      <trkpt lat="45.67613" lon="4.64262">
        <ele>365.6</ele>
        <time>2025-04-30T16:30:47Z</time>
      </trkpt>
      <trkpt lat="45.67613" lon="4.64262">
        <ele>365.6</ele>
        <time>2025-04-30T16:30:48Z</time>
      </trkpt>
      <trkpt lat="45.67613" lon="4.64262">
        <ele>365.6</ele>
        <time>2025-04-30T16:30:49Z</time>
      </trkpt>
      <trkpt lat="45.67613" lon="4.64262">
        <ele>365.6</ele>
        <time>2025-04-30T16:30:50Z</time>
      </trkpt>
      <trkpt lat="45.67613" lon="4.64262">
        <ele>365.6</ele>
        <time>2025-04-30T16:30:51Z</time>
      </trkpt>
      <trkpt lat="45.67613" lon="4.64262">
        <ele>365.6</ele>
        <time>2025-04-30T16:30:52Z</time>
      </trkpt>
      <trkpt lat="45.67613" lon="4.64262">
        <ele>365.6</ele>
        <time>2025-04-30T16:30:53Z</time>
      </trkpt>
      <trkpt lat="45.67613" lon="4.64262">
        <ele>365.6</ele>
        <time>2025-04-30T16:30:54Z</time>
      </trkpt>
      <trkpt lat="45.67613" lon="4.64262">
        <ele>365.6</ele>
        <time>2025-04-30T16:30:55Z</time>
      </trkpt>
      <trkpt lat="45.67613" lon="4.64262">
        <ele>365.6</ele>
        <time>2025-04-30T16:30:56Z</time>
      </trkpt>
      <trkpt lat="45.67613" lon="4.64262">
        <ele>365.6</ele>
        <time>2025-04-30T16:30:57Z</time>
      </trkpt>
      <trkpt lat="45.67613" lon="4.64262">
        <ele>365.6</ele>
        <time>2025-04-30T16:30:58Z</time>
      </trkpt>
      <trkpt lat="45.67613" lon="4.64262">
        <ele>365.6</ele>
        <time>2025-04-30T16:30:59Z</time>
      </trkpt>
      <trkpt lat="45.67613" lon="4.64262">
        <ele>365.6</ele>
        <time>2025-04-30T16:31:00Z</time>
      </trkpt>
      <trkpt lat="45.67613" lon="4.64262">
        <ele>365.6</ele>
        <time>2025-04-30T16:31:01Z</time>
      </trkpt>
      <trkpt lat="45.67613" lon="4.64262">
        <ele>365.6</ele>
        <time>2025-04-30T16:31:02Z</time>
      </trkpt>
      <trkpt lat="45.67613" lon="4.64262">
        <ele>365.6</ele>
        <time>2025-04-30T16:31:03Z</time>
      </trkpt>
      <trkpt lat="45.67613" lon="4.64262">
        <ele>365.6</ele>
        <time>2025-04-30T16:31:04Z</time>
      </trkpt>
      <trkpt lat="45.67613" lon="4.64262">
        <ele>365.6</ele>
        <time>2025-04-30T16:31:05Z</time>
      </trkpt>
      <trkpt lat="45.67613" lon="4.64262">
        <ele>365.6</ele>
        <time>2025-04-30T16:31:06Z</time>
      </trkpt>
      <trkpt lat="45.67613" lon="4.64262">
        <ele>365.6</ele>
        <time>2025-04-30T16:31:07Z</time>
      </trkpt>
      <trkpt lat="45.67613" lon="4.64262">
        <ele>365.6</ele>
        <time>2025-04-30T16:31:08Z</time>
      </trkpt>
      <trkpt lat="45.67613" lon="4.64262">
        <ele>365.6</ele>
        <time>2025-04-30T16:31:09Z</time>
      </trkpt>
      <trkpt lat="45.67613" lon="4.64262">
        <ele>365.6</ele>
        <time>2025-04-30T16:31:10Z</time>
      </trkpt>
      <trkpt lat="45.67613" lon="4.64262">
        <ele>365.4</ele>
        <time>2025-04-30T16:31:11Z</time>
      </trkpt>
      <trkpt lat="45.67613" lon="4.64262">
        <ele>365.4</ele>
        <time>2025-04-30T16:31:12Z</time>
      </trkpt>
      <trkpt lat="45.67613" lon="4.64262">
        <ele>365.4</ele>
        <time>2025-04-30T16:31:13Z</time>
      </trkpt>
      <trkpt lat="45.67613" lon="4.64262">
        <ele>365.4</ele>
        <time>2025-04-30T16:31:14Z</time>
      </trkpt>
      <trkpt lat="45.67613" lon="4.64262">
        <ele>365.4</ele>
        <time>2025-04-30T16:31:15Z</time>
      </trkpt>
      <trkpt lat="45.67613" lon="4.64262">
        <ele>365.4</ele>
        <time>2025-04-30T16:31:16Z</time>
      </trkpt>
      <trkpt lat="45.67613" lon="4.64262">
        <ele>365.4</ele>
        <time>2025-04-30T16:31:17Z</time>
      </trkpt>
      <trkpt lat="45.67613" lon="4.64262">
        <ele>365.4</ele>
        <time>2025-04-30T16:31:18Z</time>
      </trkpt>
      <trkpt lat="45.67613" lon="4.64262">
        <ele>365.4</ele>
        <time>2025-04-30T16:31:19Z</time>
      </trkpt>
      <trkpt lat="45.67613" lon="4.64262">
        <ele>365.4</ele>
        <time>2025-04-30T16:31:20Z</time>
      </trkpt>
      <trkpt lat="45.67613" lon="4.64262">
        <ele>365.4</ele>
        <time>2025-04-30T16:31:21Z</time>
      </trkpt>
      <trkpt lat="45.67613" lon="4.64262">
        <ele>365.4</ele>
        <time>2025-04-30T16:31:22Z</time>
      </trkpt>
      <trkpt lat="45.67613" lon="4.64262">
        <ele>365.4</ele>
        <time>2025-04-30T16:31:23Z</time>
      </trkpt>
      <trkpt lat="45.67613" lon="4.64262">
        <ele>365.4</ele>
        <time>2025-04-30T16:31:24Z</time>
      </trkpt>
      <trkpt lat="45.67613" lon="4.64262">
        <ele>365.4</ele>
        <time>2025-04-30T16:31:25Z</time>
      </trkpt>
      <trkpt lat="45.67613" lon="4.64262">
        <ele>365.4</ele>
        <time>2025-04-30T16:31:26Z</time>
      </trkpt>
      <trkpt lat="45.67613" lon="4.64262">
        <ele>365.4</ele>
        <time>2025-04-30T16:31:27Z</time>
      </trkpt>
      <trkpt lat="45.67613" lon="4.64262">
        <ele>365.4</ele>
        <time>2025-04-30T16:31:28Z</time>
      </trkpt>
      <trkpt lat="45.67614" lon="4.64262">
        <ele>365.4</ele>
        <time>2025-04-30T16:31:29Z</time>
      </trkpt>
      <trkpt lat="45.67615" lon="4.64263">
        <ele>365.4</ele>
        <time>2025-04-30T16:31:30Z</time>
      </trkpt>
      <trkpt lat="45.67616" lon="4.64265">
        <ele>365.2</ele>
        <time>2025-04-30T16:31:31Z</time>
      </trkpt>
      <trkpt lat="45.67617" lon="4.64268">
        <ele>365.2</ele>
        <time>2025-04-30T16:31:32Z</time>
      </trkpt>
      <trkpt lat="45.67618" lon="4.64272">
        <ele>365</ele>
        <time>2025-04-30T16:31:33Z</time>
      </trkpt>
      <trkpt lat="45.67621" lon="4.64277">
        <ele>364.8</ele>
        <time>2025-04-30T16:31:34Z</time>
      </trkpt>
      <trkpt lat="45.67623" lon="4.64279">
        <ele>364.8</ele>
        <time>2025-04-30T16:31:35Z</time>
      </trkpt>
      <trkpt lat="45.67626" lon="4.64281">
        <ele>364.8</ele>
        <time>2025-04-30T16:31:36Z</time>
      </trkpt>
      <trkpt lat="45.67629" lon="4.64285">
        <ele>364.8</ele>
        <time>2025-04-30T16:31:37Z</time>
      </trkpt>
      <trkpt lat="45.67632" lon="4.64288">
        <ele>364.8</ele>
        <time>2025-04-30T16:31:38Z</time>
      </trkpt>
      <trkpt lat="45.67634" lon="4.64291">
        <ele>364.8</ele>
        <time>2025-04-30T16:31:39Z</time>
      </trkpt>
      <trkpt lat="45.67638" lon="4.64295">
        <ele>365</ele>
        <time>2025-04-30T16:31:40Z</time>
      </trkpt>
      <trkpt lat="45.6764" lon="4.64298">
        <ele>365.2</ele>
        <time>2025-04-30T16:31:41Z</time>
      </trkpt>
      <trkpt lat="45.67643" lon="4.64302">
        <ele>365.2</ele>
        <time>2025-04-30T16:31:42Z</time>
      </trkpt>
      <trkpt lat="45.67647" lon="4.64307">
        <ele>365.2</ele>
        <time>2025-04-30T16:31:43Z</time>
      </trkpt>
      <trkpt lat="45.6765" lon="4.64313">
        <ele>365.2</ele>
        <time>2025-04-30T16:31:44Z</time>
      </trkpt>
      <trkpt lat="45.67653" lon="4.64319">
        <ele>365</ele>
        <time>2025-04-30T16:31:45Z</time>
      </trkpt>
      <trkpt lat="45.67656" lon="4.64325">
        <ele>364.6</ele>
        <time>2025-04-30T16:31:46Z</time>
      </trkpt>
      <trkpt lat="45.6766" lon="4.64331">
        <ele>364.4</ele>
        <time>2025-04-30T16:31:47Z</time>
      </trkpt>
      <trkpt lat="45.67663" lon="4.64337">
        <ele>364</ele>
        <time>2025-04-30T16:31:48Z</time>
      </trkpt>
      <trkpt lat="45.67667" lon="4.64345">
        <ele>363.4</ele>
        <time>2025-04-30T16:31:49Z</time>
      </trkpt>
      <trkpt lat="45.67671" lon="4.64352">
        <ele>362.8</ele>
        <time>2025-04-30T16:31:50Z</time>
      </trkpt>
      <trkpt lat="45.67673" lon="4.64358">
        <ele>362.6</ele>
        <time>2025-04-30T16:31:51Z</time>
      </trkpt>
      <trkpt lat="45.67675" lon="4.64366">
        <ele>362.4</ele>
        <time>2025-04-30T16:31:52Z</time>
      </trkpt>
      <trkpt lat="45.67677" lon="4.64374">
        <ele>362.2</ele>
        <time>2025-04-30T16:31:53Z</time>
      </trkpt>
      <trkpt lat="45.67678" lon="4.64382">
        <ele>361.6</ele>
        <time>2025-04-30T16:31:54Z</time>
      </trkpt>
      <trkpt lat="45.6768" lon="4.64392">
        <ele>361.4</ele>
        <time>2025-04-30T16:31:55Z</time>
      </trkpt>
      <trkpt lat="45.67682" lon="4.644">
        <ele>360.6</ele>
        <time>2025-04-30T16:31:56Z</time>
      </trkpt>
      <trkpt lat="45.67684" lon="4.64406">
        <ele>360.2</ele>
        <time>2025-04-30T16:31:57Z</time>
      </trkpt>
      <trkpt lat="45.67687" lon="4.64415">
        <ele>359.8</ele>
        <time>2025-04-30T16:31:58Z</time>
      </trkpt>
      <trkpt lat="45.67689" lon="4.64422">
        <ele>359.6</ele>
        <time>2025-04-30T16:31:59Z</time>
      </trkpt>
      <trkpt lat="45.67691" lon="4.6443">
        <ele>359.6</ele>
        <time>2025-04-30T16:32:00Z</time>
      </trkpt>
      <trkpt lat="45.67694" lon="4.64437">
        <ele>359.6</ele>
        <time>2025-04-30T16:32:01Z</time>
      </trkpt>
      <trkpt lat="45.67698" lon="4.64443">
        <ele>359.6</ele>
        <time>2025-04-30T16:32:02Z</time>
      </trkpt>
      <trkpt lat="45.67702" lon="4.6445">
        <ele>359.4</ele>
        <time>2025-04-30T16:32:03Z</time>
      </trkpt>
      <trkpt lat="45.67706" lon="4.64458">
        <ele>359.4</ele>
        <time>2025-04-30T16:32:04Z</time>
      </trkpt>
      <trkpt lat="45.67709" lon="4.64466">
        <ele>359.4</ele>
        <time>2025-04-30T16:32:05Z</time>
      </trkpt>
      <trkpt lat="45.67712" lon="4.64476">
        <ele>359</ele>
        <time>2025-04-30T16:32:06Z</time>
      </trkpt>
      <trkpt lat="45.67713" lon="4.64485">
        <ele>358.4</ele>
        <time>2025-04-30T16:32:07Z</time>
      </trkpt>
      <trkpt lat="45.67715" lon="4.64495">
        <ele>358</ele>
        <time>2025-04-30T16:32:08Z</time>
      </trkpt>
      <trkpt lat="45.67718" lon="4.64505">
        <ele>357.6</ele>
        <time>2025-04-30T16:32:09Z</time>
      </trkpt>
      <trkpt lat="45.67722" lon="4.64516">
        <ele>356.8</ele>
        <time>2025-04-30T16:32:10Z</time>
      </trkpt>
      <trkpt lat="45.67726" lon="4.64526">
        <ele>356.2</ele>
        <time>2025-04-30T16:32:11Z</time>
      </trkpt>
      <trkpt lat="45.6773" lon="4.64537">
        <ele>355</ele>
        <time>2025-04-30T16:32:12Z</time>
      </trkpt>
      <trkpt lat="45.67734" lon="4.64549">
        <ele>354</ele>
        <time>2025-04-30T16:32:13Z</time>
      </trkpt>
      <trkpt lat="45.67739" lon="4.64561">
        <ele>353</ele>
        <time>2025-04-30T16:32:14Z</time>
      </trkpt>
      <trkpt lat="45.67743" lon="4.64573">
        <ele>352</ele>
        <time>2025-04-30T16:32:15Z</time>
      </trkpt>
      <trkpt lat="45.67747" lon="4.64586">
        <ele>350.8</ele>
        <time>2025-04-30T16:32:16Z</time>
      </trkpt>
      <trkpt lat="45.67751" lon="4.64598">
        <ele>349.4</ele>
        <time>2025-04-30T16:32:17Z</time>
      </trkpt>
      <trkpt lat="45.67754" lon="4.6461">
        <ele>347.8</ele>
        <time>2025-04-30T16:32:18Z</time>
      </trkpt>
      <trkpt lat="45.67758" lon="4.64622">
        <ele>346.6</ele>
        <time>2025-04-30T16:32:19Z</time>
      </trkpt>
      <trkpt lat="45.67761" lon="4.64633">
        <ele>345.6</ele>
        <time>2025-04-30T16:32:20Z</time>
      </trkpt>
      <trkpt lat="45.67764" lon="4.64646">
        <ele>344.8</ele>
        <time>2025-04-30T16:32:21Z</time>
      </trkpt>
      <trkpt lat="45.67768" lon="4.64658">
        <ele>344.2</ele>
        <time>2025-04-30T16:32:22Z</time>
      </trkpt>
      <trkpt lat="45.67771" lon="4.64671">
        <ele>343</ele>
        <time>2025-04-30T16:32:23Z</time>
      </trkpt>
      <trkpt lat="45.67774" lon="4.64684">
        <ele>342</ele>
        <time>2025-04-30T16:32:24Z</time>
      </trkpt>
      <trkpt lat="45.67778" lon="4.64695">
        <ele>341</ele>
        <time>2025-04-30T16:32:25Z</time>
      </trkpt>
      <trkpt lat="45.67781" lon="4.64705">
        <ele>340.2</ele>
        <time>2025-04-30T16:32:26Z</time>
      </trkpt>
      <trkpt lat="45.67783" lon="4.64715">
        <ele>339.8</ele>
        <time>2025-04-30T16:32:27Z</time>
      </trkpt>
      <trkpt lat="45.67783" lon="4.64725">
        <ele>339.6</ele>
        <time>2025-04-30T16:32:28Z</time>
      </trkpt>
      <trkpt lat="45.67784" lon="4.64734">
        <ele>339.6</ele>
        <time>2025-04-30T16:32:29Z</time>
      </trkpt>
      <trkpt lat="45.67785" lon="4.64744">
        <ele>339.6</ele>
        <time>2025-04-30T16:32:30Z</time>
      </trkpt>
      <trkpt lat="45.67786" lon="4.64753">
        <ele>339.4</ele>
        <time>2025-04-30T16:32:31Z</time>
      </trkpt>
      <trkpt lat="45.67788" lon="4.64762">
        <ele>339.2</ele>
        <time>2025-04-30T16:32:32Z</time>
      </trkpt>
      <trkpt lat="45.67789" lon="4.64772">
        <ele>339</ele>
        <time>2025-04-30T16:32:33Z</time>
      </trkpt>
      <trkpt lat="45.67791" lon="4.64782">
        <ele>338.6</ele>
        <time>2025-04-30T16:32:34Z</time>
      </trkpt>
      <trkpt lat="45.67793" lon="4.64791">
        <ele>338.4</ele>
        <time>2025-04-30T16:32:35Z</time>
      </trkpt>
      <trkpt lat="45.67797" lon="4.648">
        <ele>337.8</ele>
        <time>2025-04-30T16:32:36Z</time>
      </trkpt>
      <trkpt lat="45.678" lon="4.64809">
        <ele>336.8</ele>
        <time>2025-04-30T16:32:37Z</time>
      </trkpt>
      <trkpt lat="45.67804" lon="4.64818">
        <ele>336</ele>
        <time>2025-04-30T16:32:38Z</time>
      </trkpt>
      <trkpt lat="45.67807" lon="4.64826">
        <ele>334.6</ele>
        <time>2025-04-30T16:32:39Z</time>
      </trkpt>
      <trkpt lat="45.6781" lon="4.64834">
        <ele>333.4</ele>
        <time>2025-04-30T16:32:40Z</time>
      </trkpt>
      <trkpt lat="45.67812" lon="4.6484">
        <ele>332.6</ele>
        <time>2025-04-30T16:32:41Z</time>
      </trkpt>
      <trkpt lat="45.67812" lon="4.64844">
        <ele>332.2</ele>
        <time>2025-04-30T16:32:42Z</time>
      </trkpt>
      <trkpt lat="45.67813" lon="4.64847">
        <ele>331.8</ele>
        <time>2025-04-30T16:32:43Z</time>
      </trkpt>
      <trkpt lat="45.67813" lon="4.64847">
        <ele>331.8</ele>
        <time>2025-04-30T16:32:44Z</time>
      </trkpt>
      <trkpt lat="45.67813" lon="4.64847">
        <ele>331.8</ele>
        <time>2025-04-30T16:32:45Z</time>
      </trkpt>
      <trkpt lat="45.67813" lon="4.64847">
        <ele>331.8</ele>
        <time>2025-04-30T16:32:46Z</time>
      </trkpt>
      <trkpt lat="45.67813" lon="4.64847">
        <ele>331.8</ele>
        <time>2025-04-30T16:32:47Z</time>
      </trkpt>
      <trkpt lat="45.67813" lon="4.64847">
        <ele>331.8</ele>
        <time>2025-04-30T16:32:48Z</time>
      </trkpt>
      <trkpt lat="45.67813" lon="4.64847">
        <ele>331.8</ele>
        <time>2025-04-30T16:32:49Z</time>
      </trkpt>
      <trkpt lat="45.67813" lon="4.64847">
        <ele>331.8</ele>
        <time>2025-04-30T16:32:50Z</time>
      </trkpt>
      <trkpt lat="45.67813" lon="4.64847">
        <ele>331.8</ele>
        <time>2025-04-30T16:32:51Z</time>
      </trkpt>
      <trkpt lat="45.67813" lon="4.64847">
        <ele>331.8</ele>
        <time>2025-04-30T16:32:52Z</time>
      </trkpt>
      <trkpt lat="45.67813" lon="4.64847">
        <ele>331.8</ele>
        <time>2025-04-30T16:32:53Z</time>
      </trkpt>
      <trkpt lat="45.67813" lon="4.64847">
        <ele>331.8</ele>
        <time>2025-04-30T16:32:54Z</time>
      </trkpt>
      <trkpt lat="45.67813" lon="4.64847">
        <ele>331.6</ele>
        <time>2025-04-30T16:32:55Z</time>
      </trkpt>
      <trkpt lat="45.67813" lon="4.64847">
        <ele>331.6</ele>
        <time>2025-04-30T16:32:56Z</time>
      </trkpt>
      <trkpt lat="45.67812" lon="4.64847">
        <ele>331.6</ele>
        <time>2025-04-30T16:32:57Z</time>
      </trkpt>
      <trkpt lat="45.67812" lon="4.64848">
        <ele>331.6</ele>
        <time>2025-04-30T16:32:58Z</time>
      </trkpt>
      <trkpt lat="45.67813" lon="4.64849">
        <ele>331.6</ele>
        <time>2025-04-30T16:32:59Z</time>
      </trkpt>
      <trkpt lat="45.67814" lon="4.64852">
        <ele>331.6</ele>
        <time>2025-04-30T16:33:00Z</time>
      </trkpt>
      <trkpt lat="45.67815" lon="4.64854">
        <ele>331.4</ele>
        <time>2025-04-30T16:33:01Z</time>
      </trkpt>
      <trkpt lat="45.67818" lon="4.64856">
        <ele>331.4</ele>
        <time>2025-04-30T16:33:02Z</time>
      </trkpt>
      <trkpt lat="45.67821" lon="4.64859">
        <ele>331.2</ele>
        <time>2025-04-30T16:33:03Z</time>
      </trkpt>
      <trkpt lat="45.67825" lon="4.64862">
        <ele>331.2</ele>
        <time>2025-04-30T16:33:04Z</time>
      </trkpt>
      <trkpt lat="45.67829" lon="4.64866">
        <ele>331</ele>
        <time>2025-04-30T16:33:05Z</time>
      </trkpt>
      <trkpt lat="45.67834" lon="4.6487">
        <ele>330.6</ele>
        <time>2025-04-30T16:33:06Z</time>
      </trkpt>
      <trkpt lat="45.67838" lon="4.64874">
        <ele>330.4</ele>
        <time>2025-04-30T16:33:07Z</time>
      </trkpt>
      <trkpt lat="45.67842" lon="4.64877">
        <ele>330</ele>
        <time>2025-04-30T16:33:08Z</time>
      </trkpt>
      <trkpt lat="45.67848" lon="4.64882">
        <ele>329.8</ele>
        <time>2025-04-30T16:33:09Z</time>
      </trkpt>
      <trkpt lat="45.67853" lon="4.64886">
        <ele>329.2</ele>
        <time>2025-04-30T16:33:10Z</time>
      </trkpt>
      <trkpt lat="45.67857" lon="4.6489">
        <ele>329.2</ele>
        <time>2025-04-30T16:33:11Z</time>
      </trkpt>
      <trkpt lat="45.67862" lon="4.64896">
        <ele>328.4</ele>
        <time>2025-04-30T16:33:12Z</time>
      </trkpt>
      <trkpt lat="45.67867" lon="4.64904">
        <ele>328.2</ele>
        <time>2025-04-30T16:33:13Z</time>
      </trkpt>
      <trkpt lat="45.6787" lon="4.6491">
        <ele>328</ele>
        <time>2025-04-30T16:33:14Z</time>
      </trkpt>
      <trkpt lat="45.67875" lon="4.64919">
        <ele>327.6</ele>
        <time>2025-04-30T16:33:15Z</time>
      </trkpt>
      <trkpt lat="45.67879" lon="4.64927">
        <ele>327.4</ele>
        <time>2025-04-30T16:33:16Z</time>
      </trkpt>
      <trkpt lat="45.67883" lon="4.64933">
        <ele>327</ele>
        <time>2025-04-30T16:33:17Z</time>
      </trkpt>
      <trkpt lat="45.67887" lon="4.64942">
        <ele>326.6</ele>
        <time>2025-04-30T16:33:18Z</time>
      </trkpt>
      <trkpt lat="45.67891" lon="4.6495">
        <ele>326.6</ele>
        <time>2025-04-30T16:33:19Z</time>
      </trkpt>
      <trkpt lat="45.67894" lon="4.64957">
        <ele>326.4</ele>
        <time>2025-04-30T16:33:20Z</time>
      </trkpt>
      <trkpt lat="45.67899" lon="4.64966">
        <ele>326.4</ele>
        <time>2025-04-30T16:33:21Z</time>
      </trkpt>
      <trkpt lat="45.67903" lon="4.64973">
        <ele>326.2</ele>
        <time>2025-04-30T16:33:22Z</time>
      </trkpt>
      <trkpt lat="45.67906" lon="4.64979">
        <ele>326.2</ele>
        <time>2025-04-30T16:33:23Z</time>
      </trkpt>
      <trkpt lat="45.6791" lon="4.64987">
        <ele>326.2</ele>
        <time>2025-04-30T16:33:24Z</time>
      </trkpt>
      <trkpt lat="45.67914" lon="4.64994">
        <ele>326.2</ele>
        <time>2025-04-30T16:33:25Z</time>
      </trkpt>
      <trkpt lat="45.67917" lon="4.65">
        <ele>326.4</ele>
        <time>2025-04-30T16:33:26Z</time>
      </trkpt>
      <trkpt lat="45.67921" lon="4.65006">
        <ele>326.6</ele>
        <time>2025-04-30T16:33:27Z</time>
      </trkpt>
      <trkpt lat="45.67926" lon="4.65014">
        <ele>326.6</ele>
        <time>2025-04-30T16:33:28Z</time>
      </trkpt>
      <trkpt lat="45.67928" lon="4.6502">
        <ele>326.8</ele>
        <time>2025-04-30T16:33:29Z</time>
      </trkpt>
      <trkpt lat="45.67932" lon="4.65027">
        <ele>327</ele>
        <time>2025-04-30T16:33:30Z</time>
      </trkpt>
      <trkpt lat="45.67936" lon="4.65033">
        <ele>327.4</ele>
        <time>2025-04-30T16:33:31Z</time>
      </trkpt>
      <trkpt lat="45.6794" lon="4.65039">
        <ele>327.4</ele>
        <time>2025-04-30T16:33:32Z</time>
      </trkpt>
      <trkpt lat="45.67943" lon="4.65043">
        <ele>327.6</ele>
        <time>2025-04-30T16:33:33Z</time>
      </trkpt>
      <trkpt lat="45.67946" lon="4.65049">
        <ele>327.8</ele>
        <time>2025-04-30T16:33:34Z</time>
      </trkpt>
      <trkpt lat="45.67949" lon="4.65054">
        <ele>327.8</ele>
        <time>2025-04-30T16:33:35Z</time>
      </trkpt>
      <trkpt lat="45.67952" lon="4.6506">
        <ele>328</ele>
        <time>2025-04-30T16:33:36Z</time>
      </trkpt>
      <trkpt lat="45.67955" lon="4.65066">
        <ele>328</ele>
        <time>2025-04-30T16:33:37Z</time>
      </trkpt>
      <trkpt lat="45.67959" lon="4.65073">
        <ele>328</ele>
        <time>2025-04-30T16:33:38Z</time>
      </trkpt>
      <trkpt lat="45.67962" lon="4.6508">
        <ele>328</ele>
        <time>2025-04-30T16:33:39Z</time>
      </trkpt>
      <trkpt lat="45.67965" lon="4.65088">
        <ele>328</ele>
        <time>2025-04-30T16:33:40Z</time>
      </trkpt>
      <trkpt lat="45.67967" lon="4.65096">
        <ele>327.8</ele>
        <time>2025-04-30T16:33:41Z</time>
      </trkpt>
      <trkpt lat="45.6797" lon="4.65103">
        <ele>327.4</ele>
        <time>2025-04-30T16:33:42Z</time>
      </trkpt>
      <trkpt lat="45.67973" lon="4.65111">
        <ele>327.4</ele>
        <time>2025-04-30T16:33:43Z</time>
      </trkpt>
      <trkpt lat="45.67976" lon="4.65117">
        <ele>327.2</ele>
        <time>2025-04-30T16:33:44Z</time>
      </trkpt>
      <trkpt lat="45.67978" lon="4.65126">
        <ele>327.2</ele>
        <time>2025-04-30T16:33:45Z</time>
      </trkpt>
      <trkpt lat="45.67979" lon="4.65134">
        <ele>327.2</ele>
        <time>2025-04-30T16:33:46Z</time>
      </trkpt>
      <trkpt lat="45.67979" lon="4.65143">
        <ele>327.2</ele>
        <time>2025-04-30T16:33:47Z</time>
      </trkpt>
      <trkpt lat="45.67977" lon="4.65151">
        <ele>327.2</ele>
        <time>2025-04-30T16:33:48Z</time>
      </trkpt>
      <trkpt lat="45.67975" lon="4.65159">
        <ele>327.2</ele>
        <time>2025-04-30T16:33:49Z</time>
      </trkpt>
      <trkpt lat="45.67973" lon="4.65167">
        <ele>327.2</ele>
        <time>2025-04-30T16:33:50Z</time>
      </trkpt>
      <trkpt lat="45.67971" lon="4.65175">
        <ele>327.2</ele>
        <time>2025-04-30T16:33:51Z</time>
      </trkpt>
      <trkpt lat="45.6797" lon="4.65184">
        <ele>327.2</ele>
        <time>2025-04-30T16:33:52Z</time>
      </trkpt>
      <trkpt lat="45.67968" lon="4.65192">
        <ele>327.2</ele>
        <time>2025-04-30T16:33:53Z</time>
      </trkpt>
      <trkpt lat="45.67966" lon="4.652">
        <ele>327.2</ele>
        <time>2025-04-30T16:33:54Z</time>
      </trkpt>
      <trkpt lat="45.67965" lon="4.65207">
        <ele>327.2</ele>
        <time>2025-04-30T16:33:55Z</time>
      </trkpt>
      <trkpt lat="45.67964" lon="4.65214">
        <ele>327.4</ele>
        <time>2025-04-30T16:33:56Z</time>
      </trkpt>
      <trkpt lat="45.67962" lon="4.65222">
        <ele>327.4</ele>
        <time>2025-04-30T16:33:57Z</time>
      </trkpt>
      <trkpt lat="45.67961" lon="4.65232">
        <ele>327.6</ele>
        <time>2025-04-30T16:33:58Z</time>
      </trkpt>
      <trkpt lat="45.6796" lon="4.6524">
        <ele>327.8</ele>
        <time>2025-04-30T16:33:59Z</time>
      </trkpt>
      <trkpt lat="45.67959" lon="4.65248">
        <ele>328</ele>
        <time>2025-04-30T16:34:00Z</time>
      </trkpt>
      <trkpt lat="45.67958" lon="4.65256">
        <ele>328</ele>
        <time>2025-04-30T16:34:01Z</time>
      </trkpt>
      <trkpt lat="45.67957" lon="4.65263">
        <ele>328.2</ele>
        <time>2025-04-30T16:34:02Z</time>
      </trkpt>
      <trkpt lat="45.67956" lon="4.65272">
        <ele>328.2</ele>
        <time>2025-04-30T16:34:03Z</time>
      </trkpt>
      <trkpt lat="45.67954" lon="4.6528">
        <ele>328.2</ele>
        <time>2025-04-30T16:34:04Z</time>
      </trkpt>
      <trkpt lat="45.67953" lon="4.65288">
        <ele>328.2</ele>
        <time>2025-04-30T16:34:05Z</time>
      </trkpt>
      <trkpt lat="45.67953" lon="4.65296">
        <ele>328</ele>
        <time>2025-04-30T16:34:06Z</time>
      </trkpt>
      <trkpt lat="45.67952" lon="4.65304">
        <ele>328</ele>
        <time>2025-04-30T16:34:07Z</time>
      </trkpt>
      <trkpt lat="45.67952" lon="4.65313">
        <ele>328</ele>
        <time>2025-04-30T16:34:08Z</time>
      </trkpt>
      <trkpt lat="45.67952" lon="4.6532">
        <ele>328</ele>
        <time>2025-04-30T16:34:09Z</time>
      </trkpt>
      <trkpt lat="45.67952" lon="4.6533">
        <ele>328</ele>
        <time>2025-04-30T16:34:10Z</time>
      </trkpt>
      <trkpt lat="45.67952" lon="4.65337">
        <ele>328</ele>
        <time>2025-04-30T16:34:11Z</time>
      </trkpt>
      <trkpt lat="45.67952" lon="4.65345">
        <ele>328</ele>
        <time>2025-04-30T16:34:12Z</time>
      </trkpt>
      <trkpt lat="45.67952" lon="4.65356">
        <ele>328</ele>
        <time>2025-04-30T16:34:13Z</time>
      </trkpt>
      <trkpt lat="45.67952" lon="4.65363">
        <ele>328</ele>
        <time>2025-04-30T16:34:14Z</time>
      </trkpt>
      <trkpt lat="45.67953" lon="4.65373">
        <ele>327.8</ele>
        <time>2025-04-30T16:34:15Z</time>
      </trkpt>
      <trkpt lat="45.67953" lon="4.65381">
        <ele>327.8</ele>
        <time>2025-04-30T16:34:16Z</time>
      </trkpt>
      <trkpt lat="45.67953" lon="4.6539">
        <ele>327.6</ele>
        <time>2025-04-30T16:34:17Z</time>
      </trkpt>
      <trkpt lat="45.67953" lon="4.65399">
        <ele>327.4</ele>
        <time>2025-04-30T16:34:18Z</time>
      </trkpt>
      <trkpt lat="45.67954" lon="4.65408">
        <ele>327.4</ele>
        <time>2025-04-30T16:34:19Z</time>
      </trkpt>
      <trkpt lat="45.67954" lon="4.65417">
        <ele>327.4</ele>
        <time>2025-04-30T16:34:20Z</time>
      </trkpt>
      <trkpt lat="45.67954" lon="4.65427">
        <ele>327.2</ele>
        <time>2025-04-30T16:34:21Z</time>
      </trkpt>
      <trkpt lat="45.67955" lon="4.65439">
        <ele>327.2</ele>
        <time>2025-04-30T16:34:22Z</time>
      </trkpt>
      <trkpt lat="45.67955" lon="4.65448">
        <ele>327.2</ele>
        <time>2025-04-30T16:34:23Z</time>
      </trkpt>
      <trkpt lat="45.67955" lon="4.65456">
        <ele>326.8</ele>
        <time>2025-04-30T16:34:24Z</time>
      </trkpt>
      <trkpt lat="45.67955" lon="4.65468">
        <ele>326.6</ele>
        <time>2025-04-30T16:34:25Z</time>
      </trkpt>
      <trkpt lat="45.67955" lon="4.65478">
        <ele>326.2</ele>
        <time>2025-04-30T16:34:26Z</time>
      </trkpt>
      <trkpt lat="45.67955" lon="4.65486">
        <ele>325.8</ele>
        <time>2025-04-30T16:34:27Z</time>
      </trkpt>
      <trkpt lat="45.67955" lon="4.65495">
        <ele>325.6</ele>
        <time>2025-04-30T16:34:28Z</time>
      </trkpt>
      <trkpt lat="45.67954" lon="4.65507">
        <ele>325.6</ele>
        <time>2025-04-30T16:34:29Z</time>
      </trkpt>
      <trkpt lat="45.67954" lon="4.65515">
        <ele>325.6</ele>
        <time>2025-04-30T16:34:30Z</time>
      </trkpt>
      <trkpt lat="45.67952" lon="4.65526">
        <ele>325.4</ele>
        <time>2025-04-30T16:34:31Z</time>
      </trkpt>
      <trkpt lat="45.67951" lon="4.65536">
        <ele>325.2</ele>
        <time>2025-04-30T16:34:32Z</time>
      </trkpt>
      <trkpt lat="45.6795" lon="4.65543">
        <ele>325</ele>
        <time>2025-04-30T16:34:33Z</time>
      </trkpt>
      <trkpt lat="45.67949" lon="4.65555">
        <ele>325</ele>
        <time>2025-04-30T16:34:34Z</time>
      </trkpt>
      <trkpt lat="45.67947" lon="4.65564">
        <ele>324.8</ele>
        <time>2025-04-30T16:34:35Z</time>
      </trkpt>
      <trkpt lat="45.67946" lon="4.65572">
        <ele>324.6</ele>
        <time>2025-04-30T16:34:36Z</time>
      </trkpt>
      <trkpt lat="45.67944" lon="4.65581">
        <ele>324.4</ele>
        <time>2025-04-30T16:34:37Z</time>
      </trkpt>
      <trkpt lat="45.67942" lon="4.65592">
        <ele>324.2</ele>
        <time>2025-04-30T16:34:38Z</time>
      </trkpt>
      <trkpt lat="45.6794" lon="4.65601">
        <ele>324.2</ele>
        <time>2025-04-30T16:34:39Z</time>
      </trkpt>
      <trkpt lat="45.67937" lon="4.6561">
        <ele>324</ele>
        <time>2025-04-30T16:34:40Z</time>
      </trkpt>
      <trkpt lat="45.67934" lon="4.65619">
        <ele>323.8</ele>
        <time>2025-04-30T16:34:41Z</time>
      </trkpt>
      <trkpt lat="45.67931" lon="4.65628">
        <ele>323.8</ele>
        <time>2025-04-30T16:34:42Z</time>
      </trkpt>
      <trkpt lat="45.67929" lon="4.65638">
        <ele>323.4</ele>
        <time>2025-04-30T16:34:43Z</time>
      </trkpt>
      <trkpt lat="45.67926" lon="4.65646">
        <ele>323</ele>
        <time>2025-04-30T16:34:44Z</time>
      </trkpt>
      <trkpt lat="45.67924" lon="4.65653">
        <ele>322.8</ele>
        <time>2025-04-30T16:34:45Z</time>
      </trkpt>
      <trkpt lat="45.6792" lon="4.65664">
        <ele>322.4</ele>
        <time>2025-04-30T16:34:46Z</time>
      </trkpt>
      <trkpt lat="45.67918" lon="4.65673">
        <ele>322.4</ele>
        <time>2025-04-30T16:34:47Z</time>
      </trkpt>
      <trkpt lat="45.67915" lon="4.65682">
        <ele>322.2</ele>
        <time>2025-04-30T16:34:48Z</time>
      </trkpt>
      <trkpt lat="45.67912" lon="4.65691">
        <ele>322</ele>
        <time>2025-04-30T16:34:49Z</time>
      </trkpt>
      <trkpt lat="45.67911" lon="4.65701">
        <ele>322</ele>
        <time>2025-04-30T16:34:50Z</time>
      </trkpt>
      <trkpt lat="45.67909" lon="4.65708">
        <ele>321.8</ele>
        <time>2025-04-30T16:34:51Z</time>
      </trkpt>
      <trkpt lat="45.67907" lon="4.6572">
        <ele>321.4</ele>
        <time>2025-04-30T16:34:52Z</time>
      </trkpt>
      <trkpt lat="45.67906" lon="4.65728">
        <ele>321.4</ele>
        <time>2025-04-30T16:34:53Z</time>
      </trkpt>
      <trkpt lat="45.67905" lon="4.65738">
        <ele>321.2</ele>
        <time>2025-04-30T16:34:54Z</time>
      </trkpt>
      <trkpt lat="45.67905" lon="4.6575">
        <ele>321.2</ele>
        <time>2025-04-30T16:34:55Z</time>
      </trkpt>
      <trkpt lat="45.67905" lon="4.6576">
        <ele>321</ele>
        <time>2025-04-30T16:34:56Z</time>
      </trkpt>
      <trkpt lat="45.67906" lon="4.65768">
        <ele>320.8</ele>
        <time>2025-04-30T16:34:57Z</time>
      </trkpt>
      <trkpt lat="45.67908" lon="4.6578">
        <ele>320.2</ele>
        <time>2025-04-30T16:34:58Z</time>
      </trkpt>
      <trkpt lat="45.67909" lon="4.65787">
        <ele>320</ele>
        <time>2025-04-30T16:34:59Z</time>
      </trkpt>
      <trkpt lat="45.6791" lon="4.65797">
        <ele>319.8</ele>
        <time>2025-04-30T16:35:00Z</time>
      </trkpt>
      <trkpt lat="45.67912" lon="4.65806">
        <ele>319.8</ele>
        <time>2025-04-30T16:35:01Z</time>
      </trkpt>
      <trkpt lat="45.67913" lon="4.65815">
        <ele>319.6</ele>
        <time>2025-04-30T16:35:02Z</time>
      </trkpt>
      <trkpt lat="45.67914" lon="4.65823">
        <ele>319.4</ele>
        <time>2025-04-30T16:35:03Z</time>
      </trkpt>
      <trkpt lat="45.67914" lon="4.6583">
        <ele>319.4</ele>
        <time>2025-04-30T16:35:04Z</time>
      </trkpt>
      <trkpt lat="45.67914" lon="4.65836">
        <ele>319.4</ele>
        <time>2025-04-30T16:35:05Z</time>
      </trkpt>
      <trkpt lat="45.67913" lon="4.65842">
        <ele>319.4</ele>
        <time>2025-04-30T16:35:06Z</time>
      </trkpt>
      <trkpt lat="45.67914" lon="4.65846">
        <ele>319.6</ele>
        <time>2025-04-30T16:35:07Z</time>
      </trkpt>
      <trkpt lat="45.67914" lon="4.65847">
        <ele>319.8</ele>
        <time>2025-04-30T16:35:08Z</time>
      </trkpt>
      <trkpt lat="45.67914" lon="4.65848">
        <ele>320.2</ele>
        <time>2025-04-30T16:35:09Z</time>
      </trkpt>
      <trkpt lat="45.67914" lon="4.65848">
        <ele>320.4</ele>
        <time>2025-04-30T16:35:10Z</time>
      </trkpt>
      <trkpt lat="45.67914" lon="4.65848">
        <ele>320.8</ele>
        <time>2025-04-30T16:35:11Z</time>
      </trkpt>
      <trkpt lat="45.67914" lon="4.65848">
        <ele>321.2</ele>
        <time>2025-04-30T16:35:12Z</time>
      </trkpt>
      <trkpt lat="45.67914" lon="4.65848">
        <ele>321.2</ele>
        <time>2025-04-30T16:35:13Z</time>
      </trkpt>
      <trkpt lat="45.67914" lon="4.65848">
        <ele>321.4</ele>
        <time>2025-04-30T16:35:14Z</time>
      </trkpt>
      <trkpt lat="45.67914" lon="4.65848">
        <ele>321.4</ele>
        <time>2025-04-30T16:35:15Z</time>
      </trkpt>
      <trkpt lat="45.67914" lon="4.65848">
        <ele>321.4</ele>
        <time>2025-04-30T16:35:16Z</time>
      </trkpt>
      <trkpt lat="45.67914" lon="4.65848">
        <ele>321.4</ele>
        <time>2025-04-30T16:35:17Z</time>
      </trkpt>
      <trkpt lat="45.67914" lon="4.65848">
        <ele>321.4</ele>
        <time>2025-04-30T16:35:18Z</time>
      </trkpt>
      <trkpt lat="45.67914" lon="4.65848">
        <ele>321.4</ele>
        <time>2025-04-30T16:35:19Z</time>
      </trkpt>
      <trkpt lat="45.67914" lon="4.65848">
        <ele>321.4</ele>
        <time>2025-04-30T16:35:20Z</time>
      </trkpt>
      <trkpt lat="45.67914" lon="4.65848">
        <ele>321.4</ele>
        <time>2025-04-30T16:35:21Z</time>
      </trkpt>
      <trkpt lat="45.67914" lon="4.65848">
        <ele>321.4</ele>
        <time>2025-04-30T16:35:22Z</time>
      </trkpt>
      <trkpt lat="45.67914" lon="4.65848">
        <ele>321.4</ele>
        <time>2025-04-30T16:35:23Z</time>
      </trkpt>
      <trkpt lat="45.67914" lon="4.65848">
        <ele>321.4</ele>
        <time>2025-04-30T16:35:24Z</time>
      </trkpt>
      <trkpt lat="45.67914" lon="4.65848">
        <ele>321.4</ele>
        <time>2025-04-30T16:35:25Z</time>
      </trkpt>
      <trkpt lat="45.67914" lon="4.65848">
        <ele>321.4</ele>
        <time>2025-04-30T16:35:26Z</time>
      </trkpt>
      <trkpt lat="45.67914" lon="4.65848">
        <ele>321.4</ele>
        <time>2025-04-30T16:35:27Z</time>
      </trkpt>
      <trkpt lat="45.67914" lon="4.65848">
        <ele>321.4</ele>
        <time>2025-04-30T16:35:28Z</time>
      </trkpt>
      <trkpt lat="45.67914" lon="4.65848">
        <ele>321.4</ele>
        <time>2025-04-30T16:35:29Z</time>
      </trkpt>
      <trkpt lat="45.67914" lon="4.65848">
        <ele>321.4</ele>
        <time>2025-04-30T16:35:30Z</time>
      </trkpt>
      <trkpt lat="45.67914" lon="4.65848">
        <ele>321.4</ele>
        <time>2025-04-30T16:35:31Z</time>
      </trkpt>
      <trkpt lat="45.67914" lon="4.65849">
        <ele>321.4</ele>
        <time>2025-04-30T16:35:32Z</time>
      </trkpt>
      <trkpt lat="45.67914" lon="4.6585">
        <ele>321.4</ele>
        <time>2025-04-30T16:35:33Z</time>
      </trkpt>
      <trkpt lat="45.67915" lon="4.65852">
        <ele>321.4</ele>
        <time>2025-04-30T16:35:34Z</time>
      </trkpt>
      <trkpt lat="45.67916" lon="4.65856">
        <ele>321.4</ele>
        <time>2025-04-30T16:35:35Z</time>
      </trkpt>
      <trkpt lat="45.67916" lon="4.6586">
        <ele>321.4</ele>
        <time>2025-04-30T16:35:36Z</time>
      </trkpt>
      <trkpt lat="45.67917" lon="4.65865">
        <ele>321.2</ele>
        <time>2025-04-30T16:35:37Z</time>
      </trkpt>
      <trkpt lat="45.67916" lon="4.65871">
        <ele>321</ele>
        <time>2025-04-30T16:35:38Z</time>
      </trkpt>
      <trkpt lat="45.67914" lon="4.65877">
        <ele>320.6</ele>
        <time>2025-04-30T16:35:39Z</time>
      </trkpt>
      <trkpt lat="45.67909" lon="4.65883">
        <ele>320.2</ele>
        <time>2025-04-30T16:35:40Z</time>
      </trkpt>
      <trkpt lat="45.67905" lon="4.65887">
        <ele>320</ele>
        <time>2025-04-30T16:35:41Z</time>
      </trkpt>
      <trkpt lat="45.67899" lon="4.65892">
        <ele>319.8</ele>
        <time>2025-04-30T16:35:42Z</time>
      </trkpt>
      <trkpt lat="45.67895" lon="4.65898">
        <ele>319.6</ele>
        <time>2025-04-30T16:35:43Z</time>
      </trkpt>
      <trkpt lat="45.67892" lon="4.65906">
        <ele>319.4</ele>
        <time>2025-04-30T16:35:44Z</time>
      </trkpt>
      <trkpt lat="45.67891" lon="4.65914">
        <ele>319.2</ele>
        <time>2025-04-30T16:35:45Z</time>
      </trkpt>
      <trkpt lat="45.67891" lon="4.65923">
        <ele>319.2</ele>
        <time>2025-04-30T16:35:46Z</time>
      </trkpt>
      <trkpt lat="45.67891" lon="4.65932">
        <ele>319</ele>
        <time>2025-04-30T16:35:47Z</time>
      </trkpt>
      <trkpt lat="45.6789" lon="4.65941">
        <ele>319</ele>
        <time>2025-04-30T16:35:48Z</time>
      </trkpt>
      <trkpt lat="45.67888" lon="4.65951">
        <ele>319</ele>
        <time>2025-04-30T16:35:49Z</time>
      </trkpt>
      <trkpt lat="45.67885" lon="4.65961">
        <ele>318.8</ele>
        <time>2025-04-30T16:35:50Z</time>
      </trkpt>
      <trkpt lat="45.67882" lon="4.6597">
        <ele>318.8</ele>
        <time>2025-04-30T16:35:51Z</time>
      </trkpt>
      <trkpt lat="45.67879" lon="4.65979">
        <ele>318.4</ele>
        <time>2025-04-30T16:35:52Z</time>
      </trkpt>
      <trkpt lat="45.67876" lon="4.65989">
        <ele>317.8</ele>
        <time>2025-04-30T16:35:53Z</time>
      </trkpt>
      <trkpt lat="45.67874" lon="4.65998">
        <ele>317</ele>
        <time>2025-04-30T16:35:54Z</time>
      </trkpt>
      <trkpt lat="45.67873" lon="4.66008">
        <ele>316.6</ele>
        <time>2025-04-30T16:35:55Z</time>
      </trkpt>
      <trkpt lat="45.67873" lon="4.66017">
        <ele>316.6</ele>
        <time>2025-04-30T16:35:56Z</time>
      </trkpt>
      <trkpt lat="45.67873" lon="4.66025">
        <ele>316.6</ele>
        <time>2025-04-30T16:35:57Z</time>
      </trkpt>
      <trkpt lat="45.67873" lon="4.66036">
        <ele>316.6</ele>
        <time>2025-04-30T16:35:58Z</time>
      </trkpt>
      <trkpt lat="45.67874" lon="4.66045">
        <ele>316.8</ele>
        <time>2025-04-30T16:35:59Z</time>
      </trkpt>
      <trkpt lat="45.67875" lon="4.66054">
        <ele>317</ele>
        <time>2025-04-30T16:36:00Z</time>
      </trkpt>
      <trkpt lat="45.67876" lon="4.66061">
        <ele>317.2</ele>
        <time>2025-04-30T16:36:01Z</time>
      </trkpt>
      <trkpt lat="45.67877" lon="4.6607">
        <ele>317.6</ele>
        <time>2025-04-30T16:36:02Z</time>
      </trkpt>
      <trkpt lat="45.67878" lon="4.66079">
        <ele>317.6</ele>
        <time>2025-04-30T16:36:03Z</time>
      </trkpt>
      <trkpt lat="45.67879" lon="4.6609">
        <ele>317.6</ele>
        <time>2025-04-30T16:36:04Z</time>
      </trkpt>
      <trkpt lat="45.67881" lon="4.66099">
        <ele>317.8</ele>
        <time>2025-04-30T16:36:05Z</time>
      </trkpt>
      <trkpt lat="45.67882" lon="4.66108">
        <ele>317.8</ele>
        <time>2025-04-30T16:36:06Z</time>
      </trkpt>
      <trkpt lat="45.67883" lon="4.66117">
        <ele>317.8</ele>
        <time>2025-04-30T16:36:07Z</time>
      </trkpt>
      <trkpt lat="45.67884" lon="4.66126">
        <ele>317.8</ele>
        <time>2025-04-30T16:36:08Z</time>
      </trkpt>
      <trkpt lat="45.67885" lon="4.66135">
        <ele>317.6</ele>
        <time>2025-04-30T16:36:09Z</time>
      </trkpt>
      <trkpt lat="45.67886" lon="4.66144">
        <ele>317.6</ele>
        <time>2025-04-30T16:36:10Z</time>
      </trkpt>
      <trkpt lat="45.67887" lon="4.66153">
        <ele>317.6</ele>
        <time>2025-04-30T16:36:11Z</time>
      </trkpt>
      <trkpt lat="45.67888" lon="4.66162">
        <ele>317.6</ele>
        <time>2025-04-30T16:36:12Z</time>
      </trkpt>
      <trkpt lat="45.67889" lon="4.66171">
        <ele>317.6</ele>
        <time>2025-04-30T16:36:13Z</time>
      </trkpt>
      <trkpt lat="45.67889" lon="4.66179">
        <ele>317.6</ele>
        <time>2025-04-30T16:36:14Z</time>
      </trkpt>
      <trkpt lat="45.6789" lon="4.66187">
        <ele>317.8</ele>
        <time>2025-04-30T16:36:15Z</time>
      </trkpt>
      <trkpt lat="45.6789" lon="4.66195">
        <ele>318</ele>
        <time>2025-04-30T16:36:16Z</time>
      </trkpt>
      <trkpt lat="45.6789" lon="4.66203">
        <ele>318.4</ele>
        <time>2025-04-30T16:36:17Z</time>
      </trkpt>
      <trkpt lat="45.67891" lon="4.66209">
        <ele>318.8</ele>
        <time>2025-04-30T16:36:18Z</time>
      </trkpt>
      <trkpt lat="45.67891" lon="4.66217">
        <ele>319</ele>
        <time>2025-04-30T16:36:19Z</time>
      </trkpt>
      <trkpt lat="45.67892" lon="4.66224">
        <ele>319.4</ele>
        <time>2025-04-30T16:36:20Z</time>
      </trkpt>
      <trkpt lat="45.67892" lon="4.6623">
        <ele>320</ele>
        <time>2025-04-30T16:36:21Z</time>
      </trkpt>
      <trkpt lat="45.67892" lon="4.66236">
        <ele>320.4</ele>
        <time>2025-04-30T16:36:22Z</time>
      </trkpt>
      <trkpt lat="45.67893" lon="4.66242">
        <ele>320.8</ele>
        <time>2025-04-30T16:36:23Z</time>
      </trkpt>
      <trkpt lat="45.67893" lon="4.66247">
        <ele>320.8</ele>
        <time>2025-04-30T16:36:24Z</time>
      </trkpt>
      <trkpt lat="45.67893" lon="4.66252">
        <ele>321</ele>
        <time>2025-04-30T16:36:25Z</time>
      </trkpt>
      <trkpt lat="45.67894" lon="4.66258">
        <ele>321.4</ele>
        <time>2025-04-30T16:36:26Z</time>
      </trkpt>
      <trkpt lat="45.67896" lon="4.66262">
        <ele>321.6</ele>
        <time>2025-04-30T16:36:27Z</time>
      </trkpt>
      <trkpt lat="45.67899" lon="4.66268">
        <ele>322</ele>
        <time>2025-04-30T16:36:28Z</time>
      </trkpt>
      <trkpt lat="45.679" lon="4.66274">
        <ele>322.2</ele>
        <time>2025-04-30T16:36:29Z</time>
      </trkpt>
      <trkpt lat="45.679" lon="4.6628">
        <ele>322.2</ele>
        <time>2025-04-30T16:36:30Z</time>
      </trkpt>
      <trkpt lat="45.679" lon="4.66285">
        <ele>322.2</ele>
        <time>2025-04-30T16:36:31Z</time>
      </trkpt>
      <trkpt lat="45.679" lon="4.66292">
        <ele>322.4</ele>
        <time>2025-04-30T16:36:32Z</time>
      </trkpt>
      <trkpt lat="45.679" lon="4.66297">
        <ele>322.6</ele>
        <time>2025-04-30T16:36:33Z</time>
      </trkpt>
      <trkpt lat="45.67901" lon="4.66301">
        <ele>322.8</ele>
        <time>2025-04-30T16:36:34Z</time>
      </trkpt>
      <trkpt lat="45.67903" lon="4.66306">
        <ele>323.2</ele>
        <time>2025-04-30T16:36:35Z</time>
      </trkpt>
      <trkpt lat="45.67906" lon="4.6631">
        <ele>323.6</ele>
        <time>2025-04-30T16:36:36Z</time>
      </trkpt>
      <trkpt lat="45.67907" lon="4.66314">
        <ele>323.8</ele>
        <time>2025-04-30T16:36:37Z</time>
      </trkpt>
      <trkpt lat="45.67909" lon="4.66319">
        <ele>324</ele>
        <time>2025-04-30T16:36:38Z</time>
      </trkpt>
      <trkpt lat="45.6791" lon="4.66325">
        <ele>324</ele>
        <time>2025-04-30T16:36:39Z</time>
      </trkpt>
      <trkpt lat="45.6791" lon="4.66329">
        <ele>324</ele>
        <time>2025-04-30T16:36:40Z</time>
      </trkpt>
      <trkpt lat="45.6791" lon="4.66334">
        <ele>324.2</ele>
        <time>2025-04-30T16:36:41Z</time>
      </trkpt>
      <trkpt lat="45.6791" lon="4.66341">
        <ele>324.4</ele>
        <time>2025-04-30T16:36:42Z</time>
      </trkpt>
      <trkpt lat="45.6791" lon="4.66345">
        <ele>324.6</ele>
        <time>2025-04-30T16:36:43Z</time>
      </trkpt>
      <trkpt lat="45.6791" lon="4.66351">
        <ele>324.8</ele>
        <time>2025-04-30T16:36:44Z</time>
      </trkpt>
      <trkpt lat="45.67911" lon="4.66355">
        <ele>325</ele>
        <time>2025-04-30T16:36:45Z</time>
      </trkpt>
      <trkpt lat="45.67911" lon="4.6636">
        <ele>325.2</ele>
        <time>2025-04-30T16:36:46Z</time>
      </trkpt>
      <trkpt lat="45.67911" lon="4.66365">
        <ele>325.4</ele>
        <time>2025-04-30T16:36:47Z</time>
      </trkpt>
      <trkpt lat="45.6791" lon="4.6637">
        <ele>325.6</ele>
        <time>2025-04-30T16:36:48Z</time>
      </trkpt>
      <trkpt lat="45.6791" lon="4.66374">
        <ele>325.8</ele>
        <time>2025-04-30T16:36:49Z</time>
      </trkpt>
      <trkpt lat="45.67911" lon="4.6638">
        <ele>326</ele>
        <time>2025-04-30T16:36:50Z</time>
      </trkpt>
      <trkpt lat="45.67911" lon="4.66385">
        <ele>326.2</ele>
        <time>2025-04-30T16:36:51Z</time>
      </trkpt>
      <trkpt lat="45.67911" lon="4.66389">
        <ele>326.2</ele>
        <time>2025-04-30T16:36:52Z</time>
      </trkpt>
      <trkpt lat="45.67912" lon="4.66395">
        <ele>326.6</ele>
        <time>2025-04-30T16:36:53Z</time>
      </trkpt>
      <trkpt lat="45.67913" lon="4.66399">
        <ele>326.6</ele>
        <time>2025-04-30T16:36:54Z</time>
      </trkpt>
      <trkpt lat="45.67914" lon="4.66405">
        <ele>326.6</ele>
        <time>2025-04-30T16:36:55Z</time>
      </trkpt>
      <trkpt lat="45.67916" lon="4.66412">
        <ele>326.6</ele>
        <time>2025-04-30T16:36:56Z</time>
      </trkpt>
      <trkpt lat="45.67918" lon="4.66417">
        <ele>326.6</ele>
        <time>2025-04-30T16:36:57Z</time>
      </trkpt>
      <trkpt lat="45.6792" lon="4.66422">
        <ele>326.4</ele>
        <time>2025-04-30T16:36:58Z</time>
      </trkpt>
      <trkpt lat="45.67922" lon="4.66429">
        <ele>326.4</ele>
        <time>2025-04-30T16:36:59Z</time>
      </trkpt>
      <trkpt lat="45.67924" lon="4.66435">
        <ele>326.2</ele>
        <time>2025-04-30T16:37:00Z</time>
      </trkpt>
      <trkpt lat="45.67925" lon="4.66441">
        <ele>326.2</ele>
        <time>2025-04-30T16:37:01Z</time>
      </trkpt>
      <trkpt lat="45.67927" lon="4.66448">
        <ele>326.2</ele>
        <time>2025-04-30T16:37:02Z</time>
      </trkpt>
      <trkpt lat="45.67929" lon="4.66455">
        <ele>326</ele>
        <time>2025-04-30T16:37:03Z</time>
      </trkpt>
      <trkpt lat="45.67931" lon="4.6646">
        <ele>325.8</ele>
        <time>2025-04-30T16:37:04Z</time>
      </trkpt>
      <trkpt lat="45.67934" lon="4.66469">
        <ele>325.8</ele>
        <time>2025-04-30T16:37:05Z</time>
      </trkpt>
      <trkpt lat="45.67936" lon="4.66475">
        <ele>325.6</ele>
        <time>2025-04-30T16:37:06Z</time>
      </trkpt>
      <trkpt lat="45.67938" lon="4.66482">
        <ele>325.6</ele>
        <time>2025-04-30T16:37:07Z</time>
      </trkpt>
      <trkpt lat="45.6794" lon="4.66488">
        <ele>325.2</ele>
        <time>2025-04-30T16:37:08Z</time>
      </trkpt>
      <trkpt lat="45.67942" lon="4.66497">
        <ele>325</ele>
        <time>2025-04-30T16:37:09Z</time>
      </trkpt>
      <trkpt lat="45.67944" lon="4.66502">
        <ele>324.8</ele>
        <time>2025-04-30T16:37:10Z</time>
      </trkpt>
      <trkpt lat="45.67946" lon="4.66509">
        <ele>324.4</ele>
        <time>2025-04-30T16:37:11Z</time>
      </trkpt>
      <trkpt lat="45.67949" lon="4.66517">
        <ele>324.2</ele>
        <time>2025-04-30T16:37:12Z</time>
      </trkpt>
      <trkpt lat="45.67951" lon="4.66523">
        <ele>324</ele>
        <time>2025-04-30T16:37:13Z</time>
      </trkpt>
      <trkpt lat="45.67954" lon="4.66532">
        <ele>323.8</ele>
        <time>2025-04-30T16:37:14Z</time>
      </trkpt>
      <trkpt lat="45.67956" lon="4.6654">
        <ele>323.6</ele>
        <time>2025-04-30T16:37:15Z</time>
      </trkpt>
      <trkpt lat="45.67959" lon="4.66548">
        <ele>323.4</ele>
        <time>2025-04-30T16:37:16Z</time>
      </trkpt>
      <trkpt lat="45.67961" lon="4.66556">
        <ele>323.4</ele>
        <time>2025-04-30T16:37:17Z</time>
      </trkpt>
      <trkpt lat="45.67964" lon="4.66564">
        <ele>323.2</ele>
        <time>2025-04-30T16:37:18Z</time>
      </trkpt>
      <trkpt lat="45.67966" lon="4.66571">
        <ele>323.2</ele>
        <time>2025-04-30T16:37:19Z</time>
      </trkpt>
      <trkpt lat="45.67969" lon="4.6658">
        <ele>323</ele>
        <time>2025-04-30T16:37:20Z</time>
      </trkpt>
      <trkpt lat="45.67971" lon="4.66588">
        <ele>322.6</ele>
        <time>2025-04-30T16:37:21Z</time>
      </trkpt>
      <trkpt lat="45.67973" lon="4.66595">
        <ele>322.4</ele>
        <time>2025-04-30T16:37:22Z</time>
      </trkpt>
      <trkpt lat="45.67975" lon="4.66604">
        <ele>322.4</ele>
        <time>2025-04-30T16:37:23Z</time>
      </trkpt>
      <trkpt lat="45.67978" lon="4.66613">
        <ele>322.4</ele>
        <time>2025-04-30T16:37:24Z</time>
      </trkpt>
      <trkpt lat="45.6798" lon="4.66619">
        <ele>322.2</ele>
        <time>2025-04-30T16:37:25Z</time>
      </trkpt>
      <trkpt lat="45.67983" lon="4.66629">
        <ele>322.2</ele>
        <time>2025-04-30T16:37:26Z</time>
      </trkpt>
      <trkpt lat="45.67985" lon="4.66637">
        <ele>322.2</ele>
        <time>2025-04-30T16:37:27Z</time>
      </trkpt>
      <trkpt lat="45.67987" lon="4.66643">
        <ele>322.2</ele>
        <time>2025-04-30T16:37:28Z</time>
      </trkpt>
      <trkpt lat="45.6799" lon="4.66651">
        <ele>322.2</ele>
        <time>2025-04-30T16:37:29Z</time>
      </trkpt>
      <trkpt lat="45.67993" lon="4.66661">
        <ele>322.2</ele>
        <time>2025-04-30T16:37:30Z</time>
      </trkpt>
      <trkpt lat="45.67995" lon="4.66667">
        <ele>322.2</ele>
        <time>2025-04-30T16:37:31Z</time>
      </trkpt>
      <trkpt lat="45.67997" lon="4.66677">
        <ele>322</ele>
        <time>2025-04-30T16:37:32Z</time>
      </trkpt>
      <trkpt lat="45.68" lon="4.66685">
        <ele>321.8</ele>
        <time>2025-04-30T16:37:33Z</time>
      </trkpt>
      <trkpt lat="45.68002" lon="4.66691">
        <ele>321.8</ele>
        <time>2025-04-30T16:37:34Z</time>
      </trkpt>
      <trkpt lat="45.68005" lon="4.667">
        <ele>321.8</ele>
        <time>2025-04-30T16:37:35Z</time>
      </trkpt>
      <trkpt lat="45.68008" lon="4.66708">
        <ele>321.6</ele>
        <time>2025-04-30T16:37:36Z</time>
      </trkpt>
      <trkpt lat="45.6801" lon="4.66714">
        <ele>321.6</ele>
        <time>2025-04-30T16:37:37Z</time>
      </trkpt>
      <trkpt lat="45.68014" lon="4.66723">
        <ele>321.6</ele>
        <time>2025-04-30T16:37:38Z</time>
      </trkpt>
      <trkpt lat="45.68018" lon="4.6673">
        <ele>321.2</ele>
        <time>2025-04-30T16:37:39Z</time>
      </trkpt>
      <trkpt lat="45.68022" lon="4.66736">
        <ele>320.6</ele>
        <time>2025-04-30T16:37:40Z</time>
      </trkpt>
      <trkpt lat="45.68029" lon="4.66743">
        <ele>320.2</ele>
        <time>2025-04-30T16:37:41Z</time>
      </trkpt>
      <trkpt lat="45.68034" lon="4.66747">
        <ele>319.8</ele>
        <time>2025-04-30T16:37:42Z</time>
      </trkpt>
      <trkpt lat="45.6804" lon="4.66751">
        <ele>319.8</ele>
        <time>2025-04-30T16:37:43Z</time>
      </trkpt>
      <trkpt lat="45.68047" lon="4.66758">
        <ele>319.6</ele>
        <time>2025-04-30T16:37:44Z</time>
      </trkpt>
      <trkpt lat="45.68052" lon="4.66764">
        <ele>319</ele>
        <time>2025-04-30T16:37:45Z</time>
      </trkpt>
      <trkpt lat="45.68056" lon="4.66773">
        <ele>318</ele>
        <time>2025-04-30T16:37:46Z</time>
      </trkpt>
      <trkpt lat="45.68061" lon="4.66786">
        <ele>317.2</ele>
        <time>2025-04-30T16:37:47Z</time>
      </trkpt>
      <trkpt lat="45.68065" lon="4.66795">
        <ele>316</ele>
        <time>2025-04-30T16:37:48Z</time>
      </trkpt>
      <trkpt lat="45.68068" lon="4.66808">
        <ele>315.4</ele>
        <time>2025-04-30T16:37:49Z</time>
      </trkpt>
      <trkpt lat="45.68071" lon="4.66821">
        <ele>314.8</ele>
        <time>2025-04-30T16:37:50Z</time>
      </trkpt>
      <trkpt lat="45.68073" lon="4.66833">
        <ele>313.6</ele>
        <time>2025-04-30T16:37:51Z</time>
      </trkpt>
      <trkpt lat="45.68076" lon="4.66844">
        <ele>312.4</ele>
        <time>2025-04-30T16:37:52Z</time>
      </trkpt>
      <trkpt lat="45.68081" lon="4.66853">
        <ele>311.8</ele>
        <time>2025-04-30T16:37:53Z</time>
      </trkpt>
      <trkpt lat="45.68087" lon="4.66861">
        <ele>310.8</ele>
        <time>2025-04-30T16:37:54Z</time>
      </trkpt>
      <trkpt lat="45.68094" lon="4.6687">
        <ele>309.8</ele>
        <time>2025-04-30T16:37:55Z</time>
      </trkpt>
      <trkpt lat="45.68102" lon="4.66881">
        <ele>309</ele>
        <time>2025-04-30T16:37:56Z</time>
      </trkpt>
      <trkpt lat="45.68107" lon="4.66892">
        <ele>308.4</ele>
        <time>2025-04-30T16:37:57Z</time>
      </trkpt>
      <trkpt lat="45.6811" lon="4.66902">
        <ele>308.2</ele>
        <time>2025-04-30T16:37:58Z</time>
      </trkpt>
      <trkpt lat="45.68114" lon="4.66912">
        <ele>308</ele>
        <time>2025-04-30T16:37:59Z</time>
      </trkpt>
      <trkpt lat="45.68117" lon="4.66921">
        <ele>308</ele>
        <time>2025-04-30T16:38:00Z</time>
      </trkpt>
      <trkpt lat="45.6812" lon="4.66928">
        <ele>308</ele>
        <time>2025-04-30T16:38:01Z</time>
      </trkpt>
      <trkpt lat="45.68124" lon="4.66938">
        <ele>308.2</ele>
        <time>2025-04-30T16:38:02Z</time>
      </trkpt>
      <trkpt lat="45.68126" lon="4.66946">
        <ele>308.2</ele>
        <time>2025-04-30T16:38:03Z</time>
      </trkpt>
      <trkpt lat="45.68128" lon="4.66953">
        <ele>308.6</ele>
        <time>2025-04-30T16:38:04Z</time>
      </trkpt>
      <trkpt lat="45.68131" lon="4.66963">
        <ele>308.8</ele>
        <time>2025-04-30T16:38:05Z</time>
      </trkpt>
      <trkpt lat="45.68133" lon="4.66972">
        <ele>309.2</ele>
        <time>2025-04-30T16:38:06Z</time>
      </trkpt>
      <trkpt lat="45.68134" lon="4.6698">
        <ele>309.6</ele>
        <time>2025-04-30T16:38:07Z</time>
      </trkpt>
      <trkpt lat="45.68136" lon="4.66988">
        <ele>309.8</ele>
        <time>2025-04-30T16:38:08Z</time>
      </trkpt>
      <trkpt lat="45.68139" lon="4.66997">
        <ele>310.4</ele>
        <time>2025-04-30T16:38:09Z</time>
      </trkpt>
      <trkpt lat="45.68141" lon="4.67002">
        <ele>310.6</ele>
        <time>2025-04-30T16:38:10Z</time>
      </trkpt>
      <trkpt lat="45.68143" lon="4.67009">
        <ele>311.2</ele>
        <time>2025-04-30T16:38:11Z</time>
      </trkpt>
      <trkpt lat="45.68146" lon="4.67015">
        <ele>311.4</ele>
        <time>2025-04-30T16:38:12Z</time>
      </trkpt>
      <trkpt lat="45.6815" lon="4.67023">
        <ele>311.4</ele>
        <time>2025-04-30T16:38:13Z</time>
      </trkpt>
      <trkpt lat="45.68153" lon="4.6703">
        <ele>311.6</ele>
        <time>2025-04-30T16:38:14Z</time>
      </trkpt>
      <trkpt lat="45.68156" lon="4.67037">
        <ele>311.6</ele>
        <time>2025-04-30T16:38:15Z</time>
      </trkpt>
      <trkpt lat="45.68158" lon="4.67042">
        <ele>311.8</ele>
        <time>2025-04-30T16:38:16Z</time>
      </trkpt>
      <trkpt lat="45.6816" lon="4.67049">
        <ele>312.2</ele>
        <time>2025-04-30T16:38:17Z</time>
      </trkpt>
      <trkpt lat="45.68162" lon="4.67054">
        <ele>312.6</ele>
        <time>2025-04-30T16:38:18Z</time>
      </trkpt>
      <trkpt lat="45.68164" lon="4.6706">
        <ele>312.8</ele>
        <time>2025-04-30T16:38:19Z</time>
      </trkpt>
      <trkpt lat="45.68165" lon="4.67068">
        <ele>312.8</ele>
        <time>2025-04-30T16:38:20Z</time>
      </trkpt>
      <trkpt lat="45.68167" lon="4.67075">
        <ele>312.8</ele>
        <time>2025-04-30T16:38:21Z</time>
      </trkpt>
      <trkpt lat="45.68169" lon="4.67082">
        <ele>313</ele>
        <time>2025-04-30T16:38:22Z</time>
      </trkpt>
      <trkpt lat="45.68171" lon="4.67091">
        <ele>313</ele>
        <time>2025-04-30T16:38:23Z</time>
      </trkpt>
      <trkpt lat="45.68173" lon="4.67098">
        <ele>313</ele>
        <time>2025-04-30T16:38:24Z</time>
      </trkpt>
      <trkpt lat="45.68174" lon="4.67104">
        <ele>313.2</ele>
        <time>2025-04-30T16:38:25Z</time>
      </trkpt>
      <trkpt lat="45.68176" lon="4.67112">
        <ele>313.4</ele>
        <time>2025-04-30T16:38:26Z</time>
      </trkpt>
      <trkpt lat="45.68176" lon="4.67119">
        <ele>313.6</ele>
        <time>2025-04-30T16:38:27Z</time>
      </trkpt>
      <trkpt lat="45.68177" lon="4.67124">
        <ele>313.8</ele>
        <time>2025-04-30T16:38:28Z</time>
      </trkpt>
      <trkpt lat="45.68178" lon="4.67131">
        <ele>314.2</ele>
        <time>2025-04-30T16:38:29Z</time>
      </trkpt>
      <trkpt lat="45.68179" lon="4.67139">
        <ele>314.4</ele>
        <time>2025-04-30T16:38:30Z</time>
      </trkpt>
      <trkpt lat="45.6818" lon="4.67143">
        <ele>314.8</ele>
        <time>2025-04-30T16:38:31Z</time>
      </trkpt>
      <trkpt lat="45.68182" lon="4.67149">
        <ele>315.2</ele>
        <time>2025-04-30T16:38:32Z</time>
      </trkpt>
      <trkpt lat="45.68184" lon="4.67155">
        <ele>315.6</ele>
        <time>2025-04-30T16:38:33Z</time>
      </trkpt>
      <trkpt lat="45.68186" lon="4.67161">
        <ele>316</ele>
        <time>2025-04-30T16:38:34Z</time>
      </trkpt>
      <trkpt lat="45.68189" lon="4.67167">
        <ele>316.4</ele>
        <time>2025-04-30T16:38:35Z</time>
      </trkpt>
      <trkpt lat="45.68192" lon="4.67174">
        <ele>316.4</ele>
        <time>2025-04-30T16:38:36Z</time>
      </trkpt>
      <trkpt lat="45.68194" lon="4.67178">
        <ele>316.8</ele>
        <time>2025-04-30T16:38:37Z</time>
      </trkpt>
      <trkpt lat="45.68197" lon="4.67184">
        <ele>317</ele>
        <time>2025-04-30T16:38:38Z</time>
      </trkpt>
      <trkpt lat="45.68199" lon="4.67189">
        <ele>317.4</ele>
        <time>2025-04-30T16:38:39Z</time>
      </trkpt>
      <trkpt lat="45.68202" lon="4.67195">
        <ele>317.6</ele>
        <time>2025-04-30T16:38:40Z</time>
      </trkpt>
      <trkpt lat="45.68205" lon="4.67202">
        <ele>317.8</ele>
        <time>2025-04-30T16:38:41Z</time>
      </trkpt>
      <trkpt lat="45.68207" lon="4.67208">
        <ele>318</ele>
        <time>2025-04-30T16:38:42Z</time>
      </trkpt>
      <trkpt lat="45.68209" lon="4.67212">
        <ele>318.2</ele>
        <time>2025-04-30T16:38:43Z</time>
      </trkpt>
      <trkpt lat="45.6821" lon="4.67218">
        <ele>318.2</ele>
        <time>2025-04-30T16:38:44Z</time>
      </trkpt>
      <trkpt lat="45.68212" lon="4.67225">
        <ele>318.6</ele>
        <time>2025-04-30T16:38:45Z</time>
      </trkpt>
      <trkpt lat="45.68213" lon="4.67229">
        <ele>319</ele>
        <time>2025-04-30T16:38:46Z</time>
      </trkpt>
      <trkpt lat="45.68214" lon="4.67235">
        <ele>319.4</ele>
        <time>2025-04-30T16:38:47Z</time>
      </trkpt>
      <trkpt lat="45.68215" lon="4.67241">
        <ele>319.6</ele>
        <time>2025-04-30T16:38:48Z</time>
      </trkpt>
      <trkpt lat="45.68216" lon="4.67247">
        <ele>319.8</ele>
        <time>2025-04-30T16:38:49Z</time>
      </trkpt>
      <trkpt lat="45.68217" lon="4.67253">
        <ele>320</ele>
        <time>2025-04-30T16:38:50Z</time>
      </trkpt>
      <trkpt lat="45.68218" lon="4.67259">
        <ele>320.2</ele>
        <time>2025-04-30T16:38:51Z</time>
      </trkpt>
      <trkpt lat="45.68219" lon="4.67264">
        <ele>320.4</ele>
        <time>2025-04-30T16:38:52Z</time>
      </trkpt>
      <trkpt lat="45.68219" lon="4.67269">
        <ele>320.6</ele>
        <time>2025-04-30T16:38:53Z</time>
      </trkpt>
      <trkpt lat="45.6822" lon="4.67274">
        <ele>320.8</ele>
        <time>2025-04-30T16:38:54Z</time>
      </trkpt>
      <trkpt lat="45.68221" lon="4.67278">
        <ele>321</ele>
        <time>2025-04-30T16:38:55Z</time>
      </trkpt>
      <trkpt lat="45.68221" lon="4.67282">
        <ele>321.2</ele>
        <time>2025-04-30T16:38:56Z</time>
      </trkpt>
      <trkpt lat="45.68221" lon="4.67287">
        <ele>321.4</ele>
        <time>2025-04-30T16:38:57Z</time>
      </trkpt>
      <trkpt lat="45.68222" lon="4.67292">
        <ele>321.4</ele>
        <time>2025-04-30T16:38:58Z</time>
      </trkpt>
      <trkpt lat="45.68222" lon="4.67298">
        <ele>321.4</ele>
        <time>2025-04-30T16:38:59Z</time>
      </trkpt>
      <trkpt lat="45.68223" lon="4.67304">
        <ele>321.4</ele>
        <time>2025-04-30T16:39:00Z</time>
      </trkpt>
      <trkpt lat="45.68223" lon="4.67311">
        <ele>321.4</ele>
        <time>2025-04-30T16:39:01Z</time>
      </trkpt>
      <trkpt lat="45.68224" lon="4.67319">
        <ele>321</ele>
        <time>2025-04-30T16:39:02Z</time>
      </trkpt>
      <trkpt lat="45.68224" lon="4.6733">
        <ele>320.8</ele>
        <time>2025-04-30T16:39:03Z</time>
      </trkpt>
      <trkpt lat="45.68225" lon="4.67337">
        <ele>320.4</ele>
        <time>2025-04-30T16:39:04Z</time>
      </trkpt>
      <trkpt lat="45.68225" lon="4.67346">
        <ele>319.8</ele>
        <time>2025-04-30T16:39:05Z</time>
      </trkpt>
      <trkpt lat="45.68226" lon="4.67357">
        <ele>319.4</ele>
        <time>2025-04-30T16:39:06Z</time>
      </trkpt>
      <trkpt lat="45.68226" lon="4.67365">
        <ele>319.2</ele>
        <time>2025-04-30T16:39:07Z</time>
      </trkpt>
      <trkpt lat="45.68227" lon="4.67376">
        <ele>318.6</ele>
        <time>2025-04-30T16:39:08Z</time>
      </trkpt>
      <trkpt lat="45.68227" lon="4.67387">
        <ele>318.2</ele>
        <time>2025-04-30T16:39:09Z</time>
      </trkpt>
      <trkpt lat="45.68228" lon="4.67395">
        <ele>317.6</ele>
        <time>2025-04-30T16:39:10Z</time>
      </trkpt>
      <trkpt lat="45.68228" lon="4.67408">
        <ele>317.2</ele>
        <time>2025-04-30T16:39:11Z</time>
      </trkpt>
      <trkpt lat="45.68228" lon="4.67418">
        <ele>316.8</ele>
        <time>2025-04-30T16:39:12Z</time>
      </trkpt>
      <trkpt lat="45.68229" lon="4.67427">
        <ele>316.2</ele>
        <time>2025-04-30T16:39:13Z</time>
      </trkpt>
      <trkpt lat="45.68229" lon="4.67437">
        <ele>315.8</ele>
        <time>2025-04-30T16:39:14Z</time>
      </trkpt>
      <trkpt lat="45.6823" lon="4.67448">
        <ele>315.6</ele>
        <time>2025-04-30T16:39:15Z</time>
      </trkpt>
      <trkpt lat="45.6823" lon="4.67458">
        <ele>315.2</ele>
        <time>2025-04-30T16:39:16Z</time>
      </trkpt>
      <trkpt lat="45.6823" lon="4.67468">
        <ele>315.2</ele>
        <time>2025-04-30T16:39:17Z</time>
      </trkpt>
      <trkpt lat="45.68231" lon="4.67478">
        <ele>315.2</ele>
        <time>2025-04-30T16:39:18Z</time>
      </trkpt>
      <trkpt lat="45.68231" lon="4.67487">
        <ele>315.2</ele>
        <time>2025-04-30T16:39:19Z</time>
      </trkpt>
      <trkpt lat="45.68231" lon="4.67496">
        <ele>315.2</ele>
        <time>2025-04-30T16:39:20Z</time>
      </trkpt>
      <trkpt lat="45.68231" lon="4.67505">
        <ele>315.2</ele>
        <time>2025-04-30T16:39:21Z</time>
      </trkpt>
      <trkpt lat="45.68231" lon="4.67514">
        <ele>315.6</ele>
        <time>2025-04-30T16:39:22Z</time>
      </trkpt>
      <trkpt lat="45.68231" lon="4.67522">
        <ele>315.8</ele>
        <time>2025-04-30T16:39:23Z</time>
      </trkpt>
      <trkpt lat="45.68231" lon="4.6753">
        <ele>315.8</ele>
        <time>2025-04-30T16:39:24Z</time>
      </trkpt>
      <trkpt lat="45.68231" lon="4.6754">
        <ele>316</ele>
        <time>2025-04-30T16:39:25Z</time>
      </trkpt>
      <trkpt lat="45.68231" lon="4.67546">
        <ele>316.2</ele>
        <time>2025-04-30T16:39:26Z</time>
      </trkpt>
      <trkpt lat="45.68231" lon="4.67554">
        <ele>316.6</ele>
        <time>2025-04-30T16:39:27Z</time>
      </trkpt>
      <trkpt lat="45.68231" lon="4.67562">
        <ele>317</ele>
        <time>2025-04-30T16:39:28Z</time>
      </trkpt>
      <trkpt lat="45.68231" lon="4.67569">
        <ele>317.2</ele>
        <time>2025-04-30T16:39:29Z</time>
      </trkpt>
      <trkpt lat="45.68231" lon="4.67577">
        <ele>317.6</ele>
        <time>2025-04-30T16:39:30Z</time>
      </trkpt>
      <trkpt lat="45.68231" lon="4.67585">
        <ele>317.8</ele>
        <time>2025-04-30T16:39:31Z</time>
      </trkpt>
      <trkpt lat="45.68231" lon="4.67593">
        <ele>318.2</ele>
        <time>2025-04-30T16:39:32Z</time>
      </trkpt>
      <trkpt lat="45.68232" lon="4.67601">
        <ele>318.4</ele>
        <time>2025-04-30T16:39:33Z</time>
      </trkpt>
      <trkpt lat="45.68232" lon="4.6761">
        <ele>318.4</ele>
        <time>2025-04-30T16:39:34Z</time>
      </trkpt>
      <trkpt lat="45.68232" lon="4.67616">
        <ele>318.6</ele>
        <time>2025-04-30T16:39:35Z</time>
      </trkpt>
      <trkpt lat="45.68232" lon="4.67624">
        <ele>318.6</ele>
        <time>2025-04-30T16:39:36Z</time>
      </trkpt>
      <trkpt lat="45.68232" lon="4.67631">
        <ele>319</ele>
        <time>2025-04-30T16:39:37Z</time>
      </trkpt>
      <trkpt lat="45.68233" lon="4.67639">
        <ele>319.4</ele>
        <time>2025-04-30T16:39:38Z</time>
      </trkpt>
      <trkpt lat="45.68233" lon="4.67646">
        <ele>319.6</ele>
        <time>2025-04-30T16:39:39Z</time>
      </trkpt>
      <trkpt lat="45.68232" lon="4.67655">
        <ele>320</ele>
        <time>2025-04-30T16:39:40Z</time>
      </trkpt>
      <trkpt lat="45.68232" lon="4.67661">
        <ele>320.2</ele>
        <time>2025-04-30T16:39:41Z</time>
      </trkpt>
      <trkpt lat="45.68232" lon="4.6767">
        <ele>320.6</ele>
        <time>2025-04-30T16:39:42Z</time>
      </trkpt>
      <trkpt lat="45.68232" lon="4.67677">
        <ele>320.6</ele>
        <time>2025-04-30T16:39:43Z</time>
      </trkpt>
      <trkpt lat="45.68232" lon="4.67683">
        <ele>321</ele>
        <time>2025-04-30T16:39:44Z</time>
      </trkpt>
      <trkpt lat="45.68232" lon="4.67692">
        <ele>321.2</ele>
        <time>2025-04-30T16:39:45Z</time>
      </trkpt>
      <trkpt lat="45.68231" lon="4.67699">
        <ele>321.6</ele>
        <time>2025-04-30T16:39:46Z</time>
      </trkpt>
      <trkpt lat="45.68231" lon="4.67705">
        <ele>321.8</ele>
        <time>2025-04-30T16:39:47Z</time>
      </trkpt>
      <trkpt lat="45.68231" lon="4.67713">
        <ele>322</ele>
        <time>2025-04-30T16:39:48Z</time>
      </trkpt>
      <trkpt lat="45.68231" lon="4.6772">
        <ele>322.4</ele>
        <time>2025-04-30T16:39:49Z</time>
      </trkpt>
      <trkpt lat="45.68231" lon="4.67725">
        <ele>322.8</ele>
        <time>2025-04-30T16:39:50Z</time>
      </trkpt>
      <trkpt lat="45.6823" lon="4.67732">
        <ele>323.2</ele>
        <time>2025-04-30T16:39:51Z</time>
      </trkpt>
      <trkpt lat="45.6823" lon="4.67741">
        <ele>323.4</ele>
        <time>2025-04-30T16:39:52Z</time>
      </trkpt>
      <trkpt lat="45.68231" lon="4.67747">
        <ele>323.6</ele>
        <time>2025-04-30T16:39:53Z</time>
      </trkpt>
      <trkpt lat="45.68231" lon="4.67757">
        <ele>323.8</ele>
        <time>2025-04-30T16:39:54Z</time>
      </trkpt>
      <trkpt lat="45.68232" lon="4.67763">
        <ele>323.8</ele>
        <time>2025-04-30T16:39:55Z</time>
      </trkpt>
      <trkpt lat="45.68232" lon="4.67771">
        <ele>323.8</ele>
        <time>2025-04-30T16:39:56Z</time>
      </trkpt>
      <trkpt lat="45.68233" lon="4.67779">
        <ele>323.6</ele>
        <time>2025-04-30T16:39:57Z</time>
      </trkpt>
      <trkpt lat="45.68234" lon="4.67787">
        <ele>323.6</ele>
        <time>2025-04-30T16:39:58Z</time>
      </trkpt>
      <trkpt lat="45.68235" lon="4.67794">
        <ele>323.6</ele>
        <time>2025-04-30T16:39:59Z</time>
      </trkpt>
      <trkpt lat="45.68235" lon="4.67802">
        <ele>323.6</ele>
        <time>2025-04-30T16:40:00Z</time>
      </trkpt>
      <trkpt lat="45.68236" lon="4.6781">
        <ele>323.8</ele>
        <time>2025-04-30T16:40:01Z</time>
      </trkpt>
      <trkpt lat="45.68236" lon="4.67818">
        <ele>323.8</ele>
        <time>2025-04-30T16:40:02Z</time>
      </trkpt>
      <trkpt lat="45.68237" lon="4.67825">
        <ele>323.8</ele>
        <time>2025-04-30T16:40:03Z</time>
      </trkpt>
      <trkpt lat="45.68238" lon="4.67834">
        <ele>324</ele>
        <time>2025-04-30T16:40:04Z</time>
      </trkpt>
      <trkpt lat="45.68238" lon="4.6784">
        <ele>324</ele>
        <time>2025-04-30T16:40:05Z</time>
      </trkpt>
      <trkpt lat="45.68239" lon="4.67847">
        <ele>324.2</ele>
        <time>2025-04-30T16:40:06Z</time>
      </trkpt>
      <trkpt lat="45.6824" lon="4.67856">
        <ele>324.2</ele>
        <time>2025-04-30T16:40:07Z</time>
      </trkpt>
      <trkpt lat="45.68241" lon="4.67864">
        <ele>324.4</ele>
        <time>2025-04-30T16:40:08Z</time>
      </trkpt>
      <trkpt lat="45.68242" lon="4.67871">
        <ele>324.4</ele>
        <time>2025-04-30T16:40:09Z</time>
      </trkpt>
      <trkpt lat="45.68243" lon="4.67878">
        <ele>324.8</ele>
        <time>2025-04-30T16:40:10Z</time>
      </trkpt>
      <trkpt lat="45.68245" lon="4.67885">
        <ele>325</ele>
        <time>2025-04-30T16:40:11Z</time>
      </trkpt>
      <trkpt lat="45.68246" lon="4.67891">
        <ele>325</ele>
        <time>2025-04-30T16:40:12Z</time>
      </trkpt>
      <trkpt lat="45.68248" lon="4.679">
        <ele>325</ele>
        <time>2025-04-30T16:40:13Z</time>
      </trkpt>
      <trkpt lat="45.6825" lon="4.67907">
        <ele>325</ele>
        <time>2025-04-30T16:40:14Z</time>
      </trkpt>
      <trkpt lat="45.68252" lon="4.67914">
        <ele>325.2</ele>
        <time>2025-04-30T16:40:15Z</time>
      </trkpt>
      <trkpt lat="45.68254" lon="4.67922">
        <ele>325.2</ele>
        <time>2025-04-30T16:40:16Z</time>
      </trkpt>
      <trkpt lat="45.68256" lon="4.67927">
        <ele>325.2</ele>
        <time>2025-04-30T16:40:17Z</time>
      </trkpt>
      <trkpt lat="45.68259" lon="4.67936">
        <ele>325.4</ele>
        <time>2025-04-30T16:40:18Z</time>
      </trkpt>
      <trkpt lat="45.68261" lon="4.67941">
        <ele>325.4</ele>
        <time>2025-04-30T16:40:19Z</time>
      </trkpt>
      <trkpt lat="45.68262" lon="4.67948">
        <ele>325.4</ele>
        <time>2025-04-30T16:40:20Z</time>
      </trkpt>
      <trkpt lat="45.68264" lon="4.67955">
        <ele>325.6</ele>
        <time>2025-04-30T16:40:21Z</time>
      </trkpt>
      <trkpt lat="45.68266" lon="4.67963">
        <ele>325.8</ele>
        <time>2025-04-30T16:40:22Z</time>
      </trkpt>
      <trkpt lat="45.68267" lon="4.6797">
        <ele>326</ele>
        <time>2025-04-30T16:40:23Z</time>
      </trkpt>
      <trkpt lat="45.68269" lon="4.67977">
        <ele>326.2</ele>
        <time>2025-04-30T16:40:24Z</time>
      </trkpt>
      <trkpt lat="45.6827" lon="4.67984">
        <ele>326.4</ele>
        <time>2025-04-30T16:40:25Z</time>
      </trkpt>
      <trkpt lat="45.68271" lon="4.67989">
        <ele>326.6</ele>
        <time>2025-04-30T16:40:26Z</time>
      </trkpt>
      <trkpt lat="45.68272" lon="4.67996">
        <ele>326.6</ele>
        <time>2025-04-30T16:40:27Z</time>
      </trkpt>
      <trkpt lat="45.68274" lon="4.68004">
        <ele>326.8</ele>
        <time>2025-04-30T16:40:28Z</time>
      </trkpt>
      <trkpt lat="45.68275" lon="4.68009">
        <ele>327</ele>
        <time>2025-04-30T16:40:29Z</time>
      </trkpt>
      <trkpt lat="45.68275" lon="4.68017">
        <ele>327</ele>
        <time>2025-04-30T16:40:30Z</time>
      </trkpt>
      <trkpt lat="45.68276" lon="4.68025">
        <ele>327.2</ele>
        <time>2025-04-30T16:40:31Z</time>
      </trkpt>
      <trkpt lat="45.68277" lon="4.6803">
        <ele>327.4</ele>
        <time>2025-04-30T16:40:32Z</time>
      </trkpt>
      <trkpt lat="45.68279" lon="4.68038">
        <ele>327.4</ele>
        <time>2025-04-30T16:40:33Z</time>
      </trkpt>
      <trkpt lat="45.6828" lon="4.68045">
        <ele>327.4</ele>
        <time>2025-04-30T16:40:34Z</time>
      </trkpt>
      <trkpt lat="45.6828" lon="4.68051">
        <ele>327.4</ele>
        <time>2025-04-30T16:40:35Z</time>
      </trkpt>
      <trkpt lat="45.68282" lon="4.68059">
        <ele>327.4</ele>
        <time>2025-04-30T16:40:36Z</time>
      </trkpt>
      <trkpt lat="45.68282" lon="4.68065">
        <ele>327.4</ele>
        <time>2025-04-30T16:40:37Z</time>
      </trkpt>
      <trkpt lat="45.68283" lon="4.6807">
        <ele>327.6</ele>
        <time>2025-04-30T16:40:38Z</time>
      </trkpt>
      <trkpt lat="45.68283" lon="4.68077">
        <ele>327.6</ele>
        <time>2025-04-30T16:40:39Z</time>
      </trkpt>
      <trkpt lat="45.68284" lon="4.68082">
        <ele>327.6</ele>
        <time>2025-04-30T16:40:40Z</time>
      </trkpt>
      <trkpt lat="45.68285" lon="4.68088">
        <ele>327.6</ele>
        <time>2025-04-30T16:40:41Z</time>
      </trkpt>
      <trkpt lat="45.68286" lon="4.68095">
        <ele>327.6</ele>
        <time>2025-04-30T16:40:42Z</time>
      </trkpt>
      <trkpt lat="45.68287" lon="4.68103">
        <ele>327.6</ele>
        <time>2025-04-30T16:40:43Z</time>
      </trkpt>
      <trkpt lat="45.68287" lon="4.68109">
        <ele>327.6</ele>
        <time>2025-04-30T16:40:44Z</time>
      </trkpt>
      <trkpt lat="45.68288" lon="4.68118">
        <ele>327.4</ele>
        <time>2025-04-30T16:40:45Z</time>
      </trkpt>
      <trkpt lat="45.68289" lon="4.68125">
        <ele>327.2</ele>
        <time>2025-04-30T16:40:46Z</time>
      </trkpt>
      <trkpt lat="45.68289" lon="4.68132">
        <ele>327.2</ele>
        <time>2025-04-30T16:40:47Z</time>
      </trkpt>
      <trkpt lat="45.6829" lon="4.68142">
        <ele>326.8</ele>
        <time>2025-04-30T16:40:48Z</time>
      </trkpt>
      <trkpt lat="45.68291" lon="4.6815">
        <ele>326.6</ele>
        <time>2025-04-30T16:40:49Z</time>
      </trkpt>
      <trkpt lat="45.68292" lon="4.68157">
        <ele>326.4</ele>
        <time>2025-04-30T16:40:50Z</time>
      </trkpt>
      <trkpt lat="45.68292" lon="4.68168">
        <ele>326.2</ele>
        <time>2025-04-30T16:40:51Z</time>
      </trkpt>
      <trkpt lat="45.68293" lon="4.68177">
        <ele>325.8</ele>
        <time>2025-04-30T16:40:52Z</time>
      </trkpt>
      <trkpt lat="45.68294" lon="4.68185">
        <ele>325.6</ele>
        <time>2025-04-30T16:40:53Z</time>
      </trkpt>
      <trkpt lat="45.68294" lon="4.68197">
        <ele>325.2</ele>
        <time>2025-04-30T16:40:54Z</time>
      </trkpt>
      <trkpt lat="45.68295" lon="4.68204">
        <ele>325</ele>
        <time>2025-04-30T16:40:55Z</time>
      </trkpt>
      <trkpt lat="45.68296" lon="4.68214">
        <ele>324.8</ele>
        <time>2025-04-30T16:40:56Z</time>
      </trkpt>
      <trkpt lat="45.68297" lon="4.68225">
        <ele>324.4</ele>
        <time>2025-04-30T16:40:57Z</time>
      </trkpt>
      <trkpt lat="45.68297" lon="4.68234">
        <ele>324.2</ele>
        <time>2025-04-30T16:40:58Z</time>
      </trkpt>
      <trkpt lat="45.68298" lon="4.68241">
        <ele>323.8</ele>
        <time>2025-04-30T16:40:59Z</time>
      </trkpt>
      <trkpt lat="45.68299" lon="4.68252">
        <ele>323.8</ele>
        <time>2025-04-30T16:41:00Z</time>
      </trkpt>
      <trkpt lat="45.683" lon="4.68262">
        <ele>323.6</ele>
        <time>2025-04-30T16:41:01Z</time>
      </trkpt>
      <trkpt lat="45.683" lon="4.68269">
        <ele>323.4</ele>
        <time>2025-04-30T16:41:02Z</time>
      </trkpt>
      <trkpt lat="45.68301" lon="4.68278">
        <ele>323.4</ele>
        <time>2025-04-30T16:41:03Z</time>
      </trkpt>
      <trkpt lat="45.68302" lon="4.68289">
        <ele>323.2</ele>
        <time>2025-04-30T16:41:04Z</time>
      </trkpt>
      <trkpt lat="45.68302" lon="4.68297">
        <ele>323</ele>
        <time>2025-04-30T16:41:05Z</time>
      </trkpt>
      <trkpt lat="45.68304" lon="4.68309">
        <ele>322.8</ele>
        <time>2025-04-30T16:41:06Z</time>
      </trkpt>
      <trkpt lat="45.68304" lon="4.68317">
        <ele>322.6</ele>
        <time>2025-04-30T16:41:07Z</time>
      </trkpt>
      <trkpt lat="45.68305" lon="4.68328">
        <ele>322.4</ele>
        <time>2025-04-30T16:41:08Z</time>
      </trkpt>
      <trkpt lat="45.68306" lon="4.68341">
        <ele>321.8</ele>
        <time>2025-04-30T16:41:09Z</time>
      </trkpt>
      <trkpt lat="45.68307" lon="4.68352">
        <ele>321.2</ele>
        <time>2025-04-30T16:41:10Z</time>
      </trkpt>
      <trkpt lat="45.68307" lon="4.68361">
        <ele>320.6</ele>
        <time>2025-04-30T16:41:11Z</time>
      </trkpt>
      <trkpt lat="45.68307" lon="4.68374">
        <ele>320</ele>
        <time>2025-04-30T16:41:12Z</time>
      </trkpt>
      <trkpt lat="45.68308" lon="4.68385">
        <ele>319.6</ele>
        <time>2025-04-30T16:41:13Z</time>
      </trkpt>
      <trkpt lat="45.68309" lon="4.68393">
        <ele>319.4</ele>
        <time>2025-04-30T16:41:14Z</time>
      </trkpt>
      <trkpt lat="45.68311" lon="4.68405">
        <ele>319.2</ele>
        <time>2025-04-30T16:41:15Z</time>
      </trkpt>
      <trkpt lat="45.68313" lon="4.68414">
        <ele>319.2</ele>
        <time>2025-04-30T16:41:16Z</time>
      </trkpt>
      <trkpt lat="45.68316" lon="4.68422">
        <ele>319.2</ele>
        <time>2025-04-30T16:41:17Z</time>
      </trkpt>
      <trkpt lat="45.6832" lon="4.6843">
        <ele>319.2</ele>
        <time>2025-04-30T16:41:18Z</time>
      </trkpt>
      <trkpt lat="45.68323" lon="4.68436">
        <ele>319.2</ele>
        <time>2025-04-30T16:41:19Z</time>
      </trkpt>
      <trkpt lat="45.68327" lon="4.68444">
        <ele>319.2</ele>
        <time>2025-04-30T16:41:20Z</time>
      </trkpt>
      <trkpt lat="45.68332" lon="4.68452">
        <ele>319.4</ele>
        <time>2025-04-30T16:41:21Z</time>
      </trkpt>
      <trkpt lat="45.68335" lon="4.68457">
        <ele>319.6</ele>
        <time>2025-04-30T16:41:22Z</time>
      </trkpt>
      <trkpt lat="45.68338" lon="4.68464">
        <ele>319.8</ele>
        <time>2025-04-30T16:41:23Z</time>
      </trkpt>
      <trkpt lat="45.68342" lon="4.6847">
        <ele>320</ele>
        <time>2025-04-30T16:41:24Z</time>
      </trkpt>
      <trkpt lat="45.68345" lon="4.68476">
        <ele>320.2</ele>
        <time>2025-04-30T16:41:25Z</time>
      </trkpt>
      <trkpt lat="45.68349" lon="4.68481">
        <ele>320.4</ele>
        <time>2025-04-30T16:41:26Z</time>
      </trkpt>
      <trkpt lat="45.68352" lon="4.68487">
        <ele>320.8</ele>
        <time>2025-04-30T16:41:27Z</time>
      </trkpt>
      <trkpt lat="45.68356" lon="4.68494">
        <ele>321.2</ele>
        <time>2025-04-30T16:41:28Z</time>
      </trkpt>
      <trkpt lat="45.68358" lon="4.68498">
        <ele>321.6</ele>
        <time>2025-04-30T16:41:29Z</time>
      </trkpt>
      <trkpt lat="45.68362" lon="4.68504">
        <ele>322</ele>
        <time>2025-04-30T16:41:30Z</time>
      </trkpt>
      <trkpt lat="45.68364" lon="4.68509">
        <ele>322</ele>
        <time>2025-04-30T16:41:31Z</time>
      </trkpt>
      <trkpt lat="45.68367" lon="4.68513">
        <ele>322.2</ele>
        <time>2025-04-30T16:41:32Z</time>
      </trkpt>
      <trkpt lat="45.6837" lon="4.6852">
        <ele>322.6</ele>
        <time>2025-04-30T16:41:33Z</time>
      </trkpt>
      <trkpt lat="45.68373" lon="4.68525">
        <ele>322.8</ele>
        <time>2025-04-30T16:41:34Z</time>
      </trkpt>
      <trkpt lat="45.68375" lon="4.68529">
        <ele>323.4</ele>
        <time>2025-04-30T16:41:35Z</time>
      </trkpt>
      <trkpt lat="45.68379" lon="4.68535">
        <ele>323.6</ele>
        <time>2025-04-30T16:41:36Z</time>
      </trkpt>
      <trkpt lat="45.68381" lon="4.6854">
        <ele>323.8</ele>
        <time>2025-04-30T16:41:37Z</time>
      </trkpt>
      <trkpt lat="45.68384" lon="4.68546">
        <ele>324.2</ele>
        <time>2025-04-30T16:41:38Z</time>
      </trkpt>
      <trkpt lat="45.68387" lon="4.68551">
        <ele>324.4</ele>
        <time>2025-04-30T16:41:39Z</time>
      </trkpt>
      <trkpt lat="45.6839" lon="4.68556">
        <ele>324.6</ele>
        <time>2025-04-30T16:41:40Z</time>
      </trkpt>
      <trkpt lat="45.68392" lon="4.68561">
        <ele>324.8</ele>
        <time>2025-04-30T16:41:41Z</time>
      </trkpt>
      <trkpt lat="45.68396" lon="4.68567">
        <ele>325.2</ele>
        <time>2025-04-30T16:41:42Z</time>
      </trkpt>
      <trkpt lat="45.68398" lon="4.68572">
        <ele>325.4</ele>
        <time>2025-04-30T16:41:43Z</time>
      </trkpt>
      <trkpt lat="45.68401" lon="4.68577">
        <ele>325.4</ele>
        <time>2025-04-30T16:41:44Z</time>
      </trkpt>
      <trkpt lat="45.68403" lon="4.68583">
        <ele>325.6</ele>
        <time>2025-04-30T16:41:45Z</time>
      </trkpt>
      <trkpt lat="45.68406" lon="4.68588">
        <ele>325.6</ele>
        <time>2025-04-30T16:41:46Z</time>
      </trkpt>
      <trkpt lat="45.68408" lon="4.68594">
        <ele>325.6</ele>
        <time>2025-04-30T16:41:47Z</time>
      </trkpt>
      <trkpt lat="45.68411" lon="4.68599">
        <ele>325.8</ele>
        <time>2025-04-30T16:41:48Z</time>
      </trkpt>
      <trkpt lat="45.68413" lon="4.68604">
        <ele>326</ele>
        <time>2025-04-30T16:41:49Z</time>
      </trkpt>
      <trkpt lat="45.68415" lon="4.6861">
        <ele>326</ele>
        <time>2025-04-30T16:41:50Z</time>
      </trkpt>
      <trkpt lat="45.68418" lon="4.68614">
        <ele>326.2</ele>
        <time>2025-04-30T16:41:51Z</time>
      </trkpt>
      <trkpt lat="45.6842" lon="4.68619">
        <ele>326.4</ele>
        <time>2025-04-30T16:41:52Z</time>
      </trkpt>
      <trkpt lat="45.68422" lon="4.68624">
        <ele>326.4</ele>
        <time>2025-04-30T16:41:53Z</time>
      </trkpt>
      <trkpt lat="45.68425" lon="4.6863">
        <ele>326.4</ele>
        <time>2025-04-30T16:41:54Z</time>
      </trkpt>
      <trkpt lat="45.68428" lon="4.68636">
        <ele>326.2</ele>
        <time>2025-04-30T16:41:55Z</time>
      </trkpt>
      <trkpt lat="45.68431" lon="4.68642">
        <ele>326.2</ele>
        <time>2025-04-30T16:41:56Z</time>
      </trkpt>
      <trkpt lat="45.68433" lon="4.68647">
        <ele>326</ele>
        <time>2025-04-30T16:41:57Z</time>
      </trkpt>
      <trkpt lat="45.68436" lon="4.68653">
        <ele>326</ele>
        <time>2025-04-30T16:41:58Z</time>
      </trkpt>
      <trkpt lat="45.68438" lon="4.68659">
        <ele>325.8</ele>
        <time>2025-04-30T16:41:59Z</time>
      </trkpt>
      <trkpt lat="45.68442" lon="4.68666">
        <ele>325.6</ele>
        <time>2025-04-30T16:42:00Z</time>
      </trkpt>
      <trkpt lat="45.68444" lon="4.6867">
        <ele>325.6</ele>
        <time>2025-04-30T16:42:01Z</time>
      </trkpt>
      <trkpt lat="45.68447" lon="4.68677">
        <ele>325.6</ele>
        <time>2025-04-30T16:42:02Z</time>
      </trkpt>
      <trkpt lat="45.6845" lon="4.68683">
        <ele>325.4</ele>
        <time>2025-04-30T16:42:03Z</time>
      </trkpt>
      <trkpt lat="45.68454" lon="4.6869">
        <ele>325.2</ele>
        <time>2025-04-30T16:42:04Z</time>
      </trkpt>
      <trkpt lat="45.68457" lon="4.68697">
        <ele>324.8</ele>
        <time>2025-04-30T16:42:05Z</time>
      </trkpt>
      <trkpt lat="45.6846" lon="4.68704">
        <ele>324.6</ele>
        <time>2025-04-30T16:42:06Z</time>
      </trkpt>
      <trkpt lat="45.68463" lon="4.6871">
        <ele>324.6</ele>
        <time>2025-04-30T16:42:07Z</time>
      </trkpt>
      <trkpt lat="45.68466" lon="4.68717">
        <ele>324.4</ele>
        <time>2025-04-30T16:42:08Z</time>
      </trkpt>
      <trkpt lat="45.68469" lon="4.68724">
        <ele>324.4</ele>
        <time>2025-04-30T16:42:09Z</time>
      </trkpt>
      <trkpt lat="45.68472" lon="4.68731">
        <ele>324.4</ele>
        <time>2025-04-30T16:42:10Z</time>
      </trkpt>
      <trkpt lat="45.68476" lon="4.68737">
        <ele>324.2</ele>
        <time>2025-04-30T16:42:11Z</time>
      </trkpt>
      <trkpt lat="45.68479" lon="4.68746">
        <ele>324.2</ele>
        <time>2025-04-30T16:42:12Z</time>
      </trkpt>
      <trkpt lat="45.68482" lon="4.68751">
        <ele>324</ele>
        <time>2025-04-30T16:42:13Z</time>
      </trkpt>
      <trkpt lat="45.68485" lon="4.68758">
        <ele>324</ele>
        <time>2025-04-30T16:42:14Z</time>
      </trkpt>
      <trkpt lat="45.68489" lon="4.68766">
        <ele>323.8</ele>
        <time>2025-04-30T16:42:15Z</time>
      </trkpt>
      <trkpt lat="45.68492" lon="4.68772">
        <ele>323.8</ele>
        <time>2025-04-30T16:42:16Z</time>
      </trkpt>
      <trkpt lat="45.68495" lon="4.68779">
        <ele>323.8</ele>
        <time>2025-04-30T16:42:17Z</time>
      </trkpt>
      <trkpt lat="45.68499" lon="4.68787">
        <ele>323.6</ele>
        <time>2025-04-30T16:42:18Z</time>
      </trkpt>
      <trkpt lat="45.68502" lon="4.68793">
        <ele>323.6</ele>
        <time>2025-04-30T16:42:19Z</time>
      </trkpt>
      <trkpt lat="45.68505" lon="4.688">
        <ele>323.4</ele>
        <time>2025-04-30T16:42:20Z</time>
      </trkpt>
      <trkpt lat="45.68508" lon="4.6881">
        <ele>323.4</ele>
        <time>2025-04-30T16:42:21Z</time>
      </trkpt>
      <trkpt lat="45.68511" lon="4.68816">
        <ele>323.2</ele>
        <time>2025-04-30T16:42:22Z</time>
      </trkpt>
      <trkpt lat="45.68514" lon="4.68823">
        <ele>323</ele>
        <time>2025-04-30T16:42:23Z</time>
      </trkpt>
      <trkpt lat="45.68518" lon="4.68833">
        <ele>323</ele>
        <time>2025-04-30T16:42:24Z</time>
      </trkpt>
      <trkpt lat="45.68521" lon="4.68841">
        <ele>322.6</ele>
        <time>2025-04-30T16:42:25Z</time>
      </trkpt>
      <trkpt lat="45.68523" lon="4.68847">
        <ele>322.4</ele>
        <time>2025-04-30T16:42:26Z</time>
      </trkpt>
      <trkpt lat="45.68526" lon="4.68857">
        <ele>322.2</ele>
        <time>2025-04-30T16:42:27Z</time>
      </trkpt>
      <trkpt lat="45.68528" lon="4.68864">
        <ele>322</ele>
        <time>2025-04-30T16:42:28Z</time>
      </trkpt>
      <trkpt lat="45.68531" lon="4.68872">
        <ele>321.8</ele>
        <time>2025-04-30T16:42:29Z</time>
      </trkpt>
      <trkpt lat="45.68533" lon="4.6888">
        <ele>321.8</ele>
        <time>2025-04-30T16:42:30Z</time>
      </trkpt>
      <trkpt lat="45.68536" lon="4.68891">
        <ele>321.6</ele>
        <time>2025-04-30T16:42:31Z</time>
      </trkpt>
      <trkpt lat="45.68538" lon="4.68898">
        <ele>321.6</ele>
        <time>2025-04-30T16:42:32Z</time>
      </trkpt>
      <trkpt lat="45.6854" lon="4.68908">
        <ele>321.4</ele>
        <time>2025-04-30T16:42:33Z</time>
      </trkpt>
      <trkpt lat="45.68542" lon="4.68917">
        <ele>321.4</ele>
        <time>2025-04-30T16:42:34Z</time>
      </trkpt>
      <trkpt lat="45.68543" lon="4.68924">
        <ele>321.2</ele>
        <time>2025-04-30T16:42:35Z</time>
      </trkpt>
      <trkpt lat="45.68545" lon="4.68934">
        <ele>321.2</ele>
        <time>2025-04-30T16:42:36Z</time>
      </trkpt>
      <trkpt lat="45.68546" lon="4.68943">
        <ele>321.2</ele>
        <time>2025-04-30T16:42:37Z</time>
      </trkpt>
      <trkpt lat="45.68547" lon="4.68952">
        <ele>321</ele>
        <time>2025-04-30T16:42:38Z</time>
      </trkpt>
      <trkpt lat="45.68548" lon="4.68961">
        <ele>321</ele>
        <time>2025-04-30T16:42:39Z</time>
      </trkpt>
      <trkpt lat="45.6855" lon="4.6897">
        <ele>320.8</ele>
        <time>2025-04-30T16:42:40Z</time>
      </trkpt>
      <trkpt lat="45.68551" lon="4.68979">
        <ele>320.6</ele>
        <time>2025-04-30T16:42:41Z</time>
      </trkpt>
      <trkpt lat="45.68552" lon="4.68987">
        <ele>320.4</ele>
        <time>2025-04-30T16:42:42Z</time>
      </trkpt>
      <trkpt lat="45.68553" lon="4.68999">
        <ele>320.2</ele>
        <time>2025-04-30T16:42:43Z</time>
      </trkpt>
      <trkpt lat="45.68554" lon="4.69006">
        <ele>320</ele>
        <time>2025-04-30T16:42:44Z</time>
      </trkpt>
      <trkpt lat="45.68554" lon="4.69016">
        <ele>319.6</ele>
        <time>2025-04-30T16:42:45Z</time>
      </trkpt>
      <trkpt lat="45.68555" lon="4.69028">
        <ele>319.2</ele>
        <time>2025-04-30T16:42:46Z</time>
      </trkpt>
      <trkpt lat="45.68555" lon="4.69037">
        <ele>319</ele>
        <time>2025-04-30T16:42:47Z</time>
      </trkpt>
      <trkpt lat="45.68556" lon="4.69045">
        <ele>318.8</ele>
        <time>2025-04-30T16:42:48Z</time>
      </trkpt>
      <trkpt lat="45.68556" lon="4.69054">
        <ele>318.6</ele>
        <time>2025-04-30T16:42:49Z</time>
      </trkpt>
      <trkpt lat="45.68558" lon="4.69063">
        <ele>318.6</ele>
        <time>2025-04-30T16:42:50Z</time>
      </trkpt>
      <trkpt lat="45.6856" lon="4.69071">
        <ele>318.6</ele>
        <time>2025-04-30T16:42:51Z</time>
      </trkpt>
      <trkpt lat="45.68562" lon="4.69079">
        <ele>318.6</ele>
        <time>2025-04-30T16:42:52Z</time>
      </trkpt>
      <trkpt lat="45.68565" lon="4.69088">
        <ele>318.4</ele>
        <time>2025-04-30T16:42:53Z</time>
      </trkpt>
      <trkpt lat="45.68567" lon="4.69096">
        <ele>318.4</ele>
        <time>2025-04-30T16:42:54Z</time>
      </trkpt>
      <trkpt lat="45.6857" lon="4.69106">
        <ele>318.4</ele>
        <time>2025-04-30T16:42:55Z</time>
      </trkpt>
      <trkpt lat="45.68572" lon="4.69115">
        <ele>318.4</ele>
        <time>2025-04-30T16:42:56Z</time>
      </trkpt>
      <trkpt lat="45.68574" lon="4.69121">
        <ele>318.4</ele>
        <time>2025-04-30T16:42:57Z</time>
      </trkpt>
      <trkpt lat="45.68576" lon="4.6913">
        <ele>318.2</ele>
        <time>2025-04-30T16:42:58Z</time>
      </trkpt>
      <trkpt lat="45.68578" lon="4.6914">
        <ele>318.2</ele>
        <time>2025-04-30T16:42:59Z</time>
      </trkpt>
      <trkpt lat="45.68579" lon="4.69148">
        <ele>318.2</ele>
        <time>2025-04-30T16:43:00Z</time>
      </trkpt>
      <trkpt lat="45.6858" lon="4.69154">
        <ele>318.4</ele>
        <time>2025-04-30T16:43:01Z</time>
      </trkpt>
      <trkpt lat="45.68581" lon="4.69164">
        <ele>318.4</ele>
        <time>2025-04-30T16:43:02Z</time>
      </trkpt>
      <trkpt lat="45.68581" lon="4.69172">
        <ele>318.6</ele>
        <time>2025-04-30T16:43:03Z</time>
      </trkpt>
      <trkpt lat="45.68581" lon="4.69178">
        <ele>318.8</ele>
        <time>2025-04-30T16:43:04Z</time>
      </trkpt>
      <trkpt lat="45.68581" lon="4.69186">
        <ele>318.8</ele>
        <time>2025-04-30T16:43:05Z</time>
      </trkpt>
      <trkpt lat="45.68581" lon="4.69193">
        <ele>319.4</ele>
        <time>2025-04-30T16:43:06Z</time>
      </trkpt>
      <trkpt lat="45.68581" lon="4.69198">
        <ele>320</ele>
        <time>2025-04-30T16:43:07Z</time>
      </trkpt>
      <trkpt lat="45.6858" lon="4.69206">
        <ele>320.4</ele>
        <time>2025-04-30T16:43:08Z</time>
      </trkpt>
      <trkpt lat="45.6858" lon="4.69211">
        <ele>320.8</ele>
        <time>2025-04-30T16:43:09Z</time>
      </trkpt>
      <trkpt lat="45.6858" lon="4.69217">
        <ele>321.2</ele>
        <time>2025-04-30T16:43:10Z</time>
      </trkpt>
      <trkpt lat="45.6858" lon="4.69223">
        <ele>322</ele>
        <time>2025-04-30T16:43:11Z</time>
      </trkpt>
      <trkpt lat="45.6858" lon="4.69229">
        <ele>322.6</ele>
        <time>2025-04-30T16:43:12Z</time>
      </trkpt>
      <trkpt lat="45.68579" lon="4.69236">
        <ele>322.8</ele>
        <time>2025-04-30T16:43:13Z</time>
      </trkpt>
      <trkpt lat="45.68578" lon="4.69244">
        <ele>323</ele>
        <time>2025-04-30T16:43:14Z</time>
      </trkpt>
      <trkpt lat="45.68577" lon="4.69249">
        <ele>323</ele>
        <time>2025-04-30T16:43:15Z</time>
      </trkpt>
      <trkpt lat="45.68576" lon="4.69255">
        <ele>323.4</ele>
        <time>2025-04-30T16:43:16Z</time>
      </trkpt>
      <trkpt lat="45.68574" lon="4.69262">
        <ele>323.6</ele>
        <time>2025-04-30T16:43:17Z</time>
      </trkpt>
      <trkpt lat="45.68573" lon="4.69268">
        <ele>324</ele>
        <time>2025-04-30T16:43:18Z</time>
      </trkpt>
      <trkpt lat="45.68571" lon="4.69273">
        <ele>324</ele>
        <time>2025-04-30T16:43:19Z</time>
      </trkpt>
      <trkpt lat="45.68569" lon="4.6928">
        <ele>324.4</ele>
        <time>2025-04-30T16:43:20Z</time>
      </trkpt>
      <trkpt lat="45.68568" lon="4.69286">
        <ele>324.6</ele>
        <time>2025-04-30T16:43:21Z</time>
      </trkpt>
      <trkpt lat="45.68566" lon="4.69291">
        <ele>325</ele>
        <time>2025-04-30T16:43:22Z</time>
      </trkpt>
      <trkpt lat="45.68564" lon="4.69298">
        <ele>325.4</ele>
        <time>2025-04-30T16:43:23Z</time>
      </trkpt>
      <trkpt lat="45.68562" lon="4.69303">
        <ele>325.6</ele>
        <time>2025-04-30T16:43:24Z</time>
      </trkpt>
      <trkpt lat="45.68561" lon="4.69308">
        <ele>325.8</ele>
        <time>2025-04-30T16:43:25Z</time>
      </trkpt>
      <trkpt lat="45.68558" lon="4.69315">
        <ele>326.2</ele>
        <time>2025-04-30T16:43:26Z</time>
      </trkpt>
      <trkpt lat="45.68557" lon="4.6932">
        <ele>326.4</ele>
        <time>2025-04-30T16:43:27Z</time>
      </trkpt>
      <trkpt lat="45.68556" lon="4.69325">
        <ele>326.6</ele>
        <time>2025-04-30T16:43:28Z</time>
      </trkpt>
      <trkpt lat="45.68553" lon="4.69331">
        <ele>327.2</ele>
        <time>2025-04-30T16:43:29Z</time>
      </trkpt>
      <trkpt lat="45.68552" lon="4.69336">
        <ele>327.6</ele>
        <time>2025-04-30T16:43:30Z</time>
      </trkpt>
      <trkpt lat="45.6855" lon="4.69341">
        <ele>327.8</ele>
        <time>2025-04-30T16:43:31Z</time>
      </trkpt>
      <trkpt lat="45.68548" lon="4.69346">
        <ele>328.2</ele>
        <time>2025-04-30T16:43:32Z</time>
      </trkpt>
      <trkpt lat="45.68546" lon="4.69352">
        <ele>328.4</ele>
        <time>2025-04-30T16:43:33Z</time>
      </trkpt>
      <trkpt lat="45.68544" lon="4.69357">
        <ele>328.6</ele>
        <time>2025-04-30T16:43:34Z</time>
      </trkpt>
      <trkpt lat="45.68542" lon="4.69363">
        <ele>328.8</ele>
        <time>2025-04-30T16:43:35Z</time>
      </trkpt>
      <trkpt lat="45.6854" lon="4.69368">
        <ele>329</ele>
        <time>2025-04-30T16:43:36Z</time>
      </trkpt>
      <trkpt lat="45.68538" lon="4.69373">
        <ele>329.2</ele>
        <time>2025-04-30T16:43:37Z</time>
      </trkpt>
      <trkpt lat="45.68536" lon="4.69379">
        <ele>329.4</ele>
        <time>2025-04-30T16:43:38Z</time>
      </trkpt>
      <trkpt lat="45.68534" lon="4.69384">
        <ele>329.6</ele>
        <time>2025-04-30T16:43:39Z</time>
      </trkpt>
      <trkpt lat="45.68532" lon="4.69389">
        <ele>329.8</ele>
        <time>2025-04-30T16:43:40Z</time>
      </trkpt>
      <trkpt lat="45.68531" lon="4.69393">
        <ele>330.2</ele>
        <time>2025-04-30T16:43:41Z</time>
      </trkpt>
      <trkpt lat="45.68529" lon="4.69399">
        <ele>330.4</ele>
        <time>2025-04-30T16:43:42Z</time>
      </trkpt>
      <trkpt lat="45.68527" lon="4.69404">
        <ele>330.8</ele>
        <time>2025-04-30T16:43:43Z</time>
      </trkpt>
      <trkpt lat="45.68526" lon="4.69408">
        <ele>331.2</ele>
        <time>2025-04-30T16:43:44Z</time>
      </trkpt>
      <trkpt lat="45.68524" lon="4.69414">
        <ele>331.4</ele>
        <time>2025-04-30T16:43:45Z</time>
      </trkpt>
      <trkpt lat="45.68522" lon="4.69418">
        <ele>331.6</ele>
        <time>2025-04-30T16:43:46Z</time>
      </trkpt>
      <trkpt lat="45.68521" lon="4.69422">
        <ele>331.8</ele>
        <time>2025-04-30T16:43:47Z</time>
      </trkpt>
      <trkpt lat="45.6852" lon="4.69428">
        <ele>332.2</ele>
        <time>2025-04-30T16:43:48Z</time>
      </trkpt>
      <trkpt lat="45.68518" lon="4.69432">
        <ele>332.4</ele>
        <time>2025-04-30T16:43:49Z</time>
      </trkpt>
      <trkpt lat="45.68517" lon="4.69436">
        <ele>332.8</ele>
        <time>2025-04-30T16:43:50Z</time>
      </trkpt>
      <trkpt lat="45.68515" lon="4.69441">
        <ele>332.8</ele>
        <time>2025-04-30T16:43:51Z</time>
      </trkpt>
      <trkpt lat="45.68513" lon="4.69446">
        <ele>333.2</ele>
        <time>2025-04-30T16:43:52Z</time>
      </trkpt>
      <trkpt lat="45.68512" lon="4.69449">
        <ele>333.4</ele>
        <time>2025-04-30T16:43:53Z</time>
      </trkpt>
      <trkpt lat="45.6851" lon="4.69454">
        <ele>333.6</ele>
        <time>2025-04-30T16:43:54Z</time>
      </trkpt>
      <trkpt lat="45.68508" lon="4.69459">
        <ele>333.8</ele>
        <time>2025-04-30T16:43:55Z</time>
      </trkpt>
      <trkpt lat="45.68506" lon="4.69464">
        <ele>334</ele>
        <time>2025-04-30T16:43:56Z</time>
      </trkpt>
      <trkpt lat="45.68504" lon="4.69471">
        <ele>334</ele>
        <time>2025-04-30T16:43:57Z</time>
      </trkpt>
      <trkpt lat="45.68502" lon="4.69477">
        <ele>334.2</ele>
        <time>2025-04-30T16:43:58Z</time>
      </trkpt>
      <trkpt lat="45.68501" lon="4.69481">
        <ele>334.2</ele>
        <time>2025-04-30T16:43:59Z</time>
      </trkpt>
      <trkpt lat="45.68498" lon="4.69488">
        <ele>334.2</ele>
        <time>2025-04-30T16:44:00Z</time>
      </trkpt>
      <trkpt lat="45.68497" lon="4.69494">
        <ele>334.4</ele>
        <time>2025-04-30T16:44:01Z</time>
      </trkpt>
      <trkpt lat="45.68495" lon="4.69499">
        <ele>334.4</ele>
        <time>2025-04-30T16:44:02Z</time>
      </trkpt>
      <trkpt lat="45.68493" lon="4.69506">
        <ele>334.4</ele>
        <time>2025-04-30T16:44:03Z</time>
      </trkpt>
      <trkpt lat="45.68492" lon="4.69511">
        <ele>334.6</ele>
        <time>2025-04-30T16:44:04Z</time>
      </trkpt>
      <trkpt lat="45.68491" lon="4.69517">
        <ele>334.6</ele>
        <time>2025-04-30T16:44:05Z</time>
      </trkpt>
      <trkpt lat="45.6849" lon="4.69524">
        <ele>334.6</ele>
        <time>2025-04-30T16:44:06Z</time>
      </trkpt>
      <trkpt lat="45.68489" lon="4.6953">
        <ele>334.8</ele>
        <time>2025-04-30T16:44:07Z</time>
      </trkpt>
      <trkpt lat="45.68489" lon="4.69536">
        <ele>334.8</ele>
        <time>2025-04-30T16:44:08Z</time>
      </trkpt>
      <trkpt lat="45.68488" lon="4.69544">
        <ele>334.8</ele>
        <time>2025-04-30T16:44:09Z</time>
      </trkpt>
      <trkpt lat="45.68488" lon="4.69549">
        <ele>335</ele>
        <time>2025-04-30T16:44:10Z</time>
      </trkpt>
      <trkpt lat="45.68487" lon="4.69555">
        <ele>335</ele>
        <time>2025-04-30T16:44:11Z</time>
      </trkpt>
      <trkpt lat="45.68487" lon="4.69563">
        <ele>335.2</ele>
        <time>2025-04-30T16:44:12Z</time>
      </trkpt>
      <trkpt lat="45.68488" lon="4.6957">
        <ele>335.4</ele>
        <time>2025-04-30T16:44:13Z</time>
      </trkpt>
      <trkpt lat="45.68488" lon="4.69575">
        <ele>335.6</ele>
        <time>2025-04-30T16:44:14Z</time>
      </trkpt>
      <trkpt lat="45.68487" lon="4.69582">
        <ele>335.8</ele>
        <time>2025-04-30T16:44:15Z</time>
      </trkpt>
      <trkpt lat="45.68487" lon="4.69588">
        <ele>336</ele>
        <time>2025-04-30T16:44:16Z</time>
      </trkpt>
      <trkpt lat="45.68487" lon="4.69595">
        <ele>336.2</ele>
        <time>2025-04-30T16:44:17Z</time>
      </trkpt>
      <trkpt lat="45.68486" lon="4.69602">
        <ele>336.4</ele>
        <time>2025-04-30T16:44:18Z</time>
      </trkpt>
      <trkpt lat="45.68486" lon="4.69607">
        <ele>336.6</ele>
        <time>2025-04-30T16:44:19Z</time>
      </trkpt>
      <trkpt lat="45.68485" lon="4.69613">
        <ele>336.8</ele>
        <time>2025-04-30T16:44:20Z</time>
      </trkpt>
      <trkpt lat="45.68484" lon="4.6962">
        <ele>337</ele>
        <time>2025-04-30T16:44:21Z</time>
      </trkpt>
      <trkpt lat="45.68483" lon="4.69626">
        <ele>337</ele>
        <time>2025-04-30T16:44:22Z</time>
      </trkpt>
      <trkpt lat="45.68483" lon="4.6963">
        <ele>337.4</ele>
        <time>2025-04-30T16:44:23Z</time>
      </trkpt>
      <trkpt lat="45.68481" lon="4.69636">
        <ele>337.6</ele>
        <time>2025-04-30T16:44:24Z</time>
      </trkpt>
      <trkpt lat="45.6848" lon="4.6964">
        <ele>337.8</ele>
        <time>2025-04-30T16:44:25Z</time>
      </trkpt>
      <trkpt lat="45.68479" lon="4.69644">
        <ele>338.2</ele>
        <time>2025-04-30T16:44:26Z</time>
      </trkpt>
      <trkpt lat="45.68478" lon="4.69649">
        <ele>338.4</ele>
        <time>2025-04-30T16:44:27Z</time>
      </trkpt>
      <trkpt lat="45.68476" lon="4.69653">
        <ele>338.6</ele>
        <time>2025-04-30T16:44:28Z</time>
      </trkpt>
      <trkpt lat="45.68475" lon="4.69656">
        <ele>339</ele>
        <time>2025-04-30T16:44:29Z</time>
      </trkpt>
      <trkpt lat="45.68474" lon="4.69661">
        <ele>339.2</ele>
        <time>2025-04-30T16:44:30Z</time>
      </trkpt>
      <trkpt lat="45.68473" lon="4.69664">
        <ele>339.4</ele>
        <time>2025-04-30T16:44:31Z</time>
      </trkpt>
      <trkpt lat="45.68472" lon="4.69668">
        <ele>339.6</ele>
        <time>2025-04-30T16:44:32Z</time>
      </trkpt>
      <trkpt lat="45.6847" lon="4.69673">
        <ele>339.8</ele>
        <time>2025-04-30T16:44:33Z</time>
      </trkpt>
      <trkpt lat="45.68469" lon="4.69677">
        <ele>340</ele>
        <time>2025-04-30T16:44:34Z</time>
      </trkpt>
      <trkpt lat="45.68468" lon="4.6968">
        <ele>340.4</ele>
        <time>2025-04-30T16:44:35Z</time>
      </trkpt>
      <trkpt lat="45.68467" lon="4.69684">
        <ele>340.4</ele>
        <time>2025-04-30T16:44:36Z</time>
      </trkpt>
      <trkpt lat="45.68466" lon="4.69689">
        <ele>340.8</ele>
        <time>2025-04-30T16:44:37Z</time>
      </trkpt>
      <trkpt lat="45.68465" lon="4.69693">
        <ele>340.8</ele>
        <time>2025-04-30T16:44:38Z</time>
      </trkpt>
      <trkpt lat="45.68463" lon="4.69698">
        <ele>340.8</ele>
        <time>2025-04-30T16:44:39Z</time>
      </trkpt>
      <trkpt lat="45.68462" lon="4.69702">
        <ele>341</ele>
        <time>2025-04-30T16:44:40Z</time>
      </trkpt>
      <trkpt lat="45.68461" lon="4.69705">
        <ele>341.2</ele>
        <time>2025-04-30T16:44:41Z</time>
      </trkpt>
      <trkpt lat="45.68459" lon="4.6971">
        <ele>341.4</ele>
        <time>2025-04-30T16:44:42Z</time>
      </trkpt>
      <trkpt lat="45.68458" lon="4.69715">
        <ele>341.6</ele>
        <time>2025-04-30T16:44:43Z</time>
      </trkpt>
      <trkpt lat="45.68457" lon="4.69718">
        <ele>341.8</ele>
        <time>2025-04-30T16:44:44Z</time>
      </trkpt>
      <trkpt lat="45.68456" lon="4.69723">
        <ele>342</ele>
        <time>2025-04-30T16:44:45Z</time>
      </trkpt>
      <trkpt lat="45.68456" lon="4.69727">
        <ele>342.2</ele>
        <time>2025-04-30T16:44:46Z</time>
      </trkpt>
      <trkpt lat="45.68455" lon="4.6973">
        <ele>342.4</ele>
        <time>2025-04-30T16:44:47Z</time>
      </trkpt>
      <trkpt lat="45.68454" lon="4.69735">
        <ele>342.6</ele>
        <time>2025-04-30T16:44:48Z</time>
      </trkpt>
      <trkpt lat="45.68453" lon="4.69738">
        <ele>342.6</ele>
        <time>2025-04-30T16:44:49Z</time>
      </trkpt>
      <trkpt lat="45.68452" lon="4.69741">
        <ele>343</ele>
        <time>2025-04-30T16:44:50Z</time>
      </trkpt>
      <trkpt lat="45.68451" lon="4.69745">
        <ele>343.2</ele>
        <time>2025-04-30T16:44:51Z</time>
      </trkpt>
      <trkpt lat="45.6845" lon="4.69749">
        <ele>343.4</ele>
        <time>2025-04-30T16:44:52Z</time>
      </trkpt>
      <trkpt lat="45.68449" lon="4.69752">
        <ele>343.4</ele>
        <time>2025-04-30T16:44:53Z</time>
      </trkpt>
      <trkpt lat="45.68448" lon="4.69756">
        <ele>343.6</ele>
        <time>2025-04-30T16:44:54Z</time>
      </trkpt>
      <trkpt lat="45.68447" lon="4.69759">
        <ele>343.8</ele>
        <time>2025-04-30T16:44:55Z</time>
      </trkpt>
      <trkpt lat="45.68446" lon="4.69761">
        <ele>344</ele>
        <time>2025-04-30T16:44:56Z</time>
      </trkpt>
      <trkpt lat="45.68445" lon="4.69765">
        <ele>344.4</ele>
        <time>2025-04-30T16:44:57Z</time>
      </trkpt>
      <trkpt lat="45.68444" lon="4.69768">
        <ele>344.6</ele>
        <time>2025-04-30T16:44:58Z</time>
      </trkpt>
      <trkpt lat="45.68442" lon="4.69771">
        <ele>344.8</ele>
        <time>2025-04-30T16:44:59Z</time>
      </trkpt>
      <trkpt lat="45.68441" lon="4.69775">
        <ele>345.2</ele>
        <time>2025-04-30T16:45:00Z</time>
      </trkpt>
      <trkpt lat="45.6844" lon="4.69779">
        <ele>345.4</ele>
        <time>2025-04-30T16:45:01Z</time>
      </trkpt>
      <trkpt lat="45.68438" lon="4.69783">
        <ele>345.6</ele>
        <time>2025-04-30T16:45:02Z</time>
      </trkpt>
      <trkpt lat="45.68437" lon="4.69787">
        <ele>345.8</ele>
        <time>2025-04-30T16:45:03Z</time>
      </trkpt>
      <trkpt lat="45.68436" lon="4.69791">
        <ele>346</ele>
        <time>2025-04-30T16:45:04Z</time>
      </trkpt>
      <trkpt lat="45.68435" lon="4.69794">
        <ele>346.4</ele>
        <time>2025-04-30T16:45:05Z</time>
      </trkpt>
      <trkpt lat="45.68433" lon="4.69798">
        <ele>346.6</ele>
        <time>2025-04-30T16:45:06Z</time>
      </trkpt>
      <trkpt lat="45.68431" lon="4.69801">
        <ele>347</ele>
        <time>2025-04-30T16:45:07Z</time>
      </trkpt>
      <trkpt lat="45.68429" lon="4.69805">
        <ele>347</ele>
        <time>2025-04-30T16:45:08Z</time>
      </trkpt>
      <trkpt lat="45.68427" lon="4.69808">
        <ele>347.4</ele>
        <time>2025-04-30T16:45:09Z</time>
      </trkpt>
      <trkpt lat="45.68426" lon="4.69812">
        <ele>347.8</ele>
        <time>2025-04-30T16:45:10Z</time>
      </trkpt>
      <trkpt lat="45.68424" lon="4.69815">
        <ele>348</ele>
        <time>2025-04-30T16:45:11Z</time>
      </trkpt>
      <trkpt lat="45.68422" lon="4.69819">
        <ele>348.4</ele>
        <time>2025-04-30T16:45:12Z</time>
      </trkpt>
      <trkpt lat="45.68421" lon="4.69822">
        <ele>348.6</ele>
        <time>2025-04-30T16:45:13Z</time>
      </trkpt>
      <trkpt lat="45.68419" lon="4.69826">
        <ele>349</ele>
        <time>2025-04-30T16:45:14Z</time>
      </trkpt>
      <trkpt lat="45.68417" lon="4.69829">
        <ele>349</ele>
        <time>2025-04-30T16:45:15Z</time>
      </trkpt>
      <trkpt lat="45.68415" lon="4.69832">
        <ele>349.2</ele>
        <time>2025-04-30T16:45:16Z</time>
      </trkpt>
      <trkpt lat="45.68413" lon="4.69836">
        <ele>349.2</ele>
        <time>2025-04-30T16:45:17Z</time>
      </trkpt>
      <trkpt lat="45.68411" lon="4.69839">
        <ele>349.2</ele>
        <time>2025-04-30T16:45:18Z</time>
      </trkpt>
      <trkpt lat="45.6841" lon="4.69843">
        <ele>349.4</ele>
        <time>2025-04-30T16:45:19Z</time>
      </trkpt>
      <trkpt lat="45.68408" lon="4.69846">
        <ele>349.6</ele>
        <time>2025-04-30T16:45:20Z</time>
      </trkpt>
      <trkpt lat="45.68407" lon="4.6985">
        <ele>350</ele>
        <time>2025-04-30T16:45:21Z</time>
      </trkpt>
      <trkpt lat="45.68405" lon="4.69853">
        <ele>350</ele>
        <time>2025-04-30T16:45:22Z</time>
      </trkpt>
      <trkpt lat="45.68404" lon="4.69857">
        <ele>350.4</ele>
        <time>2025-04-30T16:45:23Z</time>
      </trkpt>
      <trkpt lat="45.68402" lon="4.69862">
        <ele>350.6</ele>
        <time>2025-04-30T16:45:24Z</time>
      </trkpt>
      <trkpt lat="45.68401" lon="4.69866">
        <ele>350.6</ele>
        <time>2025-04-30T16:45:25Z</time>
      </trkpt>
      <trkpt lat="45.684" lon="4.6987">
        <ele>350.8</ele>
        <time>2025-04-30T16:45:26Z</time>
      </trkpt>
      <trkpt lat="45.68398" lon="4.69874">
        <ele>350.8</ele>
        <time>2025-04-30T16:45:27Z</time>
      </trkpt>
      <trkpt lat="45.68397" lon="4.69878">
        <ele>351</ele>
        <time>2025-04-30T16:45:28Z</time>
      </trkpt>
      <trkpt lat="45.68395" lon="4.69882">
        <ele>351.2</ele>
        <time>2025-04-30T16:45:29Z</time>
      </trkpt>
      <trkpt lat="45.68393" lon="4.69886">
        <ele>351.4</ele>
        <time>2025-04-30T16:45:30Z</time>
      </trkpt>
      <trkpt lat="45.68392" lon="4.6989">
        <ele>351.4</ele>
        <time>2025-04-30T16:45:31Z</time>
      </trkpt>
      <trkpt lat="45.68391" lon="4.69894">
        <ele>351.4</ele>
        <time>2025-04-30T16:45:32Z</time>
      </trkpt>
      <trkpt lat="45.6839" lon="4.69898">
        <ele>351.4</ele>
        <time>2025-04-30T16:45:33Z</time>
      </trkpt>
      <trkpt lat="45.68389" lon="4.69902">
        <ele>351.4</ele>
        <time>2025-04-30T16:45:34Z</time>
      </trkpt>
      <trkpt lat="45.68388" lon="4.69906">
        <ele>351.4</ele>
        <time>2025-04-30T16:45:35Z</time>
      </trkpt>
      <trkpt lat="45.68387" lon="4.69911">
        <ele>351.4</ele>
        <time>2025-04-30T16:45:36Z</time>
      </trkpt>
      <trkpt lat="45.68386" lon="4.69916">
        <ele>351.4</ele>
        <time>2025-04-30T16:45:37Z</time>
      </trkpt>
      <trkpt lat="45.68385" lon="4.6992">
        <ele>351.4</ele>
        <time>2025-04-30T16:45:38Z</time>
      </trkpt>
      <trkpt lat="45.68384" lon="4.69924">
        <ele>351.4</ele>
        <time>2025-04-30T16:45:39Z</time>
      </trkpt>
      <trkpt lat="45.68383" lon="4.69928">
        <ele>351.6</ele>
        <time>2025-04-30T16:45:40Z</time>
      </trkpt>
      <trkpt lat="45.68381" lon="4.69931">
        <ele>351.8</ele>
        <time>2025-04-30T16:45:41Z</time>
      </trkpt>
      <trkpt lat="45.6838" lon="4.69935">
        <ele>351.8</ele>
        <time>2025-04-30T16:45:42Z</time>
      </trkpt>
      <trkpt lat="45.68379" lon="4.69939">
        <ele>352</ele>
        <time>2025-04-30T16:45:43Z</time>
      </trkpt>
      <trkpt lat="45.68378" lon="4.69943">
        <ele>352.2</ele>
        <time>2025-04-30T16:45:44Z</time>
      </trkpt>
      <trkpt lat="45.68377" lon="4.69949">
        <ele>352.2</ele>
        <time>2025-04-30T16:45:45Z</time>
      </trkpt>
      <trkpt lat="45.68376" lon="4.69953">
        <ele>352.2</ele>
        <time>2025-04-30T16:45:46Z</time>
      </trkpt>
      <trkpt lat="45.68376" lon="4.69959">
        <ele>352.2</ele>
        <time>2025-04-30T16:45:47Z</time>
      </trkpt>
      <trkpt lat="45.68377" lon="4.69963">
        <ele>352.2</ele>
        <time>2025-04-30T16:45:48Z</time>
      </trkpt>
      <trkpt lat="45.68379" lon="4.69967">
        <ele>352.2</ele>
        <time>2025-04-30T16:45:49Z</time>
      </trkpt>
      <trkpt lat="45.68381" lon="4.69969">
        <ele>352.4</ele>
        <time>2025-04-30T16:45:50Z</time>
      </trkpt>
      <trkpt lat="45.68385" lon="4.69972">
        <ele>352.4</ele>
        <time>2025-04-30T16:45:51Z</time>
      </trkpt>
      <trkpt lat="45.68388" lon="4.69974">
        <ele>352.4</ele>
        <time>2025-04-30T16:45:52Z</time>
      </trkpt>
      <trkpt lat="45.68392" lon="4.69976">
        <ele>352.4</ele>
        <time>2025-04-30T16:45:53Z</time>
      </trkpt>
      <trkpt lat="45.68396" lon="4.69978">
        <ele>352.4</ele>
        <time>2025-04-30T16:45:54Z</time>
      </trkpt>
      <trkpt lat="45.684" lon="4.6998">
        <ele>352.4</ele>
        <time>2025-04-30T16:45:55Z</time>
      </trkpt>
      <trkpt lat="45.68404" lon="4.69982">
        <ele>352.2</ele>
        <time>2025-04-30T16:45:56Z</time>
      </trkpt>
      <trkpt lat="45.68408" lon="4.69984">
        <ele>352.2</ele>
        <time>2025-04-30T16:45:57Z</time>
      </trkpt>
      <trkpt lat="45.68412" lon="4.69987">
        <ele>352.2</ele>
        <time>2025-04-30T16:45:58Z</time>
      </trkpt>
      <trkpt lat="45.68416" lon="4.6999">
        <ele>352</ele>
        <time>2025-04-30T16:45:59Z</time>
      </trkpt>
      <trkpt lat="45.6842" lon="4.69994">
        <ele>352</ele>
        <time>2025-04-30T16:46:00Z</time>
      </trkpt>
      <trkpt lat="45.68424" lon="4.69998">
        <ele>352</ele>
        <time>2025-04-30T16:46:01Z</time>
      </trkpt>
      <trkpt lat="45.68428" lon="4.70001">
        <ele>351.6</ele>
        <time>2025-04-30T16:46:02Z</time>
      </trkpt>
      <trkpt lat="45.68433" lon="4.70005">
        <ele>351.4</ele>
        <time>2025-04-30T16:46:03Z</time>
      </trkpt>
      <trkpt lat="45.68437" lon="4.7001">
        <ele>351</ele>
        <time>2025-04-30T16:46:04Z</time>
      </trkpt>
      <trkpt lat="45.68441" lon="4.70016">
        <ele>350.6</ele>
        <time>2025-04-30T16:46:05Z</time>
      </trkpt>
      <trkpt lat="45.68444" lon="4.70023">
        <ele>350.4</ele>
        <time>2025-04-30T16:46:06Z</time>
      </trkpt>
      <trkpt lat="45.68445" lon="4.70031">
        <ele>350</ele>
        <time>2025-04-30T16:46:07Z</time>
      </trkpt>
      <trkpt lat="45.68446" lon="4.70037">
        <ele>349.4</ele>
        <time>2025-04-30T16:46:08Z</time>
      </trkpt>
      <trkpt lat="45.68448" lon="4.70047">
        <ele>349.4</ele>
        <time>2025-04-30T16:46:09Z</time>
      </trkpt>
      <trkpt lat="45.6845" lon="4.70055">
        <ele>348.8</ele>
        <time>2025-04-30T16:46:10Z</time>
      </trkpt>
      <trkpt lat="45.68451" lon="4.70062">
        <ele>348.6</ele>
        <time>2025-04-30T16:46:11Z</time>
      </trkpt>
      <trkpt lat="45.68452" lon="4.70072">
        <ele>348.4</ele>
        <time>2025-04-30T16:46:12Z</time>
      </trkpt>
      <trkpt lat="45.68454" lon="4.7008">
        <ele>348.2</ele>
        <time>2025-04-30T16:46:13Z</time>
      </trkpt>
      <trkpt lat="45.68455" lon="4.70087">
        <ele>348</ele>
        <time>2025-04-30T16:46:14Z</time>
      </trkpt>
      <trkpt lat="45.68456" lon="4.70095">
        <ele>348</ele>
        <time>2025-04-30T16:46:15Z</time>
      </trkpt>
      <trkpt lat="45.68458" lon="4.70104">
        <ele>347.8</ele>
        <time>2025-04-30T16:46:16Z</time>
      </trkpt>
      <trkpt lat="45.68459" lon="4.70111">
        <ele>347.6</ele>
        <time>2025-04-30T16:46:17Z</time>
      </trkpt>
      <trkpt lat="45.68461" lon="4.70119">
        <ele>347.8</ele>
        <time>2025-04-30T16:46:18Z</time>
      </trkpt>
      <trkpt lat="45.68463" lon="4.70128">
        <ele>347.6</ele>
        <time>2025-04-30T16:46:19Z</time>
      </trkpt>
      <trkpt lat="45.68466" lon="4.70134">
        <ele>347.8</ele>
        <time>2025-04-30T16:46:20Z</time>
      </trkpt>
      <trkpt lat="45.68469" lon="4.70142">
        <ele>348</ele>
        <time>2025-04-30T16:46:21Z</time>
      </trkpt>
      <trkpt lat="45.68473" lon="4.70148">
        <ele>348</ele>
        <time>2025-04-30T16:46:22Z</time>
      </trkpt>
      <trkpt lat="45.68478" lon="4.70154">
        <ele>348</ele>
        <time>2025-04-30T16:46:23Z</time>
      </trkpt>
      <trkpt lat="45.68482" lon="4.7016">
        <ele>348</ele>
        <time>2025-04-30T16:46:24Z</time>
      </trkpt>
      <trkpt lat="45.68486" lon="4.70167">
        <ele>348</ele>
        <time>2025-04-30T16:46:25Z</time>
      </trkpt>
      <trkpt lat="45.6849" lon="4.70174">
        <ele>348</ele>
        <time>2025-04-30T16:46:26Z</time>
      </trkpt>
      <trkpt lat="45.68494" lon="4.70181">
        <ele>347.8</ele>
        <time>2025-04-30T16:46:27Z</time>
      </trkpt>
      <trkpt lat="45.68497" lon="4.70189">
        <ele>347.6</ele>
        <time>2025-04-30T16:46:28Z</time>
      </trkpt>
      <trkpt lat="45.685" lon="4.70197">
        <ele>347.6</ele>
        <time>2025-04-30T16:46:29Z</time>
      </trkpt>
      <trkpt lat="45.68502" lon="4.70206">
        <ele>347.6</ele>
        <time>2025-04-30T16:46:30Z</time>
      </trkpt>
      <trkpt lat="45.68503" lon="4.70214">
        <ele>347.4</ele>
        <time>2025-04-30T16:46:31Z</time>
      </trkpt>
      <trkpt lat="45.68505" lon="4.70222">
        <ele>347.4</ele>
        <time>2025-04-30T16:46:32Z</time>
      </trkpt>
      <trkpt lat="45.68508" lon="4.7023">
        <ele>347.4</ele>
        <time>2025-04-30T16:46:33Z</time>
      </trkpt>
      <trkpt lat="45.6851" lon="4.70238">
        <ele>347.4</ele>
        <time>2025-04-30T16:46:34Z</time>
      </trkpt>
      <trkpt lat="45.68512" lon="4.70245">
        <ele>347.6</ele>
        <time>2025-04-30T16:46:35Z</time>
      </trkpt>
      <trkpt lat="45.68514" lon="4.70253">
        <ele>347.4</ele>
        <time>2025-04-30T16:46:36Z</time>
      </trkpt>
      <trkpt lat="45.68516" lon="4.70261">
        <ele>347.4</ele>
        <time>2025-04-30T16:46:37Z</time>
      </trkpt>
      <trkpt lat="45.68517" lon="4.70267">
        <ele>347.4</ele>
        <time>2025-04-30T16:46:38Z</time>
      </trkpt>
      <trkpt lat="45.68518" lon="4.70274">
        <ele>347.4</ele>
        <time>2025-04-30T16:46:39Z</time>
      </trkpt>
      <trkpt lat="45.68518" lon="4.70283">
        <ele>347.4</ele>
        <time>2025-04-30T16:46:40Z</time>
      </trkpt>
      <trkpt lat="45.68519" lon="4.7029">
        <ele>347.4</ele>
        <time>2025-04-30T16:46:41Z</time>
      </trkpt>
      <trkpt lat="45.68519" lon="4.70299">
        <ele>347.2</ele>
        <time>2025-04-30T16:46:42Z</time>
      </trkpt>
      <trkpt lat="45.68519" lon="4.70306">
        <ele>347.2</ele>
        <time>2025-04-30T16:46:43Z</time>
      </trkpt>
      <trkpt lat="45.68518" lon="4.70315">
        <ele>347</ele>
        <time>2025-04-30T16:46:44Z</time>
      </trkpt>
      <trkpt lat="45.68517" lon="4.70327">
        <ele>346.6</ele>
        <time>2025-04-30T16:46:45Z</time>
      </trkpt>
      <trkpt lat="45.68515" lon="4.70338">
        <ele>345.8</ele>
        <time>2025-04-30T16:46:46Z</time>
      </trkpt>
      <trkpt lat="45.68514" lon="4.70346">
        <ele>345</ele>
        <time>2025-04-30T16:46:47Z</time>
      </trkpt>
      <trkpt lat="45.68512" lon="4.70359">
        <ele>344</ele>
        <time>2025-04-30T16:46:48Z</time>
      </trkpt>
      <trkpt lat="45.68508" lon="4.7037">
        <ele>343.4</ele>
        <time>2025-04-30T16:46:49Z</time>
      </trkpt>
      <trkpt lat="45.68503" lon="4.70378">
        <ele>342.4</ele>
        <time>2025-04-30T16:46:50Z</time>
      </trkpt>
      <trkpt lat="45.68499" lon="4.70385">
        <ele>341.8</ele>
        <time>2025-04-30T16:46:51Z</time>
      </trkpt>
      <trkpt lat="45.68495" lon="4.70392">
        <ele>341.6</ele>
        <time>2025-04-30T16:46:52Z</time>
      </trkpt>
      <trkpt lat="45.68493" lon="4.70398">
        <ele>341.6</ele>
        <time>2025-04-30T16:46:53Z</time>
      </trkpt>
      <trkpt lat="45.68492" lon="4.70404">
        <ele>341.6</ele>
        <time>2025-04-30T16:46:54Z</time>
      </trkpt>
      <trkpt lat="45.68491" lon="4.70408">
        <ele>341.6</ele>
        <time>2025-04-30T16:46:55Z</time>
      </trkpt>
      <trkpt lat="45.68491" lon="4.70408">
        <ele>341.6</ele>
        <time>2025-04-30T16:46:56Z</time>
      </trkpt>
      <trkpt lat="45.6849" lon="4.70409">
        <ele>342</ele>
        <time>2025-04-30T16:46:57Z</time>
      </trkpt>
      <trkpt lat="45.6849" lon="4.7041">
        <ele>342.4</ele>
        <time>2025-04-30T16:46:58Z</time>
      </trkpt>
      <trkpt lat="45.6849" lon="4.70411">
        <ele>342.8</ele>
        <time>2025-04-30T16:46:59Z</time>
      </trkpt>
      <trkpt lat="45.68491" lon="4.70412">
        <ele>342.8</ele>
        <time>2025-04-30T16:47:00Z</time>
      </trkpt>
      <trkpt lat="45.68491" lon="4.70415">
        <ele>343</ele>
        <time>2025-04-30T16:47:01Z</time>
      </trkpt>
      <trkpt lat="45.68491" lon="4.70418">
        <ele>343</ele>
        <time>2025-04-30T16:47:02Z</time>
      </trkpt>
      <trkpt lat="45.6849" lon="4.70423">
        <ele>343</ele>
        <time>2025-04-30T16:47:03Z</time>
      </trkpt>
      <trkpt lat="45.68489" lon="4.70428">
        <ele>343</ele>
        <time>2025-04-30T16:47:04Z</time>
      </trkpt>
      <trkpt lat="45.68487" lon="4.70434">
        <ele>343</ele>
        <time>2025-04-30T16:47:05Z</time>
      </trkpt>
      <trkpt lat="45.68485" lon="4.7044">
        <ele>343</ele>
        <time>2025-04-30T16:47:06Z</time>
      </trkpt>
      <trkpt lat="45.68484" lon="4.70446">
        <ele>342.8</ele>
        <time>2025-04-30T16:47:07Z</time>
      </trkpt>
      <trkpt lat="45.68481" lon="4.70454">
        <ele>342.6</ele>
        <time>2025-04-30T16:47:08Z</time>
      </trkpt>
      <trkpt lat="45.68479" lon="4.7046">
        <ele>342.6</ele>
        <time>2025-04-30T16:47:09Z</time>
      </trkpt>
      <trkpt lat="45.68477" lon="4.70467">
        <ele>342.6</ele>
        <time>2025-04-30T16:47:10Z</time>
      </trkpt>
      <trkpt lat="45.68475" lon="4.70474">
        <ele>342.6</ele>
        <time>2025-04-30T16:47:11Z</time>
      </trkpt>
      <trkpt lat="45.68473" lon="4.70481">
        <ele>342.6</ele>
        <time>2025-04-30T16:47:12Z</time>
      </trkpt>
      <trkpt lat="45.6847" lon="4.70487">
        <ele>342.6</ele>
        <time>2025-04-30T16:47:13Z</time>
      </trkpt>
      <trkpt lat="45.68468" lon="4.70494">
        <ele>342.6</ele>
        <time>2025-04-30T16:47:14Z</time>
      </trkpt>
      <trkpt lat="45.68466" lon="4.70501">
        <ele>342.8</ele>
        <time>2025-04-30T16:47:15Z</time>
      </trkpt>
      <trkpt lat="45.68464" lon="4.70509">
        <ele>343</ele>
        <time>2025-04-30T16:47:16Z</time>
      </trkpt>
      <trkpt lat="45.68462" lon="4.70516">
        <ele>343.2</ele>
        <time>2025-04-30T16:47:17Z</time>
      </trkpt>
      <trkpt lat="45.68461" lon="4.70521">
        <ele>343.2</ele>
        <time>2025-04-30T16:47:18Z</time>
      </trkpt>
      <trkpt lat="45.6846" lon="4.7053">
        <ele>343.4</ele>
        <time>2025-04-30T16:47:19Z</time>
      </trkpt>
      <trkpt lat="45.6846" lon="4.70537">
        <ele>343.6</ele>
        <time>2025-04-30T16:47:20Z</time>
      </trkpt>
      <trkpt lat="45.6846" lon="4.70544">
        <ele>344</ele>
        <time>2025-04-30T16:47:21Z</time>
      </trkpt>
      <trkpt lat="45.6846" lon="4.70551">
        <ele>344</ele>
        <time>2025-04-30T16:47:22Z</time>
      </trkpt>
      <trkpt lat="45.6846" lon="4.70558">
        <ele>344.2</ele>
        <time>2025-04-30T16:47:23Z</time>
      </trkpt>
      <trkpt lat="45.6846" lon="4.70565">
        <ele>344.2</ele>
        <time>2025-04-30T16:47:24Z</time>
      </trkpt>
      <trkpt lat="45.6846" lon="4.70572">
        <ele>344.4</ele>
        <time>2025-04-30T16:47:25Z</time>
      </trkpt>
      <trkpt lat="45.6846" lon="4.7058">
        <ele>344.4</ele>
        <time>2025-04-30T16:47:26Z</time>
      </trkpt>
      <trkpt lat="45.6846" lon="4.70587">
        <ele>344.4</ele>
        <time>2025-04-30T16:47:27Z</time>
      </trkpt>
      <trkpt lat="45.6846" lon="4.70596">
        <ele>344.2</ele>
        <time>2025-04-30T16:47:28Z</time>
      </trkpt>
      <trkpt lat="45.6846" lon="4.70604">
        <ele>344.2</ele>
        <time>2025-04-30T16:47:29Z</time>
      </trkpt>
      <trkpt lat="45.68461" lon="4.70613">
        <ele>343.8</ele>
        <time>2025-04-30T16:47:30Z</time>
      </trkpt>
      <trkpt lat="45.68461" lon="4.70621">
        <ele>343.6</ele>
        <time>2025-04-30T16:47:31Z</time>
      </trkpt>
      <trkpt lat="45.68461" lon="4.7063">
        <ele>343.2</ele>
        <time>2025-04-30T16:47:32Z</time>
      </trkpt>
      <trkpt lat="45.68461" lon="4.70638">
        <ele>342.8</ele>
        <time>2025-04-30T16:47:33Z</time>
      </trkpt>
      <trkpt lat="45.68462" lon="4.70648">
        <ele>342.6</ele>
        <time>2025-04-30T16:47:34Z</time>
      </trkpt>
      <trkpt lat="45.68464" lon="4.70656">
        <ele>342.4</ele>
        <time>2025-04-30T16:47:35Z</time>
      </trkpt>
      <trkpt lat="45.68467" lon="4.70663">
        <ele>342.4</ele>
        <time>2025-04-30T16:47:36Z</time>
      </trkpt>
      <trkpt lat="45.68471" lon="4.70671">
        <ele>342.2</ele>
        <time>2025-04-30T16:47:37Z</time>
      </trkpt>
      <trkpt lat="45.68475" lon="4.70679">
        <ele>342</ele>
        <time>2025-04-30T16:47:38Z</time>
      </trkpt>
      <trkpt lat="45.68479" lon="4.70686">
        <ele>341.6</ele>
        <time>2025-04-30T16:47:39Z</time>
      </trkpt>
      <trkpt lat="45.68485" lon="4.70694">
        <ele>341</ele>
        <time>2025-04-30T16:47:40Z</time>
      </trkpt>
      <trkpt lat="45.68491" lon="4.70701">
        <ele>340.6</ele>
        <time>2025-04-30T16:47:41Z</time>
      </trkpt>
      <trkpt lat="45.68497" lon="4.70709">
        <ele>339.8</ele>
        <time>2025-04-30T16:47:42Z</time>
      </trkpt>
      <trkpt lat="45.68503" lon="4.70717">
        <ele>339.4</ele>
        <time>2025-04-30T16:47:43Z</time>
      </trkpt>
      <trkpt lat="45.68508" lon="4.70723">
        <ele>338.6</ele>
        <time>2025-04-30T16:47:44Z</time>
      </trkpt>
      <trkpt lat="45.68515" lon="4.70733">
        <ele>338</ele>
        <time>2025-04-30T16:47:45Z</time>
      </trkpt>
      <trkpt lat="45.68522" lon="4.70742">
        <ele>337</ele>
        <time>2025-04-30T16:47:46Z</time>
      </trkpt>
      <trkpt lat="45.68529" lon="4.70751">
        <ele>336</ele>
        <time>2025-04-30T16:47:47Z</time>
      </trkpt>
      <trkpt lat="45.68536" lon="4.7076">
        <ele>335.2</ele>
        <time>2025-04-30T16:47:48Z</time>
      </trkpt>
      <trkpt lat="45.68543" lon="4.70769">
        <ele>334.2</ele>
        <time>2025-04-30T16:47:49Z</time>
      </trkpt>
      <trkpt lat="45.68548" lon="4.70777">
        <ele>333.2</ele>
        <time>2025-04-30T16:47:50Z</time>
      </trkpt>
      <trkpt lat="45.68557" lon="4.70789">
        <ele>332.6</ele>
        <time>2025-04-30T16:47:51Z</time>
      </trkpt>
      <trkpt lat="45.68564" lon="4.70799">
        <ele>331.8</ele>
        <time>2025-04-30T16:47:52Z</time>
      </trkpt>
      <trkpt lat="45.68571" lon="4.70809">
        <ele>331</ele>
        <time>2025-04-30T16:47:53Z</time>
      </trkpt>
      <trkpt lat="45.68579" lon="4.70818">
        <ele>330.2</ele>
        <time>2025-04-30T16:47:54Z</time>
      </trkpt>
      <trkpt lat="45.68586" lon="4.70827">
        <ele>328.8</ele>
        <time>2025-04-30T16:47:55Z</time>
      </trkpt>
      <trkpt lat="45.68595" lon="4.70835">
        <ele>328.8</ele>
        <time>2025-04-30T16:47:56Z</time>
      </trkpt>
      <trkpt lat="45.68603" lon="4.70843">
        <ele>328.2</ele>
        <time>2025-04-30T16:47:57Z</time>
      </trkpt>
      <trkpt lat="45.68611" lon="4.70851">
        <ele>327.2</ele>
        <time>2025-04-30T16:47:58Z</time>
      </trkpt>
      <trkpt lat="45.68619" lon="4.70859">
        <ele>327</ele>
        <time>2025-04-30T16:47:59Z</time>
      </trkpt>
      <trkpt lat="45.68627" lon="4.70867">
        <ele>326.6</ele>
        <time>2025-04-30T16:48:00Z</time>
      </trkpt>
      <trkpt lat="45.68635" lon="4.70875">
        <ele>326</ele>
        <time>2025-04-30T16:48:01Z</time>
      </trkpt>
      <trkpt lat="45.68643" lon="4.70883">
        <ele>325.8</ele>
        <time>2025-04-30T16:48:02Z</time>
      </trkpt>
      <trkpt lat="45.68651" lon="4.70891">
        <ele>325.4</ele>
        <time>2025-04-30T16:48:03Z</time>
      </trkpt>
      <trkpt lat="45.68658" lon="4.70898">
        <ele>325.2</ele>
        <time>2025-04-30T16:48:04Z</time>
      </trkpt>
      <trkpt lat="45.68666" lon="4.70905">
        <ele>325</ele>
        <time>2025-04-30T16:48:05Z</time>
      </trkpt>
      <trkpt lat="45.68674" lon="4.70912">
        <ele>324.8</ele>
        <time>2025-04-30T16:48:06Z</time>
      </trkpt>
      <trkpt lat="45.68681" lon="4.70918">
        <ele>324.4</ele>
        <time>2025-04-30T16:48:07Z</time>
      </trkpt>
      <trkpt lat="45.68688" lon="4.70924">
        <ele>324.4</ele>
        <time>2025-04-30T16:48:08Z</time>
      </trkpt>
      <trkpt lat="45.68695" lon="4.70929">
        <ele>324.4</ele>
        <time>2025-04-30T16:48:09Z</time>
      </trkpt>
      <trkpt lat="45.68702" lon="4.70935">
        <ele>324.6</ele>
        <time>2025-04-30T16:48:10Z</time>
      </trkpt>
      <trkpt lat="45.68708" lon="4.70942">
        <ele>324.8</ele>
        <time>2025-04-30T16:48:11Z</time>
      </trkpt>
      <trkpt lat="45.68713" lon="4.7095">
        <ele>324.8</ele>
        <time>2025-04-30T16:48:12Z</time>
      </trkpt>
      <trkpt lat="45.68715" lon="4.70959">
        <ele>324.8</ele>
        <time>2025-04-30T16:48:13Z</time>
      </trkpt>
      <trkpt lat="45.68716" lon="4.70969">
        <ele>324.6</ele>
        <time>2025-04-30T16:48:14Z</time>
      </trkpt>
      <trkpt lat="45.68714" lon="4.70978">
        <ele>324.6</ele>
        <time>2025-04-30T16:48:15Z</time>
      </trkpt>
      <trkpt lat="45.68712" lon="4.70988">
        <ele>324.6</ele>
        <time>2025-04-30T16:48:16Z</time>
      </trkpt>
      <trkpt lat="45.68712" lon="4.70998">
        <ele>324.4</ele>
        <time>2025-04-30T16:48:17Z</time>
      </trkpt>
      <trkpt lat="45.68712" lon="4.71009">
        <ele>324</ele>
        <time>2025-04-30T16:48:18Z</time>
      </trkpt>
      <trkpt lat="45.68714" lon="4.71019">
        <ele>323.8</ele>
        <time>2025-04-30T16:48:19Z</time>
      </trkpt>
      <trkpt lat="45.68717" lon="4.7103">
        <ele>323.6</ele>
        <time>2025-04-30T16:48:20Z</time>
      </trkpt>
      <trkpt lat="45.6872" lon="4.71041">
        <ele>323</ele>
        <time>2025-04-30T16:48:21Z</time>
      </trkpt>
      <trkpt lat="45.68723" lon="4.71052">
        <ele>322.4</ele>
        <time>2025-04-30T16:48:22Z</time>
      </trkpt>
      <trkpt lat="45.68726" lon="4.71063">
        <ele>321.8</ele>
        <time>2025-04-30T16:48:23Z</time>
      </trkpt>
      <trkpt lat="45.68729" lon="4.71075">
        <ele>320.8</ele>
        <time>2025-04-30T16:48:24Z</time>
      </trkpt>
      <trkpt lat="45.68733" lon="4.71086">
        <ele>320</ele>
        <time>2025-04-30T16:48:25Z</time>
      </trkpt>
      <trkpt lat="45.68736" lon="4.71098">
        <ele>319.8</ele>
        <time>2025-04-30T16:48:26Z</time>
      </trkpt>
      <trkpt lat="45.68739" lon="4.71111">
        <ele>318.8</ele>
        <time>2025-04-30T16:48:27Z</time>
      </trkpt>
      <trkpt lat="45.68742" lon="4.71123">
        <ele>318.4</ele>
        <time>2025-04-30T16:48:28Z</time>
      </trkpt>
      <trkpt lat="45.68746" lon="4.71135">
        <ele>317.6</ele>
        <time>2025-04-30T16:48:29Z</time>
      </trkpt>
      <trkpt lat="45.68749" lon="4.71147">
        <ele>317</ele>
        <time>2025-04-30T16:48:30Z</time>
      </trkpt>
      <trkpt lat="45.68752" lon="4.71158">
        <ele>316.2</ele>
        <time>2025-04-30T16:48:31Z</time>
      </trkpt>
      <trkpt lat="45.68755" lon="4.71169">
        <ele>315.4</ele>
        <time>2025-04-30T16:48:32Z</time>
      </trkpt>
      <trkpt lat="45.68757" lon="4.71178">
        <ele>315.2</ele>
        <time>2025-04-30T16:48:33Z</time>
      </trkpt>
      <trkpt lat="45.6876" lon="4.71189">
        <ele>314.8</ele>
        <time>2025-04-30T16:48:34Z</time>
      </trkpt>
      <trkpt lat="45.68763" lon="4.712">
        <ele>314.4</ele>
        <time>2025-04-30T16:48:35Z</time>
      </trkpt>
      <trkpt lat="45.68766" lon="4.71211">
        <ele>314</ele>
        <time>2025-04-30T16:48:36Z</time>
      </trkpt>
      <trkpt lat="45.68769" lon="4.71222">
        <ele>313.8</ele>
        <time>2025-04-30T16:48:37Z</time>
      </trkpt>
      <trkpt lat="45.68772" lon="4.71233">
        <ele>313.6</ele>
        <time>2025-04-30T16:48:38Z</time>
      </trkpt>
      <trkpt lat="45.68775" lon="4.71245">
        <ele>313.6</ele>
        <time>2025-04-30T16:48:39Z</time>
      </trkpt>
      <trkpt lat="45.68778" lon="4.71256">
        <ele>313.2</ele>
        <time>2025-04-30T16:48:40Z</time>
      </trkpt>
      <trkpt lat="45.6878" lon="4.71264">
        <ele>313.2</ele>
        <time>2025-04-30T16:48:41Z</time>
      </trkpt>
      <trkpt lat="45.68784" lon="4.71275">
        <ele>313</ele>
        <time>2025-04-30T16:48:42Z</time>
      </trkpt>
      <trkpt lat="45.68789" lon="4.71286">
        <ele>312.8</ele>
        <time>2025-04-30T16:48:43Z</time>
      </trkpt>
      <trkpt lat="45.68794" lon="4.71296">
        <ele>312.4</ele>
        <time>2025-04-30T16:48:44Z</time>
      </trkpt>
      <trkpt lat="45.68799" lon="4.71305">
        <ele>312.2</ele>
        <time>2025-04-30T16:48:45Z</time>
      </trkpt>
      <trkpt lat="45.68805" lon="4.71314">
        <ele>311.2</ele>
        <time>2025-04-30T16:48:46Z</time>
      </trkpt>
      <trkpt lat="45.68812" lon="4.71322">
        <ele>310.4</ele>
        <time>2025-04-30T16:48:47Z</time>
      </trkpt>
      <trkpt lat="45.68819" lon="4.71329">
        <ele>310</ele>
        <time>2025-04-30T16:48:48Z</time>
      </trkpt>
      <trkpt lat="45.68827" lon="4.71336">
        <ele>309.4</ele>
        <time>2025-04-30T16:48:49Z</time>
      </trkpt>
      <trkpt lat="45.68835" lon="4.71342">
        <ele>309</ele>
        <time>2025-04-30T16:48:50Z</time>
      </trkpt>
      <trkpt lat="45.68843" lon="4.71348">
        <ele>308.2</ele>
        <time>2025-04-30T16:48:51Z</time>
      </trkpt>
      <trkpt lat="45.68849" lon="4.71352">
        <ele>307.6</ele>
        <time>2025-04-30T16:48:52Z</time>
      </trkpt>
      <trkpt lat="45.68858" lon="4.71359">
        <ele>307.6</ele>
        <time>2025-04-30T16:48:53Z</time>
      </trkpt>
      <trkpt lat="45.68866" lon="4.71365">
        <ele>307</ele>
        <time>2025-04-30T16:48:54Z</time>
      </trkpt>
      <trkpt lat="45.68873" lon="4.71371">
        <ele>306.8</ele>
        <time>2025-04-30T16:48:55Z</time>
      </trkpt>
      <trkpt lat="45.6888" lon="4.71377">
        <ele>306.6</ele>
        <time>2025-04-30T16:48:56Z</time>
      </trkpt>
      <trkpt lat="45.68887" lon="4.71383">
        <ele>306.4</ele>
        <time>2025-04-30T16:48:57Z</time>
      </trkpt>
      <trkpt lat="45.68894" lon="4.71389">
        <ele>306</ele>
        <time>2025-04-30T16:48:58Z</time>
      </trkpt>
      <trkpt lat="45.68902" lon="4.71395">
        <ele>306</ele>
        <time>2025-04-30T16:48:59Z</time>
      </trkpt>
      <trkpt lat="45.68909" lon="4.71401">
        <ele>305.8</ele>
        <time>2025-04-30T16:49:00Z</time>
      </trkpt>
      <trkpt lat="45.68917" lon="4.71407">
        <ele>305.4</ele>
        <time>2025-04-30T16:49:01Z</time>
      </trkpt>
      <trkpt lat="45.68925" lon="4.71412">
        <ele>304.6</ele>
        <time>2025-04-30T16:49:02Z</time>
      </trkpt>
      <trkpt lat="45.68933" lon="4.71417">
        <ele>304.4</ele>
        <time>2025-04-30T16:49:03Z</time>
      </trkpt>
      <trkpt lat="45.68941" lon="4.71422">
        <ele>304</ele>
        <time>2025-04-30T16:49:04Z</time>
      </trkpt>
      <trkpt lat="45.68948" lon="4.71427">
        <ele>303.6</ele>
        <time>2025-04-30T16:49:05Z</time>
      </trkpt>
      <trkpt lat="45.68955" lon="4.71433">
        <ele>303.4</ele>
        <time>2025-04-30T16:49:06Z</time>
      </trkpt>
      <trkpt lat="45.68962" lon="4.7144">
        <ele>303.2</ele>
        <time>2025-04-30T16:49:07Z</time>
      </trkpt>
      <trkpt lat="45.68969" lon="4.71446">
        <ele>303</ele>
        <time>2025-04-30T16:49:08Z</time>
      </trkpt>
      <trkpt lat="45.68975" lon="4.71452">
        <ele>303</ele>
        <time>2025-04-30T16:49:09Z</time>
      </trkpt>
      <trkpt lat="45.68982" lon="4.71456">
        <ele>302.8</ele>
        <time>2025-04-30T16:49:10Z</time>
      </trkpt>
      <trkpt lat="45.68989" lon="4.71461">
        <ele>302.8</ele>
        <time>2025-04-30T16:49:11Z</time>
      </trkpt>
      <trkpt lat="45.68995" lon="4.71465">
        <ele>302.8</ele>
        <time>2025-04-30T16:49:12Z</time>
      </trkpt>
      <trkpt lat="45.69001" lon="4.71469">
        <ele>302.8</ele>
        <time>2025-04-30T16:49:13Z</time>
      </trkpt>
      <trkpt lat="45.69008" lon="4.71474">
        <ele>302.8</ele>
        <time>2025-04-30T16:49:14Z</time>
      </trkpt>
      <trkpt lat="45.69015" lon="4.71479">
        <ele>302.8</ele>
        <time>2025-04-30T16:49:15Z</time>
      </trkpt>
      <trkpt lat="45.69021" lon="4.71484">
        <ele>302.8</ele>
        <time>2025-04-30T16:49:16Z</time>
      </trkpt>
      <trkpt lat="45.69028" lon="4.71489">
        <ele>302.8</ele>
        <time>2025-04-30T16:49:17Z</time>
      </trkpt>
      <trkpt lat="45.69034" lon="4.71494">
        <ele>302.6</ele>
        <time>2025-04-30T16:49:18Z</time>
      </trkpt>
      <trkpt lat="45.69041" lon="4.71499">
        <ele>302.6</ele>
        <time>2025-04-30T16:49:19Z</time>
      </trkpt>
      <trkpt lat="45.69047" lon="4.71503">
        <ele>302.4</ele>
        <time>2025-04-30T16:49:20Z</time>
      </trkpt>
      <trkpt lat="45.69054" lon="4.71508">
        <ele>302.4</ele>
        <time>2025-04-30T16:49:21Z</time>
      </trkpt>
      <trkpt lat="45.69061" lon="4.71512">
        <ele>302</ele>
        <time>2025-04-30T16:49:22Z</time>
      </trkpt>
      <trkpt lat="45.69067" lon="4.71515">
        <ele>302</ele>
        <time>2025-04-30T16:49:23Z</time>
      </trkpt>
      <trkpt lat="45.69074" lon="4.71518">
        <ele>302</ele>
        <time>2025-04-30T16:49:24Z</time>
      </trkpt>
      <trkpt lat="45.69081" lon="4.71522">
        <ele>301.8</ele>
        <time>2025-04-30T16:49:25Z</time>
      </trkpt>
      <trkpt lat="45.69088" lon="4.71526">
        <ele>301.6</ele>
        <time>2025-04-30T16:49:26Z</time>
      </trkpt>
      <trkpt lat="45.69095" lon="4.71531">
        <ele>301.4</ele>
        <time>2025-04-30T16:49:27Z</time>
      </trkpt>
      <trkpt lat="45.69101" lon="4.71534">
        <ele>301.2</ele>
        <time>2025-04-30T16:49:28Z</time>
      </trkpt>
      <trkpt lat="45.69108" lon="4.71538">
        <ele>301</ele>
        <time>2025-04-30T16:49:29Z</time>
      </trkpt>
      <trkpt lat="45.69115" lon="4.7154">
        <ele>300.8</ele>
        <time>2025-04-30T16:49:30Z</time>
      </trkpt>
      <trkpt lat="45.69122" lon="4.71543">
        <ele>300.6</ele>
        <time>2025-04-30T16:49:31Z</time>
      </trkpt>
      <trkpt lat="45.69129" lon="4.71545">
        <ele>300.6</ele>
        <time>2025-04-30T16:49:32Z</time>
      </trkpt>
      <trkpt lat="45.69136" lon="4.71547">
        <ele>300.6</ele>
        <time>2025-04-30T16:49:33Z</time>
      </trkpt>
      <trkpt lat="45.69143" lon="4.71549">
        <ele>300.6</ele>
        <time>2025-04-30T16:49:34Z</time>
      </trkpt>
      <trkpt lat="45.6915" lon="4.71549">
        <ele>300.4</ele>
        <time>2025-04-30T16:49:35Z</time>
      </trkpt>
      <trkpt lat="45.69157" lon="4.7155">
        <ele>300.6</ele>
        <time>2025-04-30T16:49:36Z</time>
      </trkpt>
      <trkpt lat="45.69163" lon="4.71552">
        <ele>300.6</ele>
        <time>2025-04-30T16:49:37Z</time>
      </trkpt>
      <trkpt lat="45.69169" lon="4.71554">
        <ele>300.8</ele>
        <time>2025-04-30T16:49:38Z</time>
      </trkpt>
      <trkpt lat="45.69175" lon="4.71557">
        <ele>300.8</ele>
        <time>2025-04-30T16:49:39Z</time>
      </trkpt>
      <trkpt lat="45.69181" lon="4.7156">
        <ele>300.8</ele>
        <time>2025-04-30T16:49:40Z</time>
      </trkpt>
      <trkpt lat="45.69187" lon="4.71563">
        <ele>301</ele>
        <time>2025-04-30T16:49:41Z</time>
      </trkpt>
      <trkpt lat="45.69192" lon="4.71566">
        <ele>301</ele>
        <time>2025-04-30T16:49:42Z</time>
      </trkpt>
      <trkpt lat="45.69198" lon="4.71571">
        <ele>301</ele>
        <time>2025-04-30T16:49:43Z</time>
      </trkpt>
      <trkpt lat="45.69203" lon="4.71575">
        <ele>301</ele>
        <time>2025-04-30T16:49:44Z</time>
      </trkpt>
      <trkpt lat="45.69208" lon="4.7158">
        <ele>301</ele>
        <time>2025-04-30T16:49:45Z</time>
      </trkpt>
      <trkpt lat="45.69213" lon="4.71585">
        <ele>301</ele>
        <time>2025-04-30T16:49:46Z</time>
      </trkpt>
      <trkpt lat="45.69217" lon="4.7159">
        <ele>300.8</ele>
        <time>2025-04-30T16:49:47Z</time>
      </trkpt>
      <trkpt lat="45.69222" lon="4.71597">
        <ele>300.8</ele>
        <time>2025-04-30T16:49:48Z</time>
      </trkpt>
      <trkpt lat="45.69225" lon="4.71603">
        <ele>300.6</ele>
        <time>2025-04-30T16:49:49Z</time>
      </trkpt>
      <trkpt lat="45.69229" lon="4.7161">
        <ele>300.6</ele>
        <time>2025-04-30T16:49:50Z</time>
      </trkpt>
      <trkpt lat="45.69232" lon="4.71616">
        <ele>300.6</ele>
        <time>2025-04-30T16:49:51Z</time>
      </trkpt>
      <trkpt lat="45.69235" lon="4.71623">
        <ele>300.4</ele>
        <time>2025-04-30T16:49:52Z</time>
      </trkpt>
      <trkpt lat="45.69238" lon="4.7163">
        <ele>300.4</ele>
        <time>2025-04-30T16:49:53Z</time>
      </trkpt>
      <trkpt lat="45.6924" lon="4.71636">
        <ele>300.4</ele>
        <time>2025-04-30T16:49:54Z</time>
      </trkpt>
      <trkpt lat="45.69243" lon="4.71644">
        <ele>300.4</ele>
        <time>2025-04-30T16:49:55Z</time>
      </trkpt>
      <trkpt lat="45.69246" lon="4.71651">
        <ele>300.4</ele>
        <time>2025-04-30T16:49:56Z</time>
      </trkpt>
      <trkpt lat="45.69249" lon="4.71658">
        <ele>300.4</ele>
        <time>2025-04-30T16:49:57Z</time>
      </trkpt>
      <trkpt lat="45.69253" lon="4.71664">
        <ele>300.4</ele>
        <time>2025-04-30T16:49:58Z</time>
      </trkpt>
      <trkpt lat="45.69256" lon="4.7167">
        <ele>300.4</ele>
        <time>2025-04-30T16:49:59Z</time>
      </trkpt>
      <trkpt lat="45.69259" lon="4.71675">
        <ele>300.4</ele>
        <time>2025-04-30T16:50:00Z</time>
      </trkpt>
      <trkpt lat="45.69263" lon="4.71681">
        <ele>300.4</ele>
        <time>2025-04-30T16:50:01Z</time>
      </trkpt>
      <trkpt lat="45.69266" lon="4.71687">
        <ele>300.4</ele>
        <time>2025-04-30T16:50:02Z</time>
      </trkpt>
      <trkpt lat="45.6927" lon="4.71693">
        <ele>300.6</ele>
        <time>2025-04-30T16:50:03Z</time>
      </trkpt>
      <trkpt lat="45.69274" lon="4.71699">
        <ele>300.6</ele>
        <time>2025-04-30T16:50:04Z</time>
      </trkpt>
      <trkpt lat="45.69277" lon="4.71704">
        <ele>300.6</ele>
        <time>2025-04-30T16:50:05Z</time>
      </trkpt>
      <trkpt lat="45.6928" lon="4.71708">
        <ele>300.6</ele>
        <time>2025-04-30T16:50:06Z</time>
      </trkpt>
      <trkpt lat="45.69284" lon="4.71714">
        <ele>300.6</ele>
        <time>2025-04-30T16:50:07Z</time>
      </trkpt>
      <trkpt lat="45.69287" lon="4.71719">
        <ele>300.6</ele>
        <time>2025-04-30T16:50:08Z</time>
      </trkpt>
      <trkpt lat="45.69291" lon="4.71725">
        <ele>300.4</ele>
        <time>2025-04-30T16:50:09Z</time>
      </trkpt>
      <trkpt lat="45.69295" lon="4.71731">
        <ele>300.2</ele>
        <time>2025-04-30T16:50:10Z</time>
      </trkpt>
      <trkpt lat="45.69298" lon="4.71737">
        <ele>299.8</ele>
        <time>2025-04-30T16:50:11Z</time>
      </trkpt>
      <trkpt lat="45.69302" lon="4.71743">
        <ele>299.6</ele>
        <time>2025-04-30T16:50:12Z</time>
      </trkpt>
      <trkpt lat="45.69306" lon="4.71749">
        <ele>299.6</ele>
        <time>2025-04-30T16:50:13Z</time>
      </trkpt>
      <trkpt lat="45.69311" lon="4.71756">
        <ele>299.2</ele>
        <time>2025-04-30T16:50:14Z</time>
      </trkpt>
      <trkpt lat="45.69316" lon="4.71762">
        <ele>298.4</ele>
        <time>2025-04-30T16:50:15Z</time>
      </trkpt>
      <trkpt lat="45.6932" lon="4.7177">
        <ele>298</ele>
        <time>2025-04-30T16:50:16Z</time>
      </trkpt>
      <trkpt lat="45.69325" lon="4.71777">
        <ele>297.6</ele>
        <time>2025-04-30T16:50:17Z</time>
      </trkpt>
      <trkpt lat="45.6933" lon="4.71785">
        <ele>296.8</ele>
        <time>2025-04-30T16:50:18Z</time>
      </trkpt>
      <trkpt lat="45.69335" lon="4.71792">
        <ele>295.8</ele>
        <time>2025-04-30T16:50:19Z</time>
      </trkpt>
      <trkpt lat="45.69341" lon="4.718">
        <ele>295.4</ele>
        <time>2025-04-30T16:50:20Z</time>
      </trkpt>
      <trkpt lat="45.69347" lon="4.71808">
        <ele>294.6</ele>
        <time>2025-04-30T16:50:21Z</time>
      </trkpt>
      <trkpt lat="45.69353" lon="4.71816">
        <ele>294</ele>
        <time>2025-04-30T16:50:22Z</time>
      </trkpt>
      <trkpt lat="45.69359" lon="4.71824">
        <ele>293.4</ele>
        <time>2025-04-30T16:50:23Z</time>
      </trkpt>
      <trkpt lat="45.69364" lon="4.71833">
        <ele>292.8</ele>
        <time>2025-04-30T16:50:24Z</time>
      </trkpt>
      <trkpt lat="45.6937" lon="4.71842">
        <ele>292.2</ele>
        <time>2025-04-30T16:50:25Z</time>
      </trkpt>
      <trkpt lat="45.69376" lon="4.71851">
        <ele>291.6</ele>
        <time>2025-04-30T16:50:26Z</time>
      </trkpt>
      <trkpt lat="45.69383" lon="4.7186">
        <ele>291</ele>
        <time>2025-04-30T16:50:27Z</time>
      </trkpt>
      <trkpt lat="45.69388" lon="4.71869">
        <ele>290.6</ele>
        <time>2025-04-30T16:50:28Z</time>
      </trkpt>
      <trkpt lat="45.69394" lon="4.71878">
        <ele>289.8</ele>
        <time>2025-04-30T16:50:29Z</time>
      </trkpt>
      <trkpt lat="45.69399" lon="4.71886">
        <ele>289.2</ele>
        <time>2025-04-30T16:50:30Z</time>
      </trkpt>
      <trkpt lat="45.69405" lon="4.71894">
        <ele>289.2</ele>
        <time>2025-04-30T16:50:31Z</time>
      </trkpt>
      <trkpt lat="45.6941" lon="4.71902">
        <ele>289</ele>
        <time>2025-04-30T16:50:32Z</time>
      </trkpt>
      <trkpt lat="45.69414" lon="4.71908">
        <ele>289</ele>
        <time>2025-04-30T16:50:33Z</time>
      </trkpt>
      <trkpt lat="45.6942" lon="4.71916">
        <ele>289</ele>
        <time>2025-04-30T16:50:34Z</time>
      </trkpt>
      <trkpt lat="45.69424" lon="4.71924">
        <ele>289</ele>
        <time>2025-04-30T16:50:35Z</time>
      </trkpt>
      <trkpt lat="45.69427" lon="4.7193">
        <ele>289</ele>
        <time>2025-04-30T16:50:36Z</time>
      </trkpt>
      <trkpt lat="45.69431" lon="4.71939">
        <ele>289</ele>
        <time>2025-04-30T16:50:37Z</time>
      </trkpt>
      <trkpt lat="45.69435" lon="4.71947">
        <ele>289</ele>
        <time>2025-04-30T16:50:38Z</time>
      </trkpt>
      <trkpt lat="45.69437" lon="4.71955">
        <ele>289</ele>
        <time>2025-04-30T16:50:39Z</time>
      </trkpt>
      <trkpt lat="45.69439" lon="4.71964">
        <ele>289</ele>
        <time>2025-04-30T16:50:40Z</time>
      </trkpt>
      <trkpt lat="45.6944" lon="4.71972">
        <ele>289</ele>
        <time>2025-04-30T16:50:41Z</time>
      </trkpt>
      <trkpt lat="45.6944" lon="4.71978">
        <ele>289.2</ele>
        <time>2025-04-30T16:50:42Z</time>
      </trkpt>
      <trkpt lat="45.69439" lon="4.71985">
        <ele>289.2</ele>
        <time>2025-04-30T16:50:43Z</time>
      </trkpt>
      <trkpt lat="45.69438" lon="4.71994">
        <ele>289.2</ele>
        <time>2025-04-30T16:50:44Z</time>
      </trkpt>
      <trkpt lat="45.69438" lon="4.72002">
        <ele>289.4</ele>
        <time>2025-04-30T16:50:45Z</time>
      </trkpt>
      <trkpt lat="45.69437" lon="4.72008">
        <ele>289.4</ele>
        <time>2025-04-30T16:50:46Z</time>
      </trkpt>
      <trkpt lat="45.69438" lon="4.72014">
        <ele>289.4</ele>
        <time>2025-04-30T16:50:47Z</time>
      </trkpt>
      <trkpt lat="45.69438" lon="4.7202">
        <ele>289.6</ele>
        <time>2025-04-30T16:50:48Z</time>
      </trkpt>
      <trkpt lat="45.69437" lon="4.72026">
        <ele>289.6</ele>
        <time>2025-04-30T16:50:49Z</time>
      </trkpt>
      <trkpt lat="45.69437" lon="4.72033">
        <ele>289.6</ele>
        <time>2025-04-30T16:50:50Z</time>
      </trkpt>
      <trkpt lat="45.69437" lon="4.72039">
        <ele>289.6</ele>
        <time>2025-04-30T16:50:51Z</time>
      </trkpt>
      <trkpt lat="45.69437" lon="4.72046">
        <ele>289.6</ele>
        <time>2025-04-30T16:50:52Z</time>
      </trkpt>
      <trkpt lat="45.69436" lon="4.72051">
        <ele>289.6</ele>
        <time>2025-04-30T16:50:53Z</time>
      </trkpt>
      <trkpt lat="45.69435" lon="4.72057">
        <ele>289.4</ele>
        <time>2025-04-30T16:50:54Z</time>
      </trkpt>
      <trkpt lat="45.69435" lon="4.72062">
        <ele>289</ele>
        <time>2025-04-30T16:50:55Z</time>
      </trkpt>
      <trkpt lat="45.69435" lon="4.72066">
        <ele>288.6</ele>
        <time>2025-04-30T16:50:56Z</time>
      </trkpt>
      <trkpt lat="45.69434" lon="4.72071">
        <ele>288.2</ele>
        <time>2025-04-30T16:50:57Z</time>
      </trkpt>
      <trkpt lat="45.69433" lon="4.72075">
        <ele>288</ele>
        <time>2025-04-30T16:50:58Z</time>
      </trkpt>
      <trkpt lat="45.69432" lon="4.7208">
        <ele>287.8</ele>
        <time>2025-04-30T16:50:59Z</time>
      </trkpt>
      <trkpt lat="45.69432" lon="4.72085">
        <ele>287</ele>
        <time>2025-04-30T16:51:00Z</time>
      </trkpt>
      <trkpt lat="45.69432" lon="4.72089">
        <ele>286</ele>
        <time>2025-04-30T16:51:01Z</time>
      </trkpt>
      <trkpt lat="45.69432" lon="4.72093">
        <ele>285.6</ele>
        <time>2025-04-30T16:51:02Z</time>
      </trkpt>
      <trkpt lat="45.69432" lon="4.72097">
        <ele>285.4</ele>
        <time>2025-04-30T16:51:03Z</time>
      </trkpt>
      <trkpt lat="45.69432" lon="4.72101">
        <ele>284.6</ele>
        <time>2025-04-30T16:51:04Z</time>
      </trkpt>
      <trkpt lat="45.69433" lon="4.72104">
        <ele>284.4</ele>
        <time>2025-04-30T16:51:05Z</time>
      </trkpt>
      <trkpt lat="45.69434" lon="4.72107">
        <ele>284</ele>
        <time>2025-04-30T16:51:06Z</time>
      </trkpt>
      <trkpt lat="45.69434" lon="4.7211">
        <ele>283.4</ele>
        <time>2025-04-30T16:51:07Z</time>
      </trkpt>
      <trkpt lat="45.69435" lon="4.72113">
        <ele>283</ele>
        <time>2025-04-30T16:51:08Z</time>
      </trkpt>
      <trkpt lat="45.69435" lon="4.72116">
        <ele>282.8</ele>
        <time>2025-04-30T16:51:09Z</time>
      </trkpt>
      <trkpt lat="45.69435" lon="4.72118">
        <ele>282.4</ele>
        <time>2025-04-30T16:51:10Z</time>
      </trkpt>
      <trkpt lat="45.69435" lon="4.7212">
        <ele>282</ele>
        <time>2025-04-30T16:51:11Z</time>
      </trkpt>
      <trkpt lat="45.69435" lon="4.72123">
        <ele>281.6</ele>
        <time>2025-04-30T16:51:12Z</time>
      </trkpt>
      <trkpt lat="45.69435" lon="4.72126">
        <ele>281.4</ele>
        <time>2025-04-30T16:51:13Z</time>
      </trkpt>
      <trkpt lat="45.69436" lon="4.72129">
        <ele>281.2</ele>
        <time>2025-04-30T16:51:14Z</time>
      </trkpt>
      <trkpt lat="45.69436" lon="4.72132">
        <ele>281</ele>
        <time>2025-04-30T16:51:15Z</time>
      </trkpt>
      <trkpt lat="45.69436" lon="4.72135">
        <ele>280.6</ele>
        <time>2025-04-30T16:51:16Z</time>
      </trkpt>
      <trkpt lat="45.69436" lon="4.72137">
        <ele>279.8</ele>
        <time>2025-04-30T16:51:17Z</time>
      </trkpt>
      <trkpt lat="45.69436" lon="4.72139">
        <ele>279.8</ele>
        <time>2025-04-30T16:51:18Z</time>
      </trkpt>
      <trkpt lat="45.69436" lon="4.72141">
        <ele>279.6</ele>
        <time>2025-04-30T16:51:19Z</time>
      </trkpt>
      <trkpt lat="45.69436" lon="4.72144">
        <ele>279.2</ele>
        <time>2025-04-30T16:51:20Z</time>
      </trkpt>
      <trkpt lat="45.69435" lon="4.72147">
        <ele>279</ele>
        <time>2025-04-30T16:51:21Z</time>
      </trkpt>
      <trkpt lat="45.69435" lon="4.7215">
        <ele>278.6</ele>
        <time>2025-04-30T16:51:22Z</time>
      </trkpt>
      <trkpt lat="45.69435" lon="4.72152">
        <ele>278.4</ele>
        <time>2025-04-30T16:51:23Z</time>
      </trkpt>
      <trkpt lat="45.69435" lon="4.72154">
        <ele>278</ele>
        <time>2025-04-30T16:51:24Z</time>
      </trkpt>
      <trkpt lat="45.69435" lon="4.72157">
        <ele>278</ele>
        <time>2025-04-30T16:51:25Z</time>
      </trkpt>
      <trkpt lat="45.69435" lon="4.7216">
        <ele>277.8</ele>
        <time>2025-04-30T16:51:26Z</time>
      </trkpt>
      <trkpt lat="45.69435" lon="4.72163">
        <ele>277.4</ele>
        <time>2025-04-30T16:51:27Z</time>
      </trkpt>
      <trkpt lat="45.69436" lon="4.72165">
        <ele>277</ele>
        <time>2025-04-30T16:51:28Z</time>
      </trkpt>
      <trkpt lat="45.69437" lon="4.72168">
        <ele>276.6</ele>
        <time>2025-04-30T16:51:29Z</time>
      </trkpt>
      <trkpt lat="45.69437" lon="4.72171">
        <ele>276.2</ele>
        <time>2025-04-30T16:51:30Z</time>
      </trkpt>
      <trkpt lat="45.69437" lon="4.72174">
        <ele>275.8</ele>
        <time>2025-04-30T16:51:31Z</time>
      </trkpt>
      <trkpt lat="45.69437" lon="4.72176">
        <ele>275.4</ele>
        <time>2025-04-30T16:51:32Z</time>
      </trkpt>
      <trkpt lat="45.69437" lon="4.72179">
        <ele>275.2</ele>
        <time>2025-04-30T16:51:33Z</time>
      </trkpt>
      <trkpt lat="45.69437" lon="4.72181">
        <ele>274.8</ele>
        <time>2025-04-30T16:51:34Z</time>
      </trkpt>
      <trkpt lat="45.69437" lon="4.72183">
        <ele>274.4</ele>
        <time>2025-04-30T16:51:35Z</time>
      </trkpt>
      <trkpt lat="45.69437" lon="4.72186">
        <ele>274.2</ele>
        <time>2025-04-30T16:51:36Z</time>
      </trkpt>
      <trkpt lat="45.69438" lon="4.72189">
        <ele>274</ele>
        <time>2025-04-30T16:51:37Z</time>
      </trkpt>
      <trkpt lat="45.69439" lon="4.72193">
        <ele>273.6</ele>
        <time>2025-04-30T16:51:38Z</time>
      </trkpt>
      <trkpt lat="45.69439" lon="4.72196">
        <ele>273.2</ele>
        <time>2025-04-30T16:51:39Z</time>
      </trkpt>
      <trkpt lat="45.6944" lon="4.722">
        <ele>272.6</ele>
        <time>2025-04-30T16:51:40Z</time>
      </trkpt>
      <trkpt lat="45.6944" lon="4.72203">
        <ele>272.2</ele>
        <time>2025-04-30T16:51:41Z</time>
      </trkpt>
      <trkpt lat="45.69441" lon="4.72207">
        <ele>272</ele>
        <time>2025-04-30T16:51:42Z</time>
      </trkpt>
      <trkpt lat="45.69441" lon="4.72211">
        <ele>271.4</ele>
        <time>2025-04-30T16:51:43Z</time>
      </trkpt>
      <trkpt lat="45.69443" lon="4.72215">
        <ele>271</ele>
        <time>2025-04-30T16:51:44Z</time>
      </trkpt>
      <trkpt lat="45.69443" lon="4.72218">
        <ele>270.8</ele>
        <time>2025-04-30T16:51:45Z</time>
      </trkpt>
      <trkpt lat="45.69443" lon="4.72221">
        <ele>270.6</ele>
        <time>2025-04-30T16:51:46Z</time>
      </trkpt>
      <trkpt lat="45.69443" lon="4.72224">
        <ele>270.2</ele>
        <time>2025-04-30T16:51:47Z</time>
      </trkpt>
      <trkpt lat="45.69443" lon="4.72227">
        <ele>269.8</ele>
        <time>2025-04-30T16:51:48Z</time>
      </trkpt>
      <trkpt lat="45.69443" lon="4.7223">
        <ele>269.8</ele>
        <time>2025-04-30T16:51:49Z</time>
      </trkpt>
      <trkpt lat="45.69443" lon="4.72234">
        <ele>269.6</ele>
        <time>2025-04-30T16:51:50Z</time>
      </trkpt>
      <trkpt lat="45.69443" lon="4.72237">
        <ele>269.4</ele>
        <time>2025-04-30T16:51:51Z</time>
      </trkpt>
      <trkpt lat="45.69444" lon="4.72241">
        <ele>269.2</ele>
        <time>2025-04-30T16:51:52Z</time>
      </trkpt>
      <trkpt lat="45.69444" lon="4.72243">
        <ele>268.8</ele>
        <time>2025-04-30T16:51:53Z</time>
      </trkpt>
      <trkpt lat="45.69444" lon="4.72246">
        <ele>268.6</ele>
        <time>2025-04-30T16:51:54Z</time>
      </trkpt>
      <trkpt lat="45.69444" lon="4.72249">
        <ele>268.4</ele>
        <time>2025-04-30T16:51:55Z</time>
      </trkpt>
      <trkpt lat="45.69445" lon="4.72251">
        <ele>268</ele>
        <time>2025-04-30T16:51:56Z</time>
      </trkpt>
      <trkpt lat="45.69445" lon="4.72254">
        <ele>267.8</ele>
        <time>2025-04-30T16:51:57Z</time>
      </trkpt>
      <trkpt lat="45.69445" lon="4.72257">
        <ele>267.6</ele>
        <time>2025-04-30T16:51:58Z</time>
      </trkpt>
      <trkpt lat="45.69444" lon="4.7226">
        <ele>267.6</ele>
        <time>2025-04-30T16:51:59Z</time>
      </trkpt>
      <trkpt lat="45.69444" lon="4.72263">
        <ele>267.4</ele>
        <time>2025-04-30T16:52:00Z</time>
      </trkpt>
      <trkpt lat="45.69444" lon="4.72266">
        <ele>267.2</ele>
        <time>2025-04-30T16:52:01Z</time>
      </trkpt>
      <trkpt lat="45.69444" lon="4.72268">
        <ele>266.8</ele>
        <time>2025-04-30T16:52:02Z</time>
      </trkpt>
      <trkpt lat="45.69444" lon="4.7227">
        <ele>266.6</ele>
        <time>2025-04-30T16:52:03Z</time>
      </trkpt>
      <trkpt lat="45.69444" lon="4.72273">
        <ele>266.4</ele>
        <time>2025-04-30T16:52:04Z</time>
      </trkpt>
      <trkpt lat="45.69444" lon="4.72276">
        <ele>266.2</ele>
        <time>2025-04-30T16:52:05Z</time>
      </trkpt>
      <trkpt lat="45.69444" lon="4.72279">
        <ele>265.6</ele>
        <time>2025-04-30T16:52:06Z</time>
      </trkpt>
      <trkpt lat="45.69444" lon="4.72282">
        <ele>265.6</ele>
        <time>2025-04-30T16:52:07Z</time>
      </trkpt>
      <trkpt lat="45.69445" lon="4.72285">
        <ele>265.2</ele>
        <time>2025-04-30T16:52:08Z</time>
      </trkpt>
      <trkpt lat="45.69445" lon="4.72287">
        <ele>264.6</ele>
        <time>2025-04-30T16:52:09Z</time>
      </trkpt>
      <trkpt lat="45.69446" lon="4.72289">
        <ele>264.2</ele>
        <time>2025-04-30T16:52:10Z</time>
      </trkpt>
      <trkpt lat="45.69446" lon="4.72291">
        <ele>264</ele>
        <time>2025-04-30T16:52:11Z</time>
      </trkpt>
      <trkpt lat="45.69446" lon="4.72294">
        <ele>263.8</ele>
        <time>2025-04-30T16:52:12Z</time>
      </trkpt>
      <trkpt lat="45.69446" lon="4.72296">
        <ele>263.6</ele>
        <time>2025-04-30T16:52:13Z</time>
      </trkpt>
      <trkpt lat="45.69446" lon="4.72298">
        <ele>263.2</ele>
        <time>2025-04-30T16:52:14Z</time>
      </trkpt>
      <trkpt lat="45.69445" lon="4.723">
        <ele>262.8</ele>
        <time>2025-04-30T16:52:15Z</time>
      </trkpt>
      <trkpt lat="45.69444" lon="4.72302">
        <ele>262.8</ele>
        <time>2025-04-30T16:52:16Z</time>
      </trkpt>
      <trkpt lat="45.69443" lon="4.72305">
        <ele>262.6</ele>
        <time>2025-04-30T16:52:17Z</time>
      </trkpt>
      <trkpt lat="45.69442" lon="4.72308">
        <ele>262.2</ele>
        <time>2025-04-30T16:52:18Z</time>
      </trkpt>
      <trkpt lat="45.69442" lon="4.72312">
        <ele>261.6</ele>
        <time>2025-04-30T16:52:19Z</time>
      </trkpt>
      <trkpt lat="45.69442" lon="4.72315">
        <ele>261</ele>
        <time>2025-04-30T16:52:20Z</time>
      </trkpt>
      <trkpt lat="45.69441" lon="4.72317">
        <ele>261</ele>
        <time>2025-04-30T16:52:21Z</time>
      </trkpt>
      <trkpt lat="45.6944" lon="4.7232">
        <ele>260.6</ele>
        <time>2025-04-30T16:52:22Z</time>
      </trkpt>
      <trkpt lat="45.6944" lon="4.72323">
        <ele>260.2</ele>
        <time>2025-04-30T16:52:23Z</time>
      </trkpt>
      <trkpt lat="45.69439" lon="4.72326">
        <ele>259.6</ele>
        <time>2025-04-30T16:52:24Z</time>
      </trkpt>
      <trkpt lat="45.69438" lon="4.72328">
        <ele>259.2</ele>
        <time>2025-04-30T16:52:25Z</time>
      </trkpt>
      <trkpt lat="45.69437" lon="4.72329">
        <ele>259</ele>
        <time>2025-04-30T16:52:26Z</time>
      </trkpt>
      <trkpt lat="45.69436" lon="4.72331">
        <ele>258.4</ele>
        <time>2025-04-30T16:52:27Z</time>
      </trkpt>
      <trkpt lat="45.69435" lon="4.72333">
        <ele>258</ele>
        <time>2025-04-30T16:52:28Z</time>
      </trkpt>
      <trkpt lat="45.69434" lon="4.72335">
        <ele>257.6</ele>
        <time>2025-04-30T16:52:29Z</time>
      </trkpt>
      <trkpt lat="45.69432" lon="4.72338">
        <ele>257.2</ele>
        <time>2025-04-30T16:52:30Z</time>
      </trkpt>
      <trkpt lat="45.6943" lon="4.72339">
        <ele>256.4</ele>
        <time>2025-04-30T16:52:31Z</time>
      </trkpt>
      <trkpt lat="45.69429" lon="4.72338">
        <ele>256</ele>
        <time>2025-04-30T16:52:32Z</time>
      </trkpt>
      <trkpt lat="45.69429" lon="4.72338">
        <ele>255.6</ele>
        <time>2025-04-30T16:52:33Z</time>
      </trkpt>
      <trkpt lat="45.69429" lon="4.72338">
        <ele>255.4</ele>
        <time>2025-04-30T16:52:34Z</time>
      </trkpt>
      <trkpt lat="45.69429" lon="4.72338">
        <ele>255.4</ele>
        <time>2025-04-30T16:52:35Z</time>
      </trkpt>
      <trkpt lat="45.69429" lon="4.72338">
        <ele>255.4</ele>
        <time>2025-04-30T16:52:36Z</time>
      </trkpt>
      <trkpt lat="45.69429" lon="4.72338">
        <ele>255.4</ele>
        <time>2025-04-30T16:52:37Z</time>
      </trkpt>
      <trkpt lat="45.69429" lon="4.72338">
        <ele>255.4</ele>
        <time>2025-04-30T16:52:38Z</time>
      </trkpt>
      <trkpt lat="45.69429" lon="4.72338">
        <ele>255.4</ele>
        <time>2025-04-30T16:52:39Z</time>
      </trkpt>
      <trkpt lat="45.69429" lon="4.72338">
        <ele>255.4</ele>
        <time>2025-04-30T16:52:40Z</time>
      </trkpt>
      <trkpt lat="45.69429" lon="4.72338">
        <ele>255.4</ele>
        <time>2025-04-30T16:52:41Z</time>
      </trkpt>
      <trkpt lat="45.69429" lon="4.72338">
        <ele>255.4</ele>
        <time>2025-04-30T16:52:42Z</time>
      </trkpt>
      <trkpt lat="45.69429" lon="4.72338">
        <ele>255.4</ele>
        <time>2025-04-30T16:52:43Z</time>
      </trkpt>
      <trkpt lat="45.6943" lon="4.72338">
        <ele>255.4</ele>
        <time>2025-04-30T16:52:44Z</time>
      </trkpt>
      <trkpt lat="45.6943" lon="4.72339">
        <ele>255.4</ele>
        <time>2025-04-30T16:52:45Z</time>
      </trkpt>
      <trkpt lat="45.69431" lon="4.72339">
        <ele>255.4</ele>
        <time>2025-04-30T16:52:46Z</time>
      </trkpt>
      <trkpt lat="45.69431" lon="4.72339">
        <ele>255.4</ele>
        <time>2025-04-30T16:52:47Z</time>
      </trkpt>
      <trkpt lat="45.69431" lon="4.72339">
        <ele>255.4</ele>
        <time>2025-04-30T16:52:48Z</time>
      </trkpt>
      <trkpt lat="45.69431" lon="4.72339">
        <ele>255.2</ele>
        <time>2025-04-30T16:52:49Z</time>
      </trkpt>
      <trkpt lat="45.69431" lon="4.72339">
        <ele>255.2</ele>
        <time>2025-04-30T16:52:50Z</time>
      </trkpt>
      <trkpt lat="45.69431" lon="4.72339">
        <ele>255.2</ele>
        <time>2025-04-30T16:52:51Z</time>
      </trkpt>
      <trkpt lat="45.69431" lon="4.72339">
        <ele>255.2</ele>
        <time>2025-04-30T16:52:52Z</time>
      </trkpt>
      <trkpt lat="45.69431" lon="4.72339">
        <ele>255.2</ele>
        <time>2025-04-30T16:52:53Z</time>
      </trkpt>
      <trkpt lat="45.69431" lon="4.72339">
        <ele>255.2</ele>
        <time>2025-04-30T16:52:54Z</time>
      </trkpt>
      <trkpt lat="45.69431" lon="4.72339">
        <ele>255.2</ele>
        <time>2025-04-30T16:52:55Z</time>
      </trkpt>
      <trkpt lat="45.69431" lon="4.72339">
        <ele>255.2</ele>
        <time>2025-04-30T16:52:56Z</time>
      </trkpt>
      <trkpt lat="45.69431" lon="4.72339">
        <ele>255.2</ele>
        <time>2025-04-30T16:52:57Z</time>
      </trkpt>
      <trkpt lat="45.69431" lon="4.72339">
        <ele>255.2</ele>
        <time>2025-04-30T16:52:58Z</time>
      </trkpt>
      <trkpt lat="45.69431" lon="4.72339">
        <ele>255.2</ele>
        <time>2025-04-30T16:52:59Z</time>
      </trkpt>
      <trkpt lat="45.69431" lon="4.72339">
        <ele>255.2</ele>
        <time>2025-04-30T16:53:00Z</time>
      </trkpt>
      <trkpt lat="45.69431" lon="4.72339">
        <ele>255.2</ele>
        <time>2025-04-30T16:53:01Z</time>
      </trkpt>
      <trkpt lat="45.69431" lon="4.72339">
        <ele>255</ele>
        <time>2025-04-30T16:53:02Z</time>
      </trkpt>
      <trkpt lat="45.69431" lon="4.72339">
        <ele>255</ele>
        <time>2025-04-30T16:53:03Z</time>
      </trkpt>
      <trkpt lat="45.69431" lon="4.72339">
        <ele>255</ele>
        <time>2025-04-30T16:53:04Z</time>
      </trkpt>
      <trkpt lat="45.69431" lon="4.72339">
        <ele>255</ele>
        <time>2025-04-30T16:53:05Z</time>
      </trkpt>
      <trkpt lat="45.69431" lon="4.72339">
        <ele>255</ele>
        <time>2025-04-30T16:53:06Z</time>
      </trkpt>
      <trkpt lat="45.69431" lon="4.72339">
        <ele>255</ele>
        <time>2025-04-30T16:53:07Z</time>
      </trkpt>
      <trkpt lat="45.69431" lon="4.72339">
        <ele>255</ele>
        <time>2025-04-30T16:53:08Z</time>
      </trkpt>
      <trkpt lat="45.69431" lon="4.72339">
        <ele>255</ele>
        <time>2025-04-30T16:53:09Z</time>
      </trkpt>
      <trkpt lat="45.69431" lon="4.72339">
        <ele>255</ele>
        <time>2025-04-30T16:53:10Z</time>
      </trkpt>
      <trkpt lat="45.69431" lon="4.72339">
        <ele>255</ele>
        <time>2025-04-30T16:53:11Z</time>
      </trkpt>
      <trkpt lat="45.69431" lon="4.72339">
        <ele>255</ele>
        <time>2025-04-30T16:53:12Z</time>
      </trkpt>
      <trkpt lat="45.69431" lon="4.72339">
        <ele>255</ele>
        <time>2025-04-30T16:53:13Z</time>
      </trkpt>
      <trkpt lat="45.69431" lon="4.72339">
        <ele>255</ele>
        <time>2025-04-30T16:53:14Z</time>
      </trkpt>
      <trkpt lat="45.69431" lon="4.72339">
        <ele>255</ele>
        <time>2025-04-30T16:53:15Z</time>
      </trkpt>
      <trkpt lat="45.69431" lon="4.72339">
        <ele>255</ele>
        <time>2025-04-30T16:53:16Z</time>
      </trkpt>
      <trkpt lat="45.69431" lon="4.72339">
        <ele>255</ele>
        <time>2025-04-30T16:53:17Z</time>
      </trkpt>
      <trkpt lat="45.69431" lon="4.72339">
        <ele>255</ele>
        <time>2025-04-30T16:53:18Z</time>
      </trkpt>
      <trkpt lat="45.69431" lon="4.72339">
        <ele>254.8</ele>
        <time>2025-04-30T16:53:19Z</time>
      </trkpt>
      <trkpt lat="45.69431" lon="4.72339">
        <ele>254.8</ele>
        <time>2025-04-30T16:53:20Z</time>
      </trkpt>
      <trkpt lat="45.69431" lon="4.72339">
        <ele>254.8</ele>
        <time>2025-04-30T16:53:21Z</time>
      </trkpt>
      <trkpt lat="45.69431" lon="4.72339">
        <ele>254.8</ele>
        <time>2025-04-30T16:53:22Z</time>
      </trkpt>
      <trkpt lat="45.69431" lon="4.72339">
        <ele>254.8</ele>
        <time>2025-04-30T16:53:23Z</time>
      </trkpt>
      <trkpt lat="45.69431" lon="4.72339">
        <ele>254.8</ele>
        <time>2025-04-30T16:53:24Z</time>
      </trkpt>
      <trkpt lat="45.69431" lon="4.72339">
        <ele>254.8</ele>
        <time>2025-04-30T16:53:25Z</time>
      </trkpt>
      <trkpt lat="45.69431" lon="4.72339">
        <ele>254.8</ele>
        <time>2025-04-30T16:53:26Z</time>
      </trkpt>
      <trkpt lat="45.69431" lon="4.72339">
        <ele>254.8</ele>
        <time>2025-04-30T16:53:27Z</time>
      </trkpt>
      <trkpt lat="45.69431" lon="4.72339">
        <ele>254.8</ele>
        <time>2025-04-30T16:53:28Z</time>
      </trkpt>
      <trkpt lat="45.69431" lon="4.72339">
        <ele>254.8</ele>
        <time>2025-04-30T16:53:29Z</time>
      </trkpt>
      <trkpt lat="45.69431" lon="4.72339">
        <ele>254.8</ele>
        <time>2025-04-30T16:53:30Z</time>
      </trkpt>
      <trkpt lat="45.69431" lon="4.72339">
        <ele>254.8</ele>
        <time>2025-04-30T16:53:31Z</time>
      </trkpt>
      <trkpt lat="45.69431" lon="4.72339">
        <ele>254.8</ele>
        <time>2025-04-30T16:53:32Z</time>
      </trkpt>
      <trkpt lat="45.69431" lon="4.72339">
        <ele>254.8</ele>
        <time>2025-04-30T16:53:33Z</time>
      </trkpt>
      <trkpt lat="45.69431" lon="4.72339">
        <ele>254.8</ele>
        <time>2025-04-30T16:53:34Z</time>
      </trkpt>
      <trkpt lat="45.69431" lon="4.72339">
        <ele>254.8</ele>
        <time>2025-04-30T16:53:35Z</time>
      </trkpt>
      <trkpt lat="45.69431" lon="4.72339">
        <ele>254.8</ele>
        <time>2025-04-30T16:53:36Z</time>
      </trkpt>
      <trkpt lat="45.69431" lon="4.72339">
        <ele>254.8</ele>
        <time>2025-04-30T16:53:37Z</time>
      </trkpt>
      <trkpt lat="45.69431" lon="4.72339">
        <ele>254.8</ele>
        <time>2025-04-30T16:53:38Z</time>
      </trkpt>
      <trkpt lat="45.69431" lon="4.72339">
        <ele>254.8</ele>
        <time>2025-04-30T16:53:39Z</time>
      </trkpt>
      <trkpt lat="45.69431" lon="4.72339">
        <ele>254.8</ele>
        <time>2025-04-30T16:53:40Z</time>
      </trkpt>
      <trkpt lat="45.69431" lon="4.72339">
        <ele>254.8</ele>
        <time>2025-04-30T16:53:41Z</time>
      </trkpt>
      <trkpt lat="45.69431" lon="4.72339">
        <ele>254.8</ele>
        <time>2025-04-30T16:53:42Z</time>
      </trkpt>
      <trkpt lat="45.69431" lon="4.72339">
        <ele>254.6</ele>
        <time>2025-04-30T16:53:43Z</time>
      </trkpt>
      <trkpt lat="45.69431" lon="4.72339">
        <ele>254.6</ele>
        <time>2025-04-30T16:53:44Z</time>
      </trkpt>
      <trkpt lat="45.69431" lon="4.72339">
        <ele>254.6</ele>
        <time>2025-04-30T16:53:45Z</time>
      </trkpt>
      <trkpt lat="45.69431" lon="4.72339">
        <ele>254.6</ele>
        <time>2025-04-30T16:53:46Z</time>
      </trkpt>
      <trkpt lat="45.69431" lon="4.72339">
        <ele>254.6</ele>
        <time>2025-04-30T16:53:47Z</time>
      </trkpt>
      <trkpt lat="45.69431" lon="4.72339">
        <ele>254.6</ele>
        <time>2025-04-30T16:53:48Z</time>
      </trkpt>
      <trkpt lat="45.69431" lon="4.72339">
        <ele>254.6</ele>
        <time>2025-04-30T16:53:49Z</time>
      </trkpt>
      <trkpt lat="45.69431" lon="4.72339">
        <ele>254.6</ele>
        <time>2025-04-30T16:53:50Z</time>
      </trkpt>
      <trkpt lat="45.69431" lon="4.72339">
        <ele>254.6</ele>
        <time>2025-04-30T16:53:51Z</time>
      </trkpt>
      <trkpt lat="45.69431" lon="4.72339">
        <ele>254.6</ele>
        <time>2025-04-30T16:53:52Z</time>
      </trkpt>
      <trkpt lat="45.69431" lon="4.72339">
        <ele>254.6</ele>
        <time>2025-04-30T16:53:53Z</time>
      </trkpt>
      <trkpt lat="45.69431" lon="4.72339">
        <ele>254.6</ele>
        <time>2025-04-30T16:53:54Z</time>
      </trkpt>
      <trkpt lat="45.69431" lon="4.72339">
        <ele>254.6</ele>
        <time>2025-04-30T16:53:55Z</time>
      </trkpt>
      <trkpt lat="45.69431" lon="4.72339">
        <ele>254.6</ele>
        <time>2025-04-30T16:53:56Z</time>
      </trkpt>
      <trkpt lat="45.69431" lon="4.72339">
        <ele>254.6</ele>
        <time>2025-04-30T16:53:57Z</time>
      </trkpt>
      <trkpt lat="45.69431" lon="4.72339">
        <ele>254.6</ele>
        <time>2025-04-30T16:53:58Z</time>
      </trkpt>
      <trkpt lat="45.69431" lon="4.72339">
        <ele>254.6</ele>
        <time>2025-04-30T16:53:59Z</time>
      </trkpt>
      <trkpt lat="45.69431" lon="4.72339">
        <ele>254.6</ele>
        <time>2025-04-30T16:54:00Z</time>
      </trkpt>
      <trkpt lat="45.69431" lon="4.72339">
        <ele>254.6</ele>
        <time>2025-04-30T16:54:01Z</time>
      </trkpt>
      <trkpt lat="45.69431" lon="4.72339">
        <ele>254.6</ele>
        <time>2025-04-30T16:54:02Z</time>
      </trkpt>
      <trkpt lat="45.69431" lon="4.72339">
        <ele>254.6</ele>
        <time>2025-04-30T16:54:03Z</time>
      </trkpt>
      <trkpt lat="45.69431" lon="4.72339">
        <ele>254.6</ele>
        <time>2025-04-30T16:54:04Z</time>
      </trkpt>
      <trkpt lat="45.69431" lon="4.72339">
        <ele>254.6</ele>
        <time>2025-04-30T16:54:05Z</time>
      </trkpt>
      <trkpt lat="45.69431" lon="4.72339">
        <ele>254.6</ele>
        <time>2025-04-30T16:54:06Z</time>
      </trkpt>
      <trkpt lat="45.69431" lon="4.72339">
        <ele>254.6</ele>
        <time>2025-04-30T16:54:07Z</time>
      </trkpt>
      <trkpt lat="45.69431" lon="4.72339">
        <ele>254.6</ele>
        <time>2025-04-30T16:54:08Z</time>
      </trkpt>
      <trkpt lat="45.69431" lon="4.72339">
        <ele>254.6</ele>
        <time>2025-04-30T16:54:09Z</time>
      </trkpt>
      <trkpt lat="45.69431" lon="4.72339">
        <ele>254.6</ele>
        <time>2025-04-30T16:54:10Z</time>
      </trkpt>
      <trkpt lat="45.69431" lon="4.72339">
        <ele>254.6</ele>
        <time>2025-04-30T16:54:11Z</time>
      </trkpt>
      <trkpt lat="45.69431" lon="4.72339">
        <ele>254.6</ele>
        <time>2025-04-30T16:54:12Z</time>
      </trkpt>
      <trkpt lat="45.69431" lon="4.72339">
        <ele>254.6</ele>
        <time>2025-04-30T16:54:13Z</time>
      </trkpt>
      <trkpt lat="45.69431" lon="4.72339">
        <ele>254.6</ele>
        <time>2025-04-30T16:54:14Z</time>
      </trkpt>
      <trkpt lat="45.69431" lon="4.72339">
        <ele>254.6</ele>
        <time>2025-04-30T16:54:15Z</time>
      </trkpt>
      <trkpt lat="45.69431" lon="4.72339">
        <ele>254.6</ele>
        <time>2025-04-30T16:54:16Z</time>
      </trkpt>
      <trkpt lat="45.69431" lon="4.72339">
        <ele>254.6</ele>
        <time>2025-04-30T16:54:17Z</time>
      </trkpt>
      <trkpt lat="45.69431" lon="4.72339">
        <ele>254.6</ele>
        <time>2025-04-30T16:54:18Z</time>
      </trkpt>
      <trkpt lat="45.69431" lon="4.72339">
        <ele>254.6</ele>
        <time>2025-04-30T16:54:19Z</time>
      </trkpt>
      <trkpt lat="45.69431" lon="4.72339">
        <ele>254.6</ele>
        <time>2025-04-30T16:54:20Z</time>
      </trkpt>
      <trkpt lat="45.69431" lon="4.72339">
        <ele>254.6</ele>
        <time>2025-04-30T16:54:21Z</time>
      </trkpt>
      <trkpt lat="45.69431" lon="4.72339">
        <ele>254.4</ele>
        <time>2025-04-30T16:54:22Z</time>
      </trkpt>
      <trkpt lat="45.69431" lon="4.72341">
        <ele>254.4</ele>
        <time>2025-04-30T16:54:23Z</time>
      </trkpt>
      <trkpt lat="45.69432" lon="4.72344">
        <ele>254.4</ele>
        <time>2025-04-30T16:54:24Z</time>
      </trkpt>
      <trkpt lat="45.69434" lon="4.72348">
        <ele>254.4</ele>
        <time>2025-04-30T16:54:25Z</time>
      </trkpt>
      <trkpt lat="45.69436" lon="4.72354">
        <ele>254.2</ele>
        <time>2025-04-30T16:54:26Z</time>
      </trkpt>
      <trkpt lat="45.69439" lon="4.7236">
        <ele>253.8</ele>
        <time>2025-04-30T16:54:27Z</time>
      </trkpt>
      <trkpt lat="45.69441" lon="4.72367">
        <ele>252.8</ele>
        <time>2025-04-30T16:54:28Z</time>
      </trkpt>
      <trkpt lat="45.69446" lon="4.72373">
        <ele>251.6</ele>
        <time>2025-04-30T16:54:29Z</time>
      </trkpt>
      <trkpt lat="45.6945" lon="4.72379">
        <ele>250.6</ele>
        <time>2025-04-30T16:54:30Z</time>
      </trkpt>
      <trkpt lat="45.69455" lon="4.72385">
        <ele>249.8</ele>
        <time>2025-04-30T16:54:31Z</time>
      </trkpt>
      <trkpt lat="45.6946" lon="4.72391">
        <ele>248.8</ele>
        <time>2025-04-30T16:54:32Z</time>
      </trkpt>
      <trkpt lat="45.69465" lon="4.72397">
        <ele>248.2</ele>
        <time>2025-04-30T16:54:33Z</time>
      </trkpt>
      <trkpt lat="45.69469" lon="4.72402">
        <ele>246.6</ele>
        <time>2025-04-30T16:54:34Z</time>
      </trkpt>
      <trkpt lat="45.69472" lon="4.72406">
        <ele>245.6</ele>
        <time>2025-04-30T16:54:35Z</time>
      </trkpt>
      <trkpt lat="45.69474" lon="4.7241">
        <ele>245</ele>
        <time>2025-04-30T16:54:36Z</time>
      </trkpt>
      <trkpt lat="45.69475" lon="4.72415">
        <ele>244.2</ele>
        <time>2025-04-30T16:54:37Z</time>
      </trkpt>
      <trkpt lat="45.69474" lon="4.72419">
        <ele>244</ele>
        <time>2025-04-30T16:54:38Z</time>
      </trkpt>
      <trkpt lat="45.69472" lon="4.72422">
        <ele>243.4</ele>
        <time>2025-04-30T16:54:39Z</time>
      </trkpt>
      <trkpt lat="45.69469" lon="4.72422">
        <ele>243</ele>
        <time>2025-04-30T16:54:40Z</time>
      </trkpt>
      <trkpt lat="45.69465" lon="4.72422">
        <ele>242.2</ele>
        <time>2025-04-30T16:54:41Z</time>
      </trkpt>
      <trkpt lat="45.69461" lon="4.72421">
        <ele>241.8</ele>
        <time>2025-04-30T16:54:42Z</time>
      </trkpt>
      <trkpt lat="45.69458" lon="4.7242">
        <ele>241.2</ele>
        <time>2025-04-30T16:54:43Z</time>
      </trkpt>
      <trkpt lat="45.69454" lon="4.72418">
        <ele>240.6</ele>
        <time>2025-04-30T16:54:44Z</time>
      </trkpt>
      <trkpt lat="45.6945" lon="4.72415">
        <ele>240.2</ele>
        <time>2025-04-30T16:54:45Z</time>
      </trkpt>
      <trkpt lat="45.69446" lon="4.72412">
        <ele>239.6</ele>
        <time>2025-04-30T16:54:46Z</time>
      </trkpt>
      <trkpt lat="45.69443" lon="4.72409">
        <ele>239.2</ele>
        <time>2025-04-30T16:54:47Z</time>
      </trkpt>
      <trkpt lat="45.69438" lon="4.72405">
        <ele>238.6</ele>
        <time>2025-04-30T16:54:48Z</time>
      </trkpt>
      <trkpt lat="45.69432" lon="4.72402">
        <ele>238</ele>
        <time>2025-04-30T16:54:49Z</time>
      </trkpt>
      <trkpt lat="45.69426" lon="4.72399">
        <ele>237.4</ele>
        <time>2025-04-30T16:54:50Z</time>
      </trkpt>
      <trkpt lat="45.69421" lon="4.72396">
        <ele>236.8</ele>
        <time>2025-04-30T16:54:51Z</time>
      </trkpt>
      <trkpt lat="45.69415" lon="4.72393">
        <ele>236.2</ele>
        <time>2025-04-30T16:54:52Z</time>
      </trkpt>
      <trkpt lat="45.69411" lon="4.7239">
        <ele>235.8</ele>
        <time>2025-04-30T16:54:53Z</time>
      </trkpt>
      <trkpt lat="45.69408" lon="4.7239">
        <ele>235.6</ele>
        <time>2025-04-30T16:54:54Z</time>
      </trkpt>
      <trkpt lat="45.69406" lon="4.72392">
        <ele>235.4</ele>
        <time>2025-04-30T16:54:55Z</time>
      </trkpt>
      <trkpt lat="45.69405" lon="4.72396">
        <ele>235.4</ele>
        <time>2025-04-30T16:54:56Z</time>
      </trkpt>
      <trkpt lat="45.69405" lon="4.72401">
        <ele>235.2</ele>
        <time>2025-04-30T16:54:57Z</time>
      </trkpt>
      <trkpt lat="45.69405" lon="4.72407">
        <ele>235.2</ele>
        <time>2025-04-30T16:54:58Z</time>
      </trkpt>
      <trkpt lat="45.69406" lon="4.72413">
        <ele>235</ele>
        <time>2025-04-30T16:54:59Z</time>
      </trkpt>
      <trkpt lat="45.69406" lon="4.72418">
        <ele>234.8</ele>
        <time>2025-04-30T16:55:00Z</time>
      </trkpt>
      <trkpt lat="45.69407" lon="4.72424">
        <ele>234.4</ele>
        <time>2025-04-30T16:55:01Z</time>
      </trkpt>
      <trkpt lat="45.69408" lon="4.72429">
        <ele>234.2</ele>
        <time>2025-04-30T16:55:02Z</time>
      </trkpt>
      <trkpt lat="45.6941" lon="4.72435">
        <ele>234</ele>
        <time>2025-04-30T16:55:03Z</time>
      </trkpt>
      <trkpt lat="45.69411" lon="4.72441">
        <ele>233.8</ele>
        <time>2025-04-30T16:55:04Z</time>
      </trkpt>
      <trkpt lat="45.69413" lon="4.72448">
        <ele>233.6</ele>
        <time>2025-04-30T16:55:05Z</time>
      </trkpt>
      <trkpt lat="45.69415" lon="4.72455">
        <ele>233.4</ele>
        <time>2025-04-30T16:55:06Z</time>
      </trkpt>
      <trkpt lat="45.69416" lon="4.72461">
        <ele>233.2</ele>
        <time>2025-04-30T16:55:07Z</time>
      </trkpt>
      <trkpt lat="45.69418" lon="4.72469">
        <ele>233</ele>
        <time>2025-04-30T16:55:08Z</time>
      </trkpt>
      <trkpt lat="45.69419" lon="4.72476">
        <ele>232.6</ele>
        <time>2025-04-30T16:55:09Z</time>
      </trkpt>
      <trkpt lat="45.6942" lon="4.72483">
        <ele>232.2</ele>
        <time>2025-04-30T16:55:10Z</time>
      </trkpt>
      <trkpt lat="45.69421" lon="4.72491">
        <ele>232.2</ele>
        <time>2025-04-30T16:55:11Z</time>
      </trkpt>
      <trkpt lat="45.69422" lon="4.72498">
        <ele>232.2</ele>
        <time>2025-04-30T16:55:12Z</time>
      </trkpt>
      <trkpt lat="45.69423" lon="4.72505">
        <ele>232.2</ele>
        <time>2025-04-30T16:55:13Z</time>
      </trkpt>
      <trkpt lat="45.69424" lon="4.72512">
        <ele>232</ele>
        <time>2025-04-30T16:55:14Z</time>
      </trkpt>
      <trkpt lat="45.69424" lon="4.72519">
        <ele>232</ele>
        <time>2025-04-30T16:55:15Z</time>
      </trkpt>
      <trkpt lat="45.69425" lon="4.72526">
        <ele>232</ele>
        <time>2025-04-30T16:55:16Z</time>
      </trkpt>
      <trkpt lat="45.69424" lon="4.72533">
        <ele>232</ele>
        <time>2025-04-30T16:55:17Z</time>
      </trkpt>
      <trkpt lat="45.69424" lon="4.72539">
        <ele>231.8</ele>
        <time>2025-04-30T16:55:18Z</time>
      </trkpt>
      <trkpt lat="45.69423" lon="4.72545">
        <ele>231.8</ele>
        <time>2025-04-30T16:55:19Z</time>
      </trkpt>
      <trkpt lat="45.6942" lon="4.72551">
        <ele>231.6</ele>
        <time>2025-04-30T16:55:20Z</time>
      </trkpt>
      <trkpt lat="45.69417" lon="4.72555">
        <ele>231.4</ele>
        <time>2025-04-30T16:55:21Z</time>
      </trkpt>
      <trkpt lat="45.69415" lon="4.72561">
        <ele>231.4</ele>
        <time>2025-04-30T16:55:22Z</time>
      </trkpt>
      <trkpt lat="45.69415" lon="4.72567">
        <ele>231.4</ele>
        <time>2025-04-30T16:55:23Z</time>
      </trkpt>
      <trkpt lat="45.69413" lon="4.7257">
        <ele>231.4</ele>
        <time>2025-04-30T16:55:24Z</time>
      </trkpt>
      <trkpt lat="45.69413" lon="4.72573">
        <ele>231.4</ele>
        <time>2025-04-30T16:55:25Z</time>
      </trkpt>
      <trkpt lat="45.69413" lon="4.72573">
        <ele>231.4</ele>
        <time>2025-04-30T16:55:26Z</time>
      </trkpt>
      <trkpt lat="45.69413" lon="4.72573">
        <ele>231.6</ele>
        <time>2025-04-30T16:55:27Z</time>
      </trkpt>
      <trkpt lat="45.69413" lon="4.72573">
        <ele>231.6</ele>
        <time>2025-04-30T16:55:28Z</time>
      </trkpt>
      <trkpt lat="45.69413" lon="4.72573">
        <ele>231.6</ele>
        <time>2025-04-30T16:55:29Z</time>
      </trkpt>
      <trkpt lat="45.69413" lon="4.72573">
        <ele>231.6</ele>
        <time>2025-04-30T16:55:30Z</time>
      </trkpt>
      <trkpt lat="45.69413" lon="4.72573">
        <ele>231.8</ele>
        <time>2025-04-30T16:55:31Z</time>
      </trkpt>
      <trkpt lat="45.69413" lon="4.72573">
        <ele>231.8</ele>
        <time>2025-04-30T16:55:32Z</time>
      </trkpt>
      <trkpt lat="45.69413" lon="4.72573">
        <ele>231.8</ele>
        <time>2025-04-30T16:55:33Z</time>
      </trkpt>
      <trkpt lat="45.69413" lon="4.72573">
        <ele>231.8</ele>
        <time>2025-04-30T16:55:34Z</time>
      </trkpt>
      <trkpt lat="45.69413" lon="4.72573">
        <ele>231.8</ele>
        <time>2025-04-30T16:55:35Z</time>
      </trkpt>
      <trkpt lat="45.69413" lon="4.72572">
        <ele>231.8</ele>
        <time>2025-04-30T16:55:36Z</time>
      </trkpt>
      <trkpt lat="45.69413" lon="4.72572">
        <ele>231.8</ele>
        <time>2025-04-30T16:55:37Z</time>
      </trkpt>
      <trkpt lat="45.69413" lon="4.72572">
        <ele>231.8</ele>
        <time>2025-04-30T16:55:38Z</time>
      </trkpt>
      <trkpt lat="45.69413" lon="4.72572">
        <ele>231.8</ele>
        <time>2025-04-30T16:55:39Z</time>
      </trkpt>
      <trkpt lat="45.69413" lon="4.72572">
        <ele>232</ele>
        <time>2025-04-30T16:55:40Z</time>
      </trkpt>
      <trkpt lat="45.69413" lon="4.72572">
        <ele>232</ele>
        <time>2025-04-30T16:55:41Z</time>
      </trkpt>
      <trkpt lat="45.69413" lon="4.72572">
        <ele>231.8</ele>
        <time>2025-04-30T16:55:42Z</time>
      </trkpt>
      <trkpt lat="45.69413" lon="4.72572">
        <ele>231.8</ele>
        <time>2025-04-30T16:55:43Z</time>
      </trkpt>
      <trkpt lat="45.69413" lon="4.72572">
        <ele>231.8</ele>
        <time>2025-04-30T16:55:44Z</time>
      </trkpt>
      <trkpt lat="45.69414" lon="4.72571">
        <ele>231.8</ele>
        <time>2025-04-30T16:55:45Z</time>
      </trkpt>
      <trkpt lat="45.69414" lon="4.7257">
        <ele>231.8</ele>
        <time>2025-04-30T16:55:46Z</time>
      </trkpt>
      <trkpt lat="45.69415" lon="4.72568">
        <ele>231.8</ele>
        <time>2025-04-30T16:55:47Z</time>
      </trkpt>
      <trkpt lat="45.69416" lon="4.72566">
        <ele>231.8</ele>
        <time>2025-04-30T16:55:48Z</time>
      </trkpt>
      <trkpt lat="45.69416" lon="4.72564">
        <ele>231.8</ele>
        <time>2025-04-30T16:55:49Z</time>
      </trkpt>
      <trkpt lat="45.69417" lon="4.72561">
        <ele>231.8</ele>
        <time>2025-04-30T16:55:50Z</time>
      </trkpt>
      <trkpt lat="45.69417" lon="4.7256">
        <ele>231.8</ele>
        <time>2025-04-30T16:55:51Z</time>
      </trkpt>
      <trkpt lat="45.69416" lon="4.72558">
        <ele>231.8</ele>
        <time>2025-04-30T16:55:52Z</time>
      </trkpt>
      <trkpt lat="45.69416" lon="4.72557">
        <ele>231.8</ele>
        <time>2025-04-30T16:55:53Z</time>
      </trkpt>
      <trkpt lat="45.69414" lon="4.72557">
        <ele>232</ele>
        <time>2025-04-30T16:55:54Z</time>
      </trkpt>
      <trkpt lat="45.69413" lon="4.72558">
        <ele>232.2</ele>
        <time>2025-04-30T16:55:55Z</time>
      </trkpt>
      <trkpt lat="45.69411" lon="4.7256">
        <ele>232.4</ele>
        <time>2025-04-30T16:55:56Z</time>
      </trkpt>
      <trkpt lat="45.69409" lon="4.72562">
        <ele>232.4</ele>
        <time>2025-04-30T16:55:57Z</time>
      </trkpt>
      <trkpt lat="45.69407" lon="4.72564">
        <ele>232.4</ele>
        <time>2025-04-30T16:55:58Z</time>
      </trkpt>
      <trkpt lat="45.69404" lon="4.72567">
        <ele>232.4</ele>
        <time>2025-04-30T16:55:59Z</time>
      </trkpt>
      <trkpt lat="45.69402" lon="4.72569">
        <ele>232.4</ele>
        <time>2025-04-30T16:56:00Z</time>
      </trkpt>
      <trkpt lat="45.69401" lon="4.72573">
        <ele>232.4</ele>
        <time>2025-04-30T16:56:01Z</time>
      </trkpt>
      <trkpt lat="45.69401" lon="4.72576">
        <ele>232.4</ele>
        <time>2025-04-30T16:56:02Z</time>
      </trkpt>
      <trkpt lat="45.69402" lon="4.72579">
        <ele>232.6</ele>
        <time>2025-04-30T16:56:03Z</time>
      </trkpt>
      <trkpt lat="45.69402" lon="4.72581">
        <ele>232.8</ele>
        <time>2025-04-30T16:56:04Z</time>
      </trkpt>
      <trkpt lat="45.69403" lon="4.72583">
        <ele>232.8</ele>
        <time>2025-04-30T16:56:05Z</time>
      </trkpt>
      <trkpt lat="45.69403" lon="4.72586">
        <ele>232.8</ele>
        <time>2025-04-30T16:56:06Z</time>
      </trkpt>
      <trkpt lat="45.69403" lon="4.72589">
        <ele>232.8</ele>
        <time>2025-04-30T16:56:07Z</time>
      </trkpt>
      <trkpt lat="45.69403" lon="4.72592">
        <ele>232.8</ele>
        <time>2025-04-30T16:56:08Z</time>
      </trkpt>
      <trkpt lat="45.69401" lon="4.72595">
        <ele>232.8</ele>
        <time>2025-04-30T16:56:09Z</time>
      </trkpt>
      <trkpt lat="45.69401" lon="4.72598">
        <ele>232.6</ele>
        <time>2025-04-30T16:56:10Z</time>
      </trkpt>
      <trkpt lat="45.69401" lon="4.726">
        <ele>232.4</ele>
        <time>2025-04-30T16:56:11Z</time>
      </trkpt>
      <trkpt lat="45.69402" lon="4.72601">
        <ele>232.2</ele>
        <time>2025-04-30T16:56:12Z</time>
      </trkpt>
      <trkpt lat="45.69403" lon="4.72602">
        <ele>232</ele>
        <time>2025-04-30T16:56:13Z</time>
      </trkpt>
      <trkpt lat="45.69404" lon="4.72602">
        <ele>231.8</ele>
        <time>2025-04-30T16:56:14Z</time>
      </trkpt>
      <trkpt lat="45.69404" lon="4.72602">
        <ele>231.6</ele>
        <time>2025-04-30T16:56:15Z</time>
      </trkpt>
      <trkpt lat="45.69404" lon="4.72602">
        <ele>231.4</ele>
        <time>2025-04-30T16:56:16Z</time>
      </trkpt>
      <trkpt lat="45.69404" lon="4.72602">
        <ele>231.2</ele>
        <time>2025-04-30T16:56:17Z</time>
      </trkpt>
      <trkpt lat="45.69404" lon="4.72602">
        <ele>231.2</ele>
        <time>2025-04-30T16:56:18Z</time>
      </trkpt>
      <trkpt lat="45.69404" lon="4.72602">
        <ele>231.2</ele>
        <time>2025-04-30T16:56:19Z</time>
      </trkpt>
      <trkpt lat="45.69404" lon="4.72602">
        <ele>231.2</ele>
        <time>2025-04-30T16:56:20Z</time>
      </trkpt>
      <trkpt lat="45.69404" lon="4.72602">
        <ele>231.2</ele>
        <time>2025-04-30T16:56:21Z</time>
      </trkpt>
      <trkpt lat="45.69404" lon="4.72602">
        <ele>231.2</ele>
        <time>2025-04-30T16:56:22Z</time>
      </trkpt>
      <trkpt lat="45.69404" lon="4.72602">
        <ele>231.4</ele>
        <time>2025-04-30T16:56:23Z</time>
      </trkpt>
      <trkpt lat="45.69404" lon="4.72602">
        <ele>231.4</ele>
        <time>2025-04-30T16:56:24Z</time>
      </trkpt>
      <trkpt lat="45.69404" lon="4.72602">
        <ele>231.4</ele>
        <time>2025-04-30T16:56:25Z</time>
      </trkpt>
      <trkpt lat="45.69404" lon="4.72602">
        <ele>231.4</ele>
        <time>2025-04-30T16:56:26Z</time>
      </trkpt>
      <trkpt lat="45.69404" lon="4.72602">
        <ele>231.4</ele>
        <time>2025-04-30T16:56:27Z</time>
      </trkpt>
      <trkpt lat="45.69404" lon="4.72602">
        <ele>231.4</ele>
        <time>2025-04-30T16:56:28Z</time>
      </trkpt>
      <trkpt lat="45.69404" lon="4.72602">
        <ele>231.2</ele>
        <time>2025-04-30T16:56:29Z</time>
      </trkpt>
      <trkpt lat="45.69404" lon="4.72602">
        <ele>231</ele>
        <time>2025-04-30T16:56:30Z</time>
      </trkpt>
      <trkpt lat="45.69404" lon="4.72602">
        <ele>231</ele>
        <time>2025-04-30T16:56:31Z</time>
      </trkpt>
      <trkpt lat="45.69404" lon="4.72602">
        <ele>231</ele>
        <time>2025-04-30T16:56:32Z</time>
      </trkpt>
      <trkpt lat="45.69404" lon="4.72602">
        <ele>230.8</ele>
        <time>2025-04-30T16:56:33Z</time>
      </trkpt>
      <trkpt lat="45.69404" lon="4.72602">
        <ele>230.8</ele>
        <time>2025-04-30T16:56:34Z</time>
      </trkpt>
      <trkpt lat="45.69404" lon="4.72602">
        <ele>230.8</ele>
        <time>2025-04-30T16:56:35Z</time>
      </trkpt>
      <trkpt lat="45.69404" lon="4.72602">
        <ele>230.8</ele>
        <time>2025-04-30T16:56:36Z</time>
      </trkpt>
      <trkpt lat="45.69404" lon="4.72602">
        <ele>230.8</ele>
        <time>2025-04-30T16:56:37Z</time>
      </trkpt>
      <trkpt lat="45.69404" lon="4.72602">
        <ele>230.8</ele>
        <time>2025-04-30T16:56:38Z</time>
      </trkpt>
      <trkpt lat="45.69404" lon="4.72602">
        <ele>230.8</ele>
        <time>2025-04-30T16:56:39Z</time>
      </trkpt>
      <trkpt lat="45.69404" lon="4.72602">
        <ele>230.8</ele>
        <time>2025-04-30T16:56:40Z</time>
      </trkpt>
      <trkpt lat="45.69404" lon="4.72602">
        <ele>230.8</ele>
        <time>2025-04-30T16:56:41Z</time>
      </trkpt>
      <trkpt lat="45.69404" lon="4.72602">
        <ele>230.8</ele>
        <time>2025-04-30T16:56:42Z</time>
      </trkpt>
      <trkpt lat="45.69404" lon="4.72602">
        <ele>230.8</ele>
        <time>2025-04-30T16:56:43Z</time>
      </trkpt>
      <trkpt lat="45.69404" lon="4.72602">
        <ele>230.8</ele>
        <time>2025-04-30T16:56:44Z</time>
      </trkpt>
      <trkpt lat="45.69404" lon="4.72602">
        <ele>230.8</ele>
        <time>2025-04-30T16:56:45Z</time>
      </trkpt>
      <trkpt lat="45.69404" lon="4.72602">
        <ele>230.8</ele>
        <time>2025-04-30T16:56:46Z</time>
      </trkpt>
      <trkpt lat="45.69404" lon="4.72602">
        <ele>230.8</ele>
        <time>2025-04-30T16:56:47Z</time>
      </trkpt>
      <trkpt lat="45.69404" lon="4.72602">
        <ele>230.8</ele>
        <time>2025-04-30T16:56:48Z</time>
      </trkpt>
      <trkpt lat="45.69404" lon="4.72602">
        <ele>230.8</ele>
        <time>2025-04-30T16:56:49Z</time>
      </trkpt>
      <trkpt lat="45.69404" lon="4.72602">
        <ele>230.8</ele>
        <time>2025-04-30T16:56:50Z</time>
      </trkpt>
      <trkpt lat="45.69404" lon="4.72602">
        <ele>230.8</ele>
        <time>2025-04-30T16:56:51Z</time>
      </trkpt>
      <trkpt lat="45.69404" lon="4.72602">
        <ele>230.8</ele>
        <time>2025-04-30T16:56:52Z</time>
      </trkpt>
      <trkpt lat="45.69404" lon="4.72602">
        <ele>231</ele>
        <time>2025-04-30T16:56:53Z</time>
      </trkpt>
      <trkpt lat="45.69404" lon="4.72602">
        <ele>231.2</ele>
        <time>2025-04-30T16:56:54Z</time>
      </trkpt>
      <trkpt lat="45.69404" lon="4.72602">
        <ele>231.4</ele>
        <time>2025-04-30T16:56:55Z</time>
      </trkpt>
      <trkpt lat="45.69404" lon="4.72602">
        <ele>231.4</ele>
        <time>2025-04-30T16:56:56Z</time>
      </trkpt>
      <trkpt lat="45.69404" lon="4.72602">
        <ele>231.6</ele>
        <time>2025-04-30T16:56:57Z</time>
      </trkpt>
      <trkpt lat="45.69404" lon="4.72602">
        <ele>231.6</ele>
        <time>2025-04-30T16:56:58Z</time>
      </trkpt>
      <trkpt lat="45.69404" lon="4.72602">
        <ele>231.8</ele>
        <time>2025-04-30T16:56:59Z</time>
      </trkpt>
      <trkpt lat="45.69404" lon="4.72602">
        <ele>232</ele>
        <time>2025-04-30T16:57:00Z</time>
      </trkpt>
      <trkpt lat="45.69404" lon="4.72602">
        <ele>232.2</ele>
        <time>2025-04-30T16:57:01Z</time>
      </trkpt>
      <trkpt lat="45.69404" lon="4.72602">
        <ele>232.2</ele>
        <time>2025-04-30T16:57:02Z</time>
      </trkpt>
      <trkpt lat="45.69404" lon="4.72603">
        <ele>232.4</ele>
        <time>2025-04-30T16:57:03Z</time>
      </trkpt>
      <trkpt lat="45.69404" lon="4.72603">
        <ele>232.6</ele>
        <time>2025-04-30T16:57:04Z</time>
      </trkpt>
      <trkpt lat="45.69404" lon="4.72603">
        <ele>232.6</ele>
        <time>2025-04-30T16:57:05Z</time>
      </trkpt>
      <trkpt lat="45.69404" lon="4.72603">
        <ele>232.8</ele>
        <time>2025-04-30T16:57:06Z</time>
      </trkpt>
      <trkpt lat="45.69405" lon="4.72604">
        <ele>232.8</ele>
        <time>2025-04-30T16:57:07Z</time>
      </trkpt>
      <trkpt lat="45.69405" lon="4.72604">
        <ele>233</ele>
        <time>2025-04-30T16:57:08Z</time>
      </trkpt>
      <trkpt lat="45.69406" lon="4.72605">
        <ele>233</ele>
        <time>2025-04-30T16:57:09Z</time>
      </trkpt>
      <trkpt lat="45.69406" lon="4.72605">
        <ele>233.2</ele>
        <time>2025-04-30T16:57:10Z</time>
      </trkpt>
      <trkpt lat="45.69407" lon="4.72606">
        <ele>233.2</ele>
        <time>2025-04-30T16:57:11Z</time>
      </trkpt>
      <trkpt lat="45.69408" lon="4.72607">
        <ele>233.2</ele>
        <time>2025-04-30T16:57:12Z</time>
      </trkpt>
      <trkpt lat="45.69408" lon="4.72608">
        <ele>233.2</ele>
        <time>2025-04-30T16:57:13Z</time>
      </trkpt>
      <trkpt lat="45.69409" lon="4.72609">
        <ele>233.2</ele>
        <time>2025-04-30T16:57:14Z</time>
      </trkpt>
      <trkpt lat="45.6941" lon="4.7261">
        <ele>233.2</ele>
        <time>2025-04-30T16:57:15Z</time>
      </trkpt>
      <trkpt lat="45.6941" lon="4.7261">
        <ele>233.2</ele>
        <time>2025-04-30T16:57:16Z</time>
      </trkpt>
      <trkpt lat="45.6941" lon="4.7261">
        <ele>233.2</ele>
        <time>2025-04-30T16:57:17Z</time>
      </trkpt>
      <trkpt lat="45.6941" lon="4.7261">
        <ele>233.2</ele>
        <time>2025-04-30T16:57:18Z</time>
      </trkpt>
      <trkpt lat="45.6941" lon="4.7261">
        <ele>233.2</ele>
        <time>2025-04-30T16:57:19Z</time>
      </trkpt>
      <trkpt lat="45.6941" lon="4.7261">
        <ele>233.2</ele>
        <time>2025-04-30T16:57:20Z</time>
      </trkpt>
      <trkpt lat="45.6941" lon="4.7261">
        <ele>233.2</ele>
        <time>2025-04-30T16:57:21Z</time>
      </trkpt>
      <trkpt lat="45.6941" lon="4.7261">
        <ele>233.2</ele>
        <time>2025-04-30T16:57:22Z</time>
      </trkpt>
      <trkpt lat="45.6941" lon="4.7261">
        <ele>233.2</ele>
        <time>2025-04-30T16:57:23Z</time>
      </trkpt>
      <trkpt lat="45.6941" lon="4.7261">
        <ele>233</ele>
        <time>2025-04-30T16:57:24Z</time>
      </trkpt>
      <trkpt lat="45.69411" lon="4.72611">
        <ele>232.8</ele>
        <time>2025-04-30T16:57:25Z</time>
      </trkpt>
      <trkpt lat="45.69411" lon="4.72612">
        <ele>232.6</ele>
        <time>2025-04-30T16:57:26Z</time>
      </trkpt>
      <trkpt lat="45.69412" lon="4.72612">
        <ele>232.6</ele>
        <time>2025-04-30T16:57:27Z</time>
      </trkpt>
      <trkpt lat="45.69412" lon="4.72612">
        <ele>232.4</ele>
        <time>2025-04-30T16:57:28Z</time>
      </trkpt>
      <trkpt lat="45.69412" lon="4.72612">
        <ele>232</ele>
        <time>2025-04-30T16:57:29Z</time>
      </trkpt>
      <trkpt lat="45.69411" lon="4.72613">
        <ele>231.8</ele>
        <time>2025-04-30T16:57:30Z</time>
      </trkpt>
      <trkpt lat="45.69411" lon="4.72614">
        <ele>231.8</ele>
        <time>2025-04-30T16:57:31Z</time>
      </trkpt>
      <trkpt lat="45.69411" lon="4.72615">
        <ele>231.6</ele>
        <time>2025-04-30T16:57:32Z</time>
      </trkpt>
      <trkpt lat="45.6941" lon="4.72615">
        <ele>231.6</ele>
        <time>2025-04-30T16:57:33Z</time>
      </trkpt>
      <trkpt lat="45.6941" lon="4.72615">
        <ele>231.6</ele>
        <time>2025-04-30T16:57:34Z</time>
      </trkpt>
      <trkpt lat="45.6941" lon="4.72615">
        <ele>231.6</ele>
        <time>2025-04-30T16:57:35Z</time>
      </trkpt>
      <trkpt lat="45.6941" lon="4.72615">
        <ele>231.6</ele>
        <time>2025-04-30T16:57:36Z</time>
      </trkpt>
      <trkpt lat="45.6941" lon="4.72615">
        <ele>231.6</ele>
        <time>2025-04-30T16:57:37Z</time>
      </trkpt>
      <trkpt lat="45.6941" lon="4.72615">
        <ele>231.6</ele>
        <time>2025-04-30T16:57:38Z</time>
      </trkpt>
      <trkpt lat="45.69409" lon="4.72617">
        <ele>231.6</ele>
        <time>2025-04-30T16:57:39Z</time>
      </trkpt>
      <trkpt lat="45.69407" lon="4.72618">
        <ele>231.6</ele>
        <time>2025-04-30T16:57:40Z</time>
      </trkpt>
      <trkpt lat="45.69406" lon="4.7262">
        <ele>231.6</ele>
        <time>2025-04-30T16:57:41Z</time>
      </trkpt>
      <trkpt lat="45.69404" lon="4.72621">
        <ele>231.8</ele>
        <time>2025-04-30T16:57:42Z</time>
      </trkpt>
      <trkpt lat="45.69402" lon="4.72623">
        <ele>231.8</ele>
        <time>2025-04-30T16:57:43Z</time>
      </trkpt>
      <trkpt lat="45.694" lon="4.72624">
        <ele>231.6</ele>
        <time>2025-04-30T16:57:44Z</time>
      </trkpt>
      <trkpt lat="45.69396" lon="4.72627">
        <ele>231.6</ele>
        <time>2025-04-30T16:57:45Z</time>
      </trkpt>
      <trkpt lat="45.69394" lon="4.72628">
        <ele>231.6</ele>
        <time>2025-04-30T16:57:46Z</time>
      </trkpt>
      <trkpt lat="45.69392" lon="4.7263">
        <ele>231.6</ele>
        <time>2025-04-30T16:57:47Z</time>
      </trkpt>
      <trkpt lat="45.69389" lon="4.72632">
        <ele>231.6</ele>
        <time>2025-04-30T16:57:48Z</time>
      </trkpt>
      <trkpt lat="45.69386" lon="4.72634">
        <ele>231.6</ele>
        <time>2025-04-30T16:57:49Z</time>
      </trkpt>
      <trkpt lat="45.69384" lon="4.72636">
        <ele>231.6</ele>
        <time>2025-04-30T16:57:50Z</time>
      </trkpt>
      <trkpt lat="45.69381" lon="4.72638">
        <ele>231.8</ele>
        <time>2025-04-30T16:57:51Z</time>
      </trkpt>
      <trkpt lat="45.69378" lon="4.72641">
        <ele>231.8</ele>
        <time>2025-04-30T16:57:52Z</time>
      </trkpt>
      <trkpt lat="45.69375" lon="4.72643">
        <ele>231.8</ele>
        <time>2025-04-30T16:57:53Z</time>
      </trkpt>
      <trkpt lat="45.69372" lon="4.72645">
        <ele>231.8</ele>
        <time>2025-04-30T16:57:54Z</time>
      </trkpt>
      <trkpt lat="45.6937" lon="4.72647">
        <ele>232</ele>
        <time>2025-04-30T16:57:55Z</time>
      </trkpt>
      <trkpt lat="45.69366" lon="4.72649">
        <ele>232</ele>
        <time>2025-04-30T16:57:56Z</time>
      </trkpt>
      <trkpt lat="45.69364" lon="4.72652">
        <ele>232</ele>
        <time>2025-04-30T16:57:57Z</time>
      </trkpt>
      <trkpt lat="45.69361" lon="4.72657">
        <ele>232</ele>
        <time>2025-04-30T16:57:58Z</time>
      </trkpt>
      <trkpt lat="45.69359" lon="4.7266">
        <ele>232.2</ele>
        <time>2025-04-30T16:57:59Z</time>
      </trkpt>
      <trkpt lat="45.69357" lon="4.72662">
        <ele>232.2</ele>
        <time>2025-04-30T16:58:00Z</time>
      </trkpt>
      <trkpt lat="45.69355" lon="4.72663">
        <ele>232.2</ele>
        <time>2025-04-30T16:58:01Z</time>
      </trkpt>
      <trkpt lat="45.69352" lon="4.72667">
        <ele>232.4</ele>
        <time>2025-04-30T16:58:02Z</time>
      </trkpt>
      <trkpt lat="45.69349" lon="4.7267">
        <ele>232.4</ele>
        <time>2025-04-30T16:58:03Z</time>
      </trkpt>
      <trkpt lat="45.69346" lon="4.72672">
        <ele>232.4</ele>
        <time>2025-04-30T16:58:04Z</time>
      </trkpt>
      <trkpt lat="45.69343" lon="4.72677">
        <ele>232.4</ele>
        <time>2025-04-30T16:58:05Z</time>
      </trkpt>
      <trkpt lat="45.6934" lon="4.7268">
        <ele>232.4</ele>
        <time>2025-04-30T16:58:06Z</time>
      </trkpt>
      <trkpt lat="45.69337" lon="4.72683">
        <ele>232.6</ele>
        <time>2025-04-30T16:58:07Z</time>
      </trkpt>
      <trkpt lat="45.69334" lon="4.72685">
        <ele>232.6</ele>
        <time>2025-04-30T16:58:08Z</time>
      </trkpt>
      <trkpt lat="45.69332" lon="4.72688">
        <ele>232.6</ele>
        <time>2025-04-30T16:58:09Z</time>
      </trkpt>
      <trkpt lat="45.69329" lon="4.72691">
        <ele>232.6</ele>
        <time>2025-04-30T16:58:10Z</time>
      </trkpt>
      <trkpt lat="45.69326" lon="4.72694">
        <ele>232.6</ele>
        <time>2025-04-30T16:58:11Z</time>
      </trkpt>
      <trkpt lat="45.69322" lon="4.72696">
        <ele>232.6</ele>
        <time>2025-04-30T16:58:12Z</time>
      </trkpt>
      <trkpt lat="45.69319" lon="4.72701">
        <ele>232.4</ele>
        <time>2025-04-30T16:58:13Z</time>
      </trkpt>
      <trkpt lat="45.69316" lon="4.72702">
        <ele>232.4</ele>
        <time>2025-04-30T16:58:14Z</time>
      </trkpt>
      <trkpt lat="45.69311" lon="4.72703">
        <ele>232.2</ele>
        <time>2025-04-30T16:58:15Z</time>
      </trkpt>
      <trkpt lat="45.69308" lon="4.72704">
        <ele>232.2</ele>
        <time>2025-04-30T16:58:16Z</time>
      </trkpt>
      <trkpt lat="45.69303" lon="4.72707">
        <ele>232.2</ele>
        <time>2025-04-30T16:58:17Z</time>
      </trkpt>
      <trkpt lat="45.69298" lon="4.72708">
        <ele>232</ele>
        <time>2025-04-30T16:58:18Z</time>
      </trkpt>
      <trkpt lat="45.69295" lon="4.7271">
        <ele>232</ele>
        <time>2025-04-30T16:58:19Z</time>
      </trkpt>
      <trkpt lat="45.69292" lon="4.72712">
        <ele>232</ele>
        <time>2025-04-30T16:58:20Z</time>
      </trkpt>
      <trkpt lat="45.69289" lon="4.72714">
        <ele>232</ele>
        <time>2025-04-30T16:58:21Z</time>
      </trkpt>
      <trkpt lat="45.69285" lon="4.72718">
        <ele>232</ele>
        <time>2025-04-30T16:58:22Z</time>
      </trkpt>
      <trkpt lat="45.69283" lon="4.72721">
        <ele>232</ele>
        <time>2025-04-30T16:58:23Z</time>
      </trkpt>
      <trkpt lat="45.6928" lon="4.72725">
        <ele>232</ele>
        <time>2025-04-30T16:58:24Z</time>
      </trkpt>
      <trkpt lat="45.69277" lon="4.72729">
        <ele>232</ele>
        <time>2025-04-30T16:58:25Z</time>
      </trkpt>
      <trkpt lat="45.69275" lon="4.72733">
        <ele>232.2</ele>
        <time>2025-04-30T16:58:26Z</time>
      </trkpt>
      <trkpt lat="45.69272" lon="4.72738">
        <ele>232.2</ele>
        <time>2025-04-30T16:58:27Z</time>
      </trkpt>
      <trkpt lat="45.69268" lon="4.72743">
        <ele>232.4</ele>
        <time>2025-04-30T16:58:28Z</time>
      </trkpt>
      <trkpt lat="45.69264" lon="4.72745">
        <ele>232.4</ele>
        <time>2025-04-30T16:58:29Z</time>
      </trkpt>
      <trkpt lat="45.6926" lon="4.72749">
        <ele>232.4</ele>
        <time>2025-04-30T16:58:30Z</time>
      </trkpt>
      <trkpt lat="45.69256" lon="4.72754">
        <ele>232.4</ele>
        <time>2025-04-30T16:58:31Z</time>
      </trkpt>
      <trkpt lat="45.69253" lon="4.72757">
        <ele>232.4</ele>
        <time>2025-04-30T16:58:32Z</time>
      </trkpt>
      <trkpt lat="45.6925" lon="4.72761">
        <ele>232.4</ele>
        <time>2025-04-30T16:58:33Z</time>
      </trkpt>
      <trkpt lat="45.69248" lon="4.72765">
        <ele>232.6</ele>
        <time>2025-04-30T16:58:34Z</time>
      </trkpt>
      <trkpt lat="45.69244" lon="4.72769">
        <ele>232.6</ele>
        <time>2025-04-30T16:58:35Z</time>
      </trkpt>
      <trkpt lat="45.69241" lon="4.72774">
        <ele>232.6</ele>
        <time>2025-04-30T16:58:36Z</time>
      </trkpt>
      <trkpt lat="45.69237" lon="4.72781">
        <ele>232.6</ele>
        <time>2025-04-30T16:58:37Z</time>
      </trkpt>
      <trkpt lat="45.69234" lon="4.72787">
        <ele>232.6</ele>
        <time>2025-04-30T16:58:38Z</time>
      </trkpt>
      <trkpt lat="45.69231" lon="4.72792">
        <ele>232.6</ele>
        <time>2025-04-30T16:58:39Z</time>
      </trkpt>
      <trkpt lat="45.69228" lon="4.72797">
        <ele>232.6</ele>
        <time>2025-04-30T16:58:40Z</time>
      </trkpt>
      <trkpt lat="45.69226" lon="4.72801">
        <ele>232.6</ele>
        <time>2025-04-30T16:58:41Z</time>
      </trkpt>
      <trkpt lat="45.69224" lon="4.72808">
        <ele>232.6</ele>
        <time>2025-04-30T16:58:42Z</time>
      </trkpt>
      <trkpt lat="45.69222" lon="4.72813">
        <ele>232.8</ele>
        <time>2025-04-30T16:58:43Z</time>
      </trkpt>
      <trkpt lat="45.69219" lon="4.72819">
        <ele>232.8</ele>
        <time>2025-04-30T16:58:44Z</time>
      </trkpt>
      <trkpt lat="45.69215" lon="4.72823">
        <ele>233</ele>
        <time>2025-04-30T16:58:45Z</time>
      </trkpt>
      <trkpt lat="45.69212" lon="4.72826">
        <ele>233.2</ele>
        <time>2025-04-30T16:58:46Z</time>
      </trkpt>
      <trkpt lat="45.6921" lon="4.72831">
        <ele>233.2</ele>
        <time>2025-04-30T16:58:47Z</time>
      </trkpt>
      <trkpt lat="45.69207" lon="4.72834">
        <ele>233.2</ele>
        <time>2025-04-30T16:58:48Z</time>
      </trkpt>
      <trkpt lat="45.69206" lon="4.72839">
        <ele>233.2</ele>
        <time>2025-04-30T16:58:49Z</time>
      </trkpt>
      <trkpt lat="45.69204" lon="4.72843">
        <ele>233.2</ele>
        <time>2025-04-30T16:58:50Z</time>
      </trkpt>
      <trkpt lat="45.69202" lon="4.72846">
        <ele>233.2</ele>
        <time>2025-04-30T16:58:51Z</time>
      </trkpt>
      <trkpt lat="45.692" lon="4.7285">
        <ele>233.2</ele>
        <time>2025-04-30T16:58:52Z</time>
      </trkpt>
      <trkpt lat="45.69197" lon="4.72855">
        <ele>233.2</ele>
        <time>2025-04-30T16:58:53Z</time>
      </trkpt>
      <trkpt lat="45.69195" lon="4.72859">
        <ele>233</ele>
        <time>2025-04-30T16:58:54Z</time>
      </trkpt>
      <trkpt lat="45.69192" lon="4.72864">
        <ele>233</ele>
        <time>2025-04-30T16:58:55Z</time>
      </trkpt>
      <trkpt lat="45.69189" lon="4.72868">
        <ele>233</ele>
        <time>2025-04-30T16:58:56Z</time>
      </trkpt>
      <trkpt lat="45.69184" lon="4.72872">
        <ele>232.8</ele>
        <time>2025-04-30T16:58:57Z</time>
      </trkpt>
      <trkpt lat="45.6918" lon="4.72874">
        <ele>232.6</ele>
        <time>2025-04-30T16:58:58Z</time>
      </trkpt>
      <trkpt lat="45.69176" lon="4.72877">
        <ele>232.6</ele>
        <time>2025-04-30T16:58:59Z</time>
      </trkpt>
      <trkpt lat="45.69173" lon="4.7288">
        <ele>232.6</ele>
        <time>2025-04-30T16:59:00Z</time>
      </trkpt>
      <trkpt lat="45.69169" lon="4.72886">
        <ele>232.6</ele>
        <time>2025-04-30T16:59:01Z</time>
      </trkpt>
      <trkpt lat="45.69166" lon="4.72892">
        <ele>232.4</ele>
        <time>2025-04-30T16:59:02Z</time>
      </trkpt>
      <trkpt lat="45.69163" lon="4.72896">
        <ele>232.4</ele>
        <time>2025-04-30T16:59:03Z</time>
      </trkpt>
      <trkpt lat="45.6916" lon="4.72903">
        <ele>232.4</ele>
        <time>2025-04-30T16:59:04Z</time>
      </trkpt>
      <trkpt lat="45.69157" lon="4.7291">
        <ele>232.2</ele>
        <time>2025-04-30T16:59:05Z</time>
      </trkpt>
      <trkpt lat="45.69156" lon="4.72915">
        <ele>232.4</ele>
        <time>2025-04-30T16:59:06Z</time>
      </trkpt>
      <trkpt lat="45.69154" lon="4.72921">
        <ele>232.4</ele>
        <time>2025-04-30T16:59:07Z</time>
      </trkpt>
      <trkpt lat="45.69152" lon="4.72928">
        <ele>232.4</ele>
        <time>2025-04-30T16:59:08Z</time>
      </trkpt>
      <trkpt lat="45.69151" lon="4.72934">
        <ele>232.4</ele>
        <time>2025-04-30T16:59:09Z</time>
      </trkpt>
      <trkpt lat="45.6915" lon="4.72941">
        <ele>232.4</ele>
        <time>2025-04-30T16:59:10Z</time>
      </trkpt>
      <trkpt lat="45.69149" lon="4.72946">
        <ele>232.6</ele>
        <time>2025-04-30T16:59:11Z</time>
      </trkpt>
      <trkpt lat="45.69148" lon="4.72951">
        <ele>232.6</ele>
        <time>2025-04-30T16:59:12Z</time>
      </trkpt>
      <trkpt lat="45.69146" lon="4.72957">
        <ele>232.8</ele>
        <time>2025-04-30T16:59:13Z</time>
      </trkpt>
      <trkpt lat="45.69145" lon="4.72963">
        <ele>233</ele>
        <time>2025-04-30T16:59:14Z</time>
      </trkpt>
      <trkpt lat="45.69143" lon="4.72967">
        <ele>233.2</ele>
        <time>2025-04-30T16:59:15Z</time>
      </trkpt>
      <trkpt lat="45.69143" lon="4.72972">
        <ele>233.6</ele>
        <time>2025-04-30T16:59:16Z</time>
      </trkpt>
      <trkpt lat="45.69142" lon="4.72978">
        <ele>233.6</ele>
        <time>2025-04-30T16:59:17Z</time>
      </trkpt>
      <trkpt lat="45.6914" lon="4.72985">
        <ele>233.6</ele>
        <time>2025-04-30T16:59:18Z</time>
      </trkpt>
      <trkpt lat="45.69138" lon="4.7299">
        <ele>233.8</ele>
        <time>2025-04-30T16:59:19Z</time>
      </trkpt>
      <trkpt lat="45.69136" lon="4.72996">
        <ele>233.8</ele>
        <time>2025-04-30T16:59:20Z</time>
      </trkpt>
      <trkpt lat="45.69135" lon="4.73002">
        <ele>233.8</ele>
        <time>2025-04-30T16:59:21Z</time>
      </trkpt>
      <trkpt lat="45.69133" lon="4.73009">
        <ele>233.8</ele>
        <time>2025-04-30T16:59:22Z</time>
      </trkpt>
      <trkpt lat="45.6913" lon="4.73015">
        <ele>233.6</ele>
        <time>2025-04-30T16:59:23Z</time>
      </trkpt>
      <trkpt lat="45.69128" lon="4.7302">
        <ele>233.6</ele>
        <time>2025-04-30T16:59:24Z</time>
      </trkpt>
      <trkpt lat="45.69125" lon="4.73026">
        <ele>233.6</ele>
        <time>2025-04-30T16:59:25Z</time>
      </trkpt>
      <trkpt lat="45.69124" lon="4.73032">
        <ele>233.6</ele>
        <time>2025-04-30T16:59:26Z</time>
      </trkpt>
      <trkpt lat="45.69123" lon="4.73038">
        <ele>233.6</ele>
        <time>2025-04-30T16:59:27Z</time>
      </trkpt>
      <trkpt lat="45.69121" lon="4.73044">
        <ele>233.6</ele>
        <time>2025-04-30T16:59:28Z</time>
      </trkpt>
      <trkpt lat="45.69118" lon="4.73051">
        <ele>233.2</ele>
        <time>2025-04-30T16:59:29Z</time>
      </trkpt>
      <trkpt lat="45.69116" lon="4.73057">
        <ele>233</ele>
        <time>2025-04-30T16:59:30Z</time>
      </trkpt>
      <trkpt lat="45.69116" lon="4.73066">
        <ele>232.8</ele>
        <time>2025-04-30T16:59:31Z</time>
      </trkpt>
      <trkpt lat="45.69116" lon="4.73074">
        <ele>232.8</ele>
        <time>2025-04-30T16:59:32Z</time>
      </trkpt>
      <trkpt lat="45.69117" lon="4.73082">
        <ele>232.6</ele>
        <time>2025-04-30T16:59:33Z</time>
      </trkpt>
      <trkpt lat="45.69119" lon="4.73087">
        <ele>232.6</ele>
        <time>2025-04-30T16:59:34Z</time>
      </trkpt>
      <trkpt lat="45.69122" lon="4.73093">
        <ele>232.4</ele>
        <time>2025-04-30T16:59:35Z</time>
      </trkpt>
      <trkpt lat="45.69125" lon="4.73099">
        <ele>232.4</ele>
        <time>2025-04-30T16:59:36Z</time>
      </trkpt>
      <trkpt lat="45.69127" lon="4.73104">
        <ele>232.6</ele>
        <time>2025-04-30T16:59:37Z</time>
      </trkpt>
      <trkpt lat="45.6913" lon="4.73108">
        <ele>232.6</ele>
        <time>2025-04-30T16:59:38Z</time>
      </trkpt>
      <trkpt lat="45.69133" lon="4.73112">
        <ele>232.6</ele>
        <time>2025-04-30T16:59:39Z</time>
      </trkpt>
      <trkpt lat="45.69137" lon="4.73116">
        <ele>232.6</ele>
        <time>2025-04-30T16:59:40Z</time>
      </trkpt>
      <trkpt lat="45.69139" lon="4.7312">
        <ele>232.6</ele>
        <time>2025-04-30T16:59:41Z</time>
      </trkpt>
      <trkpt lat="45.69142" lon="4.73122">
        <ele>232.8</ele>
        <time>2025-04-30T16:59:42Z</time>
      </trkpt>
      <trkpt lat="45.69145" lon="4.73127">
        <ele>233</ele>
        <time>2025-04-30T16:59:43Z</time>
      </trkpt>
      <trkpt lat="45.69148" lon="4.73129">
        <ele>233</ele>
        <time>2025-04-30T16:59:44Z</time>
      </trkpt>
      <trkpt lat="45.69152" lon="4.73133">
        <ele>233.2</ele>
        <time>2025-04-30T16:59:45Z</time>
      </trkpt>
      <trkpt lat="45.69155" lon="4.73136">
        <ele>233.2</ele>
        <time>2025-04-30T16:59:46Z</time>
      </trkpt>
      <trkpt lat="45.69159" lon="4.73139">
        <ele>233.4</ele>
        <time>2025-04-30T16:59:47Z</time>
      </trkpt>
      <trkpt lat="45.69162" lon="4.73142">
        <ele>233.4</ele>
        <time>2025-04-30T16:59:48Z</time>
      </trkpt>
      <trkpt lat="45.69165" lon="4.73145">
        <ele>233.6</ele>
        <time>2025-04-30T16:59:49Z</time>
      </trkpt>
      <trkpt lat="45.69169" lon="4.73148">
        <ele>234</ele>
        <time>2025-04-30T16:59:50Z</time>
      </trkpt>
      <trkpt lat="45.6917" lon="4.7315">
        <ele>234</ele>
        <time>2025-04-30T16:59:51Z</time>
      </trkpt>
      <trkpt lat="45.69173" lon="4.73153">
        <ele>234.2</ele>
        <time>2025-04-30T16:59:52Z</time>
      </trkpt>
      <trkpt lat="45.69175" lon="4.73154">
        <ele>234.4</ele>
        <time>2025-04-30T16:59:53Z</time>
      </trkpt>
      <trkpt lat="45.69179" lon="4.73155">
        <ele>234.6</ele>
        <time>2025-04-30T16:59:54Z</time>
      </trkpt>
      <trkpt lat="45.69181" lon="4.73157">
        <ele>234.8</ele>
        <time>2025-04-30T16:59:55Z</time>
      </trkpt>
      <trkpt lat="45.69184" lon="4.73158">
        <ele>234.8</ele>
        <time>2025-04-30T16:59:56Z</time>
      </trkpt>
      <trkpt lat="45.69186" lon="4.73159">
        <ele>235</ele>
        <time>2025-04-30T16:59:57Z</time>
      </trkpt>
      <trkpt lat="45.69188" lon="4.7316">
        <ele>235.2</ele>
        <time>2025-04-30T16:59:58Z</time>
      </trkpt>
      <trkpt lat="45.6919" lon="4.7316">
        <ele>235.4</ele>
        <time>2025-04-30T16:59:59Z</time>
      </trkpt>
      <trkpt lat="45.69191" lon="4.73159">
        <ele>235.6</ele>
        <time>2025-04-30T17:00:00Z</time>
      </trkpt>
      <trkpt lat="45.69193" lon="4.73156">
        <ele>235.8</ele>
        <time>2025-04-30T17:00:01Z</time>
      </trkpt>
      <trkpt lat="45.69193" lon="4.73154">
        <ele>236</ele>
        <time>2025-04-30T17:00:02Z</time>
      </trkpt>
      <trkpt lat="45.69192" lon="4.73152">
        <ele>236.2</ele>
        <time>2025-04-30T17:00:03Z</time>
      </trkpt>
      <trkpt lat="45.6919" lon="4.73149">
        <ele>236.6</ele>
        <time>2025-04-30T17:00:04Z</time>
      </trkpt>
      <trkpt lat="45.69189" lon="4.73148">
        <ele>236.8</ele>
        <time>2025-04-30T17:00:05Z</time>
      </trkpt>
      <trkpt lat="45.69188" lon="4.73146">
        <ele>237</ele>
        <time>2025-04-30T17:00:06Z</time>
      </trkpt>
      <trkpt lat="45.69185" lon="4.73143">
        <ele>237</ele>
        <time>2025-04-30T17:00:07Z</time>
      </trkpt>
      <trkpt lat="45.69183" lon="4.7314">
        <ele>237.2</ele>
        <time>2025-04-30T17:00:08Z</time>
      </trkpt>
      <trkpt lat="45.69182" lon="4.73137">
        <ele>237.6</ele>
        <time>2025-04-30T17:00:09Z</time>
      </trkpt>
      <trkpt lat="45.6918" lon="4.73135">
        <ele>237.8</ele>
        <time>2025-04-30T17:00:10Z</time>
      </trkpt>
      <trkpt lat="45.69177" lon="4.73132">
        <ele>238</ele>
        <time>2025-04-30T17:00:11Z</time>
      </trkpt>
      <trkpt lat="45.69175" lon="4.7313">
        <ele>238</ele>
        <time>2025-04-30T17:00:12Z</time>
      </trkpt>
      <trkpt lat="45.69174" lon="4.73127">
        <ele>238.4</ele>
        <time>2025-04-30T17:00:13Z</time>
      </trkpt>
      <trkpt lat="45.69171" lon="4.73123">
        <ele>238.6</ele>
        <time>2025-04-30T17:00:14Z</time>
      </trkpt>
      <trkpt lat="45.69169" lon="4.7312">
        <ele>238.8</ele>
        <time>2025-04-30T17:00:15Z</time>
      </trkpt>
      <trkpt lat="45.69167" lon="4.73116">
        <ele>239.2</ele>
        <time>2025-04-30T17:00:16Z</time>
      </trkpt>
      <trkpt lat="45.69164" lon="4.73111">
        <ele>239.2</ele>
        <time>2025-04-30T17:00:17Z</time>
      </trkpt>
      <trkpt lat="45.69161" lon="4.73107">
        <ele>239.4</ele>
        <time>2025-04-30T17:00:18Z</time>
      </trkpt>
      <trkpt lat="45.69159" lon="4.73104">
        <ele>239.8</ele>
        <time>2025-04-30T17:00:19Z</time>
      </trkpt>
      <trkpt lat="45.69156" lon="4.73101">
        <ele>240.4</ele>
        <time>2025-04-30T17:00:20Z</time>
      </trkpt>
      <trkpt lat="45.69154" lon="4.73097">
        <ele>240.6</ele>
        <time>2025-04-30T17:00:21Z</time>
      </trkpt>
      <trkpt lat="45.69152" lon="4.73093">
        <ele>240.8</ele>
        <time>2025-04-30T17:00:22Z</time>
      </trkpt>
      <trkpt lat="45.6915" lon="4.73087">
        <ele>241.2</ele>
        <time>2025-04-30T17:00:23Z</time>
      </trkpt>
      <trkpt lat="45.69148" lon="4.73082">
        <ele>241.4</ele>
        <time>2025-04-30T17:00:24Z</time>
      </trkpt>
      <trkpt lat="45.69148" lon="4.73077">
        <ele>241.6</ele>
        <time>2025-04-30T17:00:25Z</time>
      </trkpt>
      <trkpt lat="45.69146" lon="4.7307">
        <ele>241.8</ele>
        <time>2025-04-30T17:00:26Z</time>
      </trkpt>
      <trkpt lat="45.69146" lon="4.73064">
        <ele>241.8</ele>
        <time>2025-04-30T17:00:27Z</time>
      </trkpt>
      <trkpt lat="45.69147" lon="4.73058">
        <ele>242.2</ele>
        <time>2025-04-30T17:00:28Z</time>
      </trkpt>
      <trkpt lat="45.69148" lon="4.73052">
        <ele>242.6</ele>
        <time>2025-04-30T17:00:29Z</time>
      </trkpt>
      <trkpt lat="45.6915" lon="4.73046">
        <ele>242.6</ele>
        <time>2025-04-30T17:00:30Z</time>
      </trkpt>
      <trkpt lat="45.69151" lon="4.73041">
        <ele>242.8</ele>
        <time>2025-04-30T17:00:31Z</time>
      </trkpt>
      <trkpt lat="45.69153" lon="4.73037">
        <ele>243</ele>
        <time>2025-04-30T17:00:32Z</time>
      </trkpt>
      <trkpt lat="45.69155" lon="4.73032">
        <ele>243.2</ele>
        <time>2025-04-30T17:00:33Z</time>
      </trkpt>
      <trkpt lat="45.69156" lon="4.73028">
        <ele>243.4</ele>
        <time>2025-04-30T17:00:34Z</time>
      </trkpt>
      <trkpt lat="45.69158" lon="4.73022">
        <ele>243.8</ele>
        <time>2025-04-30T17:00:35Z</time>
      </trkpt>
      <trkpt lat="45.69159" lon="4.73016">
        <ele>244</ele>
        <time>2025-04-30T17:00:36Z</time>
      </trkpt>
      <trkpt lat="45.6916" lon="4.73011">
        <ele>244.2</ele>
        <time>2025-04-30T17:00:37Z</time>
      </trkpt>
      <trkpt lat="45.69161" lon="4.73005">
        <ele>244.2</ele>
        <time>2025-04-30T17:00:38Z</time>
      </trkpt>
      <trkpt lat="45.69162" lon="4.73001">
        <ele>244.6</ele>
        <time>2025-04-30T17:00:39Z</time>
      </trkpt>
      <trkpt lat="45.69163" lon="4.72996">
        <ele>244.6</ele>
        <time>2025-04-30T17:00:40Z</time>
      </trkpt>
      <trkpt lat="45.69165" lon="4.72991">
        <ele>245</ele>
        <time>2025-04-30T17:00:41Z</time>
      </trkpt>
      <trkpt lat="45.69166" lon="4.72985">
        <ele>245.2</ele>
        <time>2025-04-30T17:00:42Z</time>
      </trkpt>
      <trkpt lat="45.69168" lon="4.7298">
        <ele>245.4</ele>
        <time>2025-04-30T17:00:43Z</time>
      </trkpt>
      <trkpt lat="45.69169" lon="4.72975">
        <ele>245.8</ele>
        <time>2025-04-30T17:00:44Z</time>
      </trkpt>
      <trkpt lat="45.6917" lon="4.72969">
        <ele>245.8</ele>
        <time>2025-04-30T17:00:45Z</time>
      </trkpt>
      <trkpt lat="45.69171" lon="4.72964">
        <ele>246.2</ele>
        <time>2025-04-30T17:00:46Z</time>
      </trkpt>
      <trkpt lat="45.69172" lon="4.72959">
        <ele>246.4</ele>
        <time>2025-04-30T17:00:47Z</time>
      </trkpt>
      <trkpt lat="45.69173" lon="4.72954">
        <ele>246.6</ele>
        <time>2025-04-30T17:00:48Z</time>
      </trkpt>
      <trkpt lat="45.69174" lon="4.72948">
        <ele>246.8</ele>
        <time>2025-04-30T17:00:49Z</time>
      </trkpt>
      <trkpt lat="45.69175" lon="4.72943">
        <ele>247.2</ele>
        <time>2025-04-30T17:00:50Z</time>
      </trkpt>
      <trkpt lat="45.69177" lon="4.72938">
        <ele>247.4</ele>
        <time>2025-04-30T17:00:51Z</time>
      </trkpt>
      <trkpt lat="45.69179" lon="4.72934">
        <ele>247.6</ele>
        <time>2025-04-30T17:00:52Z</time>
      </trkpt>
      <trkpt lat="45.69182" lon="4.7293">
        <ele>248.2</ele>
        <time>2025-04-30T17:00:53Z</time>
      </trkpt>
      <trkpt lat="45.69185" lon="4.72926">
        <ele>248.2</ele>
        <time>2025-04-30T17:00:54Z</time>
      </trkpt>
      <trkpt lat="45.69188" lon="4.72924">
        <ele>248.4</ele>
        <time>2025-04-30T17:00:55Z</time>
      </trkpt>
      <trkpt lat="45.69191" lon="4.72922">
        <ele>248.6</ele>
        <time>2025-04-30T17:00:56Z</time>
      </trkpt>
      <trkpt lat="45.69194" lon="4.7292">
        <ele>248.8</ele>
        <time>2025-04-30T17:00:57Z</time>
      </trkpt>
      <trkpt lat="45.69197" lon="4.72918">
        <ele>249</ele>
        <time>2025-04-30T17:00:58Z</time>
      </trkpt>
      <trkpt lat="45.692" lon="4.72917">
        <ele>249.2</ele>
        <time>2025-04-30T17:00:59Z</time>
      </trkpt>
      <trkpt lat="45.69204" lon="4.72915">
        <ele>249.6</ele>
        <time>2025-04-30T17:01:00Z</time>
      </trkpt>
      <trkpt lat="45.69207" lon="4.72913">
        <ele>249.8</ele>
        <time>2025-04-30T17:01:01Z</time>
      </trkpt>
      <trkpt lat="45.6921" lon="4.7291">
        <ele>250</ele>
        <time>2025-04-30T17:01:02Z</time>
      </trkpt>
      <trkpt lat="45.69214" lon="4.72907">
        <ele>250</ele>
        <time>2025-04-30T17:01:03Z</time>
      </trkpt>
      <trkpt lat="45.69216" lon="4.72903">
        <ele>250.2</ele>
        <time>2025-04-30T17:01:04Z</time>
      </trkpt>
      <trkpt lat="45.69219" lon="4.729">
        <ele>250.6</ele>
        <time>2025-04-30T17:01:05Z</time>
      </trkpt>
      <trkpt lat="45.69221" lon="4.72896">
        <ele>250.8</ele>
        <time>2025-04-30T17:01:06Z</time>
      </trkpt>
      <trkpt lat="45.69223" lon="4.72892">
        <ele>251</ele>
        <time>2025-04-30T17:01:07Z</time>
      </trkpt>
      <trkpt lat="45.69226" lon="4.72887">
        <ele>251.2</ele>
        <time>2025-04-30T17:01:08Z</time>
      </trkpt>
      <trkpt lat="45.69229" lon="4.72884">
        <ele>251.4</ele>
        <time>2025-04-30T17:01:09Z</time>
      </trkpt>
      <trkpt lat="45.69231" lon="4.72881">
        <ele>251.6</ele>
        <time>2025-04-30T17:01:10Z</time>
      </trkpt>
      <trkpt lat="45.69234" lon="4.72878">
        <ele>251.8</ele>
        <time>2025-04-30T17:01:11Z</time>
      </trkpt>
      <trkpt lat="45.69237" lon="4.72873">
        <ele>252</ele>
        <time>2025-04-30T17:01:12Z</time>
      </trkpt>
      <trkpt lat="45.6924" lon="4.72869">
        <ele>252</ele>
        <time>2025-04-30T17:01:13Z</time>
      </trkpt>
      <trkpt lat="45.69242" lon="4.72865">
        <ele>252.2</ele>
        <time>2025-04-30T17:01:14Z</time>
      </trkpt>
      <trkpt lat="45.69244" lon="4.72862">
        <ele>252.4</ele>
        <time>2025-04-30T17:01:15Z</time>
      </trkpt>
      <trkpt lat="45.69247" lon="4.72858">
        <ele>252.6</ele>
        <time>2025-04-30T17:01:16Z</time>
      </trkpt>
      <trkpt lat="45.6925" lon="4.72854">
        <ele>253.2</ele>
        <time>2025-04-30T17:01:17Z</time>
      </trkpt>
      <trkpt lat="45.69252" lon="4.72851">
        <ele>253.4</ele>
        <time>2025-04-30T17:01:18Z</time>
      </trkpt>
      <trkpt lat="45.69254" lon="4.72846">
        <ele>253.6</ele>
        <time>2025-04-30T17:01:19Z</time>
      </trkpt>
      <trkpt lat="45.69257" lon="4.72841">
        <ele>253.8</ele>
        <time>2025-04-30T17:01:20Z</time>
      </trkpt>
      <trkpt lat="45.69258" lon="4.72837">
        <ele>254.2</ele>
        <time>2025-04-30T17:01:21Z</time>
      </trkpt>
      <trkpt lat="45.6926" lon="4.72832">
        <ele>254.2</ele>
        <time>2025-04-30T17:01:22Z</time>
      </trkpt>
      <trkpt lat="45.69262" lon="4.72828">
        <ele>254.4</ele>
        <time>2025-04-30T17:01:23Z</time>
      </trkpt>
      <trkpt lat="45.69265" lon="4.72824">
        <ele>254.8</ele>
        <time>2025-04-30T17:01:24Z</time>
      </trkpt>
      <trkpt lat="45.69268" lon="4.7282">
        <ele>255</ele>
        <time>2025-04-30T17:01:25Z</time>
      </trkpt>
      <trkpt lat="45.69271" lon="4.72818">
        <ele>255</ele>
        <time>2025-04-30T17:01:26Z</time>
      </trkpt>
      <trkpt lat="45.69274" lon="4.72817">
        <ele>255.2</ele>
        <time>2025-04-30T17:01:27Z</time>
      </trkpt>
      <trkpt lat="45.69277" lon="4.72818">
        <ele>255.4</ele>
        <time>2025-04-30T17:01:28Z</time>
      </trkpt>
      <trkpt lat="45.69279" lon="4.7282">
        <ele>255.8</ele>
        <time>2025-04-30T17:01:29Z</time>
      </trkpt>
      <trkpt lat="45.6928" lon="4.72825">
        <ele>256</ele>
        <time>2025-04-30T17:01:30Z</time>
      </trkpt>
      <trkpt lat="45.69279" lon="4.72829">
        <ele>256.2</ele>
        <time>2025-04-30T17:01:31Z</time>
      </trkpt>
      <trkpt lat="45.69278" lon="4.72832">
        <ele>256.6</ele>
        <time>2025-04-30T17:01:32Z</time>
      </trkpt>
      <trkpt lat="45.69275" lon="4.72837">
        <ele>256.6</ele>
        <time>2025-04-30T17:01:33Z</time>
      </trkpt>
      <trkpt lat="45.69273" lon="4.72839">
        <ele>256.8</ele>
        <time>2025-04-30T17:01:34Z</time>
      </trkpt>
      <trkpt lat="45.6927" lon="4.72843">
        <ele>256.8</ele>
        <time>2025-04-30T17:01:35Z</time>
      </trkpt>
      <trkpt lat="45.69266" lon="4.72847">
        <ele>256.8</ele>
        <time>2025-04-30T17:01:36Z</time>
      </trkpt>
      <trkpt lat="45.69264" lon="4.7285">
        <ele>256.8</ele>
        <time>2025-04-30T17:01:37Z</time>
      </trkpt>
      <trkpt lat="45.69262" lon="4.72854">
        <ele>257.2</ele>
        <time>2025-04-30T17:01:38Z</time>
      </trkpt>
      <trkpt lat="45.6926" lon="4.72859">
        <ele>257.2</ele>
        <time>2025-04-30T17:01:39Z</time>
      </trkpt>
      <trkpt lat="45.69258" lon="4.72864">
        <ele>257.6</ele>
        <time>2025-04-30T17:01:40Z</time>
      </trkpt>
      <trkpt lat="45.69256" lon="4.72867">
        <ele>258</ele>
        <time>2025-04-30T17:01:41Z</time>
      </trkpt>
      <trkpt lat="45.69255" lon="4.72873">
        <ele>258.2</ele>
        <time>2025-04-30T17:01:42Z</time>
      </trkpt>
      <trkpt lat="45.69254" lon="4.72877">
        <ele>258.4</ele>
        <time>2025-04-30T17:01:43Z</time>
      </trkpt>
      <trkpt lat="45.69253" lon="4.72882">
        <ele>258.6</ele>
        <time>2025-04-30T17:01:44Z</time>
      </trkpt>
      <trkpt lat="45.69251" lon="4.72887">
        <ele>258.8</ele>
        <time>2025-04-30T17:01:45Z</time>
      </trkpt>
      <trkpt lat="45.6925" lon="4.72891">
        <ele>259</ele>
        <time>2025-04-30T17:01:46Z</time>
      </trkpt>
      <trkpt lat="45.69248" lon="4.72895">
        <ele>259.4</ele>
        <time>2025-04-30T17:01:47Z</time>
      </trkpt>
      <trkpt lat="45.69247" lon="4.72899">
        <ele>259.6</ele>
        <time>2025-04-30T17:01:48Z</time>
      </trkpt>
      <trkpt lat="45.69245" lon="4.72903">
        <ele>259.8</ele>
        <time>2025-04-30T17:01:49Z</time>
      </trkpt>
      <trkpt lat="45.69242" lon="4.72907">
        <ele>260.2</ele>
        <time>2025-04-30T17:01:50Z</time>
      </trkpt>
      <trkpt lat="45.6924" lon="4.72911">
        <ele>260.4</ele>
        <time>2025-04-30T17:01:51Z</time>
      </trkpt>
      <trkpt lat="45.69238" lon="4.72914">
        <ele>260.6</ele>
        <time>2025-04-30T17:01:52Z</time>
      </trkpt>
      <trkpt lat="45.69236" lon="4.72919">
        <ele>260.6</ele>
        <time>2025-04-30T17:01:53Z</time>
      </trkpt>
      <trkpt lat="45.69234" lon="4.72923">
        <ele>260.8</ele>
        <time>2025-04-30T17:01:54Z</time>
      </trkpt>
      <trkpt lat="45.69231" lon="4.72927">
        <ele>261.2</ele>
        <time>2025-04-30T17:01:55Z</time>
      </trkpt>
      <trkpt lat="45.69229" lon="4.72931">
        <ele>261.2</ele>
        <time>2025-04-30T17:01:56Z</time>
      </trkpt>
      <trkpt lat="45.69226" lon="4.72934">
        <ele>261.4</ele>
        <time>2025-04-30T17:01:57Z</time>
      </trkpt>
      <trkpt lat="45.69224" lon="4.72938">
        <ele>261.6</ele>
        <time>2025-04-30T17:01:58Z</time>
      </trkpt>
      <trkpt lat="45.69222" lon="4.72941">
        <ele>261.6</ele>
        <time>2025-04-30T17:01:59Z</time>
      </trkpt>
      <trkpt lat="45.6922" lon="4.72945">
        <ele>262</ele>
        <time>2025-04-30T17:02:00Z</time>
      </trkpt>
      <trkpt lat="45.69218" lon="4.72949">
        <ele>262.6</ele>
        <time>2025-04-30T17:02:01Z</time>
      </trkpt>
      <trkpt lat="45.69217" lon="4.72953">
        <ele>262.8</ele>
        <time>2025-04-30T17:02:02Z</time>
      </trkpt>
      <trkpt lat="45.69218" lon="4.72957">
        <ele>263</ele>
        <time>2025-04-30T17:02:03Z</time>
      </trkpt>
      <trkpt lat="45.69219" lon="4.72961">
        <ele>263.2</ele>
        <time>2025-04-30T17:02:04Z</time>
      </trkpt>
      <trkpt lat="45.6922" lon="4.72962">
        <ele>263.6</ele>
        <time>2025-04-30T17:02:05Z</time>
      </trkpt>
      <trkpt lat="45.69223" lon="4.72963">
        <ele>263.8</ele>
        <time>2025-04-30T17:02:06Z</time>
      </trkpt>
      <trkpt lat="45.69225" lon="4.72961">
        <ele>264.4</ele>
        <time>2025-04-30T17:02:07Z</time>
      </trkpt>
      <trkpt lat="45.69227" lon="4.7296">
        <ele>264.8</ele>
        <time>2025-04-30T17:02:08Z</time>
      </trkpt>
      <trkpt lat="45.69229" lon="4.72957">
        <ele>265.2</ele>
        <time>2025-04-30T17:02:09Z</time>
      </trkpt>
      <trkpt lat="45.69232" lon="4.72954">
        <ele>265.4</ele>
        <time>2025-04-30T17:02:10Z</time>
      </trkpt>
      <trkpt lat="45.69233" lon="4.72951">
        <ele>265.6</ele>
        <time>2025-04-30T17:02:11Z</time>
      </trkpt>
      <trkpt lat="45.69236" lon="4.72947">
        <ele>265.6</ele>
        <time>2025-04-30T17:02:12Z</time>
      </trkpt>
      <trkpt lat="45.69238" lon="4.72944">
        <ele>266</ele>
        <time>2025-04-30T17:02:13Z</time>
      </trkpt>
      <trkpt lat="45.69241" lon="4.72939">
        <ele>266.2</ele>
        <time>2025-04-30T17:02:14Z</time>
      </trkpt>
      <trkpt lat="45.69244" lon="4.72936">
        <ele>266.2</ele>
        <time>2025-04-30T17:02:15Z</time>
      </trkpt>
      <trkpt lat="45.69246" lon="4.72932">
        <ele>266.4</ele>
        <time>2025-04-30T17:02:16Z</time>
      </trkpt>
      <trkpt lat="45.69249" lon="4.72929">
        <ele>266.6</ele>
        <time>2025-04-30T17:02:17Z</time>
      </trkpt>
      <trkpt lat="45.69252" lon="4.72926">
        <ele>266.8</ele>
        <time>2025-04-30T17:02:18Z</time>
      </trkpt>
      <trkpt lat="45.69255" lon="4.72922">
        <ele>267.2</ele>
        <time>2025-04-30T17:02:19Z</time>
      </trkpt>
      <trkpt lat="45.69257" lon="4.72919">
        <ele>267.4</ele>
        <time>2025-04-30T17:02:20Z</time>
      </trkpt>
      <trkpt lat="45.6926" lon="4.72915">
        <ele>267.8</ele>
        <time>2025-04-30T17:02:21Z</time>
      </trkpt>
      <trkpt lat="45.69263" lon="4.72911">
        <ele>268</ele>
        <time>2025-04-30T17:02:22Z</time>
      </trkpt>
      <trkpt lat="45.69266" lon="4.72907">
        <ele>268.2</ele>
        <time>2025-04-30T17:02:23Z</time>
      </trkpt>
      <trkpt lat="45.69269" lon="4.72903">
        <ele>268.4</ele>
        <time>2025-04-30T17:02:24Z</time>
      </trkpt>
      <trkpt lat="45.69271" lon="4.72899">
        <ele>268.8</ele>
        <time>2025-04-30T17:02:25Z</time>
      </trkpt>
      <trkpt lat="45.69274" lon="4.72895">
        <ele>268.8</ele>
        <time>2025-04-30T17:02:26Z</time>
      </trkpt>
      <trkpt lat="45.69276" lon="4.72891">
        <ele>269.2</ele>
        <time>2025-04-30T17:02:27Z</time>
      </trkpt>
      <trkpt lat="45.69278" lon="4.72887">
        <ele>269.6</ele>
        <time>2025-04-30T17:02:28Z</time>
      </trkpt>
      <trkpt lat="45.6928" lon="4.72883">
        <ele>269.6</ele>
        <time>2025-04-30T17:02:29Z</time>
      </trkpt>
      <trkpt lat="45.69283" lon="4.72879">
        <ele>270</ele>
        <time>2025-04-30T17:02:30Z</time>
      </trkpt>
      <trkpt lat="45.69285" lon="4.72876">
        <ele>270.4</ele>
        <time>2025-04-30T17:02:31Z</time>
      </trkpt>
      <trkpt lat="45.69287" lon="4.72872">
        <ele>270.4</ele>
        <time>2025-04-30T17:02:32Z</time>
      </trkpt>
      <trkpt lat="45.6929" lon="4.72868">
        <ele>270.8</ele>
        <time>2025-04-30T17:02:33Z</time>
      </trkpt>
      <trkpt lat="45.69292" lon="4.72866">
        <ele>271</ele>
        <time>2025-04-30T17:02:34Z</time>
      </trkpt>
      <trkpt lat="45.69295" lon="4.72865">
        <ele>271.2</ele>
        <time>2025-04-30T17:02:35Z</time>
      </trkpt>
      <trkpt lat="45.69299" lon="4.72865">
        <ele>271.6</ele>
        <time>2025-04-30T17:02:36Z</time>
      </trkpt>
      <trkpt lat="45.69301" lon="4.72866">
        <ele>271.8</ele>
        <time>2025-04-30T17:02:37Z</time>
      </trkpt>
      <trkpt lat="45.69302" lon="4.72868">
        <ele>272</ele>
        <time>2025-04-30T17:02:38Z</time>
      </trkpt>
      <trkpt lat="45.69302" lon="4.72872">
        <ele>272.2</ele>
        <time>2025-04-30T17:02:39Z</time>
      </trkpt>
      <trkpt lat="45.69301" lon="4.72875">
        <ele>272.6</ele>
        <time>2025-04-30T17:02:40Z</time>
      </trkpt>
      <trkpt lat="45.69299" lon="4.72878">
        <ele>272.8</ele>
        <time>2025-04-30T17:02:41Z</time>
      </trkpt>
      <trkpt lat="45.69296" lon="4.72882">
        <ele>272.8</ele>
        <time>2025-04-30T17:02:42Z</time>
      </trkpt>
      <trkpt lat="45.69294" lon="4.72886">
        <ele>273</ele>
        <time>2025-04-30T17:02:43Z</time>
      </trkpt>
      <trkpt lat="45.69291" lon="4.72889">
        <ele>273</ele>
        <time>2025-04-30T17:02:44Z</time>
      </trkpt>
      <trkpt lat="45.69289" lon="4.72892">
        <ele>273</ele>
        <time>2025-04-30T17:02:45Z</time>
      </trkpt>
      <trkpt lat="45.69286" lon="4.72896">
        <ele>273.2</ele>
        <time>2025-04-30T17:02:46Z</time>
      </trkpt>
      <trkpt lat="45.69285" lon="4.72899">
        <ele>273.4</ele>
        <time>2025-04-30T17:02:47Z</time>
      </trkpt>
      <trkpt lat="45.69284" lon="4.72903">
        <ele>273.4</ele>
        <time>2025-04-30T17:02:48Z</time>
      </trkpt>
      <trkpt lat="45.69284" lon="4.72907">
        <ele>273.6</ele>
        <time>2025-04-30T17:02:49Z</time>
      </trkpt>
      <trkpt lat="45.69285" lon="4.72911">
        <ele>274</ele>
        <time>2025-04-30T17:02:50Z</time>
      </trkpt>
      <trkpt lat="45.69287" lon="4.72914">
        <ele>274.4</ele>
        <time>2025-04-30T17:02:51Z</time>
      </trkpt>
      <trkpt lat="45.6929" lon="4.72915">
        <ele>274.6</ele>
        <time>2025-04-30T17:02:52Z</time>
      </trkpt>
      <trkpt lat="45.69293" lon="4.72915">
        <ele>274.8</ele>
        <time>2025-04-30T17:02:53Z</time>
      </trkpt>
      <trkpt lat="45.69296" lon="4.72914">
        <ele>275.4</ele>
        <time>2025-04-30T17:02:54Z</time>
      </trkpt>
      <trkpt lat="45.693" lon="4.72913">
        <ele>275.6</ele>
        <time>2025-04-30T17:02:55Z</time>
      </trkpt>
      <trkpt lat="45.69303" lon="4.72913">
        <ele>275.8</ele>
        <time>2025-04-30T17:02:56Z</time>
      </trkpt>
      <trkpt lat="45.69306" lon="4.72912">
        <ele>276</ele>
        <time>2025-04-30T17:02:57Z</time>
      </trkpt>
      <trkpt lat="45.69309" lon="4.72912">
        <ele>276.4</ele>
        <time>2025-04-30T17:02:58Z</time>
      </trkpt>
      <trkpt lat="45.69312" lon="4.72911">
        <ele>276.8</ele>
        <time>2025-04-30T17:02:59Z</time>
      </trkpt>
      <trkpt lat="45.69315" lon="4.72912">
        <ele>277</ele>
        <time>2025-04-30T17:03:00Z</time>
      </trkpt>
      <trkpt lat="45.69318" lon="4.72912">
        <ele>277.4</ele>
        <time>2025-04-30T17:03:01Z</time>
      </trkpt>
      <trkpt lat="45.69321" lon="4.72913">
        <ele>277.8</ele>
        <time>2025-04-30T17:03:02Z</time>
      </trkpt>
      <trkpt lat="45.69324" lon="4.72914">
        <ele>278.2</ele>
        <time>2025-04-30T17:03:03Z</time>
      </trkpt>
      <trkpt lat="45.69327" lon="4.72914">
        <ele>278.6</ele>
        <time>2025-04-30T17:03:04Z</time>
      </trkpt>
      <trkpt lat="45.69331" lon="4.72915">
        <ele>279</ele>
        <time>2025-04-30T17:03:05Z</time>
      </trkpt>
      <trkpt lat="45.69334" lon="4.72916">
        <ele>279.2</ele>
        <time>2025-04-30T17:03:06Z</time>
      </trkpt>
      <trkpt lat="45.69337" lon="4.72917">
        <ele>279.4</ele>
        <time>2025-04-30T17:03:07Z</time>
      </trkpt>
      <trkpt lat="45.6934" lon="4.72919">
        <ele>279.8</ele>
        <time>2025-04-30T17:03:08Z</time>
      </trkpt>
      <trkpt lat="45.69343" lon="4.7292">
        <ele>279.8</ele>
        <time>2025-04-30T17:03:09Z</time>
      </trkpt>
      <trkpt lat="45.69346" lon="4.72922">
        <ele>280</ele>
        <time>2025-04-30T17:03:10Z</time>
      </trkpt>
      <trkpt lat="45.69349" lon="4.72922">
        <ele>280.2</ele>
        <time>2025-04-30T17:03:11Z</time>
      </trkpt>
      <trkpt lat="45.69352" lon="4.72923">
        <ele>280.4</ele>
        <time>2025-04-30T17:03:12Z</time>
      </trkpt>
      <trkpt lat="45.69355" lon="4.72923">
        <ele>280.6</ele>
        <time>2025-04-30T17:03:13Z</time>
      </trkpt>
      <trkpt lat="45.69359" lon="4.72924">
        <ele>280.6</ele>
        <time>2025-04-30T17:03:14Z</time>
      </trkpt>
      <trkpt lat="45.69362" lon="4.72925">
        <ele>280.8</ele>
        <time>2025-04-30T17:03:15Z</time>
      </trkpt>
      <trkpt lat="45.69366" lon="4.72926">
        <ele>281</ele>
        <time>2025-04-30T17:03:16Z</time>
      </trkpt>
      <trkpt lat="45.69369" lon="4.72927">
        <ele>281.2</ele>
        <time>2025-04-30T17:03:17Z</time>
      </trkpt>
      <trkpt lat="45.69373" lon="4.72928">
        <ele>281.4</ele>
        <time>2025-04-30T17:03:18Z</time>
      </trkpt>
      <trkpt lat="45.69376" lon="4.7293">
        <ele>281.6</ele>
        <time>2025-04-30T17:03:19Z</time>
      </trkpt>
      <trkpt lat="45.6938" lon="4.72931">
        <ele>281.8</ele>
        <time>2025-04-30T17:03:20Z</time>
      </trkpt>
      <trkpt lat="45.69383" lon="4.72932">
        <ele>282.2</ele>
        <time>2025-04-30T17:03:21Z</time>
      </trkpt>
      <trkpt lat="45.69387" lon="4.72933">
        <ele>282.4</ele>
        <time>2025-04-30T17:03:22Z</time>
      </trkpt>
      <trkpt lat="45.6939" lon="4.72934">
        <ele>282.6</ele>
        <time>2025-04-30T17:03:23Z</time>
      </trkpt>
      <trkpt lat="45.69393" lon="4.72934">
        <ele>282.8</ele>
        <time>2025-04-30T17:03:24Z</time>
      </trkpt>
      <trkpt lat="45.69396" lon="4.72935">
        <ele>283.2</ele>
        <time>2025-04-30T17:03:25Z</time>
      </trkpt>
      <trkpt lat="45.69399" lon="4.72936">
        <ele>283.4</ele>
        <time>2025-04-30T17:03:26Z</time>
      </trkpt>
      <trkpt lat="45.69402" lon="4.72937">
        <ele>283.8</ele>
        <time>2025-04-30T17:03:27Z</time>
      </trkpt>
      <trkpt lat="45.69405" lon="4.72938">
        <ele>284</ele>
        <time>2025-04-30T17:03:28Z</time>
      </trkpt>
      <trkpt lat="45.69409" lon="4.72939">
        <ele>284.4</ele>
        <time>2025-04-30T17:03:29Z</time>
      </trkpt>
      <trkpt lat="45.69411" lon="4.72939">
        <ele>284.8</ele>
        <time>2025-04-30T17:03:30Z</time>
      </trkpt>
      <trkpt lat="45.69415" lon="4.7294">
        <ele>285</ele>
        <time>2025-04-30T17:03:31Z</time>
      </trkpt>
      <trkpt lat="45.69418" lon="4.7294">
        <ele>285.2</ele>
        <time>2025-04-30T17:03:32Z</time>
      </trkpt>
      <trkpt lat="45.69421" lon="4.72941">
        <ele>285.4</ele>
        <time>2025-04-30T17:03:33Z</time>
      </trkpt>
      <trkpt lat="45.69424" lon="4.72942">
        <ele>285.8</ele>
        <time>2025-04-30T17:03:34Z</time>
      </trkpt>
      <trkpt lat="45.69427" lon="4.72943">
        <ele>286</ele>
        <time>2025-04-30T17:03:35Z</time>
      </trkpt>
      <trkpt lat="45.69429" lon="4.72943">
        <ele>286.2</ele>
        <time>2025-04-30T17:03:36Z</time>
      </trkpt>
      <trkpt lat="45.69433" lon="4.72944">
        <ele>286.6</ele>
        <time>2025-04-30T17:03:37Z</time>
      </trkpt>
      <trkpt lat="45.69436" lon="4.72944">
        <ele>286.8</ele>
        <time>2025-04-30T17:03:38Z</time>
      </trkpt>
      <trkpt lat="45.69438" lon="4.72944">
        <ele>287</ele>
        <time>2025-04-30T17:03:39Z</time>
      </trkpt>
      <trkpt lat="45.69442" lon="4.72945">
        <ele>287.2</ele>
        <time>2025-04-30T17:03:40Z</time>
      </trkpt>
      <trkpt lat="45.69445" lon="4.72946">
        <ele>287.4</ele>
        <time>2025-04-30T17:03:41Z</time>
      </trkpt>
      <trkpt lat="45.69448" lon="4.72947">
        <ele>287.6</ele>
        <time>2025-04-30T17:03:42Z</time>
      </trkpt>
      <trkpt lat="45.69451" lon="4.72947">
        <ele>288</ele>
        <time>2025-04-30T17:03:43Z</time>
      </trkpt>
      <trkpt lat="45.69454" lon="4.72948">
        <ele>288.4</ele>
        <time>2025-04-30T17:03:44Z</time>
      </trkpt>
      <trkpt lat="45.69456" lon="4.72948">
        <ele>288.6</ele>
        <time>2025-04-30T17:03:45Z</time>
      </trkpt>
      <trkpt lat="45.69459" lon="4.72949">
        <ele>288.8</ele>
        <time>2025-04-30T17:03:46Z</time>
      </trkpt>
      <trkpt lat="45.69462" lon="4.7295">
        <ele>289</ele>
        <time>2025-04-30T17:03:47Z</time>
      </trkpt>
      <trkpt lat="45.69465" lon="4.72952">
        <ele>289.2</ele>
        <time>2025-04-30T17:03:48Z</time>
      </trkpt>
      <trkpt lat="45.69468" lon="4.72955">
        <ele>289.4</ele>
        <time>2025-04-30T17:03:49Z</time>
      </trkpt>
      <trkpt lat="45.69472" lon="4.72957">
        <ele>289.6</ele>
        <time>2025-04-30T17:03:50Z</time>
      </trkpt>
      <trkpt lat="45.69475" lon="4.7296">
        <ele>289.8</ele>
        <time>2025-04-30T17:03:51Z</time>
      </trkpt>
      <trkpt lat="45.69478" lon="4.72962">
        <ele>289.8</ele>
        <time>2025-04-30T17:03:52Z</time>
      </trkpt>
      <trkpt lat="45.69482" lon="4.72964">
        <ele>289.8</ele>
        <time>2025-04-30T17:03:53Z</time>
      </trkpt>
      <trkpt lat="45.69485" lon="4.72966">
        <ele>290</ele>
        <time>2025-04-30T17:03:54Z</time>
      </trkpt>
      <trkpt lat="45.69488" lon="4.72968">
        <ele>290.2</ele>
        <time>2025-04-30T17:03:55Z</time>
      </trkpt>
      <trkpt lat="45.69492" lon="4.72971">
        <ele>290.4</ele>
        <time>2025-04-30T17:03:56Z</time>
      </trkpt>
      <trkpt lat="45.69495" lon="4.72973">
        <ele>290.6</ele>
        <time>2025-04-30T17:03:57Z</time>
      </trkpt>
      <trkpt lat="45.69498" lon="4.72975">
        <ele>290.6</ele>
        <time>2025-04-30T17:03:58Z</time>
      </trkpt>
      <trkpt lat="45.69502" lon="4.72979">
        <ele>290.8</ele>
        <time>2025-04-30T17:03:59Z</time>
      </trkpt>
      <trkpt lat="45.69505" lon="4.72981">
        <ele>291</ele>
        <time>2025-04-30T17:04:00Z</time>
      </trkpt>
      <trkpt lat="45.69508" lon="4.72983">
        <ele>291</ele>
        <time>2025-04-30T17:04:01Z</time>
      </trkpt>
      <trkpt lat="45.69511" lon="4.72985">
        <ele>291.4</ele>
        <time>2025-04-30T17:04:02Z</time>
      </trkpt>
      <trkpt lat="45.69515" lon="4.72987">
        <ele>291.6</ele>
        <time>2025-04-30T17:04:03Z</time>
      </trkpt>
      <trkpt lat="45.69519" lon="4.72989">
        <ele>291.8</ele>
        <time>2025-04-30T17:04:04Z</time>
      </trkpt>
      <trkpt lat="45.69522" lon="4.72991">
        <ele>292</ele>
        <time>2025-04-30T17:04:05Z</time>
      </trkpt>
      <trkpt lat="45.69526" lon="4.72993">
        <ele>292</ele>
        <time>2025-04-30T17:04:06Z</time>
      </trkpt>
      <trkpt lat="45.6953" lon="4.72995">
        <ele>292.2</ele>
        <time>2025-04-30T17:04:07Z</time>
      </trkpt>
      <trkpt lat="45.69534" lon="4.72998">
        <ele>292.2</ele>
        <time>2025-04-30T17:04:08Z</time>
      </trkpt>
      <trkpt lat="45.69537" lon="4.73">
        <ele>292.2</ele>
        <time>2025-04-30T17:04:09Z</time>
      </trkpt>
      <trkpt lat="45.69541" lon="4.73003">
        <ele>292.4</ele>
        <time>2025-04-30T17:04:10Z</time>
      </trkpt>
      <trkpt lat="45.69545" lon="4.73005">
        <ele>292.4</ele>
        <time>2025-04-30T17:04:11Z</time>
      </trkpt>
      <trkpt lat="45.69548" lon="4.73007">
        <ele>292.6</ele>
        <time>2025-04-30T17:04:12Z</time>
      </trkpt>
      <trkpt lat="45.69552" lon="4.7301">
        <ele>292.8</ele>
        <time>2025-04-30T17:04:13Z</time>
      </trkpt>
      <trkpt lat="45.69556" lon="4.73012">
        <ele>292.8</ele>
        <time>2025-04-30T17:04:14Z</time>
      </trkpt>
      <trkpt lat="45.69559" lon="4.73014">
        <ele>292.8</ele>
        <time>2025-04-30T17:04:15Z</time>
      </trkpt>
      <trkpt lat="45.69563" lon="4.73017">
        <ele>293</ele>
        <time>2025-04-30T17:04:16Z</time>
      </trkpt>
      <trkpt lat="45.69567" lon="4.7302">
        <ele>293</ele>
        <time>2025-04-30T17:04:17Z</time>
      </trkpt>
      <trkpt lat="45.69571" lon="4.73023">
        <ele>293.2</ele>
        <time>2025-04-30T17:04:18Z</time>
      </trkpt>
      <trkpt lat="45.69574" lon="4.73025">
        <ele>293.2</ele>
        <time>2025-04-30T17:04:19Z</time>
      </trkpt>
      <trkpt lat="45.69577" lon="4.73028">
        <ele>293.4</ele>
        <time>2025-04-30T17:04:20Z</time>
      </trkpt>
      <trkpt lat="45.69581" lon="4.73031">
        <ele>293.6</ele>
        <time>2025-04-30T17:04:21Z</time>
      </trkpt>
      <trkpt lat="45.69584" lon="4.73034">
        <ele>293.8</ele>
        <time>2025-04-30T17:04:22Z</time>
      </trkpt>
      <trkpt lat="45.69588" lon="4.73036">
        <ele>294</ele>
        <time>2025-04-30T17:04:23Z</time>
      </trkpt>
      <trkpt lat="45.69591" lon="4.73038">
        <ele>294</ele>
        <time>2025-04-30T17:04:24Z</time>
      </trkpt>
      <trkpt lat="45.69595" lon="4.7304">
        <ele>294.2</ele>
        <time>2025-04-30T17:04:25Z</time>
      </trkpt>
      <trkpt lat="45.69598" lon="4.73042">
        <ele>294.4</ele>
        <time>2025-04-30T17:04:26Z</time>
      </trkpt>
      <trkpt lat="45.69602" lon="4.73044">
        <ele>294.6</ele>
        <time>2025-04-30T17:04:27Z</time>
      </trkpt>
      <trkpt lat="45.69606" lon="4.73047">
        <ele>294.6</ele>
        <time>2025-04-30T17:04:28Z</time>
      </trkpt>
      <trkpt lat="45.6961" lon="4.7305">
        <ele>294.8</ele>
        <time>2025-04-30T17:04:29Z</time>
      </trkpt>
      <trkpt lat="45.69613" lon="4.73052">
        <ele>294.8</ele>
        <time>2025-04-30T17:04:30Z</time>
      </trkpt>
      <trkpt lat="45.69617" lon="4.73055">
        <ele>294.8</ele>
        <time>2025-04-30T17:04:31Z</time>
      </trkpt>
      <trkpt lat="45.6962" lon="4.73057">
        <ele>295</ele>
        <time>2025-04-30T17:04:32Z</time>
      </trkpt>
      <trkpt lat="45.69624" lon="4.7306">
        <ele>295</ele>
        <time>2025-04-30T17:04:33Z</time>
      </trkpt>
      <trkpt lat="45.69628" lon="4.73062">
        <ele>295.2</ele>
        <time>2025-04-30T17:04:34Z</time>
      </trkpt>
      <trkpt lat="45.69632" lon="4.73065">
        <ele>295.2</ele>
        <time>2025-04-30T17:04:35Z</time>
      </trkpt>
      <trkpt lat="45.69636" lon="4.73067">
        <ele>295.4</ele>
        <time>2025-04-30T17:04:36Z</time>
      </trkpt>
      <trkpt lat="45.6964" lon="4.73069">
        <ele>295.4</ele>
        <time>2025-04-30T17:04:37Z</time>
      </trkpt>
      <trkpt lat="45.69644" lon="4.73071">
        <ele>295.4</ele>
        <time>2025-04-30T17:04:38Z</time>
      </trkpt>
      <trkpt lat="45.69648" lon="4.73073">
        <ele>295.4</ele>
        <time>2025-04-30T17:04:39Z</time>
      </trkpt>
      <trkpt lat="45.69653" lon="4.73076">
        <ele>295.4</ele>
        <time>2025-04-30T17:04:40Z</time>
      </trkpt>
      <trkpt lat="45.69658" lon="4.73078">
        <ele>295.4</ele>
        <time>2025-04-30T17:04:41Z</time>
      </trkpt>
      <trkpt lat="45.69662" lon="4.7308">
        <ele>295.4</ele>
        <time>2025-04-30T17:04:42Z</time>
      </trkpt>
      <trkpt lat="45.69666" lon="4.73082">
        <ele>295.4</ele>
        <time>2025-04-30T17:04:43Z</time>
      </trkpt>
      <trkpt lat="45.69671" lon="4.73084">
        <ele>295.4</ele>
        <time>2025-04-30T17:04:44Z</time>
      </trkpt>
      <trkpt lat="45.69676" lon="4.73086">
        <ele>295.6</ele>
        <time>2025-04-30T17:04:45Z</time>
      </trkpt>
      <trkpt lat="45.69681" lon="4.73088">
        <ele>295.6</ele>
        <time>2025-04-30T17:04:46Z</time>
      </trkpt>
      <trkpt lat="45.69686" lon="4.73091">
        <ele>295.6</ele>
        <time>2025-04-30T17:04:47Z</time>
      </trkpt>
      <trkpt lat="45.6969" lon="4.73092">
        <ele>295.8</ele>
        <time>2025-04-30T17:04:48Z</time>
      </trkpt>
      <trkpt lat="45.69695" lon="4.73094">
        <ele>295.8</ele>
        <time>2025-04-30T17:04:49Z</time>
      </trkpt>
      <trkpt lat="45.69701" lon="4.73096">
        <ele>295.8</ele>
        <time>2025-04-30T17:04:50Z</time>
      </trkpt>
      <trkpt lat="45.69704" lon="4.73097">
        <ele>295.8</ele>
        <time>2025-04-30T17:04:51Z</time>
      </trkpt>
      <trkpt lat="45.69709" lon="4.73099">
        <ele>295.8</ele>
        <time>2025-04-30T17:04:52Z</time>
      </trkpt>
      <trkpt lat="45.69714" lon="4.731">
        <ele>295.8</ele>
        <time>2025-04-30T17:04:53Z</time>
      </trkpt>
      <trkpt lat="45.69719" lon="4.73101">
        <ele>295.8</ele>
        <time>2025-04-30T17:04:54Z</time>
      </trkpt>
      <trkpt lat="45.69723" lon="4.73103">
        <ele>295.8</ele>
        <time>2025-04-30T17:04:55Z</time>
      </trkpt>
      <trkpt lat="45.69729" lon="4.73105">
        <ele>295.8</ele>
        <time>2025-04-30T17:04:56Z</time>
      </trkpt>
      <trkpt lat="45.69733" lon="4.73106">
        <ele>296</ele>
        <time>2025-04-30T17:04:57Z</time>
      </trkpt>
      <trkpt lat="45.69738" lon="4.73108">
        <ele>296</ele>
        <time>2025-04-30T17:04:58Z</time>
      </trkpt>
      <trkpt lat="45.69742" lon="4.73109">
        <ele>296</ele>
        <time>2025-04-30T17:04:59Z</time>
      </trkpt>
      <trkpt lat="45.69747" lon="4.7311">
        <ele>296.2</ele>
        <time>2025-04-30T17:05:00Z</time>
      </trkpt>
      <trkpt lat="45.6975" lon="4.7311">
        <ele>296.4</ele>
        <time>2025-04-30T17:05:01Z</time>
      </trkpt>
      <trkpt lat="45.69755" lon="4.73111">
        <ele>296.6</ele>
        <time>2025-04-30T17:05:02Z</time>
      </trkpt>
      <trkpt lat="45.6976" lon="4.73113">
        <ele>296.8</ele>
        <time>2025-04-30T17:05:03Z</time>
      </trkpt>
      <trkpt lat="45.69764" lon="4.73113">
        <ele>297</ele>
        <time>2025-04-30T17:05:04Z</time>
      </trkpt>
      <trkpt lat="45.69769" lon="4.73114">
        <ele>297</ele>
        <time>2025-04-30T17:05:05Z</time>
      </trkpt>
      <trkpt lat="45.69774" lon="4.73115">
        <ele>297.4</ele>
        <time>2025-04-30T17:05:06Z</time>
      </trkpt>
      <trkpt lat="45.69778" lon="4.73115">
        <ele>297.6</ele>
        <time>2025-04-30T17:05:07Z</time>
      </trkpt>
      <trkpt lat="45.69783" lon="4.73116">
        <ele>298</ele>
        <time>2025-04-30T17:05:08Z</time>
      </trkpt>
      <trkpt lat="45.69787" lon="4.73116">
        <ele>298.2</ele>
        <time>2025-04-30T17:05:09Z</time>
      </trkpt>
      <trkpt lat="45.69791" lon="4.73117">
        <ele>298.6</ele>
        <time>2025-04-30T17:05:10Z</time>
      </trkpt>
      <trkpt lat="45.69795" lon="4.73117">
        <ele>298.8</ele>
        <time>2025-04-30T17:05:11Z</time>
      </trkpt>
      <trkpt lat="45.698" lon="4.73118">
        <ele>299</ele>
        <time>2025-04-30T17:05:12Z</time>
      </trkpt>
      <trkpt lat="45.69804" lon="4.73119">
        <ele>299.4</ele>
        <time>2025-04-30T17:05:13Z</time>
      </trkpt>
      <trkpt lat="45.69808" lon="4.73121">
        <ele>299.8</ele>
        <time>2025-04-30T17:05:14Z</time>
      </trkpt>
      <trkpt lat="45.69812" lon="4.73124">
        <ele>300</ele>
        <time>2025-04-30T17:05:15Z</time>
      </trkpt>
      <trkpt lat="45.69816" lon="4.73126">
        <ele>300.4</ele>
        <time>2025-04-30T17:05:16Z</time>
      </trkpt>
      <trkpt lat="45.69821" lon="4.73128">
        <ele>300.4</ele>
        <time>2025-04-30T17:05:17Z</time>
      </trkpt>
      <trkpt lat="45.69825" lon="4.73131">
        <ele>300.4</ele>
        <time>2025-04-30T17:05:18Z</time>
      </trkpt>
      <trkpt lat="45.69829" lon="4.73133">
        <ele>300.6</ele>
        <time>2025-04-30T17:05:19Z</time>
      </trkpt>
      <trkpt lat="45.69834" lon="4.73137">
        <ele>300.6</ele>
        <time>2025-04-30T17:05:20Z</time>
      </trkpt>
      <trkpt lat="45.69838" lon="4.7314">
        <ele>300.6</ele>
        <time>2025-04-30T17:05:21Z</time>
      </trkpt>
      <trkpt lat="45.69842" lon="4.73143">
        <ele>300.6</ele>
        <time>2025-04-30T17:05:22Z</time>
      </trkpt>
      <trkpt lat="45.69846" lon="4.73146">
        <ele>300.8</ele>
        <time>2025-04-30T17:05:23Z</time>
      </trkpt>
      <trkpt lat="45.6985" lon="4.73149">
        <ele>300.8</ele>
        <time>2025-04-30T17:05:24Z</time>
      </trkpt>
      <trkpt lat="45.69854" lon="4.73152">
        <ele>300.8</ele>
        <time>2025-04-30T17:05:25Z</time>
      </trkpt>
      <trkpt lat="45.69858" lon="4.73154">
        <ele>301</ele>
        <time>2025-04-30T17:05:26Z</time>
      </trkpt>
      <trkpt lat="45.69862" lon="4.73157">
        <ele>301.2</ele>
        <time>2025-04-30T17:05:27Z</time>
      </trkpt>
      <trkpt lat="45.69867" lon="4.73159">
        <ele>301.4</ele>
        <time>2025-04-30T17:05:28Z</time>
      </trkpt>
      <trkpt lat="45.6987" lon="4.7316">
        <ele>301.8</ele>
        <time>2025-04-30T17:05:29Z</time>
      </trkpt>
      <trkpt lat="45.69875" lon="4.73162">
        <ele>302</ele>
        <time>2025-04-30T17:05:30Z</time>
      </trkpt>
      <trkpt lat="45.69878" lon="4.73163">
        <ele>302.2</ele>
        <time>2025-04-30T17:05:31Z</time>
      </trkpt>
      <trkpt lat="45.69882" lon="4.73165">
        <ele>302.4</ele>
        <time>2025-04-30T17:05:32Z</time>
      </trkpt>
      <trkpt lat="45.69887" lon="4.73167">
        <ele>302.4</ele>
        <time>2025-04-30T17:05:33Z</time>
      </trkpt>
      <trkpt lat="45.6989" lon="4.73169">
        <ele>302.4</ele>
        <time>2025-04-30T17:05:34Z</time>
      </trkpt>
      <trkpt lat="45.69894" lon="4.7317">
        <ele>302.6</ele>
        <time>2025-04-30T17:05:35Z</time>
      </trkpt>
      <trkpt lat="45.69898" lon="4.73172">
        <ele>302.8</ele>
        <time>2025-04-30T17:05:36Z</time>
      </trkpt>
      <trkpt lat="45.69902" lon="4.73173">
        <ele>303</ele>
        <time>2025-04-30T17:05:37Z</time>
      </trkpt>
      <trkpt lat="45.69906" lon="4.73174">
        <ele>303.4</ele>
        <time>2025-04-30T17:05:38Z</time>
      </trkpt>
      <trkpt lat="45.6991" lon="4.73176">
        <ele>303.6</ele>
        <time>2025-04-30T17:05:39Z</time>
      </trkpt>
      <trkpt lat="45.69914" lon="4.73178">
        <ele>303.8</ele>
        <time>2025-04-30T17:05:40Z</time>
      </trkpt>
      <trkpt lat="45.69918" lon="4.7318">
        <ele>304</ele>
        <time>2025-04-30T17:05:41Z</time>
      </trkpt>
      <trkpt lat="45.69922" lon="4.73181">
        <ele>304.2</ele>
        <time>2025-04-30T17:05:42Z</time>
      </trkpt>
      <trkpt lat="45.69927" lon="4.73183">
        <ele>304.2</ele>
        <time>2025-04-30T17:05:43Z</time>
      </trkpt>
      <trkpt lat="45.69931" lon="4.73185">
        <ele>304.2</ele>
        <time>2025-04-30T17:05:44Z</time>
      </trkpt>
      <trkpt lat="45.69936" lon="4.73187">
        <ele>304.2</ele>
        <time>2025-04-30T17:05:45Z</time>
      </trkpt>
      <trkpt lat="45.6994" lon="4.73189">
        <ele>304</ele>
        <time>2025-04-30T17:05:46Z</time>
      </trkpt>
      <trkpt lat="45.69945" lon="4.73191">
        <ele>303.8</ele>
        <time>2025-04-30T17:05:47Z</time>
      </trkpt>
      <trkpt lat="45.6995" lon="4.73194">
        <ele>303.8</ele>
        <time>2025-04-30T17:05:48Z</time>
      </trkpt>
      <trkpt lat="45.69954" lon="4.73196">
        <ele>303.8</ele>
        <time>2025-04-30T17:05:49Z</time>
      </trkpt>
      <trkpt lat="45.69959" lon="4.73199">
        <ele>303.8</ele>
        <time>2025-04-30T17:05:50Z</time>
      </trkpt>
      <trkpt lat="45.69964" lon="4.73202">
        <ele>303.8</ele>
        <time>2025-04-30T17:05:51Z</time>
      </trkpt>
      <trkpt lat="45.69969" lon="4.73206">
        <ele>303.8</ele>
        <time>2025-04-30T17:05:52Z</time>
      </trkpt>
      <trkpt lat="45.69973" lon="4.73209">
        <ele>303.8</ele>
        <time>2025-04-30T17:05:53Z</time>
      </trkpt>
      <trkpt lat="45.69978" lon="4.73213">
        <ele>303.8</ele>
        <time>2025-04-30T17:05:54Z</time>
      </trkpt>
      <trkpt lat="45.69983" lon="4.73218">
        <ele>303.8</ele>
        <time>2025-04-30T17:05:55Z</time>
      </trkpt>
      <trkpt lat="45.69987" lon="4.73221">
        <ele>303.6</ele>
        <time>2025-04-30T17:05:56Z</time>
      </trkpt>
      <trkpt lat="45.69991" lon="4.73226">
        <ele>303.6</ele>
        <time>2025-04-30T17:05:57Z</time>
      </trkpt>
      <trkpt lat="45.69995" lon="4.7323">
        <ele>303.6</ele>
        <time>2025-04-30T17:05:58Z</time>
      </trkpt>
      <trkpt lat="45.69999" lon="4.73235">
        <ele>303.6</ele>
        <time>2025-04-30T17:05:59Z</time>
      </trkpt>
      <trkpt lat="45.70003" lon="4.73239">
        <ele>303.6</ele>
        <time>2025-04-30T17:06:00Z</time>
      </trkpt>
      <trkpt lat="45.70007" lon="4.73244">
        <ele>303.6</ele>
        <time>2025-04-30T17:06:01Z</time>
      </trkpt>
      <trkpt lat="45.70011" lon="4.73248">
        <ele>303.8</ele>
        <time>2025-04-30T17:06:02Z</time>
      </trkpt>
      <trkpt lat="45.70015" lon="4.73252">
        <ele>303.8</ele>
        <time>2025-04-30T17:06:03Z</time>
      </trkpt>
      <trkpt lat="45.70018" lon="4.73255">
        <ele>304.2</ele>
        <time>2025-04-30T17:06:04Z</time>
      </trkpt>
      <trkpt lat="45.70022" lon="4.7326">
        <ele>304.4</ele>
        <time>2025-04-30T17:06:05Z</time>
      </trkpt>
      <trkpt lat="45.70024" lon="4.73263">
        <ele>304.6</ele>
        <time>2025-04-30T17:06:06Z</time>
      </trkpt>
      <trkpt lat="45.70027" lon="4.73267">
        <ele>304.8</ele>
        <time>2025-04-30T17:06:07Z</time>
      </trkpt>
      <trkpt lat="45.70032" lon="4.73271">
        <ele>305</ele>
        <time>2025-04-30T17:06:08Z</time>
      </trkpt>
      <trkpt lat="45.70035" lon="4.73275">
        <ele>305.2</ele>
        <time>2025-04-30T17:06:09Z</time>
      </trkpt>
      <trkpt lat="45.70039" lon="4.7328">
        <ele>305.2</ele>
        <time>2025-04-30T17:06:10Z</time>
      </trkpt>
      <trkpt lat="45.70043" lon="4.73284">
        <ele>305.2</ele>
        <time>2025-04-30T17:06:11Z</time>
      </trkpt>
      <trkpt lat="45.70046" lon="4.73287">
        <ele>305.2</ele>
        <time>2025-04-30T17:06:12Z</time>
      </trkpt>
      <trkpt lat="45.7005" lon="4.73291">
        <ele>305.2</ele>
        <time>2025-04-30T17:06:13Z</time>
      </trkpt>
      <trkpt lat="45.70054" lon="4.73295">
        <ele>305.2</ele>
        <time>2025-04-30T17:06:14Z</time>
      </trkpt>
      <trkpt lat="45.70057" lon="4.73298">
        <ele>305.2</ele>
        <time>2025-04-30T17:06:15Z</time>
      </trkpt>
      <trkpt lat="45.70061" lon="4.73303">
        <ele>305.2</ele>
        <time>2025-04-30T17:06:16Z</time>
      </trkpt>
      <trkpt lat="45.70064" lon="4.73307">
        <ele>305.2</ele>
        <time>2025-04-30T17:06:17Z</time>
      </trkpt>
      <trkpt lat="45.70067" lon="4.73311">
        <ele>305.2</ele>
        <time>2025-04-30T17:06:18Z</time>
      </trkpt>
      <trkpt lat="45.7007" lon="4.73315">
        <ele>305.2</ele>
        <time>2025-04-30T17:06:19Z</time>
      </trkpt>
      <trkpt lat="45.70073" lon="4.73318">
        <ele>305.2</ele>
        <time>2025-04-30T17:06:20Z</time>
      </trkpt>
      <trkpt lat="45.70075" lon="4.73322">
        <ele>305.2</ele>
        <time>2025-04-30T17:06:21Z</time>
      </trkpt>
      <trkpt lat="45.70077" lon="4.73326">
        <ele>305.4</ele>
        <time>2025-04-30T17:06:22Z</time>
      </trkpt>
      <trkpt lat="45.7008" lon="4.73329">
        <ele>305.6</ele>
        <time>2025-04-30T17:06:23Z</time>
      </trkpt>
      <trkpt lat="45.70083" lon="4.73333">
        <ele>305.8</ele>
        <time>2025-04-30T17:06:24Z</time>
      </trkpt>
      <trkpt lat="45.70086" lon="4.73339">
        <ele>305.8</ele>
        <time>2025-04-30T17:06:25Z</time>
      </trkpt>
      <trkpt lat="45.70089" lon="4.73343">
        <ele>306</ele>
        <time>2025-04-30T17:06:26Z</time>
      </trkpt>
      <trkpt lat="45.70092" lon="4.73347">
        <ele>306</ele>
        <time>2025-04-30T17:06:27Z</time>
      </trkpt>
      <trkpt lat="45.70096" lon="4.73351">
        <ele>306</ele>
        <time>2025-04-30T17:06:28Z</time>
      </trkpt>
      <trkpt lat="45.701" lon="4.73357">
        <ele>306</ele>
        <time>2025-04-30T17:06:29Z</time>
      </trkpt>
      <trkpt lat="45.70104" lon="4.7336">
        <ele>305.8</ele>
        <time>2025-04-30T17:06:30Z</time>
      </trkpt>
      <trkpt lat="45.70108" lon="4.73365">
        <ele>305.8</ele>
        <time>2025-04-30T17:06:31Z</time>
      </trkpt>
      <trkpt lat="45.70112" lon="4.7337">
        <ele>305.8</ele>
        <time>2025-04-30T17:06:32Z</time>
      </trkpt>
      <trkpt lat="45.70116" lon="4.73376">
        <ele>305.8</ele>
        <time>2025-04-30T17:06:33Z</time>
      </trkpt>
      <trkpt lat="45.7012" lon="4.73381">
        <ele>305.8</ele>
        <time>2025-04-30T17:06:34Z</time>
      </trkpt>
      <trkpt lat="45.70125" lon="4.73387">
        <ele>305.6</ele>
        <time>2025-04-30T17:06:35Z</time>
      </trkpt>
      <trkpt lat="45.70128" lon="4.73392">
        <ele>305.6</ele>
        <time>2025-04-30T17:06:36Z</time>
      </trkpt>
      <trkpt lat="45.70132" lon="4.73398">
        <ele>305.6</ele>
        <time>2025-04-30T17:06:37Z</time>
      </trkpt>
      <trkpt lat="45.70136" lon="4.73404">
        <ele>305.6</ele>
        <time>2025-04-30T17:06:38Z</time>
      </trkpt>
      <trkpt lat="45.7014" lon="4.73411">
        <ele>305.6</ele>
        <time>2025-04-30T17:06:39Z</time>
      </trkpt>
      <trkpt lat="45.70144" lon="4.73415">
        <ele>305.4</ele>
        <time>2025-04-30T17:06:40Z</time>
      </trkpt>
      <trkpt lat="45.70148" lon="4.73421">
        <ele>305.4</ele>
        <time>2025-04-30T17:06:41Z</time>
      </trkpt>
      <trkpt lat="45.70153" lon="4.73427">
        <ele>305.4</ele>
        <time>2025-04-30T17:06:42Z</time>
      </trkpt>
      <trkpt lat="45.70157" lon="4.73431">
        <ele>305.4</ele>
        <time>2025-04-30T17:06:43Z</time>
      </trkpt>
      <trkpt lat="45.70161" lon="4.73436">
        <ele>305.2</ele>
        <time>2025-04-30T17:06:44Z</time>
      </trkpt>
      <trkpt lat="45.70166" lon="4.73441">
        <ele>305</ele>
        <time>2025-04-30T17:06:45Z</time>
      </trkpt>
      <trkpt lat="45.7017" lon="4.73446">
        <ele>305</ele>
        <time>2025-04-30T17:06:46Z</time>
      </trkpt>
      <trkpt lat="45.70175" lon="4.73451">
        <ele>305</ele>
        <time>2025-04-30T17:06:47Z</time>
      </trkpt>
      <trkpt lat="45.70181" lon="4.73457">
        <ele>305</ele>
        <time>2025-04-30T17:06:48Z</time>
      </trkpt>
      <trkpt lat="45.70184" lon="4.73461">
        <ele>305</ele>
        <time>2025-04-30T17:06:49Z</time>
      </trkpt>
      <trkpt lat="45.70189" lon="4.73466">
        <ele>305</ele>
        <time>2025-04-30T17:06:50Z</time>
      </trkpt>
      <trkpt lat="45.70194" lon="4.73472">
        <ele>305.2</ele>
        <time>2025-04-30T17:06:51Z</time>
      </trkpt>
      <trkpt lat="45.70198" lon="4.73475">
        <ele>305.2</ele>
        <time>2025-04-30T17:06:52Z</time>
      </trkpt>
      <trkpt lat="45.70203" lon="4.7348">
        <ele>305.2</ele>
        <time>2025-04-30T17:06:53Z</time>
      </trkpt>
      <trkpt lat="45.70207" lon="4.73485">
        <ele>305.2</ele>
        <time>2025-04-30T17:06:54Z</time>
      </trkpt>
      <trkpt lat="45.70212" lon="4.73489">
        <ele>305.4</ele>
        <time>2025-04-30T17:06:55Z</time>
      </trkpt>
      <trkpt lat="45.70216" lon="4.73494">
        <ele>305.4</ele>
        <time>2025-04-30T17:06:56Z</time>
      </trkpt>
      <trkpt lat="45.7022" lon="4.73499">
        <ele>305.4</ele>
        <time>2025-04-30T17:06:57Z</time>
      </trkpt>
      <trkpt lat="45.70226" lon="4.73504">
        <ele>305.6</ele>
        <time>2025-04-30T17:06:58Z</time>
      </trkpt>
      <trkpt lat="45.70229" lon="4.73508">
        <ele>305.6</ele>
        <time>2025-04-30T17:06:59Z</time>
      </trkpt>
      <trkpt lat="45.70233" lon="4.73513">
        <ele>305.8</ele>
        <time>2025-04-30T17:07:00Z</time>
      </trkpt>
      <trkpt lat="45.70237" lon="4.73518">
        <ele>305.8</ele>
        <time>2025-04-30T17:07:01Z</time>
      </trkpt>
      <trkpt lat="45.70241" lon="4.73522">
        <ele>306</ele>
        <time>2025-04-30T17:07:02Z</time>
      </trkpt>
      <trkpt lat="45.70245" lon="4.73527">
        <ele>306</ele>
        <time>2025-04-30T17:07:03Z</time>
      </trkpt>
      <trkpt lat="45.7025" lon="4.73531">
        <ele>306.2</ele>
        <time>2025-04-30T17:07:04Z</time>
      </trkpt>
      <trkpt lat="45.70254" lon="4.73536">
        <ele>306.2</ele>
        <time>2025-04-30T17:07:05Z</time>
      </trkpt>
      <trkpt lat="45.70258" lon="4.7354">
        <ele>306.4</ele>
        <time>2025-04-30T17:07:06Z</time>
      </trkpt>
      <trkpt lat="45.70262" lon="4.73544">
        <ele>306.4</ele>
        <time>2025-04-30T17:07:07Z</time>
      </trkpt>
      <trkpt lat="45.70266" lon="4.73547">
        <ele>306.4</ele>
        <time>2025-04-30T17:07:08Z</time>
      </trkpt>
      <trkpt lat="45.7027" lon="4.7355">
        <ele>306.6</ele>
        <time>2025-04-30T17:07:09Z</time>
      </trkpt>
      <trkpt lat="45.70275" lon="4.73553">
        <ele>306.6</ele>
        <time>2025-04-30T17:07:10Z</time>
      </trkpt>
      <trkpt lat="45.7028" lon="4.73556">
        <ele>306.6</ele>
        <time>2025-04-30T17:07:11Z</time>
      </trkpt>
      <trkpt lat="45.70285" lon="4.73559">
        <ele>306.6</ele>
        <time>2025-04-30T17:07:12Z</time>
      </trkpt>
      <trkpt lat="45.70289" lon="4.73562">
        <ele>306.6</ele>
        <time>2025-04-30T17:07:13Z</time>
      </trkpt>
      <trkpt lat="45.70293" lon="4.73566">
        <ele>306.6</ele>
        <time>2025-04-30T17:07:14Z</time>
      </trkpt>
      <trkpt lat="45.70297" lon="4.7357">
        <ele>306.6</ele>
        <time>2025-04-30T17:07:15Z</time>
      </trkpt>
      <trkpt lat="45.70301" lon="4.73573">
        <ele>306.6</ele>
        <time>2025-04-30T17:07:16Z</time>
      </trkpt>
      <trkpt lat="45.70305" lon="4.73577">
        <ele>306.6</ele>
        <time>2025-04-30T17:07:17Z</time>
      </trkpt>
      <trkpt lat="45.70309" lon="4.73581">
        <ele>306.6</ele>
        <time>2025-04-30T17:07:18Z</time>
      </trkpt>
      <trkpt lat="45.70313" lon="4.73586">
        <ele>306.6</ele>
        <time>2025-04-30T17:07:19Z</time>
      </trkpt>
      <trkpt lat="45.70317" lon="4.73591">
        <ele>306.6</ele>
        <time>2025-04-30T17:07:20Z</time>
      </trkpt>
      <trkpt lat="45.70321" lon="4.73596">
        <ele>306.8</ele>
        <time>2025-04-30T17:07:21Z</time>
      </trkpt>
      <trkpt lat="45.70326" lon="4.73601">
        <ele>306.8</ele>
        <time>2025-04-30T17:07:22Z</time>
      </trkpt>
      <trkpt lat="45.70329" lon="4.73607">
        <ele>306.8</ele>
        <time>2025-04-30T17:07:23Z</time>
      </trkpt>
      <trkpt lat="45.70333" lon="4.73612">
        <ele>306.8</ele>
        <time>2025-04-30T17:07:24Z</time>
      </trkpt>
      <trkpt lat="45.70337" lon="4.73619">
        <ele>307</ele>
        <time>2025-04-30T17:07:25Z</time>
      </trkpt>
      <trkpt lat="45.7034" lon="4.73624">
        <ele>307.2</ele>
        <time>2025-04-30T17:07:26Z</time>
      </trkpt>
      <trkpt lat="45.70343" lon="4.73629">
        <ele>307.6</ele>
        <time>2025-04-30T17:07:27Z</time>
      </trkpt>
      <trkpt lat="45.70347" lon="4.73635">
        <ele>307.6</ele>
        <time>2025-04-30T17:07:28Z</time>
      </trkpt>
      <trkpt lat="45.70351" lon="4.7364">
        <ele>307.8</ele>
        <time>2025-04-30T17:07:29Z</time>
      </trkpt>
      <trkpt lat="45.70354" lon="4.73646">
        <ele>307.8</ele>
        <time>2025-04-30T17:07:30Z</time>
      </trkpt>
      <trkpt lat="45.70357" lon="4.73652">
        <ele>307.8</ele>
        <time>2025-04-30T17:07:31Z</time>
      </trkpt>
      <trkpt lat="45.70361" lon="4.73659">
        <ele>307.8</ele>
        <time>2025-04-30T17:07:32Z</time>
      </trkpt>
      <trkpt lat="45.70364" lon="4.73664">
        <ele>307.8</ele>
        <time>2025-04-30T17:07:33Z</time>
      </trkpt>
      <trkpt lat="45.70367" lon="4.73669">
        <ele>307.8</ele>
        <time>2025-04-30T17:07:34Z</time>
      </trkpt>
      <trkpt lat="45.7037" lon="4.73674">
        <ele>308</ele>
        <time>2025-04-30T17:07:35Z</time>
      </trkpt>
      <trkpt lat="45.70374" lon="4.7368">
        <ele>308.2</ele>
        <time>2025-04-30T17:07:36Z</time>
      </trkpt>
      <trkpt lat="45.70377" lon="4.73685">
        <ele>308.4</ele>
        <time>2025-04-30T17:07:37Z</time>
      </trkpt>
      <trkpt lat="45.70381" lon="4.73689">
        <ele>308.4</ele>
        <time>2025-04-30T17:07:38Z</time>
      </trkpt>
      <trkpt lat="45.70385" lon="4.73694">
        <ele>308.6</ele>
        <time>2025-04-30T17:07:39Z</time>
      </trkpt>
      <trkpt lat="45.70388" lon="4.73697">
        <ele>309</ele>
        <time>2025-04-30T17:07:40Z</time>
      </trkpt>
      <trkpt lat="45.70392" lon="4.73701">
        <ele>309.2</ele>
        <time>2025-04-30T17:07:41Z</time>
      </trkpt>
      <trkpt lat="45.70397" lon="4.73705">
        <ele>309.4</ele>
        <time>2025-04-30T17:07:42Z</time>
      </trkpt>
      <trkpt lat="45.704" lon="4.73708">
        <ele>309.6</ele>
        <time>2025-04-30T17:07:43Z</time>
      </trkpt>
      <trkpt lat="45.70404" lon="4.73712">
        <ele>309.8</ele>
        <time>2025-04-30T17:07:44Z</time>
      </trkpt>
      <trkpt lat="45.70407" lon="4.73715">
        <ele>310.2</ele>
        <time>2025-04-30T17:07:45Z</time>
      </trkpt>
      <trkpt lat="45.70411" lon="4.73718">
        <ele>310.4</ele>
        <time>2025-04-30T17:07:46Z</time>
      </trkpt>
      <trkpt lat="45.70415" lon="4.73721">
        <ele>310.6</ele>
        <time>2025-04-30T17:07:47Z</time>
      </trkpt>
      <trkpt lat="45.70419" lon="4.73724">
        <ele>310.8</ele>
        <time>2025-04-30T17:07:48Z</time>
      </trkpt>
      <trkpt lat="45.70423" lon="4.73727">
        <ele>311</ele>
        <time>2025-04-30T17:07:49Z</time>
      </trkpt>
      <trkpt lat="45.70427" lon="4.73731">
        <ele>311</ele>
        <time>2025-04-30T17:07:50Z</time>
      </trkpt>
      <trkpt lat="45.70431" lon="4.73734">
        <ele>311</ele>
        <time>2025-04-30T17:07:51Z</time>
      </trkpt>
      <trkpt lat="45.70435" lon="4.73737">
        <ele>311.2</ele>
        <time>2025-04-30T17:07:52Z</time>
      </trkpt>
      <trkpt lat="45.7044" lon="4.73741">
        <ele>311.2</ele>
        <time>2025-04-30T17:07:53Z</time>
      </trkpt>
      <trkpt lat="45.70444" lon="4.73745">
        <ele>311.2</ele>
        <time>2025-04-30T17:07:54Z</time>
      </trkpt>
      <trkpt lat="45.70448" lon="4.73749">
        <ele>311.4</ele>
        <time>2025-04-30T17:07:55Z</time>
      </trkpt>
      <trkpt lat="45.70452" lon="4.73752">
        <ele>311.4</ele>
        <time>2025-04-30T17:07:56Z</time>
      </trkpt>
      <trkpt lat="45.70457" lon="4.73755">
        <ele>311.4</ele>
        <time>2025-04-30T17:07:57Z</time>
      </trkpt>
      <trkpt lat="45.70461" lon="4.73758">
        <ele>311.6</ele>
        <time>2025-04-30T17:07:58Z</time>
      </trkpt>
      <trkpt lat="45.70465" lon="4.73761">
        <ele>311.6</ele>
        <time>2025-04-30T17:07:59Z</time>
      </trkpt>
      <trkpt lat="45.70469" lon="4.73764">
        <ele>311.6</ele>
        <time>2025-04-30T17:08:00Z</time>
      </trkpt>
      <trkpt lat="45.70473" lon="4.73766">
        <ele>311.8</ele>
        <time>2025-04-30T17:08:01Z</time>
      </trkpt>
      <trkpt lat="45.70477" lon="4.73767">
        <ele>312</ele>
        <time>2025-04-30T17:08:02Z</time>
      </trkpt>
      <trkpt lat="45.70481" lon="4.73767">
        <ele>312</ele>
        <time>2025-04-30T17:08:03Z</time>
      </trkpt>
      <trkpt lat="45.70486" lon="4.73766">
        <ele>312.2</ele>
        <time>2025-04-30T17:08:04Z</time>
      </trkpt>
      <trkpt lat="45.7049" lon="4.73766">
        <ele>312.2</ele>
        <time>2025-04-30T17:08:05Z</time>
      </trkpt>
      <trkpt lat="45.70494" lon="4.73766">
        <ele>312.4</ele>
        <time>2025-04-30T17:08:06Z</time>
      </trkpt>
      <trkpt lat="45.70498" lon="4.73768">
        <ele>312.4</ele>
        <time>2025-04-30T17:08:07Z</time>
      </trkpt>
      <trkpt lat="45.70502" lon="4.73771">
        <ele>312.4</ele>
        <time>2025-04-30T17:08:08Z</time>
      </trkpt>
      <trkpt lat="45.70505" lon="4.73777">
        <ele>312.4</ele>
        <time>2025-04-30T17:08:09Z</time>
      </trkpt>
      <trkpt lat="45.70507" lon="4.73782">
        <ele>312.4</ele>
        <time>2025-04-30T17:08:10Z</time>
      </trkpt>
      <trkpt lat="45.70509" lon="4.73789">
        <ele>312.4</ele>
        <time>2025-04-30T17:08:11Z</time>
      </trkpt>
      <trkpt lat="45.70512" lon="4.73796">
        <ele>312.4</ele>
        <time>2025-04-30T17:08:12Z</time>
      </trkpt>
      <trkpt lat="45.70514" lon="4.73801">
        <ele>312.2</ele>
        <time>2025-04-30T17:08:13Z</time>
      </trkpt>
      <trkpt lat="45.70516" lon="4.73807">
        <ele>312</ele>
        <time>2025-04-30T17:08:14Z</time>
      </trkpt>
      <trkpt lat="45.70519" lon="4.73813">
        <ele>312</ele>
        <time>2025-04-30T17:08:15Z</time>
      </trkpt>
      <trkpt lat="45.70522" lon="4.7382">
        <ele>312</ele>
        <time>2025-04-30T17:08:16Z</time>
      </trkpt>
      <trkpt lat="45.70525" lon="4.73826">
        <ele>311.8</ele>
        <time>2025-04-30T17:08:17Z</time>
      </trkpt>
      <trkpt lat="45.70528" lon="4.73833">
        <ele>311.8</ele>
        <time>2025-04-30T17:08:18Z</time>
      </trkpt>
      <trkpt lat="45.70531" lon="4.73839">
        <ele>311.8</ele>
        <time>2025-04-30T17:08:19Z</time>
      </trkpt>
      <trkpt lat="45.70535" lon="4.73846">
        <ele>311.6</ele>
        <time>2025-04-30T17:08:20Z</time>
      </trkpt>
      <trkpt lat="45.70538" lon="4.73852">
        <ele>311.4</ele>
        <time>2025-04-30T17:08:21Z</time>
      </trkpt>
      <trkpt lat="45.70542" lon="4.73859">
        <ele>311.4</ele>
        <time>2025-04-30T17:08:22Z</time>
      </trkpt>
      <trkpt lat="45.70546" lon="4.73865">
        <ele>311</ele>
        <time>2025-04-30T17:08:23Z</time>
      </trkpt>
      <trkpt lat="45.70551" lon="4.7387">
        <ele>310.8</ele>
        <time>2025-04-30T17:08:24Z</time>
      </trkpt>
      <trkpt lat="45.70556" lon="4.73875">
        <ele>310.8</ele>
        <time>2025-04-30T17:08:25Z</time>
      </trkpt>
      <trkpt lat="45.70561" lon="4.7388">
        <ele>310.8</ele>
        <time>2025-04-30T17:08:26Z</time>
      </trkpt>
      <trkpt lat="45.70566" lon="4.73885">
        <ele>310.8</ele>
        <time>2025-04-30T17:08:27Z</time>
      </trkpt>
      <trkpt lat="45.70571" lon="4.7389">
        <ele>310.8</ele>
        <time>2025-04-30T17:08:28Z</time>
      </trkpt>
      <trkpt lat="45.70576" lon="4.73895">
        <ele>310.6</ele>
        <time>2025-04-30T17:08:29Z</time>
      </trkpt>
      <trkpt lat="45.70581" lon="4.739">
        <ele>310.6</ele>
        <time>2025-04-30T17:08:30Z</time>
      </trkpt>
      <trkpt lat="45.70586" lon="4.73904">
        <ele>310.6</ele>
        <time>2025-04-30T17:08:31Z</time>
      </trkpt>
      <trkpt lat="45.70592" lon="4.73909">
        <ele>310.4</ele>
        <time>2025-04-30T17:08:32Z</time>
      </trkpt>
      <trkpt lat="45.70598" lon="4.73915">
        <ele>310.2</ele>
        <time>2025-04-30T17:08:33Z</time>
      </trkpt>
      <trkpt lat="45.70602" lon="4.73918">
        <ele>310</ele>
        <time>2025-04-30T17:08:34Z</time>
      </trkpt>
      <trkpt lat="45.70608" lon="4.73923">
        <ele>309.8</ele>
        <time>2025-04-30T17:08:35Z</time>
      </trkpt>
      <trkpt lat="45.70613" lon="4.73928">
        <ele>309.6</ele>
        <time>2025-04-30T17:08:36Z</time>
      </trkpt>
      <trkpt lat="45.70619" lon="4.73932">
        <ele>309.6</ele>
        <time>2025-04-30T17:08:37Z</time>
      </trkpt>
      <trkpt lat="45.70624" lon="4.73937">
        <ele>309.6</ele>
        <time>2025-04-30T17:08:38Z</time>
      </trkpt>
      <trkpt lat="45.70629" lon="4.73941">
        <ele>309.6</ele>
        <time>2025-04-30T17:08:39Z</time>
      </trkpt>
      <trkpt lat="45.70635" lon="4.73946">
        <ele>309.4</ele>
        <time>2025-04-30T17:08:40Z</time>
      </trkpt>
      <trkpt lat="45.7064" lon="4.7395">
        <ele>309.4</ele>
        <time>2025-04-30T17:08:41Z</time>
      </trkpt>
      <trkpt lat="45.70646" lon="4.73954">
        <ele>309.4</ele>
        <time>2025-04-30T17:08:42Z</time>
      </trkpt>
      <trkpt lat="45.70652" lon="4.73958">
        <ele>309.2</ele>
        <time>2025-04-30T17:08:43Z</time>
      </trkpt>
      <trkpt lat="45.70657" lon="4.73963">
        <ele>309.2</ele>
        <time>2025-04-30T17:08:44Z</time>
      </trkpt>
      <trkpt lat="45.70663" lon="4.73967">
        <ele>309</ele>
        <time>2025-04-30T17:08:45Z</time>
      </trkpt>
      <trkpt lat="45.70668" lon="4.73972">
        <ele>308.6</ele>
        <time>2025-04-30T17:08:46Z</time>
      </trkpt>
      <trkpt lat="45.70674" lon="4.73977">
        <ele>308.2</ele>
        <time>2025-04-30T17:08:47Z</time>
      </trkpt>
      <trkpt lat="45.70679" lon="4.73981">
        <ele>307.6</ele>
        <time>2025-04-30T17:08:48Z</time>
      </trkpt>
      <trkpt lat="45.70685" lon="4.73985">
        <ele>307.6</ele>
        <time>2025-04-30T17:08:49Z</time>
      </trkpt>
      <trkpt lat="45.7069" lon="4.73989">
        <ele>307.6</ele>
        <time>2025-04-30T17:08:50Z</time>
      </trkpt>
      <trkpt lat="45.70695" lon="4.73993">
        <ele>307.4</ele>
        <time>2025-04-30T17:08:51Z</time>
      </trkpt>
      <trkpt lat="45.70701" lon="4.73999">
        <ele>307.4</ele>
        <time>2025-04-30T17:08:52Z</time>
      </trkpt>
      <trkpt lat="45.70704" lon="4.74004">
        <ele>307.4</ele>
        <time>2025-04-30T17:08:53Z</time>
      </trkpt>
      <trkpt lat="45.70709" lon="4.74009">
        <ele>307.2</ele>
        <time>2025-04-30T17:08:54Z</time>
      </trkpt>
      <trkpt lat="45.70714" lon="4.74015">
        <ele>307.2</ele>
        <time>2025-04-30T17:08:55Z</time>
      </trkpt>
      <trkpt lat="45.70719" lon="4.74021">
        <ele>307.2</ele>
        <time>2025-04-30T17:08:56Z</time>
      </trkpt>
      <trkpt lat="45.70724" lon="4.74027">
        <ele>307</ele>
        <time>2025-04-30T17:08:57Z</time>
      </trkpt>
      <trkpt lat="45.70729" lon="4.74033">
        <ele>307</ele>
        <time>2025-04-30T17:08:58Z</time>
      </trkpt>
      <trkpt lat="45.70733" lon="4.74039">
        <ele>306.8</ele>
        <time>2025-04-30T17:08:59Z</time>
      </trkpt>
      <trkpt lat="45.70738" lon="4.74046">
        <ele>306.8</ele>
        <time>2025-04-30T17:09:00Z</time>
      </trkpt>
      <trkpt lat="45.70742" lon="4.74053">
        <ele>306.6</ele>
        <time>2025-04-30T17:09:01Z</time>
      </trkpt>
      <trkpt lat="45.70746" lon="4.7406">
        <ele>306.4</ele>
        <time>2025-04-30T17:09:02Z</time>
      </trkpt>
      <trkpt lat="45.7075" lon="4.74067">
        <ele>306.4</ele>
        <time>2025-04-30T17:09:03Z</time>
      </trkpt>
      <trkpt lat="45.70755" lon="4.74074">
        <ele>306.2</ele>
        <time>2025-04-30T17:09:04Z</time>
      </trkpt>
      <trkpt lat="45.70759" lon="4.74081">
        <ele>306.2</ele>
        <time>2025-04-30T17:09:05Z</time>
      </trkpt>
      <trkpt lat="45.70764" lon="4.74088">
        <ele>306.2</ele>
        <time>2025-04-30T17:09:06Z</time>
      </trkpt>
      <trkpt lat="45.70769" lon="4.74094">
        <ele>306.2</ele>
        <time>2025-04-30T17:09:07Z</time>
      </trkpt>
      <trkpt lat="45.70773" lon="4.741">
        <ele>306</ele>
        <time>2025-04-30T17:09:08Z</time>
      </trkpt>
      <trkpt lat="45.70778" lon="4.74106">
        <ele>306</ele>
        <time>2025-04-30T17:09:09Z</time>
      </trkpt>
      <trkpt lat="45.70783" lon="4.74112">
        <ele>306</ele>
        <time>2025-04-30T17:09:10Z</time>
      </trkpt>
      <trkpt lat="45.70788" lon="4.74117">
        <ele>306</ele>
        <time>2025-04-30T17:09:11Z</time>
      </trkpt>
      <trkpt lat="45.70793" lon="4.74122">
        <ele>305.8</ele>
        <time>2025-04-30T17:09:12Z</time>
      </trkpt>
      <trkpt lat="45.70798" lon="4.74126">
        <ele>305.8</ele>
        <time>2025-04-30T17:09:13Z</time>
      </trkpt>
      <trkpt lat="45.70803" lon="4.7413">
        <ele>305.8</ele>
        <time>2025-04-30T17:09:14Z</time>
      </trkpt>
      <trkpt lat="45.70808" lon="4.74134">
        <ele>305.8</ele>
        <time>2025-04-30T17:09:15Z</time>
      </trkpt>
      <trkpt lat="45.70814" lon="4.74138">
        <ele>305.8</ele>
        <time>2025-04-30T17:09:16Z</time>
      </trkpt>
      <trkpt lat="45.70819" lon="4.74142">
        <ele>305.6</ele>
        <time>2025-04-30T17:09:17Z</time>
      </trkpt>
      <trkpt lat="45.70824" lon="4.74146">
        <ele>305.8</ele>
        <time>2025-04-30T17:09:18Z</time>
      </trkpt>
      <trkpt lat="45.70829" lon="4.7415">
        <ele>305.8</ele>
        <time>2025-04-30T17:09:19Z</time>
      </trkpt>
      <trkpt lat="45.70834" lon="4.74154">
        <ele>306</ele>
        <time>2025-04-30T17:09:20Z</time>
      </trkpt>
      <trkpt lat="45.7084" lon="4.74158">
        <ele>306.2</ele>
        <time>2025-04-30T17:09:21Z</time>
      </trkpt>
      <trkpt lat="45.70845" lon="4.74161">
        <ele>306.4</ele>
        <time>2025-04-30T17:09:22Z</time>
      </trkpt>
      <trkpt lat="45.7085" lon="4.74165">
        <ele>306.6</ele>
        <time>2025-04-30T17:09:23Z</time>
      </trkpt>
      <trkpt lat="45.70855" lon="4.74169">
        <ele>306.6</ele>
        <time>2025-04-30T17:09:24Z</time>
      </trkpt>
      <trkpt lat="45.70861" lon="4.74173">
        <ele>307</ele>
        <time>2025-04-30T17:09:25Z</time>
      </trkpt>
      <trkpt lat="45.70866" lon="4.74176">
        <ele>307.2</ele>
        <time>2025-04-30T17:09:26Z</time>
      </trkpt>
      <trkpt lat="45.70871" lon="4.7418">
        <ele>307.4</ele>
        <time>2025-04-30T17:09:27Z</time>
      </trkpt>
      <trkpt lat="45.70877" lon="4.74183">
        <ele>307.4</ele>
        <time>2025-04-30T17:09:28Z</time>
      </trkpt>
      <trkpt lat="45.70882" lon="4.74187">
        <ele>307.4</ele>
        <time>2025-04-30T17:09:29Z</time>
      </trkpt>
      <trkpt lat="45.70887" lon="4.74191">
        <ele>307.6</ele>
        <time>2025-04-30T17:09:30Z</time>
      </trkpt>
      <trkpt lat="45.70892" lon="4.74195">
        <ele>307.6</ele>
        <time>2025-04-30T17:09:31Z</time>
      </trkpt>
      <trkpt lat="45.70897" lon="4.74199">
        <ele>307.6</ele>
        <time>2025-04-30T17:09:32Z</time>
      </trkpt>
      <trkpt lat="45.70902" lon="4.74203">
        <ele>307.8</ele>
        <time>2025-04-30T17:09:33Z</time>
      </trkpt>
      <trkpt lat="45.70908" lon="4.74208">
        <ele>307.6</ele>
        <time>2025-04-30T17:09:34Z</time>
      </trkpt>
      <trkpt lat="45.70912" lon="4.7421">
        <ele>307.8</ele>
        <time>2025-04-30T17:09:35Z</time>
      </trkpt>
      <trkpt lat="45.70917" lon="4.74214">
        <ele>307.8</ele>
        <time>2025-04-30T17:09:36Z</time>
      </trkpt>
      <trkpt lat="45.70922" lon="4.74218">
        <ele>307.6</ele>
        <time>2025-04-30T17:09:37Z</time>
      </trkpt>
      <trkpt lat="45.70926" lon="4.74222">
        <ele>307.8</ele>
        <time>2025-04-30T17:09:38Z</time>
      </trkpt>
      <trkpt lat="45.70931" lon="4.74226">
        <ele>307.8</ele>
        <time>2025-04-30T17:09:39Z</time>
      </trkpt>
      <trkpt lat="45.70936" lon="4.74229">
        <ele>307.8</ele>
        <time>2025-04-30T17:09:40Z</time>
      </trkpt>
      <trkpt lat="45.70941" lon="4.74233">
        <ele>308.2</ele>
        <time>2025-04-30T17:09:41Z</time>
      </trkpt>
      <trkpt lat="45.70946" lon="4.74236">
        <ele>308.4</ele>
        <time>2025-04-30T17:09:42Z</time>
      </trkpt>
      <trkpt lat="45.70951" lon="4.74239">
        <ele>308.6</ele>
        <time>2025-04-30T17:09:43Z</time>
      </trkpt>
      <trkpt lat="45.70956" lon="4.74242">
        <ele>308.8</ele>
        <time>2025-04-30T17:09:44Z</time>
      </trkpt>
      <trkpt lat="45.7096" lon="4.74246">
        <ele>308.8</ele>
        <time>2025-04-30T17:09:45Z</time>
      </trkpt>
      <trkpt lat="45.70965" lon="4.7425">
        <ele>308.8</ele>
        <time>2025-04-30T17:09:46Z</time>
      </trkpt>
      <trkpt lat="45.7097" lon="4.74254">
        <ele>308.8</ele>
        <time>2025-04-30T17:09:47Z</time>
      </trkpt>
      <trkpt lat="45.70975" lon="4.74257">
        <ele>309</ele>
        <time>2025-04-30T17:09:48Z</time>
      </trkpt>
      <trkpt lat="45.7098" lon="4.74261">
        <ele>309</ele>
        <time>2025-04-30T17:09:49Z</time>
      </trkpt>
      <trkpt lat="45.70986" lon="4.74265">
        <ele>309.2</ele>
        <time>2025-04-30T17:09:50Z</time>
      </trkpt>
      <trkpt lat="45.7099" lon="4.74267">
        <ele>309.2</ele>
        <time>2025-04-30T17:09:51Z</time>
      </trkpt>
      <trkpt lat="45.70995" lon="4.7427">
        <ele>309.4</ele>
        <time>2025-04-30T17:09:52Z</time>
      </trkpt>
      <trkpt lat="45.71" lon="4.74273">
        <ele>309.6</ele>
        <time>2025-04-30T17:09:53Z</time>
      </trkpt>
      <trkpt lat="45.71004" lon="4.74275">
        <ele>309.6</ele>
        <time>2025-04-30T17:09:54Z</time>
      </trkpt>
      <trkpt lat="45.71008" lon="4.74278">
        <ele>309.8</ele>
        <time>2025-04-30T17:09:55Z</time>
      </trkpt>
      <trkpt lat="45.71013" lon="4.74279">
        <ele>309.8</ele>
        <time>2025-04-30T17:09:56Z</time>
      </trkpt>
      <trkpt lat="45.71017" lon="4.7428">
        <ele>310</ele>
        <time>2025-04-30T17:09:57Z</time>
      </trkpt>
      <trkpt lat="45.71022" lon="4.74281">
        <ele>310</ele>
        <time>2025-04-30T17:09:58Z</time>
      </trkpt>
      <trkpt lat="45.71025" lon="4.74282">
        <ele>310</ele>
        <time>2025-04-30T17:09:59Z</time>
      </trkpt>
      <trkpt lat="45.71028" lon="4.74283">
        <ele>310</ele>
        <time>2025-04-30T17:10:00Z</time>
      </trkpt>
      <trkpt lat="45.7103" lon="4.74284">
        <ele>310</ele>
        <time>2025-04-30T17:10:01Z</time>
      </trkpt>
      <trkpt lat="45.71031" lon="4.74285">
        <ele>310.2</ele>
        <time>2025-04-30T17:10:02Z</time>
      </trkpt>
      <trkpt lat="45.71032" lon="4.74285">
        <ele>310.6</ele>
        <time>2025-04-30T17:10:03Z</time>
      </trkpt>
      <trkpt lat="45.71032" lon="4.74285">
        <ele>310.6</ele>
        <time>2025-04-30T17:10:04Z</time>
      </trkpt>
      <trkpt lat="45.71032" lon="4.74285">
        <ele>310.8</ele>
        <time>2025-04-30T17:10:05Z</time>
      </trkpt>
      <trkpt lat="45.71032" lon="4.74285">
        <ele>311</ele>
        <time>2025-04-30T17:10:06Z</time>
      </trkpt>
      <trkpt lat="45.71032" lon="4.74285">
        <ele>311.2</ele>
        <time>2025-04-30T17:10:07Z</time>
      </trkpt>
      <trkpt lat="45.71032" lon="4.74285">
        <ele>311.2</ele>
        <time>2025-04-30T17:10:08Z</time>
      </trkpt>
      <trkpt lat="45.71032" lon="4.74285">
        <ele>311.2</ele>
        <time>2025-04-30T17:10:09Z</time>
      </trkpt>
      <trkpt lat="45.71032" lon="4.74285">
        <ele>311.2</ele>
        <time>2025-04-30T17:10:10Z</time>
      </trkpt>
      <trkpt lat="45.71032" lon="4.74285">
        <ele>311.2</ele>
        <time>2025-04-30T17:10:11Z</time>
      </trkpt>
      <trkpt lat="45.71032" lon="4.74286">
        <ele>311.2</ele>
        <time>2025-04-30T17:10:12Z</time>
      </trkpt>
      <trkpt lat="45.71033" lon="4.74286">
        <ele>311.2</ele>
        <time>2025-04-30T17:10:13Z</time>
      </trkpt>
      <trkpt lat="45.71035" lon="4.74287">
        <ele>311.2</ele>
        <time>2025-04-30T17:10:14Z</time>
      </trkpt>
      <trkpt lat="45.71038" lon="4.74288">
        <ele>311.2</ele>
        <time>2025-04-30T17:10:15Z</time>
      </trkpt>
      <trkpt lat="45.71041" lon="4.74289">
        <ele>311</ele>
        <time>2025-04-30T17:10:16Z</time>
      </trkpt>
      <trkpt lat="45.71045" lon="4.7429">
        <ele>311</ele>
        <time>2025-04-30T17:10:17Z</time>
      </trkpt>
      <trkpt lat="45.71049" lon="4.7429">
        <ele>311</ele>
        <time>2025-04-30T17:10:18Z</time>
      </trkpt>
      <trkpt lat="45.71053" lon="4.7429">
        <ele>311</ele>
        <time>2025-04-30T17:10:19Z</time>
      </trkpt>
      <trkpt lat="45.71058" lon="4.74291">
        <ele>311</ele>
        <time>2025-04-30T17:10:20Z</time>
      </trkpt>
      <trkpt lat="45.71062" lon="4.74293">
        <ele>311</ele>
        <time>2025-04-30T17:10:21Z</time>
      </trkpt>
      <trkpt lat="45.71066" lon="4.74295">
        <ele>311.2</ele>
        <time>2025-04-30T17:10:22Z</time>
      </trkpt>
      <trkpt lat="45.7107" lon="4.74296">
        <ele>311.4</ele>
        <time>2025-04-30T17:10:23Z</time>
      </trkpt>
      <trkpt lat="45.71075" lon="4.74298">
        <ele>311.6</ele>
        <time>2025-04-30T17:10:24Z</time>
      </trkpt>
      <trkpt lat="45.71079" lon="4.74298">
        <ele>311.6</ele>
        <time>2025-04-30T17:10:25Z</time>
      </trkpt>
      <trkpt lat="45.71083" lon="4.74299">
        <ele>311.8</ele>
        <time>2025-04-30T17:10:26Z</time>
      </trkpt>
      <trkpt lat="45.71088" lon="4.74301">
        <ele>312</ele>
        <time>2025-04-30T17:10:27Z</time>
      </trkpt>
      <trkpt lat="45.71092" lon="4.74302">
        <ele>312.2</ele>
        <time>2025-04-30T17:10:28Z</time>
      </trkpt>
      <trkpt lat="45.71097" lon="4.74302">
        <ele>312.2</ele>
        <time>2025-04-30T17:10:29Z</time>
      </trkpt>
      <trkpt lat="45.71101" lon="4.74301">
        <ele>312.2</ele>
        <time>2025-04-30T17:10:30Z</time>
      </trkpt>
      <trkpt lat="45.71106" lon="4.743">
        <ele>312.4</ele>
        <time>2025-04-30T17:10:31Z</time>
      </trkpt>
      <trkpt lat="45.71111" lon="4.74299">
        <ele>312.4</ele>
        <time>2025-04-30T17:10:32Z</time>
      </trkpt>
      <trkpt lat="45.71116" lon="4.74298">
        <ele>312.4</ele>
        <time>2025-04-30T17:10:33Z</time>
      </trkpt>
      <trkpt lat="45.7112" lon="4.74296">
        <ele>312.6</ele>
        <time>2025-04-30T17:10:34Z</time>
      </trkpt>
      <trkpt lat="45.71125" lon="4.74295">
        <ele>312.8</ele>
        <time>2025-04-30T17:10:35Z</time>
      </trkpt>
      <trkpt lat="45.71129" lon="4.74293">
        <ele>312.8</ele>
        <time>2025-04-30T17:10:36Z</time>
      </trkpt>
      <trkpt lat="45.71134" lon="4.74292">
        <ele>313</ele>
        <time>2025-04-30T17:10:37Z</time>
      </trkpt>
      <trkpt lat="45.71139" lon="4.74291">
        <ele>313.2</ele>
        <time>2025-04-30T17:10:38Z</time>
      </trkpt>
      <trkpt lat="45.71143" lon="4.74289">
        <ele>313.2</ele>
        <time>2025-04-30T17:10:39Z</time>
      </trkpt>
      <trkpt lat="45.71148" lon="4.74288">
        <ele>313.2</ele>
        <time>2025-04-30T17:10:40Z</time>
      </trkpt>
      <trkpt lat="45.71153" lon="4.74286">
        <ele>313.4</ele>
        <time>2025-04-30T17:10:41Z</time>
      </trkpt>
      <trkpt lat="45.71158" lon="4.74284">
        <ele>313.4</ele>
        <time>2025-04-30T17:10:42Z</time>
      </trkpt>
      <trkpt lat="45.71162" lon="4.74282">
        <ele>313.8</ele>
        <time>2025-04-30T17:10:43Z</time>
      </trkpt>
      <trkpt lat="45.71167" lon="4.74281">
        <ele>313.8</ele>
        <time>2025-04-30T17:10:44Z</time>
      </trkpt>
      <trkpt lat="45.71172" lon="4.7428">
        <ele>314</ele>
        <time>2025-04-30T17:10:45Z</time>
      </trkpt>
      <trkpt lat="45.71176" lon="4.7428">
        <ele>314</ele>
        <time>2025-04-30T17:10:46Z</time>
      </trkpt>
      <trkpt lat="45.71181" lon="4.74279">
        <ele>314.4</ele>
        <time>2025-04-30T17:10:47Z</time>
      </trkpt>
      <trkpt lat="45.71185" lon="4.74279">
        <ele>314.6</ele>
        <time>2025-04-30T17:10:48Z</time>
      </trkpt>
      <trkpt lat="45.7119" lon="4.74278">
        <ele>314.8</ele>
        <time>2025-04-30T17:10:49Z</time>
      </trkpt>
      <trkpt lat="45.71194" lon="4.74279">
        <ele>314.8</ele>
        <time>2025-04-30T17:10:50Z</time>
      </trkpt>
      <trkpt lat="45.71197" lon="4.74282">
        <ele>315</ele>
        <time>2025-04-30T17:10:51Z</time>
      </trkpt>
      <trkpt lat="45.71199" lon="4.74287">
        <ele>315.2</ele>
        <time>2025-04-30T17:10:52Z</time>
      </trkpt>
      <trkpt lat="45.71201" lon="4.74293">
        <ele>315.4</ele>
        <time>2025-04-30T17:10:53Z</time>
      </trkpt>
      <trkpt lat="45.71203" lon="4.74299">
        <ele>315.4</ele>
        <time>2025-04-30T17:10:54Z</time>
      </trkpt>
      <trkpt lat="45.71206" lon="4.74305">
        <ele>315.4</ele>
        <time>2025-04-30T17:10:55Z</time>
      </trkpt>
      <trkpt lat="45.71207" lon="4.74311">
        <ele>315.4</ele>
        <time>2025-04-30T17:10:56Z</time>
      </trkpt>
      <trkpt lat="45.71209" lon="4.74317">
        <ele>315.4</ele>
        <time>2025-04-30T17:10:57Z</time>
      </trkpt>
      <trkpt lat="45.7121" lon="4.74323">
        <ele>315.4</ele>
        <time>2025-04-30T17:10:58Z</time>
      </trkpt>
      <trkpt lat="45.71212" lon="4.74329">
        <ele>315.4</ele>
        <time>2025-04-30T17:10:59Z</time>
      </trkpt>
      <trkpt lat="45.71214" lon="4.74334">
        <ele>315.6</ele>
        <time>2025-04-30T17:11:00Z</time>
      </trkpt>
      <trkpt lat="45.71215" lon="4.7434">
        <ele>315.6</ele>
        <time>2025-04-30T17:11:01Z</time>
      </trkpt>
      <trkpt lat="45.71216" lon="4.74346">
        <ele>315.8</ele>
        <time>2025-04-30T17:11:02Z</time>
      </trkpt>
      <trkpt lat="45.71218" lon="4.74352">
        <ele>315.8</ele>
        <time>2025-04-30T17:11:03Z</time>
      </trkpt>
      <trkpt lat="45.71219" lon="4.74359">
        <ele>315.8</ele>
        <time>2025-04-30T17:11:04Z</time>
      </trkpt>
      <trkpt lat="45.7122" lon="4.74365">
        <ele>315.8</ele>
        <time>2025-04-30T17:11:05Z</time>
      </trkpt>
      <trkpt lat="45.71221" lon="4.74371">
        <ele>316</ele>
        <time>2025-04-30T17:11:06Z</time>
      </trkpt>
      <trkpt lat="45.71222" lon="4.74377">
        <ele>316.2</ele>
        <time>2025-04-30T17:11:07Z</time>
      </trkpt>
      <trkpt lat="45.71223" lon="4.74384">
        <ele>316.4</ele>
        <time>2025-04-30T17:11:08Z</time>
      </trkpt>
      <trkpt lat="45.71224" lon="4.74391">
        <ele>316.6</ele>
        <time>2025-04-30T17:11:09Z</time>
      </trkpt>
      <trkpt lat="45.71224" lon="4.74396">
        <ele>316.8</ele>
        <time>2025-04-30T17:11:10Z</time>
      </trkpt>
      <trkpt lat="45.71225" lon="4.74402">
        <ele>317</ele>
        <time>2025-04-30T17:11:11Z</time>
      </trkpt>
      <trkpt lat="45.71225" lon="4.7441">
        <ele>317.2</ele>
        <time>2025-04-30T17:11:12Z</time>
      </trkpt>
      <trkpt lat="45.71225" lon="4.74415">
        <ele>317.4</ele>
        <time>2025-04-30T17:11:13Z</time>
      </trkpt>
      <trkpt lat="45.71224" lon="4.74421">
        <ele>317.8</ele>
        <time>2025-04-30T17:11:14Z</time>
      </trkpt>
      <trkpt lat="45.71224" lon="4.74428">
        <ele>317.8</ele>
        <time>2025-04-30T17:11:15Z</time>
      </trkpt>
      <trkpt lat="45.71223" lon="4.74433">
        <ele>318.2</ele>
        <time>2025-04-30T17:11:16Z</time>
      </trkpt>
      <trkpt lat="45.71223" lon="4.74439">
        <ele>318.4</ele>
        <time>2025-04-30T17:11:17Z</time>
      </trkpt>
      <trkpt lat="45.71223" lon="4.74445">
        <ele>318.6</ele>
        <time>2025-04-30T17:11:18Z</time>
      </trkpt>
      <trkpt lat="45.71223" lon="4.74452">
        <ele>318.8</ele>
        <time>2025-04-30T17:11:19Z</time>
      </trkpt>
      <trkpt lat="45.71223" lon="4.74458">
        <ele>318.8</ele>
        <time>2025-04-30T17:11:20Z</time>
      </trkpt>
      <trkpt lat="45.71223" lon="4.74464">
        <ele>318.8</ele>
        <time>2025-04-30T17:11:21Z</time>
      </trkpt>
      <trkpt lat="45.71223" lon="4.74471">
        <ele>318.8</ele>
        <time>2025-04-30T17:11:22Z</time>
      </trkpt>
      <trkpt lat="45.71223" lon="4.74477">
        <ele>318.8</ele>
        <time>2025-04-30T17:11:23Z</time>
      </trkpt>
      <trkpt lat="45.71223" lon="4.74483">
        <ele>319</ele>
        <time>2025-04-30T17:11:24Z</time>
      </trkpt>
      <trkpt lat="45.71222" lon="4.7449">
        <ele>319</ele>
        <time>2025-04-30T17:11:25Z</time>
      </trkpt>
      <trkpt lat="45.71222" lon="4.74496">
        <ele>319</ele>
        <time>2025-04-30T17:11:26Z</time>
      </trkpt>
      <trkpt lat="45.71221" lon="4.74503">
        <ele>319.2</ele>
        <time>2025-04-30T17:11:27Z</time>
      </trkpt>
      <trkpt lat="45.7122" lon="4.7451">
        <ele>319.4</ele>
        <time>2025-04-30T17:11:28Z</time>
      </trkpt>
      <trkpt lat="45.7122" lon="4.74517">
        <ele>319.4</ele>
        <time>2025-04-30T17:11:29Z</time>
      </trkpt>
      <trkpt lat="45.71219" lon="4.74522">
        <ele>319.4</ele>
        <time>2025-04-30T17:11:30Z</time>
      </trkpt>
      <trkpt lat="45.71219" lon="4.74529">
        <ele>319.4</ele>
        <time>2025-04-30T17:11:31Z</time>
      </trkpt>
      <trkpt lat="45.71217" lon="4.74536">
        <ele>319.4</ele>
        <time>2025-04-30T17:11:32Z</time>
      </trkpt>
      <trkpt lat="45.71216" lon="4.74543">
        <ele>319.4</ele>
        <time>2025-04-30T17:11:33Z</time>
      </trkpt>
      <trkpt lat="45.71213" lon="4.74552">
        <ele>319.4</ele>
        <time>2025-04-30T17:11:34Z</time>
      </trkpt>
      <trkpt lat="45.71212" lon="4.74557">
        <ele>319.2</ele>
        <time>2025-04-30T17:11:35Z</time>
      </trkpt>
      <trkpt lat="45.71211" lon="4.74564">
        <ele>319</ele>
        <time>2025-04-30T17:11:36Z</time>
      </trkpt>
      <trkpt lat="45.71209" lon="4.74571">
        <ele>318.6</ele>
        <time>2025-04-30T17:11:37Z</time>
      </trkpt>
      <trkpt lat="45.71207" lon="4.74579">
        <ele>318.6</ele>
        <time>2025-04-30T17:11:38Z</time>
      </trkpt>
      <trkpt lat="45.71205" lon="4.74587">
        <ele>318.6</ele>
        <time>2025-04-30T17:11:39Z</time>
      </trkpt>
      <trkpt lat="45.71204" lon="4.74595">
        <ele>318.4</ele>
        <time>2025-04-30T17:11:40Z</time>
      </trkpt>
      <trkpt lat="45.71203" lon="4.74604">
        <ele>318.2</ele>
        <time>2025-04-30T17:11:41Z</time>
      </trkpt>
      <trkpt lat="45.71203" lon="4.74612">
        <ele>317.8</ele>
        <time>2025-04-30T17:11:42Z</time>
      </trkpt>
      <trkpt lat="45.71203" lon="4.74622">
        <ele>317.6</ele>
        <time>2025-04-30T17:11:43Z</time>
      </trkpt>
      <trkpt lat="45.71202" lon="4.74629">
        <ele>317.4</ele>
        <time>2025-04-30T17:11:44Z</time>
      </trkpt>
      <trkpt lat="45.71202" lon="4.74636">
        <ele>317.4</ele>
        <time>2025-04-30T17:11:45Z</time>
      </trkpt>
      <trkpt lat="45.71202" lon="4.74644">
        <ele>317.4</ele>
        <time>2025-04-30T17:11:46Z</time>
      </trkpt>
      <trkpt lat="45.71201" lon="4.74652">
        <ele>317.4</ele>
        <time>2025-04-30T17:11:47Z</time>
      </trkpt>
      <trkpt lat="45.71201" lon="4.7466">
        <ele>317.4</ele>
        <time>2025-04-30T17:11:48Z</time>
      </trkpt>
      <trkpt lat="45.71201" lon="4.74669">
        <ele>317.4</ele>
        <time>2025-04-30T17:11:49Z</time>
      </trkpt>
      <trkpt lat="45.712" lon="4.74677">
        <ele>317.4</ele>
        <time>2025-04-30T17:11:50Z</time>
      </trkpt>
      <trkpt lat="45.71199" lon="4.74686">
        <ele>317.4</ele>
        <time>2025-04-30T17:11:51Z</time>
      </trkpt>
      <trkpt lat="45.71199" lon="4.74695">
        <ele>317</ele>
        <time>2025-04-30T17:11:52Z</time>
      </trkpt>
      <trkpt lat="45.71198" lon="4.74704">
        <ele>316.6</ele>
        <time>2025-04-30T17:11:53Z</time>
      </trkpt>
      <trkpt lat="45.71198" lon="4.74713">
        <ele>316.2</ele>
        <time>2025-04-30T17:11:54Z</time>
      </trkpt>
      <trkpt lat="45.71198" lon="4.74722">
        <ele>316</ele>
        <time>2025-04-30T17:11:55Z</time>
      </trkpt>
      <trkpt lat="45.71197" lon="4.74731">
        <ele>315.8</ele>
        <time>2025-04-30T17:11:56Z</time>
      </trkpt>
      <trkpt lat="45.71197" lon="4.7474">
        <ele>315.4</ele>
        <time>2025-04-30T17:11:57Z</time>
      </trkpt>
      <trkpt lat="45.71199" lon="4.74748">
        <ele>315.4</ele>
        <time>2025-04-30T17:11:58Z</time>
      </trkpt>
      <trkpt lat="45.71202" lon="4.74755">
        <ele>315.2</ele>
        <time>2025-04-30T17:11:59Z</time>
      </trkpt>
      <trkpt lat="45.71205" lon="4.74763">
        <ele>315.2</ele>
        <time>2025-04-30T17:12:00Z</time>
      </trkpt>
      <trkpt lat="45.71208" lon="4.74771">
        <ele>315.2</ele>
        <time>2025-04-30T17:12:01Z</time>
      </trkpt>
      <trkpt lat="45.71211" lon="4.74779">
        <ele>315.2</ele>
        <time>2025-04-30T17:12:02Z</time>
      </trkpt>
      <trkpt lat="45.71214" lon="4.74788">
        <ele>315</ele>
        <time>2025-04-30T17:12:03Z</time>
      </trkpt>
      <trkpt lat="45.71216" lon="4.74796">
        <ele>315</ele>
        <time>2025-04-30T17:12:04Z</time>
      </trkpt>
      <trkpt lat="45.71219" lon="4.74805">
        <ele>315</ele>
        <time>2025-04-30T17:12:05Z</time>
      </trkpt>
      <trkpt lat="45.71221" lon="4.74814">
        <ele>315</ele>
        <time>2025-04-30T17:12:06Z</time>
      </trkpt>
      <trkpt lat="45.71223" lon="4.74823">
        <ele>315</ele>
        <time>2025-04-30T17:12:07Z</time>
      </trkpt>
      <trkpt lat="45.71226" lon="4.74831">
        <ele>315</ele>
        <time>2025-04-30T17:12:08Z</time>
      </trkpt>
      <trkpt lat="45.71229" lon="4.74842">
        <ele>314.8</ele>
        <time>2025-04-30T17:12:09Z</time>
      </trkpt>
      <trkpt lat="45.7123" lon="4.74849">
        <ele>314.8</ele>
        <time>2025-04-30T17:12:10Z</time>
      </trkpt>
      <trkpt lat="45.71231" lon="4.74858">
        <ele>314.8</ele>
        <time>2025-04-30T17:12:11Z</time>
      </trkpt>
      <trkpt lat="45.71231" lon="4.74867">
        <ele>314.8</ele>
        <time>2025-04-30T17:12:12Z</time>
      </trkpt>
      <trkpt lat="45.7123" lon="4.74875">
        <ele>315</ele>
        <time>2025-04-30T17:12:13Z</time>
      </trkpt>
      <trkpt lat="45.71229" lon="4.74883">
        <ele>315</ele>
        <time>2025-04-30T17:12:14Z</time>
      </trkpt>
      <trkpt lat="45.71228" lon="4.74891">
        <ele>315.2</ele>
        <time>2025-04-30T17:12:15Z</time>
      </trkpt>
      <trkpt lat="45.71227" lon="4.74898">
        <ele>315.2</ele>
        <time>2025-04-30T17:12:16Z</time>
      </trkpt>
      <trkpt lat="45.71227" lon="4.74905">
        <ele>315.4</ele>
        <time>2025-04-30T17:12:17Z</time>
      </trkpt>
      <trkpt lat="45.71225" lon="4.74912">
        <ele>315.6</ele>
        <time>2025-04-30T17:12:18Z</time>
      </trkpt>
      <trkpt lat="45.71223" lon="4.74918">
        <ele>316</ele>
        <time>2025-04-30T17:12:19Z</time>
      </trkpt>
      <trkpt lat="45.7122" lon="4.74923">
        <ele>316.4</ele>
        <time>2025-04-30T17:12:20Z</time>
      </trkpt>
      <trkpt lat="45.71216" lon="4.74927">
        <ele>316.8</ele>
        <time>2025-04-30T17:12:21Z</time>
      </trkpt>
      <trkpt lat="45.71212" lon="4.74931">
        <ele>317</ele>
        <time>2025-04-30T17:12:22Z</time>
      </trkpt>
      <trkpt lat="45.71209" lon="4.74934">
        <ele>317.2</ele>
        <time>2025-04-30T17:12:23Z</time>
      </trkpt>
      <trkpt lat="45.71206" lon="4.74937">
        <ele>317.2</ele>
        <time>2025-04-30T17:12:24Z</time>
      </trkpt>
      <trkpt lat="45.71204" lon="4.74939">
        <ele>317.2</ele>
        <time>2025-04-30T17:12:25Z</time>
      </trkpt>
      <trkpt lat="45.71202" lon="4.74941">
        <ele>317.4</ele>
        <time>2025-04-30T17:12:26Z</time>
      </trkpt>
      <trkpt lat="45.71199" lon="4.74943">
        <ele>317.6</ele>
        <time>2025-04-30T17:12:27Z</time>
      </trkpt>
      <trkpt lat="45.71196" lon="4.74945">
        <ele>317.6</ele>
        <time>2025-04-30T17:12:28Z</time>
      </trkpt>
      <trkpt lat="45.71192" lon="4.74947">
        <ele>317.6</ele>
        <time>2025-04-30T17:12:29Z</time>
      </trkpt>
      <trkpt lat="45.71187" lon="4.74948">
        <ele>317.6</ele>
        <time>2025-04-30T17:12:30Z</time>
      </trkpt>
      <trkpt lat="45.71182" lon="4.7495">
        <ele>317.4</ele>
        <time>2025-04-30T17:12:31Z</time>
      </trkpt>
      <trkpt lat="45.71176" lon="4.74953">
        <ele>317</ele>
        <time>2025-04-30T17:12:32Z</time>
      </trkpt>
      <trkpt lat="45.71171" lon="4.74954">
        <ele>316.6</ele>
        <time>2025-04-30T17:12:33Z</time>
      </trkpt>
      <trkpt lat="45.71166" lon="4.74957">
        <ele>316</ele>
        <time>2025-04-30T17:12:34Z</time>
      </trkpt>
      <trkpt lat="45.7116" lon="4.7496">
        <ele>315.8</ele>
        <time>2025-04-30T17:12:35Z</time>
      </trkpt>
      <trkpt lat="45.71154" lon="4.74962">
        <ele>315.6</ele>
        <time>2025-04-30T17:12:36Z</time>
      </trkpt>
      <trkpt lat="45.71148" lon="4.74966">
        <ele>315.2</ele>
        <time>2025-04-30T17:12:37Z</time>
      </trkpt>
      <trkpt lat="45.71141" lon="4.74972">
        <ele>314.8</ele>
        <time>2025-04-30T17:12:38Z</time>
      </trkpt>
      <trkpt lat="45.71138" lon="4.74979">
        <ele>314.2</ele>
        <time>2025-04-30T17:12:39Z</time>
      </trkpt>
      <trkpt lat="45.71135" lon="4.74988">
        <ele>313.8</ele>
        <time>2025-04-30T17:12:40Z</time>
      </trkpt>
      <trkpt lat="45.71133" lon="4.74998">
        <ele>313.6</ele>
        <time>2025-04-30T17:12:41Z</time>
      </trkpt>
      <trkpt lat="45.71132" lon="4.75008">
        <ele>313</ele>
        <time>2025-04-30T17:12:42Z</time>
      </trkpt>
      <trkpt lat="45.71131" lon="4.75021">
        <ele>312.8</ele>
        <time>2025-04-30T17:12:43Z</time>
      </trkpt>
      <trkpt lat="45.71129" lon="4.7503">
        <ele>312.4</ele>
        <time>2025-04-30T17:12:44Z</time>
      </trkpt>
      <trkpt lat="45.71126" lon="4.7504">
        <ele>311.8</ele>
        <time>2025-04-30T17:12:45Z</time>
      </trkpt>
      <trkpt lat="45.71122" lon="4.75051">
        <ele>310.8</ele>
        <time>2025-04-30T17:12:46Z</time>
      </trkpt>
      <trkpt lat="45.71117" lon="4.75061">
        <ele>310.2</ele>
        <time>2025-04-30T17:12:47Z</time>
      </trkpt>
      <trkpt lat="45.71113" lon="4.75073">
        <ele>309.6</ele>
        <time>2025-04-30T17:12:48Z</time>
      </trkpt>
      <trkpt lat="45.71108" lon="4.75085">
        <ele>308.8</ele>
        <time>2025-04-30T17:12:49Z</time>
      </trkpt>
      <trkpt lat="45.71105" lon="4.75098">
        <ele>307.8</ele>
        <time>2025-04-30T17:12:50Z</time>
      </trkpt>
      <trkpt lat="45.71103" lon="4.75113">
        <ele>306.4</ele>
        <time>2025-04-30T17:12:51Z</time>
      </trkpt>
      <trkpt lat="45.71103" lon="4.75129">
        <ele>305.2</ele>
        <time>2025-04-30T17:12:52Z</time>
      </trkpt>
      <trkpt lat="45.71104" lon="4.75145">
        <ele>303.4</ele>
        <time>2025-04-30T17:12:53Z</time>
      </trkpt>
      <trkpt lat="45.71108" lon="4.75161">
        <ele>301.6</ele>
        <time>2025-04-30T17:12:54Z</time>
      </trkpt>
      <trkpt lat="45.71112" lon="4.75178">
        <ele>300.4</ele>
        <time>2025-04-30T17:12:55Z</time>
      </trkpt>
      <trkpt lat="45.71114" lon="4.75194">
        <ele>298.2</ele>
        <time>2025-04-30T17:12:56Z</time>
      </trkpt>
      <trkpt lat="45.71115" lon="4.7521">
        <ele>297</ele>
        <time>2025-04-30T17:12:57Z</time>
      </trkpt>
      <trkpt lat="45.71114" lon="4.75229">
        <ele>296</ele>
        <time>2025-04-30T17:12:58Z</time>
      </trkpt>
      <trkpt lat="45.71112" lon="4.7524">
        <ele>296</ele>
        <time>2025-04-30T17:12:59Z</time>
      </trkpt>
      <trkpt lat="45.71109" lon="4.75256">
        <ele>296</ele>
        <time>2025-04-30T17:13:00Z</time>
      </trkpt>
      <trkpt lat="45.71106" lon="4.75265">
        <ele>296</ele>
        <time>2025-04-30T17:13:01Z</time>
      </trkpt>
      <trkpt lat="45.71102" lon="4.75275">
        <ele>296.2</ele>
        <time>2025-04-30T17:13:02Z</time>
      </trkpt>
      <trkpt lat="45.71098" lon="4.75284">
        <ele>297</ele>
        <time>2025-04-30T17:13:03Z</time>
      </trkpt>
      <trkpt lat="45.71094" lon="4.75292">
        <ele>298.2</ele>
        <time>2025-04-30T17:13:04Z</time>
      </trkpt>
      <trkpt lat="45.71091" lon="4.75299">
        <ele>299.2</ele>
        <time>2025-04-30T17:13:05Z</time>
      </trkpt>
      <trkpt lat="45.71089" lon="4.75305">
        <ele>300.8</ele>
        <time>2025-04-30T17:13:06Z</time>
      </trkpt>
      <trkpt lat="45.71086" lon="4.75311">
        <ele>302.2</ele>
        <time>2025-04-30T17:13:07Z</time>
      </trkpt>
      <trkpt lat="45.71084" lon="4.75317">
        <ele>303.2</ele>
        <time>2025-04-30T17:13:08Z</time>
      </trkpt>
      <trkpt lat="45.71082" lon="4.75322">
        <ele>304.2</ele>
        <time>2025-04-30T17:13:09Z</time>
      </trkpt>
      <trkpt lat="45.71081" lon="4.75327">
        <ele>305.2</ele>
        <time>2025-04-30T17:13:10Z</time>
      </trkpt>
      <trkpt lat="45.71079" lon="4.75332">
        <ele>306.2</ele>
        <time>2025-04-30T17:13:11Z</time>
      </trkpt>
      <trkpt lat="45.71078" lon="4.75337">
        <ele>306.8</ele>
        <time>2025-04-30T17:13:12Z</time>
      </trkpt>
      <trkpt lat="45.71076" lon="4.75341">
        <ele>307.6</ele>
        <time>2025-04-30T17:13:13Z</time>
      </trkpt>
      <trkpt lat="45.71074" lon="4.75346">
        <ele>308.2</ele>
        <time>2025-04-30T17:13:14Z</time>
      </trkpt>
      <trkpt lat="45.71072" lon="4.75352">
        <ele>308.8</ele>
        <time>2025-04-30T17:13:15Z</time>
      </trkpt>
      <trkpt lat="45.71071" lon="4.75357">
        <ele>309.2</ele>
        <time>2025-04-30T17:13:16Z</time>
      </trkpt>
      <trkpt lat="45.7107" lon="4.75362">
        <ele>309.6</ele>
        <time>2025-04-30T17:13:17Z</time>
      </trkpt>
      <trkpt lat="45.71069" lon="4.75369">
        <ele>310.2</ele>
        <time>2025-04-30T17:13:18Z</time>
      </trkpt>
      <trkpt lat="45.71068" lon="4.75373">
        <ele>310.8</ele>
        <time>2025-04-30T17:13:19Z</time>
      </trkpt>
      <trkpt lat="45.71066" lon="4.75379">
        <ele>311.2</ele>
        <time>2025-04-30T17:13:20Z</time>
      </trkpt>
      <trkpt lat="45.71065" lon="4.75384">
        <ele>311.4</ele>
        <time>2025-04-30T17:13:21Z</time>
      </trkpt>
      <trkpt lat="45.71063" lon="4.75388">
        <ele>311.8</ele>
        <time>2025-04-30T17:13:22Z</time>
      </trkpt>
      <trkpt lat="45.71061" lon="4.75393">
        <ele>312.4</ele>
        <time>2025-04-30T17:13:23Z</time>
      </trkpt>
      <trkpt lat="45.7106" lon="4.75398">
        <ele>312.6</ele>
        <time>2025-04-30T17:13:24Z</time>
      </trkpt>
      <trkpt lat="45.71058" lon="4.75403">
        <ele>312.8</ele>
        <time>2025-04-30T17:13:25Z</time>
      </trkpt>
      <trkpt lat="45.71057" lon="4.75408">
        <ele>313</ele>
        <time>2025-04-30T17:13:26Z</time>
      </trkpt>
      <trkpt lat="45.71056" lon="4.75414">
        <ele>313.4</ele>
        <time>2025-04-30T17:13:27Z</time>
      </trkpt>
      <trkpt lat="45.71056" lon="4.7542">
        <ele>313.6</ele>
        <time>2025-04-30T17:13:28Z</time>
      </trkpt>
      <trkpt lat="45.71055" lon="4.75425">
        <ele>313.6</ele>
        <time>2025-04-30T17:13:29Z</time>
      </trkpt>
      <trkpt lat="45.71054" lon="4.75431">
        <ele>313.6</ele>
        <time>2025-04-30T17:13:30Z</time>
      </trkpt>
      <trkpt lat="45.71053" lon="4.75437">
        <ele>313.8</ele>
        <time>2025-04-30T17:13:31Z</time>
      </trkpt>
      <trkpt lat="45.71053" lon="4.75443">
        <ele>313.8</ele>
        <time>2025-04-30T17:13:32Z</time>
      </trkpt>
      <trkpt lat="45.71052" lon="4.7545">
        <ele>313.8</ele>
        <time>2025-04-30T17:13:33Z</time>
      </trkpt>
      <trkpt lat="45.71052" lon="4.75458">
        <ele>313.6</ele>
        <time>2025-04-30T17:13:34Z</time>
      </trkpt>
      <trkpt lat="45.71052" lon="4.75465">
        <ele>313.6</ele>
        <time>2025-04-30T17:13:35Z</time>
      </trkpt>
      <trkpt lat="45.71052" lon="4.75472">
        <ele>313.4</ele>
        <time>2025-04-30T17:13:36Z</time>
      </trkpt>
      <trkpt lat="45.71053" lon="4.7548">
        <ele>313.2</ele>
        <time>2025-04-30T17:13:37Z</time>
      </trkpt>
      <trkpt lat="45.71053" lon="4.75487">
        <ele>313</ele>
        <time>2025-04-30T17:13:38Z</time>
      </trkpt>
      <trkpt lat="45.71053" lon="4.75494">
        <ele>313</ele>
        <time>2025-04-30T17:13:39Z</time>
      </trkpt>
      <trkpt lat="45.71054" lon="4.75502">
        <ele>313</ele>
        <time>2025-04-30T17:13:40Z</time>
      </trkpt>
      <trkpt lat="45.71054" lon="4.75508">
        <ele>312.8</ele>
        <time>2025-04-30T17:13:41Z</time>
      </trkpt>
      <trkpt lat="45.71054" lon="4.75515">
        <ele>312.8</ele>
        <time>2025-04-30T17:13:42Z</time>
      </trkpt>
      <trkpt lat="45.71054" lon="4.75523">
        <ele>312.8</ele>
        <time>2025-04-30T17:13:43Z</time>
      </trkpt>
      <trkpt lat="45.71054" lon="4.7553">
        <ele>312.8</ele>
        <time>2025-04-30T17:13:44Z</time>
      </trkpt>
      <trkpt lat="45.71056" lon="4.75536">
        <ele>312.8</ele>
        <time>2025-04-30T17:13:45Z</time>
      </trkpt>
      <trkpt lat="45.71059" lon="4.7554">
        <ele>312.8</ele>
        <time>2025-04-30T17:13:46Z</time>
      </trkpt>
      <trkpt lat="45.71063" lon="4.75541">
        <ele>313</ele>
        <time>2025-04-30T17:13:47Z</time>
      </trkpt>
      <trkpt lat="45.71067" lon="4.75542">
        <ele>313.2</ele>
        <time>2025-04-30T17:13:48Z</time>
      </trkpt>
      <trkpt lat="45.7107" lon="4.75542">
        <ele>313.4</ele>
        <time>2025-04-30T17:13:49Z</time>
      </trkpt>
      <trkpt lat="45.71073" lon="4.75541">
        <ele>313.8</ele>
        <time>2025-04-30T17:13:50Z</time>
      </trkpt>
      <trkpt lat="45.71076" lon="4.75542">
        <ele>314</ele>
        <time>2025-04-30T17:13:51Z</time>
      </trkpt>
      <trkpt lat="45.71078" lon="4.75542">
        <ele>314.4</ele>
        <time>2025-04-30T17:13:52Z</time>
      </trkpt>
      <trkpt lat="45.7108" lon="4.75542">
        <ele>314.8</ele>
        <time>2025-04-30T17:13:53Z</time>
      </trkpt>
      <trkpt lat="45.71081" lon="4.75542">
        <ele>315</ele>
        <time>2025-04-30T17:13:54Z</time>
      </trkpt>
      <trkpt lat="45.71081" lon="4.75542">
        <ele>315.2</ele>
        <time>2025-04-30T17:13:55Z</time>
      </trkpt>
      <trkpt lat="45.71081" lon="4.75542">
        <ele>315.4</ele>
        <time>2025-04-30T17:13:56Z</time>
      </trkpt>
    </trkseg>
  </trk>
</gpx>